<?xml version="1.0" encoding="UTF-8" standalone="no" ?>
<gpx xmlns="http://www.topografix.com/GPX/1/1" xmlns:xsi="http://www.w3.org/2001/XMLSchema-instance" xsi:schemaLocation="http://www.topografix.com/GPX/1/1 http://www.topografix.com/GPX/1/1/gpx.xsd" version="1.1" creator="VisuGPX - https://www.visugpx.com">
  <metadata>
    <name>J1 Bis -Croix Suifs-Roller-Coco</name>
    <desc><![CDATA[Topo en boucle: Croix des suifs, Roller du crabe, Coco : que du bon :-)]]></desc>
  </metadata>
  <trk>
    <name><![CDATA[J1 Bis -Croix Suifs-Roller-Coco_1]]></name>
    <extensions>
      <line xmlns="http://www.topografix.com/GPX/gpx_style/0/2">
        <color>8c00ff</color>
        <width>4</width>
      </line>
    </extensions>
    <trkseg>
      <trkpt lat="45.07379" lon="5.56051">
        <ele>1033.4</ele>
      </trkpt>
      <trkpt lat="45.07369" lon="5.56056">
        <ele>1033.5</ele>
      </trkpt>
      <trkpt lat="45.07358" lon="5.5605">
        <ele>1033.4</ele>
      </trkpt>
      <trkpt lat="45.07319" lon="5.56054">
        <ele>1033.2</ele>
      </trkpt>
      <trkpt lat="45.0731" lon="5.56076">
        <ele>1034.1</ele>
      </trkpt>
      <trkpt lat="45.07274" lon="5.56059">
        <ele>1032.4</ele>
      </trkpt>
      <trkpt lat="45.07163" lon="5.5619">
        <ele>1046.8</ele>
      </trkpt>
      <trkpt lat="45.07175" lon="5.56202">
        <ele>1047.1</ele>
      </trkpt>
      <trkpt lat="45.07166" lon="5.56223">
        <ele>1049.1</ele>
      </trkpt>
      <trkpt lat="45.07141" lon="5.56225">
        <ele>1050.2</ele>
      </trkpt>
      <trkpt lat="45.0714" lon="5.56244">
        <ele>1051.5</ele>
      </trkpt>
      <trkpt lat="45.07166" lon="5.56263">
        <ele>1051</ele>
      </trkpt>
      <trkpt lat="45.07098" lon="5.56316">
        <ele>1054.8</ele>
      </trkpt>
      <trkpt lat="45.06989" lon="5.56364">
        <ele>1062.9</ele>
      </trkpt>
      <trkpt lat="45.06794" lon="5.56434">
        <ele>1083.9</ele>
      </trkpt>
      <trkpt lat="45.06735" lon="5.56549">
        <ele>1088.1</ele>
      </trkpt>
      <trkpt lat="45.06745" lon="5.5657">
        <ele>1086.6</ele>
      </trkpt>
      <trkpt lat="45.0684" lon="5.56591">
        <ele>1076.8</ele>
      </trkpt>
      <trkpt lat="45.06867" lon="5.5664">
        <ele>1079</ele>
      </trkpt>
      <trkpt lat="45.06854" lon="5.56676">
        <ele>1081.8</ele>
      </trkpt>
      <trkpt lat="45.06789" lon="5.56705">
        <ele>1086.3</ele>
      </trkpt>
      <trkpt lat="45.06799" lon="5.56785">
        <ele>1084</ele>
      </trkpt>
      <trkpt lat="45.06784" lon="5.56863">
        <ele>1092.1</ele>
      </trkpt>
      <trkpt lat="45.06923" lon="5.56988">
        <ele>1087.1</ele>
      </trkpt>
      <trkpt lat="45.06905" lon="5.57073">
        <ele>1100.1</ele>
      </trkpt>
      <trkpt lat="45.06963" lon="5.57143">
        <ele>1093.8</ele>
      </trkpt>
      <trkpt lat="45.06973" lon="5.57193">
        <ele>1098.7</ele>
      </trkpt>
      <trkpt lat="45.06951" lon="5.5721">
        <ele>1106.9</ele>
      </trkpt>
      <trkpt lat="45.07015" lon="5.57333">
        <ele>1109.1</ele>
      </trkpt>
      <trkpt lat="45.07047" lon="5.57436">
        <ele>1115.3</ele>
      </trkpt>
      <trkpt lat="45.07039" lon="5.57446">
        <ele>1117.7</ele>
      </trkpt>
      <trkpt lat="45.06964" lon="5.57388">
        <ele>1128.7</ele>
      </trkpt>
      <trkpt lat="45.06947" lon="5.57416">
        <ele>1136.2</ele>
      </trkpt>
      <trkpt lat="45.06982" lon="5.57462">
        <ele>1131.6</ele>
      </trkpt>
      <trkpt lat="45.06997" lon="5.57526">
        <ele>1136.2</ele>
      </trkpt>
      <trkpt lat="45.06988" lon="5.57602">
        <ele>1150.2</ele>
      </trkpt>
      <trkpt lat="45.07015" lon="5.57642">
        <ele>1152.5</ele>
      </trkpt>
      <trkpt lat="45.07068" lon="5.57772">
        <ele>1167.9</ele>
      </trkpt>
      <trkpt lat="45.07158" lon="5.57892">
        <ele>1181.1</ele>
      </trkpt>
      <trkpt lat="45.072" lon="5.57886">
        <ele>1177.1</ele>
      </trkpt>
      <trkpt lat="45.07279" lon="5.57905">
        <ele>1174.5</ele>
      </trkpt>
      <trkpt lat="45.07315" lon="5.57938">
        <ele>1199.6</ele>
        <time>2020-08-23T10:17:58Z</time>
      </trkpt>
      <trkpt lat="45.07314" lon="5.5794">
        <ele>1200</ele>
        <time>2020-08-23T10:17:59Z</time>
      </trkpt>
      <trkpt lat="45.07314" lon="5.57942">
        <ele>1200.4</ele>
        <time>2020-08-23T10:18:00Z</time>
      </trkpt>
      <trkpt lat="45.07313" lon="5.57944">
        <ele>1200.8</ele>
        <time>2020-08-23T10:18:01Z</time>
      </trkpt>
      <trkpt lat="45.07312" lon="5.57946">
        <ele>1201.2</ele>
        <time>2020-08-23T10:18:02Z</time>
      </trkpt>
      <trkpt lat="45.07311" lon="5.57948">
        <ele>1201.4</ele>
        <time>2020-08-23T10:18:03Z</time>
      </trkpt>
      <trkpt lat="45.0731" lon="5.5795">
        <ele>1201.8</ele>
        <time>2020-08-23T10:18:04Z</time>
      </trkpt>
      <trkpt lat="45.07309" lon="5.57952">
        <ele>1202.2</ele>
        <time>2020-08-23T10:18:05Z</time>
      </trkpt>
      <trkpt lat="45.07309" lon="5.57954">
        <ele>1202.6</ele>
        <time>2020-08-23T10:18:06Z</time>
      </trkpt>
      <trkpt lat="45.07309" lon="5.57956">
        <ele>1202.8</ele>
        <time>2020-08-23T10:18:07Z</time>
      </trkpt>
      <trkpt lat="45.07308" lon="5.57957">
        <ele>1203.2</ele>
        <time>2020-08-23T10:18:08Z</time>
      </trkpt>
      <trkpt lat="45.07308" lon="5.57959">
        <ele>1203.4</ele>
        <time>2020-08-23T10:18:09Z</time>
      </trkpt>
      <trkpt lat="45.07307" lon="5.5796">
        <ele>1203.8</ele>
        <time>2020-08-23T10:18:10Z</time>
      </trkpt>
      <trkpt lat="45.07307" lon="5.57962">
        <ele>1204.2</ele>
        <time>2020-08-23T10:18:11Z</time>
      </trkpt>
      <trkpt lat="45.07307" lon="5.57963">
        <ele>1204.4</ele>
        <time>2020-08-23T10:18:12Z</time>
      </trkpt>
      <trkpt lat="45.07306" lon="5.57965">
        <ele>1204.8</ele>
        <time>2020-08-23T10:18:13Z</time>
      </trkpt>
      <trkpt lat="45.07306" lon="5.57966">
        <ele>1205.2</ele>
        <time>2020-08-23T10:18:14Z</time>
      </trkpt>
      <trkpt lat="45.07306" lon="5.57968">
        <ele>1205.6</ele>
        <time>2020-08-23T10:18:15Z</time>
      </trkpt>
      <trkpt lat="45.07306" lon="5.5797">
        <ele>1205.8</ele>
        <time>2020-08-23T10:18:16Z</time>
      </trkpt>
      <trkpt lat="45.07306" lon="5.57971">
        <ele>1206.2</ele>
        <time>2020-08-23T10:18:17Z</time>
      </trkpt>
      <trkpt lat="45.07305" lon="5.57973">
        <ele>1206.6</ele>
        <time>2020-08-23T10:18:18Z</time>
      </trkpt>
      <trkpt lat="45.07305" lon="5.57974">
        <ele>1207</ele>
        <time>2020-08-23T10:18:19Z</time>
      </trkpt>
      <trkpt lat="45.07305" lon="5.57976">
        <ele>1207.4</ele>
        <time>2020-08-23T10:18:20Z</time>
      </trkpt>
      <trkpt lat="45.07304" lon="5.57977">
        <ele>1207.6</ele>
        <time>2020-08-23T10:18:21Z</time>
      </trkpt>
      <trkpt lat="45.07304" lon="5.57979">
        <ele>1208</ele>
        <time>2020-08-23T10:18:22Z</time>
      </trkpt>
      <trkpt lat="45.07303" lon="5.57981">
        <ele>1208.4</ele>
        <time>2020-08-23T10:18:23Z</time>
      </trkpt>
      <trkpt lat="45.07303" lon="5.57982">
        <ele>1208.8</ele>
        <time>2020-08-23T10:18:24Z</time>
      </trkpt>
      <trkpt lat="45.07303" lon="5.57984">
        <ele>1209.2</ele>
        <time>2020-08-23T10:18:25Z</time>
      </trkpt>
      <trkpt lat="45.07301" lon="5.57985">
        <ele>1209.6</ele>
        <time>2020-08-23T10:18:26Z</time>
      </trkpt>
      <trkpt lat="45.07301" lon="5.57987">
        <ele>1209.8</ele>
        <time>2020-08-23T10:18:27Z</time>
      </trkpt>
      <trkpt lat="45.073" lon="5.57988">
        <ele>1210.2</ele>
        <time>2020-08-23T10:18:28Z</time>
      </trkpt>
      <trkpt lat="45.073" lon="5.5799">
        <ele>1210.6</ele>
        <time>2020-08-23T10:18:29Z</time>
      </trkpt>
      <trkpt lat="45.07299" lon="5.57992">
        <ele>1210.8</ele>
        <time>2020-08-23T10:18:30Z</time>
      </trkpt>
      <trkpt lat="45.07299" lon="5.57993">
        <ele>1211.2</ele>
        <time>2020-08-23T10:18:31Z</time>
      </trkpt>
      <trkpt lat="45.07298" lon="5.57995">
        <ele>1211.6</ele>
        <time>2020-08-23T10:18:32Z</time>
      </trkpt>
      <trkpt lat="45.07298" lon="5.57996">
        <ele>1211.8</ele>
        <time>2020-08-23T10:18:33Z</time>
      </trkpt>
      <trkpt lat="45.07297" lon="5.57998">
        <ele>1212.2</ele>
        <time>2020-08-23T10:18:34Z</time>
      </trkpt>
      <trkpt lat="45.07296" lon="5.58">
        <ele>1212.6</ele>
        <time>2020-08-23T10:18:35Z</time>
      </trkpt>
      <trkpt lat="45.07296" lon="5.58001">
        <ele>1213</ele>
        <time>2020-08-23T10:18:36Z</time>
      </trkpt>
      <trkpt lat="45.07295" lon="5.58003">
        <ele>1213.2</ele>
        <time>2020-08-23T10:18:37Z</time>
      </trkpt>
      <trkpt lat="45.07295" lon="5.58005">
        <ele>1213.6</ele>
        <time>2020-08-23T10:18:38Z</time>
      </trkpt>
      <trkpt lat="45.07294" lon="5.58007">
        <ele>1214</ele>
        <time>2020-08-23T10:18:39Z</time>
      </trkpt>
      <trkpt lat="45.07293" lon="5.58008">
        <ele>1214.2</ele>
        <time>2020-08-23T10:18:40Z</time>
      </trkpt>
      <trkpt lat="45.07293" lon="5.5801">
        <ele>1214.6</ele>
        <time>2020-08-23T10:18:41Z</time>
      </trkpt>
      <trkpt lat="45.07292" lon="5.58011">
        <ele>1215</ele>
        <time>2020-08-23T10:18:42Z</time>
      </trkpt>
      <trkpt lat="45.07292" lon="5.58012">
        <ele>1215.2</ele>
        <time>2020-08-23T10:18:43Z</time>
      </trkpt>
      <trkpt lat="45.07291" lon="5.58014">
        <ele>1215.6</ele>
        <time>2020-08-23T10:18:44Z</time>
      </trkpt>
      <trkpt lat="45.07291" lon="5.58015">
        <ele>1215.8</ele>
        <time>2020-08-23T10:18:45Z</time>
      </trkpt>
      <trkpt lat="45.0729" lon="5.58016">
        <ele>1216.2</ele>
        <time>2020-08-23T10:18:46Z</time>
      </trkpt>
      <trkpt lat="45.07289" lon="5.58018">
        <ele>1216.6</ele>
        <time>2020-08-23T10:18:47Z</time>
      </trkpt>
      <trkpt lat="45.07289" lon="5.58019">
        <ele>1216.8</ele>
        <time>2020-08-23T10:18:48Z</time>
      </trkpt>
      <trkpt lat="45.07288" lon="5.5802">
        <ele>1217.2</ele>
        <time>2020-08-23T10:18:49Z</time>
      </trkpt>
      <trkpt lat="45.07288" lon="5.58022">
        <ele>1217.4</ele>
        <time>2020-08-23T10:18:50Z</time>
      </trkpt>
      <trkpt lat="45.07288" lon="5.58023">
        <ele>1217.8</ele>
        <time>2020-08-23T10:18:51Z</time>
      </trkpt>
      <trkpt lat="45.07287" lon="5.58024">
        <ele>1218</ele>
        <time>2020-08-23T10:18:52Z</time>
      </trkpt>
      <trkpt lat="45.07287" lon="5.58026">
        <ele>1218.4</ele>
        <time>2020-08-23T10:18:53Z</time>
      </trkpt>
      <trkpt lat="45.07286" lon="5.58027">
        <ele>1218.6</ele>
        <time>2020-08-23T10:18:54Z</time>
      </trkpt>
      <trkpt lat="45.07285" lon="5.58028">
        <ele>1219</ele>
        <time>2020-08-23T10:18:55Z</time>
      </trkpt>
      <trkpt lat="45.07284" lon="5.5803">
        <ele>1219.2</ele>
        <time>2020-08-23T10:18:56Z</time>
      </trkpt>
      <trkpt lat="45.07284" lon="5.58031">
        <ele>1219.6</ele>
        <time>2020-08-23T10:18:57Z</time>
      </trkpt>
      <trkpt lat="45.07283" lon="5.58033">
        <ele>1220</ele>
        <time>2020-08-23T10:18:58Z</time>
      </trkpt>
      <trkpt lat="45.07283" lon="5.58035">
        <ele>1220.2</ele>
        <time>2020-08-23T10:18:59Z</time>
      </trkpt>
      <trkpt lat="45.07283" lon="5.58037">
        <ele>1220.6</ele>
        <time>2020-08-23T10:19:00Z</time>
      </trkpt>
      <trkpt lat="45.07282" lon="5.58039">
        <ele>1220.8</ele>
        <time>2020-08-23T10:19:01Z</time>
      </trkpt>
      <trkpt lat="45.07282" lon="5.58041">
        <ele>1221.2</ele>
        <time>2020-08-23T10:19:02Z</time>
      </trkpt>
      <trkpt lat="45.0728" lon="5.58042">
        <ele>1221.4</ele>
        <time>2020-08-23T10:19:03Z</time>
      </trkpt>
      <trkpt lat="45.0728" lon="5.58044">
        <ele>1221.8</ele>
        <time>2020-08-23T10:19:04Z</time>
      </trkpt>
      <trkpt lat="45.07279" lon="5.58046">
        <ele>1222</ele>
        <time>2020-08-23T10:19:05Z</time>
      </trkpt>
      <trkpt lat="45.07278" lon="5.58048">
        <ele>1222.4</ele>
        <time>2020-08-23T10:19:06Z</time>
      </trkpt>
      <trkpt lat="45.07278" lon="5.58049">
        <ele>1222.6</ele>
        <time>2020-08-23T10:19:07Z</time>
      </trkpt>
      <trkpt lat="45.07277" lon="5.58051">
        <ele>1223</ele>
        <time>2020-08-23T10:19:08Z</time>
      </trkpt>
      <trkpt lat="45.07276" lon="5.58052">
        <ele>1223.2</ele>
        <time>2020-08-23T10:19:09Z</time>
      </trkpt>
      <trkpt lat="45.07276" lon="5.58053">
        <ele>1223.6</ele>
        <time>2020-08-23T10:19:10Z</time>
      </trkpt>
      <trkpt lat="45.07275" lon="5.58055">
        <ele>1223.8</ele>
        <time>2020-08-23T10:19:11Z</time>
      </trkpt>
      <trkpt lat="45.07274" lon="5.58056">
        <ele>1224.2</ele>
        <time>2020-08-23T10:19:12Z</time>
      </trkpt>
      <trkpt lat="45.07273" lon="5.58058">
        <ele>1224.6</ele>
        <time>2020-08-23T10:19:13Z</time>
      </trkpt>
      <trkpt lat="45.07273" lon="5.58059">
        <ele>1225</ele>
        <time>2020-08-23T10:19:14Z</time>
      </trkpt>
      <trkpt lat="45.07272" lon="5.5806">
        <ele>1225.2</ele>
        <time>2020-08-23T10:19:15Z</time>
      </trkpt>
      <trkpt lat="45.07272" lon="5.58062">
        <ele>1225.6</ele>
        <time>2020-08-23T10:19:16Z</time>
      </trkpt>
      <trkpt lat="45.07272" lon="5.58064">
        <ele>1226</ele>
        <time>2020-08-23T10:19:17Z</time>
      </trkpt>
      <trkpt lat="45.07271" lon="5.58065">
        <ele>1226.2</ele>
        <time>2020-08-23T10:19:18Z</time>
      </trkpt>
      <trkpt lat="45.07271" lon="5.58067">
        <ele>1226.6</ele>
        <time>2020-08-23T10:19:19Z</time>
      </trkpt>
      <trkpt lat="45.07271" lon="5.58069">
        <ele>1227</ele>
        <time>2020-08-23T10:19:20Z</time>
      </trkpt>
      <trkpt lat="45.07271" lon="5.5807">
        <ele>1227.4</ele>
        <time>2020-08-23T10:19:21Z</time>
      </trkpt>
      <trkpt lat="45.07271" lon="5.58072">
        <ele>1227.6</ele>
        <time>2020-08-23T10:19:22Z</time>
      </trkpt>
      <trkpt lat="45.07271" lon="5.58073">
        <ele>1228</ele>
        <time>2020-08-23T10:19:23Z</time>
      </trkpt>
      <trkpt lat="45.07271" lon="5.58075">
        <ele>1228.2</ele>
        <time>2020-08-23T10:19:24Z</time>
      </trkpt>
      <trkpt lat="45.07271" lon="5.58076">
        <ele>1228.6</ele>
        <time>2020-08-23T10:19:25Z</time>
      </trkpt>
      <trkpt lat="45.07272" lon="5.58078">
        <ele>1228.8</ele>
        <time>2020-08-23T10:19:26Z</time>
      </trkpt>
      <trkpt lat="45.07272" lon="5.58079">
        <ele>1229.2</ele>
        <time>2020-08-23T10:19:27Z</time>
      </trkpt>
      <trkpt lat="45.07272" lon="5.58081">
        <ele>1229.4</ele>
        <time>2020-08-23T10:19:28Z</time>
      </trkpt>
      <trkpt lat="45.07273" lon="5.58082">
        <ele>1229.8</ele>
        <time>2020-08-23T10:19:29Z</time>
      </trkpt>
      <trkpt lat="45.07273" lon="5.58083">
        <ele>1230</ele>
        <time>2020-08-23T10:19:30Z</time>
      </trkpt>
      <trkpt lat="45.07274" lon="5.58084">
        <ele>1230.4</ele>
        <time>2020-08-23T10:19:31Z</time>
      </trkpt>
      <trkpt lat="45.07275" lon="5.58086">
        <ele>1230.8</ele>
        <time>2020-08-23T10:19:32Z</time>
      </trkpt>
      <trkpt lat="45.07275" lon="5.58087">
        <ele>1231</ele>
        <time>2020-08-23T10:19:33Z</time>
      </trkpt>
      <trkpt lat="45.07276" lon="5.58088">
        <ele>1231.2</ele>
        <time>2020-08-23T10:19:34Z</time>
      </trkpt>
      <trkpt lat="45.07277" lon="5.5809">
        <ele>1231.4</ele>
        <time>2020-08-23T10:19:35Z</time>
      </trkpt>
      <trkpt lat="45.07277" lon="5.58091">
        <ele>1231.6</ele>
        <time>2020-08-23T10:19:36Z</time>
      </trkpt>
      <trkpt lat="45.07278" lon="5.58093">
        <ele>1232</ele>
        <time>2020-08-23T10:19:37Z</time>
      </trkpt>
      <trkpt lat="45.07278" lon="5.58094">
        <ele>1232.2</ele>
        <time>2020-08-23T10:19:38Z</time>
      </trkpt>
      <trkpt lat="45.0728" lon="5.58095">
        <ele>1232.6</ele>
        <time>2020-08-23T10:19:39Z</time>
      </trkpt>
      <trkpt lat="45.07281" lon="5.58096">
        <ele>1232.8</ele>
        <time>2020-08-23T10:19:40Z</time>
      </trkpt>
      <trkpt lat="45.07282" lon="5.58097">
        <ele>1233.2</ele>
        <time>2020-08-23T10:19:41Z</time>
      </trkpt>
      <trkpt lat="45.07283" lon="5.58098">
        <ele>1233.4</ele>
        <time>2020-08-23T10:19:42Z</time>
      </trkpt>
      <trkpt lat="45.07284" lon="5.58099">
        <ele>1233.8</ele>
        <time>2020-08-23T10:19:43Z</time>
      </trkpt>
      <trkpt lat="45.07285" lon="5.581">
        <ele>1234</ele>
        <time>2020-08-23T10:19:44Z</time>
      </trkpt>
      <trkpt lat="45.07286" lon="5.58102">
        <ele>1234.2</ele>
        <time>2020-08-23T10:19:45Z</time>
      </trkpt>
      <trkpt lat="45.07286" lon="5.58103">
        <ele>1234.4</ele>
        <time>2020-08-23T10:19:46Z</time>
      </trkpt>
      <trkpt lat="45.07287" lon="5.58104">
        <ele>1234.8</ele>
        <time>2020-08-23T10:19:47Z</time>
      </trkpt>
      <trkpt lat="45.07288" lon="5.58105">
        <ele>1235</ele>
        <time>2020-08-23T10:19:48Z</time>
      </trkpt>
      <trkpt lat="45.07289" lon="5.58106">
        <ele>1235.2</ele>
        <time>2020-08-23T10:19:49Z</time>
      </trkpt>
      <trkpt lat="45.0729" lon="5.58107">
        <ele>1235.4</ele>
        <time>2020-08-23T10:19:50Z</time>
      </trkpt>
      <trkpt lat="45.07291" lon="5.58108">
        <ele>1235.6</ele>
        <time>2020-08-23T10:19:51Z</time>
      </trkpt>
      <trkpt lat="45.07292" lon="5.58109">
        <ele>1235.8</ele>
        <time>2020-08-23T10:19:52Z</time>
      </trkpt>
      <trkpt lat="45.07293" lon="5.58111">
        <ele>1236</ele>
        <time>2020-08-23T10:19:53Z</time>
      </trkpt>
      <trkpt lat="45.07294" lon="5.58112">
        <ele>1236.4</ele>
        <time>2020-08-23T10:19:54Z</time>
      </trkpt>
      <trkpt lat="45.07295" lon="5.58113">
        <ele>1236.6</ele>
        <time>2020-08-23T10:19:55Z</time>
      </trkpt>
      <trkpt lat="45.07296" lon="5.58114">
        <ele>1236.8</ele>
        <time>2020-08-23T10:19:56Z</time>
      </trkpt>
      <trkpt lat="45.07296" lon="5.58115">
        <ele>1237</ele>
        <time>2020-08-23T10:19:57Z</time>
      </trkpt>
      <trkpt lat="45.07297" lon="5.58117">
        <ele>1237.2</ele>
        <time>2020-08-23T10:19:58Z</time>
      </trkpt>
      <trkpt lat="45.07298" lon="5.58118">
        <ele>1237.4</ele>
        <time>2020-08-23T10:19:59Z</time>
      </trkpt>
      <trkpt lat="45.07299" lon="5.58119">
        <ele>1237.6</ele>
        <time>2020-08-23T10:20:00Z</time>
      </trkpt>
      <trkpt lat="45.07299" lon="5.5812">
        <ele>1237.8</ele>
        <time>2020-08-23T10:20:01Z</time>
      </trkpt>
      <trkpt lat="45.073" lon="5.58122">
        <ele>1238.2</ele>
        <time>2020-08-23T10:20:02Z</time>
      </trkpt>
      <trkpt lat="45.07301" lon="5.58123">
        <ele>1238.4</ele>
        <time>2020-08-23T10:20:03Z</time>
      </trkpt>
      <trkpt lat="45.07301" lon="5.58125">
        <ele>1238.6</ele>
        <time>2020-08-23T10:20:04Z</time>
      </trkpt>
      <trkpt lat="45.07302" lon="5.58126">
        <ele>1239</ele>
        <time>2020-08-23T10:20:05Z</time>
      </trkpt>
      <trkpt lat="45.07303" lon="5.58127">
        <ele>1239.2</ele>
        <time>2020-08-23T10:20:06Z</time>
      </trkpt>
      <trkpt lat="45.07303" lon="5.58129">
        <ele>1239.4</ele>
        <time>2020-08-23T10:20:07Z</time>
      </trkpt>
      <trkpt lat="45.07304" lon="5.5813">
        <ele>1239.8</ele>
        <time>2020-08-23T10:20:08Z</time>
      </trkpt>
      <trkpt lat="45.07305" lon="5.58132">
        <ele>1240</ele>
        <time>2020-08-23T10:20:09Z</time>
      </trkpt>
      <trkpt lat="45.07305" lon="5.58133">
        <ele>1240.2</ele>
        <time>2020-08-23T10:20:10Z</time>
      </trkpt>
      <trkpt lat="45.07306" lon="5.58134">
        <ele>1240.6</ele>
        <time>2020-08-23T10:20:11Z</time>
      </trkpt>
      <trkpt lat="45.07307" lon="5.58135">
        <ele>1240.8</ele>
        <time>2020-08-23T10:20:12Z</time>
      </trkpt>
      <trkpt lat="45.07307" lon="5.58137">
        <ele>1241</ele>
        <time>2020-08-23T10:20:13Z</time>
      </trkpt>
      <trkpt lat="45.07308" lon="5.58138">
        <ele>1241.2</ele>
        <time>2020-08-23T10:20:14Z</time>
      </trkpt>
      <trkpt lat="45.07308" lon="5.58139">
        <ele>1241.6</ele>
        <time>2020-08-23T10:20:15Z</time>
      </trkpt>
      <trkpt lat="45.07309" lon="5.58141">
        <ele>1241.8</ele>
        <time>2020-08-23T10:20:16Z</time>
      </trkpt>
      <trkpt lat="45.07309" lon="5.58142">
        <ele>1242.2</ele>
        <time>2020-08-23T10:20:17Z</time>
      </trkpt>
      <trkpt lat="45.0731" lon="5.58143">
        <ele>1242.4</ele>
        <time>2020-08-23T10:20:18Z</time>
      </trkpt>
      <trkpt lat="45.07311" lon="5.58144">
        <ele>1242.6</ele>
        <time>2020-08-23T10:20:19Z</time>
      </trkpt>
      <trkpt lat="45.07312" lon="5.58145">
        <ele>1242.8</ele>
        <time>2020-08-23T10:20:20Z</time>
      </trkpt>
      <trkpt lat="45.07313" lon="5.58147">
        <ele>1243</ele>
        <time>2020-08-23T10:20:21Z</time>
      </trkpt>
      <trkpt lat="45.07314" lon="5.58148">
        <ele>1243.2</ele>
        <time>2020-08-23T10:20:22Z</time>
      </trkpt>
      <trkpt lat="45.07314" lon="5.58149">
        <ele>1243.6</ele>
        <time>2020-08-23T10:20:23Z</time>
      </trkpt>
      <trkpt lat="45.07315" lon="5.58151">
        <ele>1243.8</ele>
        <time>2020-08-23T10:20:24Z</time>
      </trkpt>
      <trkpt lat="45.07315" lon="5.58152">
        <ele>1244</ele>
        <time>2020-08-23T10:20:25Z</time>
      </trkpt>
      <trkpt lat="45.07316" lon="5.58154">
        <ele>1244.4</ele>
        <time>2020-08-23T10:20:26Z</time>
      </trkpt>
      <trkpt lat="45.07317" lon="5.58155">
        <ele>1244.6</ele>
        <time>2020-08-23T10:20:27Z</time>
      </trkpt>
      <trkpt lat="45.07317" lon="5.58156">
        <ele>1244.8</ele>
        <time>2020-08-23T10:20:28Z</time>
      </trkpt>
      <trkpt lat="45.07318" lon="5.58158">
        <ele>1245.2</ele>
        <time>2020-08-23T10:20:29Z</time>
      </trkpt>
      <trkpt lat="45.07319" lon="5.58159">
        <ele>1245.4</ele>
        <time>2020-08-23T10:20:30Z</time>
      </trkpt>
      <trkpt lat="45.07319" lon="5.5816">
        <ele>1245.6</ele>
        <time>2020-08-23T10:20:31Z</time>
      </trkpt>
      <trkpt lat="45.07319" lon="5.58162">
        <ele>1245.8</ele>
        <time>2020-08-23T10:20:32Z</time>
      </trkpt>
      <trkpt lat="45.0732" lon="5.58163">
        <ele>1246.2</ele>
        <time>2020-08-23T10:20:33Z</time>
      </trkpt>
      <trkpt lat="45.07321" lon="5.58165">
        <ele>1246.4</ele>
        <time>2020-08-23T10:20:34Z</time>
      </trkpt>
      <trkpt lat="45.07322" lon="5.58166">
        <ele>1246.6</ele>
        <time>2020-08-23T10:20:35Z</time>
      </trkpt>
      <trkpt lat="45.07322" lon="5.58167">
        <ele>1246.8</ele>
        <time>2020-08-23T10:20:36Z</time>
      </trkpt>
      <trkpt lat="45.07324" lon="5.58169">
        <ele>1247</ele>
        <time>2020-08-23T10:20:37Z</time>
      </trkpt>
      <trkpt lat="45.07324" lon="5.5817">
        <ele>1247.2</ele>
        <time>2020-08-23T10:20:38Z</time>
      </trkpt>
      <trkpt lat="45.07324" lon="5.58172">
        <ele>1247.4</ele>
        <time>2020-08-23T10:20:39Z</time>
      </trkpt>
      <trkpt lat="45.07325" lon="5.58173">
        <ele>1247.6</ele>
        <time>2020-08-23T10:20:40Z</time>
      </trkpt>
      <trkpt lat="45.07325" lon="5.58175">
        <ele>1247.8</ele>
        <time>2020-08-23T10:20:41Z</time>
      </trkpt>
      <trkpt lat="45.07326" lon="5.58177">
        <ele>1248.2</ele>
        <time>2020-08-23T10:20:42Z</time>
      </trkpt>
      <trkpt lat="45.07327" lon="5.58178">
        <ele>1248.4</ele>
        <time>2020-08-23T10:20:43Z</time>
      </trkpt>
      <trkpt lat="45.07327" lon="5.5818">
        <ele>1248.6</ele>
        <time>2020-08-23T10:20:44Z</time>
      </trkpt>
      <trkpt lat="45.07327" lon="5.58182">
        <ele>1248.8</ele>
        <time>2020-08-23T10:20:45Z</time>
      </trkpt>
      <trkpt lat="45.07328" lon="5.58183">
        <ele>1249</ele>
        <time>2020-08-23T10:20:46Z</time>
      </trkpt>
      <trkpt lat="45.07328" lon="5.58185">
        <ele>1249.2</ele>
        <time>2020-08-23T10:20:47Z</time>
      </trkpt>
      <trkpt lat="45.07329" lon="5.58186">
        <ele>1249.6</ele>
        <time>2020-08-23T10:20:48Z</time>
      </trkpt>
      <trkpt lat="45.0733" lon="5.58188">
        <ele>1249.8</ele>
        <time>2020-08-23T10:20:49Z</time>
      </trkpt>
      <trkpt lat="45.0733" lon="5.5819">
        <ele>1250</ele>
        <time>2020-08-23T10:20:50Z</time>
      </trkpt>
      <trkpt lat="45.07331" lon="5.58191">
        <ele>1250.2</ele>
        <time>2020-08-23T10:20:51Z</time>
      </trkpt>
      <trkpt lat="45.07332" lon="5.58193">
        <ele>1250.4</ele>
        <time>2020-08-23T10:20:52Z</time>
      </trkpt>
      <trkpt lat="45.07332" lon="5.58194">
        <ele>1250.6</ele>
        <time>2020-08-23T10:20:53Z</time>
      </trkpt>
      <trkpt lat="45.07333" lon="5.58196">
        <ele>1250.8</ele>
        <time>2020-08-23T10:20:54Z</time>
      </trkpt>
      <trkpt lat="45.07333" lon="5.58198">
        <ele>1251</ele>
        <time>2020-08-23T10:20:55Z</time>
      </trkpt>
      <trkpt lat="45.07334" lon="5.58199">
        <ele>1251.2</ele>
        <time>2020-08-23T10:20:56Z</time>
      </trkpt>
      <trkpt lat="45.07334" lon="5.58201">
        <ele>1251.4</ele>
        <time>2020-08-23T10:20:57Z</time>
      </trkpt>
      <trkpt lat="45.07335" lon="5.58202">
        <ele>1251.6</ele>
        <time>2020-08-23T10:20:58Z</time>
      </trkpt>
      <trkpt lat="45.07336" lon="5.58204">
        <ele>1251.8</ele>
        <time>2020-08-23T10:20:59Z</time>
      </trkpt>
      <trkpt lat="45.07336" lon="5.58206">
        <ele>1252</ele>
        <time>2020-08-23T10:21:00Z</time>
      </trkpt>
      <trkpt lat="45.07337" lon="5.58207">
        <ele>1252.2</ele>
        <time>2020-08-23T10:21:01Z</time>
      </trkpt>
      <trkpt lat="45.07338" lon="5.58209">
        <ele>1252.4</ele>
        <time>2020-08-23T10:21:02Z</time>
      </trkpt>
      <trkpt lat="45.07338" lon="5.5821">
        <ele>1252.6</ele>
        <time>2020-08-23T10:21:03Z</time>
      </trkpt>
      <trkpt lat="45.07339" lon="5.58212">
        <ele>1252.8</ele>
        <time>2020-08-23T10:21:04Z</time>
      </trkpt>
      <trkpt lat="45.07339" lon="5.58213">
        <ele>1252.8</ele>
        <time>2020-08-23T10:21:05Z</time>
      </trkpt>
      <trkpt lat="45.0734" lon="5.58215">
        <ele>1253</ele>
        <time>2020-08-23T10:21:06Z</time>
      </trkpt>
      <trkpt lat="45.07341" lon="5.58216">
        <ele>1253.2</ele>
        <time>2020-08-23T10:21:07Z</time>
      </trkpt>
      <trkpt lat="45.07341" lon="5.58217">
        <ele>1253.4</ele>
        <time>2020-08-23T10:21:08Z</time>
      </trkpt>
      <trkpt lat="45.07341" lon="5.58219">
        <ele>1253.6</ele>
        <time>2020-08-23T10:21:09Z</time>
      </trkpt>
      <trkpt lat="45.07342" lon="5.5822">
        <ele>1253.8</ele>
        <time>2020-08-23T10:21:10Z</time>
      </trkpt>
      <trkpt lat="45.07343" lon="5.58221">
        <ele>1254</ele>
        <time>2020-08-23T10:21:11Z</time>
      </trkpt>
      <trkpt lat="45.07344" lon="5.58223">
        <ele>1254.2</ele>
        <time>2020-08-23T10:21:12Z</time>
      </trkpt>
      <trkpt lat="45.07344" lon="5.58224">
        <ele>1254.4</ele>
        <time>2020-08-23T10:21:13Z</time>
      </trkpt>
      <trkpt lat="45.07344" lon="5.58225">
        <ele>1254.6</ele>
        <time>2020-08-23T10:21:14Z</time>
      </trkpt>
      <trkpt lat="45.07346" lon="5.58227">
        <ele>1254.8</ele>
        <time>2020-08-23T10:21:15Z</time>
      </trkpt>
      <trkpt lat="45.07346" lon="5.58228">
        <ele>1255</ele>
        <time>2020-08-23T10:21:16Z</time>
      </trkpt>
      <trkpt lat="45.07347" lon="5.58229">
        <ele>1255.2</ele>
        <time>2020-08-23T10:21:17Z</time>
      </trkpt>
      <trkpt lat="45.07348" lon="5.5823">
        <ele>1255.4</ele>
        <time>2020-08-23T10:21:18Z</time>
      </trkpt>
      <trkpt lat="45.07348" lon="5.58232">
        <ele>1255.6</ele>
        <time>2020-08-23T10:21:19Z</time>
      </trkpt>
      <trkpt lat="45.07349" lon="5.58233">
        <ele>1255.8</ele>
        <time>2020-08-23T10:21:20Z</time>
      </trkpt>
      <trkpt lat="45.0735" lon="5.58235">
        <ele>1256</ele>
        <time>2020-08-23T10:21:21Z</time>
      </trkpt>
      <trkpt lat="45.0735" lon="5.58236">
        <ele>1256.2</ele>
        <time>2020-08-23T10:21:22Z</time>
      </trkpt>
      <trkpt lat="45.07351" lon="5.58238">
        <ele>1256.4</ele>
        <time>2020-08-23T10:21:23Z</time>
      </trkpt>
      <trkpt lat="45.07352" lon="5.58239">
        <ele>1256.6</ele>
        <time>2020-08-23T10:21:24Z</time>
      </trkpt>
      <trkpt lat="45.07352" lon="5.5824">
        <ele>1256.8</ele>
        <time>2020-08-23T10:21:25Z</time>
      </trkpt>
      <trkpt lat="45.07353" lon="5.58241">
        <ele>1257</ele>
        <time>2020-08-23T10:21:26Z</time>
      </trkpt>
      <trkpt lat="45.07354" lon="5.58243">
        <ele>1257.4</ele>
        <time>2020-08-23T10:21:27Z</time>
      </trkpt>
      <trkpt lat="45.07354" lon="5.58244">
        <ele>1257.6</ele>
        <time>2020-08-23T10:21:28Z</time>
      </trkpt>
      <trkpt lat="45.07355" lon="5.58245">
        <ele>1257.8</ele>
        <time>2020-08-23T10:21:29Z</time>
      </trkpt>
      <trkpt lat="45.07356" lon="5.58247">
        <ele>1258</ele>
        <time>2020-08-23T10:21:30Z</time>
      </trkpt>
      <trkpt lat="45.07356" lon="5.58249">
        <ele>1258.2</ele>
        <time>2020-08-23T10:21:31Z</time>
      </trkpt>
      <trkpt lat="45.07357" lon="5.5825">
        <ele>1258.4</ele>
        <time>2020-08-23T10:21:32Z</time>
      </trkpt>
      <trkpt lat="45.07358" lon="5.58251">
        <ele>1258.8</ele>
        <time>2020-08-23T10:21:33Z</time>
      </trkpt>
      <trkpt lat="45.07359" lon="5.58253">
        <ele>1259</ele>
        <time>2020-08-23T10:21:34Z</time>
      </trkpt>
      <trkpt lat="45.07359" lon="5.58254">
        <ele>1259.2</ele>
        <time>2020-08-23T10:21:35Z</time>
      </trkpt>
      <trkpt lat="45.0736" lon="5.58256">
        <ele>1259.4</ele>
        <time>2020-08-23T10:21:36Z</time>
      </trkpt>
      <trkpt lat="45.07361" lon="5.58257">
        <ele>1259.6</ele>
        <time>2020-08-23T10:21:37Z</time>
      </trkpt>
      <trkpt lat="45.07361" lon="5.58258">
        <ele>1259.8</ele>
        <time>2020-08-23T10:21:38Z</time>
      </trkpt>
      <trkpt lat="45.07362" lon="5.5826">
        <ele>1260.2</ele>
        <time>2020-08-23T10:21:39Z</time>
      </trkpt>
      <trkpt lat="45.07362" lon="5.58261">
        <ele>1260.2</ele>
        <time>2020-08-23T10:21:40Z</time>
      </trkpt>
      <trkpt lat="45.07363" lon="5.58263">
        <ele>1260.4</ele>
        <time>2020-08-23T10:21:41Z</time>
      </trkpt>
      <trkpt lat="45.07364" lon="5.58264">
        <ele>1260.6</ele>
        <time>2020-08-23T10:21:42Z</time>
      </trkpt>
      <trkpt lat="45.07364" lon="5.58265">
        <ele>1260.8</ele>
        <time>2020-08-23T10:21:43Z</time>
      </trkpt>
      <trkpt lat="45.07365" lon="5.58267">
        <ele>1261</ele>
        <time>2020-08-23T10:21:44Z</time>
      </trkpt>
      <trkpt lat="45.07365" lon="5.58268">
        <ele>1261.2</ele>
        <time>2020-08-23T10:21:45Z</time>
      </trkpt>
      <trkpt lat="45.07366" lon="5.5827">
        <ele>1261.4</ele>
        <time>2020-08-23T10:21:46Z</time>
      </trkpt>
      <trkpt lat="45.07367" lon="5.58271">
        <ele>1261.6</ele>
        <time>2020-08-23T10:21:47Z</time>
      </trkpt>
      <trkpt lat="45.07368" lon="5.58272">
        <ele>1261.8</ele>
        <time>2020-08-23T10:21:48Z</time>
      </trkpt>
      <trkpt lat="45.07369" lon="5.58274">
        <ele>1262</ele>
        <time>2020-08-23T10:21:49Z</time>
      </trkpt>
      <trkpt lat="45.07369" lon="5.58275">
        <ele>1262.2</ele>
        <time>2020-08-23T10:21:50Z</time>
      </trkpt>
      <trkpt lat="45.0737" lon="5.58276">
        <ele>1262.2</ele>
        <time>2020-08-23T10:21:51Z</time>
      </trkpt>
      <trkpt lat="45.07371" lon="5.58277">
        <ele>1262.6</ele>
        <time>2020-08-23T10:21:52Z</time>
      </trkpt>
      <trkpt lat="45.07372" lon="5.58278">
        <ele>1262.8</ele>
        <time>2020-08-23T10:21:53Z</time>
      </trkpt>
      <trkpt lat="45.07373" lon="5.58279">
        <ele>1263</ele>
        <time>2020-08-23T10:21:54Z</time>
      </trkpt>
      <trkpt lat="45.07374" lon="5.5828">
        <ele>1263.2</ele>
        <time>2020-08-23T10:21:55Z</time>
      </trkpt>
      <trkpt lat="45.07375" lon="5.58281">
        <ele>1263.4</ele>
        <time>2020-08-23T10:21:56Z</time>
      </trkpt>
      <trkpt lat="45.07375" lon="5.58282">
        <ele>1263.6</ele>
        <time>2020-08-23T10:21:57Z</time>
      </trkpt>
      <trkpt lat="45.07377" lon="5.58284">
        <ele>1263.6</ele>
        <time>2020-08-23T10:21:58Z</time>
      </trkpt>
      <trkpt lat="45.07377" lon="5.58285">
        <ele>1263.8</ele>
        <time>2020-08-23T10:21:59Z</time>
      </trkpt>
      <trkpt lat="45.07378" lon="5.58286">
        <ele>1264</ele>
        <time>2020-08-23T10:22:00Z</time>
      </trkpt>
      <trkpt lat="45.07378" lon="5.58287">
        <ele>1264</ele>
        <time>2020-08-23T10:22:01Z</time>
      </trkpt>
      <trkpt lat="45.0738" lon="5.58288">
        <ele>1264.2</ele>
        <time>2020-08-23T10:22:02Z</time>
      </trkpt>
      <trkpt lat="45.07379" lon="5.58288">
        <ele>1264.4</ele>
        <time>2020-08-23T10:22:04Z</time>
      </trkpt>
      <trkpt lat="45.07379" lon="5.58288">
        <ele>1264.6</ele>
        <time>2020-08-23T10:22:05Z</time>
      </trkpt>
      <trkpt lat="45.07379" lon="5.58288">
        <ele>1264.6</ele>
        <time>2020-08-23T10:22:06Z</time>
      </trkpt>
      <trkpt lat="45.07379" lon="5.58288">
        <ele>1264.6</ele>
        <time>2020-08-23T10:22:07Z</time>
      </trkpt>
      <trkpt lat="45.07379" lon="5.58288">
        <ele>1264.8</ele>
        <time>2020-08-23T10:22:08Z</time>
      </trkpt>
      <trkpt lat="45.07379" lon="5.58288">
        <ele>1264.8</ele>
        <time>2020-08-23T10:22:09Z</time>
      </trkpt>
      <trkpt lat="45.07383" lon="5.58293">
        <ele>1265</ele>
        <time>2020-08-23T10:41:27Z</time>
      </trkpt>
      <trkpt lat="45.07384" lon="5.58294">
        <ele>1265</ele>
        <time>2020-08-23T10:41:28Z</time>
      </trkpt>
      <trkpt lat="45.07385" lon="5.58296">
        <ele>1265</ele>
        <time>2020-08-23T10:41:29Z</time>
      </trkpt>
      <trkpt lat="45.07386" lon="5.58297">
        <ele>1264.8</ele>
        <time>2020-08-23T10:41:30Z</time>
      </trkpt>
      <trkpt lat="45.07386" lon="5.58299">
        <ele>1264.8</ele>
        <time>2020-08-23T10:41:31Z</time>
      </trkpt>
      <trkpt lat="45.07388" lon="5.583">
        <ele>1264.8</ele>
        <time>2020-08-23T10:41:32Z</time>
      </trkpt>
      <trkpt lat="45.07388" lon="5.58302">
        <ele>1265</ele>
        <time>2020-08-23T10:41:33Z</time>
      </trkpt>
      <trkpt lat="45.0739" lon="5.58304">
        <ele>1265</ele>
        <time>2020-08-23T10:41:34Z</time>
      </trkpt>
      <trkpt lat="45.07391" lon="5.58306">
        <ele>1265</ele>
        <time>2020-08-23T10:41:35Z</time>
      </trkpt>
      <trkpt lat="45.07392" lon="5.58308">
        <ele>1265.2</ele>
        <time>2020-08-23T10:41:36Z</time>
      </trkpt>
      <trkpt lat="45.07393" lon="5.58309">
        <ele>1265.2</ele>
        <time>2020-08-23T10:41:37Z</time>
      </trkpt>
      <trkpt lat="45.07394" lon="5.5831">
        <ele>1265.2</ele>
        <time>2020-08-23T10:41:38Z</time>
      </trkpt>
      <trkpt lat="45.07395" lon="5.5831">
        <ele>1265.2</ele>
        <time>2020-08-23T10:41:39Z</time>
      </trkpt>
      <trkpt lat="45.07396" lon="5.58311">
        <ele>1265.4</ele>
        <time>2020-08-23T10:41:40Z</time>
      </trkpt>
      <trkpt lat="45.07398" lon="5.58312">
        <ele>1265.4</ele>
        <time>2020-08-23T10:41:41Z</time>
      </trkpt>
      <trkpt lat="45.07399" lon="5.58314">
        <ele>1265.4</ele>
        <time>2020-08-23T10:41:42Z</time>
      </trkpt>
      <trkpt lat="45.074" lon="5.58315">
        <ele>1265.6</ele>
        <time>2020-08-23T10:41:43Z</time>
      </trkpt>
      <trkpt lat="45.07401" lon="5.58317">
        <ele>1265.6</ele>
        <time>2020-08-23T10:41:44Z</time>
      </trkpt>
      <trkpt lat="45.07402" lon="5.58319">
        <ele>1265.8</ele>
        <time>2020-08-23T10:41:45Z</time>
      </trkpt>
      <trkpt lat="45.07404" lon="5.5832">
        <ele>1266</ele>
        <time>2020-08-23T10:41:46Z</time>
      </trkpt>
      <trkpt lat="45.07405" lon="5.58321">
        <ele>1266</ele>
        <time>2020-08-23T10:41:47Z</time>
      </trkpt>
      <trkpt lat="45.07407" lon="5.58323">
        <ele>1266.2</ele>
        <time>2020-08-23T10:41:48Z</time>
      </trkpt>
      <trkpt lat="45.07408" lon="5.58325">
        <ele>1266.2</ele>
        <time>2020-08-23T10:41:49Z</time>
      </trkpt>
      <trkpt lat="45.0741" lon="5.58327">
        <ele>1266.4</ele>
        <time>2020-08-23T10:41:50Z</time>
      </trkpt>
      <trkpt lat="45.07412" lon="5.58329">
        <ele>1266.4</ele>
        <time>2020-08-23T10:41:51Z</time>
      </trkpt>
      <trkpt lat="45.07414" lon="5.58331">
        <ele>1266.6</ele>
        <time>2020-08-23T10:41:52Z</time>
      </trkpt>
      <trkpt lat="45.07417" lon="5.58333">
        <ele>1266.8</ele>
        <time>2020-08-23T10:41:53Z</time>
      </trkpt>
      <trkpt lat="45.0742" lon="5.58336">
        <ele>1266.8</ele>
        <time>2020-08-23T10:41:54Z</time>
      </trkpt>
      <trkpt lat="45.07423" lon="5.58338">
        <ele>1267</ele>
        <time>2020-08-23T10:41:55Z</time>
      </trkpt>
      <trkpt lat="45.07425" lon="5.58341">
        <ele>1267.2</ele>
        <time>2020-08-23T10:41:56Z</time>
      </trkpt>
      <trkpt lat="45.07428" lon="5.58344">
        <ele>1267.2</ele>
        <time>2020-08-23T10:41:57Z</time>
      </trkpt>
      <trkpt lat="45.0743" lon="5.58346">
        <ele>1267.4</ele>
        <time>2020-08-23T10:41:58Z</time>
      </trkpt>
      <trkpt lat="45.07433" lon="5.58349">
        <ele>1267.4</ele>
        <time>2020-08-23T10:41:59Z</time>
      </trkpt>
      <trkpt lat="45.07435" lon="5.58351">
        <ele>1267.6</ele>
        <time>2020-08-23T10:42:00Z</time>
      </trkpt>
      <trkpt lat="45.07438" lon="5.58354">
        <ele>1267.8</ele>
        <time>2020-08-23T10:42:01Z</time>
      </trkpt>
      <trkpt lat="45.0744" lon="5.58357">
        <ele>1268</ele>
        <time>2020-08-23T10:42:02Z</time>
      </trkpt>
      <trkpt lat="45.07443" lon="5.5836">
        <ele>1268.2</ele>
        <time>2020-08-23T10:42:03Z</time>
      </trkpt>
      <trkpt lat="45.07444" lon="5.58363">
        <ele>1268.2</ele>
        <time>2020-08-23T10:42:04Z</time>
      </trkpt>
      <trkpt lat="45.07447" lon="5.58366">
        <ele>1268.4</ele>
        <time>2020-08-23T10:42:05Z</time>
      </trkpt>
      <trkpt lat="45.07449" lon="5.58369">
        <ele>1268.4</ele>
        <time>2020-08-23T10:42:06Z</time>
      </trkpt>
      <trkpt lat="45.07451" lon="5.58372">
        <ele>1268.6</ele>
        <time>2020-08-23T10:42:07Z</time>
      </trkpt>
      <trkpt lat="45.07453" lon="5.58375">
        <ele>1268.8</ele>
        <time>2020-08-23T10:42:08Z</time>
      </trkpt>
      <trkpt lat="45.07455" lon="5.58378">
        <ele>1269</ele>
        <time>2020-08-23T10:42:09Z</time>
      </trkpt>
      <trkpt lat="45.07457" lon="5.5838">
        <ele>1269</ele>
        <time>2020-08-23T10:42:10Z</time>
      </trkpt>
      <trkpt lat="45.07459" lon="5.58383">
        <ele>1269.2</ele>
        <time>2020-08-23T10:42:11Z</time>
      </trkpt>
      <trkpt lat="45.0746" lon="5.58386">
        <ele>1269.4</ele>
        <time>2020-08-23T10:42:12Z</time>
      </trkpt>
      <trkpt lat="45.07462" lon="5.58388">
        <ele>1269.6</ele>
        <time>2020-08-23T10:42:13Z</time>
      </trkpt>
      <trkpt lat="45.07464" lon="5.58391">
        <ele>1269.6</ele>
        <time>2020-08-23T10:42:14Z</time>
      </trkpt>
      <trkpt lat="45.07465" lon="5.58393">
        <ele>1269.8</ele>
        <time>2020-08-23T10:42:15Z</time>
      </trkpt>
      <trkpt lat="45.07467" lon="5.58396">
        <ele>1270</ele>
        <time>2020-08-23T10:42:16Z</time>
      </trkpt>
      <trkpt lat="45.07469" lon="5.58399">
        <ele>1270</ele>
        <time>2020-08-23T10:42:17Z</time>
      </trkpt>
      <trkpt lat="45.0747" lon="5.58401">
        <ele>1270.2</ele>
        <time>2020-08-23T10:42:18Z</time>
      </trkpt>
      <trkpt lat="45.07472" lon="5.58404">
        <ele>1270.4</ele>
        <time>2020-08-23T10:42:19Z</time>
      </trkpt>
      <trkpt lat="45.07473" lon="5.58406">
        <ele>1270.4</ele>
        <time>2020-08-23T10:42:20Z</time>
      </trkpt>
      <trkpt lat="45.07475" lon="5.58409">
        <ele>1270.6</ele>
        <time>2020-08-23T10:42:21Z</time>
      </trkpt>
      <trkpt lat="45.07476" lon="5.58412">
        <ele>1270.6</ele>
        <time>2020-08-23T10:42:22Z</time>
      </trkpt>
      <trkpt lat="45.07478" lon="5.58414">
        <ele>1270.8</ele>
        <time>2020-08-23T10:42:23Z</time>
      </trkpt>
      <trkpt lat="45.07479" lon="5.58416">
        <ele>1271</ele>
        <time>2020-08-23T10:42:24Z</time>
      </trkpt>
      <trkpt lat="45.0748" lon="5.58418">
        <ele>1271.2</ele>
        <time>2020-08-23T10:42:25Z</time>
      </trkpt>
      <trkpt lat="45.07482" lon="5.58421">
        <ele>1271.2</ele>
        <time>2020-08-23T10:42:26Z</time>
      </trkpt>
      <trkpt lat="45.07483" lon="5.58423">
        <ele>1271.4</ele>
        <time>2020-08-23T10:42:27Z</time>
      </trkpt>
      <trkpt lat="45.07484" lon="5.58425">
        <ele>1271.6</ele>
        <time>2020-08-23T10:42:28Z</time>
      </trkpt>
      <trkpt lat="45.07485" lon="5.58426">
        <ele>1271.8</ele>
        <time>2020-08-23T10:42:29Z</time>
      </trkpt>
      <trkpt lat="45.07486" lon="5.58428">
        <ele>1271.8</ele>
        <time>2020-08-23T10:42:30Z</time>
      </trkpt>
      <trkpt lat="45.07488" lon="5.5843">
        <ele>1272</ele>
        <time>2020-08-23T10:42:31Z</time>
      </trkpt>
      <trkpt lat="45.07489" lon="5.58432">
        <ele>1272.2</ele>
        <time>2020-08-23T10:42:32Z</time>
      </trkpt>
      <trkpt lat="45.0749" lon="5.58434">
        <ele>1272.4</ele>
        <time>2020-08-23T10:42:33Z</time>
      </trkpt>
      <trkpt lat="45.07491" lon="5.58436">
        <ele>1272.6</ele>
        <time>2020-08-23T10:42:34Z</time>
      </trkpt>
      <trkpt lat="45.07492" lon="5.58437">
        <ele>1272.8</ele>
        <time>2020-08-23T10:42:35Z</time>
      </trkpt>
      <trkpt lat="45.07494" lon="5.58439">
        <ele>1272.8</ele>
        <time>2020-08-23T10:42:36Z</time>
      </trkpt>
      <trkpt lat="45.07495" lon="5.58441">
        <ele>1273</ele>
        <time>2020-08-23T10:42:37Z</time>
      </trkpt>
      <trkpt lat="45.07496" lon="5.58444">
        <ele>1273</ele>
        <time>2020-08-23T10:42:38Z</time>
      </trkpt>
      <trkpt lat="45.07497" lon="5.58446">
        <ele>1273.2</ele>
        <time>2020-08-23T10:42:39Z</time>
      </trkpt>
      <trkpt lat="45.07498" lon="5.58447">
        <ele>1273.4</ele>
        <time>2020-08-23T10:42:40Z</time>
      </trkpt>
      <trkpt lat="45.07499" lon="5.58449">
        <ele>1273.4</ele>
        <time>2020-08-23T10:42:41Z</time>
      </trkpt>
      <trkpt lat="45.07501" lon="5.58451">
        <ele>1273.6</ele>
        <time>2020-08-23T10:42:42Z</time>
      </trkpt>
      <trkpt lat="45.07502" lon="5.58453">
        <ele>1273.6</ele>
        <time>2020-08-23T10:42:43Z</time>
      </trkpt>
      <trkpt lat="45.07503" lon="5.58455">
        <ele>1273.8</ele>
        <time>2020-08-23T10:42:44Z</time>
      </trkpt>
      <trkpt lat="45.07504" lon="5.58456">
        <ele>1274</ele>
        <time>2020-08-23T10:42:45Z</time>
      </trkpt>
      <trkpt lat="45.07505" lon="5.58458">
        <ele>1274.2</ele>
        <time>2020-08-23T10:42:46Z</time>
      </trkpt>
      <trkpt lat="45.07505" lon="5.5846">
        <ele>1274.2</ele>
        <time>2020-08-23T10:42:47Z</time>
      </trkpt>
      <trkpt lat="45.07507" lon="5.58461">
        <ele>1274.4</ele>
        <time>2020-08-23T10:42:48Z</time>
      </trkpt>
      <trkpt lat="45.07508" lon="5.58463">
        <ele>1274.6</ele>
        <time>2020-08-23T10:42:49Z</time>
      </trkpt>
      <trkpt lat="45.07509" lon="5.58464">
        <ele>1274.8</ele>
        <time>2020-08-23T10:42:50Z</time>
      </trkpt>
      <trkpt lat="45.0751" lon="5.58465">
        <ele>1274.8</ele>
        <time>2020-08-23T10:42:51Z</time>
      </trkpt>
      <trkpt lat="45.07511" lon="5.58467">
        <ele>1275</ele>
        <time>2020-08-23T10:42:52Z</time>
      </trkpt>
      <trkpt lat="45.07512" lon="5.58468">
        <ele>1275.2</ele>
        <time>2020-08-23T10:42:53Z</time>
      </trkpt>
      <trkpt lat="45.07513" lon="5.58469">
        <ele>1275.4</ele>
        <time>2020-08-23T10:42:54Z</time>
      </trkpt>
      <trkpt lat="45.07514" lon="5.5847">
        <ele>1275.4</ele>
        <time>2020-08-23T10:42:55Z</time>
      </trkpt>
      <trkpt lat="45.07515" lon="5.58472">
        <ele>1275.6</ele>
        <time>2020-08-23T10:42:56Z</time>
      </trkpt>
      <trkpt lat="45.07515" lon="5.58473">
        <ele>1275.8</ele>
        <time>2020-08-23T10:42:57Z</time>
      </trkpt>
      <trkpt lat="45.07516" lon="5.58475">
        <ele>1276</ele>
        <time>2020-08-23T10:42:58Z</time>
      </trkpt>
      <trkpt lat="45.07517" lon="5.58476">
        <ele>1276.2</ele>
        <time>2020-08-23T10:42:59Z</time>
      </trkpt>
      <trkpt lat="45.07518" lon="5.58477">
        <ele>1276.4</ele>
        <time>2020-08-23T10:43:00Z</time>
      </trkpt>
      <trkpt lat="45.07519" lon="5.58478">
        <ele>1276.6</ele>
        <time>2020-08-23T10:43:01Z</time>
      </trkpt>
      <trkpt lat="45.0752" lon="5.58479">
        <ele>1276.8</ele>
        <time>2020-08-23T10:43:02Z</time>
      </trkpt>
      <trkpt lat="45.07521" lon="5.58481">
        <ele>1276.8</ele>
        <time>2020-08-23T10:43:03Z</time>
      </trkpt>
      <trkpt lat="45.07522" lon="5.58482">
        <ele>1277</ele>
        <time>2020-08-23T10:43:04Z</time>
      </trkpt>
      <trkpt lat="45.07523" lon="5.58483">
        <ele>1277.2</ele>
        <time>2020-08-23T10:43:05Z</time>
      </trkpt>
      <trkpt lat="45.07524" lon="5.58484">
        <ele>1277.4</ele>
        <time>2020-08-23T10:43:06Z</time>
      </trkpt>
      <trkpt lat="45.07526" lon="5.58485">
        <ele>1277.4</ele>
        <time>2020-08-23T10:43:07Z</time>
      </trkpt>
      <trkpt lat="45.07527" lon="5.58487">
        <ele>1277.6</ele>
        <time>2020-08-23T10:43:08Z</time>
      </trkpt>
      <trkpt lat="45.07528" lon="5.58488">
        <ele>1277.8</ele>
        <time>2020-08-23T10:43:09Z</time>
      </trkpt>
      <trkpt lat="45.0753" lon="5.58489">
        <ele>1278</ele>
        <time>2020-08-23T10:43:10Z</time>
      </trkpt>
      <trkpt lat="45.07531" lon="5.5849">
        <ele>1278.2</ele>
        <time>2020-08-23T10:43:11Z</time>
      </trkpt>
      <trkpt lat="45.07532" lon="5.58491">
        <ele>1278.2</ele>
        <time>2020-08-23T10:43:12Z</time>
      </trkpt>
      <trkpt lat="45.07534" lon="5.58492">
        <ele>1278.4</ele>
        <time>2020-08-23T10:43:13Z</time>
      </trkpt>
      <trkpt lat="45.07535" lon="5.58493">
        <ele>1278.6</ele>
        <time>2020-08-23T10:43:14Z</time>
      </trkpt>
      <trkpt lat="45.07537" lon="5.58494">
        <ele>1278.6</ele>
        <time>2020-08-23T10:43:15Z</time>
      </trkpt>
      <trkpt lat="45.07538" lon="5.58495">
        <ele>1278.8</ele>
        <time>2020-08-23T10:43:16Z</time>
      </trkpt>
      <trkpt lat="45.07539" lon="5.58496">
        <ele>1279</ele>
        <time>2020-08-23T10:43:17Z</time>
      </trkpt>
      <trkpt lat="45.07541" lon="5.58497">
        <ele>1279.2</ele>
        <time>2020-08-23T10:43:18Z</time>
      </trkpt>
      <trkpt lat="45.07542" lon="5.58498">
        <ele>1279.4</ele>
        <time>2020-08-23T10:43:19Z</time>
      </trkpt>
      <trkpt lat="45.07543" lon="5.58499">
        <ele>1279.6</ele>
        <time>2020-08-23T10:43:20Z</time>
      </trkpt>
      <trkpt lat="45.07545" lon="5.585">
        <ele>1279.8</ele>
        <time>2020-08-23T10:43:21Z</time>
      </trkpt>
      <trkpt lat="45.07546" lon="5.58501">
        <ele>1280</ele>
        <time>2020-08-23T10:43:22Z</time>
      </trkpt>
      <trkpt lat="45.07548" lon="5.58502">
        <ele>1280.2</ele>
        <time>2020-08-23T10:43:23Z</time>
      </trkpt>
      <trkpt lat="45.07549" lon="5.58503">
        <ele>1280.2</ele>
        <time>2020-08-23T10:43:24Z</time>
      </trkpt>
      <trkpt lat="45.07551" lon="5.58504">
        <ele>1280.4</ele>
        <time>2020-08-23T10:43:25Z</time>
      </trkpt>
      <trkpt lat="45.07552" lon="5.58505">
        <ele>1280.6</ele>
        <time>2020-08-23T10:43:26Z</time>
      </trkpt>
      <trkpt lat="45.07554" lon="5.58507">
        <ele>1280.8</ele>
        <time>2020-08-23T10:43:27Z</time>
      </trkpt>
      <trkpt lat="45.07556" lon="5.58508">
        <ele>1280.8</ele>
        <time>2020-08-23T10:43:28Z</time>
      </trkpt>
      <trkpt lat="45.07557" lon="5.58509">
        <ele>1281</ele>
        <time>2020-08-23T10:43:29Z</time>
      </trkpt>
      <trkpt lat="45.07558" lon="5.58511">
        <ele>1281.2</ele>
        <time>2020-08-23T10:43:30Z</time>
      </trkpt>
      <trkpt lat="45.0756" lon="5.58512">
        <ele>1281.2</ele>
        <time>2020-08-23T10:43:31Z</time>
      </trkpt>
      <trkpt lat="45.07562" lon="5.58514">
        <ele>1281.4</ele>
        <time>2020-08-23T10:43:32Z</time>
      </trkpt>
      <trkpt lat="45.07563" lon="5.58516">
        <ele>1281.6</ele>
        <time>2020-08-23T10:43:33Z</time>
      </trkpt>
      <trkpt lat="45.07565" lon="5.58517">
        <ele>1281.8</ele>
        <time>2020-08-23T10:43:34Z</time>
      </trkpt>
      <trkpt lat="45.07566" lon="5.58519">
        <ele>1281.8</ele>
        <time>2020-08-23T10:43:35Z</time>
      </trkpt>
      <trkpt lat="45.07568" lon="5.58521">
        <ele>1282</ele>
        <time>2020-08-23T10:43:36Z</time>
      </trkpt>
      <trkpt lat="45.07569" lon="5.58523">
        <ele>1282.2</ele>
        <time>2020-08-23T10:43:37Z</time>
      </trkpt>
      <trkpt lat="45.0757" lon="5.58524">
        <ele>1282.2</ele>
        <time>2020-08-23T10:43:38Z</time>
      </trkpt>
      <trkpt lat="45.07571" lon="5.58526">
        <ele>1282.4</ele>
        <time>2020-08-23T10:43:39Z</time>
      </trkpt>
      <trkpt lat="45.07573" lon="5.58528">
        <ele>1282.6</ele>
        <time>2020-08-23T10:43:40Z</time>
      </trkpt>
      <trkpt lat="45.07574" lon="5.58529">
        <ele>1282.6</ele>
        <time>2020-08-23T10:43:41Z</time>
      </trkpt>
      <trkpt lat="45.07575" lon="5.58531">
        <ele>1282.8</ele>
        <time>2020-08-23T10:43:42Z</time>
      </trkpt>
      <trkpt lat="45.07576" lon="5.58533">
        <ele>1283</ele>
        <time>2020-08-23T10:43:43Z</time>
      </trkpt>
      <trkpt lat="45.07578" lon="5.58535">
        <ele>1283.2</ele>
        <time>2020-08-23T10:43:44Z</time>
      </trkpt>
      <trkpt lat="45.07579" lon="5.58537">
        <ele>1283.2</ele>
        <time>2020-08-23T10:43:45Z</time>
      </trkpt>
      <trkpt lat="45.0758" lon="5.58539">
        <ele>1283.4</ele>
        <time>2020-08-23T10:43:46Z</time>
      </trkpt>
      <trkpt lat="45.07581" lon="5.58541">
        <ele>1283.4</ele>
        <time>2020-08-23T10:43:47Z</time>
      </trkpt>
      <trkpt lat="45.07583" lon="5.58542">
        <ele>1283.6</ele>
        <time>2020-08-23T10:43:48Z</time>
      </trkpt>
      <trkpt lat="45.07584" lon="5.58544">
        <ele>1283.8</ele>
        <time>2020-08-23T10:43:49Z</time>
      </trkpt>
      <trkpt lat="45.07585" lon="5.58546">
        <ele>1283.8</ele>
        <time>2020-08-23T10:43:50Z</time>
      </trkpt>
      <trkpt lat="45.07586" lon="5.58548">
        <ele>1284</ele>
        <time>2020-08-23T10:43:51Z</time>
      </trkpt>
      <trkpt lat="45.07587" lon="5.58549">
        <ele>1284</ele>
        <time>2020-08-23T10:43:52Z</time>
      </trkpt>
      <trkpt lat="45.07588" lon="5.58551">
        <ele>1284.2</ele>
        <time>2020-08-23T10:43:53Z</time>
      </trkpt>
      <trkpt lat="45.07589" lon="5.58553">
        <ele>1284.4</ele>
        <time>2020-08-23T10:43:54Z</time>
      </trkpt>
      <trkpt lat="45.0759" lon="5.58554">
        <ele>1284.4</ele>
        <time>2020-08-23T10:43:55Z</time>
      </trkpt>
      <trkpt lat="45.07591" lon="5.58556">
        <ele>1284.6</ele>
        <time>2020-08-23T10:43:56Z</time>
      </trkpt>
      <trkpt lat="45.07592" lon="5.58557">
        <ele>1284.6</ele>
        <time>2020-08-23T10:43:57Z</time>
      </trkpt>
      <trkpt lat="45.07592" lon="5.58559">
        <ele>1284.8</ele>
        <time>2020-08-23T10:43:58Z</time>
      </trkpt>
      <trkpt lat="45.07593" lon="5.5856">
        <ele>1284.8</ele>
        <time>2020-08-23T10:43:59Z</time>
      </trkpt>
      <trkpt lat="45.07594" lon="5.58561">
        <ele>1284.8</ele>
        <time>2020-08-23T10:44:00Z</time>
      </trkpt>
      <trkpt lat="45.07595" lon="5.58563">
        <ele>1285</ele>
        <time>2020-08-23T10:44:01Z</time>
      </trkpt>
      <trkpt lat="45.07595" lon="5.58565">
        <ele>1285</ele>
        <time>2020-08-23T10:44:02Z</time>
      </trkpt>
      <trkpt lat="45.07596" lon="5.58566">
        <ele>1285</ele>
        <time>2020-08-23T10:44:03Z</time>
      </trkpt>
      <trkpt lat="45.07597" lon="5.58568">
        <ele>1285.2</ele>
        <time>2020-08-23T10:44:04Z</time>
      </trkpt>
      <trkpt lat="45.07597" lon="5.58569">
        <ele>1285.2</ele>
        <time>2020-08-23T10:44:05Z</time>
      </trkpt>
      <trkpt lat="45.07598" lon="5.58571">
        <ele>1285.2</ele>
        <time>2020-08-23T10:44:06Z</time>
      </trkpt>
      <trkpt lat="45.07598" lon="5.58572">
        <ele>1285.4</ele>
        <time>2020-08-23T10:44:07Z</time>
      </trkpt>
      <trkpt lat="45.07599" lon="5.58574">
        <ele>1285.4</ele>
        <time>2020-08-23T10:44:08Z</time>
      </trkpt>
      <trkpt lat="45.076" lon="5.58575">
        <ele>1285.4</ele>
        <time>2020-08-23T10:44:09Z</time>
      </trkpt>
      <trkpt lat="45.076" lon="5.58577">
        <ele>1285.6</ele>
        <time>2020-08-23T10:44:10Z</time>
      </trkpt>
      <trkpt lat="45.07601" lon="5.58579">
        <ele>1285.6</ele>
        <time>2020-08-23T10:44:11Z</time>
      </trkpt>
      <trkpt lat="45.07602" lon="5.5858">
        <ele>1285.6</ele>
        <time>2020-08-23T10:44:12Z</time>
      </trkpt>
      <trkpt lat="45.07602" lon="5.58582">
        <ele>1285.8</ele>
        <time>2020-08-23T10:44:13Z</time>
      </trkpt>
      <trkpt lat="45.07603" lon="5.58583">
        <ele>1285.8</ele>
        <time>2020-08-23T10:44:14Z</time>
      </trkpt>
      <trkpt lat="45.07604" lon="5.58585">
        <ele>1286</ele>
        <time>2020-08-23T10:44:15Z</time>
      </trkpt>
      <trkpt lat="45.07604" lon="5.58586">
        <ele>1286</ele>
        <time>2020-08-23T10:44:16Z</time>
      </trkpt>
      <trkpt lat="45.07605" lon="5.58588">
        <ele>1286.2</ele>
        <time>2020-08-23T10:44:17Z</time>
      </trkpt>
      <trkpt lat="45.07606" lon="5.58589">
        <ele>1286.4</ele>
        <time>2020-08-23T10:44:18Z</time>
      </trkpt>
      <trkpt lat="45.07606" lon="5.58591">
        <ele>1286.4</ele>
        <time>2020-08-23T10:44:19Z</time>
      </trkpt>
      <trkpt lat="45.07607" lon="5.58592">
        <ele>1286.4</ele>
        <time>2020-08-23T10:44:20Z</time>
      </trkpt>
      <trkpt lat="45.07607" lon="5.58594">
        <ele>1286.6</ele>
        <time>2020-08-23T10:44:21Z</time>
      </trkpt>
      <trkpt lat="45.07608" lon="5.58595">
        <ele>1286.6</ele>
        <time>2020-08-23T10:44:22Z</time>
      </trkpt>
      <trkpt lat="45.07609" lon="5.58597">
        <ele>1286.6</ele>
        <time>2020-08-23T10:44:23Z</time>
      </trkpt>
      <trkpt lat="45.07609" lon="5.58598">
        <ele>1286.6</ele>
        <time>2020-08-23T10:44:24Z</time>
      </trkpt>
      <trkpt lat="45.0761" lon="5.586">
        <ele>1286.8</ele>
        <time>2020-08-23T10:44:25Z</time>
      </trkpt>
      <trkpt lat="45.07611" lon="5.58601">
        <ele>1286.8</ele>
        <time>2020-08-23T10:44:26Z</time>
      </trkpt>
      <trkpt lat="45.07611" lon="5.58603">
        <ele>1287</ele>
        <time>2020-08-23T10:44:27Z</time>
      </trkpt>
      <trkpt lat="45.07612" lon="5.58604">
        <ele>1287</ele>
        <time>2020-08-23T10:44:28Z</time>
      </trkpt>
      <trkpt lat="45.07613" lon="5.58605">
        <ele>1287</ele>
        <time>2020-08-23T10:44:29Z</time>
      </trkpt>
      <trkpt lat="45.07613" lon="5.58607">
        <ele>1287</ele>
        <time>2020-08-23T10:44:30Z</time>
      </trkpt>
      <trkpt lat="45.07614" lon="5.58608">
        <ele>1287</ele>
        <time>2020-08-23T10:44:31Z</time>
      </trkpt>
      <trkpt lat="45.07614" lon="5.5861">
        <ele>1287</ele>
        <time>2020-08-23T10:44:32Z</time>
      </trkpt>
      <trkpt lat="45.07615" lon="5.58611">
        <ele>1287</ele>
        <time>2020-08-23T10:44:33Z</time>
      </trkpt>
      <trkpt lat="45.07615" lon="5.58613">
        <ele>1287</ele>
        <time>2020-08-23T10:44:34Z</time>
      </trkpt>
      <trkpt lat="45.07616" lon="5.58614">
        <ele>1287</ele>
        <time>2020-08-23T10:44:35Z</time>
      </trkpt>
      <trkpt lat="45.07616" lon="5.58616">
        <ele>1287</ele>
        <time>2020-08-23T10:44:36Z</time>
      </trkpt>
      <trkpt lat="45.07617" lon="5.58617">
        <ele>1287.2</ele>
        <time>2020-08-23T10:44:37Z</time>
      </trkpt>
      <trkpt lat="45.07618" lon="5.58619">
        <ele>1287.2</ele>
        <time>2020-08-23T10:44:38Z</time>
      </trkpt>
      <trkpt lat="45.07618" lon="5.5862">
        <ele>1287.2</ele>
        <time>2020-08-23T10:44:39Z</time>
      </trkpt>
      <trkpt lat="45.07619" lon="5.58621">
        <ele>1287.2</ele>
        <time>2020-08-23T10:44:40Z</time>
      </trkpt>
      <trkpt lat="45.07619" lon="5.58623">
        <ele>1287.2</ele>
        <time>2020-08-23T10:44:41Z</time>
      </trkpt>
      <trkpt lat="45.0762" lon="5.58625">
        <ele>1287.2</ele>
        <time>2020-08-23T10:44:42Z</time>
      </trkpt>
      <trkpt lat="45.0762" lon="5.58626">
        <ele>1287.2</ele>
        <time>2020-08-23T10:44:43Z</time>
      </trkpt>
      <trkpt lat="45.07621" lon="5.58628">
        <ele>1287.2</ele>
        <time>2020-08-23T10:44:44Z</time>
      </trkpt>
      <trkpt lat="45.07621" lon="5.58629">
        <ele>1287.2</ele>
        <time>2020-08-23T10:44:45Z</time>
      </trkpt>
      <trkpt lat="45.07621" lon="5.5863">
        <ele>1287.2</ele>
        <time>2020-08-23T10:44:46Z</time>
      </trkpt>
      <trkpt lat="45.07622" lon="5.58631">
        <ele>1287.2</ele>
        <time>2020-08-23T10:44:47Z</time>
      </trkpt>
      <trkpt lat="45.07622" lon="5.58633">
        <ele>1287.2</ele>
        <time>2020-08-23T10:44:48Z</time>
      </trkpt>
      <trkpt lat="45.07623" lon="5.58634">
        <ele>1287.2</ele>
        <time>2020-08-23T10:44:49Z</time>
      </trkpt>
      <trkpt lat="45.07623" lon="5.58636">
        <ele>1287.2</ele>
        <time>2020-08-23T10:44:50Z</time>
      </trkpt>
      <trkpt lat="45.07623" lon="5.58637">
        <ele>1287.2</ele>
        <time>2020-08-23T10:44:51Z</time>
      </trkpt>
      <trkpt lat="45.07624" lon="5.58639">
        <ele>1287.2</ele>
        <time>2020-08-23T10:44:52Z</time>
      </trkpt>
      <trkpt lat="45.07624" lon="5.5864">
        <ele>1287.2</ele>
        <time>2020-08-23T10:44:53Z</time>
      </trkpt>
      <trkpt lat="45.07624" lon="5.58642">
        <ele>1287.2</ele>
        <time>2020-08-23T10:44:54Z</time>
      </trkpt>
      <trkpt lat="45.07625" lon="5.58643">
        <ele>1287.4</ele>
        <time>2020-08-23T10:44:55Z</time>
      </trkpt>
      <trkpt lat="45.07626" lon="5.58644">
        <ele>1287.4</ele>
        <time>2020-08-23T10:44:56Z</time>
      </trkpt>
      <trkpt lat="45.07626" lon="5.58646">
        <ele>1287.4</ele>
        <time>2020-08-23T10:44:57Z</time>
      </trkpt>
      <trkpt lat="45.07627" lon="5.58647">
        <ele>1287.4</ele>
        <time>2020-08-23T10:44:58Z</time>
      </trkpt>
      <trkpt lat="45.07628" lon="5.58649">
        <ele>1287.6</ele>
        <time>2020-08-23T10:44:59Z</time>
      </trkpt>
      <trkpt lat="45.07628" lon="5.5865">
        <ele>1287.6</ele>
        <time>2020-08-23T10:45:00Z</time>
      </trkpt>
      <trkpt lat="45.07629" lon="5.58652">
        <ele>1287.6</ele>
        <time>2020-08-23T10:45:01Z</time>
      </trkpt>
      <trkpt lat="45.0763" lon="5.58653">
        <ele>1287.8</ele>
        <time>2020-08-23T10:45:02Z</time>
      </trkpt>
      <trkpt lat="45.07631" lon="5.58655">
        <ele>1287.8</ele>
        <time>2020-08-23T10:45:03Z</time>
      </trkpt>
      <trkpt lat="45.07631" lon="5.58656">
        <ele>1287.8</ele>
        <time>2020-08-23T10:45:04Z</time>
      </trkpt>
      <trkpt lat="45.07632" lon="5.58658">
        <ele>1288</ele>
        <time>2020-08-23T10:45:05Z</time>
      </trkpt>
      <trkpt lat="45.07633" lon="5.58659">
        <ele>1288</ele>
        <time>2020-08-23T10:45:06Z</time>
      </trkpt>
      <trkpt lat="45.07634" lon="5.58661">
        <ele>1288</ele>
        <time>2020-08-23T10:45:07Z</time>
      </trkpt>
      <trkpt lat="45.07634" lon="5.58662">
        <ele>1288.2</ele>
        <time>2020-08-23T10:45:08Z</time>
      </trkpt>
      <trkpt lat="45.07634" lon="5.58664">
        <ele>1288.2</ele>
        <time>2020-08-23T10:45:09Z</time>
      </trkpt>
      <trkpt lat="45.07635" lon="5.58665">
        <ele>1288.2</ele>
        <time>2020-08-23T10:45:10Z</time>
      </trkpt>
      <trkpt lat="45.07636" lon="5.58667">
        <ele>1288.2</ele>
        <time>2020-08-23T10:45:11Z</time>
      </trkpt>
      <trkpt lat="45.07636" lon="5.58669">
        <ele>1288.2</ele>
        <time>2020-08-23T10:45:12Z</time>
      </trkpt>
      <trkpt lat="45.07637" lon="5.5867">
        <ele>1288.4</ele>
        <time>2020-08-23T10:45:13Z</time>
      </trkpt>
      <trkpt lat="45.07637" lon="5.58672">
        <ele>1288.4</ele>
        <time>2020-08-23T10:45:14Z</time>
      </trkpt>
      <trkpt lat="45.07637" lon="5.58674">
        <ele>1288.4</ele>
        <time>2020-08-23T10:45:15Z</time>
      </trkpt>
      <trkpt lat="45.07638" lon="5.58676">
        <ele>1288.6</ele>
        <time>2020-08-23T10:45:16Z</time>
      </trkpt>
      <trkpt lat="45.07638" lon="5.58678">
        <ele>1288.6</ele>
        <time>2020-08-23T10:45:17Z</time>
      </trkpt>
      <trkpt lat="45.07639" lon="5.5868">
        <ele>1288.6</ele>
        <time>2020-08-23T10:45:18Z</time>
      </trkpt>
      <trkpt lat="45.07639" lon="5.58682">
        <ele>1288.8</ele>
        <time>2020-08-23T10:45:19Z</time>
      </trkpt>
      <trkpt lat="45.0764" lon="5.58684">
        <ele>1288.8</ele>
        <time>2020-08-23T10:45:20Z</time>
      </trkpt>
      <trkpt lat="45.07641" lon="5.58686">
        <ele>1289</ele>
        <time>2020-08-23T10:45:21Z</time>
      </trkpt>
      <trkpt lat="45.07641" lon="5.58688">
        <ele>1289.2</ele>
        <time>2020-08-23T10:45:22Z</time>
      </trkpt>
      <trkpt lat="45.07641" lon="5.5869">
        <ele>1289.4</ele>
        <time>2020-08-23T10:45:23Z</time>
      </trkpt>
      <trkpt lat="45.07641" lon="5.58692">
        <ele>1289.4</ele>
        <time>2020-08-23T10:45:24Z</time>
      </trkpt>
      <trkpt lat="45.07641" lon="5.58695">
        <ele>1289.6</ele>
        <time>2020-08-23T10:45:25Z</time>
      </trkpt>
      <trkpt lat="45.07641" lon="5.58697">
        <ele>1289.6</ele>
        <time>2020-08-23T10:45:26Z</time>
      </trkpt>
      <trkpt lat="45.07642" lon="5.58699">
        <ele>1289.8</ele>
        <time>2020-08-23T10:45:27Z</time>
      </trkpt>
      <trkpt lat="45.07642" lon="5.58702">
        <ele>1290</ele>
        <time>2020-08-23T10:45:28Z</time>
      </trkpt>
      <trkpt lat="45.07642" lon="5.58704">
        <ele>1290</ele>
        <time>2020-08-23T10:45:29Z</time>
      </trkpt>
      <trkpt lat="45.07642" lon="5.58706">
        <ele>1290.2</ele>
        <time>2020-08-23T10:45:30Z</time>
      </trkpt>
      <trkpt lat="45.07642" lon="5.58709">
        <ele>1290.4</ele>
        <time>2020-08-23T10:45:31Z</time>
      </trkpt>
      <trkpt lat="45.07643" lon="5.58711">
        <ele>1290.4</ele>
        <time>2020-08-23T10:45:32Z</time>
      </trkpt>
      <trkpt lat="45.07643" lon="5.58713">
        <ele>1290.6</ele>
        <time>2020-08-23T10:45:33Z</time>
      </trkpt>
      <trkpt lat="45.07644" lon="5.58716">
        <ele>1290.6</ele>
        <time>2020-08-23T10:45:34Z</time>
      </trkpt>
      <trkpt lat="45.07644" lon="5.58718">
        <ele>1290.8</ele>
        <time>2020-08-23T10:45:35Z</time>
      </trkpt>
      <trkpt lat="45.07644" lon="5.58721">
        <ele>1291</ele>
        <time>2020-08-23T10:45:36Z</time>
      </trkpt>
      <trkpt lat="45.07645" lon="5.58723">
        <ele>1291.2</ele>
        <time>2020-08-23T10:45:37Z</time>
      </trkpt>
      <trkpt lat="45.07645" lon="5.58726">
        <ele>1291.2</ele>
        <time>2020-08-23T10:45:38Z</time>
      </trkpt>
      <trkpt lat="45.07645" lon="5.58729">
        <ele>1291.4</ele>
        <time>2020-08-23T10:45:39Z</time>
      </trkpt>
      <trkpt lat="45.07646" lon="5.58731">
        <ele>1291.4</ele>
        <time>2020-08-23T10:45:40Z</time>
      </trkpt>
      <trkpt lat="45.07646" lon="5.58734">
        <ele>1291.6</ele>
        <time>2020-08-23T10:45:41Z</time>
      </trkpt>
      <trkpt lat="45.07647" lon="5.58737">
        <ele>1291.6</ele>
        <time>2020-08-23T10:45:42Z</time>
      </trkpt>
      <trkpt lat="45.07647" lon="5.58739">
        <ele>1291.8</ele>
        <time>2020-08-23T10:45:43Z</time>
      </trkpt>
      <trkpt lat="45.07648" lon="5.58742">
        <ele>1291.8</ele>
        <time>2020-08-23T10:45:44Z</time>
      </trkpt>
      <trkpt lat="45.07649" lon="5.58745">
        <ele>1292</ele>
        <time>2020-08-23T10:45:45Z</time>
      </trkpt>
      <trkpt lat="45.07649" lon="5.58747">
        <ele>1292</ele>
        <time>2020-08-23T10:45:46Z</time>
      </trkpt>
      <trkpt lat="45.0765" lon="5.5875">
        <ele>1292.2</ele>
        <time>2020-08-23T10:45:47Z</time>
      </trkpt>
      <trkpt lat="45.07651" lon="5.58752">
        <ele>1292.2</ele>
        <time>2020-08-23T10:45:48Z</time>
      </trkpt>
      <trkpt lat="45.07652" lon="5.58754">
        <ele>1292.4</ele>
        <time>2020-08-23T10:45:49Z</time>
      </trkpt>
      <trkpt lat="45.07652" lon="5.58757">
        <ele>1292.4</ele>
        <time>2020-08-23T10:45:50Z</time>
      </trkpt>
      <trkpt lat="45.07653" lon="5.58759">
        <ele>1292.6</ele>
        <time>2020-08-23T10:45:51Z</time>
      </trkpt>
      <trkpt lat="45.07654" lon="5.58762">
        <ele>1292.6</ele>
        <time>2020-08-23T10:45:52Z</time>
      </trkpt>
      <trkpt lat="45.07655" lon="5.58764">
        <ele>1292.6</ele>
        <time>2020-08-23T10:45:53Z</time>
      </trkpt>
      <trkpt lat="45.07657" lon="5.58767">
        <ele>1292.8</ele>
        <time>2020-08-23T10:45:54Z</time>
      </trkpt>
      <trkpt lat="45.07658" lon="5.58769">
        <ele>1292.8</ele>
        <time>2020-08-23T10:45:55Z</time>
      </trkpt>
      <trkpt lat="45.07659" lon="5.58771">
        <ele>1293</ele>
        <time>2020-08-23T10:45:56Z</time>
      </trkpt>
      <trkpt lat="45.0766" lon="5.58773">
        <ele>1293</ele>
        <time>2020-08-23T10:45:57Z</time>
      </trkpt>
      <trkpt lat="45.07662" lon="5.58776">
        <ele>1293.2</ele>
        <time>2020-08-23T10:45:58Z</time>
      </trkpt>
      <trkpt lat="45.07663" lon="5.58778">
        <ele>1293.2</ele>
        <time>2020-08-23T10:45:59Z</time>
      </trkpt>
      <trkpt lat="45.07664" lon="5.5878">
        <ele>1293.4</ele>
        <time>2020-08-23T10:46:00Z</time>
      </trkpt>
      <trkpt lat="45.07666" lon="5.58782">
        <ele>1293.6</ele>
        <time>2020-08-23T10:46:01Z</time>
      </trkpt>
      <trkpt lat="45.07667" lon="5.58785">
        <ele>1293.6</ele>
        <time>2020-08-23T10:46:02Z</time>
      </trkpt>
      <trkpt lat="45.07668" lon="5.58787">
        <ele>1293.8</ele>
        <time>2020-08-23T10:46:03Z</time>
      </trkpt>
      <trkpt lat="45.07669" lon="5.58789">
        <ele>1293.8</ele>
        <time>2020-08-23T10:46:04Z</time>
      </trkpt>
      <trkpt lat="45.07671" lon="5.58791">
        <ele>1294</ele>
        <time>2020-08-23T10:46:05Z</time>
      </trkpt>
      <trkpt lat="45.07672" lon="5.58793">
        <ele>1294</ele>
        <time>2020-08-23T10:46:06Z</time>
      </trkpt>
      <trkpt lat="45.07673" lon="5.58796">
        <ele>1294.2</ele>
        <time>2020-08-23T10:46:07Z</time>
      </trkpt>
      <trkpt lat="45.07674" lon="5.58798">
        <ele>1294.2</ele>
        <time>2020-08-23T10:46:08Z</time>
      </trkpt>
      <trkpt lat="45.07674" lon="5.588">
        <ele>1294.2</ele>
        <time>2020-08-23T10:46:09Z</time>
      </trkpt>
      <trkpt lat="45.07675" lon="5.58802">
        <ele>1294.4</ele>
        <time>2020-08-23T10:46:10Z</time>
      </trkpt>
      <trkpt lat="45.07675" lon="5.58804">
        <ele>1294.4</ele>
        <time>2020-08-23T10:46:11Z</time>
      </trkpt>
      <trkpt lat="45.07675" lon="5.58806">
        <ele>1294.4</ele>
        <time>2020-08-23T10:46:12Z</time>
      </trkpt>
      <trkpt lat="45.07675" lon="5.58808">
        <ele>1294.6</ele>
        <time>2020-08-23T10:46:13Z</time>
      </trkpt>
      <trkpt lat="45.07676" lon="5.58811">
        <ele>1294.6</ele>
        <time>2020-08-23T10:46:14Z</time>
      </trkpt>
      <trkpt lat="45.07676" lon="5.58812">
        <ele>1294.6</ele>
        <time>2020-08-23T10:46:15Z</time>
      </trkpt>
      <trkpt lat="45.07676" lon="5.58814">
        <ele>1294.8</ele>
        <time>2020-08-23T10:46:16Z</time>
      </trkpt>
      <trkpt lat="45.07676" lon="5.58816">
        <ele>1295</ele>
        <time>2020-08-23T10:46:17Z</time>
      </trkpt>
      <trkpt lat="45.07676" lon="5.58817">
        <ele>1295</ele>
        <time>2020-08-23T10:46:18Z</time>
      </trkpt>
      <trkpt lat="45.07677" lon="5.58819">
        <ele>1295.2</ele>
        <time>2020-08-23T10:46:19Z</time>
      </trkpt>
      <trkpt lat="45.07677" lon="5.5882">
        <ele>1295.4</ele>
        <time>2020-08-23T10:46:20Z</time>
      </trkpt>
      <trkpt lat="45.07678" lon="5.58822">
        <ele>1295.4</ele>
        <time>2020-08-23T10:46:21Z</time>
      </trkpt>
      <trkpt lat="45.07678" lon="5.58823">
        <ele>1295.6</ele>
        <time>2020-08-23T10:46:22Z</time>
      </trkpt>
      <trkpt lat="45.07678" lon="5.58825">
        <ele>1295.8</ele>
        <time>2020-08-23T10:46:23Z</time>
      </trkpt>
      <trkpt lat="45.07679" lon="5.58826">
        <ele>1295.8</ele>
        <time>2020-08-23T10:46:24Z</time>
      </trkpt>
      <trkpt lat="45.07679" lon="5.58828">
        <ele>1296</ele>
        <time>2020-08-23T10:46:25Z</time>
      </trkpt>
      <trkpt lat="45.0768" lon="5.5883">
        <ele>1296</ele>
        <time>2020-08-23T10:46:26Z</time>
      </trkpt>
      <trkpt lat="45.07681" lon="5.58832">
        <ele>1296.2</ele>
        <time>2020-08-23T10:46:27Z</time>
      </trkpt>
      <trkpt lat="45.07682" lon="5.58834">
        <ele>1296.2</ele>
        <time>2020-08-23T10:46:28Z</time>
      </trkpt>
      <trkpt lat="45.07683" lon="5.58835">
        <ele>1296.2</ele>
        <time>2020-08-23T10:46:29Z</time>
      </trkpt>
      <trkpt lat="45.07684" lon="5.58837">
        <ele>1296.2</ele>
        <time>2020-08-23T10:46:30Z</time>
      </trkpt>
      <trkpt lat="45.07684" lon="5.58839">
        <ele>1296.4</ele>
        <time>2020-08-23T10:46:31Z</time>
      </trkpt>
      <trkpt lat="45.07685" lon="5.58841">
        <ele>1296.4</ele>
        <time>2020-08-23T10:46:32Z</time>
      </trkpt>
      <trkpt lat="45.07685" lon="5.58843">
        <ele>1296.6</ele>
        <time>2020-08-23T10:46:33Z</time>
      </trkpt>
      <trkpt lat="45.07685" lon="5.58845">
        <ele>1296.6</ele>
        <time>2020-08-23T10:46:34Z</time>
      </trkpt>
      <trkpt lat="45.07685" lon="5.58847">
        <ele>1296.6</ele>
        <time>2020-08-23T10:46:35Z</time>
      </trkpt>
      <trkpt lat="45.07685" lon="5.58849">
        <ele>1296.8</ele>
        <time>2020-08-23T10:46:36Z</time>
      </trkpt>
      <trkpt lat="45.07684" lon="5.5885">
        <ele>1296.8</ele>
        <time>2020-08-23T10:46:37Z</time>
      </trkpt>
      <trkpt lat="45.07684" lon="5.58852">
        <ele>1297</ele>
        <time>2020-08-23T10:46:38Z</time>
      </trkpt>
      <trkpt lat="45.07683" lon="5.58854">
        <ele>1297</ele>
        <time>2020-08-23T10:46:39Z</time>
      </trkpt>
      <trkpt lat="45.07683" lon="5.58855">
        <ele>1297.2</ele>
        <time>2020-08-23T10:46:40Z</time>
      </trkpt>
      <trkpt lat="45.07682" lon="5.58857">
        <ele>1297.2</ele>
        <time>2020-08-23T10:46:41Z</time>
      </trkpt>
      <trkpt lat="45.07682" lon="5.58858">
        <ele>1297.4</ele>
        <time>2020-08-23T10:46:42Z</time>
      </trkpt>
      <trkpt lat="45.07682" lon="5.5886">
        <ele>1297.6</ele>
        <time>2020-08-23T10:46:43Z</time>
      </trkpt>
      <trkpt lat="45.07681" lon="5.58862">
        <ele>1297.6</ele>
        <time>2020-08-23T10:46:44Z</time>
      </trkpt>
      <trkpt lat="45.07681" lon="5.58863">
        <ele>1297.8</ele>
        <time>2020-08-23T10:46:45Z</time>
      </trkpt>
      <trkpt lat="45.0768" lon="5.58865">
        <ele>1297.8</ele>
        <time>2020-08-23T10:46:46Z</time>
      </trkpt>
      <trkpt lat="45.0768" lon="5.58867">
        <ele>1298</ele>
        <time>2020-08-23T10:46:47Z</time>
      </trkpt>
      <trkpt lat="45.07679" lon="5.58868">
        <ele>1298.2</ele>
        <time>2020-08-23T10:46:48Z</time>
      </trkpt>
      <trkpt lat="45.07679" lon="5.5887">
        <ele>1298.2</ele>
        <time>2020-08-23T10:46:49Z</time>
      </trkpt>
      <trkpt lat="45.07679" lon="5.58872">
        <ele>1298.4</ele>
        <time>2020-08-23T10:46:50Z</time>
      </trkpt>
      <trkpt lat="45.07678" lon="5.58873">
        <ele>1298.6</ele>
        <time>2020-08-23T10:46:51Z</time>
      </trkpt>
      <trkpt lat="45.07678" lon="5.58875">
        <ele>1298.8</ele>
        <time>2020-08-23T10:46:52Z</time>
      </trkpt>
      <trkpt lat="45.07678" lon="5.58877">
        <ele>1299</ele>
        <time>2020-08-23T10:46:53Z</time>
      </trkpt>
      <trkpt lat="45.07678" lon="5.58878">
        <ele>1299</ele>
        <time>2020-08-23T10:46:54Z</time>
      </trkpt>
      <trkpt lat="45.07678" lon="5.5888">
        <ele>1299.2</ele>
        <time>2020-08-23T10:46:55Z</time>
      </trkpt>
      <trkpt lat="45.07678" lon="5.58882">
        <ele>1299.2</ele>
        <time>2020-08-23T10:46:56Z</time>
      </trkpt>
      <trkpt lat="45.07678" lon="5.58883">
        <ele>1299.4</ele>
        <time>2020-08-23T10:46:57Z</time>
      </trkpt>
      <trkpt lat="45.07678" lon="5.58885">
        <ele>1299.6</ele>
        <time>2020-08-23T10:46:58Z</time>
      </trkpt>
      <trkpt lat="45.07678" lon="5.58886">
        <ele>1299.8</ele>
        <time>2020-08-23T10:46:59Z</time>
      </trkpt>
      <trkpt lat="45.07678" lon="5.58888">
        <ele>1299.8</ele>
        <time>2020-08-23T10:47:00Z</time>
      </trkpt>
      <trkpt lat="45.07678" lon="5.58889">
        <ele>1300</ele>
        <time>2020-08-23T10:47:01Z</time>
      </trkpt>
      <trkpt lat="45.07678" lon="5.58891">
        <ele>1300</ele>
        <time>2020-08-23T10:47:02Z</time>
      </trkpt>
      <trkpt lat="45.07678" lon="5.58893">
        <ele>1300.2</ele>
        <time>2020-08-23T10:47:03Z</time>
      </trkpt>
      <trkpt lat="45.07679" lon="5.58894">
        <ele>1300.2</ele>
        <time>2020-08-23T10:47:04Z</time>
      </trkpt>
      <trkpt lat="45.07679" lon="5.58896">
        <ele>1300.4</ele>
        <time>2020-08-23T10:47:05Z</time>
      </trkpt>
      <trkpt lat="45.0768" lon="5.58898">
        <ele>1300.4</ele>
        <time>2020-08-23T10:47:06Z</time>
      </trkpt>
      <trkpt lat="45.07681" lon="5.589">
        <ele>1300.6</ele>
        <time>2020-08-23T10:47:07Z</time>
      </trkpt>
      <trkpt lat="45.07681" lon="5.58901">
        <ele>1300.8</ele>
        <time>2020-08-23T10:47:08Z</time>
      </trkpt>
      <trkpt lat="45.07682" lon="5.58902">
        <ele>1300.8</ele>
        <time>2020-08-23T10:47:09Z</time>
      </trkpt>
      <trkpt lat="45.07682" lon="5.58904">
        <ele>1301</ele>
        <time>2020-08-23T10:47:10Z</time>
      </trkpt>
      <trkpt lat="45.07683" lon="5.58905">
        <ele>1301.2</ele>
        <time>2020-08-23T10:47:11Z</time>
      </trkpt>
      <trkpt lat="45.07684" lon="5.58906">
        <ele>1301.2</ele>
        <time>2020-08-23T10:47:12Z</time>
      </trkpt>
      <trkpt lat="45.07684" lon="5.58908">
        <ele>1301.4</ele>
        <time>2020-08-23T10:47:13Z</time>
      </trkpt>
      <trkpt lat="45.07685" lon="5.58909">
        <ele>1301.4</ele>
        <time>2020-08-23T10:47:14Z</time>
      </trkpt>
      <trkpt lat="45.07686" lon="5.5891">
        <ele>1301.6</ele>
        <time>2020-08-23T10:47:15Z</time>
      </trkpt>
      <trkpt lat="45.07687" lon="5.58911">
        <ele>1301.8</ele>
        <time>2020-08-23T10:47:16Z</time>
      </trkpt>
      <trkpt lat="45.07687" lon="5.58912">
        <ele>1301.8</ele>
        <time>2020-08-23T10:47:17Z</time>
      </trkpt>
      <trkpt lat="45.07688" lon="5.58913">
        <ele>1302</ele>
        <time>2020-08-23T10:47:18Z</time>
      </trkpt>
      <trkpt lat="45.07689" lon="5.58915">
        <ele>1302.2</ele>
        <time>2020-08-23T10:47:19Z</time>
      </trkpt>
      <trkpt lat="45.0769" lon="5.58916">
        <ele>1302.2</ele>
        <time>2020-08-23T10:47:20Z</time>
      </trkpt>
      <trkpt lat="45.0769" lon="5.58918">
        <ele>1302.4</ele>
        <time>2020-08-23T10:47:21Z</time>
      </trkpt>
      <trkpt lat="45.07691" lon="5.58919">
        <ele>1302.4</ele>
        <time>2020-08-23T10:47:22Z</time>
      </trkpt>
      <trkpt lat="45.07691" lon="5.58921">
        <ele>1302.6</ele>
        <time>2020-08-23T10:47:23Z</time>
      </trkpt>
      <trkpt lat="45.07692" lon="5.58923">
        <ele>1302.6</ele>
        <time>2020-08-23T10:47:24Z</time>
      </trkpt>
      <trkpt lat="45.07692" lon="5.58925">
        <ele>1302.6</ele>
        <time>2020-08-23T10:47:25Z</time>
      </trkpt>
      <trkpt lat="45.07693" lon="5.58928">
        <ele>1302.6</ele>
        <time>2020-08-23T10:47:26Z</time>
      </trkpt>
      <trkpt lat="45.07694" lon="5.58931">
        <ele>1302.6</ele>
        <time>2020-08-23T10:47:27Z</time>
      </trkpt>
      <trkpt lat="45.07695" lon="5.58933">
        <ele>1302.8</ele>
        <time>2020-08-23T10:47:28Z</time>
      </trkpt>
      <trkpt lat="45.07695" lon="5.58937">
        <ele>1302.8</ele>
        <time>2020-08-23T10:47:29Z</time>
      </trkpt>
      <trkpt lat="45.07697" lon="5.5894">
        <ele>1302.8</ele>
        <time>2020-08-23T10:47:30Z</time>
      </trkpt>
      <trkpt lat="45.07698" lon="5.58943">
        <ele>1302.8</ele>
        <time>2020-08-23T10:47:31Z</time>
      </trkpt>
      <trkpt lat="45.07699" lon="5.58946">
        <ele>1303</ele>
        <time>2020-08-23T10:47:32Z</time>
      </trkpt>
      <trkpt lat="45.077" lon="5.58949">
        <ele>1303</ele>
        <time>2020-08-23T10:47:33Z</time>
      </trkpt>
      <trkpt lat="45.07701" lon="5.58951">
        <ele>1303</ele>
        <time>2020-08-23T10:47:34Z</time>
      </trkpt>
      <trkpt lat="45.07702" lon="5.58954">
        <ele>1303</ele>
        <time>2020-08-23T10:47:35Z</time>
      </trkpt>
      <trkpt lat="45.07703" lon="5.58956">
        <ele>1303.2</ele>
        <time>2020-08-23T10:47:36Z</time>
      </trkpt>
      <trkpt lat="45.07704" lon="5.58959">
        <ele>1303.2</ele>
        <time>2020-08-23T10:47:37Z</time>
      </trkpt>
      <trkpt lat="45.07705" lon="5.58962">
        <ele>1303.4</ele>
        <time>2020-08-23T10:47:38Z</time>
      </trkpt>
      <trkpt lat="45.07706" lon="5.58965">
        <ele>1303.4</ele>
        <time>2020-08-23T10:47:39Z</time>
      </trkpt>
      <trkpt lat="45.07707" lon="5.58967">
        <ele>1303.6</ele>
        <time>2020-08-23T10:47:40Z</time>
      </trkpt>
      <trkpt lat="45.07708" lon="5.5897">
        <ele>1303.6</ele>
        <time>2020-08-23T10:47:41Z</time>
      </trkpt>
      <trkpt lat="45.07709" lon="5.58973">
        <ele>1303.6</ele>
        <time>2020-08-23T10:47:42Z</time>
      </trkpt>
      <trkpt lat="45.0771" lon="5.58976">
        <ele>1303.8</ele>
        <time>2020-08-23T10:47:43Z</time>
      </trkpt>
      <trkpt lat="45.07712" lon="5.58979">
        <ele>1303.8</ele>
        <time>2020-08-23T10:47:44Z</time>
      </trkpt>
      <trkpt lat="45.07713" lon="5.58982">
        <ele>1303.8</ele>
        <time>2020-08-23T10:47:45Z</time>
      </trkpt>
      <trkpt lat="45.07715" lon="5.58985">
        <ele>1303.8</ele>
        <time>2020-08-23T10:47:46Z</time>
      </trkpt>
      <trkpt lat="45.07717" lon="5.58989">
        <ele>1304</ele>
        <time>2020-08-23T10:47:47Z</time>
      </trkpt>
      <trkpt lat="45.07718" lon="5.58993">
        <ele>1304</ele>
        <time>2020-08-23T10:47:48Z</time>
      </trkpt>
      <trkpt lat="45.07719" lon="5.58996">
        <ele>1304.2</ele>
        <time>2020-08-23T10:47:49Z</time>
      </trkpt>
      <trkpt lat="45.07721" lon="5.59">
        <ele>1304.2</ele>
        <time>2020-08-23T10:47:50Z</time>
      </trkpt>
      <trkpt lat="45.07721" lon="5.59004">
        <ele>1304.4</ele>
        <time>2020-08-23T10:47:51Z</time>
      </trkpt>
      <trkpt lat="45.07722" lon="5.59007">
        <ele>1304.4</ele>
        <time>2020-08-23T10:47:52Z</time>
      </trkpt>
      <trkpt lat="45.07722" lon="5.59011">
        <ele>1304.6</ele>
        <time>2020-08-23T10:47:53Z</time>
      </trkpt>
      <trkpt lat="45.07723" lon="5.59014">
        <ele>1304.6</ele>
        <time>2020-08-23T10:47:54Z</time>
      </trkpt>
      <trkpt lat="45.07723" lon="5.59017">
        <ele>1304.8</ele>
        <time>2020-08-23T10:47:55Z</time>
      </trkpt>
      <trkpt lat="45.07723" lon="5.59021">
        <ele>1305</ele>
        <time>2020-08-23T10:47:56Z</time>
      </trkpt>
      <trkpt lat="45.07724" lon="5.59024">
        <ele>1305</ele>
        <time>2020-08-23T10:47:57Z</time>
      </trkpt>
      <trkpt lat="45.07724" lon="5.59027">
        <ele>1305</ele>
        <time>2020-08-23T10:47:58Z</time>
      </trkpt>
      <trkpt lat="45.07725" lon="5.5903">
        <ele>1305.2</ele>
        <time>2020-08-23T10:47:59Z</time>
      </trkpt>
      <trkpt lat="45.07725" lon="5.59032">
        <ele>1305.2</ele>
        <time>2020-08-23T10:48:00Z</time>
      </trkpt>
      <trkpt lat="45.07726" lon="5.59035">
        <ele>1305.4</ele>
        <time>2020-08-23T10:48:01Z</time>
      </trkpt>
      <trkpt lat="45.07727" lon="5.59038">
        <ele>1305.6</ele>
        <time>2020-08-23T10:48:02Z</time>
      </trkpt>
      <trkpt lat="45.07727" lon="5.59041">
        <ele>1305.8</ele>
        <time>2020-08-23T10:48:03Z</time>
      </trkpt>
      <trkpt lat="45.07729" lon="5.59043">
        <ele>1306</ele>
        <time>2020-08-23T10:48:04Z</time>
      </trkpt>
      <trkpt lat="45.07729" lon="5.59046">
        <ele>1306</ele>
        <time>2020-08-23T10:48:05Z</time>
      </trkpt>
      <trkpt lat="45.0773" lon="5.59048">
        <ele>1306.2</ele>
        <time>2020-08-23T10:48:06Z</time>
      </trkpt>
      <trkpt lat="45.07732" lon="5.59051">
        <ele>1306.4</ele>
        <time>2020-08-23T10:48:07Z</time>
      </trkpt>
      <trkpt lat="45.07733" lon="5.59053">
        <ele>1306.6</ele>
        <time>2020-08-23T10:48:08Z</time>
      </trkpt>
      <trkpt lat="45.07734" lon="5.59055">
        <ele>1306.6</ele>
        <time>2020-08-23T10:48:09Z</time>
      </trkpt>
      <trkpt lat="45.07735" lon="5.59057">
        <ele>1306.8</ele>
        <time>2020-08-23T10:48:10Z</time>
      </trkpt>
      <trkpt lat="45.07737" lon="5.59059">
        <ele>1307</ele>
        <time>2020-08-23T10:48:11Z</time>
      </trkpt>
      <trkpt lat="45.07738" lon="5.59061">
        <ele>1307</ele>
        <time>2020-08-23T10:48:12Z</time>
      </trkpt>
      <trkpt lat="45.07739" lon="5.59063">
        <ele>1307.2</ele>
        <time>2020-08-23T10:48:13Z</time>
      </trkpt>
      <trkpt lat="45.0774" lon="5.59065">
        <ele>1307.4</ele>
        <time>2020-08-23T10:48:14Z</time>
      </trkpt>
      <trkpt lat="45.07741" lon="5.59067">
        <ele>1307.6</ele>
        <time>2020-08-23T10:48:15Z</time>
      </trkpt>
      <trkpt lat="45.07742" lon="5.59069">
        <ele>1307.8</ele>
        <time>2020-08-23T10:48:16Z</time>
      </trkpt>
      <trkpt lat="45.07744" lon="5.59071">
        <ele>1308</ele>
        <time>2020-08-23T10:48:17Z</time>
      </trkpt>
      <trkpt lat="45.07745" lon="5.59073">
        <ele>1308</ele>
        <time>2020-08-23T10:48:18Z</time>
      </trkpt>
      <trkpt lat="45.07746" lon="5.59075">
        <ele>1308.2</ele>
        <time>2020-08-23T10:48:19Z</time>
      </trkpt>
      <trkpt lat="45.07747" lon="5.59077">
        <ele>1308.6</ele>
        <time>2020-08-23T10:48:20Z</time>
      </trkpt>
      <trkpt lat="45.07748" lon="5.5908">
        <ele>1308.8</ele>
        <time>2020-08-23T10:48:21Z</time>
      </trkpt>
      <trkpt lat="45.0775" lon="5.59082">
        <ele>1308.8</ele>
        <time>2020-08-23T10:48:22Z</time>
      </trkpt>
      <trkpt lat="45.07751" lon="5.59084">
        <ele>1309</ele>
        <time>2020-08-23T10:48:23Z</time>
      </trkpt>
      <trkpt lat="45.07752" lon="5.59087">
        <ele>1309.2</ele>
        <time>2020-08-23T10:48:24Z</time>
      </trkpt>
      <trkpt lat="45.07753" lon="5.59089">
        <ele>1309.4</ele>
        <time>2020-08-23T10:48:25Z</time>
      </trkpt>
      <trkpt lat="45.07754" lon="5.59091">
        <ele>1309.6</ele>
        <time>2020-08-23T10:48:26Z</time>
      </trkpt>
      <trkpt lat="45.07755" lon="5.59094">
        <ele>1309.8</ele>
        <time>2020-08-23T10:48:27Z</time>
      </trkpt>
      <trkpt lat="45.07756" lon="5.59096">
        <ele>1310</ele>
        <time>2020-08-23T10:48:28Z</time>
      </trkpt>
      <trkpt lat="45.07758" lon="5.59099">
        <ele>1310.2</ele>
        <time>2020-08-23T10:48:29Z</time>
      </trkpt>
      <trkpt lat="45.07759" lon="5.59101">
        <ele>1310.4</ele>
        <time>2020-08-23T10:48:30Z</time>
      </trkpt>
      <trkpt lat="45.0776" lon="5.59104">
        <ele>1310.6</ele>
        <time>2020-08-23T10:48:31Z</time>
      </trkpt>
      <trkpt lat="45.07761" lon="5.59107">
        <ele>1310.8</ele>
        <time>2020-08-23T10:48:32Z</time>
      </trkpt>
      <trkpt lat="45.07762" lon="5.5911">
        <ele>1311</ele>
        <time>2020-08-23T10:48:33Z</time>
      </trkpt>
      <trkpt lat="45.07763" lon="5.59113">
        <ele>1311.2</ele>
        <time>2020-08-23T10:48:34Z</time>
      </trkpt>
      <trkpt lat="45.07763" lon="5.59117">
        <ele>1311.4</ele>
        <time>2020-08-23T10:48:35Z</time>
      </trkpt>
      <trkpt lat="45.07764" lon="5.5912">
        <ele>1311.6</ele>
        <time>2020-08-23T10:48:36Z</time>
      </trkpt>
      <trkpt lat="45.07765" lon="5.59123">
        <ele>1311.6</ele>
        <time>2020-08-23T10:48:37Z</time>
      </trkpt>
      <trkpt lat="45.07766" lon="5.59126">
        <ele>1311.8</ele>
        <time>2020-08-23T10:48:38Z</time>
      </trkpt>
      <trkpt lat="45.07767" lon="5.59129">
        <ele>1312</ele>
        <time>2020-08-23T10:48:39Z</time>
      </trkpt>
      <trkpt lat="45.07768" lon="5.59133">
        <ele>1312.2</ele>
        <time>2020-08-23T10:48:40Z</time>
      </trkpt>
      <trkpt lat="45.07769" lon="5.59137">
        <ele>1312.4</ele>
        <time>2020-08-23T10:48:41Z</time>
      </trkpt>
      <trkpt lat="45.0777" lon="5.59141">
        <ele>1312.6</ele>
        <time>2020-08-23T10:48:42Z</time>
      </trkpt>
      <trkpt lat="45.07771" lon="5.59145">
        <ele>1312.8</ele>
        <time>2020-08-23T10:48:43Z</time>
      </trkpt>
      <trkpt lat="45.07771" lon="5.59149">
        <ele>1313</ele>
        <time>2020-08-23T10:48:44Z</time>
      </trkpt>
      <trkpt lat="45.07772" lon="5.59154">
        <ele>1313.2</ele>
        <time>2020-08-23T10:48:45Z</time>
      </trkpt>
      <trkpt lat="45.07773" lon="5.59159">
        <ele>1313.4</ele>
        <time>2020-08-23T10:48:46Z</time>
      </trkpt>
      <trkpt lat="45.07774" lon="5.59164">
        <ele>1313.4</ele>
        <time>2020-08-23T10:48:47Z</time>
      </trkpt>
      <trkpt lat="45.07775" lon="5.5917">
        <ele>1313.6</ele>
        <time>2020-08-23T10:48:48Z</time>
      </trkpt>
      <trkpt lat="45.07776" lon="5.59176">
        <ele>1313.6</ele>
        <time>2020-08-23T10:48:49Z</time>
      </trkpt>
      <trkpt lat="45.07777" lon="5.59182">
        <ele>1313.8</ele>
        <time>2020-08-23T10:48:50Z</time>
      </trkpt>
      <trkpt lat="45.07779" lon="5.59189">
        <ele>1314</ele>
        <time>2020-08-23T10:48:51Z</time>
      </trkpt>
      <trkpt lat="45.0778" lon="5.59196">
        <ele>1314.2</ele>
        <time>2020-08-23T10:48:52Z</time>
      </trkpt>
      <trkpt lat="45.0778" lon="5.59203">
        <ele>1314.4</ele>
        <time>2020-08-23T10:48:53Z</time>
      </trkpt>
      <trkpt lat="45.07779" lon="5.5921">
        <ele>1314.6</ele>
        <time>2020-08-23T10:48:54Z</time>
      </trkpt>
      <trkpt lat="45.07779" lon="5.59216">
        <ele>1314.8</ele>
        <time>2020-08-23T10:48:55Z</time>
      </trkpt>
      <trkpt lat="45.07779" lon="5.59221">
        <ele>1314.8</ele>
        <time>2020-08-23T10:48:56Z</time>
      </trkpt>
      <trkpt lat="45.07779" lon="5.59226">
        <ele>1315</ele>
        <time>2020-08-23T10:48:57Z</time>
      </trkpt>
      <trkpt lat="45.07779" lon="5.59231">
        <ele>1315</ele>
        <time>2020-08-23T10:48:58Z</time>
      </trkpt>
      <trkpt lat="45.07779" lon="5.59236">
        <ele>1315.2</ele>
        <time>2020-08-23T10:48:59Z</time>
      </trkpt>
      <trkpt lat="45.07779" lon="5.5924">
        <ele>1315.4</ele>
        <time>2020-08-23T10:49:00Z</time>
      </trkpt>
      <trkpt lat="45.07779" lon="5.59243">
        <ele>1315.8</ele>
        <time>2020-08-23T10:49:01Z</time>
      </trkpt>
      <trkpt lat="45.0778" lon="5.59245">
        <ele>1316</ele>
        <time>2020-08-23T10:49:02Z</time>
      </trkpt>
      <trkpt lat="45.07781" lon="5.59248">
        <ele>1316.2</ele>
        <time>2020-08-23T10:49:03Z</time>
      </trkpt>
      <trkpt lat="45.07781" lon="5.5925">
        <ele>1316.6</ele>
        <time>2020-08-23T10:49:04Z</time>
      </trkpt>
      <trkpt lat="45.07782" lon="5.59253">
        <ele>1316.8</ele>
        <time>2020-08-23T10:49:05Z</time>
      </trkpt>
      <trkpt lat="45.07783" lon="5.59256">
        <ele>1317</ele>
        <time>2020-08-23T10:49:06Z</time>
      </trkpt>
      <trkpt lat="45.07784" lon="5.59258">
        <ele>1317.2</ele>
        <time>2020-08-23T10:49:07Z</time>
      </trkpt>
      <trkpt lat="45.07784" lon="5.59261">
        <ele>1317.6</ele>
        <time>2020-08-23T10:49:08Z</time>
      </trkpt>
      <trkpt lat="45.07784" lon="5.59263">
        <ele>1317.8</ele>
        <time>2020-08-23T10:49:09Z</time>
      </trkpt>
      <trkpt lat="45.07784" lon="5.59266">
        <ele>1318</ele>
        <time>2020-08-23T10:49:10Z</time>
      </trkpt>
      <trkpt lat="45.07787" lon="5.59273">
        <ele>1319.6</ele>
        <time>2020-08-23T10:49:41Z</time>
      </trkpt>
      <trkpt lat="45.07787" lon="5.59274">
        <ele>1319.4</ele>
        <time>2020-08-23T10:49:42Z</time>
      </trkpt>
      <trkpt lat="45.07787" lon="5.59275">
        <ele>1319.4</ele>
        <time>2020-08-23T10:49:43Z</time>
      </trkpt>
      <trkpt lat="45.07787" lon="5.59276">
        <ele>1319.2</ele>
        <time>2020-08-23T10:49:44Z</time>
      </trkpt>
      <trkpt lat="45.07787" lon="5.59276">
        <ele>1319</ele>
        <time>2020-08-23T10:49:45Z</time>
      </trkpt>
      <trkpt lat="45.07787" lon="5.59277">
        <ele>1319</ele>
        <time>2020-08-23T10:49:46Z</time>
      </trkpt>
      <trkpt lat="45.07788" lon="5.59278">
        <ele>1319</ele>
        <time>2020-08-23T10:49:47Z</time>
      </trkpt>
      <trkpt lat="45.07788" lon="5.5928">
        <ele>1319</ele>
        <time>2020-08-23T10:49:48Z</time>
      </trkpt>
      <trkpt lat="45.07789" lon="5.59281">
        <ele>1319</ele>
        <time>2020-08-23T10:49:49Z</time>
      </trkpt>
      <trkpt lat="45.07789" lon="5.59283">
        <ele>1319</ele>
        <time>2020-08-23T10:49:50Z</time>
      </trkpt>
      <trkpt lat="45.07789" lon="5.59285">
        <ele>1319</ele>
        <time>2020-08-23T10:49:51Z</time>
      </trkpt>
      <trkpt lat="45.07789" lon="5.59287">
        <ele>1319.2</ele>
        <time>2020-08-23T10:49:52Z</time>
      </trkpt>
      <trkpt lat="45.0779" lon="5.59289">
        <ele>1319.4</ele>
        <time>2020-08-23T10:49:53Z</time>
      </trkpt>
      <trkpt lat="45.0779" lon="5.59291">
        <ele>1319.6</ele>
        <time>2020-08-23T10:49:54Z</time>
      </trkpt>
      <trkpt lat="45.07791" lon="5.59293">
        <ele>1319.6</ele>
        <time>2020-08-23T10:49:55Z</time>
      </trkpt>
      <trkpt lat="45.07792" lon="5.59296">
        <ele>1319.8</ele>
        <time>2020-08-23T10:49:56Z</time>
      </trkpt>
      <trkpt lat="45.07793" lon="5.59299">
        <ele>1320</ele>
        <time>2020-08-23T10:49:57Z</time>
      </trkpt>
      <trkpt lat="45.07793" lon="5.59301">
        <ele>1320</ele>
        <time>2020-08-23T10:49:58Z</time>
      </trkpt>
      <trkpt lat="45.07794" lon="5.59304">
        <ele>1320.2</ele>
        <time>2020-08-23T10:49:59Z</time>
      </trkpt>
      <trkpt lat="45.07795" lon="5.59307">
        <ele>1320.4</ele>
        <time>2020-08-23T10:50:00Z</time>
      </trkpt>
      <trkpt lat="45.07797" lon="5.5931">
        <ele>1320.6</ele>
        <time>2020-08-23T10:50:01Z</time>
      </trkpt>
      <trkpt lat="45.07798" lon="5.59312">
        <ele>1320.8</ele>
        <time>2020-08-23T10:50:02Z</time>
      </trkpt>
      <trkpt lat="45.07799" lon="5.59315">
        <ele>1321</ele>
        <time>2020-08-23T10:50:03Z</time>
      </trkpt>
      <trkpt lat="45.07801" lon="5.59317">
        <ele>1321.2</ele>
        <time>2020-08-23T10:50:04Z</time>
      </trkpt>
      <trkpt lat="45.07801" lon="5.59319">
        <ele>1321.4</ele>
        <time>2020-08-23T10:50:05Z</time>
      </trkpt>
      <trkpt lat="45.07803" lon="5.59321">
        <ele>1321.6</ele>
        <time>2020-08-23T10:50:06Z</time>
      </trkpt>
      <trkpt lat="45.07804" lon="5.59322">
        <ele>1321.8</ele>
        <time>2020-08-23T10:50:07Z</time>
      </trkpt>
      <trkpt lat="45.07805" lon="5.59324">
        <ele>1322</ele>
        <time>2020-08-23T10:50:08Z</time>
      </trkpt>
      <trkpt lat="45.07807" lon="5.59325">
        <ele>1322.2</ele>
        <time>2020-08-23T10:50:09Z</time>
      </trkpt>
      <trkpt lat="45.07808" lon="5.59326">
        <ele>1322.2</ele>
        <time>2020-08-23T10:50:10Z</time>
      </trkpt>
      <trkpt lat="45.07809" lon="5.59328">
        <ele>1322.6</ele>
        <time>2020-08-23T10:50:11Z</time>
      </trkpt>
      <trkpt lat="45.0781" lon="5.59329">
        <ele>1322.8</ele>
        <time>2020-08-23T10:50:12Z</time>
      </trkpt>
      <trkpt lat="45.07811" lon="5.59331">
        <ele>1323</ele>
        <time>2020-08-23T10:50:13Z</time>
      </trkpt>
      <trkpt lat="45.07813" lon="5.59332">
        <ele>1323.2</ele>
        <time>2020-08-23T10:50:14Z</time>
      </trkpt>
      <trkpt lat="45.07814" lon="5.59334">
        <ele>1323.4</ele>
        <time>2020-08-23T10:50:15Z</time>
      </trkpt>
      <trkpt lat="45.07815" lon="5.59335">
        <ele>1323.6</ele>
        <time>2020-08-23T10:50:16Z</time>
      </trkpt>
      <trkpt lat="45.07816" lon="5.59336">
        <ele>1323.8</ele>
        <time>2020-08-23T10:50:17Z</time>
      </trkpt>
      <trkpt lat="45.07818" lon="5.59337">
        <ele>1324</ele>
        <time>2020-08-23T10:50:18Z</time>
      </trkpt>
      <trkpt lat="45.07819" lon="5.59338">
        <ele>1324</ele>
        <time>2020-08-23T10:50:19Z</time>
      </trkpt>
      <trkpt lat="45.0782" lon="5.59339">
        <ele>1324.2</ele>
        <time>2020-08-23T10:50:20Z</time>
      </trkpt>
      <trkpt lat="45.07822" lon="5.59339">
        <ele>1324.4</ele>
        <time>2020-08-23T10:50:21Z</time>
      </trkpt>
      <trkpt lat="45.07823" lon="5.5934">
        <ele>1324.4</ele>
        <time>2020-08-23T10:50:22Z</time>
      </trkpt>
      <trkpt lat="45.07824" lon="5.59341">
        <ele>1324.6</ele>
        <time>2020-08-23T10:50:23Z</time>
      </trkpt>
      <trkpt lat="45.07826" lon="5.59342">
        <ele>1324.8</ele>
        <time>2020-08-23T10:50:24Z</time>
      </trkpt>
      <trkpt lat="45.07827" lon="5.59342">
        <ele>1324.8</ele>
        <time>2020-08-23T10:50:25Z</time>
      </trkpt>
      <trkpt lat="45.07828" lon="5.59343">
        <ele>1325</ele>
        <time>2020-08-23T10:50:26Z</time>
      </trkpt>
      <trkpt lat="45.07829" lon="5.59344">
        <ele>1325.2</ele>
        <time>2020-08-23T10:50:27Z</time>
      </trkpt>
      <trkpt lat="45.0783" lon="5.59344">
        <ele>1325.2</ele>
        <time>2020-08-23T10:50:28Z</time>
      </trkpt>
      <trkpt lat="45.07832" lon="5.59345">
        <ele>1325.4</ele>
        <time>2020-08-23T10:50:29Z</time>
      </trkpt>
      <trkpt lat="45.07833" lon="5.59346">
        <ele>1325.6</ele>
        <time>2020-08-23T10:50:30Z</time>
      </trkpt>
      <trkpt lat="45.07835" lon="5.59347">
        <ele>1325.6</ele>
        <time>2020-08-23T10:50:31Z</time>
      </trkpt>
      <trkpt lat="45.07836" lon="5.59348">
        <ele>1325.8</ele>
        <time>2020-08-23T10:50:32Z</time>
      </trkpt>
      <trkpt lat="45.07837" lon="5.59349">
        <ele>1325.8</ele>
        <time>2020-08-23T10:50:33Z</time>
      </trkpt>
      <trkpt lat="45.07838" lon="5.59351">
        <ele>1326</ele>
        <time>2020-08-23T10:50:34Z</time>
      </trkpt>
      <trkpt lat="45.07839" lon="5.59352">
        <ele>1326</ele>
        <time>2020-08-23T10:50:35Z</time>
      </trkpt>
      <trkpt lat="45.0784" lon="5.59353">
        <ele>1326</ele>
        <time>2020-08-23T10:50:36Z</time>
      </trkpt>
      <trkpt lat="45.07841" lon="5.59354">
        <ele>1326.2</ele>
        <time>2020-08-23T10:50:37Z</time>
      </trkpt>
      <trkpt lat="45.07842" lon="5.59355">
        <ele>1326.2</ele>
        <time>2020-08-23T10:50:38Z</time>
      </trkpt>
      <trkpt lat="45.07842" lon="5.59355">
        <ele>1326.4</ele>
        <time>2020-08-23T10:50:39Z</time>
      </trkpt>
      <trkpt lat="45.07843" lon="5.59356">
        <ele>1326.6</ele>
        <time>2020-08-23T10:50:40Z</time>
      </trkpt>
      <trkpt lat="45.07844" lon="5.59357">
        <ele>1326.6</ele>
        <time>2020-08-23T10:50:41Z</time>
      </trkpt>
      <trkpt lat="45.07845" lon="5.59358">
        <ele>1326.8</ele>
        <time>2020-08-23T10:50:42Z</time>
      </trkpt>
      <trkpt lat="45.07847" lon="5.59358">
        <ele>1326.8</ele>
        <time>2020-08-23T10:50:43Z</time>
      </trkpt>
      <trkpt lat="45.07848" lon="5.59359">
        <ele>1327</ele>
        <time>2020-08-23T10:50:44Z</time>
      </trkpt>
      <trkpt lat="45.0785" lon="5.59359">
        <ele>1327</ele>
        <time>2020-08-23T10:50:45Z</time>
      </trkpt>
      <trkpt lat="45.07851" lon="5.5936">
        <ele>1327.2</ele>
        <time>2020-08-23T10:50:46Z</time>
      </trkpt>
      <trkpt lat="45.07852" lon="5.5936">
        <ele>1327.2</ele>
        <time>2020-08-23T10:50:47Z</time>
      </trkpt>
      <trkpt lat="45.07854" lon="5.5936">
        <ele>1328</ele>
        <time>2020-08-23T10:50:52Z</time>
      </trkpt>
      <trkpt lat="45.07855" lon="5.5936">
        <ele>1328</ele>
        <time>2020-08-23T10:50:53Z</time>
      </trkpt>
      <trkpt lat="45.07856" lon="5.5936">
        <ele>1328</ele>
        <time>2020-08-23T10:50:54Z</time>
      </trkpt>
      <trkpt lat="45.07856" lon="5.5936">
        <ele>1328</ele>
        <time>2020-08-23T10:50:55Z</time>
      </trkpt>
      <trkpt lat="45.07856" lon="5.5936">
        <ele>1328</ele>
        <time>2020-08-23T10:50:56Z</time>
      </trkpt>
      <trkpt lat="45.07856" lon="5.5936">
        <ele>1328</ele>
        <time>2020-08-23T10:50:57Z</time>
      </trkpt>
      <trkpt lat="45.07856" lon="5.5936">
        <ele>1328.2</ele>
        <time>2020-08-23T10:50:58Z</time>
      </trkpt>
      <trkpt lat="45.07856" lon="5.5936">
        <ele>1328.2</ele>
        <time>2020-08-23T10:50:59Z</time>
      </trkpt>
      <trkpt lat="45.07858" lon="5.5936">
        <ele>1328.4</ele>
        <time>2020-08-23T10:51:05Z</time>
      </trkpt>
      <trkpt lat="45.07859" lon="5.5936">
        <ele>1328.6</ele>
        <time>2020-08-23T10:51:06Z</time>
      </trkpt>
      <trkpt lat="45.0786" lon="5.59359">
        <ele>1328.6</ele>
        <time>2020-08-23T10:51:07Z</time>
      </trkpt>
      <trkpt lat="45.07861" lon="5.59359">
        <ele>1328.6</ele>
        <time>2020-08-23T10:51:08Z</time>
      </trkpt>
      <trkpt lat="45.07863" lon="5.59359">
        <ele>1328.6</ele>
        <time>2020-08-23T10:51:09Z</time>
      </trkpt>
      <trkpt lat="45.07863" lon="5.59359">
        <ele>1328.6</ele>
        <time>2020-08-23T10:51:10Z</time>
      </trkpt>
      <trkpt lat="45.07864" lon="5.5936">
        <ele>1328.6</ele>
        <time>2020-08-23T10:51:11Z</time>
      </trkpt>
      <trkpt lat="45.07865" lon="5.5936">
        <ele>1328.8</ele>
        <time>2020-08-23T10:51:12Z</time>
      </trkpt>
      <trkpt lat="45.07866" lon="5.59361">
        <ele>1328.8</ele>
        <time>2020-08-23T10:51:13Z</time>
      </trkpt>
      <trkpt lat="45.07867" lon="5.59362">
        <ele>1329</ele>
        <time>2020-08-23T10:51:14Z</time>
      </trkpt>
      <trkpt lat="45.07868" lon="5.59363">
        <ele>1329</ele>
        <time>2020-08-23T10:51:15Z</time>
      </trkpt>
      <trkpt lat="45.07869" lon="5.59363">
        <ele>1329.2</ele>
        <time>2020-08-23T10:51:16Z</time>
      </trkpt>
      <trkpt lat="45.07871" lon="5.59364">
        <ele>1329.2</ele>
        <time>2020-08-23T10:51:17Z</time>
      </trkpt>
      <trkpt lat="45.07871" lon="5.59365">
        <ele>1329.4</ele>
        <time>2020-08-23T10:51:18Z</time>
      </trkpt>
      <trkpt lat="45.07872" lon="5.59366">
        <ele>1329.6</ele>
        <time>2020-08-23T10:51:19Z</time>
      </trkpt>
      <trkpt lat="45.07874" lon="5.59366">
        <ele>1329.8</ele>
        <time>2020-08-23T10:51:20Z</time>
      </trkpt>
      <trkpt lat="45.07874" lon="5.59368">
        <ele>1329.8</ele>
        <time>2020-08-23T10:51:21Z</time>
      </trkpt>
      <trkpt lat="45.07875" lon="5.59369">
        <ele>1330</ele>
        <time>2020-08-23T10:51:22Z</time>
      </trkpt>
      <trkpt lat="45.07876" lon="5.59369">
        <ele>1330.2</ele>
        <time>2020-08-23T10:51:23Z</time>
      </trkpt>
      <trkpt lat="45.07877" lon="5.59371">
        <ele>1330.4</ele>
        <time>2020-08-23T10:51:24Z</time>
      </trkpt>
      <trkpt lat="45.07878" lon="5.59372">
        <ele>1330.4</ele>
        <time>2020-08-23T10:51:25Z</time>
      </trkpt>
      <trkpt lat="45.07879" lon="5.59374">
        <ele>1330.6</ele>
        <time>2020-08-23T10:51:26Z</time>
      </trkpt>
      <trkpt lat="45.07879" lon="5.59375">
        <ele>1330.6</ele>
        <time>2020-08-23T10:51:27Z</time>
      </trkpt>
      <trkpt lat="45.0788" lon="5.59378">
        <ele>1330.6</ele>
        <time>2020-08-23T10:51:28Z</time>
      </trkpt>
      <trkpt lat="45.0788" lon="5.59379">
        <ele>1330.8</ele>
        <time>2020-08-23T10:51:29Z</time>
      </trkpt>
      <trkpt lat="45.07881" lon="5.59382">
        <ele>1331</ele>
        <time>2020-08-23T10:51:30Z</time>
      </trkpt>
      <trkpt lat="45.07882" lon="5.59384">
        <ele>1331</ele>
        <time>2020-08-23T10:51:31Z</time>
      </trkpt>
      <trkpt lat="45.07882" lon="5.59386">
        <ele>1331.2</ele>
        <time>2020-08-23T10:51:32Z</time>
      </trkpt>
      <trkpt lat="45.07883" lon="5.59388">
        <ele>1331.2</ele>
        <time>2020-08-23T10:51:33Z</time>
      </trkpt>
      <trkpt lat="45.07884" lon="5.5939">
        <ele>1331.2</ele>
        <time>2020-08-23T10:51:34Z</time>
      </trkpt>
      <trkpt lat="45.07885" lon="5.59393">
        <ele>1331.4</ele>
        <time>2020-08-23T10:51:35Z</time>
      </trkpt>
      <trkpt lat="45.07886" lon="5.59395">
        <ele>1331.4</ele>
        <time>2020-08-23T10:51:36Z</time>
      </trkpt>
      <trkpt lat="45.07887" lon="5.59397">
        <ele>1331.6</ele>
        <time>2020-08-23T10:51:37Z</time>
      </trkpt>
      <trkpt lat="45.07888" lon="5.59399">
        <ele>1331.8</ele>
        <time>2020-08-23T10:51:38Z</time>
      </trkpt>
      <trkpt lat="45.07889" lon="5.594">
        <ele>1331.8</ele>
        <time>2020-08-23T10:51:39Z</time>
      </trkpt>
      <trkpt lat="45.0789" lon="5.59402">
        <ele>1332</ele>
        <time>2020-08-23T10:51:40Z</time>
      </trkpt>
      <trkpt lat="45.07891" lon="5.59404">
        <ele>1332.2</ele>
        <time>2020-08-23T10:51:41Z</time>
      </trkpt>
      <trkpt lat="45.07892" lon="5.59405">
        <ele>1332.4</ele>
        <time>2020-08-23T10:51:42Z</time>
      </trkpt>
      <trkpt lat="45.07893" lon="5.59407">
        <ele>1332.6</ele>
        <time>2020-08-23T10:51:43Z</time>
      </trkpt>
      <trkpt lat="45.07894" lon="5.59408">
        <ele>1332.6</ele>
        <time>2020-08-23T10:51:44Z</time>
      </trkpt>
      <trkpt lat="45.07895" lon="5.5941">
        <ele>1332.8</ele>
        <time>2020-08-23T10:51:45Z</time>
      </trkpt>
      <trkpt lat="45.07896" lon="5.59412">
        <ele>1333</ele>
        <time>2020-08-23T10:51:46Z</time>
      </trkpt>
      <trkpt lat="45.07897" lon="5.59414">
        <ele>1333.2</ele>
        <time>2020-08-23T10:51:47Z</time>
      </trkpt>
      <trkpt lat="45.07898" lon="5.59415">
        <ele>1333.2</ele>
        <time>2020-08-23T10:51:48Z</time>
      </trkpt>
      <trkpt lat="45.079" lon="5.59417">
        <ele>1333.4</ele>
        <time>2020-08-23T10:51:49Z</time>
      </trkpt>
      <trkpt lat="45.07901" lon="5.59419">
        <ele>1333.4</ele>
        <time>2020-08-23T10:51:50Z</time>
      </trkpt>
      <trkpt lat="45.07902" lon="5.59421">
        <ele>1333.6</ele>
        <time>2020-08-23T10:51:51Z</time>
      </trkpt>
      <trkpt lat="45.07903" lon="5.59423">
        <ele>1333.6</ele>
        <time>2020-08-23T10:51:52Z</time>
      </trkpt>
      <trkpt lat="45.07904" lon="5.59426">
        <ele>1333.8</ele>
        <time>2020-08-23T10:51:53Z</time>
      </trkpt>
      <trkpt lat="45.07905" lon="5.59428">
        <ele>1334</ele>
        <time>2020-08-23T10:51:54Z</time>
      </trkpt>
      <trkpt lat="45.07906" lon="5.59431">
        <ele>1334</ele>
        <time>2020-08-23T10:51:55Z</time>
      </trkpt>
      <trkpt lat="45.07906" lon="5.59434">
        <ele>1334.2</ele>
        <time>2020-08-23T10:51:56Z</time>
      </trkpt>
      <trkpt lat="45.07907" lon="5.59437">
        <ele>1334.2</ele>
        <time>2020-08-23T10:51:57Z</time>
      </trkpt>
      <trkpt lat="45.07908" lon="5.59441">
        <ele>1334.4</ele>
        <time>2020-08-23T10:51:58Z</time>
      </trkpt>
      <trkpt lat="45.0791" lon="5.59444">
        <ele>1334.4</ele>
        <time>2020-08-23T10:51:59Z</time>
      </trkpt>
      <trkpt lat="45.07911" lon="5.59448">
        <ele>1334.4</ele>
        <time>2020-08-23T10:52:00Z</time>
      </trkpt>
      <trkpt lat="45.07913" lon="5.59451">
        <ele>1334.4</ele>
        <time>2020-08-23T10:52:01Z</time>
      </trkpt>
      <trkpt lat="45.07915" lon="5.59453">
        <ele>1334.6</ele>
        <time>2020-08-23T10:52:02Z</time>
      </trkpt>
      <trkpt lat="45.07917" lon="5.59455">
        <ele>1334.6</ele>
        <time>2020-08-23T10:52:03Z</time>
      </trkpt>
      <trkpt lat="45.07918" lon="5.59456">
        <ele>1334.8</ele>
        <time>2020-08-23T10:52:04Z</time>
      </trkpt>
      <trkpt lat="45.07919" lon="5.59457">
        <ele>1334.8</ele>
        <time>2020-08-23T10:52:05Z</time>
      </trkpt>
      <trkpt lat="45.07921" lon="5.59458">
        <ele>1335</ele>
        <time>2020-08-23T10:52:06Z</time>
      </trkpt>
      <trkpt lat="45.07922" lon="5.59458">
        <ele>1335</ele>
        <time>2020-08-23T10:52:07Z</time>
      </trkpt>
      <trkpt lat="45.07923" lon="5.59459">
        <ele>1335.2</ele>
        <time>2020-08-23T10:52:08Z</time>
      </trkpt>
      <trkpt lat="45.07925" lon="5.5946">
        <ele>1335.4</ele>
        <time>2020-08-23T10:52:09Z</time>
      </trkpt>
      <trkpt lat="45.07926" lon="5.59461">
        <ele>1335.6</ele>
        <time>2020-08-23T10:52:10Z</time>
      </trkpt>
      <trkpt lat="45.07927" lon="5.59462">
        <ele>1335.8</ele>
        <time>2020-08-23T10:52:11Z</time>
      </trkpt>
      <trkpt lat="45.07929" lon="5.59463">
        <ele>1335.8</ele>
        <time>2020-08-23T10:52:12Z</time>
      </trkpt>
      <trkpt lat="45.0793" lon="5.59464">
        <ele>1336</ele>
        <time>2020-08-23T10:52:13Z</time>
      </trkpt>
      <trkpt lat="45.07931" lon="5.59464">
        <ele>1336.2</ele>
        <time>2020-08-23T10:52:14Z</time>
      </trkpt>
      <trkpt lat="45.07932" lon="5.59464">
        <ele>1336.4</ele>
        <time>2020-08-23T10:52:15Z</time>
      </trkpt>
      <trkpt lat="45.07933" lon="5.59464">
        <ele>1336.6</ele>
        <time>2020-08-23T10:52:16Z</time>
      </trkpt>
      <trkpt lat="45.07934" lon="5.59465">
        <ele>1336.6</ele>
        <time>2020-08-23T10:52:17Z</time>
      </trkpt>
      <trkpt lat="45.07935" lon="5.59465">
        <ele>1336.8</ele>
        <time>2020-08-23T10:52:18Z</time>
      </trkpt>
      <trkpt lat="45.07937" lon="5.59466">
        <ele>1336.8</ele>
        <time>2020-08-23T10:52:19Z</time>
      </trkpt>
      <trkpt lat="45.07938" lon="5.59467">
        <ele>1337</ele>
        <time>2020-08-23T10:52:20Z</time>
      </trkpt>
      <trkpt lat="45.07939" lon="5.59468">
        <ele>1337.2</ele>
        <time>2020-08-23T10:52:21Z</time>
      </trkpt>
      <trkpt lat="45.0794" lon="5.5947">
        <ele>1337.2</ele>
        <time>2020-08-23T10:52:22Z</time>
      </trkpt>
      <trkpt lat="45.07941" lon="5.59471">
        <ele>1337.4</ele>
        <time>2020-08-23T10:52:23Z</time>
      </trkpt>
      <trkpt lat="45.07943" lon="5.59472">
        <ele>1337.4</ele>
        <time>2020-08-23T10:52:24Z</time>
      </trkpt>
      <trkpt lat="45.07944" lon="5.59473">
        <ele>1337.6</ele>
        <time>2020-08-23T10:52:25Z</time>
      </trkpt>
      <trkpt lat="45.07945" lon="5.59474">
        <ele>1337.6</ele>
        <time>2020-08-23T10:52:26Z</time>
      </trkpt>
      <trkpt lat="45.07945" lon="5.59476">
        <ele>1337.8</ele>
        <time>2020-08-23T10:52:27Z</time>
      </trkpt>
      <trkpt lat="45.07946" lon="5.59477">
        <ele>1337.8</ele>
        <time>2020-08-23T10:52:28Z</time>
      </trkpt>
      <trkpt lat="45.07947" lon="5.59479">
        <ele>1338</ele>
        <time>2020-08-23T10:52:29Z</time>
      </trkpt>
      <trkpt lat="45.07947" lon="5.59481">
        <ele>1338</ele>
        <time>2020-08-23T10:52:30Z</time>
      </trkpt>
      <trkpt lat="45.07948" lon="5.59482">
        <ele>1338</ele>
        <time>2020-08-23T10:52:31Z</time>
      </trkpt>
      <trkpt lat="45.07948" lon="5.59484">
        <ele>1338.2</ele>
        <time>2020-08-23T10:52:32Z</time>
      </trkpt>
      <trkpt lat="45.07949" lon="5.59486">
        <ele>1338.2</ele>
        <time>2020-08-23T10:52:33Z</time>
      </trkpt>
      <trkpt lat="45.07949" lon="5.59487">
        <ele>1338.4</ele>
        <time>2020-08-23T10:52:34Z</time>
      </trkpt>
      <trkpt lat="45.0795" lon="5.59489">
        <ele>1338.4</ele>
        <time>2020-08-23T10:52:35Z</time>
      </trkpt>
      <trkpt lat="45.0795" lon="5.59491">
        <ele>1338.6</ele>
        <time>2020-08-23T10:52:36Z</time>
      </trkpt>
      <trkpt lat="45.0795" lon="5.59492">
        <ele>1338.8</ele>
        <time>2020-08-23T10:52:37Z</time>
      </trkpt>
      <trkpt lat="45.0795" lon="5.59494">
        <ele>1339</ele>
        <time>2020-08-23T10:52:38Z</time>
      </trkpt>
      <trkpt lat="45.07951" lon="5.59495">
        <ele>1339</ele>
        <time>2020-08-23T10:52:39Z</time>
      </trkpt>
      <trkpt lat="45.07951" lon="5.59496">
        <ele>1339.2</ele>
        <time>2020-08-23T10:52:40Z</time>
      </trkpt>
      <trkpt lat="45.07951" lon="5.59497">
        <ele>1339.4</ele>
        <time>2020-08-23T10:52:41Z</time>
      </trkpt>
      <trkpt lat="45.07951" lon="5.59499">
        <ele>1339.6</ele>
        <time>2020-08-23T10:52:42Z</time>
      </trkpt>
      <trkpt lat="45.07951" lon="5.595">
        <ele>1339.6</ele>
        <time>2020-08-23T10:52:43Z</time>
      </trkpt>
      <trkpt lat="45.07952" lon="5.59501">
        <ele>1339.8</ele>
        <time>2020-08-23T10:52:44Z</time>
      </trkpt>
      <trkpt lat="45.07952" lon="5.59502">
        <ele>1340</ele>
        <time>2020-08-23T10:52:45Z</time>
      </trkpt>
      <trkpt lat="45.07952" lon="5.59504">
        <ele>1340.2</ele>
        <time>2020-08-23T10:52:46Z</time>
      </trkpt>
      <trkpt lat="45.07952" lon="5.59505">
        <ele>1340.2</ele>
        <time>2020-08-23T10:52:47Z</time>
      </trkpt>
      <trkpt lat="45.07952" lon="5.59507">
        <ele>1340.4</ele>
        <time>2020-08-23T10:52:48Z</time>
      </trkpt>
      <trkpt lat="45.07952" lon="5.59508">
        <ele>1340.4</ele>
        <time>2020-08-23T10:52:49Z</time>
      </trkpt>
      <trkpt lat="45.07952" lon="5.5951">
        <ele>1340.6</ele>
        <time>2020-08-23T10:52:50Z</time>
      </trkpt>
      <trkpt lat="45.07953" lon="5.59512">
        <ele>1340.6</ele>
        <time>2020-08-23T10:52:51Z</time>
      </trkpt>
      <trkpt lat="45.07953" lon="5.59514">
        <ele>1340.8</ele>
        <time>2020-08-23T10:52:52Z</time>
      </trkpt>
      <trkpt lat="45.07953" lon="5.59516">
        <ele>1340.8</ele>
        <time>2020-08-23T10:52:53Z</time>
      </trkpt>
      <trkpt lat="45.07954" lon="5.59518">
        <ele>1341</ele>
        <time>2020-08-23T10:52:54Z</time>
      </trkpt>
      <trkpt lat="45.07954" lon="5.5952">
        <ele>1341.2</ele>
        <time>2020-08-23T10:52:55Z</time>
      </trkpt>
      <trkpt lat="45.07954" lon="5.59521">
        <ele>1341.2</ele>
        <time>2020-08-23T10:52:56Z</time>
      </trkpt>
      <trkpt lat="45.07955" lon="5.59524">
        <ele>1341.2</ele>
        <time>2020-08-23T10:52:57Z</time>
      </trkpt>
      <trkpt lat="45.07956" lon="5.59525">
        <ele>1341.4</ele>
        <time>2020-08-23T10:52:58Z</time>
      </trkpt>
      <trkpt lat="45.07957" lon="5.59527">
        <ele>1341.6</ele>
        <time>2020-08-23T10:52:59Z</time>
      </trkpt>
      <trkpt lat="45.07958" lon="5.59528">
        <ele>1341.6</ele>
        <time>2020-08-23T10:53:00Z</time>
      </trkpt>
      <trkpt lat="45.07959" lon="5.59529">
        <ele>1341.8</ele>
        <time>2020-08-23T10:53:01Z</time>
      </trkpt>
      <trkpt lat="45.07959" lon="5.5953">
        <ele>1341.8</ele>
        <time>2020-08-23T10:53:02Z</time>
      </trkpt>
      <trkpt lat="45.07959" lon="5.5953">
        <ele>1342</ele>
        <time>2020-08-23T10:53:03Z</time>
      </trkpt>
      <trkpt lat="45.07959" lon="5.5953">
        <ele>1342.2</ele>
        <time>2020-08-23T10:53:04Z</time>
      </trkpt>
      <trkpt lat="45.07959" lon="5.5953">
        <ele>1342.2</ele>
        <time>2020-08-23T10:53:05Z</time>
      </trkpt>
      <trkpt lat="45.07959" lon="5.5953">
        <ele>1342.2</ele>
        <time>2020-08-23T10:53:06Z</time>
      </trkpt>
      <trkpt lat="45.0796" lon="5.59531">
        <ele>1342.2</ele>
        <time>2020-08-23T10:53:07Z</time>
      </trkpt>
      <trkpt lat="45.0796" lon="5.59532">
        <ele>1342.4</ele>
        <time>2020-08-23T10:53:08Z</time>
      </trkpt>
      <trkpt lat="45.07961" lon="5.59532">
        <ele>1342.4</ele>
        <time>2020-08-23T10:53:09Z</time>
      </trkpt>
      <trkpt lat="45.07961" lon="5.59533">
        <ele>1342.4</ele>
        <time>2020-08-23T10:53:10Z</time>
      </trkpt>
      <trkpt lat="45.07962" lon="5.59534">
        <ele>1342.4</ele>
        <time>2020-08-23T10:53:11Z</time>
      </trkpt>
      <trkpt lat="45.07962" lon="5.59535">
        <ele>1342.4</ele>
        <time>2020-08-23T10:53:12Z</time>
      </trkpt>
      <trkpt lat="45.07962" lon="5.59535">
        <ele>1342.4</ele>
        <time>2020-08-23T10:53:13Z</time>
      </trkpt>
      <trkpt lat="45.07963" lon="5.59536">
        <ele>1342.4</ele>
        <time>2020-08-23T10:53:14Z</time>
      </trkpt>
      <trkpt lat="45.07964" lon="5.59537">
        <ele>1342.4</ele>
        <time>2020-08-23T10:53:15Z</time>
      </trkpt>
      <trkpt lat="45.07964" lon="5.59537">
        <ele>1342.4</ele>
        <time>2020-08-23T10:53:16Z</time>
      </trkpt>
      <trkpt lat="45.07965" lon="5.59538">
        <ele>1342.4</ele>
        <time>2020-08-23T10:53:17Z</time>
      </trkpt>
      <trkpt lat="45.07965" lon="5.59538">
        <ele>1342.6</ele>
        <time>2020-08-23T10:53:18Z</time>
      </trkpt>
      <trkpt lat="45.07966" lon="5.59539">
        <ele>1342.4</ele>
        <time>2020-08-23T10:53:19Z</time>
      </trkpt>
      <trkpt lat="45.07966" lon="5.59539">
        <ele>1342.4</ele>
        <time>2020-08-23T10:53:20Z</time>
      </trkpt>
      <trkpt lat="45.07967" lon="5.5954">
        <ele>1342.4</ele>
        <time>2020-08-23T10:53:21Z</time>
      </trkpt>
      <trkpt lat="45.07968" lon="5.5954">
        <ele>1342.4</ele>
        <time>2020-08-23T10:53:22Z</time>
      </trkpt>
      <trkpt lat="45.07968" lon="5.5954">
        <ele>1342.4</ele>
        <time>2020-08-23T10:53:23Z</time>
      </trkpt>
      <trkpt lat="45.07969" lon="5.59541">
        <ele>1342.4</ele>
        <time>2020-08-23T10:53:24Z</time>
      </trkpt>
      <trkpt lat="45.07969" lon="5.59541">
        <ele>1342.4</ele>
        <time>2020-08-23T10:53:25Z</time>
      </trkpt>
      <trkpt lat="45.0797" lon="5.59541">
        <ele>1342.4</ele>
        <time>2020-08-23T10:53:26Z</time>
      </trkpt>
      <trkpt lat="45.0797" lon="5.59542">
        <ele>1342.4</ele>
        <time>2020-08-23T10:53:27Z</time>
      </trkpt>
      <trkpt lat="45.07971" lon="5.59542">
        <ele>1342.4</ele>
        <time>2020-08-23T10:53:28Z</time>
      </trkpt>
      <trkpt lat="45.07971" lon="5.59543">
        <ele>1342.4</ele>
        <time>2020-08-23T10:53:29Z</time>
      </trkpt>
      <trkpt lat="45.07972" lon="5.59543">
        <ele>1342.4</ele>
        <time>2020-08-23T10:53:30Z</time>
      </trkpt>
      <trkpt lat="45.07972" lon="5.59544">
        <ele>1342.4</ele>
        <time>2020-08-23T10:53:31Z</time>
      </trkpt>
      <trkpt lat="45.07973" lon="5.59545">
        <ele>1342.4</ele>
        <time>2020-08-23T10:53:32Z</time>
      </trkpt>
      <trkpt lat="45.07974" lon="5.59545">
        <ele>1342.4</ele>
        <time>2020-08-23T10:53:33Z</time>
      </trkpt>
      <trkpt lat="45.07974" lon="5.59546">
        <ele>1342.4</ele>
        <time>2020-08-23T10:53:34Z</time>
      </trkpt>
      <trkpt lat="45.07975" lon="5.59547">
        <ele>1342.4</ele>
        <time>2020-08-23T10:53:35Z</time>
      </trkpt>
      <trkpt lat="45.07975" lon="5.59548">
        <ele>1342.4</ele>
        <time>2020-08-23T10:53:36Z</time>
      </trkpt>
      <trkpt lat="45.07976" lon="5.59549">
        <ele>1342.4</ele>
        <time>2020-08-23T10:53:37Z</time>
      </trkpt>
      <trkpt lat="45.07976" lon="5.5955">
        <ele>1342.4</ele>
        <time>2020-08-23T10:53:38Z</time>
      </trkpt>
      <trkpt lat="45.07977" lon="5.5955">
        <ele>1342.4</ele>
        <time>2020-08-23T10:53:39Z</time>
      </trkpt>
      <trkpt lat="45.07977" lon="5.59551">
        <ele>1342.6</ele>
        <time>2020-08-23T10:53:40Z</time>
      </trkpt>
      <trkpt lat="45.07978" lon="5.59552">
        <ele>1342.6</ele>
        <time>2020-08-23T10:53:41Z</time>
      </trkpt>
      <trkpt lat="45.07978" lon="5.59553">
        <ele>1342.6</ele>
        <time>2020-08-23T10:53:42Z</time>
      </trkpt>
      <trkpt lat="45.07979" lon="5.59553">
        <ele>1342.6</ele>
        <time>2020-08-23T10:53:43Z</time>
      </trkpt>
      <trkpt lat="45.0798" lon="5.59554">
        <ele>1342.6</ele>
        <time>2020-08-23T10:53:44Z</time>
      </trkpt>
      <trkpt lat="45.0798" lon="5.59555">
        <ele>1342.8</ele>
        <time>2020-08-23T10:53:45Z</time>
      </trkpt>
      <trkpt lat="45.0798" lon="5.59555">
        <ele>1342.8</ele>
        <time>2020-08-23T10:53:46Z</time>
      </trkpt>
      <trkpt lat="45.07981" lon="5.59556">
        <ele>1342.8</ele>
        <time>2020-08-23T10:53:47Z</time>
      </trkpt>
      <trkpt lat="45.07982" lon="5.59556">
        <ele>1342.8</ele>
        <time>2020-08-23T10:53:48Z</time>
      </trkpt>
      <trkpt lat="45.07982" lon="5.59557">
        <ele>1343</ele>
        <time>2020-08-23T10:53:49Z</time>
      </trkpt>
      <trkpt lat="45.07983" lon="5.59558">
        <ele>1343</ele>
        <time>2020-08-23T10:53:50Z</time>
      </trkpt>
      <trkpt lat="45.07983" lon="5.59558">
        <ele>1343</ele>
        <time>2020-08-23T10:53:51Z</time>
      </trkpt>
      <trkpt lat="45.07984" lon="5.59559">
        <ele>1343.2</ele>
        <time>2020-08-23T10:53:52Z</time>
      </trkpt>
      <trkpt lat="45.07984" lon="5.59559">
        <ele>1343.2</ele>
        <time>2020-08-23T10:53:53Z</time>
      </trkpt>
      <trkpt lat="45.07985" lon="5.5956">
        <ele>1343.2</ele>
        <time>2020-08-23T10:53:54Z</time>
      </trkpt>
      <trkpt lat="45.07985" lon="5.5956">
        <ele>1343.4</ele>
        <time>2020-08-23T10:53:55Z</time>
      </trkpt>
      <trkpt lat="45.07986" lon="5.59561">
        <ele>1343.4</ele>
        <time>2020-08-23T10:53:56Z</time>
      </trkpt>
      <trkpt lat="45.07987" lon="5.59561">
        <ele>1343.4</ele>
        <time>2020-08-23T10:53:57Z</time>
      </trkpt>
      <trkpt lat="45.07987" lon="5.59562">
        <ele>1343.4</ele>
        <time>2020-08-23T10:53:58Z</time>
      </trkpt>
      <trkpt lat="45.07988" lon="5.59563">
        <ele>1343.6</ele>
        <time>2020-08-23T10:53:59Z</time>
      </trkpt>
      <trkpt lat="45.07988" lon="5.59563">
        <ele>1343.6</ele>
        <time>2020-08-23T10:54:00Z</time>
      </trkpt>
      <trkpt lat="45.07989" lon="5.59564">
        <ele>1343.6</ele>
        <time>2020-08-23T10:54:01Z</time>
      </trkpt>
      <trkpt lat="45.0799" lon="5.59565">
        <ele>1343.8</ele>
        <time>2020-08-23T10:54:02Z</time>
      </trkpt>
      <trkpt lat="45.0799" lon="5.59565">
        <ele>1343.8</ele>
        <time>2020-08-23T10:54:03Z</time>
      </trkpt>
      <trkpt lat="45.0799" lon="5.59565">
        <ele>1343.8</ele>
        <time>2020-08-23T10:54:04Z</time>
      </trkpt>
      <trkpt lat="45.07991" lon="5.59566">
        <ele>1344</ele>
        <time>2020-08-23T10:54:05Z</time>
      </trkpt>
      <trkpt lat="45.07991" lon="5.59567">
        <ele>1344</ele>
        <time>2020-08-23T10:54:06Z</time>
      </trkpt>
      <trkpt lat="45.07992" lon="5.59568">
        <ele>1344.2</ele>
        <time>2020-08-23T10:54:07Z</time>
      </trkpt>
      <trkpt lat="45.07992" lon="5.59568">
        <ele>1344.2</ele>
        <time>2020-08-23T10:54:08Z</time>
      </trkpt>
      <trkpt lat="45.07992" lon="5.59568">
        <ele>1344.2</ele>
        <time>2020-08-23T10:54:09Z</time>
      </trkpt>
      <trkpt lat="45.07992" lon="5.59568">
        <ele>1344.4</ele>
        <time>2020-08-23T10:54:10Z</time>
      </trkpt>
      <trkpt lat="45.07992" lon="5.59568">
        <ele>1344.4</ele>
        <time>2020-08-23T10:54:11Z</time>
      </trkpt>
      <trkpt lat="45.07992" lon="5.59568">
        <ele>1344.6</ele>
        <time>2020-08-23T10:54:12Z</time>
      </trkpt>
      <trkpt lat="45.07992" lon="5.59568">
        <ele>1344.6</ele>
        <time>2020-08-23T10:54:13Z</time>
      </trkpt>
      <trkpt lat="45.07992" lon="5.59568">
        <ele>1344.8</ele>
        <time>2020-08-23T10:54:14Z</time>
      </trkpt>
      <trkpt lat="45.07992" lon="5.59568">
        <ele>1344.8</ele>
        <time>2020-08-23T10:54:15Z</time>
      </trkpt>
      <trkpt lat="45.07994" lon="5.59569">
        <ele>1345</ele>
        <time>2020-08-23T10:54:16Z</time>
      </trkpt>
      <trkpt lat="45.07995" lon="5.5957">
        <ele>1345</ele>
        <time>2020-08-23T10:54:17Z</time>
      </trkpt>
      <trkpt lat="45.07996" lon="5.59571">
        <ele>1345</ele>
        <time>2020-08-23T10:54:18Z</time>
      </trkpt>
      <trkpt lat="45.07997" lon="5.59572">
        <ele>1345.2</ele>
        <time>2020-08-23T10:54:19Z</time>
      </trkpt>
      <trkpt lat="45.07998" lon="5.59573">
        <ele>1345.2</ele>
        <time>2020-08-23T10:54:20Z</time>
      </trkpt>
      <trkpt lat="45.07999" lon="5.59574">
        <ele>1345.2</ele>
        <time>2020-08-23T10:54:21Z</time>
      </trkpt>
      <trkpt lat="45.08" lon="5.59575">
        <ele>1345.2</ele>
        <time>2020-08-23T10:54:22Z</time>
      </trkpt>
      <trkpt lat="45.08001" lon="5.59575">
        <ele>1345.4</ele>
        <time>2020-08-23T10:54:23Z</time>
      </trkpt>
      <trkpt lat="45.08002" lon="5.59576">
        <ele>1345.4</ele>
        <time>2020-08-23T10:54:24Z</time>
      </trkpt>
      <trkpt lat="45.08004" lon="5.59577">
        <ele>1345.6</ele>
        <time>2020-08-23T10:54:25Z</time>
      </trkpt>
      <trkpt lat="45.08005" lon="5.59577">
        <ele>1345.6</ele>
        <time>2020-08-23T10:54:26Z</time>
      </trkpt>
      <trkpt lat="45.08006" lon="5.59577">
        <ele>1345.8</ele>
        <time>2020-08-23T10:54:27Z</time>
      </trkpt>
      <trkpt lat="45.08007" lon="5.59578">
        <ele>1345.8</ele>
        <time>2020-08-23T10:54:28Z</time>
      </trkpt>
      <trkpt lat="45.08008" lon="5.59578">
        <ele>1346</ele>
        <time>2020-08-23T10:54:29Z</time>
      </trkpt>
      <trkpt lat="45.08009" lon="5.59578">
        <ele>1346</ele>
        <time>2020-08-23T10:54:30Z</time>
      </trkpt>
      <trkpt lat="45.0801" lon="5.59578">
        <ele>1346.2</ele>
        <time>2020-08-23T10:54:31Z</time>
      </trkpt>
      <trkpt lat="45.08011" lon="5.59578">
        <ele>1346.4</ele>
        <time>2020-08-23T10:54:32Z</time>
      </trkpt>
      <trkpt lat="45.08012" lon="5.59578">
        <ele>1346.4</ele>
        <time>2020-08-23T10:54:33Z</time>
      </trkpt>
      <trkpt lat="45.08013" lon="5.59578">
        <ele>1346.6</ele>
        <time>2020-08-23T10:54:34Z</time>
      </trkpt>
      <trkpt lat="45.08014" lon="5.59579">
        <ele>1346.8</ele>
        <time>2020-08-23T10:54:35Z</time>
      </trkpt>
      <trkpt lat="45.08015" lon="5.59579">
        <ele>1346.8</ele>
        <time>2020-08-23T10:54:36Z</time>
      </trkpt>
      <trkpt lat="45.08016" lon="5.5958">
        <ele>1347</ele>
        <time>2020-08-23T10:54:37Z</time>
      </trkpt>
      <trkpt lat="45.08017" lon="5.5958">
        <ele>1347</ele>
        <time>2020-08-23T10:54:38Z</time>
      </trkpt>
      <trkpt lat="45.08019" lon="5.5958">
        <ele>1347.2</ele>
        <time>2020-08-23T10:54:39Z</time>
      </trkpt>
      <trkpt lat="45.08019" lon="5.59581">
        <ele>1347.4</ele>
        <time>2020-08-23T10:54:40Z</time>
      </trkpt>
      <trkpt lat="45.0802" lon="5.59581">
        <ele>1347.4</ele>
        <time>2020-08-23T10:54:41Z</time>
      </trkpt>
      <trkpt lat="45.08022" lon="5.59582">
        <ele>1347.6</ele>
        <time>2020-08-23T10:54:42Z</time>
      </trkpt>
      <trkpt lat="45.08023" lon="5.59582">
        <ele>1347.6</ele>
        <time>2020-08-23T10:54:43Z</time>
      </trkpt>
      <trkpt lat="45.08024" lon="5.59583">
        <ele>1347.8</ele>
        <time>2020-08-23T10:54:44Z</time>
      </trkpt>
      <trkpt lat="45.08025" lon="5.59584">
        <ele>1348</ele>
        <time>2020-08-23T10:54:45Z</time>
      </trkpt>
      <trkpt lat="45.08026" lon="5.59584">
        <ele>1348</ele>
        <time>2020-08-23T10:54:46Z</time>
      </trkpt>
      <trkpt lat="45.08027" lon="5.59585">
        <ele>1348.2</ele>
        <time>2020-08-23T10:54:47Z</time>
      </trkpt>
      <trkpt lat="45.08028" lon="5.59586">
        <ele>1348.4</ele>
        <time>2020-08-23T10:54:48Z</time>
      </trkpt>
      <trkpt lat="45.08029" lon="5.59587">
        <ele>1348.4</ele>
        <time>2020-08-23T10:54:49Z</time>
      </trkpt>
      <trkpt lat="45.0803" lon="5.59587">
        <ele>1348.6</ele>
        <time>2020-08-23T10:54:50Z</time>
      </trkpt>
      <trkpt lat="45.08032" lon="5.59588">
        <ele>1348.8</ele>
        <time>2020-08-23T10:54:51Z</time>
      </trkpt>
      <trkpt lat="45.08033" lon="5.59589">
        <ele>1348.8</ele>
        <time>2020-08-23T10:54:52Z</time>
      </trkpt>
      <trkpt lat="45.08035" lon="5.5959">
        <ele>1349</ele>
        <time>2020-08-23T10:54:53Z</time>
      </trkpt>
      <trkpt lat="45.08036" lon="5.59591">
        <ele>1349</ele>
        <time>2020-08-23T10:54:54Z</time>
      </trkpt>
      <trkpt lat="45.08037" lon="5.59592">
        <ele>1349</ele>
        <time>2020-08-23T10:54:55Z</time>
      </trkpt>
      <trkpt lat="45.08038" lon="5.59593">
        <ele>1349.2</ele>
        <time>2020-08-23T10:54:56Z</time>
      </trkpt>
      <trkpt lat="45.0804" lon="5.59594">
        <ele>1349.2</ele>
        <time>2020-08-23T10:54:57Z</time>
      </trkpt>
      <trkpt lat="45.08041" lon="5.59595">
        <ele>1349.2</ele>
        <time>2020-08-23T10:54:58Z</time>
      </trkpt>
      <trkpt lat="45.08042" lon="5.59596">
        <ele>1349.4</ele>
        <time>2020-08-23T10:54:59Z</time>
      </trkpt>
      <trkpt lat="45.08043" lon="5.59597">
        <ele>1349.4</ele>
        <time>2020-08-23T10:55:00Z</time>
      </trkpt>
      <trkpt lat="45.08044" lon="5.59598">
        <ele>1349.4</ele>
        <time>2020-08-23T10:55:01Z</time>
      </trkpt>
      <trkpt lat="45.08046" lon="5.59599">
        <ele>1349.4</ele>
        <time>2020-08-23T10:55:02Z</time>
      </trkpt>
      <trkpt lat="45.08047" lon="5.596">
        <ele>1349.6</ele>
        <time>2020-08-23T10:55:03Z</time>
      </trkpt>
      <trkpt lat="45.08049" lon="5.59601">
        <ele>1349.6</ele>
        <time>2020-08-23T10:55:04Z</time>
      </trkpt>
      <trkpt lat="45.0805" lon="5.59601">
        <ele>1349.6</ele>
        <time>2020-08-23T10:55:05Z</time>
      </trkpt>
      <trkpt lat="45.08051" lon="5.59602">
        <ele>1349.6</ele>
        <time>2020-08-23T10:55:06Z</time>
      </trkpt>
      <trkpt lat="45.08052" lon="5.59603">
        <ele>1349.6</ele>
        <time>2020-08-23T10:55:07Z</time>
      </trkpt>
      <trkpt lat="45.08054" lon="5.59604">
        <ele>1349.6</ele>
        <time>2020-08-23T10:55:08Z</time>
      </trkpt>
      <trkpt lat="45.08057" lon="5.59606">
        <ele>1349.6</ele>
        <time>2020-08-23T10:55:09Z</time>
      </trkpt>
      <trkpt lat="45.08059" lon="5.59608">
        <ele>1349.4</ele>
        <time>2020-08-23T10:55:10Z</time>
      </trkpt>
      <trkpt lat="45.08063" lon="5.59611">
        <ele>1349.4</ele>
        <time>2020-08-23T10:55:11Z</time>
      </trkpt>
      <trkpt lat="45.08066" lon="5.59613">
        <ele>1349.4</ele>
        <time>2020-08-23T10:55:12Z</time>
      </trkpt>
      <trkpt lat="45.08069" lon="5.59615">
        <ele>1349.4</ele>
        <time>2020-08-23T10:55:13Z</time>
      </trkpt>
      <trkpt lat="45.08071" lon="5.59617">
        <ele>1349.6</ele>
        <time>2020-08-23T10:55:14Z</time>
      </trkpt>
      <trkpt lat="45.08073" lon="5.59618">
        <ele>1349.6</ele>
        <time>2020-08-23T10:55:15Z</time>
      </trkpt>
      <trkpt lat="45.08076" lon="5.59619">
        <ele>1349.6</ele>
        <time>2020-08-23T10:55:16Z</time>
      </trkpt>
      <trkpt lat="45.08077" lon="5.59621">
        <ele>1349.6</ele>
        <time>2020-08-23T10:55:17Z</time>
      </trkpt>
      <trkpt lat="45.08078" lon="5.59622">
        <ele>1349.8</ele>
        <time>2020-08-23T10:55:18Z</time>
      </trkpt>
      <trkpt lat="45.0808" lon="5.59622">
        <ele>1349.8</ele>
        <time>2020-08-23T10:55:19Z</time>
      </trkpt>
      <trkpt lat="45.08082" lon="5.59623">
        <ele>1350</ele>
        <time>2020-08-23T10:55:20Z</time>
      </trkpt>
      <trkpt lat="45.08085" lon="5.59625">
        <ele>1350.2</ele>
        <time>2020-08-23T10:55:21Z</time>
      </trkpt>
      <trkpt lat="45.08087" lon="5.59627">
        <ele>1350.4</ele>
        <time>2020-08-23T10:55:22Z</time>
      </trkpt>
      <trkpt lat="45.08089" lon="5.59628">
        <ele>1350.4</ele>
        <time>2020-08-23T10:55:23Z</time>
      </trkpt>
      <trkpt lat="45.0809" lon="5.59629">
        <ele>1350.6</ele>
        <time>2020-08-23T10:55:24Z</time>
      </trkpt>
      <trkpt lat="45.08092" lon="5.59629">
        <ele>1350.8</ele>
        <time>2020-08-23T10:55:25Z</time>
      </trkpt>
      <trkpt lat="45.08094" lon="5.59629">
        <ele>1351</ele>
        <time>2020-08-23T10:55:26Z</time>
      </trkpt>
      <trkpt lat="45.08096" lon="5.59629">
        <ele>1351.2</ele>
        <time>2020-08-23T10:55:27Z</time>
      </trkpt>
      <trkpt lat="45.08098" lon="5.59629">
        <ele>1351.2</ele>
        <time>2020-08-23T10:55:28Z</time>
      </trkpt>
      <trkpt lat="45.08101" lon="5.5963">
        <ele>1351.4</ele>
        <time>2020-08-23T10:55:29Z</time>
      </trkpt>
      <trkpt lat="45.08103" lon="5.59631">
        <ele>1351.6</ele>
        <time>2020-08-23T10:55:30Z</time>
      </trkpt>
      <trkpt lat="45.08104" lon="5.59632">
        <ele>1351.8</ele>
        <time>2020-08-23T10:55:31Z</time>
      </trkpt>
      <trkpt lat="45.08106" lon="5.59634">
        <ele>1352</ele>
        <time>2020-08-23T10:55:32Z</time>
      </trkpt>
      <trkpt lat="45.08108" lon="5.59636">
        <ele>1352.2</ele>
        <time>2020-08-23T10:55:33Z</time>
      </trkpt>
      <trkpt lat="45.08111" lon="5.59637">
        <ele>1352.2</ele>
        <time>2020-08-23T10:55:34Z</time>
      </trkpt>
      <trkpt lat="45.08115" lon="5.59638">
        <ele>1352.4</ele>
        <time>2020-08-23T10:55:35Z</time>
      </trkpt>
      <trkpt lat="45.08118" lon="5.59639">
        <ele>1352.4</ele>
        <time>2020-08-23T10:55:36Z</time>
      </trkpt>
      <trkpt lat="45.08123" lon="5.5964">
        <ele>1352.6</ele>
        <time>2020-08-23T10:55:37Z</time>
      </trkpt>
      <trkpt lat="45.08128" lon="5.59642">
        <ele>1352.8</ele>
        <time>2020-08-23T10:55:38Z</time>
      </trkpt>
      <trkpt lat="45.08132" lon="5.59643">
        <ele>1352.8</ele>
        <time>2020-08-23T10:55:39Z</time>
      </trkpt>
      <trkpt lat="45.08136" lon="5.59645">
        <ele>1353</ele>
        <time>2020-08-23T10:55:40Z</time>
      </trkpt>
      <trkpt lat="45.08139" lon="5.59647">
        <ele>1353.2</ele>
        <time>2020-08-23T10:55:41Z</time>
      </trkpt>
      <trkpt lat="45.08142" lon="5.59649">
        <ele>1353.2</ele>
        <time>2020-08-23T10:55:42Z</time>
      </trkpt>
      <trkpt lat="45.08144" lon="5.59651">
        <ele>1353.4</ele>
        <time>2020-08-23T10:55:43Z</time>
      </trkpt>
      <trkpt lat="45.08147" lon="5.59653">
        <ele>1353.6</ele>
        <time>2020-08-23T10:55:44Z</time>
      </trkpt>
      <trkpt lat="45.08148" lon="5.59654">
        <ele>1353.6</ele>
        <time>2020-08-23T10:55:45Z</time>
      </trkpt>
      <trkpt lat="45.08149" lon="5.59654">
        <ele>1353.8</ele>
        <time>2020-08-23T10:55:46Z</time>
      </trkpt>
      <trkpt lat="45.08149" lon="5.59654">
        <ele>1353.8</ele>
        <time>2020-08-23T10:55:47Z</time>
      </trkpt>
      <trkpt lat="45.08149" lon="5.59654">
        <ele>1354</ele>
        <time>2020-08-23T10:55:48Z</time>
      </trkpt>
      <trkpt lat="45.08149" lon="5.59654">
        <ele>1354.2</ele>
        <time>2020-08-23T10:55:49Z</time>
      </trkpt>
      <trkpt lat="45.08149" lon="5.59654">
        <ele>1354.2</ele>
        <time>2020-08-23T10:55:50Z</time>
      </trkpt>
      <trkpt lat="45.08149" lon="5.59654">
        <ele>1354.4</ele>
        <time>2020-08-23T10:55:51Z</time>
      </trkpt>
      <trkpt lat="45.08149" lon="5.59654">
        <ele>1354.6</ele>
        <time>2020-08-23T10:55:52Z</time>
      </trkpt>
      <trkpt lat="45.08149" lon="5.59654">
        <ele>1354.8</ele>
        <time>2020-08-23T10:55:53Z</time>
      </trkpt>
      <trkpt lat="45.08149" lon="5.59654">
        <ele>1355</ele>
        <time>2020-08-23T10:55:54Z</time>
      </trkpt>
      <trkpt lat="45.0815" lon="5.59655">
        <ele>1355.6</ele>
        <time>2020-08-23T10:56:34Z</time>
      </trkpt>
      <trkpt lat="45.08151" lon="5.59656">
        <ele>1355.6</ele>
        <time>2020-08-23T10:56:35Z</time>
      </trkpt>
      <trkpt lat="45.08151" lon="5.59657">
        <ele>1355.6</ele>
        <time>2020-08-23T10:56:36Z</time>
      </trkpt>
      <trkpt lat="45.08153" lon="5.59658">
        <ele>1355.6</ele>
        <time>2020-08-23T10:56:37Z</time>
      </trkpt>
      <trkpt lat="45.08154" lon="5.59659">
        <ele>1355.6</ele>
        <time>2020-08-23T10:56:38Z</time>
      </trkpt>
      <trkpt lat="45.08156" lon="5.59659">
        <ele>1355.4</ele>
        <time>2020-08-23T10:56:39Z</time>
      </trkpt>
      <trkpt lat="45.08158" lon="5.5966">
        <ele>1355.4</ele>
        <time>2020-08-23T10:56:40Z</time>
      </trkpt>
      <trkpt lat="45.0816" lon="5.59661">
        <ele>1355.4</ele>
        <time>2020-08-23T10:56:41Z</time>
      </trkpt>
      <trkpt lat="45.08162" lon="5.59662">
        <ele>1355.4</ele>
        <time>2020-08-23T10:56:42Z</time>
      </trkpt>
      <trkpt lat="45.08164" lon="5.59664">
        <ele>1355.4</ele>
        <time>2020-08-23T10:56:43Z</time>
      </trkpt>
      <trkpt lat="45.08165" lon="5.59665">
        <ele>1355.4</ele>
        <time>2020-08-23T10:56:44Z</time>
      </trkpt>
      <trkpt lat="45.08167" lon="5.59666">
        <ele>1355.4</ele>
        <time>2020-08-23T10:56:45Z</time>
      </trkpt>
      <trkpt lat="45.08168" lon="5.59668">
        <ele>1355.4</ele>
        <time>2020-08-23T10:56:46Z</time>
      </trkpt>
      <trkpt lat="45.08169" lon="5.59669">
        <ele>1355.6</ele>
        <time>2020-08-23T10:56:47Z</time>
      </trkpt>
      <trkpt lat="45.08171" lon="5.5967">
        <ele>1355.6</ele>
        <time>2020-08-23T10:56:48Z</time>
      </trkpt>
      <trkpt lat="45.08172" lon="5.59671">
        <ele>1355.6</ele>
        <time>2020-08-23T10:56:49Z</time>
      </trkpt>
      <trkpt lat="45.08174" lon="5.59672">
        <ele>1355.8</ele>
        <time>2020-08-23T10:56:50Z</time>
      </trkpt>
      <trkpt lat="45.08175" lon="5.59673">
        <ele>1355.8</ele>
        <time>2020-08-23T10:56:51Z</time>
      </trkpt>
      <trkpt lat="45.08177" lon="5.59674">
        <ele>1356</ele>
        <time>2020-08-23T10:56:52Z</time>
      </trkpt>
      <trkpt lat="45.08179" lon="5.59675">
        <ele>1356</ele>
        <time>2020-08-23T10:56:53Z</time>
      </trkpt>
      <trkpt lat="45.0818" lon="5.59677">
        <ele>1356</ele>
        <time>2020-08-23T10:56:54Z</time>
      </trkpt>
      <trkpt lat="45.08181" lon="5.59678">
        <ele>1356.2</ele>
        <time>2020-08-23T10:56:55Z</time>
      </trkpt>
      <trkpt lat="45.08182" lon="5.59679">
        <ele>1356.2</ele>
        <time>2020-08-23T10:56:56Z</time>
      </trkpt>
      <trkpt lat="45.08183" lon="5.59679">
        <ele>1356.2</ele>
        <time>2020-08-23T10:56:57Z</time>
      </trkpt>
      <trkpt lat="45.08183" lon="5.59679">
        <ele>1356.4</ele>
        <time>2020-08-23T10:56:58Z</time>
      </trkpt>
      <trkpt lat="45.08184" lon="5.59679">
        <ele>1356.4</ele>
        <time>2020-08-23T10:56:59Z</time>
      </trkpt>
      <trkpt lat="45.08185" lon="5.59679">
        <ele>1356.6</ele>
        <time>2020-08-23T10:57:00Z</time>
      </trkpt>
      <trkpt lat="45.08186" lon="5.59679">
        <ele>1356.6</ele>
        <time>2020-08-23T10:57:01Z</time>
      </trkpt>
      <trkpt lat="45.08188" lon="5.59679">
        <ele>1356.6</ele>
        <time>2020-08-23T10:57:02Z</time>
      </trkpt>
      <trkpt lat="45.08189" lon="5.5968">
        <ele>1356.8</ele>
        <time>2020-08-23T10:57:03Z</time>
      </trkpt>
      <trkpt lat="45.0819" lon="5.59682">
        <ele>1356.8</ele>
        <time>2020-08-23T10:57:04Z</time>
      </trkpt>
      <trkpt lat="45.08191" lon="5.59684">
        <ele>1357</ele>
        <time>2020-08-23T10:57:05Z</time>
      </trkpt>
      <trkpt lat="45.08192" lon="5.59685">
        <ele>1357</ele>
        <time>2020-08-23T10:57:06Z</time>
      </trkpt>
      <trkpt lat="45.08193" lon="5.59687">
        <ele>1357</ele>
        <time>2020-08-23T10:57:07Z</time>
      </trkpt>
      <trkpt lat="45.08195" lon="5.59689">
        <ele>1357.2</ele>
        <time>2020-08-23T10:57:08Z</time>
      </trkpt>
      <trkpt lat="45.08196" lon="5.5969">
        <ele>1357.2</ele>
        <time>2020-08-23T10:57:09Z</time>
      </trkpt>
      <trkpt lat="45.08198" lon="5.59692">
        <ele>1357.2</ele>
        <time>2020-08-23T10:57:10Z</time>
      </trkpt>
      <trkpt lat="45.082" lon="5.59693">
        <ele>1357.4</ele>
        <time>2020-08-23T10:57:11Z</time>
      </trkpt>
      <trkpt lat="45.08202" lon="5.59694">
        <ele>1357.4</ele>
        <time>2020-08-23T10:57:12Z</time>
      </trkpt>
      <trkpt lat="45.08203" lon="5.59695">
        <ele>1357.6</ele>
        <time>2020-08-23T10:57:13Z</time>
      </trkpt>
      <trkpt lat="45.08204" lon="5.59696">
        <ele>1357.6</ele>
        <time>2020-08-23T10:57:14Z</time>
      </trkpt>
      <trkpt lat="45.08205" lon="5.59696">
        <ele>1357.8</ele>
        <time>2020-08-23T10:57:15Z</time>
      </trkpt>
      <trkpt lat="45.08206" lon="5.59697">
        <ele>1357.8</ele>
        <time>2020-08-23T10:57:16Z</time>
      </trkpt>
      <trkpt lat="45.08207" lon="5.59698">
        <ele>1357.8</ele>
        <time>2020-08-23T10:57:17Z</time>
      </trkpt>
      <trkpt lat="45.08209" lon="5.59699">
        <ele>1358</ele>
        <time>2020-08-23T10:57:18Z</time>
      </trkpt>
      <trkpt lat="45.0821" lon="5.59701">
        <ele>1358</ele>
        <time>2020-08-23T10:57:19Z</time>
      </trkpt>
      <trkpt lat="45.08211" lon="5.59702">
        <ele>1358</ele>
        <time>2020-08-23T10:57:20Z</time>
      </trkpt>
      <trkpt lat="45.08213" lon="5.59704">
        <ele>1358.2</ele>
        <time>2020-08-23T10:57:21Z</time>
      </trkpt>
      <trkpt lat="45.08214" lon="5.59705">
        <ele>1358.2</ele>
        <time>2020-08-23T10:57:22Z</time>
      </trkpt>
      <trkpt lat="45.08216" lon="5.59707">
        <ele>1358.2</ele>
        <time>2020-08-23T10:57:23Z</time>
      </trkpt>
      <trkpt lat="45.08218" lon="5.59709">
        <ele>1358.2</ele>
        <time>2020-08-23T10:57:24Z</time>
      </trkpt>
      <trkpt lat="45.08219" lon="5.5971">
        <ele>1358.4</ele>
        <time>2020-08-23T10:57:25Z</time>
      </trkpt>
      <trkpt lat="45.08221" lon="5.59712">
        <ele>1358.4</ele>
        <time>2020-08-23T10:57:26Z</time>
      </trkpt>
      <trkpt lat="45.08222" lon="5.59713">
        <ele>1358.6</ele>
        <time>2020-08-23T10:57:27Z</time>
      </trkpt>
      <trkpt lat="45.08224" lon="5.59715">
        <ele>1358.6</ele>
        <time>2020-08-23T10:57:28Z</time>
      </trkpt>
      <trkpt lat="45.08225" lon="5.59716">
        <ele>1358.6</ele>
        <time>2020-08-23T10:57:29Z</time>
      </trkpt>
      <trkpt lat="45.08227" lon="5.59718">
        <ele>1358.6</ele>
        <time>2020-08-23T10:57:30Z</time>
      </trkpt>
      <trkpt lat="45.08228" lon="5.59719">
        <ele>1358.6</ele>
        <time>2020-08-23T10:57:31Z</time>
      </trkpt>
      <trkpt lat="45.0823" lon="5.59721">
        <ele>1358.8</ele>
        <time>2020-08-23T10:57:32Z</time>
      </trkpt>
      <trkpt lat="45.08231" lon="5.59722">
        <ele>1358.8</ele>
        <time>2020-08-23T10:57:33Z</time>
      </trkpt>
      <trkpt lat="45.08233" lon="5.59724">
        <ele>1358.8</ele>
        <time>2020-08-23T10:57:34Z</time>
      </trkpt>
      <trkpt lat="45.08233" lon="5.59726">
        <ele>1359</ele>
        <time>2020-08-23T10:57:35Z</time>
      </trkpt>
      <trkpt lat="45.08234" lon="5.59728">
        <ele>1359</ele>
        <time>2020-08-23T10:57:36Z</time>
      </trkpt>
      <trkpt lat="45.08236" lon="5.5973">
        <ele>1359</ele>
        <time>2020-08-23T10:57:37Z</time>
      </trkpt>
      <trkpt lat="45.08237" lon="5.59732">
        <ele>1359.2</ele>
        <time>2020-08-23T10:57:38Z</time>
      </trkpt>
      <trkpt lat="45.08238" lon="5.59734">
        <ele>1359.2</ele>
        <time>2020-08-23T10:57:39Z</time>
      </trkpt>
      <trkpt lat="45.0824" lon="5.59736">
        <ele>1359.2</ele>
        <time>2020-08-23T10:57:40Z</time>
      </trkpt>
      <trkpt lat="45.08241" lon="5.59737">
        <ele>1359.4</ele>
        <time>2020-08-23T10:57:41Z</time>
      </trkpt>
      <trkpt lat="45.08243" lon="5.59739">
        <ele>1359.4</ele>
        <time>2020-08-23T10:57:42Z</time>
      </trkpt>
      <trkpt lat="45.08244" lon="5.5974">
        <ele>1359.4</ele>
        <time>2020-08-23T10:57:43Z</time>
      </trkpt>
      <trkpt lat="45.08246" lon="5.59742">
        <ele>1359.4</ele>
        <time>2020-08-23T10:57:44Z</time>
      </trkpt>
      <trkpt lat="45.08247" lon="5.59744">
        <ele>1359.6</ele>
        <time>2020-08-23T10:57:45Z</time>
      </trkpt>
      <trkpt lat="45.08248" lon="5.59745">
        <ele>1359.6</ele>
        <time>2020-08-23T10:57:46Z</time>
      </trkpt>
      <trkpt lat="45.08249" lon="5.59746">
        <ele>1359.6</ele>
        <time>2020-08-23T10:57:47Z</time>
      </trkpt>
      <trkpt lat="45.0825" lon="5.59748">
        <ele>1359.8</ele>
        <time>2020-08-23T10:57:48Z</time>
      </trkpt>
      <trkpt lat="45.08251" lon="5.59749">
        <ele>1359.8</ele>
        <time>2020-08-23T10:57:49Z</time>
      </trkpt>
      <trkpt lat="45.08252" lon="5.5975">
        <ele>1360</ele>
        <time>2020-08-23T10:57:50Z</time>
      </trkpt>
      <trkpt lat="45.08253" lon="5.59751">
        <ele>1360</ele>
        <time>2020-08-23T10:57:51Z</time>
      </trkpt>
      <trkpt lat="45.08254" lon="5.59753">
        <ele>1360.2</ele>
        <time>2020-08-23T10:57:52Z</time>
      </trkpt>
      <trkpt lat="45.08255" lon="5.59754">
        <ele>1360.4</ele>
        <time>2020-08-23T10:57:53Z</time>
      </trkpt>
      <trkpt lat="45.08256" lon="5.59755">
        <ele>1360.6</ele>
        <time>2020-08-23T10:57:54Z</time>
      </trkpt>
      <trkpt lat="45.08257" lon="5.59755">
        <ele>1360.6</ele>
        <time>2020-08-23T10:57:55Z</time>
      </trkpt>
      <trkpt lat="45.08258" lon="5.59757">
        <ele>1360.8</ele>
        <time>2020-08-23T10:57:56Z</time>
      </trkpt>
      <trkpt lat="45.08259" lon="5.59758">
        <ele>1361</ele>
        <time>2020-08-23T10:57:57Z</time>
      </trkpt>
      <trkpt lat="45.0826" lon="5.59759">
        <ele>1361</ele>
        <time>2020-08-23T10:57:58Z</time>
      </trkpt>
      <trkpt lat="45.0826" lon="5.59761">
        <ele>1361.2</ele>
        <time>2020-08-23T10:57:59Z</time>
      </trkpt>
      <trkpt lat="45.08261" lon="5.59762">
        <ele>1361.2</ele>
        <time>2020-08-23T10:58:00Z</time>
      </trkpt>
      <trkpt lat="45.08262" lon="5.59763">
        <ele>1361.2</ele>
        <time>2020-08-23T10:58:01Z</time>
      </trkpt>
      <trkpt lat="45.08263" lon="5.59764">
        <ele>1361.4</ele>
        <time>2020-08-23T10:58:02Z</time>
      </trkpt>
      <trkpt lat="45.08264" lon="5.59765">
        <ele>1361.4</ele>
        <time>2020-08-23T10:58:03Z</time>
      </trkpt>
      <trkpt lat="45.08265" lon="5.59766">
        <ele>1361.6</ele>
        <time>2020-08-23T10:58:04Z</time>
      </trkpt>
      <trkpt lat="45.08266" lon="5.59767">
        <ele>1361.6</ele>
        <time>2020-08-23T10:58:05Z</time>
      </trkpt>
      <trkpt lat="45.08267" lon="5.59768">
        <ele>1361.8</ele>
        <time>2020-08-23T10:58:06Z</time>
      </trkpt>
      <trkpt lat="45.08268" lon="5.59769">
        <ele>1361.8</ele>
        <time>2020-08-23T10:58:07Z</time>
      </trkpt>
      <trkpt lat="45.08268" lon="5.59771">
        <ele>1362</ele>
        <time>2020-08-23T10:58:08Z</time>
      </trkpt>
      <trkpt lat="45.08269" lon="5.59772">
        <ele>1362.2</ele>
        <time>2020-08-23T10:58:09Z</time>
      </trkpt>
      <trkpt lat="45.0827" lon="5.59774">
        <ele>1362.4</ele>
        <time>2020-08-23T10:58:10Z</time>
      </trkpt>
      <trkpt lat="45.0827" lon="5.59775">
        <ele>1362.4</ele>
        <time>2020-08-23T10:58:11Z</time>
      </trkpt>
      <trkpt lat="45.0827" lon="5.59777">
        <ele>1362.6</ele>
        <time>2020-08-23T10:58:12Z</time>
      </trkpt>
      <trkpt lat="45.08271" lon="5.59779">
        <ele>1362.6</ele>
        <time>2020-08-23T10:58:13Z</time>
      </trkpt>
      <trkpt lat="45.08271" lon="5.5978">
        <ele>1362.8</ele>
        <time>2020-08-23T10:58:14Z</time>
      </trkpt>
      <trkpt lat="45.08272" lon="5.59781">
        <ele>1362.8</ele>
        <time>2020-08-23T10:58:15Z</time>
      </trkpt>
      <trkpt lat="45.08273" lon="5.59782">
        <ele>1363</ele>
        <time>2020-08-23T10:58:16Z</time>
      </trkpt>
      <trkpt lat="45.08275" lon="5.59782">
        <ele>1363</ele>
        <time>2020-08-23T10:58:17Z</time>
      </trkpt>
      <trkpt lat="45.08276" lon="5.59783">
        <ele>1363.2</ele>
        <time>2020-08-23T10:58:18Z</time>
      </trkpt>
      <trkpt lat="45.08276" lon="5.59784">
        <ele>1363.4</ele>
        <time>2020-08-23T10:58:19Z</time>
      </trkpt>
      <trkpt lat="45.08277" lon="5.59785">
        <ele>1363.4</ele>
        <time>2020-08-23T10:58:20Z</time>
      </trkpt>
      <trkpt lat="45.08278" lon="5.59787">
        <ele>1363.6</ele>
        <time>2020-08-23T10:58:21Z</time>
      </trkpt>
      <trkpt lat="45.08278" lon="5.59788">
        <ele>1363.8</ele>
        <time>2020-08-23T10:58:22Z</time>
      </trkpt>
      <trkpt lat="45.08279" lon="5.59789">
        <ele>1364</ele>
        <time>2020-08-23T10:58:23Z</time>
      </trkpt>
      <trkpt lat="45.0828" lon="5.5979">
        <ele>1364</ele>
        <time>2020-08-23T10:58:24Z</time>
      </trkpt>
      <trkpt lat="45.08281" lon="5.59791">
        <ele>1364.2</ele>
        <time>2020-08-23T10:58:25Z</time>
      </trkpt>
      <trkpt lat="45.08282" lon="5.59792">
        <ele>1364.4</ele>
        <time>2020-08-23T10:58:26Z</time>
      </trkpt>
      <trkpt lat="45.08283" lon="5.59793">
        <ele>1364.4</ele>
        <time>2020-08-23T10:58:27Z</time>
      </trkpt>
      <trkpt lat="45.08283" lon="5.59794">
        <ele>1364.6</ele>
        <time>2020-08-23T10:58:28Z</time>
      </trkpt>
      <trkpt lat="45.08284" lon="5.59796">
        <ele>1364.8</ele>
        <time>2020-08-23T10:58:29Z</time>
      </trkpt>
      <trkpt lat="45.08284" lon="5.59797">
        <ele>1364.8</ele>
        <time>2020-08-23T10:58:30Z</time>
      </trkpt>
      <trkpt lat="45.08285" lon="5.59798">
        <ele>1365</ele>
        <time>2020-08-23T10:58:31Z</time>
      </trkpt>
      <trkpt lat="45.08286" lon="5.59799">
        <ele>1365.2</ele>
        <time>2020-08-23T10:58:32Z</time>
      </trkpt>
      <trkpt lat="45.08287" lon="5.598">
        <ele>1365.2</ele>
        <time>2020-08-23T10:58:33Z</time>
      </trkpt>
      <trkpt lat="45.08288" lon="5.59801">
        <ele>1365.4</ele>
        <time>2020-08-23T10:58:34Z</time>
      </trkpt>
      <trkpt lat="45.08289" lon="5.59802">
        <ele>1365.6</ele>
        <time>2020-08-23T10:58:35Z</time>
      </trkpt>
      <trkpt lat="45.0829" lon="5.59803">
        <ele>1365.6</ele>
        <time>2020-08-23T10:58:36Z</time>
      </trkpt>
      <trkpt lat="45.08291" lon="5.59804">
        <ele>1365.8</ele>
        <time>2020-08-23T10:58:37Z</time>
      </trkpt>
      <trkpt lat="45.08292" lon="5.59805">
        <ele>1366</ele>
        <time>2020-08-23T10:58:38Z</time>
      </trkpt>
      <trkpt lat="45.08292" lon="5.59806">
        <ele>1366.2</ele>
        <time>2020-08-23T10:58:39Z</time>
      </trkpt>
      <trkpt lat="45.08294" lon="5.59807">
        <ele>1366.4</ele>
        <time>2020-08-23T10:58:40Z</time>
      </trkpt>
      <trkpt lat="45.08294" lon="5.59807">
        <ele>1366.6</ele>
        <time>2020-08-23T10:58:41Z</time>
      </trkpt>
      <trkpt lat="45.08295" lon="5.59808">
        <ele>1366.8</ele>
        <time>2020-08-23T10:58:42Z</time>
      </trkpt>
      <trkpt lat="45.08296" lon="5.59809">
        <ele>1366.8</ele>
        <time>2020-08-23T10:58:43Z</time>
      </trkpt>
      <trkpt lat="45.08297" lon="5.59809">
        <ele>1367</ele>
        <time>2020-08-23T10:58:44Z</time>
      </trkpt>
      <trkpt lat="45.08297" lon="5.59809">
        <ele>1367.2</ele>
        <time>2020-08-23T10:58:45Z</time>
      </trkpt>
      <trkpt lat="45.08298" lon="5.59809">
        <ele>1367.4</ele>
        <time>2020-08-23T10:58:46Z</time>
      </trkpt>
      <trkpt lat="45.08299" lon="5.5981">
        <ele>1367.6</ele>
        <time>2020-08-23T10:58:47Z</time>
      </trkpt>
      <trkpt lat="45.083" lon="5.5981">
        <ele>1367.8</ele>
        <time>2020-08-23T10:58:48Z</time>
      </trkpt>
      <trkpt lat="45.08301" lon="5.5981">
        <ele>1368</ele>
        <time>2020-08-23T10:58:49Z</time>
      </trkpt>
      <trkpt lat="45.08302" lon="5.59811">
        <ele>1368.2</ele>
        <time>2020-08-23T10:58:50Z</time>
      </trkpt>
      <trkpt lat="45.08303" lon="5.59811">
        <ele>1368.4</ele>
        <time>2020-08-23T10:58:51Z</time>
      </trkpt>
      <trkpt lat="45.08304" lon="5.59812">
        <ele>1368.6</ele>
        <time>2020-08-23T10:58:52Z</time>
      </trkpt>
      <trkpt lat="45.08305" lon="5.59812">
        <ele>1368.8</ele>
        <time>2020-08-23T10:58:53Z</time>
      </trkpt>
      <trkpt lat="45.08305" lon="5.59813">
        <ele>1369</ele>
        <time>2020-08-23T10:58:54Z</time>
      </trkpt>
      <trkpt lat="45.08306" lon="5.59813">
        <ele>1369.2</ele>
        <time>2020-08-23T10:58:55Z</time>
      </trkpt>
      <trkpt lat="45.08307" lon="5.59813">
        <ele>1369.4</ele>
        <time>2020-08-23T10:58:56Z</time>
      </trkpt>
      <trkpt lat="45.08308" lon="5.59813">
        <ele>1369.6</ele>
        <time>2020-08-23T10:58:57Z</time>
      </trkpt>
      <trkpt lat="45.08308" lon="5.59814">
        <ele>1369.8</ele>
        <time>2020-08-23T10:58:58Z</time>
      </trkpt>
      <trkpt lat="45.08308" lon="5.59814">
        <ele>1370</ele>
        <time>2020-08-23T10:58:59Z</time>
      </trkpt>
      <trkpt lat="45.08309" lon="5.59813">
        <ele>1370.2</ele>
        <time>2020-08-23T10:59:00Z</time>
      </trkpt>
      <trkpt lat="45.08309" lon="5.59813">
        <ele>1370.4</ele>
        <time>2020-08-23T10:59:01Z</time>
      </trkpt>
      <trkpt lat="45.08309" lon="5.59813">
        <ele>1370.6</ele>
        <time>2020-08-23T10:59:02Z</time>
      </trkpt>
      <trkpt lat="45.08309" lon="5.59813">
        <ele>1370.8</ele>
        <time>2020-08-23T10:59:03Z</time>
      </trkpt>
      <trkpt lat="45.08309" lon="5.59813">
        <ele>1371</ele>
        <time>2020-08-23T10:59:04Z</time>
      </trkpt>
      <trkpt lat="45.08309" lon="5.59813">
        <ele>1371</ele>
        <time>2020-08-23T10:59:05Z</time>
      </trkpt>
      <trkpt lat="45.08309" lon="5.59813">
        <ele>1371.2</ele>
        <time>2020-08-23T10:59:06Z</time>
      </trkpt>
      <trkpt lat="45.08309" lon="5.59813">
        <ele>1371.4</ele>
        <time>2020-08-23T10:59:07Z</time>
      </trkpt>
      <trkpt lat="45.08309" lon="5.59813">
        <ele>1371.6</ele>
        <time>2020-08-23T10:59:08Z</time>
      </trkpt>
      <trkpt lat="45.0831" lon="5.59814">
        <ele>1372</ele>
        <time>2020-08-23T10:59:10Z</time>
      </trkpt>
      <trkpt lat="45.0831" lon="5.59814">
        <ele>1372.2</ele>
        <time>2020-08-23T10:59:11Z</time>
      </trkpt>
      <trkpt lat="45.08311" lon="5.59814">
        <ele>1372.2</ele>
        <time>2020-08-23T10:59:12Z</time>
      </trkpt>
      <trkpt lat="45.08311" lon="5.59814">
        <ele>1372.4</ele>
        <time>2020-08-23T10:59:13Z</time>
      </trkpt>
      <trkpt lat="45.08311" lon="5.59814">
        <ele>1372.4</ele>
        <time>2020-08-23T10:59:14Z</time>
      </trkpt>
      <trkpt lat="45.08311" lon="5.59814">
        <ele>1372.6</ele>
        <time>2020-08-23T10:59:15Z</time>
      </trkpt>
      <trkpt lat="45.08311" lon="5.59814">
        <ele>1373</ele>
        <time>2020-08-23T10:59:41Z</time>
      </trkpt>
      <trkpt lat="45.08312" lon="5.59812">
        <ele>1373.2</ele>
        <time>2020-08-23T10:59:42Z</time>
      </trkpt>
      <trkpt lat="45.08313" lon="5.59812">
        <ele>1373</ele>
        <time>2020-08-23T10:59:43Z</time>
      </trkpt>
      <trkpt lat="45.08313" lon="5.59812">
        <ele>1373</ele>
        <time>2020-08-23T10:59:44Z</time>
      </trkpt>
      <trkpt lat="45.08313" lon="5.59812">
        <ele>1373.2</ele>
        <time>2020-08-23T10:59:45Z</time>
      </trkpt>
      <trkpt lat="45.08313" lon="5.59812">
        <ele>1373.2</ele>
        <time>2020-08-23T10:59:46Z</time>
      </trkpt>
      <trkpt lat="45.08313" lon="5.59812">
        <ele>1373.2</ele>
        <time>2020-08-23T10:59:47Z</time>
      </trkpt>
      <trkpt lat="45.08313" lon="5.59812">
        <ele>1373.4</ele>
        <time>2020-08-23T10:59:48Z</time>
      </trkpt>
      <trkpt lat="45.08314" lon="5.59811">
        <ele>1373.8</ele>
        <time>2020-08-23T10:59:53Z</time>
      </trkpt>
      <trkpt lat="45.08315" lon="5.5981">
        <ele>1373.8</ele>
        <time>2020-08-23T10:59:54Z</time>
      </trkpt>
      <trkpt lat="45.08316" lon="5.59809">
        <ele>1373.8</ele>
        <time>2020-08-23T10:59:55Z</time>
      </trkpt>
      <trkpt lat="45.08318" lon="5.59808">
        <ele>1374</ele>
        <time>2020-08-23T10:59:56Z</time>
      </trkpt>
      <trkpt lat="45.08318" lon="5.59808">
        <ele>1374</ele>
        <time>2020-08-23T10:59:57Z</time>
      </trkpt>
      <trkpt lat="45.08319" lon="5.59807">
        <ele>1374</ele>
        <time>2020-08-23T10:59:58Z</time>
      </trkpt>
      <trkpt lat="45.08321" lon="5.59806">
        <ele>1374.2</ele>
        <time>2020-08-23T10:59:59Z</time>
      </trkpt>
      <trkpt lat="45.08322" lon="5.59806">
        <ele>1374.2</ele>
        <time>2020-08-23T11:00:00Z</time>
      </trkpt>
      <trkpt lat="45.08323" lon="5.59805">
        <ele>1374.4</ele>
        <time>2020-08-23T11:00:01Z</time>
      </trkpt>
      <trkpt lat="45.08324" lon="5.59804">
        <ele>1374.4</ele>
        <time>2020-08-23T11:00:02Z</time>
      </trkpt>
      <trkpt lat="45.08326" lon="5.59803">
        <ele>1374.6</ele>
        <time>2020-08-23T11:00:03Z</time>
      </trkpt>
      <trkpt lat="45.08327" lon="5.59803">
        <ele>1374.8</ele>
        <time>2020-08-23T11:00:04Z</time>
      </trkpt>
      <trkpt lat="45.08329" lon="5.59802">
        <ele>1375</ele>
        <time>2020-08-23T11:00:05Z</time>
      </trkpt>
      <trkpt lat="45.0833" lon="5.59801">
        <ele>1375.2</ele>
        <time>2020-08-23T11:00:06Z</time>
      </trkpt>
      <trkpt lat="45.08332" lon="5.598">
        <ele>1375.4</ele>
        <time>2020-08-23T11:00:07Z</time>
      </trkpt>
      <trkpt lat="45.08333" lon="5.59799">
        <ele>1375.6</ele>
        <time>2020-08-23T11:00:08Z</time>
      </trkpt>
      <trkpt lat="45.08334" lon="5.59798">
        <ele>1375.8</ele>
        <time>2020-08-23T11:00:09Z</time>
      </trkpt>
      <trkpt lat="45.08336" lon="5.59797">
        <ele>1376</ele>
        <time>2020-08-23T11:00:10Z</time>
      </trkpt>
      <trkpt lat="45.08337" lon="5.59796">
        <ele>1376.2</ele>
        <time>2020-08-23T11:00:11Z</time>
      </trkpt>
      <trkpt lat="45.08339" lon="5.59795">
        <ele>1376.4</ele>
        <time>2020-08-23T11:00:12Z</time>
      </trkpt>
      <trkpt lat="45.08341" lon="5.59794">
        <ele>1376.6</ele>
        <time>2020-08-23T11:00:13Z</time>
      </trkpt>
      <trkpt lat="45.08343" lon="5.59793">
        <ele>1377</ele>
        <time>2020-08-23T11:00:14Z</time>
      </trkpt>
      <trkpt lat="45.08344" lon="5.59792">
        <ele>1377.2</ele>
        <time>2020-08-23T11:00:15Z</time>
      </trkpt>
      <trkpt lat="45.08346" lon="5.59791">
        <ele>1377.4</ele>
        <time>2020-08-23T11:00:16Z</time>
      </trkpt>
      <trkpt lat="45.08347" lon="5.59791">
        <ele>1377.6</ele>
        <time>2020-08-23T11:00:17Z</time>
      </trkpt>
      <trkpt lat="45.08349" lon="5.5979">
        <ele>1377.8</ele>
        <time>2020-08-23T11:00:18Z</time>
      </trkpt>
      <trkpt lat="45.0835" lon="5.59789">
        <ele>1378</ele>
        <time>2020-08-23T11:00:19Z</time>
      </trkpt>
      <trkpt lat="45.08351" lon="5.59788">
        <ele>1378.2</ele>
        <time>2020-08-23T11:00:20Z</time>
      </trkpt>
      <trkpt lat="45.08352" lon="5.59787">
        <ele>1378.4</ele>
        <time>2020-08-23T11:00:21Z</time>
      </trkpt>
      <trkpt lat="45.08354" lon="5.59787">
        <ele>1378.8</ele>
        <time>2020-08-23T11:00:22Z</time>
      </trkpt>
      <trkpt lat="45.08355" lon="5.59787">
        <ele>1378.8</ele>
        <time>2020-08-23T11:00:23Z</time>
      </trkpt>
      <trkpt lat="45.08356" lon="5.59786">
        <ele>1379</ele>
        <time>2020-08-23T11:00:24Z</time>
      </trkpt>
      <trkpt lat="45.08358" lon="5.59785">
        <ele>1379.2</ele>
        <time>2020-08-23T11:00:25Z</time>
      </trkpt>
      <trkpt lat="45.08359" lon="5.59784">
        <ele>1379.4</ele>
        <time>2020-08-23T11:00:26Z</time>
      </trkpt>
      <trkpt lat="45.0836" lon="5.59783">
        <ele>1379.6</ele>
        <time>2020-08-23T11:00:27Z</time>
      </trkpt>
      <trkpt lat="45.08362" lon="5.59783">
        <ele>1379.6</ele>
        <time>2020-08-23T11:00:28Z</time>
      </trkpt>
      <trkpt lat="45.08364" lon="5.59782">
        <ele>1379.8</ele>
        <time>2020-08-23T11:00:29Z</time>
      </trkpt>
      <trkpt lat="45.08366" lon="5.59781">
        <ele>1380</ele>
        <time>2020-08-23T11:00:30Z</time>
      </trkpt>
      <trkpt lat="45.08367" lon="5.5978">
        <ele>1380.2</ele>
        <time>2020-08-23T11:00:31Z</time>
      </trkpt>
      <trkpt lat="45.08369" lon="5.59779">
        <ele>1380.4</ele>
        <time>2020-08-23T11:00:32Z</time>
      </trkpt>
      <trkpt lat="45.0837" lon="5.59778">
        <ele>1380.6</ele>
        <time>2020-08-23T11:00:33Z</time>
      </trkpt>
      <trkpt lat="45.08371" lon="5.59778">
        <ele>1380.8</ele>
        <time>2020-08-23T11:00:34Z</time>
      </trkpt>
      <trkpt lat="45.08372" lon="5.59777">
        <ele>1381</ele>
        <time>2020-08-23T11:00:35Z</time>
      </trkpt>
      <trkpt lat="45.08373" lon="5.59776">
        <ele>1381.2</ele>
        <time>2020-08-23T11:00:36Z</time>
      </trkpt>
      <trkpt lat="45.08374" lon="5.59776">
        <ele>1381.4</ele>
        <time>2020-08-23T11:00:37Z</time>
      </trkpt>
      <trkpt lat="45.08376" lon="5.59775">
        <ele>1381.6</ele>
        <time>2020-08-23T11:00:38Z</time>
      </trkpt>
      <trkpt lat="45.08377" lon="5.59774">
        <ele>1381.6</ele>
        <time>2020-08-23T11:00:39Z</time>
      </trkpt>
      <trkpt lat="45.08378" lon="5.59774">
        <ele>1381.8</ele>
        <time>2020-08-23T11:00:40Z</time>
      </trkpt>
      <trkpt lat="45.08379" lon="5.59773">
        <ele>1382</ele>
        <time>2020-08-23T11:00:41Z</time>
      </trkpt>
      <trkpt lat="45.08381" lon="5.59773">
        <ele>1382.2</ele>
        <time>2020-08-23T11:00:42Z</time>
      </trkpt>
      <trkpt lat="45.08381" lon="5.59772">
        <ele>1382.4</ele>
        <time>2020-08-23T11:00:43Z</time>
      </trkpt>
      <trkpt lat="45.08383" lon="5.59772">
        <ele>1382.8</ele>
        <time>2020-08-23T11:00:44Z</time>
      </trkpt>
      <trkpt lat="45.08384" lon="5.59771">
        <ele>1383</ele>
        <time>2020-08-23T11:00:45Z</time>
      </trkpt>
      <trkpt lat="45.08386" lon="5.59771">
        <ele>1383.2</ele>
        <time>2020-08-23T11:00:46Z</time>
      </trkpt>
      <trkpt lat="45.08387" lon="5.5977">
        <ele>1383.4</ele>
        <time>2020-08-23T11:00:47Z</time>
      </trkpt>
      <trkpt lat="45.08388" lon="5.5977">
        <ele>1383.6</ele>
        <time>2020-08-23T11:00:48Z</time>
      </trkpt>
      <trkpt lat="45.08389" lon="5.59769">
        <ele>1384</ele>
        <time>2020-08-23T11:00:49Z</time>
      </trkpt>
      <trkpt lat="45.0839" lon="5.59768">
        <ele>1384.2</ele>
        <time>2020-08-23T11:00:50Z</time>
      </trkpt>
      <trkpt lat="45.08391" lon="5.59767">
        <ele>1384.2</ele>
        <time>2020-08-23T11:00:51Z</time>
      </trkpt>
      <trkpt lat="45.08392" lon="5.59767">
        <ele>1384.4</ele>
        <time>2020-08-23T11:00:52Z</time>
      </trkpt>
      <trkpt lat="45.08392" lon="5.59766">
        <ele>1384.6</ele>
        <time>2020-08-23T11:00:53Z</time>
      </trkpt>
      <trkpt lat="45.08393" lon="5.59766">
        <ele>1384.8</ele>
        <time>2020-08-23T11:00:54Z</time>
      </trkpt>
      <trkpt lat="45.08395" lon="5.59767">
        <ele>1385</ele>
        <time>2020-08-23T11:00:55Z</time>
      </trkpt>
      <trkpt lat="45.08396" lon="5.59766">
        <ele>1385.2</ele>
        <time>2020-08-23T11:00:56Z</time>
      </trkpt>
      <trkpt lat="45.08397" lon="5.59766">
        <ele>1385.6</ele>
        <time>2020-08-23T11:00:57Z</time>
      </trkpt>
      <trkpt lat="45.08399" lon="5.59766">
        <ele>1385.8</ele>
        <time>2020-08-23T11:00:58Z</time>
      </trkpt>
      <trkpt lat="45.084" lon="5.59766">
        <ele>1386</ele>
        <time>2020-08-23T11:00:59Z</time>
      </trkpt>
      <trkpt lat="45.08402" lon="5.59766">
        <ele>1386.2</ele>
        <time>2020-08-23T11:01:00Z</time>
      </trkpt>
      <trkpt lat="45.08403" lon="5.59767">
        <ele>1386.2</ele>
        <time>2020-08-23T11:01:01Z</time>
      </trkpt>
      <trkpt lat="45.08404" lon="5.59767">
        <ele>1386.4</ele>
        <time>2020-08-23T11:01:02Z</time>
      </trkpt>
      <trkpt lat="45.08405" lon="5.59767">
        <ele>1386.6</ele>
        <time>2020-08-23T11:01:03Z</time>
      </trkpt>
      <trkpt lat="45.08406" lon="5.59767">
        <ele>1386.8</ele>
        <time>2020-08-23T11:01:04Z</time>
      </trkpt>
      <trkpt lat="45.08407" lon="5.59767">
        <ele>1387.2</ele>
        <time>2020-08-23T11:01:05Z</time>
      </trkpt>
      <trkpt lat="45.08408" lon="5.59767">
        <ele>1387.4</ele>
        <time>2020-08-23T11:01:06Z</time>
      </trkpt>
      <trkpt lat="45.08409" lon="5.59767">
        <ele>1387.6</ele>
        <time>2020-08-23T11:01:07Z</time>
      </trkpt>
      <trkpt lat="45.08411" lon="5.59767">
        <ele>1387.8</ele>
        <time>2020-08-23T11:01:08Z</time>
      </trkpt>
      <trkpt lat="45.08412" lon="5.59767">
        <ele>1388</ele>
        <time>2020-08-23T11:01:09Z</time>
      </trkpt>
      <trkpt lat="45.08414" lon="5.59767">
        <ele>1388.2</ele>
        <time>2020-08-23T11:01:10Z</time>
      </trkpt>
      <trkpt lat="45.08415" lon="5.59767">
        <ele>1388.2</ele>
        <time>2020-08-23T11:01:11Z</time>
      </trkpt>
      <trkpt lat="45.08416" lon="5.59767">
        <ele>1388.4</ele>
        <time>2020-08-23T11:01:12Z</time>
      </trkpt>
      <trkpt lat="45.08418" lon="5.59767">
        <ele>1388.6</ele>
        <time>2020-08-23T11:01:13Z</time>
      </trkpt>
      <trkpt lat="45.08419" lon="5.59768">
        <ele>1388.8</ele>
        <time>2020-08-23T11:01:14Z</time>
      </trkpt>
      <trkpt lat="45.0842" lon="5.59768">
        <ele>1389</ele>
        <time>2020-08-23T11:01:15Z</time>
      </trkpt>
      <trkpt lat="45.08421" lon="5.59768">
        <ele>1389.2</ele>
        <time>2020-08-23T11:01:16Z</time>
      </trkpt>
      <trkpt lat="45.08422" lon="5.59769">
        <ele>1389.2</ele>
        <time>2020-08-23T11:01:17Z</time>
      </trkpt>
      <trkpt lat="45.08424" lon="5.59769">
        <ele>1389.4</ele>
        <time>2020-08-23T11:01:18Z</time>
      </trkpt>
      <trkpt lat="45.08425" lon="5.59769">
        <ele>1389.6</ele>
        <time>2020-08-23T11:01:19Z</time>
      </trkpt>
      <trkpt lat="45.08426" lon="5.5977">
        <ele>1389.8</ele>
        <time>2020-08-23T11:01:20Z</time>
      </trkpt>
      <trkpt lat="45.08428" lon="5.5977">
        <ele>1390</ele>
        <time>2020-08-23T11:01:21Z</time>
      </trkpt>
      <trkpt lat="45.08429" lon="5.59771">
        <ele>1390.2</ele>
        <time>2020-08-23T11:01:22Z</time>
      </trkpt>
      <trkpt lat="45.08431" lon="5.59771">
        <ele>1390.4</ele>
        <time>2020-08-23T11:01:23Z</time>
      </trkpt>
      <trkpt lat="45.08432" lon="5.59771">
        <ele>1390.6</ele>
        <time>2020-08-23T11:01:24Z</time>
      </trkpt>
      <trkpt lat="45.08434" lon="5.59772">
        <ele>1390.8</ele>
        <time>2020-08-23T11:01:25Z</time>
      </trkpt>
      <trkpt lat="45.08435" lon="5.59772">
        <ele>1391</ele>
        <time>2020-08-23T11:01:26Z</time>
      </trkpt>
      <trkpt lat="45.08436" lon="5.59772">
        <ele>1391.2</ele>
        <time>2020-08-23T11:01:27Z</time>
      </trkpt>
      <trkpt lat="45.08437" lon="5.59773">
        <ele>1391.4</ele>
        <time>2020-08-23T11:01:28Z</time>
      </trkpt>
      <trkpt lat="45.08438" lon="5.59772">
        <ele>1391.6</ele>
        <time>2020-08-23T11:01:29Z</time>
      </trkpt>
      <trkpt lat="45.08439" lon="5.59773">
        <ele>1391.8</ele>
        <time>2020-08-23T11:01:30Z</time>
      </trkpt>
      <trkpt lat="45.0844" lon="5.59773">
        <ele>1392</ele>
        <time>2020-08-23T11:01:31Z</time>
      </trkpt>
      <trkpt lat="45.0844" lon="5.59773">
        <ele>1392.2</ele>
        <time>2020-08-23T11:01:32Z</time>
      </trkpt>
      <trkpt lat="45.08442" lon="5.59772">
        <ele>1392.4</ele>
        <time>2020-08-23T11:01:33Z</time>
      </trkpt>
      <trkpt lat="45.08442" lon="5.59772">
        <ele>1392.6</ele>
        <time>2020-08-23T11:01:34Z</time>
      </trkpt>
      <trkpt lat="45.08443" lon="5.59772">
        <ele>1392.8</ele>
        <time>2020-08-23T11:01:35Z</time>
      </trkpt>
      <trkpt lat="45.08445" lon="5.59772">
        <ele>1393</ele>
        <time>2020-08-23T11:01:36Z</time>
      </trkpt>
      <trkpt lat="45.08446" lon="5.59771">
        <ele>1393.2</ele>
        <time>2020-08-23T11:01:37Z</time>
      </trkpt>
      <trkpt lat="45.08448" lon="5.59771">
        <ele>1393.4</ele>
        <time>2020-08-23T11:01:38Z</time>
      </trkpt>
      <trkpt lat="45.0845" lon="5.59771">
        <ele>1393.6</ele>
        <time>2020-08-23T11:01:39Z</time>
      </trkpt>
      <trkpt lat="45.08452" lon="5.5977">
        <ele>1393.8</ele>
        <time>2020-08-23T11:01:40Z</time>
      </trkpt>
      <trkpt lat="45.08453" lon="5.59769">
        <ele>1394</ele>
        <time>2020-08-23T11:01:41Z</time>
      </trkpt>
      <trkpt lat="45.08454" lon="5.59768">
        <ele>1394.2</ele>
        <time>2020-08-23T11:01:42Z</time>
      </trkpt>
      <trkpt lat="45.08455" lon="5.59767">
        <ele>1394.4</ele>
        <time>2020-08-23T11:01:43Z</time>
      </trkpt>
      <trkpt lat="45.08457" lon="5.59766">
        <ele>1394.6</ele>
        <time>2020-08-23T11:01:44Z</time>
      </trkpt>
      <trkpt lat="45.08458" lon="5.59765">
        <ele>1394.8</ele>
        <time>2020-08-23T11:01:45Z</time>
      </trkpt>
      <trkpt lat="45.0846" lon="5.59764">
        <ele>1395</ele>
        <time>2020-08-23T11:01:46Z</time>
      </trkpt>
      <trkpt lat="45.08461" lon="5.59762">
        <ele>1395.2</ele>
        <time>2020-08-23T11:01:47Z</time>
      </trkpt>
      <trkpt lat="45.08463" lon="5.59761">
        <ele>1395.4</ele>
        <time>2020-08-23T11:01:48Z</time>
      </trkpt>
      <trkpt lat="45.08464" lon="5.59759">
        <ele>1395.6</ele>
        <time>2020-08-23T11:01:49Z</time>
      </trkpt>
      <trkpt lat="45.08465" lon="5.59757">
        <ele>1395.8</ele>
        <time>2020-08-23T11:01:50Z</time>
      </trkpt>
      <trkpt lat="45.08466" lon="5.59755">
        <ele>1396</ele>
        <time>2020-08-23T11:01:51Z</time>
      </trkpt>
      <trkpt lat="45.08467" lon="5.59754">
        <ele>1396.2</ele>
        <time>2020-08-23T11:01:52Z</time>
      </trkpt>
      <trkpt lat="45.08468" lon="5.59752">
        <ele>1396.4</ele>
        <time>2020-08-23T11:01:53Z</time>
      </trkpt>
      <trkpt lat="45.08469" lon="5.5975">
        <ele>1396.6</ele>
        <time>2020-08-23T11:01:54Z</time>
      </trkpt>
      <trkpt lat="45.0847" lon="5.59748">
        <ele>1396.8</ele>
        <time>2020-08-23T11:01:55Z</time>
      </trkpt>
      <trkpt lat="45.0847" lon="5.59747">
        <ele>1397.2</ele>
        <time>2020-08-23T11:01:56Z</time>
      </trkpt>
      <trkpt lat="45.08471" lon="5.59745">
        <ele>1397.4</ele>
        <time>2020-08-23T11:01:57Z</time>
      </trkpt>
      <trkpt lat="45.08472" lon="5.59744">
        <ele>1397.6</ele>
        <time>2020-08-23T11:01:58Z</time>
      </trkpt>
      <trkpt lat="45.08473" lon="5.59743">
        <ele>1397.8</ele>
        <time>2020-08-23T11:01:59Z</time>
      </trkpt>
      <trkpt lat="45.08474" lon="5.59742">
        <ele>1398</ele>
        <time>2020-08-23T11:02:00Z</time>
      </trkpt>
      <trkpt lat="45.08475" lon="5.5974">
        <ele>1398.4</ele>
        <time>2020-08-23T11:02:01Z</time>
      </trkpt>
      <trkpt lat="45.08476" lon="5.59739">
        <ele>1398.6</ele>
        <time>2020-08-23T11:02:02Z</time>
      </trkpt>
      <trkpt lat="45.08476" lon="5.59738">
        <ele>1398.8</ele>
        <time>2020-08-23T11:02:03Z</time>
      </trkpt>
      <trkpt lat="45.08477" lon="5.59737">
        <ele>1399</ele>
        <time>2020-08-23T11:02:04Z</time>
      </trkpt>
      <trkpt lat="45.08477" lon="5.59736">
        <ele>1399.2</ele>
        <time>2020-08-23T11:02:05Z</time>
      </trkpt>
      <trkpt lat="45.08477" lon="5.59734">
        <ele>1399.6</ele>
        <time>2020-08-23T11:02:06Z</time>
      </trkpt>
      <trkpt lat="45.08477" lon="5.59733">
        <ele>1399.8</ele>
        <time>2020-08-23T11:02:07Z</time>
      </trkpt>
      <trkpt lat="45.08478" lon="5.59731">
        <ele>1400</ele>
        <time>2020-08-23T11:02:08Z</time>
      </trkpt>
      <trkpt lat="45.08478" lon="5.5973">
        <ele>1400.2</ele>
        <time>2020-08-23T11:02:09Z</time>
      </trkpt>
      <trkpt lat="45.08479" lon="5.59728">
        <ele>1400.4</ele>
        <time>2020-08-23T11:02:10Z</time>
      </trkpt>
      <trkpt lat="45.08479" lon="5.59727">
        <ele>1400.6</ele>
        <time>2020-08-23T11:02:11Z</time>
      </trkpt>
      <trkpt lat="45.0848" lon="5.59725">
        <ele>1401</ele>
        <time>2020-08-23T11:02:12Z</time>
      </trkpt>
      <trkpt lat="45.08481" lon="5.59724">
        <ele>1401.2</ele>
        <time>2020-08-23T11:02:13Z</time>
      </trkpt>
      <trkpt lat="45.08481" lon="5.59722">
        <ele>1401.4</ele>
        <time>2020-08-23T11:02:14Z</time>
      </trkpt>
      <trkpt lat="45.08482" lon="5.59721">
        <ele>1401.6</ele>
        <time>2020-08-23T11:02:15Z</time>
      </trkpt>
      <trkpt lat="45.08483" lon="5.59719">
        <ele>1401.8</ele>
        <time>2020-08-23T11:02:16Z</time>
      </trkpt>
      <trkpt lat="45.08484" lon="5.59718">
        <ele>1402</ele>
        <time>2020-08-23T11:02:17Z</time>
      </trkpt>
      <trkpt lat="45.08485" lon="5.59718">
        <ele>1402.2</ele>
        <time>2020-08-23T11:02:18Z</time>
      </trkpt>
      <trkpt lat="45.08486" lon="5.59717">
        <ele>1402.4</ele>
        <time>2020-08-23T11:02:19Z</time>
      </trkpt>
      <trkpt lat="45.08487" lon="5.59717">
        <ele>1402.6</ele>
        <time>2020-08-23T11:02:20Z</time>
      </trkpt>
      <trkpt lat="45.08489" lon="5.59716">
        <ele>1402.8</ele>
        <time>2020-08-23T11:02:21Z</time>
      </trkpt>
      <trkpt lat="45.0849" lon="5.59716">
        <ele>1403</ele>
        <time>2020-08-23T11:02:22Z</time>
      </trkpt>
      <trkpt lat="45.08491" lon="5.59715">
        <ele>1403.2</ele>
        <time>2020-08-23T11:02:23Z</time>
      </trkpt>
      <trkpt lat="45.08492" lon="5.59714">
        <ele>1403.6</ele>
        <time>2020-08-23T11:02:24Z</time>
      </trkpt>
      <trkpt lat="45.08493" lon="5.59714">
        <ele>1403.8</ele>
        <time>2020-08-23T11:02:25Z</time>
      </trkpt>
      <trkpt lat="45.08495" lon="5.59712">
        <ele>1404</ele>
        <time>2020-08-23T11:02:26Z</time>
      </trkpt>
      <trkpt lat="45.08496" lon="5.59711">
        <ele>1404.2</ele>
        <time>2020-08-23T11:02:27Z</time>
      </trkpt>
      <trkpt lat="45.08497" lon="5.5971">
        <ele>1404.6</ele>
        <time>2020-08-23T11:02:28Z</time>
      </trkpt>
      <trkpt lat="45.08498" lon="5.59709">
        <ele>1404.6</ele>
        <time>2020-08-23T11:02:29Z</time>
      </trkpt>
      <trkpt lat="45.08499" lon="5.59708">
        <ele>1404.8</ele>
        <time>2020-08-23T11:02:30Z</time>
      </trkpt>
      <trkpt lat="45.085" lon="5.59707">
        <ele>1405</ele>
        <time>2020-08-23T11:02:31Z</time>
      </trkpt>
      <trkpt lat="45.08501" lon="5.59706">
        <ele>1405.2</ele>
        <time>2020-08-23T11:02:32Z</time>
      </trkpt>
      <trkpt lat="45.08503" lon="5.59705">
        <ele>1405.4</ele>
        <time>2020-08-23T11:02:33Z</time>
      </trkpt>
      <trkpt lat="45.08504" lon="5.59704">
        <ele>1405.6</ele>
        <time>2020-08-23T11:02:34Z</time>
      </trkpt>
      <trkpt lat="45.08505" lon="5.59703">
        <ele>1405.6</ele>
        <time>2020-08-23T11:02:35Z</time>
      </trkpt>
      <trkpt lat="45.08506" lon="5.59702">
        <ele>1405.8</ele>
        <time>2020-08-23T11:02:36Z</time>
      </trkpt>
      <trkpt lat="45.08507" lon="5.59701">
        <ele>1406</ele>
        <time>2020-08-23T11:02:37Z</time>
      </trkpt>
      <trkpt lat="45.08508" lon="5.59701">
        <ele>1406.2</ele>
        <time>2020-08-23T11:02:38Z</time>
      </trkpt>
      <trkpt lat="45.08509" lon="5.597">
        <ele>1406.4</ele>
        <time>2020-08-23T11:02:39Z</time>
      </trkpt>
      <trkpt lat="45.08511" lon="5.597">
        <ele>1406.6</ele>
        <time>2020-08-23T11:02:40Z</time>
      </trkpt>
      <trkpt lat="45.08512" lon="5.59699">
        <ele>1406.8</ele>
        <time>2020-08-23T11:02:41Z</time>
      </trkpt>
      <trkpt lat="45.08513" lon="5.59699">
        <ele>1407.2</ele>
        <time>2020-08-23T11:02:42Z</time>
      </trkpt>
      <trkpt lat="45.08514" lon="5.59699">
        <ele>1407.4</ele>
        <time>2020-08-23T11:02:43Z</time>
      </trkpt>
      <trkpt lat="45.08515" lon="5.59699">
        <ele>1407.4</ele>
        <time>2020-08-23T11:02:44Z</time>
      </trkpt>
      <trkpt lat="45.08516" lon="5.59699">
        <ele>1407.6</ele>
        <time>2020-08-23T11:02:45Z</time>
      </trkpt>
      <trkpt lat="45.08517" lon="5.59699">
        <ele>1407.8</ele>
        <time>2020-08-23T11:02:46Z</time>
      </trkpt>
      <trkpt lat="45.08518" lon="5.59698">
        <ele>1408</ele>
        <time>2020-08-23T11:02:47Z</time>
      </trkpt>
      <trkpt lat="45.08519" lon="5.59698">
        <ele>1408.2</ele>
        <time>2020-08-23T11:02:48Z</time>
      </trkpt>
      <trkpt lat="45.08519" lon="5.59698">
        <ele>1408.4</ele>
        <time>2020-08-23T11:02:49Z</time>
      </trkpt>
      <trkpt lat="45.08521" lon="5.59698">
        <ele>1408.6</ele>
        <time>2020-08-23T11:02:50Z</time>
      </trkpt>
      <trkpt lat="45.08522" lon="5.59698">
        <ele>1408.6</ele>
        <time>2020-08-23T11:02:51Z</time>
      </trkpt>
      <trkpt lat="45.08523" lon="5.59697">
        <ele>1408.8</ele>
        <time>2020-08-23T11:02:52Z</time>
      </trkpt>
      <trkpt lat="45.08524" lon="5.59697">
        <ele>1409</ele>
        <time>2020-08-23T11:02:53Z</time>
      </trkpt>
      <trkpt lat="45.08526" lon="5.59697">
        <ele>1409.2</ele>
        <time>2020-08-23T11:02:54Z</time>
      </trkpt>
      <trkpt lat="45.08527" lon="5.59697">
        <ele>1409.4</ele>
        <time>2020-08-23T11:02:55Z</time>
      </trkpt>
      <trkpt lat="45.08528" lon="5.59696">
        <ele>1409.6</ele>
        <time>2020-08-23T11:02:56Z</time>
      </trkpt>
      <trkpt lat="45.08529" lon="5.59696">
        <ele>1409.8</ele>
        <time>2020-08-23T11:02:57Z</time>
      </trkpt>
      <trkpt lat="45.0853" lon="5.59696">
        <ele>1409.8</ele>
        <time>2020-08-23T11:02:58Z</time>
      </trkpt>
      <trkpt lat="45.08532" lon="5.59695">
        <ele>1410</ele>
        <time>2020-08-23T11:02:59Z</time>
      </trkpt>
      <trkpt lat="45.08532" lon="5.59695">
        <ele>1410.2</ele>
        <time>2020-08-23T11:03:00Z</time>
      </trkpt>
      <trkpt lat="45.08533" lon="5.59695">
        <ele>1410.4</ele>
        <time>2020-08-23T11:03:01Z</time>
      </trkpt>
      <trkpt lat="45.08534" lon="5.59694">
        <ele>1410.6</ele>
        <time>2020-08-23T11:03:02Z</time>
      </trkpt>
      <trkpt lat="45.08535" lon="5.59694">
        <ele>1410.8</ele>
        <time>2020-08-23T11:03:03Z</time>
      </trkpt>
      <trkpt lat="45.08536" lon="5.59695">
        <ele>1410.8</ele>
        <time>2020-08-23T11:03:04Z</time>
      </trkpt>
      <trkpt lat="45.08537" lon="5.59694">
        <ele>1411</ele>
        <time>2020-08-23T11:03:05Z</time>
      </trkpt>
      <trkpt lat="45.08538" lon="5.59694">
        <ele>1411.2</ele>
        <time>2020-08-23T11:03:06Z</time>
      </trkpt>
      <trkpt lat="45.08538" lon="5.59693">
        <ele>1411.4</ele>
        <time>2020-08-23T11:03:07Z</time>
      </trkpt>
      <trkpt lat="45.08539" lon="5.59693">
        <ele>1411.6</ele>
        <time>2020-08-23T11:03:08Z</time>
      </trkpt>
      <trkpt lat="45.0854" lon="5.59693">
        <ele>1411.8</ele>
        <time>2020-08-23T11:03:09Z</time>
      </trkpt>
      <trkpt lat="45.08542" lon="5.59693">
        <ele>1411.8</ele>
        <time>2020-08-23T11:03:10Z</time>
      </trkpt>
      <trkpt lat="45.08543" lon="5.59692">
        <ele>1412</ele>
        <time>2020-08-23T11:03:11Z</time>
      </trkpt>
      <trkpt lat="45.08545" lon="5.59692">
        <ele>1412.2</ele>
        <time>2020-08-23T11:03:12Z</time>
      </trkpt>
      <trkpt lat="45.08546" lon="5.59691">
        <ele>1412.2</ele>
        <time>2020-08-23T11:03:13Z</time>
      </trkpt>
      <trkpt lat="45.08548" lon="5.59691">
        <ele>1412.4</ele>
        <time>2020-08-23T11:03:14Z</time>
      </trkpt>
      <trkpt lat="45.0855" lon="5.59691">
        <ele>1412.6</ele>
        <time>2020-08-23T11:03:15Z</time>
      </trkpt>
      <trkpt lat="45.08552" lon="5.59691">
        <ele>1412.8</ele>
        <time>2020-08-23T11:03:16Z</time>
      </trkpt>
      <trkpt lat="45.08554" lon="5.59691">
        <ele>1412.8</ele>
        <time>2020-08-23T11:03:17Z</time>
      </trkpt>
      <trkpt lat="45.08556" lon="5.59691">
        <ele>1413</ele>
        <time>2020-08-23T11:03:18Z</time>
      </trkpt>
      <trkpt lat="45.08558" lon="5.59692">
        <ele>1413.2</ele>
        <time>2020-08-23T11:03:19Z</time>
      </trkpt>
      <trkpt lat="45.08559" lon="5.59692">
        <ele>1413.4</ele>
        <time>2020-08-23T11:03:20Z</time>
      </trkpt>
      <trkpt lat="45.08561" lon="5.59692">
        <ele>1413.4</ele>
        <time>2020-08-23T11:03:21Z</time>
      </trkpt>
      <trkpt lat="45.08563" lon="5.59692">
        <ele>1413.6</ele>
        <time>2020-08-23T11:03:22Z</time>
      </trkpt>
      <trkpt lat="45.08564" lon="5.59693">
        <ele>1413.6</ele>
        <time>2020-08-23T11:03:23Z</time>
      </trkpt>
      <trkpt lat="45.08566" lon="5.59692">
        <ele>1413.8</ele>
        <time>2020-08-23T11:03:24Z</time>
      </trkpt>
      <trkpt lat="45.08567" lon="5.59692">
        <ele>1414</ele>
        <time>2020-08-23T11:03:25Z</time>
      </trkpt>
      <trkpt lat="45.08569" lon="5.59692">
        <ele>1414</ele>
        <time>2020-08-23T11:03:26Z</time>
      </trkpt>
      <trkpt lat="45.08571" lon="5.59691">
        <ele>1414.2</ele>
        <time>2020-08-23T11:03:27Z</time>
      </trkpt>
      <trkpt lat="45.08572" lon="5.5969">
        <ele>1414.2</ele>
        <time>2020-08-23T11:03:28Z</time>
      </trkpt>
      <trkpt lat="45.08573" lon="5.59688">
        <ele>1414.2</ele>
        <time>2020-08-23T11:03:29Z</time>
      </trkpt>
      <trkpt lat="45.08574" lon="5.59686">
        <ele>1414.4</ele>
        <time>2020-08-23T11:03:30Z</time>
      </trkpt>
      <trkpt lat="45.08575" lon="5.59684">
        <ele>1414.4</ele>
        <time>2020-08-23T11:03:31Z</time>
      </trkpt>
      <trkpt lat="45.08577" lon="5.59682">
        <ele>1414.6</ele>
        <time>2020-08-23T11:03:32Z</time>
      </trkpt>
      <trkpt lat="45.08578" lon="5.59681">
        <ele>1414.8</ele>
        <time>2020-08-23T11:03:33Z</time>
      </trkpt>
      <trkpt lat="45.08579" lon="5.59679">
        <ele>1414.8</ele>
        <time>2020-08-23T11:03:34Z</time>
      </trkpt>
      <trkpt lat="45.08579" lon="5.59677">
        <ele>1415</ele>
        <time>2020-08-23T11:03:35Z</time>
      </trkpt>
      <trkpt lat="45.0858" lon="5.59676">
        <ele>1415.2</ele>
        <time>2020-08-23T11:03:36Z</time>
      </trkpt>
      <trkpt lat="45.0858" lon="5.59674">
        <ele>1415.2</ele>
        <time>2020-08-23T11:03:37Z</time>
      </trkpt>
      <trkpt lat="45.08581" lon="5.59673">
        <ele>1415.4</ele>
        <time>2020-08-23T11:03:38Z</time>
      </trkpt>
      <trkpt lat="45.08582" lon="5.59672">
        <ele>1415.6</ele>
        <time>2020-08-23T11:03:39Z</time>
      </trkpt>
      <trkpt lat="45.08582" lon="5.59671">
        <ele>1415.8</ele>
        <time>2020-08-23T11:03:40Z</time>
      </trkpt>
      <trkpt lat="45.08583" lon="5.5967">
        <ele>1416</ele>
        <time>2020-08-23T11:03:41Z</time>
      </trkpt>
      <trkpt lat="45.08583" lon="5.59668">
        <ele>1416.2</ele>
        <time>2020-08-23T11:03:42Z</time>
      </trkpt>
      <trkpt lat="45.08584" lon="5.59667">
        <ele>1416.4</ele>
        <time>2020-08-23T11:03:43Z</time>
      </trkpt>
      <trkpt lat="45.08585" lon="5.59666">
        <ele>1416.6</ele>
        <time>2020-08-23T11:03:44Z</time>
      </trkpt>
      <trkpt lat="45.08585" lon="5.59665">
        <ele>1416.8</ele>
        <time>2020-08-23T11:03:45Z</time>
      </trkpt>
      <trkpt lat="45.08586" lon="5.59664">
        <ele>1417</ele>
        <time>2020-08-23T11:03:46Z</time>
      </trkpt>
      <trkpt lat="45.08587" lon="5.59663">
        <ele>1417.2</ele>
        <time>2020-08-23T11:03:47Z</time>
      </trkpt>
      <trkpt lat="45.08587" lon="5.59662">
        <ele>1417.4</ele>
        <time>2020-08-23T11:03:48Z</time>
      </trkpt>
      <trkpt lat="45.08587" lon="5.59661">
        <ele>1417.6</ele>
        <time>2020-08-23T11:03:49Z</time>
      </trkpt>
      <trkpt lat="45.08588" lon="5.5966">
        <ele>1417.8</ele>
        <time>2020-08-23T11:03:50Z</time>
      </trkpt>
      <trkpt lat="45.08588" lon="5.59659">
        <ele>1418</ele>
        <time>2020-08-23T11:03:51Z</time>
      </trkpt>
      <trkpt lat="45.08589" lon="5.59657">
        <ele>1418.2</ele>
        <time>2020-08-23T11:03:52Z</time>
      </trkpt>
      <trkpt lat="45.08589" lon="5.59656">
        <ele>1418.2</ele>
        <time>2020-08-23T11:03:53Z</time>
      </trkpt>
      <trkpt lat="45.0859" lon="5.59655">
        <ele>1418.4</ele>
        <time>2020-08-23T11:03:54Z</time>
      </trkpt>
      <trkpt lat="45.08591" lon="5.59654">
        <ele>1418.6</ele>
        <time>2020-08-23T11:03:55Z</time>
      </trkpt>
      <trkpt lat="45.08591" lon="5.59653">
        <ele>1418.8</ele>
        <time>2020-08-23T11:03:56Z</time>
      </trkpt>
      <trkpt lat="45.08592" lon="5.59652">
        <ele>1419</ele>
        <time>2020-08-23T11:03:57Z</time>
      </trkpt>
      <trkpt lat="45.08592" lon="5.59651">
        <ele>1419.2</ele>
        <time>2020-08-23T11:03:58Z</time>
      </trkpt>
      <trkpt lat="45.08593" lon="5.5965">
        <ele>1419.4</ele>
        <time>2020-08-23T11:03:59Z</time>
      </trkpt>
      <trkpt lat="45.08593" lon="5.59649">
        <ele>1419.6</ele>
        <time>2020-08-23T11:04:00Z</time>
      </trkpt>
      <trkpt lat="45.08594" lon="5.59648">
        <ele>1419.8</ele>
        <time>2020-08-23T11:04:01Z</time>
      </trkpt>
      <trkpt lat="45.08595" lon="5.59647">
        <ele>1420</ele>
        <time>2020-08-23T11:04:02Z</time>
      </trkpt>
      <trkpt lat="45.08595" lon="5.59645">
        <ele>1420</ele>
        <time>2020-08-23T11:04:03Z</time>
      </trkpt>
      <trkpt lat="45.08596" lon="5.59643">
        <ele>1420.2</ele>
        <time>2020-08-23T11:04:04Z</time>
      </trkpt>
      <trkpt lat="45.08596" lon="5.59642">
        <ele>1420.4</ele>
        <time>2020-08-23T11:04:05Z</time>
      </trkpt>
      <trkpt lat="45.08596" lon="5.59641">
        <ele>1420.4</ele>
        <time>2020-08-23T11:04:06Z</time>
      </trkpt>
      <trkpt lat="45.08597" lon="5.5964">
        <ele>1420.6</ele>
        <time>2020-08-23T11:04:07Z</time>
      </trkpt>
      <trkpt lat="45.08597" lon="5.59638">
        <ele>1420.8</ele>
        <time>2020-08-23T11:04:08Z</time>
      </trkpt>
      <trkpt lat="45.08597" lon="5.59637">
        <ele>1420.8</ele>
        <time>2020-08-23T11:04:09Z</time>
      </trkpt>
      <trkpt lat="45.08598" lon="5.59636">
        <ele>1421</ele>
        <time>2020-08-23T11:04:10Z</time>
      </trkpt>
      <trkpt lat="45.08598" lon="5.59634">
        <ele>1421.2</ele>
        <time>2020-08-23T11:04:11Z</time>
      </trkpt>
      <trkpt lat="45.08598" lon="5.59633">
        <ele>1421.4</ele>
        <time>2020-08-23T11:04:12Z</time>
      </trkpt>
      <trkpt lat="45.08599" lon="5.59631">
        <ele>1421.6</ele>
        <time>2020-08-23T11:04:13Z</time>
      </trkpt>
      <trkpt lat="45.086" lon="5.5963">
        <ele>1421.8</ele>
        <time>2020-08-23T11:04:14Z</time>
      </trkpt>
      <trkpt lat="45.08601" lon="5.59629">
        <ele>1421.8</ele>
        <time>2020-08-23T11:04:15Z</time>
      </trkpt>
      <trkpt lat="45.08601" lon="5.59628">
        <ele>1422</ele>
        <time>2020-08-23T11:04:16Z</time>
      </trkpt>
      <trkpt lat="45.08602" lon="5.59628">
        <ele>1422.2</ele>
        <time>2020-08-23T11:04:17Z</time>
      </trkpt>
      <trkpt lat="45.08603" lon="5.59627">
        <ele>1422.4</ele>
        <time>2020-08-23T11:04:18Z</time>
      </trkpt>
      <trkpt lat="45.08604" lon="5.59626">
        <ele>1422.6</ele>
        <time>2020-08-23T11:04:19Z</time>
      </trkpt>
      <trkpt lat="45.08605" lon="5.59624">
        <ele>1422.6</ele>
        <time>2020-08-23T11:04:20Z</time>
      </trkpt>
      <trkpt lat="45.08606" lon="5.59623">
        <ele>1422.8</ele>
        <time>2020-08-23T11:04:21Z</time>
      </trkpt>
      <trkpt lat="45.08606" lon="5.59622">
        <ele>1423</ele>
        <time>2020-08-23T11:04:22Z</time>
      </trkpt>
      <trkpt lat="45.08608" lon="5.59622">
        <ele>1423.2</ele>
        <time>2020-08-23T11:04:23Z</time>
      </trkpt>
      <trkpt lat="45.08608" lon="5.59621">
        <ele>1423.4</ele>
        <time>2020-08-23T11:04:24Z</time>
      </trkpt>
      <trkpt lat="45.08609" lon="5.59619">
        <ele>1423.4</ele>
        <time>2020-08-23T11:04:25Z</time>
      </trkpt>
      <trkpt lat="45.08609" lon="5.59618">
        <ele>1423.6</ele>
        <time>2020-08-23T11:04:26Z</time>
      </trkpt>
      <trkpt lat="45.0861" lon="5.59617">
        <ele>1423.8</ele>
        <time>2020-08-23T11:04:27Z</time>
      </trkpt>
      <trkpt lat="45.08611" lon="5.59616">
        <ele>1424</ele>
        <time>2020-08-23T11:04:28Z</time>
      </trkpt>
      <trkpt lat="45.08611" lon="5.59615">
        <ele>1424.2</ele>
        <time>2020-08-23T11:04:29Z</time>
      </trkpt>
      <trkpt lat="45.08612" lon="5.59613">
        <ele>1424.4</ele>
        <time>2020-08-23T11:04:30Z</time>
      </trkpt>
      <trkpt lat="45.08613" lon="5.59612">
        <ele>1424.4</ele>
        <time>2020-08-23T11:04:31Z</time>
      </trkpt>
      <trkpt lat="45.08614" lon="5.59611">
        <ele>1424.6</ele>
        <time>2020-08-23T11:04:32Z</time>
      </trkpt>
      <trkpt lat="45.08615" lon="5.59609">
        <ele>1424.8</ele>
        <time>2020-08-23T11:04:33Z</time>
      </trkpt>
      <trkpt lat="45.08616" lon="5.59608">
        <ele>1425</ele>
        <time>2020-08-23T11:04:34Z</time>
      </trkpt>
      <trkpt lat="45.08616" lon="5.59607">
        <ele>1425.2</ele>
        <time>2020-08-23T11:04:35Z</time>
      </trkpt>
      <trkpt lat="45.08617" lon="5.59605">
        <ele>1425.4</ele>
        <time>2020-08-23T11:04:36Z</time>
      </trkpt>
      <trkpt lat="45.08618" lon="5.59604">
        <ele>1425.6</ele>
        <time>2020-08-23T11:04:37Z</time>
      </trkpt>
      <trkpt lat="45.08619" lon="5.59603">
        <ele>1425.6</ele>
        <time>2020-08-23T11:04:38Z</time>
      </trkpt>
      <trkpt lat="45.0862" lon="5.59602">
        <ele>1425.8</ele>
        <time>2020-08-23T11:04:39Z</time>
      </trkpt>
      <trkpt lat="45.0862" lon="5.59601">
        <ele>1426</ele>
        <time>2020-08-23T11:04:40Z</time>
      </trkpt>
      <trkpt lat="45.08621" lon="5.59599">
        <ele>1426.2</ele>
        <time>2020-08-23T11:04:41Z</time>
      </trkpt>
      <trkpt lat="45.08622" lon="5.59598">
        <ele>1426.4</ele>
        <time>2020-08-23T11:04:42Z</time>
      </trkpt>
      <trkpt lat="45.08622" lon="5.59596">
        <ele>1426.6</ele>
        <time>2020-08-23T11:04:43Z</time>
      </trkpt>
      <trkpt lat="45.08622" lon="5.59595">
        <ele>1426.8</ele>
        <time>2020-08-23T11:04:44Z</time>
      </trkpt>
      <trkpt lat="45.08623" lon="5.59593">
        <ele>1427</ele>
        <time>2020-08-23T11:04:45Z</time>
      </trkpt>
      <trkpt lat="45.08624" lon="5.59592">
        <ele>1427</ele>
        <time>2020-08-23T11:04:46Z</time>
      </trkpt>
      <trkpt lat="45.08624" lon="5.59591">
        <ele>1427.2</ele>
        <time>2020-08-23T11:04:47Z</time>
      </trkpt>
      <trkpt lat="45.08625" lon="5.5959">
        <ele>1427.4</ele>
        <time>2020-08-23T11:04:48Z</time>
      </trkpt>
      <trkpt lat="45.08627" lon="5.59589">
        <ele>1427.6</ele>
        <time>2020-08-23T11:04:49Z</time>
      </trkpt>
      <trkpt lat="45.08627" lon="5.59588">
        <ele>1427.8</ele>
        <time>2020-08-23T11:04:50Z</time>
      </trkpt>
      <trkpt lat="45.08628" lon="5.59587">
        <ele>1428</ele>
        <time>2020-08-23T11:04:51Z</time>
      </trkpt>
      <trkpt lat="45.08629" lon="5.59586">
        <ele>1428</ele>
        <time>2020-08-23T11:04:52Z</time>
      </trkpt>
      <trkpt lat="45.0863" lon="5.59585">
        <ele>1428.2</ele>
        <time>2020-08-23T11:04:53Z</time>
      </trkpt>
      <trkpt lat="45.08631" lon="5.59585">
        <ele>1428.4</ele>
        <time>2020-08-23T11:04:54Z</time>
      </trkpt>
      <trkpt lat="45.08632" lon="5.59584">
        <ele>1428.6</ele>
        <time>2020-08-23T11:04:55Z</time>
      </trkpt>
      <trkpt lat="45.08633" lon="5.59583">
        <ele>1428.6</ele>
        <time>2020-08-23T11:04:56Z</time>
      </trkpt>
      <trkpt lat="45.08634" lon="5.59583">
        <ele>1428.8</ele>
        <time>2020-08-23T11:04:57Z</time>
      </trkpt>
      <trkpt lat="45.08635" lon="5.59582">
        <ele>1429</ele>
        <time>2020-08-23T11:04:58Z</time>
      </trkpt>
      <trkpt lat="45.08636" lon="5.59581">
        <ele>1429</ele>
        <time>2020-08-23T11:04:59Z</time>
      </trkpt>
      <trkpt lat="45.08637" lon="5.59579">
        <ele>1429.2</ele>
        <time>2020-08-23T11:05:00Z</time>
      </trkpt>
      <trkpt lat="45.08637" lon="5.59578">
        <ele>1429.4</ele>
        <time>2020-08-23T11:05:01Z</time>
      </trkpt>
      <trkpt lat="45.08638" lon="5.59577">
        <ele>1429.4</ele>
        <time>2020-08-23T11:05:02Z</time>
      </trkpt>
      <trkpt lat="45.08639" lon="5.59576">
        <ele>1429.6</ele>
        <time>2020-08-23T11:05:03Z</time>
      </trkpt>
      <trkpt lat="45.0864" lon="5.59575">
        <ele>1429.6</ele>
        <time>2020-08-23T11:05:04Z</time>
      </trkpt>
      <trkpt lat="45.08641" lon="5.59574">
        <ele>1429.8</ele>
        <time>2020-08-23T11:05:05Z</time>
      </trkpt>
      <trkpt lat="45.08642" lon="5.59574">
        <ele>1430</ele>
        <time>2020-08-23T11:05:06Z</time>
      </trkpt>
      <trkpt lat="45.08643" lon="5.59574">
        <ele>1430</ele>
        <time>2020-08-23T11:05:07Z</time>
      </trkpt>
      <trkpt lat="45.08643" lon="5.59573">
        <ele>1430.2</ele>
        <time>2020-08-23T11:05:08Z</time>
      </trkpt>
      <trkpt lat="45.08644" lon="5.59573">
        <ele>1430.2</ele>
        <time>2020-08-23T11:05:09Z</time>
      </trkpt>
      <trkpt lat="45.08645" lon="5.59572">
        <ele>1430.4</ele>
        <time>2020-08-23T11:05:10Z</time>
      </trkpt>
      <trkpt lat="45.08646" lon="5.59572">
        <ele>1430.4</ele>
        <time>2020-08-23T11:05:11Z</time>
      </trkpt>
      <trkpt lat="45.08646" lon="5.59571">
        <ele>1430.6</ele>
        <time>2020-08-23T11:05:12Z</time>
      </trkpt>
      <trkpt lat="45.08647" lon="5.59571">
        <ele>1430.8</ele>
        <time>2020-08-23T11:05:13Z</time>
      </trkpt>
      <trkpt lat="45.08649" lon="5.59571">
        <ele>1430.8</ele>
        <time>2020-08-23T11:05:14Z</time>
      </trkpt>
      <trkpt lat="45.0865" lon="5.5957">
        <ele>1431</ele>
        <time>2020-08-23T11:05:15Z</time>
      </trkpt>
      <trkpt lat="45.08651" lon="5.5957">
        <ele>1431</ele>
        <time>2020-08-23T11:05:16Z</time>
      </trkpt>
      <trkpt lat="45.08652" lon="5.5957">
        <ele>1431.2</ele>
        <time>2020-08-23T11:05:17Z</time>
      </trkpt>
      <trkpt lat="45.08654" lon="5.5957">
        <ele>1431.4</ele>
        <time>2020-08-23T11:05:18Z</time>
      </trkpt>
      <trkpt lat="45.08656" lon="5.59569">
        <ele>1431.4</ele>
        <time>2020-08-23T11:05:19Z</time>
      </trkpt>
      <trkpt lat="45.08657" lon="5.59569">
        <ele>1431.6</ele>
        <time>2020-08-23T11:05:20Z</time>
      </trkpt>
      <trkpt lat="45.08659" lon="5.59569">
        <ele>1431.8</ele>
        <time>2020-08-23T11:05:21Z</time>
      </trkpt>
      <trkpt lat="45.0866" lon="5.59569">
        <ele>1431.8</ele>
        <time>2020-08-23T11:05:22Z</time>
      </trkpt>
      <trkpt lat="45.08661" lon="5.59568">
        <ele>1432</ele>
        <time>2020-08-23T11:05:23Z</time>
      </trkpt>
      <trkpt lat="45.08663" lon="5.59567">
        <ele>1432.2</ele>
        <time>2020-08-23T11:05:24Z</time>
      </trkpt>
      <trkpt lat="45.08664" lon="5.59566">
        <ele>1432.2</ele>
        <time>2020-08-23T11:05:25Z</time>
      </trkpt>
      <trkpt lat="45.08666" lon="5.59565">
        <ele>1432.2</ele>
        <time>2020-08-23T11:05:26Z</time>
      </trkpt>
      <trkpt lat="45.08668" lon="5.59563">
        <ele>1432.4</ele>
        <time>2020-08-23T11:05:27Z</time>
      </trkpt>
      <trkpt lat="45.0867" lon="5.59561">
        <ele>1432.4</ele>
        <time>2020-08-23T11:05:28Z</time>
      </trkpt>
      <trkpt lat="45.08673" lon="5.5956">
        <ele>1432.6</ele>
        <time>2020-08-23T11:05:29Z</time>
      </trkpt>
      <trkpt lat="45.08675" lon="5.5956">
        <ele>1432.6</ele>
        <time>2020-08-23T11:05:30Z</time>
      </trkpt>
      <trkpt lat="45.08677" lon="5.59559">
        <ele>1432.8</ele>
        <time>2020-08-23T11:05:31Z</time>
      </trkpt>
      <trkpt lat="45.08679" lon="5.59557">
        <ele>1433</ele>
        <time>2020-08-23T11:05:32Z</time>
      </trkpt>
      <trkpt lat="45.08681" lon="5.59557">
        <ele>1433.2</ele>
        <time>2020-08-23T11:05:33Z</time>
      </trkpt>
      <trkpt lat="45.08682" lon="5.59555">
        <ele>1433.4</ele>
        <time>2020-08-23T11:05:34Z</time>
      </trkpt>
      <trkpt lat="45.08683" lon="5.59554">
        <ele>1433.6</ele>
        <time>2020-08-23T11:05:35Z</time>
      </trkpt>
      <trkpt lat="45.08685" lon="5.59552">
        <ele>1433.8</ele>
        <time>2020-08-23T11:05:36Z</time>
      </trkpt>
      <trkpt lat="45.08687" lon="5.59551">
        <ele>1434</ele>
        <time>2020-08-23T11:05:37Z</time>
      </trkpt>
      <trkpt lat="45.08689" lon="5.5955">
        <ele>1434</ele>
        <time>2020-08-23T11:05:38Z</time>
      </trkpt>
      <trkpt lat="45.08691" lon="5.59549">
        <ele>1434.2</ele>
        <time>2020-08-23T11:05:39Z</time>
      </trkpt>
      <trkpt lat="45.08694" lon="5.59548">
        <ele>1434.2</ele>
        <time>2020-08-23T11:05:40Z</time>
      </trkpt>
      <trkpt lat="45.08696" lon="5.59547">
        <ele>1434.4</ele>
        <time>2020-08-23T11:05:41Z</time>
      </trkpt>
      <trkpt lat="45.08699" lon="5.59546">
        <ele>1434.4</ele>
        <time>2020-08-23T11:05:42Z</time>
      </trkpt>
      <trkpt lat="45.08701" lon="5.59545">
        <ele>1434.6</ele>
        <time>2020-08-23T11:05:43Z</time>
      </trkpt>
      <trkpt lat="45.08703" lon="5.59543">
        <ele>1434.8</ele>
        <time>2020-08-23T11:05:44Z</time>
      </trkpt>
      <trkpt lat="45.08704" lon="5.59543">
        <ele>1435</ele>
        <time>2020-08-23T11:05:45Z</time>
      </trkpt>
      <trkpt lat="45.08706" lon="5.59542">
        <ele>1435.2</ele>
        <time>2020-08-23T11:05:46Z</time>
      </trkpt>
      <trkpt lat="45.08709" lon="5.59541">
        <ele>1435.2</ele>
        <time>2020-08-23T11:05:47Z</time>
      </trkpt>
      <trkpt lat="45.08711" lon="5.5954">
        <ele>1435.4</ele>
        <time>2020-08-23T11:05:48Z</time>
      </trkpt>
      <trkpt lat="45.08713" lon="5.59538">
        <ele>1435.6</ele>
        <time>2020-08-23T11:05:49Z</time>
      </trkpt>
      <trkpt lat="45.08715" lon="5.59537">
        <ele>1435.8</ele>
        <time>2020-08-23T11:05:50Z</time>
      </trkpt>
      <trkpt lat="45.08716" lon="5.59537">
        <ele>1436</ele>
        <time>2020-08-23T11:05:51Z</time>
      </trkpt>
      <trkpt lat="45.08718" lon="5.59536">
        <ele>1436.2</ele>
        <time>2020-08-23T11:05:52Z</time>
      </trkpt>
      <trkpt lat="45.0872" lon="5.59536">
        <ele>1436.4</ele>
        <time>2020-08-23T11:05:53Z</time>
      </trkpt>
      <trkpt lat="45.08722" lon="5.59536">
        <ele>1436.4</ele>
        <time>2020-08-23T11:05:54Z</time>
      </trkpt>
      <trkpt lat="45.08723" lon="5.59535">
        <ele>1436.6</ele>
        <time>2020-08-23T11:05:55Z</time>
      </trkpt>
      <trkpt lat="45.08725" lon="5.59535">
        <ele>1436.8</ele>
        <time>2020-08-23T11:05:56Z</time>
      </trkpt>
      <trkpt lat="45.08727" lon="5.59534">
        <ele>1437</ele>
        <time>2020-08-23T11:05:57Z</time>
      </trkpt>
      <trkpt lat="45.08729" lon="5.59534">
        <ele>1437.2</ele>
        <time>2020-08-23T11:05:58Z</time>
      </trkpt>
      <trkpt lat="45.08731" lon="5.59533">
        <ele>1437.2</ele>
        <time>2020-08-23T11:05:59Z</time>
      </trkpt>
      <trkpt lat="45.08732" lon="5.59532">
        <ele>1437.4</ele>
        <time>2020-08-23T11:06:00Z</time>
      </trkpt>
      <trkpt lat="45.08734" lon="5.59532">
        <ele>1437.6</ele>
        <time>2020-08-23T11:06:01Z</time>
      </trkpt>
      <trkpt lat="45.08735" lon="5.59532">
        <ele>1437.8</ele>
        <time>2020-08-23T11:06:02Z</time>
      </trkpt>
      <trkpt lat="45.08737" lon="5.59532">
        <ele>1438</ele>
        <time>2020-08-23T11:06:03Z</time>
      </trkpt>
      <trkpt lat="45.08738" lon="5.59532">
        <ele>1438.2</ele>
        <time>2020-08-23T11:06:04Z</time>
      </trkpt>
      <trkpt lat="45.0874" lon="5.59532">
        <ele>1438.4</ele>
        <time>2020-08-23T11:06:05Z</time>
      </trkpt>
      <trkpt lat="45.08741" lon="5.59532">
        <ele>1438.6</ele>
        <time>2020-08-23T11:06:06Z</time>
      </trkpt>
      <trkpt lat="45.08743" lon="5.59532">
        <ele>1438.6</ele>
        <time>2020-08-23T11:06:07Z</time>
      </trkpt>
      <trkpt lat="45.08743" lon="5.59532">
        <ele>1438.8</ele>
        <time>2020-08-23T11:06:08Z</time>
      </trkpt>
      <trkpt lat="45.08744" lon="5.59532">
        <ele>1439</ele>
        <time>2020-08-23T11:06:09Z</time>
      </trkpt>
      <trkpt lat="45.08746" lon="5.59532">
        <ele>1439.2</ele>
        <time>2020-08-23T11:06:10Z</time>
      </trkpt>
      <trkpt lat="45.08746" lon="5.59532">
        <ele>1439.2</ele>
        <time>2020-08-23T11:06:11Z</time>
      </trkpt>
      <trkpt lat="45.08746" lon="5.59532">
        <ele>1439.4</ele>
        <time>2020-08-23T11:06:12Z</time>
      </trkpt>
      <trkpt lat="45.08747" lon="5.59533">
        <ele>1439.6</ele>
        <time>2020-08-23T11:06:13Z</time>
      </trkpt>
      <trkpt lat="45.08747" lon="5.59533">
        <ele>1439.8</ele>
        <time>2020-08-23T11:06:14Z</time>
      </trkpt>
      <trkpt lat="45.08749" lon="5.59532">
        <ele>1439.8</ele>
        <time>2020-08-23T11:06:15Z</time>
      </trkpt>
      <trkpt lat="45.0875" lon="5.59532">
        <ele>1440</ele>
        <time>2020-08-23T11:06:16Z</time>
      </trkpt>
      <trkpt lat="45.0875" lon="5.59532">
        <ele>1440.2</ele>
        <time>2020-08-23T11:06:17Z</time>
      </trkpt>
      <trkpt lat="45.08751" lon="5.59532">
        <ele>1440.2</ele>
        <time>2020-08-23T11:06:18Z</time>
      </trkpt>
      <trkpt lat="45.08751" lon="5.59532">
        <ele>1440.2</ele>
        <time>2020-08-23T11:06:19Z</time>
      </trkpt>
      <trkpt lat="45.08753" lon="5.59533">
        <ele>1440.6</ele>
        <time>2020-08-23T11:06:22Z</time>
      </trkpt>
      <trkpt lat="45.08754" lon="5.59533">
        <ele>1440.8</ele>
        <time>2020-08-23T11:06:23Z</time>
      </trkpt>
      <trkpt lat="45.08754" lon="5.59534">
        <ele>1440.8</ele>
        <time>2020-08-23T11:06:24Z</time>
      </trkpt>
      <trkpt lat="45.08754" lon="5.59534">
        <ele>1440.8</ele>
        <time>2020-08-23T11:06:25Z</time>
      </trkpt>
      <trkpt lat="45.08754" lon="5.59534">
        <ele>1441</ele>
        <time>2020-08-23T11:06:26Z</time>
      </trkpt>
      <trkpt lat="45.08754" lon="5.59534">
        <ele>1441</ele>
        <time>2020-08-23T11:06:27Z</time>
      </trkpt>
      <trkpt lat="45.08756" lon="5.59535">
        <ele>1441.4</ele>
        <time>2020-08-23T11:07:15Z</time>
      </trkpt>
      <trkpt lat="45.08758" lon="5.59535">
        <ele>1441.4</ele>
        <time>2020-08-23T11:07:16Z</time>
      </trkpt>
      <trkpt lat="45.08759" lon="5.59536">
        <ele>1441.4</ele>
        <time>2020-08-23T11:07:17Z</time>
      </trkpt>
      <trkpt lat="45.08759" lon="5.59537">
        <ele>1441.4</ele>
        <time>2020-08-23T11:07:18Z</time>
      </trkpt>
      <trkpt lat="45.08761" lon="5.59538">
        <ele>1441.4</ele>
        <time>2020-08-23T11:07:19Z</time>
      </trkpt>
      <trkpt lat="45.08761" lon="5.59538">
        <ele>1441.4</ele>
        <time>2020-08-23T11:07:20Z</time>
      </trkpt>
      <trkpt lat="45.08762" lon="5.59538">
        <ele>1441.4</ele>
        <time>2020-08-23T11:07:21Z</time>
      </trkpt>
      <trkpt lat="45.08763" lon="5.59538">
        <ele>1441.4</ele>
        <time>2020-08-23T11:07:22Z</time>
      </trkpt>
      <trkpt lat="45.08764" lon="5.59538">
        <ele>1441.4</ele>
        <time>2020-08-23T11:07:23Z</time>
      </trkpt>
      <trkpt lat="45.08765" lon="5.59538">
        <ele>1441.6</ele>
        <time>2020-08-23T11:07:24Z</time>
      </trkpt>
      <trkpt lat="45.08767" lon="5.59537">
        <ele>1441.6</ele>
        <time>2020-08-23T11:07:25Z</time>
      </trkpt>
      <trkpt lat="45.08768" lon="5.59537">
        <ele>1441.6</ele>
        <time>2020-08-23T11:07:26Z</time>
      </trkpt>
      <trkpt lat="45.08769" lon="5.59537">
        <ele>1441.8</ele>
        <time>2020-08-23T11:07:27Z</time>
      </trkpt>
      <trkpt lat="45.0877" lon="5.59537">
        <ele>1441.8</ele>
        <time>2020-08-23T11:07:28Z</time>
      </trkpt>
      <trkpt lat="45.08772" lon="5.59536">
        <ele>1441.8</ele>
        <time>2020-08-23T11:07:29Z</time>
      </trkpt>
      <trkpt lat="45.08773" lon="5.59536">
        <ele>1442</ele>
        <time>2020-08-23T11:07:30Z</time>
      </trkpt>
      <trkpt lat="45.08774" lon="5.59536">
        <ele>1442</ele>
        <time>2020-08-23T11:07:31Z</time>
      </trkpt>
      <trkpt lat="45.08775" lon="5.59536">
        <ele>1442.2</ele>
        <time>2020-08-23T11:07:32Z</time>
      </trkpt>
      <trkpt lat="45.08777" lon="5.59536">
        <ele>1442.2</ele>
        <time>2020-08-23T11:07:33Z</time>
      </trkpt>
      <trkpt lat="45.08778" lon="5.59536">
        <ele>1442.2</ele>
        <time>2020-08-23T11:07:34Z</time>
      </trkpt>
      <trkpt lat="45.08779" lon="5.59536">
        <ele>1442.4</ele>
        <time>2020-08-23T11:07:35Z</time>
      </trkpt>
      <trkpt lat="45.0878" lon="5.59536">
        <ele>1442.4</ele>
        <time>2020-08-23T11:07:36Z</time>
      </trkpt>
      <trkpt lat="45.08781" lon="5.59536">
        <ele>1442.6</ele>
        <time>2020-08-23T11:07:37Z</time>
      </trkpt>
      <trkpt lat="45.08783" lon="5.59536">
        <ele>1442.6</ele>
        <time>2020-08-23T11:07:38Z</time>
      </trkpt>
      <trkpt lat="45.08785" lon="5.59535">
        <ele>1442.6</ele>
        <time>2020-08-23T11:07:39Z</time>
      </trkpt>
      <trkpt lat="45.08786" lon="5.59535">
        <ele>1442.8</ele>
        <time>2020-08-23T11:07:40Z</time>
      </trkpt>
      <trkpt lat="45.08787" lon="5.59534">
        <ele>1442.8</ele>
        <time>2020-08-23T11:07:41Z</time>
      </trkpt>
      <trkpt lat="45.08789" lon="5.59534">
        <ele>1443</ele>
        <time>2020-08-23T11:07:42Z</time>
      </trkpt>
      <trkpt lat="45.0879" lon="5.59534">
        <ele>1443</ele>
        <time>2020-08-23T11:07:43Z</time>
      </trkpt>
      <trkpt lat="45.08792" lon="5.59534">
        <ele>1443.2</ele>
        <time>2020-08-23T11:07:44Z</time>
      </trkpt>
      <trkpt lat="45.08794" lon="5.59533">
        <ele>1443.2</ele>
        <time>2020-08-23T11:07:45Z</time>
      </trkpt>
      <trkpt lat="45.08795" lon="5.59532">
        <ele>1443.2</ele>
        <time>2020-08-23T11:07:46Z</time>
      </trkpt>
      <trkpt lat="45.08797" lon="5.59531">
        <ele>1443.4</ele>
        <time>2020-08-23T11:07:47Z</time>
      </trkpt>
      <trkpt lat="45.08799" lon="5.5953">
        <ele>1443.4</ele>
        <time>2020-08-23T11:07:48Z</time>
      </trkpt>
      <trkpt lat="45.08802" lon="5.59528">
        <ele>1443.4</ele>
        <time>2020-08-23T11:07:49Z</time>
      </trkpt>
      <trkpt lat="45.08804" lon="5.59526">
        <ele>1443.4</ele>
        <time>2020-08-23T11:07:50Z</time>
      </trkpt>
      <trkpt lat="45.08807" lon="5.59525">
        <ele>1443.4</ele>
        <time>2020-08-23T11:07:51Z</time>
      </trkpt>
      <trkpt lat="45.0881" lon="5.59524">
        <ele>1443.4</ele>
        <time>2020-08-23T11:07:52Z</time>
      </trkpt>
      <trkpt lat="45.08812" lon="5.59524">
        <ele>1443.6</ele>
        <time>2020-08-23T11:07:53Z</time>
      </trkpt>
      <trkpt lat="45.08814" lon="5.59524">
        <ele>1443.6</ele>
        <time>2020-08-23T11:07:54Z</time>
      </trkpt>
      <trkpt lat="45.08816" lon="5.59523">
        <ele>1443.8</ele>
        <time>2020-08-23T11:07:55Z</time>
      </trkpt>
      <trkpt lat="45.08818" lon="5.59523">
        <ele>1443.8</ele>
        <time>2020-08-23T11:07:56Z</time>
      </trkpt>
      <trkpt lat="45.08819" lon="5.59523">
        <ele>1443.8</ele>
        <time>2020-08-23T11:07:57Z</time>
      </trkpt>
      <trkpt lat="45.08821" lon="5.59522">
        <ele>1444</ele>
        <time>2020-08-23T11:07:58Z</time>
      </trkpt>
      <trkpt lat="45.08823" lon="5.59522">
        <ele>1444</ele>
        <time>2020-08-23T11:07:59Z</time>
      </trkpt>
      <trkpt lat="45.08825" lon="5.59521">
        <ele>1444</ele>
        <time>2020-08-23T11:08:00Z</time>
      </trkpt>
      <trkpt lat="45.08828" lon="5.59521">
        <ele>1444.2</ele>
        <time>2020-08-23T11:08:01Z</time>
      </trkpt>
      <trkpt lat="45.08829" lon="5.5952">
        <ele>1444.2</ele>
        <time>2020-08-23T11:08:02Z</time>
      </trkpt>
      <trkpt lat="45.08831" lon="5.5952">
        <ele>1444.4</ele>
        <time>2020-08-23T11:08:03Z</time>
      </trkpt>
      <trkpt lat="45.08833" lon="5.5952">
        <ele>1444.4</ele>
        <time>2020-08-23T11:08:04Z</time>
      </trkpt>
      <trkpt lat="45.08836" lon="5.5952">
        <ele>1444.6</ele>
        <time>2020-08-23T11:08:05Z</time>
      </trkpt>
      <trkpt lat="45.08838" lon="5.59519">
        <ele>1444.6</ele>
        <time>2020-08-23T11:08:06Z</time>
      </trkpt>
      <trkpt lat="45.0884" lon="5.59519">
        <ele>1444.8</ele>
        <time>2020-08-23T11:08:07Z</time>
      </trkpt>
      <trkpt lat="45.08842" lon="5.59519">
        <ele>1444.8</ele>
        <time>2020-08-23T11:08:08Z</time>
      </trkpt>
      <trkpt lat="45.08844" lon="5.59519">
        <ele>1445</ele>
        <time>2020-08-23T11:08:09Z</time>
      </trkpt>
      <trkpt lat="45.08846" lon="5.5952">
        <ele>1445</ele>
        <time>2020-08-23T11:08:10Z</time>
      </trkpt>
      <trkpt lat="45.08847" lon="5.59521">
        <ele>1445</ele>
        <time>2020-08-23T11:08:11Z</time>
      </trkpt>
      <trkpt lat="45.08849" lon="5.59522">
        <ele>1445.2</ele>
        <time>2020-08-23T11:08:12Z</time>
      </trkpt>
      <trkpt lat="45.08851" lon="5.59523">
        <ele>1445.2</ele>
        <time>2020-08-23T11:08:13Z</time>
      </trkpt>
      <trkpt lat="45.08853" lon="5.59524">
        <ele>1445.2</ele>
        <time>2020-08-23T11:08:14Z</time>
      </trkpt>
      <trkpt lat="45.08854" lon="5.59525">
        <ele>1445.4</ele>
        <time>2020-08-23T11:08:15Z</time>
      </trkpt>
      <trkpt lat="45.08856" lon="5.59526">
        <ele>1445.4</ele>
        <time>2020-08-23T11:08:16Z</time>
      </trkpt>
      <trkpt lat="45.08857" lon="5.59527">
        <ele>1445.6</ele>
        <time>2020-08-23T11:08:17Z</time>
      </trkpt>
      <trkpt lat="45.08858" lon="5.59529">
        <ele>1445.8</ele>
        <time>2020-08-23T11:08:18Z</time>
      </trkpt>
      <trkpt lat="45.0886" lon="5.5953">
        <ele>1445.8</ele>
        <time>2020-08-23T11:08:19Z</time>
      </trkpt>
      <trkpt lat="45.08861" lon="5.59532">
        <ele>1446</ele>
        <time>2020-08-23T11:08:20Z</time>
      </trkpt>
      <trkpt lat="45.08862" lon="5.59534">
        <ele>1446</ele>
        <time>2020-08-23T11:08:21Z</time>
      </trkpt>
      <trkpt lat="45.08864" lon="5.59535">
        <ele>1446.2</ele>
        <time>2020-08-23T11:08:22Z</time>
      </trkpt>
      <trkpt lat="45.08865" lon="5.59537">
        <ele>1446.2</ele>
        <time>2020-08-23T11:08:23Z</time>
      </trkpt>
      <trkpt lat="45.08866" lon="5.59539">
        <ele>1446.4</ele>
        <time>2020-08-23T11:08:24Z</time>
      </trkpt>
      <trkpt lat="45.08867" lon="5.59541">
        <ele>1446.4</ele>
        <time>2020-08-23T11:08:25Z</time>
      </trkpt>
      <trkpt lat="45.08868" lon="5.59542">
        <ele>1446.4</ele>
        <time>2020-08-23T11:08:26Z</time>
      </trkpt>
      <trkpt lat="45.08868" lon="5.59542">
        <ele>1446.6</ele>
        <time>2020-08-23T11:08:27Z</time>
      </trkpt>
      <trkpt lat="45.08869" lon="5.59542">
        <ele>1446.8</ele>
        <time>2020-08-23T11:08:28Z</time>
      </trkpt>
      <trkpt lat="45.0887" lon="5.59543">
        <ele>1446.8</ele>
        <time>2020-08-23T11:08:29Z</time>
      </trkpt>
      <trkpt lat="45.0887" lon="5.59544">
        <ele>1447</ele>
        <time>2020-08-23T11:08:30Z</time>
      </trkpt>
      <trkpt lat="45.08871" lon="5.59545">
        <ele>1447</ele>
        <time>2020-08-23T11:08:31Z</time>
      </trkpt>
      <trkpt lat="45.08872" lon="5.59546">
        <ele>1447.2</ele>
        <time>2020-08-23T11:08:32Z</time>
      </trkpt>
      <trkpt lat="45.08873" lon="5.59547">
        <ele>1447.2</ele>
        <time>2020-08-23T11:08:33Z</time>
      </trkpt>
      <trkpt lat="45.08875" lon="5.59548">
        <ele>1447.2</ele>
        <time>2020-08-23T11:08:34Z</time>
      </trkpt>
      <trkpt lat="45.08876" lon="5.59548">
        <ele>1447.4</ele>
        <time>2020-08-23T11:08:35Z</time>
      </trkpt>
      <trkpt lat="45.08876" lon="5.59549">
        <ele>1447.4</ele>
        <time>2020-08-23T11:08:36Z</time>
      </trkpt>
      <trkpt lat="45.08877" lon="5.59549">
        <ele>1447.6</ele>
        <time>2020-08-23T11:08:37Z</time>
      </trkpt>
      <trkpt lat="45.08878" lon="5.5955">
        <ele>1447.8</ele>
        <time>2020-08-23T11:08:38Z</time>
      </trkpt>
      <trkpt lat="45.08879" lon="5.59552">
        <ele>1448</ele>
        <time>2020-08-23T11:08:39Z</time>
      </trkpt>
      <trkpt lat="45.0888" lon="5.59553">
        <ele>1448</ele>
        <time>2020-08-23T11:08:40Z</time>
      </trkpt>
      <trkpt lat="45.0888" lon="5.59554">
        <ele>1448.2</ele>
        <time>2020-08-23T11:08:41Z</time>
      </trkpt>
      <trkpt lat="45.08882" lon="5.59556">
        <ele>1448.2</ele>
        <time>2020-08-23T11:08:42Z</time>
      </trkpt>
      <trkpt lat="45.08883" lon="5.59556">
        <ele>1448.4</ele>
        <time>2020-08-23T11:08:43Z</time>
      </trkpt>
      <trkpt lat="45.08884" lon="5.59557">
        <ele>1448.4</ele>
        <time>2020-08-23T11:08:44Z</time>
      </trkpt>
      <trkpt lat="45.08885" lon="5.59558">
        <ele>1448.6</ele>
        <time>2020-08-23T11:08:45Z</time>
      </trkpt>
      <trkpt lat="45.08885" lon="5.59559">
        <ele>1448.6</ele>
        <time>2020-08-23T11:08:46Z</time>
      </trkpt>
      <trkpt lat="45.08886" lon="5.59559">
        <ele>1448.8</ele>
        <time>2020-08-23T11:08:47Z</time>
      </trkpt>
      <trkpt lat="45.08887" lon="5.5956">
        <ele>1448.8</ele>
        <time>2020-08-23T11:08:48Z</time>
      </trkpt>
      <trkpt lat="45.08888" lon="5.59561">
        <ele>1449</ele>
        <time>2020-08-23T11:08:49Z</time>
      </trkpt>
      <trkpt lat="45.08889" lon="5.59561">
        <ele>1449</ele>
        <time>2020-08-23T11:08:50Z</time>
      </trkpt>
      <trkpt lat="45.0889" lon="5.59561">
        <ele>1449.2</ele>
        <time>2020-08-23T11:08:51Z</time>
      </trkpt>
      <trkpt lat="45.08892" lon="5.59561">
        <ele>1449.4</ele>
        <time>2020-08-23T11:08:52Z</time>
      </trkpt>
      <trkpt lat="45.08893" lon="5.59561">
        <ele>1449.4</ele>
        <time>2020-08-23T11:08:53Z</time>
      </trkpt>
      <trkpt lat="45.08894" lon="5.59561">
        <ele>1449.6</ele>
        <time>2020-08-23T11:08:54Z</time>
      </trkpt>
      <trkpt lat="45.08895" lon="5.59561">
        <ele>1449.6</ele>
        <time>2020-08-23T11:08:55Z</time>
      </trkpt>
      <trkpt lat="45.08896" lon="5.59562">
        <ele>1449.8</ele>
        <time>2020-08-23T11:08:56Z</time>
      </trkpt>
      <trkpt lat="45.08896" lon="5.59562">
        <ele>1450</ele>
        <time>2020-08-23T11:08:57Z</time>
      </trkpt>
      <trkpt lat="45.08897" lon="5.59562">
        <ele>1450</ele>
        <time>2020-08-23T11:08:58Z</time>
      </trkpt>
      <trkpt lat="45.08897" lon="5.59562">
        <ele>1450.2</ele>
        <time>2020-08-23T11:08:59Z</time>
      </trkpt>
      <trkpt lat="45.08898" lon="5.59563">
        <ele>1450.2</ele>
        <time>2020-08-23T11:09:00Z</time>
      </trkpt>
      <trkpt lat="45.08899" lon="5.59564">
        <ele>1450.4</ele>
        <time>2020-08-23T11:09:01Z</time>
      </trkpt>
      <trkpt lat="45.089" lon="5.59564">
        <ele>1450.6</ele>
        <time>2020-08-23T11:09:02Z</time>
      </trkpt>
      <trkpt lat="45.089" lon="5.59565">
        <ele>1450.6</ele>
        <time>2020-08-23T11:09:03Z</time>
      </trkpt>
      <trkpt lat="45.08901" lon="5.59566">
        <ele>1450.8</ele>
        <time>2020-08-23T11:09:04Z</time>
      </trkpt>
      <trkpt lat="45.08901" lon="5.59567">
        <ele>1451</ele>
        <time>2020-08-23T11:09:05Z</time>
      </trkpt>
      <trkpt lat="45.08901" lon="5.59568">
        <ele>1451</ele>
        <time>2020-08-23T11:09:06Z</time>
      </trkpt>
      <trkpt lat="45.08901" lon="5.59568">
        <ele>1451.2</ele>
        <time>2020-08-23T11:09:07Z</time>
      </trkpt>
      <trkpt lat="45.08901" lon="5.59569">
        <ele>1451.2</ele>
        <time>2020-08-23T11:09:08Z</time>
      </trkpt>
      <trkpt lat="45.08901" lon="5.59569">
        <ele>1451.4</ele>
        <time>2020-08-23T11:09:09Z</time>
      </trkpt>
      <trkpt lat="45.08901" lon="5.5957">
        <ele>1451.6</ele>
        <time>2020-08-23T11:09:10Z</time>
      </trkpt>
      <trkpt lat="45.08902" lon="5.5957">
        <ele>1451.8</ele>
        <time>2020-08-23T11:09:11Z</time>
      </trkpt>
      <trkpt lat="45.08902" lon="5.5957">
        <ele>1452</ele>
        <time>2020-08-23T11:09:12Z</time>
      </trkpt>
      <trkpt lat="45.08902" lon="5.5957">
        <ele>1452</ele>
        <time>2020-08-23T11:09:13Z</time>
      </trkpt>
      <trkpt lat="45.08902" lon="5.5957">
        <ele>1452.2</ele>
        <time>2020-08-23T11:09:14Z</time>
      </trkpt>
      <trkpt lat="45.08902" lon="5.5957">
        <ele>1452.2</ele>
        <time>2020-08-23T11:09:15Z</time>
      </trkpt>
      <trkpt lat="45.08904" lon="5.59574">
        <ele>1452.8</ele>
        <time>2020-08-23T11:09:21Z</time>
      </trkpt>
      <trkpt lat="45.08905" lon="5.59576">
        <ele>1452.8</ele>
        <time>2020-08-23T11:09:22Z</time>
      </trkpt>
      <trkpt lat="45.08905" lon="5.59576">
        <ele>1452.8</ele>
        <time>2020-08-23T11:09:23Z</time>
      </trkpt>
      <trkpt lat="45.08905" lon="5.59576">
        <ele>1452.8</ele>
        <time>2020-08-23T11:09:24Z</time>
      </trkpt>
      <trkpt lat="45.08905" lon="5.59577">
        <ele>1452.8</ele>
        <time>2020-08-23T11:09:25Z</time>
      </trkpt>
      <trkpt lat="45.08906" lon="5.59578">
        <ele>1452.8</ele>
        <time>2020-08-23T11:09:26Z</time>
      </trkpt>
      <trkpt lat="45.08906" lon="5.59578">
        <ele>1453</ele>
        <time>2020-08-23T11:09:27Z</time>
      </trkpt>
      <trkpt lat="45.08906" lon="5.59579">
        <ele>1453</ele>
        <time>2020-08-23T11:09:28Z</time>
      </trkpt>
      <trkpt lat="45.08907" lon="5.5958">
        <ele>1453</ele>
        <time>2020-08-23T11:09:29Z</time>
      </trkpt>
      <trkpt lat="45.08907" lon="5.59581">
        <ele>1453.2</ele>
        <time>2020-08-23T11:09:30Z</time>
      </trkpt>
      <trkpt lat="45.08907" lon="5.59581">
        <ele>1453.2</ele>
        <time>2020-08-23T11:09:31Z</time>
      </trkpt>
      <trkpt lat="45.08907" lon="5.59582">
        <ele>1453.4</ele>
        <time>2020-08-23T11:09:32Z</time>
      </trkpt>
      <trkpt lat="45.0891" lon="5.59587">
        <ele>1454</ele>
        <time>2020-08-23T11:09:45Z</time>
      </trkpt>
      <trkpt lat="45.08911" lon="5.5959">
        <ele>1454</ele>
        <time>2020-08-23T11:09:46Z</time>
      </trkpt>
      <trkpt lat="45.08912" lon="5.5959">
        <ele>1454</ele>
        <time>2020-08-23T11:09:47Z</time>
      </trkpt>
      <trkpt lat="45.08913" lon="5.59592">
        <ele>1454</ele>
        <time>2020-08-23T11:09:48Z</time>
      </trkpt>
      <trkpt lat="45.08916" lon="5.59594">
        <ele>1454</ele>
        <time>2020-08-23T11:09:49Z</time>
      </trkpt>
      <trkpt lat="45.08918" lon="5.59596">
        <ele>1454</ele>
        <time>2020-08-23T11:09:50Z</time>
      </trkpt>
      <trkpt lat="45.08921" lon="5.59599">
        <ele>1454</ele>
        <time>2020-08-23T11:09:51Z</time>
      </trkpt>
      <trkpt lat="45.08923" lon="5.59602">
        <ele>1454.2</ele>
        <time>2020-08-23T11:09:52Z</time>
      </trkpt>
      <trkpt lat="45.08923" lon="5.59603">
        <ele>1454.2</ele>
        <time>2020-08-23T11:09:53Z</time>
      </trkpt>
      <trkpt lat="45.08923" lon="5.59605">
        <ele>1454.2</ele>
        <time>2020-08-23T11:09:54Z</time>
      </trkpt>
      <trkpt lat="45.08923" lon="5.59607">
        <ele>1454.2</ele>
        <time>2020-08-23T11:09:55Z</time>
      </trkpt>
      <trkpt lat="45.08923" lon="5.59609">
        <ele>1454.2</ele>
        <time>2020-08-23T11:09:56Z</time>
      </trkpt>
      <trkpt lat="45.08924" lon="5.5961">
        <ele>1454.4</ele>
        <time>2020-08-23T11:09:57Z</time>
      </trkpt>
      <trkpt lat="45.08925" lon="5.59611">
        <ele>1454.4</ele>
        <time>2020-08-23T11:09:58Z</time>
      </trkpt>
      <trkpt lat="45.08926" lon="5.59612">
        <ele>1454.6</ele>
        <time>2020-08-23T11:09:59Z</time>
      </trkpt>
      <trkpt lat="45.08927" lon="5.59613">
        <ele>1454.6</ele>
        <time>2020-08-23T11:10:00Z</time>
      </trkpt>
      <trkpt lat="45.08927" lon="5.59614">
        <ele>1454.6</ele>
        <time>2020-08-23T11:10:01Z</time>
      </trkpt>
      <trkpt lat="45.08928" lon="5.59615">
        <ele>1454.8</ele>
        <time>2020-08-23T11:10:02Z</time>
      </trkpt>
      <trkpt lat="45.08929" lon="5.59616">
        <ele>1455</ele>
        <time>2020-08-23T11:10:03Z</time>
      </trkpt>
      <trkpt lat="45.08929" lon="5.59618">
        <ele>1455</ele>
        <time>2020-08-23T11:10:04Z</time>
      </trkpt>
      <trkpt lat="45.0893" lon="5.5962">
        <ele>1455.2</ele>
        <time>2020-08-23T11:10:05Z</time>
      </trkpt>
      <trkpt lat="45.08931" lon="5.59621">
        <ele>1455.2</ele>
        <time>2020-08-23T11:10:06Z</time>
      </trkpt>
      <trkpt lat="45.08931" lon="5.59623">
        <ele>1455.4</ele>
        <time>2020-08-23T11:10:07Z</time>
      </trkpt>
      <trkpt lat="45.08931" lon="5.59625">
        <ele>1455.6</ele>
        <time>2020-08-23T11:10:08Z</time>
      </trkpt>
      <trkpt lat="45.08932" lon="5.59626">
        <ele>1455.8</ele>
        <time>2020-08-23T11:10:09Z</time>
      </trkpt>
      <trkpt lat="45.08932" lon="5.59628">
        <ele>1455.8</ele>
        <time>2020-08-23T11:10:10Z</time>
      </trkpt>
      <trkpt lat="45.08933" lon="5.5963">
        <ele>1456</ele>
        <time>2020-08-23T11:10:11Z</time>
      </trkpt>
      <trkpt lat="45.08933" lon="5.59633">
        <ele>1456</ele>
        <time>2020-08-23T11:10:12Z</time>
      </trkpt>
      <trkpt lat="45.08933" lon="5.59634">
        <ele>1456.2</ele>
        <time>2020-08-23T11:10:13Z</time>
      </trkpt>
      <trkpt lat="45.08933" lon="5.59637">
        <ele>1456.4</ele>
        <time>2020-08-23T11:10:14Z</time>
      </trkpt>
      <trkpt lat="45.08933" lon="5.59639">
        <ele>1456.6</ele>
        <time>2020-08-23T11:10:15Z</time>
      </trkpt>
      <trkpt lat="45.08933" lon="5.59641">
        <ele>1456.6</ele>
        <time>2020-08-23T11:10:16Z</time>
      </trkpt>
      <trkpt lat="45.08934" lon="5.59644">
        <ele>1456.8</ele>
        <time>2020-08-23T11:10:17Z</time>
      </trkpt>
      <trkpt lat="45.08934" lon="5.59646">
        <ele>1456.8</ele>
        <time>2020-08-23T11:10:18Z</time>
      </trkpt>
      <trkpt lat="45.08934" lon="5.59649">
        <ele>1457</ele>
        <time>2020-08-23T11:10:19Z</time>
      </trkpt>
      <trkpt lat="45.08933" lon="5.59653">
        <ele>1457</ele>
        <time>2020-08-23T11:10:20Z</time>
      </trkpt>
      <trkpt lat="45.08934" lon="5.59657">
        <ele>1457</ele>
        <time>2020-08-23T11:10:21Z</time>
      </trkpt>
      <trkpt lat="45.08934" lon="5.59662">
        <ele>1457</ele>
        <time>2020-08-23T11:10:22Z</time>
      </trkpt>
      <trkpt lat="45.08935" lon="5.59667">
        <ele>1457.2</ele>
        <time>2020-08-23T11:10:23Z</time>
      </trkpt>
      <trkpt lat="45.08936" lon="5.59672">
        <ele>1457.2</ele>
        <time>2020-08-23T11:10:24Z</time>
      </trkpt>
      <trkpt lat="45.08936" lon="5.59675">
        <ele>1457.2</ele>
        <time>2020-08-23T11:10:25Z</time>
      </trkpt>
      <trkpt lat="45.08937" lon="5.59679">
        <ele>1457.2</ele>
        <time>2020-08-23T11:10:26Z</time>
      </trkpt>
      <trkpt lat="45.08938" lon="5.59681">
        <ele>1457.4</ele>
        <time>2020-08-23T11:10:27Z</time>
      </trkpt>
      <trkpt lat="45.08938" lon="5.59684">
        <ele>1457.4</ele>
        <time>2020-08-23T11:10:28Z</time>
      </trkpt>
      <trkpt lat="45.08939" lon="5.59687">
        <ele>1457.4</ele>
        <time>2020-08-23T11:10:29Z</time>
      </trkpt>
      <trkpt lat="45.0894" lon="5.59689">
        <ele>1457.6</ele>
        <time>2020-08-23T11:10:30Z</time>
      </trkpt>
      <trkpt lat="45.08941" lon="5.59691">
        <ele>1457.6</ele>
        <time>2020-08-23T11:10:31Z</time>
      </trkpt>
      <trkpt lat="45.08941" lon="5.59693">
        <ele>1457.6</ele>
        <time>2020-08-23T11:10:32Z</time>
      </trkpt>
      <trkpt lat="45.08942" lon="5.59695">
        <ele>1457.6</ele>
        <time>2020-08-23T11:10:33Z</time>
      </trkpt>
      <trkpt lat="45.08942" lon="5.59696">
        <ele>1457.8</ele>
        <time>2020-08-23T11:10:34Z</time>
      </trkpt>
      <trkpt lat="45.08942" lon="5.59698">
        <ele>1457.8</ele>
        <time>2020-08-23T11:10:35Z</time>
      </trkpt>
      <trkpt lat="45.08942" lon="5.597">
        <ele>1457.8</ele>
        <time>2020-08-23T11:10:36Z</time>
      </trkpt>
      <trkpt lat="45.08943" lon="5.59701">
        <ele>1458</ele>
        <time>2020-08-23T11:10:37Z</time>
      </trkpt>
      <trkpt lat="45.08944" lon="5.59703">
        <ele>1458.2</ele>
        <time>2020-08-23T11:10:38Z</time>
      </trkpt>
      <trkpt lat="45.08945" lon="5.59705">
        <ele>1458.2</ele>
        <time>2020-08-23T11:10:39Z</time>
      </trkpt>
      <trkpt lat="45.08946" lon="5.59706">
        <ele>1458.4</ele>
        <time>2020-08-23T11:10:40Z</time>
      </trkpt>
      <trkpt lat="45.08946" lon="5.59708">
        <ele>1458.4</ele>
        <time>2020-08-23T11:10:41Z</time>
      </trkpt>
      <trkpt lat="45.08947" lon="5.59709">
        <ele>1458.6</ele>
        <time>2020-08-23T11:10:42Z</time>
      </trkpt>
      <trkpt lat="45.08948" lon="5.59711">
        <ele>1458.6</ele>
        <time>2020-08-23T11:10:43Z</time>
      </trkpt>
      <trkpt lat="45.0895" lon="5.59714">
        <ele>1458.8</ele>
        <time>2020-08-23T11:10:44Z</time>
      </trkpt>
      <trkpt lat="45.08952" lon="5.59718">
        <ele>1458.8</ele>
        <time>2020-08-23T11:10:45Z</time>
      </trkpt>
      <trkpt lat="45.08957" lon="5.59724">
        <ele>1458.8</ele>
        <time>2020-08-23T11:10:46Z</time>
      </trkpt>
      <trkpt lat="45.0896" lon="5.59729">
        <ele>1459</ele>
        <time>2020-08-23T11:10:47Z</time>
      </trkpt>
      <trkpt lat="45.08962" lon="5.59734">
        <ele>1459</ele>
        <time>2020-08-23T11:10:48Z</time>
      </trkpt>
      <trkpt lat="45.08963" lon="5.59738">
        <ele>1459</ele>
        <time>2020-08-23T11:10:49Z</time>
      </trkpt>
      <trkpt lat="45.08963" lon="5.59741">
        <ele>1459.2</ele>
        <time>2020-08-23T11:10:50Z</time>
      </trkpt>
      <trkpt lat="45.08963" lon="5.59743">
        <ele>1459.2</ele>
        <time>2020-08-23T11:10:51Z</time>
      </trkpt>
      <trkpt lat="45.08962" lon="5.59745">
        <ele>1459.4</ele>
        <time>2020-08-23T11:10:52Z</time>
      </trkpt>
      <trkpt lat="45.08962" lon="5.59747">
        <ele>1459.4</ele>
        <time>2020-08-23T11:10:53Z</time>
      </trkpt>
      <trkpt lat="45.08961" lon="5.59748">
        <ele>1459.6</ele>
        <time>2020-08-23T11:10:54Z</time>
      </trkpt>
      <trkpt lat="45.08961" lon="5.5975">
        <ele>1459.6</ele>
        <time>2020-08-23T11:10:55Z</time>
      </trkpt>
      <trkpt lat="45.0896" lon="5.59752">
        <ele>1459.8</ele>
        <time>2020-08-23T11:10:56Z</time>
      </trkpt>
      <trkpt lat="45.0896" lon="5.59753">
        <ele>1459.8</ele>
        <time>2020-08-23T11:10:57Z</time>
      </trkpt>
      <trkpt lat="45.0896" lon="5.59754">
        <ele>1460</ele>
        <time>2020-08-23T11:10:58Z</time>
      </trkpt>
      <trkpt lat="45.08959" lon="5.59755">
        <ele>1460</ele>
        <time>2020-08-23T11:10:59Z</time>
      </trkpt>
      <trkpt lat="45.08959" lon="5.59757">
        <ele>1460.2</ele>
        <time>2020-08-23T11:11:00Z</time>
      </trkpt>
      <trkpt lat="45.08958" lon="5.59758">
        <ele>1460.2</ele>
        <time>2020-08-23T11:11:01Z</time>
      </trkpt>
      <trkpt lat="45.08957" lon="5.5976">
        <ele>1460.4</ele>
        <time>2020-08-23T11:11:02Z</time>
      </trkpt>
      <trkpt lat="45.08957" lon="5.59762">
        <ele>1460.6</ele>
        <time>2020-08-23T11:11:03Z</time>
      </trkpt>
      <trkpt lat="45.08957" lon="5.59764">
        <ele>1460.6</ele>
        <time>2020-08-23T11:11:04Z</time>
      </trkpt>
      <trkpt lat="45.08957" lon="5.59765">
        <ele>1460.8</ele>
        <time>2020-08-23T11:11:05Z</time>
      </trkpt>
      <trkpt lat="45.08957" lon="5.59766">
        <ele>1461</ele>
        <time>2020-08-23T11:11:06Z</time>
      </trkpt>
      <trkpt lat="45.08957" lon="5.59768">
        <ele>1461.2</ele>
        <time>2020-08-23T11:11:07Z</time>
      </trkpt>
      <trkpt lat="45.08957" lon="5.59769">
        <ele>1461.4</ele>
        <time>2020-08-23T11:11:08Z</time>
      </trkpt>
      <trkpt lat="45.08956" lon="5.59771">
        <ele>1461.6</ele>
        <time>2020-08-23T11:11:09Z</time>
      </trkpt>
      <trkpt lat="45.08956" lon="5.59772">
        <ele>1461.6</ele>
        <time>2020-08-23T11:11:10Z</time>
      </trkpt>
      <trkpt lat="45.08956" lon="5.59773">
        <ele>1461.8</ele>
        <time>2020-08-23T11:11:11Z</time>
      </trkpt>
      <trkpt lat="45.08955" lon="5.59775">
        <ele>1462</ele>
        <time>2020-08-23T11:11:12Z</time>
      </trkpt>
      <trkpt lat="45.08955" lon="5.59777">
        <ele>1462.2</ele>
        <time>2020-08-23T11:11:13Z</time>
      </trkpt>
      <trkpt lat="45.08954" lon="5.59778">
        <ele>1462.4</ele>
        <time>2020-08-23T11:11:14Z</time>
      </trkpt>
      <trkpt lat="45.08954" lon="5.5978">
        <ele>1462.4</ele>
        <time>2020-08-23T11:11:15Z</time>
      </trkpt>
      <trkpt lat="45.08953" lon="5.59781">
        <ele>1462.6</ele>
        <time>2020-08-23T11:11:16Z</time>
      </trkpt>
      <trkpt lat="45.08953" lon="5.59782">
        <ele>1462.8</ele>
        <time>2020-08-23T11:11:17Z</time>
      </trkpt>
      <trkpt lat="45.08952" lon="5.59783">
        <ele>1463</ele>
        <time>2020-08-23T11:11:18Z</time>
      </trkpt>
      <trkpt lat="45.08951" lon="5.59784">
        <ele>1463</ele>
        <time>2020-08-23T11:11:19Z</time>
      </trkpt>
      <trkpt lat="45.08951" lon="5.59786">
        <ele>1463.2</ele>
        <time>2020-08-23T11:11:20Z</time>
      </trkpt>
      <trkpt lat="45.0895" lon="5.59787">
        <ele>1463.4</ele>
        <time>2020-08-23T11:11:21Z</time>
      </trkpt>
      <trkpt lat="45.0895" lon="5.59789">
        <ele>1463.6</ele>
        <time>2020-08-23T11:11:22Z</time>
      </trkpt>
      <trkpt lat="45.0895" lon="5.5979">
        <ele>1463.8</ele>
        <time>2020-08-23T11:11:23Z</time>
      </trkpt>
      <trkpt lat="45.0895" lon="5.59792">
        <ele>1464</ele>
        <time>2020-08-23T11:11:24Z</time>
      </trkpt>
      <trkpt lat="45.0895" lon="5.59793">
        <ele>1464.2</ele>
        <time>2020-08-23T11:11:25Z</time>
      </trkpt>
      <trkpt lat="45.08949" lon="5.59795">
        <ele>1464.2</ele>
        <time>2020-08-23T11:11:26Z</time>
      </trkpt>
      <trkpt lat="45.08949" lon="5.59796">
        <ele>1464.4</ele>
        <time>2020-08-23T11:11:27Z</time>
      </trkpt>
      <trkpt lat="45.08949" lon="5.59798">
        <ele>1464.6</ele>
        <time>2020-08-23T11:11:28Z</time>
      </trkpt>
      <trkpt lat="45.08949" lon="5.59799">
        <ele>1464.8</ele>
        <time>2020-08-23T11:11:29Z</time>
      </trkpt>
      <trkpt lat="45.08949" lon="5.598">
        <ele>1465</ele>
        <time>2020-08-23T11:11:30Z</time>
      </trkpt>
      <trkpt lat="45.08949" lon="5.59802">
        <ele>1465.2</ele>
        <time>2020-08-23T11:11:31Z</time>
      </trkpt>
      <trkpt lat="45.08948" lon="5.59804">
        <ele>1465.2</ele>
        <time>2020-08-23T11:11:32Z</time>
      </trkpt>
      <trkpt lat="45.08948" lon="5.59805">
        <ele>1465.4</ele>
        <time>2020-08-23T11:11:33Z</time>
      </trkpt>
      <trkpt lat="45.08947" lon="5.59807">
        <ele>1465.6</ele>
        <time>2020-08-23T11:11:34Z</time>
      </trkpt>
      <trkpt lat="45.08947" lon="5.59808">
        <ele>1465.6</ele>
        <time>2020-08-23T11:11:35Z</time>
      </trkpt>
      <trkpt lat="45.08947" lon="5.5981">
        <ele>1465.8</ele>
        <time>2020-08-23T11:11:36Z</time>
      </trkpt>
      <trkpt lat="45.08946" lon="5.59811">
        <ele>1466</ele>
        <time>2020-08-23T11:11:37Z</time>
      </trkpt>
      <trkpt lat="45.08946" lon="5.59813">
        <ele>1466.2</ele>
        <time>2020-08-23T11:11:38Z</time>
      </trkpt>
      <trkpt lat="45.08946" lon="5.59815">
        <ele>1466.4</ele>
        <time>2020-08-23T11:11:39Z</time>
      </trkpt>
      <trkpt lat="45.08946" lon="5.59817">
        <ele>1466.4</ele>
        <time>2020-08-23T11:11:40Z</time>
      </trkpt>
      <trkpt lat="45.08945" lon="5.59818">
        <ele>1466.6</ele>
        <time>2020-08-23T11:11:41Z</time>
      </trkpt>
      <trkpt lat="45.08945" lon="5.5982">
        <ele>1466.8</ele>
        <time>2020-08-23T11:11:42Z</time>
      </trkpt>
      <trkpt lat="45.08945" lon="5.59822">
        <ele>1467</ele>
        <time>2020-08-23T11:11:43Z</time>
      </trkpt>
      <trkpt lat="45.08945" lon="5.59824">
        <ele>1467.2</ele>
        <time>2020-08-23T11:11:44Z</time>
      </trkpt>
      <trkpt lat="45.08945" lon="5.59826">
        <ele>1467.2</ele>
        <time>2020-08-23T11:11:45Z</time>
      </trkpt>
      <trkpt lat="45.08944" lon="5.59827">
        <ele>1467.4</ele>
        <time>2020-08-23T11:11:46Z</time>
      </trkpt>
      <trkpt lat="45.08944" lon="5.59829">
        <ele>1467.6</ele>
        <time>2020-08-23T11:11:47Z</time>
      </trkpt>
      <trkpt lat="45.08944" lon="5.59831">
        <ele>1467.8</ele>
        <time>2020-08-23T11:11:48Z</time>
      </trkpt>
      <trkpt lat="45.08944" lon="5.59833">
        <ele>1467.8</ele>
        <time>2020-08-23T11:11:49Z</time>
      </trkpt>
      <trkpt lat="45.08943" lon="5.59835">
        <ele>1468</ele>
        <time>2020-08-23T11:11:50Z</time>
      </trkpt>
      <trkpt lat="45.08943" lon="5.59837">
        <ele>1468.2</ele>
        <time>2020-08-23T11:11:51Z</time>
      </trkpt>
      <trkpt lat="45.08943" lon="5.59839">
        <ele>1468.2</ele>
        <time>2020-08-23T11:11:52Z</time>
      </trkpt>
      <trkpt lat="45.08943" lon="5.59841">
        <ele>1468.4</ele>
        <time>2020-08-23T11:11:53Z</time>
      </trkpt>
      <trkpt lat="45.08943" lon="5.59843">
        <ele>1468.6</ele>
        <time>2020-08-23T11:11:54Z</time>
      </trkpt>
      <trkpt lat="45.08943" lon="5.59844">
        <ele>1468.6</ele>
        <time>2020-08-23T11:11:55Z</time>
      </trkpt>
      <trkpt lat="45.08943" lon="5.59847">
        <ele>1468.8</ele>
        <time>2020-08-23T11:11:56Z</time>
      </trkpt>
      <trkpt lat="45.08943" lon="5.59849">
        <ele>1469</ele>
        <time>2020-08-23T11:11:57Z</time>
      </trkpt>
      <trkpt lat="45.08944" lon="5.5985">
        <ele>1469.2</ele>
        <time>2020-08-23T11:11:58Z</time>
      </trkpt>
      <trkpt lat="45.08944" lon="5.59852">
        <ele>1469.2</ele>
        <time>2020-08-23T11:11:59Z</time>
      </trkpt>
      <trkpt lat="45.08944" lon="5.59854">
        <ele>1469.4</ele>
        <time>2020-08-23T11:12:00Z</time>
      </trkpt>
      <trkpt lat="45.08944" lon="5.59856">
        <ele>1469.6</ele>
        <time>2020-08-23T11:12:01Z</time>
      </trkpt>
      <trkpt lat="45.08944" lon="5.59858">
        <ele>1469.6</ele>
        <time>2020-08-23T11:12:02Z</time>
      </trkpt>
      <trkpt lat="45.08944" lon="5.59859">
        <ele>1469.8</ele>
        <time>2020-08-23T11:12:03Z</time>
      </trkpt>
      <trkpt lat="45.08944" lon="5.59861">
        <ele>1470</ele>
        <time>2020-08-23T11:12:04Z</time>
      </trkpt>
      <trkpt lat="45.08944" lon="5.59862">
        <ele>1470</ele>
        <time>2020-08-23T11:12:05Z</time>
      </trkpt>
      <trkpt lat="45.08944" lon="5.59864">
        <ele>1470.2</ele>
        <time>2020-08-23T11:12:06Z</time>
      </trkpt>
      <trkpt lat="45.08944" lon="5.59865">
        <ele>1470.2</ele>
        <time>2020-08-23T11:12:07Z</time>
      </trkpt>
      <trkpt lat="45.08944" lon="5.59867">
        <ele>1470.4</ele>
        <time>2020-08-23T11:12:08Z</time>
      </trkpt>
      <trkpt lat="45.08944" lon="5.59868">
        <ele>1470.6</ele>
        <time>2020-08-23T11:12:09Z</time>
      </trkpt>
      <trkpt lat="45.08945" lon="5.59869">
        <ele>1470.8</ele>
        <time>2020-08-23T11:12:10Z</time>
      </trkpt>
      <trkpt lat="45.08945" lon="5.5987">
        <ele>1470.8</ele>
        <time>2020-08-23T11:12:11Z</time>
      </trkpt>
      <trkpt lat="45.08946" lon="5.59871">
        <ele>1471</ele>
        <time>2020-08-23T11:12:12Z</time>
      </trkpt>
      <trkpt lat="45.08946" lon="5.59873">
        <ele>1471</ele>
        <time>2020-08-23T11:12:13Z</time>
      </trkpt>
      <trkpt lat="45.08946" lon="5.59874">
        <ele>1471.2</ele>
        <time>2020-08-23T11:12:14Z</time>
      </trkpt>
      <trkpt lat="45.08947" lon="5.59876">
        <ele>1471.4</ele>
        <time>2020-08-23T11:12:15Z</time>
      </trkpt>
      <trkpt lat="45.08947" lon="5.59878">
        <ele>1471.4</ele>
        <time>2020-08-23T11:12:16Z</time>
      </trkpt>
      <trkpt lat="45.08947" lon="5.59879">
        <ele>1471.6</ele>
        <time>2020-08-23T11:12:17Z</time>
      </trkpt>
      <trkpt lat="45.08948" lon="5.5988">
        <ele>1471.8</ele>
        <time>2020-08-23T11:12:18Z</time>
      </trkpt>
      <trkpt lat="45.08949" lon="5.59882">
        <ele>1472</ele>
        <time>2020-08-23T11:12:19Z</time>
      </trkpt>
      <trkpt lat="45.0895" lon="5.59884">
        <ele>1472</ele>
        <time>2020-08-23T11:12:20Z</time>
      </trkpt>
      <trkpt lat="45.08951" lon="5.59886">
        <ele>1472</ele>
        <time>2020-08-23T11:12:21Z</time>
      </trkpt>
      <trkpt lat="45.08951" lon="5.59888">
        <ele>1472.2</ele>
        <time>2020-08-23T11:12:22Z</time>
      </trkpt>
      <trkpt lat="45.08951" lon="5.5989">
        <ele>1472.4</ele>
        <time>2020-08-23T11:12:23Z</time>
      </trkpt>
      <trkpt lat="45.08951" lon="5.59892">
        <ele>1472.6</ele>
        <time>2020-08-23T11:12:24Z</time>
      </trkpt>
      <trkpt lat="45.08951" lon="5.59894">
        <ele>1472.6</ele>
        <time>2020-08-23T11:12:25Z</time>
      </trkpt>
      <trkpt lat="45.08951" lon="5.59896">
        <ele>1472.8</ele>
        <time>2020-08-23T11:12:26Z</time>
      </trkpt>
      <trkpt lat="45.08951" lon="5.59897">
        <ele>1473</ele>
        <time>2020-08-23T11:12:27Z</time>
      </trkpt>
      <trkpt lat="45.08952" lon="5.59899">
        <ele>1473</ele>
        <time>2020-08-23T11:12:28Z</time>
      </trkpt>
      <trkpt lat="45.08952" lon="5.59901">
        <ele>1473.2</ele>
        <time>2020-08-23T11:12:29Z</time>
      </trkpt>
      <trkpt lat="45.08953" lon="5.59902">
        <ele>1473.4</ele>
        <time>2020-08-23T11:12:30Z</time>
      </trkpt>
      <trkpt lat="45.08954" lon="5.59904">
        <ele>1473.6</ele>
        <time>2020-08-23T11:12:31Z</time>
      </trkpt>
      <trkpt lat="45.08954" lon="5.59906">
        <ele>1473.6</ele>
        <time>2020-08-23T11:12:32Z</time>
      </trkpt>
      <trkpt lat="45.08954" lon="5.59908">
        <ele>1473.8</ele>
        <time>2020-08-23T11:12:33Z</time>
      </trkpt>
      <trkpt lat="45.08955" lon="5.59911">
        <ele>1474</ele>
        <time>2020-08-23T11:12:34Z</time>
      </trkpt>
      <trkpt lat="45.08957" lon="5.59912">
        <ele>1474.2</ele>
        <time>2020-08-23T11:12:35Z</time>
      </trkpt>
      <trkpt lat="45.08958" lon="5.59914">
        <ele>1474.2</ele>
        <time>2020-08-23T11:12:36Z</time>
      </trkpt>
      <trkpt lat="45.0896" lon="5.59916">
        <ele>1474.4</ele>
        <time>2020-08-23T11:12:37Z</time>
      </trkpt>
      <trkpt lat="45.08962" lon="5.59918">
        <ele>1474.6</ele>
        <time>2020-08-23T11:12:38Z</time>
      </trkpt>
      <trkpt lat="45.08963" lon="5.5992">
        <ele>1474.6</ele>
        <time>2020-08-23T11:12:39Z</time>
      </trkpt>
      <trkpt lat="45.08964" lon="5.59923">
        <ele>1474.8</ele>
        <time>2020-08-23T11:12:40Z</time>
      </trkpt>
      <trkpt lat="45.08965" lon="5.59927">
        <ele>1474.8</ele>
        <time>2020-08-23T11:12:41Z</time>
      </trkpt>
      <trkpt lat="45.08966" lon="5.59931">
        <ele>1474.8</ele>
        <time>2020-08-23T11:12:42Z</time>
      </trkpt>
      <trkpt lat="45.08967" lon="5.59935">
        <ele>1475</ele>
        <time>2020-08-23T11:12:43Z</time>
      </trkpt>
      <trkpt lat="45.08968" lon="5.59939">
        <ele>1475</ele>
        <time>2020-08-23T11:12:44Z</time>
      </trkpt>
      <trkpt lat="45.0897" lon="5.59942">
        <ele>1475.2</ele>
        <time>2020-08-23T11:12:45Z</time>
      </trkpt>
      <trkpt lat="45.08971" lon="5.59946">
        <ele>1475.2</ele>
        <time>2020-08-23T11:12:46Z</time>
      </trkpt>
      <trkpt lat="45.08973" lon="5.59948">
        <ele>1475.4</ele>
        <time>2020-08-23T11:12:47Z</time>
      </trkpt>
      <trkpt lat="45.08975" lon="5.59951">
        <ele>1475.6</ele>
        <time>2020-08-23T11:12:48Z</time>
      </trkpt>
      <trkpt lat="45.08977" lon="5.59952">
        <ele>1475.6</ele>
        <time>2020-08-23T11:12:49Z</time>
      </trkpt>
      <trkpt lat="45.08979" lon="5.59953">
        <ele>1475.8</ele>
        <time>2020-08-23T11:12:50Z</time>
      </trkpt>
      <trkpt lat="45.08981" lon="5.59953">
        <ele>1476</ele>
        <time>2020-08-23T11:12:51Z</time>
      </trkpt>
      <trkpt lat="45.08983" lon="5.59954">
        <ele>1476.2</ele>
        <time>2020-08-23T11:12:52Z</time>
      </trkpt>
      <trkpt lat="45.08984" lon="5.59955">
        <ele>1476.2</ele>
        <time>2020-08-23T11:12:53Z</time>
      </trkpt>
      <trkpt lat="45.08985" lon="5.59955">
        <ele>1476.4</ele>
        <time>2020-08-23T11:12:54Z</time>
      </trkpt>
      <trkpt lat="45.08986" lon="5.59955">
        <ele>1476.6</ele>
        <time>2020-08-23T11:12:55Z</time>
      </trkpt>
      <trkpt lat="45.08988" lon="5.59955">
        <ele>1476.8</ele>
        <time>2020-08-23T11:12:56Z</time>
      </trkpt>
      <trkpt lat="45.0899" lon="5.59956">
        <ele>1476.8</ele>
        <time>2020-08-23T11:12:57Z</time>
      </trkpt>
      <trkpt lat="45.08992" lon="5.59958">
        <ele>1477</ele>
        <time>2020-08-23T11:12:58Z</time>
      </trkpt>
      <trkpt lat="45.08994" lon="5.59961">
        <ele>1477</ele>
        <time>2020-08-23T11:12:59Z</time>
      </trkpt>
      <trkpt lat="45.08997" lon="5.59964">
        <ele>1477.2</ele>
        <time>2020-08-23T11:13:00Z</time>
      </trkpt>
      <trkpt lat="45.08998" lon="5.59966">
        <ele>1477.2</ele>
        <time>2020-08-23T11:13:01Z</time>
      </trkpt>
      <trkpt lat="45.09" lon="5.59967">
        <ele>1477.4</ele>
        <time>2020-08-23T11:13:02Z</time>
      </trkpt>
      <trkpt lat="45.09002" lon="5.59968">
        <ele>1477.6</ele>
        <time>2020-08-23T11:13:03Z</time>
      </trkpt>
      <trkpt lat="45.09004" lon="5.59969">
        <ele>1477.8</ele>
        <time>2020-08-23T11:13:04Z</time>
      </trkpt>
      <trkpt lat="45.09005" lon="5.5997">
        <ele>1477.8</ele>
        <time>2020-08-23T11:13:05Z</time>
      </trkpt>
      <trkpt lat="45.09007" lon="5.59972">
        <ele>1478</ele>
        <time>2020-08-23T11:13:06Z</time>
      </trkpt>
      <trkpt lat="45.09008" lon="5.59974">
        <ele>1478.2</ele>
        <time>2020-08-23T11:13:07Z</time>
      </trkpt>
      <trkpt lat="45.09009" lon="5.59975">
        <ele>1478.4</ele>
        <time>2020-08-23T11:13:08Z</time>
      </trkpt>
      <trkpt lat="45.0901" lon="5.59976">
        <ele>1478.6</ele>
        <time>2020-08-23T11:13:09Z</time>
      </trkpt>
      <trkpt lat="45.09011" lon="5.59978">
        <ele>1478.6</ele>
        <time>2020-08-23T11:13:10Z</time>
      </trkpt>
      <trkpt lat="45.09012" lon="5.5998">
        <ele>1478.4</ele>
        <time>2020-08-23T11:13:11Z</time>
      </trkpt>
      <trkpt lat="45.09013" lon="5.59982">
        <ele>1478.2</ele>
        <time>2020-08-23T11:13:12Z</time>
      </trkpt>
      <trkpt lat="45.09014" lon="5.59984">
        <ele>1478.2</ele>
        <time>2020-08-23T11:13:13Z</time>
      </trkpt>
      <trkpt lat="45.09015" lon="5.59986">
        <ele>1478.2</ele>
        <time>2020-08-23T11:13:14Z</time>
      </trkpt>
      <trkpt lat="45.09017" lon="5.59988">
        <ele>1478.6</ele>
        <time>2020-08-23T11:13:15Z</time>
      </trkpt>
      <trkpt lat="45.09018" lon="5.5999">
        <ele>1478.8</ele>
        <time>2020-08-23T11:13:16Z</time>
      </trkpt>
      <trkpt lat="45.09022" lon="5.59992">
        <ele>1478.8</ele>
        <time>2020-08-23T11:13:17Z</time>
      </trkpt>
      <trkpt lat="45.09027" lon="5.59995">
        <ele>1479</ele>
        <time>2020-08-23T11:13:18Z</time>
      </trkpt>
      <trkpt lat="45.09032" lon="5.59997">
        <ele>1479.2</ele>
        <time>2020-08-23T11:13:19Z</time>
      </trkpt>
      <trkpt lat="45.09038" lon="5.59998">
        <ele>1479.2</ele>
        <time>2020-08-23T11:13:20Z</time>
      </trkpt>
      <trkpt lat="45.09042" lon="5.6">
        <ele>1479.4</ele>
        <time>2020-08-23T11:13:21Z</time>
      </trkpt>
      <trkpt lat="45.09045" lon="5.6">
        <ele>1479.4</ele>
        <time>2020-08-23T11:13:22Z</time>
      </trkpt>
      <trkpt lat="45.09048" lon="5.6">
        <ele>1479.6</ele>
        <time>2020-08-23T11:13:23Z</time>
      </trkpt>
      <trkpt lat="45.0905" lon="5.6">
        <ele>1479.6</ele>
        <time>2020-08-23T11:13:24Z</time>
      </trkpt>
      <trkpt lat="45.09052" lon="5.6">
        <ele>1479.8</ele>
        <time>2020-08-23T11:13:25Z</time>
      </trkpt>
      <trkpt lat="45.09055" lon="5.6">
        <ele>1480</ele>
        <time>2020-08-23T11:13:26Z</time>
      </trkpt>
      <trkpt lat="45.09058" lon="5.6">
        <ele>1480</ele>
        <time>2020-08-23T11:13:27Z</time>
      </trkpt>
      <trkpt lat="45.0906" lon="5.6">
        <ele>1480.2</ele>
        <time>2020-08-23T11:13:28Z</time>
      </trkpt>
      <trkpt lat="45.09063" lon="5.6">
        <ele>1480.4</ele>
        <time>2020-08-23T11:13:29Z</time>
      </trkpt>
      <trkpt lat="45.09065" lon="5.6">
        <ele>1480.4</ele>
        <time>2020-08-23T11:13:30Z</time>
      </trkpt>
      <trkpt lat="45.09068" lon="5.59999">
        <ele>1480.6</ele>
        <time>2020-08-23T11:13:31Z</time>
      </trkpt>
      <trkpt lat="45.09071" lon="5.59999">
        <ele>1480.8</ele>
        <time>2020-08-23T11:13:32Z</time>
      </trkpt>
      <trkpt lat="45.09073" lon="5.59999">
        <ele>1480.8</ele>
        <time>2020-08-23T11:13:33Z</time>
      </trkpt>
      <trkpt lat="45.09076" lon="5.59999">
        <ele>1481</ele>
        <time>2020-08-23T11:13:34Z</time>
      </trkpt>
      <trkpt lat="45.09078" lon="5.59999">
        <ele>1481.2</ele>
        <time>2020-08-23T11:13:35Z</time>
      </trkpt>
      <trkpt lat="45.0908" lon="5.6">
        <ele>1481.4</ele>
        <time>2020-08-23T11:13:36Z</time>
      </trkpt>
      <trkpt lat="45.09083" lon="5.6">
        <ele>1481.6</ele>
        <time>2020-08-23T11:13:37Z</time>
      </trkpt>
      <trkpt lat="45.09084" lon="5.60001">
        <ele>1481.6</ele>
        <time>2020-08-23T11:13:38Z</time>
      </trkpt>
      <trkpt lat="45.09086" lon="5.60002">
        <ele>1481.8</ele>
        <time>2020-08-23T11:13:39Z</time>
      </trkpt>
      <trkpt lat="45.09088" lon="5.60003">
        <ele>1481.8</ele>
        <time>2020-08-23T11:13:40Z</time>
      </trkpt>
      <trkpt lat="45.0909" lon="5.60004">
        <ele>1482</ele>
        <time>2020-08-23T11:13:41Z</time>
      </trkpt>
      <trkpt lat="45.09094" lon="5.60006">
        <ele>1482.2</ele>
        <time>2020-08-23T11:13:42Z</time>
      </trkpt>
      <trkpt lat="45.09098" lon="5.60008">
        <ele>1482.2</ele>
        <time>2020-08-23T11:13:43Z</time>
      </trkpt>
      <trkpt lat="45.09103" lon="5.60008">
        <ele>1482.4</ele>
        <time>2020-08-23T11:13:44Z</time>
      </trkpt>
      <trkpt lat="45.09106" lon="5.60008">
        <ele>1482.6</ele>
        <time>2020-08-23T11:13:45Z</time>
      </trkpt>
      <trkpt lat="45.09109" lon="5.60008">
        <ele>1482.6</ele>
        <time>2020-08-23T11:13:46Z</time>
      </trkpt>
      <trkpt lat="45.09111" lon="5.60007">
        <ele>1482.8</ele>
        <time>2020-08-23T11:13:47Z</time>
      </trkpt>
      <trkpt lat="45.09113" lon="5.60006">
        <ele>1483</ele>
        <time>2020-08-23T11:13:48Z</time>
      </trkpt>
      <trkpt lat="45.09115" lon="5.60005">
        <ele>1483</ele>
        <time>2020-08-23T11:13:49Z</time>
      </trkpt>
      <trkpt lat="45.09117" lon="5.60005">
        <ele>1483.2</ele>
        <time>2020-08-23T11:13:50Z</time>
      </trkpt>
      <trkpt lat="45.09118" lon="5.60004">
        <ele>1483.4</ele>
        <time>2020-08-23T11:13:51Z</time>
      </trkpt>
      <trkpt lat="45.0912" lon="5.60004">
        <ele>1483.4</ele>
        <time>2020-08-23T11:13:52Z</time>
      </trkpt>
      <trkpt lat="45.09121" lon="5.60004">
        <ele>1483.6</ele>
        <time>2020-08-23T11:13:53Z</time>
      </trkpt>
      <trkpt lat="45.09123" lon="5.60004">
        <ele>1483.8</ele>
        <time>2020-08-23T11:13:54Z</time>
      </trkpt>
      <trkpt lat="45.09124" lon="5.60004">
        <ele>1484</ele>
        <time>2020-08-23T11:13:55Z</time>
      </trkpt>
      <trkpt lat="45.09125" lon="5.60004">
        <ele>1484</ele>
        <time>2020-08-23T11:13:56Z</time>
      </trkpt>
      <trkpt lat="45.09127" lon="5.60003">
        <ele>1484.2</ele>
        <time>2020-08-23T11:13:57Z</time>
      </trkpt>
      <trkpt lat="45.09128" lon="5.60003">
        <ele>1484.4</ele>
        <time>2020-08-23T11:13:58Z</time>
      </trkpt>
      <trkpt lat="45.09129" lon="5.60003">
        <ele>1484.4</ele>
        <time>2020-08-23T11:13:59Z</time>
      </trkpt>
      <trkpt lat="45.0913" lon="5.60003">
        <ele>1484.6</ele>
        <time>2020-08-23T11:14:00Z</time>
      </trkpt>
      <trkpt lat="45.09132" lon="5.60003">
        <ele>1484.8</ele>
        <time>2020-08-23T11:14:01Z</time>
      </trkpt>
      <trkpt lat="45.09133" lon="5.60003">
        <ele>1485</ele>
        <time>2020-08-23T11:14:02Z</time>
      </trkpt>
      <trkpt lat="45.09135" lon="5.60003">
        <ele>1485</ele>
        <time>2020-08-23T11:14:03Z</time>
      </trkpt>
      <trkpt lat="45.09136" lon="5.60003">
        <ele>1485.2</ele>
        <time>2020-08-23T11:14:04Z</time>
      </trkpt>
      <trkpt lat="45.09137" lon="5.60003">
        <ele>1485.2</ele>
        <time>2020-08-23T11:14:05Z</time>
      </trkpt>
      <trkpt lat="45.09138" lon="5.60004">
        <ele>1485.4</ele>
        <time>2020-08-23T11:14:06Z</time>
      </trkpt>
      <trkpt lat="45.09139" lon="5.60004">
        <ele>1485.6</ele>
        <time>2020-08-23T11:14:07Z</time>
      </trkpt>
      <trkpt lat="45.0914" lon="5.60004">
        <ele>1485.8</ele>
        <time>2020-08-23T11:14:08Z</time>
      </trkpt>
      <trkpt lat="45.09141" lon="5.60004">
        <ele>1486</ele>
        <time>2020-08-23T11:14:09Z</time>
      </trkpt>
      <trkpt lat="45.09143" lon="5.60004">
        <ele>1486.2</ele>
        <time>2020-08-23T11:14:10Z</time>
      </trkpt>
      <trkpt lat="45.09144" lon="5.60004">
        <ele>1486.2</ele>
        <time>2020-08-23T11:14:11Z</time>
      </trkpt>
      <trkpt lat="45.09145" lon="5.60004">
        <ele>1486.4</ele>
        <time>2020-08-23T11:14:12Z</time>
      </trkpt>
      <trkpt lat="45.09147" lon="5.60004">
        <ele>1486.4</ele>
        <time>2020-08-23T11:14:13Z</time>
      </trkpt>
      <trkpt lat="45.09148" lon="5.60004">
        <ele>1486.6</ele>
        <time>2020-08-23T11:14:14Z</time>
      </trkpt>
      <trkpt lat="45.0915" lon="5.60004">
        <ele>1486.6</ele>
        <time>2020-08-23T11:14:15Z</time>
      </trkpt>
      <trkpt lat="45.09151" lon="5.60004">
        <ele>1486.6</ele>
        <time>2020-08-23T11:14:16Z</time>
      </trkpt>
      <trkpt lat="45.09153" lon="5.60005">
        <ele>1486.8</ele>
        <time>2020-08-23T11:14:17Z</time>
      </trkpt>
      <trkpt lat="45.09154" lon="5.60005">
        <ele>1486.8</ele>
        <time>2020-08-23T11:14:18Z</time>
      </trkpt>
      <trkpt lat="45.09156" lon="5.60006">
        <ele>1486.8</ele>
        <time>2020-08-23T11:14:19Z</time>
      </trkpt>
      <trkpt lat="45.09157" lon="5.60006">
        <ele>1487</ele>
        <time>2020-08-23T11:14:20Z</time>
      </trkpt>
      <trkpt lat="45.09158" lon="5.60007">
        <ele>1487</ele>
        <time>2020-08-23T11:14:21Z</time>
      </trkpt>
      <trkpt lat="45.0916" lon="5.60007">
        <ele>1487</ele>
        <time>2020-08-23T11:14:22Z</time>
      </trkpt>
      <trkpt lat="45.09161" lon="5.60008">
        <ele>1487.2</ele>
        <time>2020-08-23T11:14:23Z</time>
      </trkpt>
      <trkpt lat="45.09162" lon="5.60009">
        <ele>1487.2</ele>
        <time>2020-08-23T11:14:24Z</time>
      </trkpt>
      <trkpt lat="45.09163" lon="5.60009">
        <ele>1487.2</ele>
        <time>2020-08-23T11:14:25Z</time>
      </trkpt>
      <trkpt lat="45.09164" lon="5.6001">
        <ele>1487.2</ele>
        <time>2020-08-23T11:14:26Z</time>
      </trkpt>
      <trkpt lat="45.09166" lon="5.60011">
        <ele>1487.2</ele>
        <time>2020-08-23T11:14:27Z</time>
      </trkpt>
      <trkpt lat="45.09167" lon="5.60012">
        <ele>1487.2</ele>
        <time>2020-08-23T11:14:28Z</time>
      </trkpt>
      <trkpt lat="45.09168" lon="5.60012">
        <ele>1487.2</ele>
        <time>2020-08-23T11:14:29Z</time>
      </trkpt>
      <trkpt lat="45.09169" lon="5.60012">
        <ele>1487.4</ele>
        <time>2020-08-23T11:14:30Z</time>
      </trkpt>
      <trkpt lat="45.09169" lon="5.60012">
        <ele>1487.4</ele>
        <time>2020-08-23T11:14:31Z</time>
      </trkpt>
      <trkpt lat="45.09169" lon="5.60013">
        <ele>1487.4</ele>
        <time>2020-08-23T11:14:32Z</time>
      </trkpt>
      <trkpt lat="45.09169" lon="5.60013">
        <ele>1487.4</ele>
        <time>2020-08-23T11:14:33Z</time>
      </trkpt>
      <trkpt lat="45.0917" lon="5.60014">
        <ele>1487.4</ele>
        <time>2020-08-23T11:15:27Z</time>
      </trkpt>
      <trkpt lat="45.09171" lon="5.60014">
        <ele>1487.4</ele>
        <time>2020-08-23T11:15:28Z</time>
      </trkpt>
      <trkpt lat="45.09172" lon="5.60013">
        <ele>1487.4</ele>
        <time>2020-08-23T11:15:29Z</time>
      </trkpt>
      <trkpt lat="45.09173" lon="5.60012">
        <ele>1487.4</ele>
        <time>2020-08-23T11:15:30Z</time>
      </trkpt>
      <trkpt lat="45.09174" lon="5.60009">
        <ele>1487.2</ele>
        <time>2020-08-23T11:15:31Z</time>
      </trkpt>
      <trkpt lat="45.09175" lon="5.60007">
        <ele>1487.2</ele>
        <time>2020-08-23T11:15:32Z</time>
      </trkpt>
      <trkpt lat="45.09176" lon="5.60005">
        <ele>1487</ele>
        <time>2020-08-23T11:15:33Z</time>
      </trkpt>
      <trkpt lat="45.09177" lon="5.60003">
        <ele>1487</ele>
        <time>2020-08-23T11:15:34Z</time>
      </trkpt>
      <trkpt lat="45.09178" lon="5.60001">
        <ele>1486.8</ele>
        <time>2020-08-23T11:15:35Z</time>
      </trkpt>
      <trkpt lat="45.09179" lon="5.59999">
        <ele>1486.8</ele>
        <time>2020-08-23T11:15:36Z</time>
      </trkpt>
      <trkpt lat="45.0918" lon="5.59998">
        <ele>1486.8</ele>
        <time>2020-08-23T11:15:37Z</time>
      </trkpt>
      <trkpt lat="45.09181" lon="5.59996">
        <ele>1486.8</ele>
        <time>2020-08-23T11:15:38Z</time>
      </trkpt>
      <trkpt lat="45.09182" lon="5.59994">
        <ele>1486.8</ele>
        <time>2020-08-23T11:15:39Z</time>
      </trkpt>
      <trkpt lat="45.09182" lon="5.59992">
        <ele>1486.8</ele>
        <time>2020-08-23T11:15:40Z</time>
      </trkpt>
      <trkpt lat="45.09183" lon="5.59991">
        <ele>1486.8</ele>
        <time>2020-08-23T11:15:41Z</time>
      </trkpt>
      <trkpt lat="45.09184" lon="5.59989">
        <ele>1486.8</ele>
        <time>2020-08-23T11:15:42Z</time>
      </trkpt>
      <trkpt lat="45.09185" lon="5.59987">
        <ele>1486.8</ele>
        <time>2020-08-23T11:15:43Z</time>
      </trkpt>
      <trkpt lat="45.09186" lon="5.59986">
        <ele>1486.6</ele>
        <time>2020-08-23T11:15:44Z</time>
      </trkpt>
      <trkpt lat="45.09187" lon="5.59985">
        <ele>1486.8</ele>
        <time>2020-08-23T11:15:45Z</time>
      </trkpt>
      <trkpt lat="45.09188" lon="5.59983">
        <ele>1486.8</ele>
        <time>2020-08-23T11:15:46Z</time>
      </trkpt>
      <trkpt lat="45.09189" lon="5.59981">
        <ele>1486.8</ele>
        <time>2020-08-23T11:15:47Z</time>
      </trkpt>
      <trkpt lat="45.09189" lon="5.5998">
        <ele>1486.8</ele>
        <time>2020-08-23T11:15:48Z</time>
      </trkpt>
      <trkpt lat="45.0919" lon="5.59978">
        <ele>1486.8</ele>
        <time>2020-08-23T11:15:49Z</time>
      </trkpt>
      <trkpt lat="45.09192" lon="5.59976">
        <ele>1486.8</ele>
        <time>2020-08-23T11:15:50Z</time>
      </trkpt>
      <trkpt lat="45.09192" lon="5.59975">
        <ele>1486.8</ele>
        <time>2020-08-23T11:15:51Z</time>
      </trkpt>
      <trkpt lat="45.09193" lon="5.59973">
        <ele>1487</ele>
        <time>2020-08-23T11:15:52Z</time>
      </trkpt>
      <trkpt lat="45.09194" lon="5.59972">
        <ele>1487</ele>
        <time>2020-08-23T11:15:53Z</time>
      </trkpt>
      <trkpt lat="45.09195" lon="5.5997">
        <ele>1487</ele>
        <time>2020-08-23T11:15:54Z</time>
      </trkpt>
      <trkpt lat="45.09196" lon="5.59968">
        <ele>1487</ele>
        <time>2020-08-23T11:15:55Z</time>
      </trkpt>
      <trkpt lat="45.09196" lon="5.59967">
        <ele>1487</ele>
        <time>2020-08-23T11:15:56Z</time>
      </trkpt>
      <trkpt lat="45.09197" lon="5.59966">
        <ele>1487</ele>
        <time>2020-08-23T11:15:57Z</time>
      </trkpt>
      <trkpt lat="45.09198" lon="5.59964">
        <ele>1487</ele>
        <time>2020-08-23T11:15:58Z</time>
      </trkpt>
      <trkpt lat="45.09199" lon="5.59963">
        <ele>1487</ele>
        <time>2020-08-23T11:15:59Z</time>
      </trkpt>
      <trkpt lat="45.092" lon="5.59961">
        <ele>1487</ele>
        <time>2020-08-23T11:16:00Z</time>
      </trkpt>
      <trkpt lat="45.09201" lon="5.5996">
        <ele>1487</ele>
        <time>2020-08-23T11:16:01Z</time>
      </trkpt>
      <trkpt lat="45.09201" lon="5.59958">
        <ele>1487</ele>
        <time>2020-08-23T11:16:02Z</time>
      </trkpt>
      <trkpt lat="45.09203" lon="5.59957">
        <ele>1487</ele>
        <time>2020-08-23T11:16:03Z</time>
      </trkpt>
      <trkpt lat="45.09204" lon="5.59956">
        <ele>1487</ele>
        <time>2020-08-23T11:16:04Z</time>
      </trkpt>
      <trkpt lat="45.09205" lon="5.59954">
        <ele>1487</ele>
        <time>2020-08-23T11:16:05Z</time>
      </trkpt>
      <trkpt lat="45.09206" lon="5.59953">
        <ele>1487</ele>
        <time>2020-08-23T11:16:06Z</time>
      </trkpt>
      <trkpt lat="45.09208" lon="5.59953">
        <ele>1487</ele>
        <time>2020-08-23T11:16:07Z</time>
      </trkpt>
      <trkpt lat="45.09209" lon="5.59952">
        <ele>1487</ele>
        <time>2020-08-23T11:16:08Z</time>
      </trkpt>
      <trkpt lat="45.0921" lon="5.5995">
        <ele>1487</ele>
        <time>2020-08-23T11:16:09Z</time>
      </trkpt>
      <trkpt lat="45.09212" lon="5.59949">
        <ele>1487</ele>
        <time>2020-08-23T11:16:10Z</time>
      </trkpt>
      <trkpt lat="45.09213" lon="5.59949">
        <ele>1487</ele>
        <time>2020-08-23T11:16:11Z</time>
      </trkpt>
      <trkpt lat="45.09214" lon="5.59948">
        <ele>1487</ele>
        <time>2020-08-23T11:16:12Z</time>
      </trkpt>
      <trkpt lat="45.09216" lon="5.59947">
        <ele>1487</ele>
        <time>2020-08-23T11:16:13Z</time>
      </trkpt>
      <trkpt lat="45.09217" lon="5.59947">
        <ele>1487</ele>
        <time>2020-08-23T11:16:14Z</time>
      </trkpt>
      <trkpt lat="45.09219" lon="5.59948">
        <ele>1487</ele>
        <time>2020-08-23T11:16:15Z</time>
      </trkpt>
      <trkpt lat="45.0922" lon="5.59949">
        <ele>1487</ele>
        <time>2020-08-23T11:16:16Z</time>
      </trkpt>
      <trkpt lat="45.09221" lon="5.5995">
        <ele>1487</ele>
        <time>2020-08-23T11:16:17Z</time>
      </trkpt>
      <trkpt lat="45.09222" lon="5.59952">
        <ele>1487</ele>
        <time>2020-08-23T11:16:18Z</time>
      </trkpt>
      <trkpt lat="45.09222" lon="5.59954">
        <ele>1487</ele>
        <time>2020-08-23T11:16:19Z</time>
      </trkpt>
      <trkpt lat="45.09224" lon="5.59955">
        <ele>1487.2</ele>
        <time>2020-08-23T11:16:20Z</time>
      </trkpt>
      <trkpt lat="45.09224" lon="5.59956">
        <ele>1487.2</ele>
        <time>2020-08-23T11:16:21Z</time>
      </trkpt>
      <trkpt lat="45.09225" lon="5.59958">
        <ele>1487.4</ele>
        <time>2020-08-23T11:16:22Z</time>
      </trkpt>
      <trkpt lat="45.09226" lon="5.59959">
        <ele>1487.4</ele>
        <time>2020-08-23T11:16:23Z</time>
      </trkpt>
      <trkpt lat="45.09227" lon="5.59961">
        <ele>1487.6</ele>
        <time>2020-08-23T11:16:24Z</time>
      </trkpt>
      <trkpt lat="45.09228" lon="5.59962">
        <ele>1487.6</ele>
        <time>2020-08-23T11:16:25Z</time>
      </trkpt>
      <trkpt lat="45.09229" lon="5.59964">
        <ele>1487.8</ele>
        <time>2020-08-23T11:16:26Z</time>
      </trkpt>
      <trkpt lat="45.09231" lon="5.59965">
        <ele>1487.8</ele>
        <time>2020-08-23T11:16:27Z</time>
      </trkpt>
      <trkpt lat="45.09232" lon="5.59967">
        <ele>1487.8</ele>
        <time>2020-08-23T11:16:28Z</time>
      </trkpt>
      <trkpt lat="45.09234" lon="5.59968">
        <ele>1488</ele>
        <time>2020-08-23T11:16:29Z</time>
      </trkpt>
      <trkpt lat="45.09235" lon="5.59969">
        <ele>1488</ele>
        <time>2020-08-23T11:16:30Z</time>
      </trkpt>
      <trkpt lat="45.09236" lon="5.5997">
        <ele>1488</ele>
        <time>2020-08-23T11:16:31Z</time>
      </trkpt>
      <trkpt lat="45.09237" lon="5.59972">
        <ele>1488.2</ele>
        <time>2020-08-23T11:16:32Z</time>
      </trkpt>
      <trkpt lat="45.09239" lon="5.59973">
        <ele>1488.2</ele>
        <time>2020-08-23T11:16:33Z</time>
      </trkpt>
      <trkpt lat="45.0924" lon="5.59975">
        <ele>1488.4</ele>
        <time>2020-08-23T11:16:34Z</time>
      </trkpt>
      <trkpt lat="45.09242" lon="5.59976">
        <ele>1488.4</ele>
        <time>2020-08-23T11:16:35Z</time>
      </trkpt>
      <trkpt lat="45.09243" lon="5.59977">
        <ele>1488.6</ele>
        <time>2020-08-23T11:16:36Z</time>
      </trkpt>
      <trkpt lat="45.09245" lon="5.59977">
        <ele>1488.6</ele>
        <time>2020-08-23T11:16:37Z</time>
      </trkpt>
      <trkpt lat="45.09247" lon="5.59978">
        <ele>1488.6</ele>
        <time>2020-08-23T11:16:38Z</time>
      </trkpt>
      <trkpt lat="45.09248" lon="5.59979">
        <ele>1488.8</ele>
        <time>2020-08-23T11:16:39Z</time>
      </trkpt>
      <trkpt lat="45.0925" lon="5.5998">
        <ele>1488.8</ele>
        <time>2020-08-23T11:16:40Z</time>
      </trkpt>
      <trkpt lat="45.09253" lon="5.59981">
        <ele>1488.8</ele>
        <time>2020-08-23T11:16:41Z</time>
      </trkpt>
      <trkpt lat="45.09254" lon="5.59981">
        <ele>1488.8</ele>
        <time>2020-08-23T11:16:42Z</time>
      </trkpt>
      <trkpt lat="45.09256" lon="5.59982">
        <ele>1489</ele>
        <time>2020-08-23T11:16:43Z</time>
      </trkpt>
      <trkpt lat="45.09259" lon="5.59982">
        <ele>1489.2</ele>
        <time>2020-08-23T11:16:44Z</time>
      </trkpt>
      <trkpt lat="45.09261" lon="5.59982">
        <ele>1489.2</ele>
        <time>2020-08-23T11:16:45Z</time>
      </trkpt>
      <trkpt lat="45.09263" lon="5.59983">
        <ele>1489.4</ele>
        <time>2020-08-23T11:16:46Z</time>
      </trkpt>
      <trkpt lat="45.09264" lon="5.59984">
        <ele>1489.4</ele>
        <time>2020-08-23T11:16:47Z</time>
      </trkpt>
      <trkpt lat="45.09266" lon="5.59985">
        <ele>1489.6</ele>
        <time>2020-08-23T11:16:48Z</time>
      </trkpt>
      <trkpt lat="45.09269" lon="5.59986">
        <ele>1489.6</ele>
        <time>2020-08-23T11:16:49Z</time>
      </trkpt>
      <trkpt lat="45.09271" lon="5.59988">
        <ele>1489.8</ele>
        <time>2020-08-23T11:16:50Z</time>
      </trkpt>
      <trkpt lat="45.09273" lon="5.59989">
        <ele>1489.8</ele>
        <time>2020-08-23T11:16:51Z</time>
      </trkpt>
      <trkpt lat="45.09275" lon="5.5999">
        <ele>1490</ele>
        <time>2020-08-23T11:16:52Z</time>
      </trkpt>
      <trkpt lat="45.09278" lon="5.59992">
        <ele>1490</ele>
        <time>2020-08-23T11:16:53Z</time>
      </trkpt>
      <trkpt lat="45.0928" lon="5.59994">
        <ele>1490.2</ele>
        <time>2020-08-23T11:16:54Z</time>
      </trkpt>
      <trkpt lat="45.09283" lon="5.59995">
        <ele>1490.2</ele>
        <time>2020-08-23T11:16:55Z</time>
      </trkpt>
      <trkpt lat="45.09285" lon="5.59996">
        <ele>1490.2</ele>
        <time>2020-08-23T11:16:56Z</time>
      </trkpt>
      <trkpt lat="45.09287" lon="5.59998">
        <ele>1490.2</ele>
        <time>2020-08-23T11:16:57Z</time>
      </trkpt>
      <trkpt lat="45.09289" lon="5.59999">
        <ele>1490.4</ele>
        <time>2020-08-23T11:16:58Z</time>
      </trkpt>
      <trkpt lat="45.09292" lon="5.59999">
        <ele>1490.4</ele>
        <time>2020-08-23T11:16:59Z</time>
      </trkpt>
      <trkpt lat="45.09294" lon="5.6">
        <ele>1490.6</ele>
        <time>2020-08-23T11:17:00Z</time>
      </trkpt>
      <trkpt lat="45.09296" lon="5.6">
        <ele>1490.6</ele>
        <time>2020-08-23T11:17:01Z</time>
      </trkpt>
      <trkpt lat="45.09298" lon="5.60001">
        <ele>1490.8</ele>
        <time>2020-08-23T11:17:02Z</time>
      </trkpt>
      <trkpt lat="45.093" lon="5.60002">
        <ele>1490.8</ele>
        <time>2020-08-23T11:17:03Z</time>
      </trkpt>
      <trkpt lat="45.09301" lon="5.60002">
        <ele>1491</ele>
        <time>2020-08-23T11:17:04Z</time>
      </trkpt>
      <trkpt lat="45.09303" lon="5.60003">
        <ele>1491</ele>
        <time>2020-08-23T11:17:05Z</time>
      </trkpt>
      <trkpt lat="45.09305" lon="5.60004">
        <ele>1491.2</ele>
        <time>2020-08-23T11:17:06Z</time>
      </trkpt>
      <trkpt lat="45.09306" lon="5.60005">
        <ele>1491.4</ele>
        <time>2020-08-23T11:17:07Z</time>
      </trkpt>
      <trkpt lat="45.09308" lon="5.60006">
        <ele>1491.4</ele>
        <time>2020-08-23T11:17:08Z</time>
      </trkpt>
      <trkpt lat="45.09311" lon="5.60007">
        <ele>1491.6</ele>
        <time>2020-08-23T11:17:09Z</time>
      </trkpt>
      <trkpt lat="45.09312" lon="5.60008">
        <ele>1491.8</ele>
        <time>2020-08-23T11:17:10Z</time>
      </trkpt>
      <trkpt lat="45.09314" lon="5.60009">
        <ele>1491.8</ele>
        <time>2020-08-23T11:17:11Z</time>
      </trkpt>
      <trkpt lat="45.09316" lon="5.6001">
        <ele>1492</ele>
        <time>2020-08-23T11:17:12Z</time>
      </trkpt>
      <trkpt lat="45.09318" lon="5.6001">
        <ele>1492</ele>
        <time>2020-08-23T11:17:13Z</time>
      </trkpt>
      <trkpt lat="45.0932" lon="5.60011">
        <ele>1492.2</ele>
        <time>2020-08-23T11:17:14Z</time>
      </trkpt>
      <trkpt lat="45.09321" lon="5.60011">
        <ele>1492.2</ele>
        <time>2020-08-23T11:17:15Z</time>
      </trkpt>
      <trkpt lat="45.09323" lon="5.60012">
        <ele>1492.4</ele>
        <time>2020-08-23T11:17:16Z</time>
      </trkpt>
      <trkpt lat="45.09325" lon="5.60013">
        <ele>1492.6</ele>
        <time>2020-08-23T11:17:17Z</time>
      </trkpt>
      <trkpt lat="45.09326" lon="5.60013">
        <ele>1492.6</ele>
        <time>2020-08-23T11:17:18Z</time>
      </trkpt>
      <trkpt lat="45.09328" lon="5.60014">
        <ele>1492.8</ele>
        <time>2020-08-23T11:17:19Z</time>
      </trkpt>
      <trkpt lat="45.0933" lon="5.60015">
        <ele>1493</ele>
        <time>2020-08-23T11:17:20Z</time>
      </trkpt>
      <trkpt lat="45.09331" lon="5.60015">
        <ele>1493</ele>
        <time>2020-08-23T11:17:21Z</time>
      </trkpt>
      <trkpt lat="45.09333" lon="5.60015">
        <ele>1493.2</ele>
        <time>2020-08-23T11:17:22Z</time>
      </trkpt>
      <trkpt lat="45.09335" lon="5.60016">
        <ele>1493.4</ele>
        <time>2020-08-23T11:17:23Z</time>
      </trkpt>
      <trkpt lat="45.09337" lon="5.60016">
        <ele>1493.6</ele>
        <time>2020-08-23T11:17:24Z</time>
      </trkpt>
      <trkpt lat="45.09339" lon="5.60016">
        <ele>1493.8</ele>
        <time>2020-08-23T11:17:25Z</time>
      </trkpt>
      <trkpt lat="45.09341" lon="5.60016">
        <ele>1494</ele>
        <time>2020-08-23T11:17:26Z</time>
      </trkpt>
      <trkpt lat="45.09343" lon="5.60017">
        <ele>1494.2</ele>
        <time>2020-08-23T11:17:27Z</time>
      </trkpt>
      <trkpt lat="45.09344" lon="5.60017">
        <ele>1494.4</ele>
        <time>2020-08-23T11:17:28Z</time>
      </trkpt>
      <trkpt lat="45.09346" lon="5.60017">
        <ele>1494.4</ele>
        <time>2020-08-23T11:17:29Z</time>
      </trkpt>
      <trkpt lat="45.09347" lon="5.60017">
        <ele>1495.8</ele>
        <time>2020-08-23T11:17:55Z</time>
      </trkpt>
      <trkpt lat="45.09351" lon="5.60021">
        <ele>1495.8</ele>
        <time>2020-08-23T11:17:56Z</time>
      </trkpt>
      <trkpt lat="45.09353" lon="5.60022">
        <ele>1495.6</ele>
        <time>2020-08-23T11:17:57Z</time>
      </trkpt>
      <trkpt lat="45.09354" lon="5.60023">
        <ele>1495.6</ele>
        <time>2020-08-23T11:17:58Z</time>
      </trkpt>
      <trkpt lat="45.09356" lon="5.60024">
        <ele>1495.6</ele>
        <time>2020-08-23T11:17:59Z</time>
      </trkpt>
      <trkpt lat="45.09358" lon="5.60024">
        <ele>1495.6</ele>
        <time>2020-08-23T11:18:00Z</time>
      </trkpt>
      <trkpt lat="45.09359" lon="5.60025">
        <ele>1495.6</ele>
        <time>2020-08-23T11:18:01Z</time>
      </trkpt>
      <trkpt lat="45.09361" lon="5.60025">
        <ele>1495.4</ele>
        <time>2020-08-23T11:18:02Z</time>
      </trkpt>
      <trkpt lat="45.09363" lon="5.60025">
        <ele>1495.6</ele>
        <time>2020-08-23T11:18:03Z</time>
      </trkpt>
      <trkpt lat="45.09365" lon="5.60026">
        <ele>1495.6</ele>
        <time>2020-08-23T11:18:04Z</time>
      </trkpt>
      <trkpt lat="45.09367" lon="5.60027">
        <ele>1495.6</ele>
        <time>2020-08-23T11:18:05Z</time>
      </trkpt>
      <trkpt lat="45.09369" lon="5.60028">
        <ele>1495.6</ele>
        <time>2020-08-23T11:18:06Z</time>
      </trkpt>
      <trkpt lat="45.0937" lon="5.60029">
        <ele>1495.6</ele>
        <time>2020-08-23T11:18:07Z</time>
      </trkpt>
      <trkpt lat="45.09372" lon="5.6003">
        <ele>1495.6</ele>
        <time>2020-08-23T11:18:08Z</time>
      </trkpt>
      <trkpt lat="45.09374" lon="5.60031">
        <ele>1495.6</ele>
        <time>2020-08-23T11:18:09Z</time>
      </trkpt>
      <trkpt lat="45.09376" lon="5.60032">
        <ele>1495.6</ele>
        <time>2020-08-23T11:18:10Z</time>
      </trkpt>
      <trkpt lat="45.09378" lon="5.60033">
        <ele>1495.6</ele>
        <time>2020-08-23T11:18:11Z</time>
      </trkpt>
      <trkpt lat="45.0938" lon="5.60035">
        <ele>1495.8</ele>
        <time>2020-08-23T11:18:12Z</time>
      </trkpt>
      <trkpt lat="45.09382" lon="5.60036">
        <ele>1495.8</ele>
        <time>2020-08-23T11:18:13Z</time>
      </trkpt>
      <trkpt lat="45.09383" lon="5.60038">
        <ele>1495.8</ele>
        <time>2020-08-23T11:18:14Z</time>
      </trkpt>
      <trkpt lat="45.09385" lon="5.60039">
        <ele>1495.8</ele>
        <time>2020-08-23T11:18:15Z</time>
      </trkpt>
      <trkpt lat="45.09387" lon="5.6004">
        <ele>1496</ele>
        <time>2020-08-23T11:18:16Z</time>
      </trkpt>
      <trkpt lat="45.0939" lon="5.60041">
        <ele>1496</ele>
        <time>2020-08-23T11:18:17Z</time>
      </trkpt>
      <trkpt lat="45.09391" lon="5.60043">
        <ele>1496</ele>
        <time>2020-08-23T11:18:18Z</time>
      </trkpt>
      <trkpt lat="45.09393" lon="5.60044">
        <ele>1496.2</ele>
        <time>2020-08-23T11:18:19Z</time>
      </trkpt>
      <trkpt lat="45.09395" lon="5.60045">
        <ele>1496.2</ele>
        <time>2020-08-23T11:18:20Z</time>
      </trkpt>
      <trkpt lat="45.09397" lon="5.60046">
        <ele>1496.2</ele>
        <time>2020-08-23T11:18:21Z</time>
      </trkpt>
      <trkpt lat="45.09399" lon="5.60047">
        <ele>1496.4</ele>
        <time>2020-08-23T11:18:22Z</time>
      </trkpt>
      <trkpt lat="45.094" lon="5.60048">
        <ele>1496.4</ele>
        <time>2020-08-23T11:18:23Z</time>
      </trkpt>
      <trkpt lat="45.09402" lon="5.60049">
        <ele>1496.4</ele>
        <time>2020-08-23T11:18:24Z</time>
      </trkpt>
      <trkpt lat="45.09404" lon="5.6005">
        <ele>1496.6</ele>
        <time>2020-08-23T11:18:25Z</time>
      </trkpt>
      <trkpt lat="45.09406" lon="5.60052">
        <ele>1496.6</ele>
        <time>2020-08-23T11:18:26Z</time>
      </trkpt>
      <trkpt lat="45.09407" lon="5.60053">
        <ele>1496.6</ele>
        <time>2020-08-23T11:18:27Z</time>
      </trkpt>
      <trkpt lat="45.09409" lon="5.60055">
        <ele>1496.8</ele>
        <time>2020-08-23T11:18:28Z</time>
      </trkpt>
      <trkpt lat="45.09411" lon="5.60056">
        <ele>1496.8</ele>
        <time>2020-08-23T11:18:29Z</time>
      </trkpt>
      <trkpt lat="45.09413" lon="5.60057">
        <ele>1496.8</ele>
        <time>2020-08-23T11:18:30Z</time>
      </trkpt>
      <trkpt lat="45.09414" lon="5.60058">
        <ele>1497</ele>
        <time>2020-08-23T11:18:31Z</time>
      </trkpt>
      <trkpt lat="45.09416" lon="5.60059">
        <ele>1497</ele>
        <time>2020-08-23T11:18:32Z</time>
      </trkpt>
      <trkpt lat="45.09418" lon="5.60061">
        <ele>1497</ele>
        <time>2020-08-23T11:18:33Z</time>
      </trkpt>
      <trkpt lat="45.0942" lon="5.60062">
        <ele>1497</ele>
        <time>2020-08-23T11:18:34Z</time>
      </trkpt>
      <trkpt lat="45.09422" lon="5.60064">
        <ele>1497</ele>
        <time>2020-08-23T11:18:35Z</time>
      </trkpt>
      <trkpt lat="45.09424" lon="5.60065">
        <ele>1497.2</ele>
        <time>2020-08-23T11:18:36Z</time>
      </trkpt>
      <trkpt lat="45.09426" lon="5.60067">
        <ele>1497.2</ele>
        <time>2020-08-23T11:18:37Z</time>
      </trkpt>
      <trkpt lat="45.09428" lon="5.60068">
        <ele>1497.2</ele>
        <time>2020-08-23T11:18:38Z</time>
      </trkpt>
      <trkpt lat="45.0943" lon="5.6007">
        <ele>1497.2</ele>
        <time>2020-08-23T11:18:39Z</time>
      </trkpt>
      <trkpt lat="45.09432" lon="5.6007">
        <ele>1497.4</ele>
        <time>2020-08-23T11:18:40Z</time>
      </trkpt>
      <trkpt lat="45.09434" lon="5.60071">
        <ele>1497.4</ele>
        <time>2020-08-23T11:18:41Z</time>
      </trkpt>
      <trkpt lat="45.09436" lon="5.60071">
        <ele>1497.6</ele>
        <time>2020-08-23T11:18:42Z</time>
      </trkpt>
      <trkpt lat="45.09438" lon="5.60071">
        <ele>1497.6</ele>
        <time>2020-08-23T11:18:43Z</time>
      </trkpt>
      <trkpt lat="45.0944" lon="5.60072">
        <ele>1497.6</ele>
        <time>2020-08-23T11:18:44Z</time>
      </trkpt>
      <trkpt lat="45.09441" lon="5.60072">
        <ele>1497.8</ele>
        <time>2020-08-23T11:18:45Z</time>
      </trkpt>
      <trkpt lat="45.09443" lon="5.60073">
        <ele>1497.8</ele>
        <time>2020-08-23T11:18:46Z</time>
      </trkpt>
      <trkpt lat="45.09445" lon="5.60073">
        <ele>1498</ele>
        <time>2020-08-23T11:18:47Z</time>
      </trkpt>
      <trkpt lat="45.09447" lon="5.60073">
        <ele>1498</ele>
        <time>2020-08-23T11:18:48Z</time>
      </trkpt>
      <trkpt lat="45.09449" lon="5.60074">
        <ele>1498.2</ele>
        <time>2020-08-23T11:18:49Z</time>
      </trkpt>
      <trkpt lat="45.09451" lon="5.60073">
        <ele>1498.2</ele>
        <time>2020-08-23T11:18:50Z</time>
      </trkpt>
      <trkpt lat="45.09453" lon="5.60073">
        <ele>1498.4</ele>
        <time>2020-08-23T11:18:51Z</time>
      </trkpt>
      <trkpt lat="45.09455" lon="5.60072">
        <ele>1498.6</ele>
        <time>2020-08-23T11:18:52Z</time>
      </trkpt>
      <trkpt lat="45.09456" lon="5.60072">
        <ele>1498.6</ele>
        <time>2020-08-23T11:18:53Z</time>
      </trkpt>
      <trkpt lat="45.09458" lon="5.60072">
        <ele>1498.8</ele>
        <time>2020-08-23T11:18:54Z</time>
      </trkpt>
      <trkpt lat="45.0946" lon="5.60072">
        <ele>1499</ele>
        <time>2020-08-23T11:18:55Z</time>
      </trkpt>
      <trkpt lat="45.09462" lon="5.60072">
        <ele>1499</ele>
        <time>2020-08-23T11:18:56Z</time>
      </trkpt>
      <trkpt lat="45.09463" lon="5.60073">
        <ele>1499.2</ele>
        <time>2020-08-23T11:18:57Z</time>
      </trkpt>
      <trkpt lat="45.09465" lon="5.60073">
        <ele>1499.4</ele>
        <time>2020-08-23T11:18:58Z</time>
      </trkpt>
      <trkpt lat="45.09467" lon="5.60074">
        <ele>1499.6</ele>
        <time>2020-08-23T11:18:59Z</time>
      </trkpt>
      <trkpt lat="45.09469" lon="5.60074">
        <ele>1499.8</ele>
        <time>2020-08-23T11:19:00Z</time>
      </trkpt>
      <trkpt lat="45.0947" lon="5.60075">
        <ele>1499.8</ele>
        <time>2020-08-23T11:19:01Z</time>
      </trkpt>
      <trkpt lat="45.09472" lon="5.60075">
        <ele>1500</ele>
        <time>2020-08-23T11:19:02Z</time>
      </trkpt>
      <trkpt lat="45.09474" lon="5.60076">
        <ele>1500.2</ele>
        <time>2020-08-23T11:19:03Z</time>
      </trkpt>
      <trkpt lat="45.09476" lon="5.60076">
        <ele>1500.2</ele>
        <time>2020-08-23T11:19:04Z</time>
      </trkpt>
      <trkpt lat="45.09478" lon="5.60077">
        <ele>1500.4</ele>
        <time>2020-08-23T11:19:05Z</time>
      </trkpt>
      <trkpt lat="45.0948" lon="5.60077">
        <ele>1500.6</ele>
        <time>2020-08-23T11:19:06Z</time>
      </trkpt>
      <trkpt lat="45.09481" lon="5.60078">
        <ele>1500.6</ele>
        <time>2020-08-23T11:19:07Z</time>
      </trkpt>
      <trkpt lat="45.09484" lon="5.60079">
        <ele>1500.8</ele>
        <time>2020-08-23T11:19:08Z</time>
      </trkpt>
      <trkpt lat="45.09486" lon="5.6008">
        <ele>1500.8</ele>
        <time>2020-08-23T11:19:09Z</time>
      </trkpt>
      <trkpt lat="45.09488" lon="5.6008">
        <ele>1501</ele>
        <time>2020-08-23T11:19:10Z</time>
      </trkpt>
      <trkpt lat="45.0949" lon="5.60081">
        <ele>1501.2</ele>
        <time>2020-08-23T11:19:11Z</time>
      </trkpt>
      <trkpt lat="45.09492" lon="5.60082">
        <ele>1501.2</ele>
        <time>2020-08-23T11:19:12Z</time>
      </trkpt>
      <trkpt lat="45.09494" lon="5.60083">
        <ele>1501.4</ele>
        <time>2020-08-23T11:19:13Z</time>
      </trkpt>
      <trkpt lat="45.09496" lon="5.60083">
        <ele>1501.4</ele>
        <time>2020-08-23T11:19:14Z</time>
      </trkpt>
      <trkpt lat="45.09498" lon="5.60083">
        <ele>1501.6</ele>
        <time>2020-08-23T11:19:15Z</time>
      </trkpt>
      <trkpt lat="45.095" lon="5.60083">
        <ele>1501.8</ele>
        <time>2020-08-23T11:19:16Z</time>
      </trkpt>
      <trkpt lat="45.09502" lon="5.60083">
        <ele>1501.8</ele>
        <time>2020-08-23T11:19:17Z</time>
      </trkpt>
      <trkpt lat="45.09504" lon="5.60083">
        <ele>1502</ele>
        <time>2020-08-23T11:19:18Z</time>
      </trkpt>
      <trkpt lat="45.09506" lon="5.60084">
        <ele>1502.2</ele>
        <time>2020-08-23T11:19:19Z</time>
      </trkpt>
      <trkpt lat="45.09507" lon="5.60084">
        <ele>1502.2</ele>
        <time>2020-08-23T11:19:20Z</time>
      </trkpt>
      <trkpt lat="45.09509" lon="5.60084">
        <ele>1502.4</ele>
        <time>2020-08-23T11:19:21Z</time>
      </trkpt>
      <trkpt lat="45.09511" lon="5.60085">
        <ele>1502.6</ele>
        <time>2020-08-23T11:19:22Z</time>
      </trkpt>
      <trkpt lat="45.09513" lon="5.60085">
        <ele>1502.8</ele>
        <time>2020-08-23T11:19:23Z</time>
      </trkpt>
      <trkpt lat="45.09515" lon="5.60086">
        <ele>1502.8</ele>
        <time>2020-08-23T11:19:24Z</time>
      </trkpt>
      <trkpt lat="45.09517" lon="5.60086">
        <ele>1503</ele>
        <time>2020-08-23T11:19:25Z</time>
      </trkpt>
      <trkpt lat="45.09519" lon="5.60086">
        <ele>1503</ele>
        <time>2020-08-23T11:19:26Z</time>
      </trkpt>
      <trkpt lat="45.0952" lon="5.60087">
        <ele>1503.2</ele>
        <time>2020-08-23T11:19:27Z</time>
      </trkpt>
      <trkpt lat="45.09521" lon="5.60087">
        <ele>1503.4</ele>
        <time>2020-08-23T11:19:28Z</time>
      </trkpt>
      <trkpt lat="45.09522" lon="5.60087">
        <ele>1503.8</ele>
        <time>2020-08-23T11:19:32Z</time>
      </trkpt>
      <trkpt lat="45.09523" lon="5.60087">
        <ele>1503.8</ele>
        <time>2020-08-23T11:19:33Z</time>
      </trkpt>
      <trkpt lat="45.09524" lon="5.60088">
        <ele>1504</ele>
        <time>2020-08-23T11:19:34Z</time>
      </trkpt>
      <trkpt lat="45.09525" lon="5.60088">
        <ele>1504</ele>
        <time>2020-08-23T11:19:35Z</time>
      </trkpt>
      <trkpt lat="45.09526" lon="5.60089">
        <ele>1504</ele>
        <time>2020-08-23T11:19:36Z</time>
      </trkpt>
      <trkpt lat="45.09528" lon="5.60089">
        <ele>1504.2</ele>
        <time>2020-08-23T11:19:37Z</time>
      </trkpt>
      <trkpt lat="45.0953" lon="5.60089">
        <ele>1504.2</ele>
        <time>2020-08-23T11:19:38Z</time>
      </trkpt>
      <trkpt lat="45.09531" lon="5.60089">
        <ele>1504.2</ele>
        <time>2020-08-23T11:19:39Z</time>
      </trkpt>
      <trkpt lat="45.09533" lon="5.60088">
        <ele>1504.2</ele>
        <time>2020-08-23T11:19:40Z</time>
      </trkpt>
      <trkpt lat="45.09535" lon="5.60087">
        <ele>1504.4</ele>
        <time>2020-08-23T11:19:41Z</time>
      </trkpt>
      <trkpt lat="45.09537" lon="5.60087">
        <ele>1504.4</ele>
        <time>2020-08-23T11:19:42Z</time>
      </trkpt>
      <trkpt lat="45.09539" lon="5.60087">
        <ele>1504.4</ele>
        <time>2020-08-23T11:19:43Z</time>
      </trkpt>
      <trkpt lat="45.0954" lon="5.60087">
        <ele>1504.4</ele>
        <time>2020-08-23T11:19:44Z</time>
      </trkpt>
      <trkpt lat="45.09541" lon="5.60087">
        <ele>1504.6</ele>
        <time>2020-08-23T11:19:45Z</time>
      </trkpt>
      <trkpt lat="45.09542" lon="5.60088">
        <ele>1504.6</ele>
        <time>2020-08-23T11:19:46Z</time>
      </trkpt>
      <trkpt lat="45.09544" lon="5.60088">
        <ele>1504.6</ele>
        <time>2020-08-23T11:19:47Z</time>
      </trkpt>
      <trkpt lat="45.09546" lon="5.60088">
        <ele>1504.8</ele>
        <time>2020-08-23T11:19:48Z</time>
      </trkpt>
      <trkpt lat="45.09549" lon="5.60088">
        <ele>1504.8</ele>
        <time>2020-08-23T11:19:49Z</time>
      </trkpt>
      <trkpt lat="45.09552" lon="5.60089">
        <ele>1504.8</ele>
        <time>2020-08-23T11:19:50Z</time>
      </trkpt>
      <trkpt lat="45.09555" lon="5.60089">
        <ele>1505</ele>
        <time>2020-08-23T11:19:51Z</time>
      </trkpt>
      <trkpt lat="45.09557" lon="5.60089">
        <ele>1505</ele>
        <time>2020-08-23T11:19:52Z</time>
      </trkpt>
      <trkpt lat="45.0956" lon="5.60089">
        <ele>1505</ele>
        <time>2020-08-23T11:19:53Z</time>
      </trkpt>
      <trkpt lat="45.09562" lon="5.60088">
        <ele>1505.2</ele>
        <time>2020-08-23T11:19:54Z</time>
      </trkpt>
      <trkpt lat="45.09565" lon="5.60087">
        <ele>1505.2</ele>
        <time>2020-08-23T11:19:55Z</time>
      </trkpt>
      <trkpt lat="45.09568" lon="5.60086">
        <ele>1505.2</ele>
        <time>2020-08-23T11:19:56Z</time>
      </trkpt>
      <trkpt lat="45.09571" lon="5.60085">
        <ele>1505.2</ele>
        <time>2020-08-23T11:19:57Z</time>
      </trkpt>
      <trkpt lat="45.09573" lon="5.60084">
        <ele>1505.4</ele>
        <time>2020-08-23T11:19:58Z</time>
      </trkpt>
      <trkpt lat="45.09575" lon="5.60083">
        <ele>1505.4</ele>
        <time>2020-08-23T11:19:59Z</time>
      </trkpt>
      <trkpt lat="45.09578" lon="5.60082">
        <ele>1505.6</ele>
        <time>2020-08-23T11:20:00Z</time>
      </trkpt>
      <trkpt lat="45.0958" lon="5.60081">
        <ele>1505.6</ele>
        <time>2020-08-23T11:20:01Z</time>
      </trkpt>
      <trkpt lat="45.09582" lon="5.6008">
        <ele>1505.8</ele>
        <time>2020-08-23T11:20:02Z</time>
      </trkpt>
      <trkpt lat="45.09584" lon="5.60079">
        <ele>1505.8</ele>
        <time>2020-08-23T11:20:03Z</time>
      </trkpt>
      <trkpt lat="45.09586" lon="5.60078">
        <ele>1505.8</ele>
        <time>2020-08-23T11:20:04Z</time>
      </trkpt>
      <trkpt lat="45.09588" lon="5.60076">
        <ele>1505.8</ele>
        <time>2020-08-23T11:20:05Z</time>
      </trkpt>
      <trkpt lat="45.09589" lon="5.60074">
        <ele>1506</ele>
        <time>2020-08-23T11:20:06Z</time>
      </trkpt>
      <trkpt lat="45.09591" lon="5.60072">
        <ele>1506</ele>
        <time>2020-08-23T11:20:07Z</time>
      </trkpt>
      <trkpt lat="45.09592" lon="5.6007">
        <ele>1506.2</ele>
        <time>2020-08-23T11:20:08Z</time>
      </trkpt>
      <trkpt lat="45.09594" lon="5.60069">
        <ele>1506.2</ele>
        <time>2020-08-23T11:20:09Z</time>
      </trkpt>
      <trkpt lat="45.09596" lon="5.60067">
        <ele>1506.4</ele>
        <time>2020-08-23T11:20:10Z</time>
      </trkpt>
      <trkpt lat="45.09597" lon="5.60065">
        <ele>1506.4</ele>
        <time>2020-08-23T11:20:11Z</time>
      </trkpt>
      <trkpt lat="45.09599" lon="5.60064">
        <ele>1506.4</ele>
        <time>2020-08-23T11:20:12Z</time>
      </trkpt>
      <trkpt lat="45.096" lon="5.60062">
        <ele>1506.6</ele>
        <time>2020-08-23T11:20:13Z</time>
      </trkpt>
      <trkpt lat="45.09602" lon="5.6006">
        <ele>1506.6</ele>
        <time>2020-08-23T11:20:14Z</time>
      </trkpt>
      <trkpt lat="45.09604" lon="5.60059">
        <ele>1506.6</ele>
        <time>2020-08-23T11:20:15Z</time>
      </trkpt>
      <trkpt lat="45.09606" lon="5.60058">
        <ele>1506.8</ele>
        <time>2020-08-23T11:20:16Z</time>
      </trkpt>
      <trkpt lat="45.09607" lon="5.60058">
        <ele>1506.8</ele>
        <time>2020-08-23T11:20:17Z</time>
      </trkpt>
      <trkpt lat="45.09609" lon="5.60058">
        <ele>1506.8</ele>
        <time>2020-08-23T11:20:18Z</time>
      </trkpt>
      <trkpt lat="45.09611" lon="5.60057">
        <ele>1507</ele>
        <time>2020-08-23T11:20:19Z</time>
      </trkpt>
      <trkpt lat="45.09613" lon="5.60057">
        <ele>1507</ele>
        <time>2020-08-23T11:20:20Z</time>
      </trkpt>
      <trkpt lat="45.09615" lon="5.60057">
        <ele>1507</ele>
        <time>2020-08-23T11:20:21Z</time>
      </trkpt>
      <trkpt lat="45.09616" lon="5.60057">
        <ele>1507.2</ele>
        <time>2020-08-23T11:20:22Z</time>
      </trkpt>
      <trkpt lat="45.09618" lon="5.60057">
        <ele>1507.2</ele>
        <time>2020-08-23T11:20:23Z</time>
      </trkpt>
      <trkpt lat="45.0962" lon="5.60057">
        <ele>1507.4</ele>
        <time>2020-08-23T11:20:24Z</time>
      </trkpt>
      <trkpt lat="45.09621" lon="5.60057">
        <ele>1507.4</ele>
        <time>2020-08-23T11:20:25Z</time>
      </trkpt>
      <trkpt lat="45.09623" lon="5.60057">
        <ele>1507.6</ele>
        <time>2020-08-23T11:20:26Z</time>
      </trkpt>
      <trkpt lat="45.09625" lon="5.60057">
        <ele>1507.6</ele>
        <time>2020-08-23T11:20:27Z</time>
      </trkpt>
      <trkpt lat="45.09626" lon="5.60057">
        <ele>1507.8</ele>
        <time>2020-08-23T11:20:28Z</time>
      </trkpt>
      <trkpt lat="45.09628" lon="5.60056">
        <ele>1508</ele>
        <time>2020-08-23T11:20:29Z</time>
      </trkpt>
      <trkpt lat="45.0963" lon="5.60056">
        <ele>1508</ele>
        <time>2020-08-23T11:20:30Z</time>
      </trkpt>
      <trkpt lat="45.09631" lon="5.60055">
        <ele>1508.2</ele>
        <time>2020-08-23T11:20:31Z</time>
      </trkpt>
      <trkpt lat="45.09634" lon="5.60055">
        <ele>1508.2</ele>
        <time>2020-08-23T11:20:32Z</time>
      </trkpt>
      <trkpt lat="45.09635" lon="5.60055">
        <ele>1508.4</ele>
        <time>2020-08-23T11:20:33Z</time>
      </trkpt>
      <trkpt lat="45.09637" lon="5.60054">
        <ele>1508.6</ele>
        <time>2020-08-23T11:20:34Z</time>
      </trkpt>
      <trkpt lat="45.09639" lon="5.60054">
        <ele>1508.6</ele>
        <time>2020-08-23T11:20:35Z</time>
      </trkpt>
      <trkpt lat="45.09641" lon="5.60053">
        <ele>1508.8</ele>
        <time>2020-08-23T11:20:36Z</time>
      </trkpt>
      <trkpt lat="45.09643" lon="5.60052">
        <ele>1508.8</ele>
        <time>2020-08-23T11:20:37Z</time>
      </trkpt>
      <trkpt lat="45.09645" lon="5.60052">
        <ele>1509</ele>
        <time>2020-08-23T11:20:38Z</time>
      </trkpt>
      <trkpt lat="45.09647" lon="5.60051">
        <ele>1509.2</ele>
        <time>2020-08-23T11:20:39Z</time>
      </trkpt>
      <trkpt lat="45.09649" lon="5.6005">
        <ele>1509.2</ele>
        <time>2020-08-23T11:20:40Z</time>
      </trkpt>
      <trkpt lat="45.09651" lon="5.60049">
        <ele>1509.4</ele>
        <time>2020-08-23T11:20:41Z</time>
      </trkpt>
      <trkpt lat="45.09653" lon="5.60048">
        <ele>1509.6</ele>
        <time>2020-08-23T11:20:42Z</time>
      </trkpt>
      <trkpt lat="45.09655" lon="5.60048">
        <ele>1509.6</ele>
        <time>2020-08-23T11:20:43Z</time>
      </trkpt>
      <trkpt lat="45.09656" lon="5.60047">
        <ele>1509.8</ele>
        <time>2020-08-23T11:20:44Z</time>
      </trkpt>
      <trkpt lat="45.09658" lon="5.60046">
        <ele>1509.8</ele>
        <time>2020-08-23T11:20:45Z</time>
      </trkpt>
      <trkpt lat="45.09659" lon="5.60046">
        <ele>1510</ele>
        <time>2020-08-23T11:20:46Z</time>
      </trkpt>
      <trkpt lat="45.0966" lon="5.60046">
        <ele>1510</ele>
        <time>2020-08-23T11:20:47Z</time>
      </trkpt>
      <trkpt lat="45.09662" lon="5.60045">
        <ele>1510.2</ele>
        <time>2020-08-23T11:20:48Z</time>
      </trkpt>
      <trkpt lat="45.09664" lon="5.60045">
        <ele>1510.2</ele>
        <time>2020-08-23T11:20:49Z</time>
      </trkpt>
      <trkpt lat="45.09666" lon="5.60045">
        <ele>1510.2</ele>
        <time>2020-08-23T11:20:50Z</time>
      </trkpt>
      <trkpt lat="45.09668" lon="5.60045">
        <ele>1510.4</ele>
        <time>2020-08-23T11:20:51Z</time>
      </trkpt>
      <trkpt lat="45.09669" lon="5.60046">
        <ele>1510.6</ele>
        <time>2020-08-23T11:20:52Z</time>
      </trkpt>
      <trkpt lat="45.09671" lon="5.60047">
        <ele>1510.6</ele>
        <time>2020-08-23T11:20:53Z</time>
      </trkpt>
      <trkpt lat="45.09673" lon="5.60048">
        <ele>1510.8</ele>
        <time>2020-08-23T11:20:54Z</time>
      </trkpt>
      <trkpt lat="45.09674" lon="5.60049">
        <ele>1510.8</ele>
        <time>2020-08-23T11:20:55Z</time>
      </trkpt>
      <trkpt lat="45.09675" lon="5.60049">
        <ele>1510.8</ele>
        <time>2020-08-23T11:20:56Z</time>
      </trkpt>
      <trkpt lat="45.09677" lon="5.6005">
        <ele>1510.8</ele>
        <time>2020-08-23T11:20:57Z</time>
      </trkpt>
      <trkpt lat="45.09678" lon="5.6005">
        <ele>1511</ele>
        <time>2020-08-23T11:20:58Z</time>
      </trkpt>
      <trkpt lat="45.09678" lon="5.6005">
        <ele>1511</ele>
        <time>2020-08-23T11:20:59Z</time>
      </trkpt>
      <trkpt lat="45.09694" lon="5.60042">
        <ele>1511.2</ele>
        <time>2020-08-23T11:37:45Z</time>
      </trkpt>
      <trkpt lat="45.09699" lon="5.6004">
        <ele>1511.2</ele>
        <time>2020-08-23T11:37:46Z</time>
      </trkpt>
      <trkpt lat="45.09704" lon="5.60038">
        <ele>1511.2</ele>
        <time>2020-08-23T11:37:47Z</time>
      </trkpt>
      <trkpt lat="45.0971" lon="5.60033">
        <ele>1511.2</ele>
        <time>2020-08-23T11:37:48Z</time>
      </trkpt>
      <trkpt lat="45.09716" lon="5.60029">
        <ele>1511.2</ele>
        <time>2020-08-23T11:37:49Z</time>
      </trkpt>
      <trkpt lat="45.09722" lon="5.60024">
        <ele>1511.2</ele>
        <time>2020-08-23T11:37:50Z</time>
      </trkpt>
      <trkpt lat="45.09729" lon="5.6002">
        <ele>1511.2</ele>
        <time>2020-08-23T11:37:51Z</time>
      </trkpt>
      <trkpt lat="45.09735" lon="5.60017">
        <ele>1511.2</ele>
        <time>2020-08-23T11:37:52Z</time>
      </trkpt>
      <trkpt lat="45.09741" lon="5.60016">
        <ele>1511.4</ele>
        <time>2020-08-23T11:37:53Z</time>
      </trkpt>
      <trkpt lat="45.09747" lon="5.60016">
        <ele>1511.4</ele>
        <time>2020-08-23T11:37:54Z</time>
      </trkpt>
      <trkpt lat="45.09752" lon="5.60016">
        <ele>1511.4</ele>
        <time>2020-08-23T11:37:55Z</time>
      </trkpt>
      <trkpt lat="45.09756" lon="5.60017">
        <ele>1511.6</ele>
        <time>2020-08-23T11:37:56Z</time>
      </trkpt>
      <trkpt lat="45.09758" lon="5.60018">
        <ele>1511.6</ele>
        <time>2020-08-23T11:37:57Z</time>
      </trkpt>
      <trkpt lat="45.09761" lon="5.60018">
        <ele>1511.8</ele>
        <time>2020-08-23T11:37:58Z</time>
      </trkpt>
      <trkpt lat="45.09763" lon="5.60018">
        <ele>1511.8</ele>
        <time>2020-08-23T11:37:59Z</time>
      </trkpt>
      <trkpt lat="45.09766" lon="5.60019">
        <ele>1512</ele>
        <time>2020-08-23T11:38:00Z</time>
      </trkpt>
      <trkpt lat="45.09768" lon="5.60019">
        <ele>1512.2</ele>
        <time>2020-08-23T11:38:01Z</time>
      </trkpt>
      <trkpt lat="45.09771" lon="5.60019">
        <ele>1512.4</ele>
        <time>2020-08-23T11:38:02Z</time>
      </trkpt>
      <trkpt lat="45.09773" lon="5.60019">
        <ele>1512.6</ele>
        <time>2020-08-23T11:38:03Z</time>
      </trkpt>
      <trkpt lat="45.09775" lon="5.60018">
        <ele>1512.8</ele>
        <time>2020-08-23T11:38:04Z</time>
      </trkpt>
      <trkpt lat="45.09778" lon="5.60018">
        <ele>1513</ele>
        <time>2020-08-23T11:38:05Z</time>
      </trkpt>
      <trkpt lat="45.09779" lon="5.60018">
        <ele>1513.2</ele>
        <time>2020-08-23T11:38:06Z</time>
      </trkpt>
      <trkpt lat="45.09781" lon="5.60018">
        <ele>1513.4</ele>
        <time>2020-08-23T11:38:07Z</time>
      </trkpt>
      <trkpt lat="45.09783" lon="5.60018">
        <ele>1513.4</ele>
        <time>2020-08-23T11:38:08Z</time>
      </trkpt>
      <trkpt lat="45.09786" lon="5.60018">
        <ele>1513.4</ele>
        <time>2020-08-23T11:38:09Z</time>
      </trkpt>
      <trkpt lat="45.09787" lon="5.60017">
        <ele>1513.6</ele>
        <time>2020-08-23T11:38:10Z</time>
      </trkpt>
      <trkpt lat="45.09789" lon="5.60017">
        <ele>1513.8</ele>
        <time>2020-08-23T11:38:11Z</time>
      </trkpt>
      <trkpt lat="45.09791" lon="5.60016">
        <ele>1513.8</ele>
        <time>2020-08-23T11:38:12Z</time>
      </trkpt>
      <trkpt lat="45.09793" lon="5.60015">
        <ele>1514</ele>
        <time>2020-08-23T11:38:13Z</time>
      </trkpt>
      <trkpt lat="45.09794" lon="5.60014">
        <ele>1514</ele>
        <time>2020-08-23T11:38:14Z</time>
      </trkpt>
      <trkpt lat="45.09795" lon="5.60013">
        <ele>1514.2</ele>
        <time>2020-08-23T11:38:15Z</time>
      </trkpt>
      <trkpt lat="45.09796" lon="5.60012">
        <ele>1514.4</ele>
        <time>2020-08-23T11:38:16Z</time>
      </trkpt>
      <trkpt lat="45.09797" lon="5.60011">
        <ele>1514.4</ele>
        <time>2020-08-23T11:38:17Z</time>
      </trkpt>
      <trkpt lat="45.09798" lon="5.6001">
        <ele>1514.6</ele>
        <time>2020-08-23T11:38:18Z</time>
      </trkpt>
      <trkpt lat="45.098" lon="5.60009">
        <ele>1514.8</ele>
        <time>2020-08-23T11:38:19Z</time>
      </trkpt>
      <trkpt lat="45.09803" lon="5.60007">
        <ele>1514.8</ele>
        <time>2020-08-23T11:38:20Z</time>
      </trkpt>
      <trkpt lat="45.09805" lon="5.60006">
        <ele>1515</ele>
        <time>2020-08-23T11:38:21Z</time>
      </trkpt>
      <trkpt lat="45.09807" lon="5.60004">
        <ele>1515</ele>
        <time>2020-08-23T11:38:22Z</time>
      </trkpt>
      <trkpt lat="45.0981" lon="5.60001">
        <ele>1515</ele>
        <time>2020-08-23T11:38:23Z</time>
      </trkpt>
      <trkpt lat="45.09812" lon="5.59999">
        <ele>1515.2</ele>
        <time>2020-08-23T11:38:24Z</time>
      </trkpt>
      <trkpt lat="45.09815" lon="5.59997">
        <ele>1515.2</ele>
        <time>2020-08-23T11:38:25Z</time>
      </trkpt>
      <trkpt lat="45.09818" lon="5.59995">
        <ele>1515.2</ele>
        <time>2020-08-23T11:38:26Z</time>
      </trkpt>
      <trkpt lat="45.09821" lon="5.59993">
        <ele>1515.2</ele>
        <time>2020-08-23T11:38:27Z</time>
      </trkpt>
      <trkpt lat="45.09823" lon="5.59992">
        <ele>1515.4</ele>
        <time>2020-08-23T11:38:28Z</time>
      </trkpt>
      <trkpt lat="45.09826" lon="5.59991">
        <ele>1515.4</ele>
        <time>2020-08-23T11:38:29Z</time>
      </trkpt>
      <trkpt lat="45.09829" lon="5.5999">
        <ele>1515.6</ele>
        <time>2020-08-23T11:38:30Z</time>
      </trkpt>
      <trkpt lat="45.09831" lon="5.59989">
        <ele>1515.6</ele>
        <time>2020-08-23T11:38:31Z</time>
      </trkpt>
      <trkpt lat="45.09834" lon="5.59989">
        <ele>1515.8</ele>
        <time>2020-08-23T11:38:32Z</time>
      </trkpt>
      <trkpt lat="45.09836" lon="5.59988">
        <ele>1515.8</ele>
        <time>2020-08-23T11:38:33Z</time>
      </trkpt>
      <trkpt lat="45.09839" lon="5.59988">
        <ele>1515.8</ele>
        <time>2020-08-23T11:38:34Z</time>
      </trkpt>
      <trkpt lat="45.09841" lon="5.59988">
        <ele>1516</ele>
        <time>2020-08-23T11:38:35Z</time>
      </trkpt>
      <trkpt lat="45.09843" lon="5.59989">
        <ele>1516</ele>
        <time>2020-08-23T11:38:36Z</time>
      </trkpt>
      <trkpt lat="45.09846" lon="5.5999">
        <ele>1516.2</ele>
        <time>2020-08-23T11:38:37Z</time>
      </trkpt>
      <trkpt lat="45.09848" lon="5.59991">
        <ele>1516.2</ele>
        <time>2020-08-23T11:38:38Z</time>
      </trkpt>
      <trkpt lat="45.09851" lon="5.59992">
        <ele>1516.4</ele>
        <time>2020-08-23T11:38:39Z</time>
      </trkpt>
      <trkpt lat="45.09854" lon="5.59993">
        <ele>1516.4</ele>
        <time>2020-08-23T11:38:40Z</time>
      </trkpt>
      <trkpt lat="45.09858" lon="5.59994">
        <ele>1516.6</ele>
        <time>2020-08-23T11:38:41Z</time>
      </trkpt>
      <trkpt lat="45.09862" lon="5.59995">
        <ele>1516.6</ele>
        <time>2020-08-23T11:38:42Z</time>
      </trkpt>
      <trkpt lat="45.09867" lon="5.59996">
        <ele>1516.8</ele>
        <time>2020-08-23T11:38:43Z</time>
      </trkpt>
      <trkpt lat="45.09873" lon="5.59997">
        <ele>1516.8</ele>
        <time>2020-08-23T11:38:44Z</time>
      </trkpt>
      <trkpt lat="45.0988" lon="5.59998">
        <ele>1517</ele>
        <time>2020-08-23T11:38:45Z</time>
      </trkpt>
      <trkpt lat="45.09887" lon="5.59997">
        <ele>1517</ele>
        <time>2020-08-23T11:38:46Z</time>
      </trkpt>
      <trkpt lat="45.09895" lon="5.59996">
        <ele>1517</ele>
        <time>2020-08-23T11:38:47Z</time>
      </trkpt>
      <trkpt lat="45.09902" lon="5.59995">
        <ele>1517</ele>
        <time>2020-08-23T11:38:48Z</time>
      </trkpt>
      <trkpt lat="45.09908" lon="5.59994">
        <ele>1517</ele>
        <time>2020-08-23T11:38:49Z</time>
      </trkpt>
      <trkpt lat="45.09914" lon="5.59994">
        <ele>1517.2</ele>
        <time>2020-08-23T11:38:50Z</time>
      </trkpt>
      <trkpt lat="45.09919" lon="5.59995">
        <ele>1517.4</ele>
        <time>2020-08-23T11:38:51Z</time>
      </trkpt>
      <trkpt lat="45.09922" lon="5.59996">
        <ele>1517.6</ele>
        <time>2020-08-23T11:38:52Z</time>
      </trkpt>
      <trkpt lat="45.09925" lon="5.59999">
        <ele>1518</ele>
        <time>2020-08-23T11:38:53Z</time>
      </trkpt>
      <trkpt lat="45.09927" lon="5.6">
        <ele>1518.2</ele>
        <time>2020-08-23T11:38:54Z</time>
      </trkpt>
      <trkpt lat="45.09929" lon="5.60002">
        <ele>1518.6</ele>
        <time>2020-08-23T11:38:55Z</time>
      </trkpt>
      <trkpt lat="45.09931" lon="5.60004">
        <ele>1518.8</ele>
        <time>2020-08-23T11:38:56Z</time>
      </trkpt>
      <trkpt lat="45.09933" lon="5.60006">
        <ele>1519</ele>
        <time>2020-08-23T11:38:57Z</time>
      </trkpt>
      <trkpt lat="45.09935" lon="5.60007">
        <ele>1519.2</ele>
        <time>2020-08-23T11:38:58Z</time>
      </trkpt>
      <trkpt lat="45.09937" lon="5.60008">
        <ele>1519.4</ele>
        <time>2020-08-23T11:38:59Z</time>
      </trkpt>
      <trkpt lat="45.0994" lon="5.60009">
        <ele>1519.8</ele>
        <time>2020-08-23T11:39:00Z</time>
      </trkpt>
      <trkpt lat="45.09942" lon="5.60009">
        <ele>1519.8</ele>
        <time>2020-08-23T11:39:01Z</time>
      </trkpt>
      <trkpt lat="45.09945" lon="5.60008">
        <ele>1519.4</ele>
        <time>2020-08-23T11:39:02Z</time>
      </trkpt>
      <trkpt lat="45.09947" lon="5.60007">
        <ele>1519.2</ele>
        <time>2020-08-23T11:39:03Z</time>
      </trkpt>
      <trkpt lat="45.0995" lon="5.60005">
        <ele>1519</ele>
        <time>2020-08-23T11:39:04Z</time>
      </trkpt>
      <trkpt lat="45.09952" lon="5.60003">
        <ele>1519</ele>
        <time>2020-08-23T11:39:05Z</time>
      </trkpt>
      <trkpt lat="45.09954" lon="5.60001">
        <ele>1519</ele>
        <time>2020-08-23T11:39:06Z</time>
      </trkpt>
      <trkpt lat="45.09956" lon="5.59999">
        <ele>1519</ele>
        <time>2020-08-23T11:39:07Z</time>
      </trkpt>
      <trkpt lat="45.09958" lon="5.59997">
        <ele>1519</ele>
        <time>2020-08-23T11:39:08Z</time>
      </trkpt>
      <trkpt lat="45.09959" lon="5.59994">
        <ele>1519.2</ele>
        <time>2020-08-23T11:39:09Z</time>
      </trkpt>
      <trkpt lat="45.0996" lon="5.59992">
        <ele>1519.4</ele>
        <time>2020-08-23T11:39:10Z</time>
      </trkpt>
      <trkpt lat="45.09961" lon="5.5999">
        <ele>1519.6</ele>
        <time>2020-08-23T11:39:11Z</time>
      </trkpt>
      <trkpt lat="45.09963" lon="5.59988">
        <ele>1519.8</ele>
        <time>2020-08-23T11:39:12Z</time>
      </trkpt>
      <trkpt lat="45.09964" lon="5.59987">
        <ele>1519.8</ele>
        <time>2020-08-23T11:39:13Z</time>
      </trkpt>
      <trkpt lat="45.09965" lon="5.59985">
        <ele>1520</ele>
        <time>2020-08-23T11:39:14Z</time>
      </trkpt>
      <trkpt lat="45.09966" lon="5.59984">
        <ele>1520.2</ele>
        <time>2020-08-23T11:39:15Z</time>
      </trkpt>
      <trkpt lat="45.09967" lon="5.59983">
        <ele>1520.4</ele>
        <time>2020-08-23T11:39:16Z</time>
      </trkpt>
      <trkpt lat="45.09968" lon="5.59982">
        <ele>1520.6</ele>
        <time>2020-08-23T11:39:17Z</time>
      </trkpt>
      <trkpt lat="45.09969" lon="5.59981">
        <ele>1521</ele>
        <time>2020-08-23T11:39:18Z</time>
      </trkpt>
      <trkpt lat="45.0997" lon="5.5998">
        <ele>1521.2</ele>
        <time>2020-08-23T11:39:19Z</time>
      </trkpt>
      <trkpt lat="45.09971" lon="5.59978">
        <ele>1521.4</ele>
        <time>2020-08-23T11:39:20Z</time>
      </trkpt>
      <trkpt lat="45.09972" lon="5.59977">
        <ele>1521.6</ele>
        <time>2020-08-23T11:39:21Z</time>
      </trkpt>
      <trkpt lat="45.09974" lon="5.59976">
        <ele>1521.8</ele>
        <time>2020-08-23T11:39:22Z</time>
      </trkpt>
      <trkpt lat="45.09975" lon="5.59974">
        <ele>1522</ele>
        <time>2020-08-23T11:39:23Z</time>
      </trkpt>
      <trkpt lat="45.09977" lon="5.59973">
        <ele>1522.2</ele>
        <time>2020-08-23T11:39:24Z</time>
      </trkpt>
      <trkpt lat="45.09978" lon="5.59972">
        <ele>1522.2</ele>
        <time>2020-08-23T11:39:25Z</time>
      </trkpt>
      <trkpt lat="45.0998" lon="5.59971">
        <ele>1522.4</ele>
        <time>2020-08-23T11:39:26Z</time>
      </trkpt>
      <trkpt lat="45.09981" lon="5.59971">
        <ele>1522.6</ele>
        <time>2020-08-23T11:39:27Z</time>
      </trkpt>
      <trkpt lat="45.09983" lon="5.5997">
        <ele>1522.8</ele>
        <time>2020-08-23T11:39:28Z</time>
      </trkpt>
      <trkpt lat="45.09985" lon="5.5997">
        <ele>1523</ele>
        <time>2020-08-23T11:39:29Z</time>
      </trkpt>
      <trkpt lat="45.09986" lon="5.59969">
        <ele>1523.2</ele>
        <time>2020-08-23T11:39:30Z</time>
      </trkpt>
      <trkpt lat="45.09988" lon="5.59969">
        <ele>1523.4</ele>
        <time>2020-08-23T11:39:31Z</time>
      </trkpt>
      <trkpt lat="45.09989" lon="5.59968">
        <ele>1523.6</ele>
        <time>2020-08-23T11:39:32Z</time>
      </trkpt>
      <trkpt lat="45.0999" lon="5.59967">
        <ele>1523.8</ele>
        <time>2020-08-23T11:39:33Z</time>
      </trkpt>
      <trkpt lat="45.09992" lon="5.59967">
        <ele>1524</ele>
        <time>2020-08-23T11:39:34Z</time>
      </trkpt>
      <trkpt lat="45.09993" lon="5.59967">
        <ele>1524.2</ele>
        <time>2020-08-23T11:39:35Z</time>
      </trkpt>
      <trkpt lat="45.09995" lon="5.59967">
        <ele>1524.4</ele>
        <time>2020-08-23T11:39:36Z</time>
      </trkpt>
      <trkpt lat="45.09998" lon="5.59967">
        <ele>1524.4</ele>
        <time>2020-08-23T11:39:37Z</time>
      </trkpt>
      <trkpt lat="45.1" lon="5.59967">
        <ele>1524.6</ele>
        <time>2020-08-23T11:39:38Z</time>
      </trkpt>
      <trkpt lat="45.10002" lon="5.59967">
        <ele>1524.8</ele>
        <time>2020-08-23T11:39:39Z</time>
      </trkpt>
      <trkpt lat="45.10005" lon="5.59966">
        <ele>1525</ele>
        <time>2020-08-23T11:39:40Z</time>
      </trkpt>
      <trkpt lat="45.10008" lon="5.59966">
        <ele>1525</ele>
        <time>2020-08-23T11:39:41Z</time>
      </trkpt>
      <trkpt lat="45.10011" lon="5.59965">
        <ele>1525.2</ele>
        <time>2020-08-23T11:39:42Z</time>
      </trkpt>
      <trkpt lat="45.10014" lon="5.59965">
        <ele>1525.2</ele>
        <time>2020-08-23T11:39:43Z</time>
      </trkpt>
      <trkpt lat="45.10017" lon="5.59963">
        <ele>1525.4</ele>
        <time>2020-08-23T11:39:44Z</time>
      </trkpt>
      <trkpt lat="45.1002" lon="5.59961">
        <ele>1525.6</ele>
        <time>2020-08-23T11:39:45Z</time>
      </trkpt>
      <trkpt lat="45.10025" lon="5.59958">
        <ele>1525.6</ele>
        <time>2020-08-23T11:39:46Z</time>
      </trkpt>
      <trkpt lat="45.1003" lon="5.59954">
        <ele>1525.8</ele>
        <time>2020-08-23T11:39:47Z</time>
      </trkpt>
      <trkpt lat="45.10034" lon="5.59951">
        <ele>1526</ele>
        <time>2020-08-23T11:39:48Z</time>
      </trkpt>
      <trkpt lat="45.10038" lon="5.59947">
        <ele>1526</ele>
        <time>2020-08-23T11:39:49Z</time>
      </trkpt>
      <trkpt lat="45.10042" lon="5.59944">
        <ele>1526.2</ele>
        <time>2020-08-23T11:39:50Z</time>
      </trkpt>
      <trkpt lat="45.10045" lon="5.59943">
        <ele>1526.2</ele>
        <time>2020-08-23T11:39:51Z</time>
      </trkpt>
      <trkpt lat="45.10047" lon="5.59941">
        <ele>1526.4</ele>
        <time>2020-08-23T11:39:52Z</time>
      </trkpt>
      <trkpt lat="45.10049" lon="5.5994">
        <ele>1526.4</ele>
        <time>2020-08-23T11:39:53Z</time>
      </trkpt>
      <trkpt lat="45.10052" lon="5.59939">
        <ele>1526.4</ele>
        <time>2020-08-23T11:39:54Z</time>
      </trkpt>
      <trkpt lat="45.10054" lon="5.59938">
        <ele>1526.6</ele>
        <time>2020-08-23T11:39:55Z</time>
      </trkpt>
      <trkpt lat="45.10057" lon="5.59938">
        <ele>1526.6</ele>
        <time>2020-08-23T11:39:56Z</time>
      </trkpt>
      <trkpt lat="45.1006" lon="5.59937">
        <ele>1526.8</ele>
        <time>2020-08-23T11:39:57Z</time>
      </trkpt>
      <trkpt lat="45.10063" lon="5.59937">
        <ele>1526.8</ele>
        <time>2020-08-23T11:39:58Z</time>
      </trkpt>
      <trkpt lat="45.10066" lon="5.59936">
        <ele>1527</ele>
        <time>2020-08-23T11:39:59Z</time>
      </trkpt>
      <trkpt lat="45.10068" lon="5.59936">
        <ele>1527.2</ele>
        <time>2020-08-23T11:40:00Z</time>
      </trkpt>
      <trkpt lat="45.1007" lon="5.59935">
        <ele>1527.2</ele>
        <time>2020-08-23T11:40:01Z</time>
      </trkpt>
      <trkpt lat="45.10073" lon="5.59934">
        <ele>1527.2</ele>
        <time>2020-08-23T11:40:02Z</time>
      </trkpt>
      <trkpt lat="45.10075" lon="5.59934">
        <ele>1527.4</ele>
        <time>2020-08-23T11:40:03Z</time>
      </trkpt>
      <trkpt lat="45.10078" lon="5.59933">
        <ele>1527.4</ele>
        <time>2020-08-23T11:40:04Z</time>
      </trkpt>
      <trkpt lat="45.1008" lon="5.59933">
        <ele>1527.6</ele>
        <time>2020-08-23T11:40:05Z</time>
      </trkpt>
      <trkpt lat="45.10083" lon="5.59932">
        <ele>1527.6</ele>
        <time>2020-08-23T11:40:06Z</time>
      </trkpt>
      <trkpt lat="45.10086" lon="5.59931">
        <ele>1527.8</ele>
        <time>2020-08-23T11:40:07Z</time>
      </trkpt>
      <trkpt lat="45.10089" lon="5.5993">
        <ele>1527.8</ele>
        <time>2020-08-23T11:40:08Z</time>
      </trkpt>
      <trkpt lat="45.10092" lon="5.5993">
        <ele>1528</ele>
        <time>2020-08-23T11:40:09Z</time>
      </trkpt>
      <trkpt lat="45.10095" lon="5.59929">
        <ele>1528</ele>
        <time>2020-08-23T11:40:10Z</time>
      </trkpt>
      <trkpt lat="45.10099" lon="5.59928">
        <ele>1528.2</ele>
        <time>2020-08-23T11:40:11Z</time>
      </trkpt>
      <trkpt lat="45.10102" lon="5.59928">
        <ele>1528.2</ele>
        <time>2020-08-23T11:40:12Z</time>
      </trkpt>
      <trkpt lat="45.10105" lon="5.59927">
        <ele>1528.2</ele>
        <time>2020-08-23T11:40:13Z</time>
      </trkpt>
      <trkpt lat="45.10108" lon="5.59927">
        <ele>1528.4</ele>
        <time>2020-08-23T11:40:14Z</time>
      </trkpt>
      <trkpt lat="45.10111" lon="5.59926">
        <ele>1528.4</ele>
        <time>2020-08-23T11:40:15Z</time>
      </trkpt>
      <trkpt lat="45.10114" lon="5.59926">
        <ele>1528.6</ele>
        <time>2020-08-23T11:40:16Z</time>
      </trkpt>
      <trkpt lat="45.10117" lon="5.59926">
        <ele>1528.8</ele>
        <time>2020-08-23T11:40:17Z</time>
      </trkpt>
      <trkpt lat="45.10119" lon="5.59925">
        <ele>1528.8</ele>
        <time>2020-08-23T11:40:18Z</time>
      </trkpt>
      <trkpt lat="45.10122" lon="5.59925">
        <ele>1529</ele>
        <time>2020-08-23T11:40:19Z</time>
      </trkpt>
      <trkpt lat="45.10125" lon="5.59925">
        <ele>1529.2</ele>
        <time>2020-08-23T11:40:20Z</time>
      </trkpt>
      <trkpt lat="45.10128" lon="5.59926">
        <ele>1529.2</ele>
        <time>2020-08-23T11:40:21Z</time>
      </trkpt>
      <trkpt lat="45.1013" lon="5.59926">
        <ele>1529.4</ele>
        <time>2020-08-23T11:40:22Z</time>
      </trkpt>
      <trkpt lat="45.10133" lon="5.59926">
        <ele>1529.6</ele>
        <time>2020-08-23T11:40:23Z</time>
      </trkpt>
      <trkpt lat="45.10136" lon="5.59927">
        <ele>1529.8</ele>
        <time>2020-08-23T11:40:24Z</time>
      </trkpt>
      <trkpt lat="45.10139" lon="5.59928">
        <ele>1530</ele>
        <time>2020-08-23T11:40:25Z</time>
      </trkpt>
      <trkpt lat="45.10142" lon="5.59929">
        <ele>1530</ele>
        <time>2020-08-23T11:40:26Z</time>
      </trkpt>
      <trkpt lat="45.10145" lon="5.59929">
        <ele>1530.2</ele>
        <time>2020-08-23T11:40:27Z</time>
      </trkpt>
      <trkpt lat="45.10148" lon="5.59929">
        <ele>1530.2</ele>
        <time>2020-08-23T11:40:28Z</time>
      </trkpt>
      <trkpt lat="45.10151" lon="5.59929">
        <ele>1530.4</ele>
        <time>2020-08-23T11:40:29Z</time>
      </trkpt>
      <trkpt lat="45.10154" lon="5.59929">
        <ele>1530.6</ele>
        <time>2020-08-23T11:40:30Z</time>
      </trkpt>
      <trkpt lat="45.10156" lon="5.59928">
        <ele>1530.6</ele>
        <time>2020-08-23T11:40:31Z</time>
      </trkpt>
      <trkpt lat="45.10159" lon="5.59928">
        <ele>1530.8</ele>
        <time>2020-08-23T11:40:32Z</time>
      </trkpt>
      <trkpt lat="45.10162" lon="5.59927">
        <ele>1531</ele>
        <time>2020-08-23T11:40:33Z</time>
      </trkpt>
      <trkpt lat="45.10164" lon="5.59927">
        <ele>1531</ele>
        <time>2020-08-23T11:40:34Z</time>
      </trkpt>
      <trkpt lat="45.10166" lon="5.59926">
        <ele>1531.2</ele>
        <time>2020-08-23T11:40:35Z</time>
      </trkpt>
      <trkpt lat="45.10168" lon="5.59926">
        <ele>1531.4</ele>
        <time>2020-08-23T11:40:36Z</time>
      </trkpt>
      <trkpt lat="45.1017" lon="5.59925">
        <ele>1531.4</ele>
        <time>2020-08-23T11:40:37Z</time>
      </trkpt>
      <trkpt lat="45.10172" lon="5.59925">
        <ele>1531.6</ele>
        <time>2020-08-23T11:40:38Z</time>
      </trkpt>
      <trkpt lat="45.10174" lon="5.59925">
        <ele>1531.8</ele>
        <time>2020-08-23T11:40:39Z</time>
      </trkpt>
      <trkpt lat="45.10175" lon="5.59926">
        <ele>1532</ele>
        <time>2020-08-23T11:40:40Z</time>
      </trkpt>
      <trkpt lat="45.10177" lon="5.59926">
        <ele>1532</ele>
        <time>2020-08-23T11:40:41Z</time>
      </trkpt>
      <trkpt lat="45.10179" lon="5.59926">
        <ele>1532</ele>
        <time>2020-08-23T11:40:42Z</time>
      </trkpt>
      <trkpt lat="45.10181" lon="5.59925">
        <ele>1532.2</ele>
        <time>2020-08-23T11:40:43Z</time>
      </trkpt>
      <trkpt lat="45.10183" lon="5.59925">
        <ele>1532.2</ele>
        <time>2020-08-23T11:40:44Z</time>
      </trkpt>
      <trkpt lat="45.10185" lon="5.59925">
        <ele>1532.2</ele>
        <time>2020-08-23T11:40:45Z</time>
      </trkpt>
      <trkpt lat="45.10187" lon="5.59924">
        <ele>1532.4</ele>
        <time>2020-08-23T11:40:46Z</time>
      </trkpt>
      <trkpt lat="45.10188" lon="5.59924">
        <ele>1532.4</ele>
        <time>2020-08-23T11:40:47Z</time>
      </trkpt>
      <trkpt lat="45.10191" lon="5.59923">
        <ele>1532.4</ele>
        <time>2020-08-23T11:40:48Z</time>
      </trkpt>
      <trkpt lat="45.10193" lon="5.59923">
        <ele>1532.4</ele>
        <time>2020-08-23T11:40:49Z</time>
      </trkpt>
      <trkpt lat="45.10194" lon="5.59922">
        <ele>1532.4</ele>
        <time>2020-08-23T11:40:50Z</time>
      </trkpt>
      <trkpt lat="45.10196" lon="5.59922">
        <ele>1532.4</ele>
        <time>2020-08-23T11:40:51Z</time>
      </trkpt>
      <trkpt lat="45.10199" lon="5.59921">
        <ele>1532.4</ele>
        <time>2020-08-23T11:40:52Z</time>
      </trkpt>
      <trkpt lat="45.10201" lon="5.59921">
        <ele>1532.4</ele>
        <time>2020-08-23T11:40:53Z</time>
      </trkpt>
      <trkpt lat="45.10203" lon="5.5992">
        <ele>1532.6</ele>
        <time>2020-08-23T11:40:54Z</time>
      </trkpt>
      <trkpt lat="45.10205" lon="5.5992">
        <ele>1532.6</ele>
        <time>2020-08-23T11:40:55Z</time>
      </trkpt>
      <trkpt lat="45.10207" lon="5.59919">
        <ele>1532.6</ele>
        <time>2020-08-23T11:40:56Z</time>
      </trkpt>
      <trkpt lat="45.1021" lon="5.59919">
        <ele>1532.8</ele>
        <time>2020-08-23T11:40:57Z</time>
      </trkpt>
      <trkpt lat="45.10212" lon="5.59918">
        <ele>1532.8</ele>
        <time>2020-08-23T11:40:58Z</time>
      </trkpt>
      <trkpt lat="45.10215" lon="5.59918">
        <ele>1532.8</ele>
        <time>2020-08-23T11:40:59Z</time>
      </trkpt>
      <trkpt lat="45.10217" lon="5.59917">
        <ele>1533</ele>
        <time>2020-08-23T11:41:00Z</time>
      </trkpt>
      <trkpt lat="45.1022" lon="5.59916">
        <ele>1533</ele>
        <time>2020-08-23T11:41:01Z</time>
      </trkpt>
      <trkpt lat="45.10223" lon="5.59915">
        <ele>1533</ele>
        <time>2020-08-23T11:41:02Z</time>
      </trkpt>
      <trkpt lat="45.10226" lon="5.59915">
        <ele>1533.2</ele>
        <time>2020-08-23T11:41:03Z</time>
      </trkpt>
      <trkpt lat="45.10228" lon="5.59914">
        <ele>1533.2</ele>
        <time>2020-08-23T11:41:04Z</time>
      </trkpt>
      <trkpt lat="45.10231" lon="5.59914">
        <ele>1533.2</ele>
        <time>2020-08-23T11:41:05Z</time>
      </trkpt>
      <trkpt lat="45.10234" lon="5.59913">
        <ele>1533.4</ele>
        <time>2020-08-23T11:41:06Z</time>
      </trkpt>
      <trkpt lat="45.10237" lon="5.59913">
        <ele>1533.4</ele>
        <time>2020-08-23T11:41:07Z</time>
      </trkpt>
      <trkpt lat="45.10239" lon="5.59912">
        <ele>1533.4</ele>
        <time>2020-08-23T11:41:08Z</time>
      </trkpt>
      <trkpt lat="45.10243" lon="5.59911">
        <ele>1533.4</ele>
        <time>2020-08-23T11:41:09Z</time>
      </trkpt>
      <trkpt lat="45.10246" lon="5.59911">
        <ele>1533.4</ele>
        <time>2020-08-23T11:41:10Z</time>
      </trkpt>
      <trkpt lat="45.10251" lon="5.59911">
        <ele>1533.6</ele>
        <time>2020-08-23T11:41:11Z</time>
      </trkpt>
      <trkpt lat="45.10255" lon="5.59911">
        <ele>1533.6</ele>
        <time>2020-08-23T11:41:12Z</time>
      </trkpt>
      <trkpt lat="45.10259" lon="5.59911">
        <ele>1533.6</ele>
        <time>2020-08-23T11:41:13Z</time>
      </trkpt>
      <trkpt lat="45.10265" lon="5.59911">
        <ele>1533.6</ele>
        <time>2020-08-23T11:41:14Z</time>
      </trkpt>
      <trkpt lat="45.1027" lon="5.59911">
        <ele>1533.8</ele>
        <time>2020-08-23T11:41:15Z</time>
      </trkpt>
      <trkpt lat="45.10276" lon="5.5991">
        <ele>1533.8</ele>
        <time>2020-08-23T11:41:16Z</time>
      </trkpt>
      <trkpt lat="45.10282" lon="5.59909">
        <ele>1533.6</ele>
        <time>2020-08-23T11:41:17Z</time>
      </trkpt>
      <trkpt lat="45.10287" lon="5.59908">
        <ele>1533.6</ele>
        <time>2020-08-23T11:41:18Z</time>
      </trkpt>
      <trkpt lat="45.10292" lon="5.59907">
        <ele>1533.8</ele>
        <time>2020-08-23T11:41:19Z</time>
      </trkpt>
      <trkpt lat="45.10297" lon="5.59906">
        <ele>1533.8</ele>
        <time>2020-08-23T11:41:20Z</time>
      </trkpt>
      <trkpt lat="45.10302" lon="5.59905">
        <ele>1533.8</ele>
        <time>2020-08-23T11:41:21Z</time>
      </trkpt>
      <trkpt lat="45.10308" lon="5.59905">
        <ele>1534</ele>
        <time>2020-08-23T11:41:22Z</time>
      </trkpt>
      <trkpt lat="45.10314" lon="5.59905">
        <ele>1534</ele>
        <time>2020-08-23T11:41:23Z</time>
      </trkpt>
      <trkpt lat="45.10321" lon="5.59905">
        <ele>1534.2</ele>
        <time>2020-08-23T11:41:24Z</time>
      </trkpt>
      <trkpt lat="45.10329" lon="5.59905">
        <ele>1534.2</ele>
        <time>2020-08-23T11:41:25Z</time>
      </trkpt>
      <trkpt lat="45.10336" lon="5.59904">
        <ele>1534.2</ele>
        <time>2020-08-23T11:41:26Z</time>
      </trkpt>
      <trkpt lat="45.10342" lon="5.59904">
        <ele>1534.2</ele>
        <time>2020-08-23T11:41:27Z</time>
      </trkpt>
      <trkpt lat="45.10346" lon="5.59903">
        <ele>1534.4</ele>
        <time>2020-08-23T11:41:28Z</time>
      </trkpt>
      <trkpt lat="45.10349" lon="5.59902">
        <ele>1534.6</ele>
        <time>2020-08-23T11:41:29Z</time>
      </trkpt>
      <trkpt lat="45.10351" lon="5.59901">
        <ele>1534.8</ele>
        <time>2020-08-23T11:41:30Z</time>
      </trkpt>
      <trkpt lat="45.10353" lon="5.599">
        <ele>1535</ele>
        <time>2020-08-23T11:41:31Z</time>
      </trkpt>
      <trkpt lat="45.10355" lon="5.599">
        <ele>1535.2</ele>
        <time>2020-08-23T11:41:32Z</time>
      </trkpt>
      <trkpt lat="45.10356" lon="5.59899">
        <ele>1535.4</ele>
        <time>2020-08-23T11:41:33Z</time>
      </trkpt>
      <trkpt lat="45.10358" lon="5.59898">
        <ele>1535.6</ele>
        <time>2020-08-23T11:41:34Z</time>
      </trkpt>
      <trkpt lat="45.1036" lon="5.59898">
        <ele>1535.8</ele>
        <time>2020-08-23T11:41:35Z</time>
      </trkpt>
      <trkpt lat="45.10362" lon="5.59898">
        <ele>1536</ele>
        <time>2020-08-23T11:41:36Z</time>
      </trkpt>
      <trkpt lat="45.10365" lon="5.59898">
        <ele>1536.2</ele>
        <time>2020-08-23T11:41:37Z</time>
      </trkpt>
      <trkpt lat="45.10366" lon="5.59898">
        <ele>1536.4</ele>
        <time>2020-08-23T11:41:38Z</time>
      </trkpt>
      <trkpt lat="45.10369" lon="5.59898">
        <ele>1536.4</ele>
        <time>2020-08-23T11:41:39Z</time>
      </trkpt>
      <trkpt lat="45.10371" lon="5.59899">
        <ele>1536.6</ele>
        <time>2020-08-23T11:41:40Z</time>
      </trkpt>
      <trkpt lat="45.10373" lon="5.59898">
        <ele>1536.6</ele>
        <time>2020-08-23T11:41:41Z</time>
      </trkpt>
      <trkpt lat="45.10375" lon="5.59898">
        <ele>1536.8</ele>
        <time>2020-08-23T11:41:42Z</time>
      </trkpt>
      <trkpt lat="45.10378" lon="5.59898">
        <ele>1536.8</ele>
        <time>2020-08-23T11:41:43Z</time>
      </trkpt>
      <trkpt lat="45.10379" lon="5.59897">
        <ele>1537</ele>
        <time>2020-08-23T11:41:44Z</time>
      </trkpt>
      <trkpt lat="45.10381" lon="5.59897">
        <ele>1537</ele>
        <time>2020-08-23T11:41:45Z</time>
      </trkpt>
      <trkpt lat="45.10384" lon="5.59897">
        <ele>1537.2</ele>
        <time>2020-08-23T11:41:46Z</time>
      </trkpt>
      <trkpt lat="45.10386" lon="5.59897">
        <ele>1537.2</ele>
        <time>2020-08-23T11:41:47Z</time>
      </trkpt>
      <trkpt lat="45.10388" lon="5.59896">
        <ele>1537.4</ele>
        <time>2020-08-23T11:41:48Z</time>
      </trkpt>
      <trkpt lat="45.1039" lon="5.59896">
        <ele>1537.4</ele>
        <time>2020-08-23T11:41:49Z</time>
      </trkpt>
      <trkpt lat="45.10392" lon="5.59895">
        <ele>1537.6</ele>
        <time>2020-08-23T11:41:50Z</time>
      </trkpt>
      <trkpt lat="45.10395" lon="5.59894">
        <ele>1537.8</ele>
        <time>2020-08-23T11:41:51Z</time>
      </trkpt>
      <trkpt lat="45.10397" lon="5.59893">
        <ele>1537.8</ele>
        <time>2020-08-23T11:41:52Z</time>
      </trkpt>
      <trkpt lat="45.10399" lon="5.59893">
        <ele>1537.8</ele>
        <time>2020-08-23T11:41:53Z</time>
      </trkpt>
      <trkpt lat="45.10401" lon="5.59892">
        <ele>1537.8</ele>
        <time>2020-08-23T11:41:54Z</time>
      </trkpt>
      <trkpt lat="45.10403" lon="5.59891">
        <ele>1538</ele>
        <time>2020-08-23T11:41:55Z</time>
      </trkpt>
      <trkpt lat="45.10404" lon="5.5989">
        <ele>1538</ele>
        <time>2020-08-23T11:41:56Z</time>
      </trkpt>
      <trkpt lat="45.10406" lon="5.5989">
        <ele>1537.4</ele>
        <time>2020-08-23T11:41:57Z</time>
      </trkpt>
      <trkpt lat="45.10408" lon="5.59888">
        <ele>1537.4</ele>
        <time>2020-08-23T11:41:58Z</time>
      </trkpt>
      <trkpt lat="45.1041" lon="5.59887">
        <ele>1537.6</ele>
        <time>2020-08-23T11:41:59Z</time>
      </trkpt>
      <trkpt lat="45.10413" lon="5.59885">
        <ele>1537.6</ele>
        <time>2020-08-23T11:42:00Z</time>
      </trkpt>
      <trkpt lat="45.10415" lon="5.59883">
        <ele>1537.8</ele>
        <time>2020-08-23T11:42:01Z</time>
      </trkpt>
      <trkpt lat="45.10418" lon="5.59881">
        <ele>1538</ele>
        <time>2020-08-23T11:42:02Z</time>
      </trkpt>
      <trkpt lat="45.10421" lon="5.59879">
        <ele>1538</ele>
        <time>2020-08-23T11:42:03Z</time>
      </trkpt>
      <trkpt lat="45.10424" lon="5.59877">
        <ele>1537.6</ele>
        <time>2020-08-23T11:42:04Z</time>
      </trkpt>
      <trkpt lat="45.10428" lon="5.59876">
        <ele>1537.2</ele>
        <time>2020-08-23T11:42:05Z</time>
      </trkpt>
      <trkpt lat="45.10431" lon="5.59874">
        <ele>1536.4</ele>
        <time>2020-08-23T11:42:06Z</time>
      </trkpt>
      <trkpt lat="45.10435" lon="5.59872">
        <ele>1536.2</ele>
        <time>2020-08-23T11:42:07Z</time>
      </trkpt>
      <trkpt lat="45.10439" lon="5.5987">
        <ele>1536.2</ele>
        <time>2020-08-23T11:42:08Z</time>
      </trkpt>
      <trkpt lat="45.10443" lon="5.59869">
        <ele>1536.4</ele>
        <time>2020-08-23T11:42:09Z</time>
      </trkpt>
      <trkpt lat="45.10447" lon="5.59868">
        <ele>1536.4</ele>
        <time>2020-08-23T11:42:10Z</time>
      </trkpt>
      <trkpt lat="45.10451" lon="5.59867">
        <ele>1536.6</ele>
        <time>2020-08-23T11:42:11Z</time>
      </trkpt>
      <trkpt lat="45.10456" lon="5.59866">
        <ele>1536.6</ele>
        <time>2020-08-23T11:42:12Z</time>
      </trkpt>
      <trkpt lat="45.1046" lon="5.59866">
        <ele>1536.6</ele>
        <time>2020-08-23T11:42:13Z</time>
      </trkpt>
      <trkpt lat="45.10463" lon="5.59866">
        <ele>1536.6</ele>
        <time>2020-08-23T11:42:14Z</time>
      </trkpt>
      <trkpt lat="45.10466" lon="5.59865">
        <ele>1536.8</ele>
        <time>2020-08-23T11:42:15Z</time>
      </trkpt>
      <trkpt lat="45.10468" lon="5.59865">
        <ele>1536.8</ele>
        <time>2020-08-23T11:42:16Z</time>
      </trkpt>
      <trkpt lat="45.10471" lon="5.59865">
        <ele>1537</ele>
        <time>2020-08-23T11:42:17Z</time>
      </trkpt>
      <trkpt lat="45.10474" lon="5.59864">
        <ele>1537.2</ele>
        <time>2020-08-23T11:42:18Z</time>
      </trkpt>
      <trkpt lat="45.10476" lon="5.59864">
        <ele>1537.2</ele>
        <time>2020-08-23T11:42:19Z</time>
      </trkpt>
      <trkpt lat="45.10479" lon="5.59863">
        <ele>1537.4</ele>
        <time>2020-08-23T11:42:20Z</time>
      </trkpt>
      <trkpt lat="45.10482" lon="5.59863">
        <ele>1537.4</ele>
        <time>2020-08-23T11:42:21Z</time>
      </trkpt>
      <trkpt lat="45.10485" lon="5.59863">
        <ele>1537.6</ele>
        <time>2020-08-23T11:42:22Z</time>
      </trkpt>
      <trkpt lat="45.10489" lon="5.59862">
        <ele>1537.8</ele>
        <time>2020-08-23T11:42:23Z</time>
      </trkpt>
      <trkpt lat="45.10492" lon="5.59863">
        <ele>1537.8</ele>
        <time>2020-08-23T11:42:24Z</time>
      </trkpt>
      <trkpt lat="45.10495" lon="5.59863">
        <ele>1537.8</ele>
        <time>2020-08-23T11:42:25Z</time>
      </trkpt>
      <trkpt lat="45.10499" lon="5.59863">
        <ele>1538</ele>
        <time>2020-08-23T11:42:26Z</time>
      </trkpt>
      <trkpt lat="45.10503" lon="5.59864">
        <ele>1538</ele>
        <time>2020-08-23T11:42:27Z</time>
      </trkpt>
      <trkpt lat="45.10507" lon="5.59866">
        <ele>1538.2</ele>
        <time>2020-08-23T11:42:28Z</time>
      </trkpt>
      <trkpt lat="45.10511" lon="5.59867">
        <ele>1538.2</ele>
        <time>2020-08-23T11:42:29Z</time>
      </trkpt>
      <trkpt lat="45.10515" lon="5.5987">
        <ele>1538.4</ele>
        <time>2020-08-23T11:42:30Z</time>
      </trkpt>
      <trkpt lat="45.10518" lon="5.59872">
        <ele>1538.6</ele>
        <time>2020-08-23T11:42:31Z</time>
      </trkpt>
      <trkpt lat="45.10523" lon="5.59874">
        <ele>1538.8</ele>
        <time>2020-08-23T11:42:32Z</time>
      </trkpt>
      <trkpt lat="45.10526" lon="5.59875">
        <ele>1539</ele>
        <time>2020-08-23T11:42:33Z</time>
      </trkpt>
      <trkpt lat="45.10531" lon="5.59877">
        <ele>1539.2</ele>
        <time>2020-08-23T11:42:34Z</time>
      </trkpt>
      <trkpt lat="45.10535" lon="5.59878">
        <ele>1539.2</ele>
        <time>2020-08-23T11:42:35Z</time>
      </trkpt>
      <trkpt lat="45.1054" lon="5.59878">
        <ele>1539.4</ele>
        <time>2020-08-23T11:42:36Z</time>
      </trkpt>
      <trkpt lat="45.10545" lon="5.59878">
        <ele>1539.4</ele>
        <time>2020-08-23T11:42:37Z</time>
      </trkpt>
      <trkpt lat="45.10549" lon="5.59877">
        <ele>1539.6</ele>
        <time>2020-08-23T11:42:38Z</time>
      </trkpt>
      <trkpt lat="45.10552" lon="5.59875">
        <ele>1539.6</ele>
        <time>2020-08-23T11:42:39Z</time>
      </trkpt>
      <trkpt lat="45.10556" lon="5.59874">
        <ele>1539.6</ele>
        <time>2020-08-23T11:42:40Z</time>
      </trkpt>
      <trkpt lat="45.1056" lon="5.59874">
        <ele>1539.8</ele>
        <time>2020-08-23T11:42:41Z</time>
      </trkpt>
      <trkpt lat="45.10563" lon="5.59873">
        <ele>1540</ele>
        <time>2020-08-23T11:42:42Z</time>
      </trkpt>
      <trkpt lat="45.10566" lon="5.59873">
        <ele>1540</ele>
        <time>2020-08-23T11:42:43Z</time>
      </trkpt>
      <trkpt lat="45.1057" lon="5.59873">
        <ele>1540.4</ele>
        <time>2020-08-23T11:42:44Z</time>
      </trkpt>
      <trkpt lat="45.10573" lon="5.59873">
        <ele>1540.6</ele>
        <time>2020-08-23T11:42:45Z</time>
      </trkpt>
      <trkpt lat="45.10576" lon="5.59873">
        <ele>1540.8</ele>
        <time>2020-08-23T11:42:46Z</time>
      </trkpt>
      <trkpt lat="45.10579" lon="5.59873">
        <ele>1541</ele>
        <time>2020-08-23T11:42:47Z</time>
      </trkpt>
      <trkpt lat="45.10582" lon="5.59873">
        <ele>1541.2</ele>
        <time>2020-08-23T11:42:48Z</time>
      </trkpt>
      <trkpt lat="45.10584" lon="5.59874">
        <ele>1541.4</ele>
        <time>2020-08-23T11:42:49Z</time>
      </trkpt>
      <trkpt lat="45.10586" lon="5.59876">
        <ele>1541.6</ele>
        <time>2020-08-23T11:42:50Z</time>
      </trkpt>
      <trkpt lat="45.10588" lon="5.59877">
        <ele>1541.8</ele>
        <time>2020-08-23T11:42:51Z</time>
      </trkpt>
      <trkpt lat="45.1059" lon="5.59877">
        <ele>1542</ele>
        <time>2020-08-23T11:42:52Z</time>
      </trkpt>
      <trkpt lat="45.10593" lon="5.59876">
        <ele>1542</ele>
        <time>2020-08-23T11:42:53Z</time>
      </trkpt>
      <trkpt lat="45.10595" lon="5.59875">
        <ele>1542.2</ele>
        <time>2020-08-23T11:42:54Z</time>
      </trkpt>
      <trkpt lat="45.10597" lon="5.59875">
        <ele>1542.4</ele>
        <time>2020-08-23T11:42:55Z</time>
      </trkpt>
      <trkpt lat="45.10599" lon="5.59876">
        <ele>1542.6</ele>
        <time>2020-08-23T11:42:56Z</time>
      </trkpt>
      <trkpt lat="45.106" lon="5.59877">
        <ele>1542.6</ele>
        <time>2020-08-23T11:42:57Z</time>
      </trkpt>
      <trkpt lat="45.10601" lon="5.59878">
        <ele>1542.8</ele>
        <time>2020-08-23T11:42:58Z</time>
      </trkpt>
      <trkpt lat="45.10602" lon="5.59878">
        <ele>1543</ele>
        <time>2020-08-23T11:42:59Z</time>
      </trkpt>
      <trkpt lat="45.10603" lon="5.59878">
        <ele>1543.2</ele>
        <time>2020-08-23T11:43:00Z</time>
      </trkpt>
      <trkpt lat="45.10603" lon="5.59878">
        <ele>1543.2</ele>
        <time>2020-08-23T11:43:01Z</time>
      </trkpt>
      <trkpt lat="45.10603" lon="5.59878">
        <ele>1543.4</ele>
        <time>2020-08-23T11:43:02Z</time>
      </trkpt>
      <trkpt lat="45.10603" lon="5.59878">
        <ele>1543.4</ele>
        <time>2020-08-23T11:43:03Z</time>
      </trkpt>
      <trkpt lat="45.10614" lon="5.59882">
        <ele>1544</ele>
        <time>2020-08-23T11:52:48Z</time>
      </trkpt>
      <trkpt lat="45.10617" lon="5.59883">
        <ele>1544</ele>
        <time>2020-08-23T11:52:49Z</time>
      </trkpt>
      <trkpt lat="45.1062" lon="5.59884">
        <ele>1544</ele>
        <time>2020-08-23T11:52:50Z</time>
      </trkpt>
      <trkpt lat="45.10623" lon="5.59885">
        <ele>1543.8</ele>
        <time>2020-08-23T11:52:51Z</time>
      </trkpt>
      <trkpt lat="45.10626" lon="5.59886">
        <ele>1543.8</ele>
        <time>2020-08-23T11:52:52Z</time>
      </trkpt>
      <trkpt lat="45.10629" lon="5.59887">
        <ele>1543.6</ele>
        <time>2020-08-23T11:52:53Z</time>
      </trkpt>
      <trkpt lat="45.10632" lon="5.59888">
        <ele>1543.4</ele>
        <time>2020-08-23T11:52:54Z</time>
      </trkpt>
      <trkpt lat="45.10635" lon="5.59889">
        <ele>1543.2</ele>
        <time>2020-08-23T11:52:55Z</time>
      </trkpt>
      <trkpt lat="45.10639" lon="5.5989">
        <ele>1543</ele>
        <time>2020-08-23T11:52:56Z</time>
      </trkpt>
      <trkpt lat="45.10643" lon="5.59891">
        <ele>1542.6</ele>
        <time>2020-08-23T11:52:57Z</time>
      </trkpt>
      <trkpt lat="45.10646" lon="5.59892">
        <ele>1542.4</ele>
        <time>2020-08-23T11:52:58Z</time>
      </trkpt>
      <trkpt lat="45.10651" lon="5.59893">
        <ele>1542.4</ele>
        <time>2020-08-23T11:52:59Z</time>
      </trkpt>
      <trkpt lat="45.10655" lon="5.59894">
        <ele>1542.4</ele>
        <time>2020-08-23T11:53:00Z</time>
      </trkpt>
      <trkpt lat="45.10659" lon="5.59895">
        <ele>1542.2</ele>
        <time>2020-08-23T11:53:01Z</time>
      </trkpt>
      <trkpt lat="45.10664" lon="5.59895">
        <ele>1542</ele>
        <time>2020-08-23T11:53:02Z</time>
      </trkpt>
      <trkpt lat="45.10669" lon="5.59897">
        <ele>1541.8</ele>
        <time>2020-08-23T11:53:03Z</time>
      </trkpt>
      <trkpt lat="45.10673" lon="5.59899">
        <ele>1541.8</ele>
        <time>2020-08-23T11:53:04Z</time>
      </trkpt>
      <trkpt lat="45.10679" lon="5.599">
        <ele>1541.6</ele>
        <time>2020-08-23T11:53:05Z</time>
      </trkpt>
      <trkpt lat="45.10684" lon="5.599">
        <ele>1541.2</ele>
        <time>2020-08-23T11:53:06Z</time>
      </trkpt>
      <trkpt lat="45.10688" lon="5.59901">
        <ele>1541.2</ele>
        <time>2020-08-23T11:53:07Z</time>
      </trkpt>
      <trkpt lat="45.10693" lon="5.59901">
        <ele>1541.2</ele>
        <time>2020-08-23T11:53:08Z</time>
      </trkpt>
      <trkpt lat="45.10696" lon="5.59902">
        <ele>1541.2</ele>
        <time>2020-08-23T11:53:09Z</time>
      </trkpt>
      <trkpt lat="45.10698" lon="5.59903">
        <ele>1541.2</ele>
        <time>2020-08-23T11:53:10Z</time>
      </trkpt>
      <trkpt lat="45.10701" lon="5.59905">
        <ele>1541.2</ele>
        <time>2020-08-23T11:53:11Z</time>
      </trkpt>
      <trkpt lat="45.10704" lon="5.59906">
        <ele>1541.2</ele>
        <time>2020-08-23T11:53:12Z</time>
      </trkpt>
      <trkpt lat="45.10707" lon="5.59907">
        <ele>1541.2</ele>
        <time>2020-08-23T11:53:13Z</time>
      </trkpt>
      <trkpt lat="45.10709" lon="5.59909">
        <ele>1541.2</ele>
        <time>2020-08-23T11:53:14Z</time>
      </trkpt>
      <trkpt lat="45.10712" lon="5.5991">
        <ele>1541.2</ele>
        <time>2020-08-23T11:53:15Z</time>
      </trkpt>
      <trkpt lat="45.10714" lon="5.59912">
        <ele>1541.4</ele>
        <time>2020-08-23T11:53:16Z</time>
      </trkpt>
      <trkpt lat="45.10717" lon="5.59913">
        <ele>1541.4</ele>
        <time>2020-08-23T11:53:17Z</time>
      </trkpt>
      <trkpt lat="45.10719" lon="5.59915">
        <ele>1541.6</ele>
        <time>2020-08-23T11:53:18Z</time>
      </trkpt>
      <trkpt lat="45.10722" lon="5.59915">
        <ele>1541.8</ele>
        <time>2020-08-23T11:53:19Z</time>
      </trkpt>
      <trkpt lat="45.10725" lon="5.59917">
        <ele>1542</ele>
        <time>2020-08-23T11:53:20Z</time>
      </trkpt>
      <trkpt lat="45.10728" lon="5.59919">
        <ele>1542.2</ele>
        <time>2020-08-23T11:53:21Z</time>
      </trkpt>
      <trkpt lat="45.1073" lon="5.5992">
        <ele>1542.4</ele>
        <time>2020-08-23T11:53:22Z</time>
      </trkpt>
      <trkpt lat="45.10733" lon="5.59922">
        <ele>1542.6</ele>
        <time>2020-08-23T11:53:23Z</time>
      </trkpt>
      <trkpt lat="45.10735" lon="5.59923">
        <ele>1543</ele>
        <time>2020-08-23T11:53:24Z</time>
      </trkpt>
      <trkpt lat="45.10737" lon="5.59923">
        <ele>1543.2</ele>
        <time>2020-08-23T11:53:25Z</time>
      </trkpt>
      <trkpt lat="45.10739" lon="5.59923">
        <ele>1543.4</ele>
        <time>2020-08-23T11:53:26Z</time>
      </trkpt>
      <trkpt lat="45.1074" lon="5.59924">
        <ele>1543.8</ele>
        <time>2020-08-23T11:53:27Z</time>
      </trkpt>
      <trkpt lat="45.10742" lon="5.59926">
        <ele>1544</ele>
        <time>2020-08-23T11:53:28Z</time>
      </trkpt>
      <trkpt lat="45.10744" lon="5.59928">
        <ele>1544.2</ele>
        <time>2020-08-23T11:53:29Z</time>
      </trkpt>
      <trkpt lat="45.10746" lon="5.5993">
        <ele>1544.6</ele>
        <time>2020-08-23T11:53:30Z</time>
      </trkpt>
      <trkpt lat="45.1075" lon="5.59931">
        <ele>1544.8</ele>
        <time>2020-08-23T11:53:31Z</time>
      </trkpt>
      <trkpt lat="45.10754" lon="5.59933">
        <ele>1545</ele>
        <time>2020-08-23T11:53:32Z</time>
      </trkpt>
      <trkpt lat="45.10759" lon="5.59935">
        <ele>1545.2</ele>
        <time>2020-08-23T11:53:33Z</time>
      </trkpt>
      <trkpt lat="45.10762" lon="5.59938">
        <ele>1545.4</ele>
        <time>2020-08-23T11:53:34Z</time>
      </trkpt>
      <trkpt lat="45.10766" lon="5.59941">
        <ele>1545.6</ele>
        <time>2020-08-23T11:53:35Z</time>
      </trkpt>
      <trkpt lat="45.10769" lon="5.59943">
        <ele>1545.8</ele>
        <time>2020-08-23T11:53:36Z</time>
      </trkpt>
      <trkpt lat="45.10771" lon="5.59944">
        <ele>1545.8</ele>
        <time>2020-08-23T11:53:37Z</time>
      </trkpt>
      <trkpt lat="45.10774" lon="5.59944">
        <ele>1546</ele>
        <time>2020-08-23T11:53:38Z</time>
      </trkpt>
      <trkpt lat="45.10777" lon="5.59944">
        <ele>1546</ele>
        <time>2020-08-23T11:53:39Z</time>
      </trkpt>
      <trkpt lat="45.1078" lon="5.59944">
        <ele>1546.2</ele>
        <time>2020-08-23T11:53:40Z</time>
      </trkpt>
      <trkpt lat="45.10782" lon="5.59941">
        <ele>1546.2</ele>
        <time>2020-08-23T11:53:41Z</time>
      </trkpt>
      <trkpt lat="45.10784" lon="5.59938">
        <ele>1546.4</ele>
        <time>2020-08-23T11:53:42Z</time>
      </trkpt>
      <trkpt lat="45.10785" lon="5.59934">
        <ele>1546.6</ele>
        <time>2020-08-23T11:53:43Z</time>
      </trkpt>
      <trkpt lat="45.10786" lon="5.59931">
        <ele>1546.6</ele>
        <time>2020-08-23T11:53:44Z</time>
      </trkpt>
      <trkpt lat="45.10786" lon="5.59928">
        <ele>1546.6</ele>
        <time>2020-08-23T11:53:45Z</time>
      </trkpt>
      <trkpt lat="45.10786" lon="5.59925">
        <ele>1546.8</ele>
        <time>2020-08-23T11:53:46Z</time>
      </trkpt>
      <trkpt lat="45.10786" lon="5.59922">
        <ele>1546.8</ele>
        <time>2020-08-23T11:53:47Z</time>
      </trkpt>
      <trkpt lat="45.10786" lon="5.59919">
        <ele>1546.8</ele>
        <time>2020-08-23T11:53:48Z</time>
      </trkpt>
      <trkpt lat="45.10786" lon="5.59917">
        <ele>1547</ele>
        <time>2020-08-23T11:53:49Z</time>
      </trkpt>
      <trkpt lat="45.10787" lon="5.59915">
        <ele>1547</ele>
        <time>2020-08-23T11:53:50Z</time>
      </trkpt>
      <trkpt lat="45.10788" lon="5.59914">
        <ele>1547</ele>
        <time>2020-08-23T11:53:51Z</time>
      </trkpt>
      <trkpt lat="45.10789" lon="5.59913">
        <ele>1547.2</ele>
        <time>2020-08-23T11:53:52Z</time>
      </trkpt>
      <trkpt lat="45.1079" lon="5.59913">
        <ele>1547.2</ele>
        <time>2020-08-23T11:53:53Z</time>
      </trkpt>
      <trkpt lat="45.1079" lon="5.59914">
        <ele>1547.4</ele>
        <time>2020-08-23T11:53:54Z</time>
      </trkpt>
      <trkpt lat="45.10792" lon="5.59915">
        <ele>1547.6</ele>
        <time>2020-08-23T11:53:55Z</time>
      </trkpt>
      <trkpt lat="45.10793" lon="5.59914">
        <ele>1547.8</ele>
        <time>2020-08-23T11:53:56Z</time>
      </trkpt>
      <trkpt lat="45.10794" lon="5.59914">
        <ele>1547.8</ele>
        <time>2020-08-23T11:53:57Z</time>
      </trkpt>
      <trkpt lat="45.10795" lon="5.59912">
        <ele>1548</ele>
        <time>2020-08-23T11:53:58Z</time>
      </trkpt>
      <trkpt lat="45.10795" lon="5.5991">
        <ele>1548.2</ele>
        <time>2020-08-23T11:53:59Z</time>
      </trkpt>
      <trkpt lat="45.10797" lon="5.59908">
        <ele>1548.4</ele>
        <time>2020-08-23T11:54:00Z</time>
      </trkpt>
      <trkpt lat="45.10798" lon="5.59905">
        <ele>1548.6</ele>
        <time>2020-08-23T11:54:01Z</time>
      </trkpt>
      <trkpt lat="45.10798" lon="5.59902">
        <ele>1548.8</ele>
        <time>2020-08-23T11:54:02Z</time>
      </trkpt>
      <trkpt lat="45.10798" lon="5.599">
        <ele>1548.8</ele>
        <time>2020-08-23T11:54:03Z</time>
      </trkpt>
      <trkpt lat="45.10798" lon="5.59897">
        <ele>1549</ele>
        <time>2020-08-23T11:54:04Z</time>
      </trkpt>
      <trkpt lat="45.10797" lon="5.59894">
        <ele>1549.2</ele>
        <time>2020-08-23T11:54:05Z</time>
      </trkpt>
      <trkpt lat="45.10797" lon="5.5989">
        <ele>1549.2</ele>
        <time>2020-08-23T11:54:06Z</time>
      </trkpt>
      <trkpt lat="45.10798" lon="5.59886">
        <ele>1549.4</ele>
        <time>2020-08-23T11:54:07Z</time>
      </trkpt>
      <trkpt lat="45.10798" lon="5.59883">
        <ele>1549.4</ele>
        <time>2020-08-23T11:54:08Z</time>
      </trkpt>
      <trkpt lat="45.10798" lon="5.5988">
        <ele>1549.6</ele>
        <time>2020-08-23T11:54:09Z</time>
      </trkpt>
      <trkpt lat="45.10798" lon="5.59877">
        <ele>1549.8</ele>
        <time>2020-08-23T11:54:10Z</time>
      </trkpt>
      <trkpt lat="45.10799" lon="5.59875">
        <ele>1550</ele>
        <time>2020-08-23T11:54:11Z</time>
      </trkpt>
      <trkpt lat="45.108" lon="5.59872">
        <ele>1550</ele>
        <time>2020-08-23T11:54:12Z</time>
      </trkpt>
      <trkpt lat="45.108" lon="5.59869">
        <ele>1550.2</ele>
        <time>2020-08-23T11:54:13Z</time>
      </trkpt>
      <trkpt lat="45.10801" lon="5.59867">
        <ele>1550.2</ele>
        <time>2020-08-23T11:54:14Z</time>
      </trkpt>
      <trkpt lat="45.10802" lon="5.59864">
        <ele>1550.4</ele>
        <time>2020-08-23T11:54:15Z</time>
      </trkpt>
      <trkpt lat="45.10803" lon="5.59862">
        <ele>1550.4</ele>
        <time>2020-08-23T11:54:16Z</time>
      </trkpt>
      <trkpt lat="45.10804" lon="5.59859">
        <ele>1550.6</ele>
        <time>2020-08-23T11:54:17Z</time>
      </trkpt>
      <trkpt lat="45.10805" lon="5.59857">
        <ele>1550.8</ele>
        <time>2020-08-23T11:54:18Z</time>
      </trkpt>
      <trkpt lat="45.10806" lon="5.59854">
        <ele>1550.8</ele>
        <time>2020-08-23T11:54:19Z</time>
      </trkpt>
      <trkpt lat="45.10807" lon="5.59851">
        <ele>1551</ele>
        <time>2020-08-23T11:54:20Z</time>
      </trkpt>
      <trkpt lat="45.10807" lon="5.59848">
        <ele>1551</ele>
        <time>2020-08-23T11:54:21Z</time>
      </trkpt>
      <trkpt lat="45.10808" lon="5.59846">
        <ele>1551</ele>
        <time>2020-08-23T11:54:22Z</time>
      </trkpt>
      <trkpt lat="45.10808" lon="5.59843">
        <ele>1551</ele>
        <time>2020-08-23T11:54:23Z</time>
      </trkpt>
      <trkpt lat="45.10809" lon="5.59841">
        <ele>1551.2</ele>
        <time>2020-08-23T11:54:24Z</time>
      </trkpt>
      <trkpt lat="45.10809" lon="5.59839">
        <ele>1551.2</ele>
        <time>2020-08-23T11:54:25Z</time>
      </trkpt>
      <trkpt lat="45.1081" lon="5.59836">
        <ele>1551.2</ele>
        <time>2020-08-23T11:54:26Z</time>
      </trkpt>
      <trkpt lat="45.10811" lon="5.59832">
        <ele>1551.2</ele>
        <time>2020-08-23T11:54:27Z</time>
      </trkpt>
      <trkpt lat="45.10811" lon="5.59828">
        <ele>1551.2</ele>
        <time>2020-08-23T11:54:28Z</time>
      </trkpt>
      <trkpt lat="45.10812" lon="5.59824">
        <ele>1551.4</ele>
        <time>2020-08-23T11:54:29Z</time>
      </trkpt>
      <trkpt lat="45.10813" lon="5.59821">
        <ele>1551.4</ele>
        <time>2020-08-23T11:54:30Z</time>
      </trkpt>
      <trkpt lat="45.10813" lon="5.59817">
        <ele>1551.4</ele>
        <time>2020-08-23T11:54:31Z</time>
      </trkpt>
      <trkpt lat="45.10813" lon="5.59813">
        <ele>1551.6</ele>
        <time>2020-08-23T11:54:32Z</time>
      </trkpt>
      <trkpt lat="45.10814" lon="5.5981">
        <ele>1551.6</ele>
        <time>2020-08-23T11:54:33Z</time>
      </trkpt>
      <trkpt lat="45.10816" lon="5.59808">
        <ele>1551.8</ele>
        <time>2020-08-23T11:54:34Z</time>
      </trkpt>
      <trkpt lat="45.10817" lon="5.59805">
        <ele>1551.8</ele>
        <time>2020-08-23T11:54:35Z</time>
      </trkpt>
      <trkpt lat="45.10819" lon="5.59802">
        <ele>1551.8</ele>
        <time>2020-08-23T11:54:36Z</time>
      </trkpt>
      <trkpt lat="45.1082" lon="5.59799">
        <ele>1551.6</ele>
        <time>2020-08-23T11:54:37Z</time>
      </trkpt>
      <trkpt lat="45.10822" lon="5.59797">
        <ele>1551.8</ele>
        <time>2020-08-23T11:54:38Z</time>
      </trkpt>
      <trkpt lat="45.10825" lon="5.59794">
        <ele>1552</ele>
        <time>2020-08-23T11:54:39Z</time>
      </trkpt>
      <trkpt lat="45.1083" lon="5.59793">
        <ele>1552</ele>
        <time>2020-08-23T11:54:40Z</time>
      </trkpt>
      <trkpt lat="45.10834" lon="5.59791">
        <ele>1552.2</ele>
        <time>2020-08-23T11:54:41Z</time>
      </trkpt>
      <trkpt lat="45.10838" lon="5.59789">
        <ele>1552.2</ele>
        <time>2020-08-23T11:54:42Z</time>
      </trkpt>
      <trkpt lat="45.1084" lon="5.59787">
        <ele>1552</ele>
        <time>2020-08-23T11:54:43Z</time>
      </trkpt>
      <trkpt lat="45.10843" lon="5.59786">
        <ele>1552</ele>
        <time>2020-08-23T11:54:44Z</time>
      </trkpt>
      <trkpt lat="45.10845" lon="5.59783">
        <ele>1552</ele>
        <time>2020-08-23T11:54:45Z</time>
      </trkpt>
      <trkpt lat="45.10847" lon="5.59781">
        <ele>1552.2</ele>
        <time>2020-08-23T11:54:46Z</time>
      </trkpt>
      <trkpt lat="45.10849" lon="5.5978">
        <ele>1552.2</ele>
        <time>2020-08-23T11:54:47Z</time>
      </trkpt>
      <trkpt lat="45.1085" lon="5.59779">
        <ele>1552.4</ele>
        <time>2020-08-23T11:54:48Z</time>
      </trkpt>
      <trkpt lat="45.10851" lon="5.59779">
        <ele>1552.4</ele>
        <time>2020-08-23T11:54:49Z</time>
      </trkpt>
      <trkpt lat="45.10852" lon="5.59779">
        <ele>1552.4</ele>
        <time>2020-08-23T11:54:50Z</time>
      </trkpt>
      <trkpt lat="45.10854" lon="5.59779">
        <ele>1552.4</ele>
        <time>2020-08-23T11:54:51Z</time>
      </trkpt>
      <trkpt lat="45.10856" lon="5.59779">
        <ele>1552.6</ele>
        <time>2020-08-23T11:54:52Z</time>
      </trkpt>
      <trkpt lat="45.10858" lon="5.5978">
        <ele>1552.6</ele>
        <time>2020-08-23T11:54:53Z</time>
      </trkpt>
      <trkpt lat="45.10859" lon="5.5978">
        <ele>1552.6</ele>
        <time>2020-08-23T11:54:54Z</time>
      </trkpt>
      <trkpt lat="45.10861" lon="5.59779">
        <ele>1552.6</ele>
        <time>2020-08-23T11:54:55Z</time>
      </trkpt>
      <trkpt lat="45.10863" lon="5.59779">
        <ele>1552.8</ele>
        <time>2020-08-23T11:54:56Z</time>
      </trkpt>
      <trkpt lat="45.10865" lon="5.59778">
        <ele>1552.6</ele>
        <time>2020-08-23T11:54:57Z</time>
      </trkpt>
      <trkpt lat="45.10867" lon="5.59776">
        <ele>1552.6</ele>
        <time>2020-08-23T11:54:58Z</time>
      </trkpt>
      <trkpt lat="45.10869" lon="5.59775">
        <ele>1552.6</ele>
        <time>2020-08-23T11:54:59Z</time>
      </trkpt>
      <trkpt lat="45.1087" lon="5.59774">
        <ele>1552.6</ele>
        <time>2020-08-23T11:55:00Z</time>
      </trkpt>
      <trkpt lat="45.10872" lon="5.59774">
        <ele>1552.6</ele>
        <time>2020-08-23T11:55:01Z</time>
      </trkpt>
      <trkpt lat="45.10874" lon="5.59773">
        <ele>1552.6</ele>
        <time>2020-08-23T11:55:02Z</time>
      </trkpt>
      <trkpt lat="45.10875" lon="5.59773">
        <ele>1552.6</ele>
        <time>2020-08-23T11:55:03Z</time>
      </trkpt>
      <trkpt lat="45.10877" lon="5.59773">
        <ele>1552.4</ele>
        <time>2020-08-23T11:55:04Z</time>
      </trkpt>
      <trkpt lat="45.10878" lon="5.59772">
        <ele>1552.4</ele>
        <time>2020-08-23T11:55:05Z</time>
      </trkpt>
      <trkpt lat="45.10878" lon="5.59772">
        <ele>1552.4</ele>
        <time>2020-08-23T11:55:06Z</time>
      </trkpt>
      <trkpt lat="45.10878" lon="5.59772">
        <ele>1552.4</ele>
        <time>2020-08-23T11:55:07Z</time>
      </trkpt>
      <trkpt lat="45.10881" lon="5.5977">
        <ele>1552.4</ele>
        <time>2020-08-23T11:55:08Z</time>
      </trkpt>
      <trkpt lat="45.10884" lon="5.59769">
        <ele>1552.2</ele>
        <time>2020-08-23T11:55:09Z</time>
      </trkpt>
      <trkpt lat="45.10886" lon="5.59769">
        <ele>1552.2</ele>
        <time>2020-08-23T11:55:10Z</time>
      </trkpt>
      <trkpt lat="45.10888" lon="5.59768">
        <ele>1552.2</ele>
        <time>2020-08-23T11:55:11Z</time>
      </trkpt>
      <trkpt lat="45.1089" lon="5.59767">
        <ele>1552.2</ele>
        <time>2020-08-23T11:55:12Z</time>
      </trkpt>
      <trkpt lat="45.10892" lon="5.59765">
        <ele>1552.2</ele>
        <time>2020-08-23T11:55:13Z</time>
      </trkpt>
      <trkpt lat="45.10894" lon="5.59765">
        <ele>1552.2</ele>
        <time>2020-08-23T11:55:14Z</time>
      </trkpt>
      <trkpt lat="45.10896" lon="5.59766">
        <ele>1552</ele>
        <time>2020-08-23T11:55:15Z</time>
      </trkpt>
      <trkpt lat="45.10899" lon="5.59767">
        <ele>1552</ele>
        <time>2020-08-23T11:55:16Z</time>
      </trkpt>
      <trkpt lat="45.10901" lon="5.59768">
        <ele>1551.8</ele>
        <time>2020-08-23T11:55:17Z</time>
      </trkpt>
      <trkpt lat="45.10903" lon="5.59768">
        <ele>1551.8</ele>
        <time>2020-08-23T11:55:18Z</time>
      </trkpt>
      <trkpt lat="45.10904" lon="5.59769">
        <ele>1551.8</ele>
        <time>2020-08-23T11:55:19Z</time>
      </trkpt>
      <trkpt lat="45.10906" lon="5.59771">
        <ele>1551.6</ele>
        <time>2020-08-23T11:55:20Z</time>
      </trkpt>
      <trkpt lat="45.10907" lon="5.59772">
        <ele>1551.6</ele>
        <time>2020-08-23T11:55:21Z</time>
      </trkpt>
      <trkpt lat="45.1091" lon="5.59774">
        <ele>1551.6</ele>
        <time>2020-08-23T11:55:22Z</time>
      </trkpt>
      <trkpt lat="45.10912" lon="5.59776">
        <ele>1551.4</ele>
        <time>2020-08-23T11:55:23Z</time>
      </trkpt>
      <trkpt lat="45.10914" lon="5.59779">
        <ele>1551.4</ele>
        <time>2020-08-23T11:55:24Z</time>
      </trkpt>
      <trkpt lat="45.10916" lon="5.5978">
        <ele>1551.2</ele>
        <time>2020-08-23T11:55:25Z</time>
      </trkpt>
      <trkpt lat="45.10918" lon="5.59781">
        <ele>1551.2</ele>
        <time>2020-08-23T11:55:26Z</time>
      </trkpt>
      <trkpt lat="45.1092" lon="5.59782">
        <ele>1551</ele>
        <time>2020-08-23T11:55:27Z</time>
      </trkpt>
      <trkpt lat="45.10923" lon="5.59784">
        <ele>1551</ele>
        <time>2020-08-23T11:55:28Z</time>
      </trkpt>
      <trkpt lat="45.10925" lon="5.59786">
        <ele>1550.8</ele>
        <time>2020-08-23T11:55:29Z</time>
      </trkpt>
      <trkpt lat="45.10926" lon="5.59789">
        <ele>1550.8</ele>
        <time>2020-08-23T11:55:30Z</time>
      </trkpt>
      <trkpt lat="45.10926" lon="5.59791">
        <ele>1550.8</ele>
        <time>2020-08-23T11:55:31Z</time>
      </trkpt>
      <trkpt lat="45.10928" lon="5.59792">
        <ele>1550.6</ele>
        <time>2020-08-23T11:55:32Z</time>
      </trkpt>
      <trkpt lat="45.10928" lon="5.59794">
        <ele>1550.6</ele>
        <time>2020-08-23T11:55:33Z</time>
      </trkpt>
      <trkpt lat="45.1093" lon="5.59795">
        <ele>1550.4</ele>
        <time>2020-08-23T11:55:34Z</time>
      </trkpt>
      <trkpt lat="45.1093" lon="5.59795">
        <ele>1550.2</ele>
        <time>2020-08-23T11:55:35Z</time>
      </trkpt>
      <trkpt lat="45.1093" lon="5.59795">
        <ele>1550</ele>
        <time>2020-08-23T11:55:36Z</time>
      </trkpt>
      <trkpt lat="45.1093" lon="5.59795">
        <ele>1550</ele>
        <time>2020-08-23T11:55:37Z</time>
      </trkpt>
      <trkpt lat="45.1093" lon="5.59795">
        <ele>1549.8</ele>
        <time>2020-08-23T11:55:38Z</time>
      </trkpt>
      <trkpt lat="45.1093" lon="5.59795">
        <ele>1549.6</ele>
        <time>2020-08-23T11:55:39Z</time>
      </trkpt>
      <trkpt lat="45.1093" lon="5.59795">
        <ele>1549.6</ele>
        <time>2020-08-23T11:55:40Z</time>
      </trkpt>
      <trkpt lat="45.1093" lon="5.59795">
        <ele>1549.4</ele>
        <time>2020-08-23T11:55:41Z</time>
      </trkpt>
      <trkpt lat="45.1093" lon="5.59795">
        <ele>1549.2</ele>
        <time>2020-08-23T11:55:42Z</time>
      </trkpt>
      <trkpt lat="45.1093" lon="5.59795">
        <ele>1549.2</ele>
        <time>2020-08-23T11:55:43Z</time>
      </trkpt>
      <trkpt lat="45.1093" lon="5.59795">
        <ele>1549</ele>
        <time>2020-08-23T11:55:44Z</time>
      </trkpt>
      <trkpt lat="45.1093" lon="5.59795">
        <ele>1547.8</ele>
        <time>2020-08-23T11:55:56Z</time>
      </trkpt>
      <trkpt lat="45.1093" lon="5.59795">
        <ele>1547.8</ele>
        <time>2020-08-23T11:55:57Z</time>
      </trkpt>
      <trkpt lat="45.1093" lon="5.59795">
        <ele>1547.8</ele>
        <time>2020-08-23T11:55:58Z</time>
      </trkpt>
      <trkpt lat="45.1093" lon="5.59795">
        <ele>1547.8</ele>
        <time>2020-08-23T11:55:59Z</time>
      </trkpt>
      <trkpt lat="45.1093" lon="5.59795">
        <ele>1547.6</ele>
        <time>2020-08-23T11:56:00Z</time>
      </trkpt>
      <trkpt lat="45.1093" lon="5.59795">
        <ele>1547.6</ele>
        <time>2020-08-23T11:56:01Z</time>
      </trkpt>
      <trkpt lat="45.1093" lon="5.59795">
        <ele>1546.6</ele>
        <time>2020-08-23T11:56:15Z</time>
      </trkpt>
      <trkpt lat="45.1093" lon="5.59795">
        <ele>1546.6</ele>
        <time>2020-08-23T11:56:16Z</time>
      </trkpt>
      <trkpt lat="45.1093" lon="5.59802">
        <ele>1546.6</ele>
        <time>2020-08-23T11:56:17Z</time>
      </trkpt>
      <trkpt lat="45.10932" lon="5.59805">
        <ele>1546.4</ele>
        <time>2020-08-23T11:56:18Z</time>
      </trkpt>
      <trkpt lat="45.10934" lon="5.59806">
        <ele>1546.2</ele>
        <time>2020-08-23T11:56:19Z</time>
      </trkpt>
      <trkpt lat="45.10937" lon="5.59807">
        <ele>1546</ele>
        <time>2020-08-23T11:56:20Z</time>
      </trkpt>
      <trkpt lat="45.10939" lon="5.59808">
        <ele>1545.6</ele>
        <time>2020-08-23T11:56:21Z</time>
      </trkpt>
      <trkpt lat="45.10941" lon="5.59808">
        <ele>1545.4</ele>
        <time>2020-08-23T11:56:22Z</time>
      </trkpt>
      <trkpt lat="45.10944" lon="5.59808">
        <ele>1545.2</ele>
        <time>2020-08-23T11:56:23Z</time>
      </trkpt>
      <trkpt lat="45.10947" lon="5.59808">
        <ele>1545</ele>
        <time>2020-08-23T11:56:24Z</time>
      </trkpt>
      <trkpt lat="45.10949" lon="5.59808">
        <ele>1545</ele>
        <time>2020-08-23T11:56:25Z</time>
      </trkpt>
      <trkpt lat="45.10952" lon="5.59809">
        <ele>1544.8</ele>
        <time>2020-08-23T11:56:26Z</time>
      </trkpt>
      <trkpt lat="45.10953" lon="5.59811">
        <ele>1544.6</ele>
        <time>2020-08-23T11:56:27Z</time>
      </trkpt>
      <trkpt lat="45.10955" lon="5.59815">
        <ele>1544.4</ele>
        <time>2020-08-23T11:56:28Z</time>
      </trkpt>
      <trkpt lat="45.10958" lon="5.59819">
        <ele>1544</ele>
        <time>2020-08-23T11:56:29Z</time>
      </trkpt>
      <trkpt lat="45.1096" lon="5.59824">
        <ele>1543.8</ele>
        <time>2020-08-23T11:56:30Z</time>
      </trkpt>
      <trkpt lat="45.10961" lon="5.59828">
        <ele>1543.6</ele>
        <time>2020-08-23T11:56:31Z</time>
      </trkpt>
      <trkpt lat="45.10962" lon="5.59834">
        <ele>1543.4</ele>
        <time>2020-08-23T11:56:32Z</time>
      </trkpt>
      <trkpt lat="45.10961" lon="5.59838">
        <ele>1543.2</ele>
        <time>2020-08-23T11:56:33Z</time>
      </trkpt>
      <trkpt lat="45.10961" lon="5.59843">
        <ele>1543</ele>
        <time>2020-08-23T11:56:34Z</time>
      </trkpt>
      <trkpt lat="45.10962" lon="5.59847">
        <ele>1542.6</ele>
        <time>2020-08-23T11:56:35Z</time>
      </trkpt>
      <trkpt lat="45.10964" lon="5.59851">
        <ele>1542.2</ele>
        <time>2020-08-23T11:56:36Z</time>
      </trkpt>
      <trkpt lat="45.10967" lon="5.59852">
        <ele>1542</ele>
        <time>2020-08-23T11:56:37Z</time>
      </trkpt>
      <trkpt lat="45.1097" lon="5.59852">
        <ele>1541.8</ele>
        <time>2020-08-23T11:56:38Z</time>
      </trkpt>
      <trkpt lat="45.10973" lon="5.59851">
        <ele>1541.6</ele>
        <time>2020-08-23T11:56:39Z</time>
      </trkpt>
      <trkpt lat="45.10976" lon="5.5985">
        <ele>1541.4</ele>
        <time>2020-08-23T11:56:40Z</time>
      </trkpt>
      <trkpt lat="45.10979" lon="5.59849">
        <ele>1541.2</ele>
        <time>2020-08-23T11:56:41Z</time>
      </trkpt>
      <trkpt lat="45.10982" lon="5.59849">
        <ele>1540.8</ele>
        <time>2020-08-23T11:56:42Z</time>
      </trkpt>
      <trkpt lat="45.10985" lon="5.59849">
        <ele>1540.4</ele>
        <time>2020-08-23T11:56:43Z</time>
      </trkpt>
      <trkpt lat="45.10988" lon="5.5985">
        <ele>1540</ele>
        <time>2020-08-23T11:56:44Z</time>
      </trkpt>
      <trkpt lat="45.1099" lon="5.59851">
        <ele>1539.6</ele>
        <time>2020-08-23T11:56:45Z</time>
      </trkpt>
      <trkpt lat="45.10992" lon="5.59854">
        <ele>1539.4</ele>
        <time>2020-08-23T11:56:46Z</time>
      </trkpt>
      <trkpt lat="45.10994" lon="5.59858">
        <ele>1539</ele>
        <time>2020-08-23T11:56:47Z</time>
      </trkpt>
      <trkpt lat="45.10995" lon="5.59864">
        <ele>1538.8</ele>
        <time>2020-08-23T11:56:48Z</time>
      </trkpt>
      <trkpt lat="45.10996" lon="5.59869">
        <ele>1538.4</ele>
        <time>2020-08-23T11:56:49Z</time>
      </trkpt>
      <trkpt lat="45.10997" lon="5.59873">
        <ele>1538</ele>
        <time>2020-08-23T11:56:50Z</time>
      </trkpt>
      <trkpt lat="45.11" lon="5.59875">
        <ele>1537.8</ele>
        <time>2020-08-23T11:56:51Z</time>
      </trkpt>
      <trkpt lat="45.11002" lon="5.59878">
        <ele>1537.4</ele>
        <time>2020-08-23T11:56:52Z</time>
      </trkpt>
      <trkpt lat="45.11004" lon="5.59882">
        <ele>1537</ele>
        <time>2020-08-23T11:56:53Z</time>
      </trkpt>
      <trkpt lat="45.11006" lon="5.59885">
        <ele>1536.6</ele>
        <time>2020-08-23T11:56:54Z</time>
      </trkpt>
      <trkpt lat="45.11009" lon="5.59888">
        <ele>1536.4</ele>
        <time>2020-08-23T11:56:55Z</time>
      </trkpt>
      <trkpt lat="45.11011" lon="5.59889">
        <ele>1536</ele>
        <time>2020-08-23T11:56:56Z</time>
      </trkpt>
      <trkpt lat="45.11013" lon="5.59888">
        <ele>1535.6</ele>
        <time>2020-08-23T11:56:57Z</time>
      </trkpt>
      <trkpt lat="45.11017" lon="5.59885">
        <ele>1535.4</ele>
        <time>2020-08-23T11:56:58Z</time>
      </trkpt>
      <trkpt lat="45.11019" lon="5.59883">
        <ele>1535</ele>
        <time>2020-08-23T11:56:59Z</time>
      </trkpt>
      <trkpt lat="45.11021" lon="5.59881">
        <ele>1534.6</ele>
        <time>2020-08-23T11:57:00Z</time>
      </trkpt>
      <trkpt lat="45.11025" lon="5.5988">
        <ele>1534.2</ele>
        <time>2020-08-23T11:57:01Z</time>
      </trkpt>
      <trkpt lat="45.11028" lon="5.59878">
        <ele>1534</ele>
        <time>2020-08-23T11:57:02Z</time>
      </trkpt>
      <trkpt lat="45.1103" lon="5.59878">
        <ele>1533.6</ele>
        <time>2020-08-23T11:57:03Z</time>
      </trkpt>
      <trkpt lat="45.11033" lon="5.59879">
        <ele>1533.4</ele>
        <time>2020-08-23T11:57:04Z</time>
      </trkpt>
      <trkpt lat="45.11035" lon="5.59882">
        <ele>1533</ele>
        <time>2020-08-23T11:57:05Z</time>
      </trkpt>
      <trkpt lat="45.11039" lon="5.59884">
        <ele>1532.6</ele>
        <time>2020-08-23T11:57:06Z</time>
      </trkpt>
      <trkpt lat="45.11042" lon="5.59886">
        <ele>1532.4</ele>
        <time>2020-08-23T11:57:07Z</time>
      </trkpt>
      <trkpt lat="45.11046" lon="5.59886">
        <ele>1532</ele>
        <time>2020-08-23T11:57:08Z</time>
      </trkpt>
      <trkpt lat="45.11049" lon="5.59885">
        <ele>1531.6</ele>
        <time>2020-08-23T11:57:09Z</time>
      </trkpt>
      <trkpt lat="45.11052" lon="5.59884">
        <ele>1531.4</ele>
        <time>2020-08-23T11:57:10Z</time>
      </trkpt>
      <trkpt lat="45.11055" lon="5.59885">
        <ele>1531</ele>
        <time>2020-08-23T11:57:11Z</time>
      </trkpt>
      <trkpt lat="45.11057" lon="5.59887">
        <ele>1530.8</ele>
        <time>2020-08-23T11:57:12Z</time>
      </trkpt>
      <trkpt lat="45.1106" lon="5.5989">
        <ele>1530.4</ele>
        <time>2020-08-23T11:57:13Z</time>
      </trkpt>
      <trkpt lat="45.11062" lon="5.59893">
        <ele>1530</ele>
        <time>2020-08-23T11:57:14Z</time>
      </trkpt>
      <trkpt lat="45.11064" lon="5.59895">
        <ele>1529.8</ele>
        <time>2020-08-23T11:57:15Z</time>
      </trkpt>
      <trkpt lat="45.1107" lon="5.59896">
        <ele>1529.4</ele>
        <time>2020-08-23T11:57:16Z</time>
      </trkpt>
      <trkpt lat="45.11075" lon="5.59897">
        <ele>1529.2</ele>
        <time>2020-08-23T11:57:17Z</time>
      </trkpt>
      <trkpt lat="45.11079" lon="5.599">
        <ele>1528.6</ele>
        <time>2020-08-23T11:57:18Z</time>
      </trkpt>
      <trkpt lat="45.11083" lon="5.59902">
        <ele>1528.4</ele>
        <time>2020-08-23T11:57:19Z</time>
      </trkpt>
      <trkpt lat="45.11087" lon="5.59905">
        <ele>1528</ele>
        <time>2020-08-23T11:57:20Z</time>
      </trkpt>
      <trkpt lat="45.11091" lon="5.59907">
        <ele>1527.6</ele>
        <time>2020-08-23T11:57:21Z</time>
      </trkpt>
      <trkpt lat="45.11095" lon="5.59909">
        <ele>1527.4</ele>
        <time>2020-08-23T11:57:22Z</time>
      </trkpt>
      <trkpt lat="45.11098" lon="5.59912">
        <ele>1527</ele>
        <time>2020-08-23T11:57:23Z</time>
      </trkpt>
      <trkpt lat="45.11101" lon="5.59913">
        <ele>1526.6</ele>
        <time>2020-08-23T11:57:24Z</time>
      </trkpt>
      <trkpt lat="45.11103" lon="5.59913">
        <ele>1526.2</ele>
        <time>2020-08-23T11:57:25Z</time>
      </trkpt>
      <trkpt lat="45.11107" lon="5.59912">
        <ele>1525.6</ele>
        <time>2020-08-23T11:57:26Z</time>
      </trkpt>
      <trkpt lat="45.1111" lon="5.5991">
        <ele>1525.2</ele>
        <time>2020-08-23T11:57:27Z</time>
      </trkpt>
      <trkpt lat="45.11115" lon="5.59909">
        <ele>1524.8</ele>
        <time>2020-08-23T11:57:28Z</time>
      </trkpt>
      <trkpt lat="45.11118" lon="5.59909">
        <ele>1524.4</ele>
        <time>2020-08-23T11:57:29Z</time>
      </trkpt>
      <trkpt lat="45.11122" lon="5.59908">
        <ele>1524</ele>
        <time>2020-08-23T11:57:30Z</time>
      </trkpt>
      <trkpt lat="45.11126" lon="5.59908">
        <ele>1523.6</ele>
        <time>2020-08-23T11:57:31Z</time>
      </trkpt>
      <trkpt lat="45.11131" lon="5.59908">
        <ele>1523</ele>
        <time>2020-08-23T11:57:32Z</time>
      </trkpt>
      <trkpt lat="45.11135" lon="5.59909">
        <ele>1522.4</ele>
        <time>2020-08-23T11:57:33Z</time>
      </trkpt>
      <trkpt lat="45.11139" lon="5.5991">
        <ele>1522</ele>
        <time>2020-08-23T11:57:34Z</time>
      </trkpt>
      <trkpt lat="45.11141" lon="5.59912">
        <ele>1521.6</ele>
        <time>2020-08-23T11:57:35Z</time>
      </trkpt>
      <trkpt lat="45.11144" lon="5.59913">
        <ele>1521.2</ele>
        <time>2020-08-23T11:57:36Z</time>
      </trkpt>
      <trkpt lat="45.11146" lon="5.59913">
        <ele>1520.8</ele>
        <time>2020-08-23T11:57:37Z</time>
      </trkpt>
      <trkpt lat="45.11149" lon="5.59913">
        <ele>1520.4</ele>
        <time>2020-08-23T11:57:38Z</time>
      </trkpt>
      <trkpt lat="45.11151" lon="5.59913">
        <ele>1519.8</ele>
        <time>2020-08-23T11:57:39Z</time>
      </trkpt>
      <trkpt lat="45.11154" lon="5.59912">
        <ele>1519.2</ele>
        <time>2020-08-23T11:57:40Z</time>
      </trkpt>
      <trkpt lat="45.11157" lon="5.5991">
        <ele>1518.8</ele>
        <time>2020-08-23T11:57:41Z</time>
      </trkpt>
      <trkpt lat="45.11159" lon="5.59908">
        <ele>1518.4</ele>
        <time>2020-08-23T11:57:42Z</time>
      </trkpt>
      <trkpt lat="45.11161" lon="5.59907">
        <ele>1518</ele>
        <time>2020-08-23T11:57:43Z</time>
      </trkpt>
      <trkpt lat="45.11162" lon="5.59906">
        <ele>1517.4</ele>
        <time>2020-08-23T11:57:44Z</time>
      </trkpt>
      <trkpt lat="45.11163" lon="5.59905">
        <ele>1517</ele>
        <time>2020-08-23T11:57:45Z</time>
      </trkpt>
      <trkpt lat="45.11165" lon="5.59901">
        <ele>1516.6</ele>
        <time>2020-08-23T11:57:46Z</time>
      </trkpt>
      <trkpt lat="45.11166" lon="5.59898">
        <ele>1516</ele>
        <time>2020-08-23T11:57:47Z</time>
      </trkpt>
      <trkpt lat="45.11167" lon="5.59894">
        <ele>1515.6</ele>
        <time>2020-08-23T11:57:48Z</time>
      </trkpt>
      <trkpt lat="45.11168" lon="5.5989">
        <ele>1515</ele>
        <time>2020-08-23T11:57:49Z</time>
      </trkpt>
      <trkpt lat="45.11169" lon="5.59887">
        <ele>1514.6</ele>
        <time>2020-08-23T11:57:50Z</time>
      </trkpt>
      <trkpt lat="45.1117" lon="5.59883">
        <ele>1514.2</ele>
        <time>2020-08-23T11:57:51Z</time>
      </trkpt>
      <trkpt lat="45.11171" lon="5.59879">
        <ele>1513.8</ele>
        <time>2020-08-23T11:57:52Z</time>
      </trkpt>
      <trkpt lat="45.11174" lon="5.59874">
        <ele>1513.4</ele>
        <time>2020-08-23T11:57:53Z</time>
      </trkpt>
      <trkpt lat="45.11176" lon="5.59869">
        <ele>1513</ele>
        <time>2020-08-23T11:57:54Z</time>
      </trkpt>
      <trkpt lat="45.11179" lon="5.59865">
        <ele>1512.6</ele>
        <time>2020-08-23T11:57:55Z</time>
      </trkpt>
      <trkpt lat="45.11181" lon="5.59861">
        <ele>1512.2</ele>
        <time>2020-08-23T11:57:56Z</time>
      </trkpt>
      <trkpt lat="45.11183" lon="5.59858">
        <ele>1511.8</ele>
        <time>2020-08-23T11:57:57Z</time>
      </trkpt>
      <trkpt lat="45.11185" lon="5.59855">
        <ele>1511.4</ele>
        <time>2020-08-23T11:57:58Z</time>
      </trkpt>
      <trkpt lat="45.11188" lon="5.59852">
        <ele>1510.8</ele>
        <time>2020-08-23T11:57:59Z</time>
      </trkpt>
      <trkpt lat="45.1119" lon="5.5985">
        <ele>1510.4</ele>
        <time>2020-08-23T11:58:00Z</time>
      </trkpt>
      <trkpt lat="45.11193" lon="5.59848">
        <ele>1509.8</ele>
        <time>2020-08-23T11:58:01Z</time>
      </trkpt>
      <trkpt lat="45.11195" lon="5.59848">
        <ele>1509.4</ele>
        <time>2020-08-23T11:58:02Z</time>
      </trkpt>
      <trkpt lat="45.11196" lon="5.59848">
        <ele>1508.8</ele>
        <time>2020-08-23T11:58:03Z</time>
      </trkpt>
      <trkpt lat="45.11197" lon="5.59847">
        <ele>1508.4</ele>
        <time>2020-08-23T11:58:04Z</time>
      </trkpt>
      <trkpt lat="45.11198" lon="5.59847">
        <ele>1508</ele>
        <time>2020-08-23T11:58:05Z</time>
      </trkpt>
      <trkpt lat="45.11198" lon="5.59846">
        <ele>1507.6</ele>
        <time>2020-08-23T11:58:06Z</time>
      </trkpt>
      <trkpt lat="45.11198" lon="5.59846">
        <ele>1507.2</ele>
        <time>2020-08-23T11:58:07Z</time>
      </trkpt>
      <trkpt lat="45.11198" lon="5.59846">
        <ele>1506.6</ele>
        <time>2020-08-23T11:58:08Z</time>
      </trkpt>
      <trkpt lat="45.11198" lon="5.59846">
        <ele>1506.2</ele>
        <time>2020-08-23T11:58:09Z</time>
      </trkpt>
      <trkpt lat="45.11198" lon="5.59846">
        <ele>1505.8</ele>
        <time>2020-08-23T11:58:10Z</time>
      </trkpt>
      <trkpt lat="45.11198" lon="5.59846">
        <ele>1505.4</ele>
        <time>2020-08-23T11:58:11Z</time>
      </trkpt>
      <trkpt lat="45.11198" lon="5.59846">
        <ele>1505</ele>
        <time>2020-08-23T11:58:12Z</time>
      </trkpt>
      <trkpt lat="45.11198" lon="5.59846">
        <ele>1504.6</ele>
        <time>2020-08-23T11:58:13Z</time>
      </trkpt>
      <trkpt lat="45.11203" lon="5.59849">
        <ele>1502.2</ele>
        <time>2020-08-23T11:59:22Z</time>
      </trkpt>
      <trkpt lat="45.11206" lon="5.59851">
        <ele>1502.2</ele>
        <time>2020-08-23T11:59:23Z</time>
      </trkpt>
      <trkpt lat="45.11208" lon="5.59853">
        <ele>1502</ele>
        <time>2020-08-23T11:59:24Z</time>
      </trkpt>
      <trkpt lat="45.1121" lon="5.59855">
        <ele>1501.6</ele>
        <time>2020-08-23T11:59:25Z</time>
      </trkpt>
      <trkpt lat="45.11211" lon="5.59857">
        <ele>1501.2</ele>
        <time>2020-08-23T11:59:26Z</time>
      </trkpt>
      <trkpt lat="45.11213" lon="5.59858">
        <ele>1500.8</ele>
        <time>2020-08-23T11:59:27Z</time>
      </trkpt>
      <trkpt lat="45.11214" lon="5.59858">
        <ele>1500.4</ele>
        <time>2020-08-23T11:59:28Z</time>
      </trkpt>
      <trkpt lat="45.11215" lon="5.59857">
        <ele>1500</ele>
        <time>2020-08-23T11:59:29Z</time>
      </trkpt>
      <trkpt lat="45.11216" lon="5.59855">
        <ele>1499.6</ele>
        <time>2020-08-23T11:59:30Z</time>
      </trkpt>
      <trkpt lat="45.11218" lon="5.59853">
        <ele>1499</ele>
        <time>2020-08-23T11:59:31Z</time>
      </trkpt>
      <trkpt lat="45.11219" lon="5.59851">
        <ele>1498.6</ele>
        <time>2020-08-23T11:59:32Z</time>
      </trkpt>
      <trkpt lat="45.11222" lon="5.5985">
        <ele>1498.2</ele>
        <time>2020-08-23T11:59:33Z</time>
      </trkpt>
      <trkpt lat="45.11224" lon="5.5985">
        <ele>1497.8</ele>
        <time>2020-08-23T11:59:34Z</time>
      </trkpt>
      <trkpt lat="45.11226" lon="5.5985">
        <ele>1497.4</ele>
        <time>2020-08-23T11:59:35Z</time>
      </trkpt>
      <trkpt lat="45.11227" lon="5.5985">
        <ele>1497</ele>
        <time>2020-08-23T11:59:36Z</time>
      </trkpt>
      <trkpt lat="45.11229" lon="5.59852">
        <ele>1496.4</ele>
        <time>2020-08-23T11:59:37Z</time>
      </trkpt>
      <trkpt lat="45.11231" lon="5.59855">
        <ele>1496</ele>
        <time>2020-08-23T11:59:38Z</time>
      </trkpt>
      <trkpt lat="45.11231" lon="5.59857">
        <ele>1495.6</ele>
        <time>2020-08-23T11:59:39Z</time>
      </trkpt>
      <trkpt lat="45.11231" lon="5.5986">
        <ele>1495.2</ele>
        <time>2020-08-23T11:59:40Z</time>
      </trkpt>
      <trkpt lat="45.11231" lon="5.59864">
        <ele>1494.8</ele>
        <time>2020-08-23T11:59:41Z</time>
      </trkpt>
      <trkpt lat="45.11231" lon="5.59868">
        <ele>1494.4</ele>
        <time>2020-08-23T11:59:42Z</time>
      </trkpt>
      <trkpt lat="45.11231" lon="5.59872">
        <ele>1494</ele>
        <time>2020-08-23T11:59:43Z</time>
      </trkpt>
      <trkpt lat="45.11232" lon="5.59875">
        <ele>1493.6</ele>
        <time>2020-08-23T11:59:44Z</time>
      </trkpt>
      <trkpt lat="45.11233" lon="5.59877">
        <ele>1493.2</ele>
        <time>2020-08-23T11:59:45Z</time>
      </trkpt>
      <trkpt lat="45.11236" lon="5.59879">
        <ele>1492.6</ele>
        <time>2020-08-23T11:59:46Z</time>
      </trkpt>
      <trkpt lat="45.1124" lon="5.5988">
        <ele>1492.4</ele>
        <time>2020-08-23T11:59:47Z</time>
      </trkpt>
      <trkpt lat="45.11245" lon="5.5988">
        <ele>1492</ele>
        <time>2020-08-23T11:59:48Z</time>
      </trkpt>
      <trkpt lat="45.11249" lon="5.59881">
        <ele>1491.6</ele>
        <time>2020-08-23T11:59:49Z</time>
      </trkpt>
      <trkpt lat="45.11254" lon="5.59884">
        <ele>1491.2</ele>
        <time>2020-08-23T11:59:50Z</time>
      </trkpt>
      <trkpt lat="45.11257" lon="5.59887">
        <ele>1490.6</ele>
        <time>2020-08-23T11:59:51Z</time>
      </trkpt>
      <trkpt lat="45.11258" lon="5.59891">
        <ele>1490.2</ele>
        <time>2020-08-23T11:59:52Z</time>
      </trkpt>
      <trkpt lat="45.1126" lon="5.59896">
        <ele>1489.8</ele>
        <time>2020-08-23T11:59:53Z</time>
      </trkpt>
      <trkpt lat="45.11262" lon="5.59899">
        <ele>1489.4</ele>
        <time>2020-08-23T11:59:54Z</time>
      </trkpt>
      <trkpt lat="45.11265" lon="5.599">
        <ele>1488.8</ele>
        <time>2020-08-23T11:59:55Z</time>
      </trkpt>
      <trkpt lat="45.11269" lon="5.599">
        <ele>1488.4</ele>
        <time>2020-08-23T11:59:56Z</time>
      </trkpt>
      <trkpt lat="45.11275" lon="5.59902">
        <ele>1487.8</ele>
        <time>2020-08-23T11:59:57Z</time>
      </trkpt>
      <trkpt lat="45.11281" lon="5.59905">
        <ele>1487.2</ele>
        <time>2020-08-23T11:59:58Z</time>
      </trkpt>
      <trkpt lat="45.11287" lon="5.59908">
        <ele>1486.8</ele>
        <time>2020-08-23T11:59:59Z</time>
      </trkpt>
      <trkpt lat="45.11293" lon="5.59911">
        <ele>1486.4</ele>
        <time>2020-08-23T12:00:00Z</time>
      </trkpt>
      <trkpt lat="45.11299" lon="5.59913">
        <ele>1485.8</ele>
        <time>2020-08-23T12:00:01Z</time>
      </trkpt>
      <trkpt lat="45.11306" lon="5.59913">
        <ele>1485.4</ele>
        <time>2020-08-23T12:00:02Z</time>
      </trkpt>
      <trkpt lat="45.11311" lon="5.59913">
        <ele>1484.8</ele>
        <time>2020-08-23T12:00:03Z</time>
      </trkpt>
      <trkpt lat="45.11317" lon="5.59912">
        <ele>1484.2</ele>
        <time>2020-08-23T12:00:04Z</time>
      </trkpt>
      <trkpt lat="45.11322" lon="5.59911">
        <ele>1483.8</ele>
        <time>2020-08-23T12:00:05Z</time>
      </trkpt>
      <trkpt lat="45.11328" lon="5.59911">
        <ele>1483.2</ele>
        <time>2020-08-23T12:00:06Z</time>
      </trkpt>
      <trkpt lat="45.11333" lon="5.5991">
        <ele>1482.8</ele>
        <time>2020-08-23T12:00:07Z</time>
      </trkpt>
      <trkpt lat="45.11338" lon="5.5991">
        <ele>1482.2</ele>
        <time>2020-08-23T12:00:08Z</time>
      </trkpt>
      <trkpt lat="45.11342" lon="5.5991">
        <ele>1481.8</ele>
        <time>2020-08-23T12:00:09Z</time>
      </trkpt>
      <trkpt lat="45.11346" lon="5.59909">
        <ele>1481.4</ele>
        <time>2020-08-23T12:00:10Z</time>
      </trkpt>
      <trkpt lat="45.11351" lon="5.59909">
        <ele>1480.8</ele>
        <time>2020-08-23T12:00:11Z</time>
      </trkpt>
      <trkpt lat="45.11355" lon="5.59908">
        <ele>1480.4</ele>
        <time>2020-08-23T12:00:12Z</time>
      </trkpt>
      <trkpt lat="45.1136" lon="5.59907">
        <ele>1480.2</ele>
        <time>2020-08-23T12:00:13Z</time>
      </trkpt>
      <trkpt lat="45.11364" lon="5.59906">
        <ele>1479.8</ele>
        <time>2020-08-23T12:00:14Z</time>
      </trkpt>
      <trkpt lat="45.11369" lon="5.59904">
        <ele>1479.2</ele>
        <time>2020-08-23T12:00:15Z</time>
      </trkpt>
      <trkpt lat="45.11373" lon="5.59902">
        <ele>1478.8</ele>
        <time>2020-08-23T12:00:16Z</time>
      </trkpt>
      <trkpt lat="45.11377" lon="5.599">
        <ele>1478.4</ele>
        <time>2020-08-23T12:00:17Z</time>
      </trkpt>
      <trkpt lat="45.1138" lon="5.59898">
        <ele>1477.8</ele>
        <time>2020-08-23T12:00:18Z</time>
      </trkpt>
      <trkpt lat="45.11384" lon="5.59897">
        <ele>1477.6</ele>
        <time>2020-08-23T12:00:19Z</time>
      </trkpt>
      <trkpt lat="45.11387" lon="5.59895">
        <ele>1477.2</ele>
        <time>2020-08-23T12:00:20Z</time>
      </trkpt>
      <trkpt lat="45.1139" lon="5.59894">
        <ele>1476.6</ele>
        <time>2020-08-23T12:00:21Z</time>
      </trkpt>
      <trkpt lat="45.11393" lon="5.59892">
        <ele>1476.2</ele>
        <time>2020-08-23T12:00:22Z</time>
      </trkpt>
      <trkpt lat="45.11396" lon="5.59891">
        <ele>1475.6</ele>
        <time>2020-08-23T12:00:23Z</time>
      </trkpt>
      <trkpt lat="45.114" lon="5.59891">
        <ele>1475.2</ele>
        <time>2020-08-23T12:00:24Z</time>
      </trkpt>
      <trkpt lat="45.11403" lon="5.5989">
        <ele>1474.6</ele>
        <time>2020-08-23T12:00:25Z</time>
      </trkpt>
      <trkpt lat="45.11406" lon="5.5989">
        <ele>1474.2</ele>
        <time>2020-08-23T12:00:26Z</time>
      </trkpt>
      <trkpt lat="45.11408" lon="5.5989">
        <ele>1473.8</ele>
        <time>2020-08-23T12:00:27Z</time>
      </trkpt>
      <trkpt lat="45.11411" lon="5.5989">
        <ele>1473.4</ele>
        <time>2020-08-23T12:00:28Z</time>
      </trkpt>
      <trkpt lat="45.11412" lon="5.5989">
        <ele>1473</ele>
        <time>2020-08-23T12:00:29Z</time>
      </trkpt>
      <trkpt lat="45.11413" lon="5.5989">
        <ele>1472.6</ele>
        <time>2020-08-23T12:00:30Z</time>
      </trkpt>
      <trkpt lat="45.11414" lon="5.59891">
        <ele>1472.2</ele>
        <time>2020-08-23T12:00:31Z</time>
      </trkpt>
      <trkpt lat="45.11416" lon="5.59891">
        <ele>1471.8</ele>
        <time>2020-08-23T12:00:32Z</time>
      </trkpt>
      <trkpt lat="45.11419" lon="5.59891">
        <ele>1471.4</ele>
        <time>2020-08-23T12:00:33Z</time>
      </trkpt>
      <trkpt lat="45.11421" lon="5.59891">
        <ele>1471</ele>
        <time>2020-08-23T12:00:34Z</time>
      </trkpt>
      <trkpt lat="45.11424" lon="5.5989">
        <ele>1470.6</ele>
        <time>2020-08-23T12:00:35Z</time>
      </trkpt>
      <trkpt lat="45.11429" lon="5.59889">
        <ele>1470.4</ele>
        <time>2020-08-23T12:00:36Z</time>
      </trkpt>
      <trkpt lat="45.11433" lon="5.59889">
        <ele>1469.8</ele>
        <time>2020-08-23T12:00:37Z</time>
      </trkpt>
      <trkpt lat="45.11438" lon="5.59889">
        <ele>1469.4</ele>
        <time>2020-08-23T12:00:38Z</time>
      </trkpt>
      <trkpt lat="45.11442" lon="5.59891">
        <ele>1469</ele>
        <time>2020-08-23T12:00:39Z</time>
      </trkpt>
      <trkpt lat="45.11446" lon="5.59891">
        <ele>1468.6</ele>
        <time>2020-08-23T12:00:40Z</time>
      </trkpt>
      <trkpt lat="45.11452" lon="5.59891">
        <ele>1468.2</ele>
        <time>2020-08-23T12:00:41Z</time>
      </trkpt>
      <trkpt lat="45.11457" lon="5.59891">
        <ele>1467.8</ele>
        <time>2020-08-23T12:00:42Z</time>
      </trkpt>
      <trkpt lat="45.11462" lon="5.5989">
        <ele>1467.4</ele>
        <time>2020-08-23T12:00:43Z</time>
      </trkpt>
      <trkpt lat="45.11467" lon="5.59889">
        <ele>1467</ele>
        <time>2020-08-23T12:00:44Z</time>
      </trkpt>
      <trkpt lat="45.11472" lon="5.59888">
        <ele>1466.4</ele>
        <time>2020-08-23T12:00:45Z</time>
      </trkpt>
      <trkpt lat="45.11476" lon="5.59888">
        <ele>1466</ele>
        <time>2020-08-23T12:00:46Z</time>
      </trkpt>
      <trkpt lat="45.11479" lon="5.59887">
        <ele>1465.6</ele>
        <time>2020-08-23T12:00:47Z</time>
      </trkpt>
      <trkpt lat="45.11482" lon="5.59887">
        <ele>1465.2</ele>
        <time>2020-08-23T12:00:48Z</time>
      </trkpt>
      <trkpt lat="45.11484" lon="5.59886">
        <ele>1464.8</ele>
        <time>2020-08-23T12:00:49Z</time>
      </trkpt>
      <trkpt lat="45.11486" lon="5.59884">
        <ele>1464.4</ele>
        <time>2020-08-23T12:00:50Z</time>
      </trkpt>
      <trkpt lat="45.11489" lon="5.59882">
        <ele>1464</ele>
        <time>2020-08-23T12:00:51Z</time>
      </trkpt>
      <trkpt lat="45.11492" lon="5.5988">
        <ele>1463.6</ele>
        <time>2020-08-23T12:00:52Z</time>
      </trkpt>
      <trkpt lat="45.11494" lon="5.59878">
        <ele>1463.2</ele>
        <time>2020-08-23T12:00:53Z</time>
      </trkpt>
      <trkpt lat="45.11498" lon="5.59876">
        <ele>1462.6</ele>
        <time>2020-08-23T12:00:54Z</time>
      </trkpt>
      <trkpt lat="45.11501" lon="5.59875">
        <ele>1462.2</ele>
        <time>2020-08-23T12:00:55Z</time>
      </trkpt>
      <trkpt lat="45.11504" lon="5.59874">
        <ele>1461.6</ele>
        <time>2020-08-23T12:00:56Z</time>
      </trkpt>
      <trkpt lat="45.11506" lon="5.59873">
        <ele>1461.2</ele>
        <time>2020-08-23T12:00:57Z</time>
      </trkpt>
      <trkpt lat="45.11509" lon="5.59873">
        <ele>1460.8</ele>
        <time>2020-08-23T12:00:58Z</time>
      </trkpt>
      <trkpt lat="45.11512" lon="5.59872">
        <ele>1460.2</ele>
        <time>2020-08-23T12:00:59Z</time>
      </trkpt>
      <trkpt lat="45.11515" lon="5.59872">
        <ele>1459.8</ele>
        <time>2020-08-23T12:01:00Z</time>
      </trkpt>
      <trkpt lat="45.11519" lon="5.59872">
        <ele>1459.2</ele>
        <time>2020-08-23T12:01:01Z</time>
      </trkpt>
      <trkpt lat="45.11522" lon="5.59872">
        <ele>1458.6</ele>
        <time>2020-08-23T12:01:02Z</time>
      </trkpt>
      <trkpt lat="45.11525" lon="5.59872">
        <ele>1458.2</ele>
        <time>2020-08-23T12:01:03Z</time>
      </trkpt>
      <trkpt lat="45.11527" lon="5.59872">
        <ele>1457.6</ele>
        <time>2020-08-23T12:01:04Z</time>
      </trkpt>
      <trkpt lat="45.1153" lon="5.59872">
        <ele>1457</ele>
        <time>2020-08-23T12:01:05Z</time>
      </trkpt>
      <trkpt lat="45.11533" lon="5.59872">
        <ele>1456.4</ele>
        <time>2020-08-23T12:01:06Z</time>
      </trkpt>
      <trkpt lat="45.11535" lon="5.59872">
        <ele>1455.8</ele>
        <time>2020-08-23T12:01:07Z</time>
      </trkpt>
      <trkpt lat="45.11538" lon="5.59871">
        <ele>1455.2</ele>
        <time>2020-08-23T12:01:08Z</time>
      </trkpt>
      <trkpt lat="45.1154" lon="5.59871">
        <ele>1454.4</ele>
        <time>2020-08-23T12:01:09Z</time>
      </trkpt>
      <trkpt lat="45.11543" lon="5.59871">
        <ele>1453.8</ele>
        <time>2020-08-23T12:01:10Z</time>
      </trkpt>
      <trkpt lat="45.11546" lon="5.5987">
        <ele>1453.2</ele>
        <time>2020-08-23T12:01:11Z</time>
      </trkpt>
      <trkpt lat="45.11548" lon="5.5987">
        <ele>1452.4</ele>
        <time>2020-08-23T12:01:12Z</time>
      </trkpt>
      <trkpt lat="45.11551" lon="5.5987">
        <ele>1451.8</ele>
        <time>2020-08-23T12:01:13Z</time>
      </trkpt>
      <trkpt lat="45.11553" lon="5.5987">
        <ele>1451.2</ele>
        <time>2020-08-23T12:01:14Z</time>
      </trkpt>
      <trkpt lat="45.11556" lon="5.5987">
        <ele>1450.6</ele>
        <time>2020-08-23T12:01:15Z</time>
      </trkpt>
      <trkpt lat="45.11559" lon="5.59869">
        <ele>1450</ele>
        <time>2020-08-23T12:01:16Z</time>
      </trkpt>
      <trkpt lat="45.11561" lon="5.59869">
        <ele>1449.4</ele>
        <time>2020-08-23T12:01:17Z</time>
      </trkpt>
      <trkpt lat="45.11564" lon="5.59869">
        <ele>1448.8</ele>
        <time>2020-08-23T12:01:18Z</time>
      </trkpt>
      <trkpt lat="45.11566" lon="5.59868">
        <ele>1448.2</ele>
        <time>2020-08-23T12:01:19Z</time>
      </trkpt>
      <trkpt lat="45.11568" lon="5.59867">
        <ele>1447.6</ele>
        <time>2020-08-23T12:01:20Z</time>
      </trkpt>
      <trkpt lat="45.1157" lon="5.59866">
        <ele>1447</ele>
        <time>2020-08-23T12:01:21Z</time>
      </trkpt>
      <trkpt lat="45.11572" lon="5.59866">
        <ele>1446.4</ele>
        <time>2020-08-23T12:01:22Z</time>
      </trkpt>
      <trkpt lat="45.11574" lon="5.59865">
        <ele>1445.8</ele>
        <time>2020-08-23T12:01:23Z</time>
      </trkpt>
      <trkpt lat="45.11576" lon="5.59865">
        <ele>1445.2</ele>
        <time>2020-08-23T12:01:24Z</time>
      </trkpt>
      <trkpt lat="45.11577" lon="5.59864">
        <ele>1444.6</ele>
        <time>2020-08-23T12:01:25Z</time>
      </trkpt>
      <trkpt lat="45.11579" lon="5.59864">
        <ele>1444</ele>
        <time>2020-08-23T12:01:26Z</time>
      </trkpt>
      <trkpt lat="45.1158" lon="5.59863">
        <ele>1443.6</ele>
        <time>2020-08-23T12:01:27Z</time>
      </trkpt>
      <trkpt lat="45.11582" lon="5.59862">
        <ele>1443</ele>
        <time>2020-08-23T12:01:28Z</time>
      </trkpt>
      <trkpt lat="45.11583" lon="5.59862">
        <ele>1442.4</ele>
        <time>2020-08-23T12:01:29Z</time>
      </trkpt>
      <trkpt lat="45.11585" lon="5.59861">
        <ele>1441.8</ele>
        <time>2020-08-23T12:01:30Z</time>
      </trkpt>
      <trkpt lat="45.11586" lon="5.59861">
        <ele>1441.2</ele>
        <time>2020-08-23T12:01:31Z</time>
      </trkpt>
      <trkpt lat="45.11588" lon="5.5986">
        <ele>1440.6</ele>
        <time>2020-08-23T12:01:32Z</time>
      </trkpt>
      <trkpt lat="45.11589" lon="5.59859">
        <ele>1440</ele>
        <time>2020-08-23T12:01:33Z</time>
      </trkpt>
      <trkpt lat="45.1159" lon="5.59858">
        <ele>1439.4</ele>
        <time>2020-08-23T12:01:34Z</time>
      </trkpt>
      <trkpt lat="45.11591" lon="5.59857">
        <ele>1438.8</ele>
        <time>2020-08-23T12:01:35Z</time>
      </trkpt>
      <trkpt lat="45.11593" lon="5.59856">
        <ele>1438</ele>
        <time>2020-08-23T12:01:36Z</time>
      </trkpt>
      <trkpt lat="45.11594" lon="5.59855">
        <ele>1437.4</ele>
        <time>2020-08-23T12:01:37Z</time>
      </trkpt>
      <trkpt lat="45.11596" lon="5.59854">
        <ele>1436.6</ele>
        <time>2020-08-23T12:01:38Z</time>
      </trkpt>
      <trkpt lat="45.11597" lon="5.59853">
        <ele>1436</ele>
        <time>2020-08-23T12:01:39Z</time>
      </trkpt>
      <trkpt lat="45.11599" lon="5.59852">
        <ele>1435.4</ele>
        <time>2020-08-23T12:01:40Z</time>
      </trkpt>
      <trkpt lat="45.11601" lon="5.59852">
        <ele>1434.8</ele>
        <time>2020-08-23T12:01:41Z</time>
      </trkpt>
      <trkpt lat="45.11602" lon="5.59851">
        <ele>1434.2</ele>
        <time>2020-08-23T12:01:42Z</time>
      </trkpt>
      <trkpt lat="45.11603" lon="5.5985">
        <ele>1433.6</ele>
        <time>2020-08-23T12:01:43Z</time>
      </trkpt>
      <trkpt lat="45.11605" lon="5.5985">
        <ele>1433</ele>
        <time>2020-08-23T12:01:44Z</time>
      </trkpt>
      <trkpt lat="45.11606" lon="5.59849">
        <ele>1432.2</ele>
        <time>2020-08-23T12:01:45Z</time>
      </trkpt>
      <trkpt lat="45.11608" lon="5.59849">
        <ele>1431.6</ele>
        <time>2020-08-23T12:01:46Z</time>
      </trkpt>
      <trkpt lat="45.11609" lon="5.59848">
        <ele>1431</ele>
        <time>2020-08-23T12:01:47Z</time>
      </trkpt>
      <trkpt lat="45.11611" lon="5.59848">
        <ele>1430.4</ele>
        <time>2020-08-23T12:01:48Z</time>
      </trkpt>
      <trkpt lat="45.11612" lon="5.59847">
        <ele>1429.6</ele>
        <time>2020-08-23T12:01:49Z</time>
      </trkpt>
      <trkpt lat="45.11614" lon="5.59846">
        <ele>1429</ele>
        <time>2020-08-23T12:01:50Z</time>
      </trkpt>
      <trkpt lat="45.11615" lon="5.59846">
        <ele>1428.4</ele>
        <time>2020-08-23T12:01:51Z</time>
      </trkpt>
      <trkpt lat="45.11617" lon="5.59845">
        <ele>1427.8</ele>
        <time>2020-08-23T12:01:52Z</time>
      </trkpt>
      <trkpt lat="45.11618" lon="5.59845">
        <ele>1427.2</ele>
        <time>2020-08-23T12:01:53Z</time>
      </trkpt>
      <trkpt lat="45.1162" lon="5.59845">
        <ele>1426.6</ele>
        <time>2020-08-23T12:01:54Z</time>
      </trkpt>
      <trkpt lat="45.11621" lon="5.59845">
        <ele>1426</ele>
        <time>2020-08-23T12:01:55Z</time>
      </trkpt>
      <trkpt lat="45.11623" lon="5.59844">
        <ele>1425.2</ele>
        <time>2020-08-23T12:01:56Z</time>
      </trkpt>
      <trkpt lat="45.11624" lon="5.59844">
        <ele>1424.6</ele>
        <time>2020-08-23T12:01:57Z</time>
      </trkpt>
      <trkpt lat="45.11625" lon="5.59843">
        <ele>1424</ele>
        <time>2020-08-23T12:01:58Z</time>
      </trkpt>
      <trkpt lat="45.11627" lon="5.59843">
        <ele>1423.4</ele>
        <time>2020-08-23T12:01:59Z</time>
      </trkpt>
      <trkpt lat="45.11628" lon="5.59843">
        <ele>1422.8</ele>
        <time>2020-08-23T12:02:00Z</time>
      </trkpt>
      <trkpt lat="45.1163" lon="5.59842">
        <ele>1422.2</ele>
        <time>2020-08-23T12:02:01Z</time>
      </trkpt>
      <trkpt lat="45.11631" lon="5.59842">
        <ele>1421.4</ele>
        <time>2020-08-23T12:02:02Z</time>
      </trkpt>
      <trkpt lat="45.11632" lon="5.59841">
        <ele>1420.8</ele>
        <time>2020-08-23T12:02:03Z</time>
      </trkpt>
      <trkpt lat="45.11634" lon="5.59841">
        <ele>1420.2</ele>
        <time>2020-08-23T12:02:04Z</time>
      </trkpt>
      <trkpt lat="45.11636" lon="5.5984">
        <ele>1419.6</ele>
        <time>2020-08-23T12:02:05Z</time>
      </trkpt>
      <trkpt lat="45.11637" lon="5.5984">
        <ele>1419</ele>
        <time>2020-08-23T12:02:06Z</time>
      </trkpt>
      <trkpt lat="45.11639" lon="5.59839">
        <ele>1418.4</ele>
        <time>2020-08-23T12:02:07Z</time>
      </trkpt>
      <trkpt lat="45.1164" lon="5.59839">
        <ele>1417.8</ele>
        <time>2020-08-23T12:02:08Z</time>
      </trkpt>
      <trkpt lat="45.11642" lon="5.59838">
        <ele>1417.2</ele>
        <time>2020-08-23T12:02:09Z</time>
      </trkpt>
      <trkpt lat="45.11643" lon="5.59838">
        <ele>1416.6</ele>
        <time>2020-08-23T12:02:10Z</time>
      </trkpt>
      <trkpt lat="45.11645" lon="5.59838">
        <ele>1416</ele>
        <time>2020-08-23T12:02:11Z</time>
      </trkpt>
      <trkpt lat="45.11646" lon="5.59837">
        <ele>1415.4</ele>
        <time>2020-08-23T12:02:12Z</time>
      </trkpt>
      <trkpt lat="45.11648" lon="5.59837">
        <ele>1414.8</ele>
        <time>2020-08-23T12:02:13Z</time>
      </trkpt>
      <trkpt lat="45.1165" lon="5.59836">
        <ele>1414.4</ele>
        <time>2020-08-23T12:02:14Z</time>
      </trkpt>
      <trkpt lat="45.11652" lon="5.59836">
        <ele>1413.8</ele>
        <time>2020-08-23T12:02:15Z</time>
      </trkpt>
      <trkpt lat="45.11653" lon="5.59835">
        <ele>1413.2</ele>
        <time>2020-08-23T12:02:16Z</time>
      </trkpt>
      <trkpt lat="45.11654" lon="5.59834">
        <ele>1412.6</ele>
        <time>2020-08-23T12:02:17Z</time>
      </trkpt>
      <trkpt lat="45.11656" lon="5.59834">
        <ele>1412.2</ele>
        <time>2020-08-23T12:02:18Z</time>
      </trkpt>
      <trkpt lat="45.11658" lon="5.59834">
        <ele>1411.6</ele>
        <time>2020-08-23T12:02:19Z</time>
      </trkpt>
      <trkpt lat="45.1166" lon="5.59833">
        <ele>1411.2</ele>
        <time>2020-08-23T12:02:20Z</time>
      </trkpt>
      <trkpt lat="45.11661" lon="5.59833">
        <ele>1410.6</ele>
        <time>2020-08-23T12:02:21Z</time>
      </trkpt>
      <trkpt lat="45.11662" lon="5.59833">
        <ele>1410.2</ele>
        <time>2020-08-23T12:02:22Z</time>
      </trkpt>
      <trkpt lat="45.11664" lon="5.59832">
        <ele>1409.6</ele>
        <time>2020-08-23T12:02:23Z</time>
      </trkpt>
      <trkpt lat="45.11666" lon="5.59832">
        <ele>1409.2</ele>
        <time>2020-08-23T12:02:24Z</time>
      </trkpt>
      <trkpt lat="45.11667" lon="5.59832">
        <ele>1408.8</ele>
        <time>2020-08-23T12:02:25Z</time>
      </trkpt>
      <trkpt lat="45.11669" lon="5.59832">
        <ele>1408.2</ele>
        <time>2020-08-23T12:02:26Z</time>
      </trkpt>
      <trkpt lat="45.1167" lon="5.59831">
        <ele>1407.8</ele>
        <time>2020-08-23T12:02:27Z</time>
      </trkpt>
      <trkpt lat="45.11672" lon="5.59831">
        <ele>1407.4</ele>
        <time>2020-08-23T12:02:28Z</time>
      </trkpt>
      <trkpt lat="45.11673" lon="5.59831">
        <ele>1407</ele>
        <time>2020-08-23T12:02:29Z</time>
      </trkpt>
      <trkpt lat="45.11675" lon="5.5983">
        <ele>1406.6</ele>
        <time>2020-08-23T12:02:30Z</time>
      </trkpt>
      <trkpt lat="45.11676" lon="5.5983">
        <ele>1406.2</ele>
        <time>2020-08-23T12:02:31Z</time>
      </trkpt>
      <trkpt lat="45.11678" lon="5.5983">
        <ele>1406</ele>
        <time>2020-08-23T12:02:32Z</time>
      </trkpt>
      <trkpt lat="45.1168" lon="5.59829">
        <ele>1405.6</ele>
        <time>2020-08-23T12:02:33Z</time>
      </trkpt>
      <trkpt lat="45.11681" lon="5.59829">
        <ele>1405.2</ele>
        <time>2020-08-23T12:02:34Z</time>
      </trkpt>
      <trkpt lat="45.11682" lon="5.59828">
        <ele>1404.8</ele>
        <time>2020-08-23T12:02:35Z</time>
      </trkpt>
      <trkpt lat="45.11684" lon="5.59828">
        <ele>1404.4</ele>
        <time>2020-08-23T12:02:36Z</time>
      </trkpt>
      <trkpt lat="45.11686" lon="5.59828">
        <ele>1404.2</ele>
        <time>2020-08-23T12:02:37Z</time>
      </trkpt>
      <trkpt lat="45.11687" lon="5.59827">
        <ele>1403.8</ele>
        <time>2020-08-23T12:02:38Z</time>
      </trkpt>
      <trkpt lat="45.11688" lon="5.59826">
        <ele>1403.4</ele>
        <time>2020-08-23T12:02:39Z</time>
      </trkpt>
      <trkpt lat="45.1169" lon="5.59825">
        <ele>1403.2</ele>
        <time>2020-08-23T12:02:40Z</time>
      </trkpt>
      <trkpt lat="45.11691" lon="5.59824">
        <ele>1402.8</ele>
        <time>2020-08-23T12:02:41Z</time>
      </trkpt>
      <trkpt lat="45.11692" lon="5.59823">
        <ele>1402.4</ele>
        <time>2020-08-23T12:02:42Z</time>
      </trkpt>
      <trkpt lat="45.11694" lon="5.59822">
        <ele>1402.2</ele>
        <time>2020-08-23T12:02:43Z</time>
      </trkpt>
      <trkpt lat="45.11694" lon="5.5982">
        <ele>1401.8</ele>
        <time>2020-08-23T12:02:44Z</time>
      </trkpt>
      <trkpt lat="45.11696" lon="5.59819">
        <ele>1401.6</ele>
        <time>2020-08-23T12:02:45Z</time>
      </trkpt>
      <trkpt lat="45.11697" lon="5.59817">
        <ele>1401.4</ele>
        <time>2020-08-23T12:02:46Z</time>
      </trkpt>
      <trkpt lat="45.11698" lon="5.59816">
        <ele>1401.2</ele>
        <time>2020-08-23T12:02:47Z</time>
      </trkpt>
      <trkpt lat="45.11699" lon="5.59814">
        <ele>1401</ele>
        <time>2020-08-23T12:02:48Z</time>
      </trkpt>
      <trkpt lat="45.11699" lon="5.59813">
        <ele>1400.8</ele>
        <time>2020-08-23T12:02:49Z</time>
      </trkpt>
      <trkpt lat="45.11699" lon="5.59811">
        <ele>1400.6</ele>
        <time>2020-08-23T12:02:50Z</time>
      </trkpt>
      <trkpt lat="45.117" lon="5.5981">
        <ele>1400.2</ele>
        <time>2020-08-23T12:02:51Z</time>
      </trkpt>
      <trkpt lat="45.117" lon="5.59809">
        <ele>1400</ele>
        <time>2020-08-23T12:02:52Z</time>
      </trkpt>
      <trkpt lat="45.11701" lon="5.59808">
        <ele>1399.8</ele>
        <time>2020-08-23T12:02:53Z</time>
      </trkpt>
      <trkpt lat="45.11703" lon="5.59808">
        <ele>1399.4</ele>
        <time>2020-08-23T12:02:54Z</time>
      </trkpt>
      <trkpt lat="45.11704" lon="5.59808">
        <ele>1399.2</ele>
        <time>2020-08-23T12:02:55Z</time>
      </trkpt>
      <trkpt lat="45.11706" lon="5.59808">
        <ele>1398.8</ele>
        <time>2020-08-23T12:02:56Z</time>
      </trkpt>
      <trkpt lat="45.11707" lon="5.59809">
        <ele>1398.6</ele>
        <time>2020-08-23T12:02:57Z</time>
      </trkpt>
      <trkpt lat="45.11709" lon="5.59809">
        <ele>1398.4</ele>
        <time>2020-08-23T12:02:58Z</time>
      </trkpt>
      <trkpt lat="45.1171" lon="5.5981">
        <ele>1398.2</ele>
        <time>2020-08-23T12:02:59Z</time>
      </trkpt>
      <trkpt lat="45.11712" lon="5.59811">
        <ele>1397.8</ele>
        <time>2020-08-23T12:03:00Z</time>
      </trkpt>
      <trkpt lat="45.11713" lon="5.59812">
        <ele>1397.6</ele>
        <time>2020-08-23T12:03:01Z</time>
      </trkpt>
      <trkpt lat="45.11715" lon="5.59812">
        <ele>1397.4</ele>
        <time>2020-08-23T12:03:02Z</time>
      </trkpt>
      <trkpt lat="45.11717" lon="5.59813">
        <ele>1397</ele>
        <time>2020-08-23T12:03:03Z</time>
      </trkpt>
      <trkpt lat="45.11718" lon="5.59814">
        <ele>1396.8</ele>
        <time>2020-08-23T12:03:04Z</time>
      </trkpt>
      <trkpt lat="45.1172" lon="5.59814">
        <ele>1396.6</ele>
        <time>2020-08-23T12:03:05Z</time>
      </trkpt>
      <trkpt lat="45.11722" lon="5.59815">
        <ele>1396.4</ele>
        <time>2020-08-23T12:03:06Z</time>
      </trkpt>
      <trkpt lat="45.11724" lon="5.59816">
        <ele>1396.2</ele>
        <time>2020-08-23T12:03:07Z</time>
      </trkpt>
      <trkpt lat="45.11725" lon="5.59817">
        <ele>1396</ele>
        <time>2020-08-23T12:03:08Z</time>
      </trkpt>
      <trkpt lat="45.11727" lon="5.59818">
        <ele>1395.6</ele>
        <time>2020-08-23T12:03:09Z</time>
      </trkpt>
      <trkpt lat="45.11729" lon="5.59819">
        <ele>1395.4</ele>
        <time>2020-08-23T12:03:10Z</time>
      </trkpt>
      <trkpt lat="45.11731" lon="5.5982">
        <ele>1395.2</ele>
        <time>2020-08-23T12:03:11Z</time>
      </trkpt>
      <trkpt lat="45.11732" lon="5.59821">
        <ele>1395</ele>
        <time>2020-08-23T12:03:12Z</time>
      </trkpt>
      <trkpt lat="45.11734" lon="5.59822">
        <ele>1394.8</ele>
        <time>2020-08-23T12:03:13Z</time>
      </trkpt>
      <trkpt lat="45.11736" lon="5.59822">
        <ele>1394.6</ele>
        <time>2020-08-23T12:03:14Z</time>
      </trkpt>
      <trkpt lat="45.11737" lon="5.59823">
        <ele>1394.6</ele>
        <time>2020-08-23T12:03:15Z</time>
      </trkpt>
      <trkpt lat="45.11739" lon="5.59823">
        <ele>1394.4</ele>
        <time>2020-08-23T12:03:16Z</time>
      </trkpt>
      <trkpt lat="45.11741" lon="5.59823">
        <ele>1394.4</ele>
        <time>2020-08-23T12:03:17Z</time>
      </trkpt>
      <trkpt lat="45.11743" lon="5.59824">
        <ele>1394.2</ele>
        <time>2020-08-23T12:03:18Z</time>
      </trkpt>
      <trkpt lat="45.11745" lon="5.59824">
        <ele>1394.2</ele>
        <time>2020-08-23T12:03:19Z</time>
      </trkpt>
      <trkpt lat="45.11747" lon="5.59825">
        <ele>1394.2</ele>
        <time>2020-08-23T12:03:20Z</time>
      </trkpt>
      <trkpt lat="45.11749" lon="5.59826">
        <ele>1394</ele>
        <time>2020-08-23T12:03:21Z</time>
      </trkpt>
      <trkpt lat="45.11751" lon="5.59826">
        <ele>1394</ele>
        <time>2020-08-23T12:03:22Z</time>
      </trkpt>
      <trkpt lat="45.11753" lon="5.59826">
        <ele>1393.8</ele>
        <time>2020-08-23T12:03:23Z</time>
      </trkpt>
      <trkpt lat="45.11755" lon="5.59826">
        <ele>1393.8</ele>
        <time>2020-08-23T12:03:24Z</time>
      </trkpt>
      <trkpt lat="45.11757" lon="5.59826">
        <ele>1393.8</ele>
        <time>2020-08-23T12:03:25Z</time>
      </trkpt>
      <trkpt lat="45.11759" lon="5.59825">
        <ele>1393.8</ele>
        <time>2020-08-23T12:03:26Z</time>
      </trkpt>
      <trkpt lat="45.11762" lon="5.59824">
        <ele>1393.6</ele>
        <time>2020-08-23T12:03:27Z</time>
      </trkpt>
      <trkpt lat="45.11764" lon="5.59823">
        <ele>1393.6</ele>
        <time>2020-08-23T12:03:28Z</time>
      </trkpt>
      <trkpt lat="45.11766" lon="5.59822">
        <ele>1393.6</ele>
        <time>2020-08-23T12:03:29Z</time>
      </trkpt>
      <trkpt lat="45.11768" lon="5.59821">
        <ele>1393.6</ele>
        <time>2020-08-23T12:03:30Z</time>
      </trkpt>
      <trkpt lat="45.11771" lon="5.59819">
        <ele>1393.4</ele>
        <time>2020-08-23T12:03:31Z</time>
      </trkpt>
      <trkpt lat="45.11773" lon="5.59818">
        <ele>1393.4</ele>
        <time>2020-08-23T12:03:32Z</time>
      </trkpt>
      <trkpt lat="45.11775" lon="5.59817">
        <ele>1393.4</ele>
        <time>2020-08-23T12:03:33Z</time>
      </trkpt>
      <trkpt lat="45.11777" lon="5.59816">
        <ele>1393.4</ele>
        <time>2020-08-23T12:03:34Z</time>
      </trkpt>
      <trkpt lat="45.11778" lon="5.59815">
        <ele>1393.2</ele>
        <time>2020-08-23T12:03:35Z</time>
      </trkpt>
      <trkpt lat="45.1178" lon="5.59813">
        <ele>1393.2</ele>
        <time>2020-08-23T12:03:36Z</time>
      </trkpt>
      <trkpt lat="45.11781" lon="5.59812">
        <ele>1393.2</ele>
        <time>2020-08-23T12:03:37Z</time>
      </trkpt>
      <trkpt lat="45.11783" lon="5.59811">
        <ele>1393</ele>
        <time>2020-08-23T12:03:38Z</time>
      </trkpt>
      <trkpt lat="45.11786" lon="5.59809">
        <ele>1393</ele>
        <time>2020-08-23T12:03:39Z</time>
      </trkpt>
      <trkpt lat="45.11787" lon="5.59807">
        <ele>1393</ele>
        <time>2020-08-23T12:03:40Z</time>
      </trkpt>
      <trkpt lat="45.1179" lon="5.59805">
        <ele>1392.8</ele>
        <time>2020-08-23T12:03:41Z</time>
      </trkpt>
      <trkpt lat="45.11792" lon="5.59803">
        <ele>1392.8</ele>
        <time>2020-08-23T12:03:42Z</time>
      </trkpt>
      <trkpt lat="45.11794" lon="5.598">
        <ele>1392.6</ele>
        <time>2020-08-23T12:03:43Z</time>
      </trkpt>
      <trkpt lat="45.11795" lon="5.59798">
        <ele>1392.4</ele>
        <time>2020-08-23T12:03:44Z</time>
      </trkpt>
      <trkpt lat="45.11797" lon="5.59795">
        <ele>1392.2</ele>
        <time>2020-08-23T12:03:45Z</time>
      </trkpt>
      <trkpt lat="45.11799" lon="5.59792">
        <ele>1392.2</ele>
        <time>2020-08-23T12:03:46Z</time>
      </trkpt>
      <trkpt lat="45.11801" lon="5.59789">
        <ele>1392</ele>
        <time>2020-08-23T12:03:47Z</time>
      </trkpt>
      <trkpt lat="45.11802" lon="5.59787">
        <ele>1391.8</ele>
        <time>2020-08-23T12:03:48Z</time>
      </trkpt>
      <trkpt lat="45.11803" lon="5.59785">
        <ele>1391.8</ele>
        <time>2020-08-23T12:03:49Z</time>
      </trkpt>
      <trkpt lat="45.11804" lon="5.59783">
        <ele>1391.6</ele>
        <time>2020-08-23T12:03:50Z</time>
      </trkpt>
      <trkpt lat="45.11805" lon="5.59782">
        <ele>1391.6</ele>
        <time>2020-08-23T12:03:51Z</time>
      </trkpt>
      <trkpt lat="45.11807" lon="5.5978">
        <ele>1391.4</ele>
        <time>2020-08-23T12:03:52Z</time>
      </trkpt>
      <trkpt lat="45.11809" lon="5.59778">
        <ele>1391.4</ele>
        <time>2020-08-23T12:03:53Z</time>
      </trkpt>
      <trkpt lat="45.1181" lon="5.59776">
        <ele>1391.2</ele>
        <time>2020-08-23T12:03:54Z</time>
      </trkpt>
      <trkpt lat="45.11812" lon="5.59775">
        <ele>1391.2</ele>
        <time>2020-08-23T12:03:55Z</time>
      </trkpt>
      <trkpt lat="45.11813" lon="5.59774">
        <ele>1391.2</ele>
        <time>2020-08-23T12:03:56Z</time>
      </trkpt>
      <trkpt lat="45.11814" lon="5.59772">
        <ele>1391.2</ele>
        <time>2020-08-23T12:03:57Z</time>
      </trkpt>
      <trkpt lat="45.11815" lon="5.59771">
        <ele>1391.2</ele>
        <time>2020-08-23T12:03:58Z</time>
      </trkpt>
      <trkpt lat="45.11816" lon="5.5977">
        <ele>1391.2</ele>
        <time>2020-08-23T12:03:59Z</time>
      </trkpt>
      <trkpt lat="45.11817" lon="5.59769">
        <ele>1391.2</ele>
        <time>2020-08-23T12:04:00Z</time>
      </trkpt>
      <trkpt lat="45.11818" lon="5.59768">
        <ele>1391.2</ele>
        <time>2020-08-23T12:04:01Z</time>
      </trkpt>
      <trkpt lat="45.11818" lon="5.59766">
        <ele>1391.2</ele>
        <time>2020-08-23T12:04:02Z</time>
      </trkpt>
      <trkpt lat="45.1182" lon="5.59765">
        <ele>1391.2</ele>
        <time>2020-08-23T12:04:03Z</time>
      </trkpt>
      <trkpt lat="45.1182" lon="5.59764">
        <ele>1391.4</ele>
        <time>2020-08-23T12:04:04Z</time>
      </trkpt>
      <trkpt lat="45.11821" lon="5.59762">
        <ele>1391.4</ele>
        <time>2020-08-23T12:04:05Z</time>
      </trkpt>
      <trkpt lat="45.11828" lon="5.59757">
        <ele>1391.4</ele>
        <time>2020-08-23T12:04:11Z</time>
      </trkpt>
      <trkpt lat="45.1183" lon="5.59756">
        <ele>1391.2</ele>
        <time>2020-08-23T12:04:12Z</time>
      </trkpt>
      <trkpt lat="45.11831" lon="5.59755">
        <ele>1391.2</ele>
        <time>2020-08-23T12:04:13Z</time>
      </trkpt>
      <trkpt lat="45.11832" lon="5.59755">
        <ele>1391.2</ele>
        <time>2020-08-23T12:04:14Z</time>
      </trkpt>
      <trkpt lat="45.11833" lon="5.59754">
        <ele>1391</ele>
        <time>2020-08-23T12:04:15Z</time>
      </trkpt>
      <trkpt lat="45.11835" lon="5.59753">
        <ele>1390.8</ele>
        <time>2020-08-23T12:04:16Z</time>
      </trkpt>
      <trkpt lat="45.11836" lon="5.59753">
        <ele>1390.6</ele>
        <time>2020-08-23T12:04:17Z</time>
      </trkpt>
      <trkpt lat="45.11837" lon="5.59752">
        <ele>1390.4</ele>
        <time>2020-08-23T12:04:18Z</time>
      </trkpt>
      <trkpt lat="45.11837" lon="5.59751">
        <ele>1390.2</ele>
        <time>2020-08-23T12:04:19Z</time>
      </trkpt>
      <trkpt lat="45.11837" lon="5.59751">
        <ele>1390</ele>
        <time>2020-08-23T12:04:20Z</time>
      </trkpt>
      <trkpt lat="45.11837" lon="5.59751">
        <ele>1390</ele>
        <time>2020-08-23T12:04:21Z</time>
      </trkpt>
      <trkpt lat="45.11837" lon="5.59751">
        <ele>1389.8</ele>
        <time>2020-08-23T12:04:22Z</time>
      </trkpt>
      <trkpt lat="45.11837" lon="5.59751">
        <ele>1389.6</ele>
        <time>2020-08-23T12:04:23Z</time>
      </trkpt>
      <trkpt lat="45.1185" lon="5.59754">
        <ele>1389.2</ele>
        <time>2020-08-23T12:06:51Z</time>
      </trkpt>
      <trkpt lat="45.11855" lon="5.59758">
        <ele>1389.2</ele>
        <time>2020-08-23T12:06:52Z</time>
      </trkpt>
      <trkpt lat="45.11862" lon="5.59762">
        <ele>1389.2</ele>
        <time>2020-08-23T12:06:53Z</time>
      </trkpt>
      <trkpt lat="45.11868" lon="5.59767">
        <ele>1389</ele>
        <time>2020-08-23T12:06:54Z</time>
      </trkpt>
      <trkpt lat="45.11874" lon="5.59771">
        <ele>1388.8</ele>
        <time>2020-08-23T12:06:55Z</time>
      </trkpt>
      <trkpt lat="45.11879" lon="5.59776">
        <ele>1388.8</ele>
        <time>2020-08-23T12:06:56Z</time>
      </trkpt>
      <trkpt lat="45.11884" lon="5.5978">
        <ele>1388.6</ele>
        <time>2020-08-23T12:06:57Z</time>
      </trkpt>
      <trkpt lat="45.11888" lon="5.59784">
        <ele>1388.4</ele>
        <time>2020-08-23T12:06:58Z</time>
      </trkpt>
      <trkpt lat="45.11891" lon="5.59787">
        <ele>1388.4</ele>
        <time>2020-08-23T12:06:59Z</time>
      </trkpt>
      <trkpt lat="45.11894" lon="5.59789">
        <ele>1388.4</ele>
        <time>2020-08-23T12:07:00Z</time>
      </trkpt>
      <trkpt lat="45.11895" lon="5.59792">
        <ele>1388.2</ele>
        <time>2020-08-23T12:07:01Z</time>
      </trkpt>
      <trkpt lat="45.11898" lon="5.59794">
        <ele>1388.2</ele>
        <time>2020-08-23T12:07:02Z</time>
      </trkpt>
      <trkpt lat="45.11899" lon="5.59796">
        <ele>1388.2</ele>
        <time>2020-08-23T12:07:03Z</time>
      </trkpt>
      <trkpt lat="45.119" lon="5.59797">
        <ele>1388.2</ele>
        <time>2020-08-23T12:07:04Z</time>
      </trkpt>
      <trkpt lat="45.119" lon="5.59797">
        <ele>1388.2</ele>
        <time>2020-08-23T12:07:05Z</time>
      </trkpt>
      <trkpt lat="45.11901" lon="5.59797">
        <ele>1388.2</ele>
        <time>2020-08-23T12:07:06Z</time>
      </trkpt>
      <trkpt lat="45.11901" lon="5.59797">
        <ele>1388.2</ele>
        <time>2020-08-23T12:07:07Z</time>
      </trkpt>
      <trkpt lat="45.11901" lon="5.59797">
        <ele>1388.2</ele>
        <time>2020-08-23T12:07:08Z</time>
      </trkpt>
      <trkpt lat="45.11905" lon="5.59789">
        <ele>1388.4</ele>
        <time>2020-08-23T12:07:14Z</time>
      </trkpt>
      <trkpt lat="45.11906" lon="5.59785">
        <ele>1388.4</ele>
        <time>2020-08-23T12:07:15Z</time>
      </trkpt>
      <trkpt lat="45.11907" lon="5.59783">
        <ele>1388.2</ele>
        <time>2020-08-23T12:07:16Z</time>
      </trkpt>
      <trkpt lat="45.11908" lon="5.59782">
        <ele>1388.2</ele>
        <time>2020-08-23T12:07:17Z</time>
      </trkpt>
      <trkpt lat="45.11908" lon="5.59782">
        <ele>1388.2</ele>
        <time>2020-08-23T12:07:18Z</time>
      </trkpt>
      <trkpt lat="45.11908" lon="5.59781">
        <ele>1388.2</ele>
        <time>2020-08-23T12:07:19Z</time>
      </trkpt>
      <trkpt lat="45.11908" lon="5.59781">
        <ele>1388.2</ele>
        <time>2020-08-23T12:07:20Z</time>
      </trkpt>
      <trkpt lat="45.11908" lon="5.59781">
        <ele>1388.2</ele>
        <time>2020-08-23T12:07:21Z</time>
      </trkpt>
      <trkpt lat="45.11908" lon="5.59781">
        <ele>1388.4</ele>
        <time>2020-08-23T12:07:22Z</time>
      </trkpt>
      <trkpt lat="45.11908" lon="5.59781">
        <ele>1388.4</ele>
        <time>2020-08-23T12:07:23Z</time>
      </trkpt>
      <trkpt lat="45.11908" lon="5.59781">
        <ele>1388.4</ele>
        <time>2020-08-23T12:07:24Z</time>
      </trkpt>
      <trkpt lat="45.11908" lon="5.59781">
        <ele>1388.6</ele>
        <time>2020-08-23T12:07:25Z</time>
      </trkpt>
      <trkpt lat="45.11908" lon="5.59781">
        <ele>1388.6</ele>
        <time>2020-08-23T12:07:26Z</time>
      </trkpt>
      <trkpt lat="45.11908" lon="5.59781">
        <ele>1388.6</ele>
        <time>2020-08-23T12:07:27Z</time>
      </trkpt>
      <trkpt lat="45.11908" lon="5.59781">
        <ele>1388.8</ele>
        <time>2020-08-23T12:07:28Z</time>
      </trkpt>
      <trkpt lat="45.11908" lon="5.59781">
        <ele>1388.8</ele>
        <time>2020-08-23T12:07:29Z</time>
      </trkpt>
      <trkpt lat="45.11908" lon="5.59781">
        <ele>1389</ele>
        <time>2020-08-23T12:07:30Z</time>
      </trkpt>
      <trkpt lat="45.11908" lon="5.59781">
        <ele>1389.2</ele>
        <time>2020-08-23T12:07:31Z</time>
      </trkpt>
      <trkpt lat="45.11908" lon="5.59781">
        <ele>1389.4</ele>
        <time>2020-08-23T12:07:32Z</time>
      </trkpt>
      <trkpt lat="45.11908" lon="5.59781">
        <ele>1389.6</ele>
        <time>2020-08-23T12:07:33Z</time>
      </trkpt>
      <trkpt lat="45.11908" lon="5.59781">
        <ele>1389.8</ele>
        <time>2020-08-23T12:07:34Z</time>
      </trkpt>
      <trkpt lat="45.11908" lon="5.59781">
        <ele>1389.8</ele>
        <time>2020-08-23T12:07:35Z</time>
      </trkpt>
      <trkpt lat="45.11908" lon="5.59781">
        <ele>1390</ele>
        <time>2020-08-23T12:07:36Z</time>
      </trkpt>
      <trkpt lat="45.11908" lon="5.59781">
        <ele>1390</ele>
        <time>2020-08-23T12:07:37Z</time>
      </trkpt>
      <trkpt lat="45.11907" lon="5.59791">
        <ele>1390.2</ele>
        <time>2020-08-23T12:07:38Z</time>
      </trkpt>
      <trkpt lat="45.11907" lon="5.59795">
        <ele>1390.2</ele>
        <time>2020-08-23T12:07:39Z</time>
      </trkpt>
      <trkpt lat="45.11908" lon="5.59796">
        <ele>1390.4</ele>
        <time>2020-08-23T12:07:40Z</time>
      </trkpt>
      <trkpt lat="45.11908" lon="5.59796">
        <ele>1390.4</ele>
        <time>2020-08-23T12:07:41Z</time>
      </trkpt>
      <trkpt lat="45.11909" lon="5.59797">
        <ele>1390.6</ele>
        <time>2020-08-23T12:07:42Z</time>
      </trkpt>
      <trkpt lat="45.1191" lon="5.59798">
        <ele>1390.6</ele>
        <time>2020-08-23T12:07:43Z</time>
      </trkpt>
      <trkpt lat="45.1191" lon="5.59798">
        <ele>1390.8</ele>
        <time>2020-08-23T12:07:44Z</time>
      </trkpt>
      <trkpt lat="45.1191" lon="5.59798">
        <ele>1390.8</ele>
        <time>2020-08-23T12:07:45Z</time>
      </trkpt>
      <trkpt lat="45.1191" lon="5.59798">
        <ele>1391</ele>
        <time>2020-08-23T12:07:46Z</time>
      </trkpt>
      <trkpt lat="45.1191" lon="5.59798">
        <ele>1391.2</ele>
        <time>2020-08-23T12:07:47Z</time>
      </trkpt>
      <trkpt lat="45.11914" lon="5.59797">
        <ele>1391.2</ele>
        <time>2020-08-23T12:07:48Z</time>
      </trkpt>
      <trkpt lat="45.11916" lon="5.59796">
        <ele>1391.4</ele>
        <time>2020-08-23T12:07:49Z</time>
      </trkpt>
      <trkpt lat="45.11917" lon="5.59796">
        <ele>1391.4</ele>
        <time>2020-08-23T12:07:50Z</time>
      </trkpt>
      <trkpt lat="45.11918" lon="5.59796">
        <ele>1391.6</ele>
        <time>2020-08-23T12:07:51Z</time>
      </trkpt>
      <trkpt lat="45.11921" lon="5.59796">
        <ele>1391.8</ele>
        <time>2020-08-23T12:07:52Z</time>
      </trkpt>
      <trkpt lat="45.11923" lon="5.59795">
        <ele>1391.8</ele>
        <time>2020-08-23T12:07:53Z</time>
      </trkpt>
      <trkpt lat="45.11924" lon="5.59795">
        <ele>1392</ele>
        <time>2020-08-23T12:07:54Z</time>
      </trkpt>
      <trkpt lat="45.11926" lon="5.59796">
        <ele>1392.2</ele>
        <time>2020-08-23T12:07:55Z</time>
      </trkpt>
      <trkpt lat="45.11929" lon="5.59796">
        <ele>1392.2</ele>
        <time>2020-08-23T12:07:56Z</time>
      </trkpt>
      <trkpt lat="45.11931" lon="5.59796">
        <ele>1392.4</ele>
        <time>2020-08-23T12:07:57Z</time>
      </trkpt>
      <trkpt lat="45.11933" lon="5.59794">
        <ele>1392.4</ele>
        <time>2020-08-23T12:07:58Z</time>
      </trkpt>
      <trkpt lat="45.11934" lon="5.59791">
        <ele>1392.4</ele>
        <time>2020-08-23T12:07:59Z</time>
      </trkpt>
      <trkpt lat="45.11935" lon="5.59788">
        <ele>1392.4</ele>
        <time>2020-08-23T12:08:00Z</time>
      </trkpt>
      <trkpt lat="45.11935" lon="5.59785">
        <ele>1392.6</ele>
        <time>2020-08-23T12:08:01Z</time>
      </trkpt>
      <trkpt lat="45.11937" lon="5.59783">
        <ele>1392.6</ele>
        <time>2020-08-23T12:08:02Z</time>
      </trkpt>
      <trkpt lat="45.11939" lon="5.59783">
        <ele>1392.8</ele>
        <time>2020-08-23T12:08:03Z</time>
      </trkpt>
      <trkpt lat="45.11941" lon="5.59784">
        <ele>1392.8</ele>
        <time>2020-08-23T12:08:04Z</time>
      </trkpt>
      <trkpt lat="45.11943" lon="5.59786">
        <ele>1393</ele>
        <time>2020-08-23T12:08:05Z</time>
      </trkpt>
      <trkpt lat="45.11945" lon="5.59787">
        <ele>1393.2</ele>
        <time>2020-08-23T12:08:06Z</time>
      </trkpt>
      <trkpt lat="45.11948" lon="5.59787">
        <ele>1393.2</ele>
        <time>2020-08-23T12:08:07Z</time>
      </trkpt>
      <trkpt lat="45.1195" lon="5.59787">
        <ele>1393.4</ele>
        <time>2020-08-23T12:08:08Z</time>
      </trkpt>
      <trkpt lat="45.11953" lon="5.59787">
        <ele>1393.4</ele>
        <time>2020-08-23T12:08:09Z</time>
      </trkpt>
      <trkpt lat="45.11955" lon="5.59787">
        <ele>1393.2</ele>
        <time>2020-08-23T12:08:10Z</time>
      </trkpt>
      <trkpt lat="45.11956" lon="5.59787">
        <ele>1393.4</ele>
        <time>2020-08-23T12:08:11Z</time>
      </trkpt>
      <trkpt lat="45.11957" lon="5.59785">
        <ele>1393.4</ele>
        <time>2020-08-23T12:08:12Z</time>
      </trkpt>
      <trkpt lat="45.11956" lon="5.59784">
        <ele>1393.4</ele>
        <time>2020-08-23T12:08:13Z</time>
      </trkpt>
      <trkpt lat="45.11955" lon="5.59782">
        <ele>1393.6</ele>
        <time>2020-08-23T12:08:14Z</time>
      </trkpt>
      <trkpt lat="45.11954" lon="5.5978">
        <ele>1393.6</ele>
        <time>2020-08-23T12:08:15Z</time>
      </trkpt>
      <trkpt lat="45.11952" lon="5.59779">
        <ele>1393.8</ele>
        <time>2020-08-23T12:08:16Z</time>
      </trkpt>
      <trkpt lat="45.1195" lon="5.59779">
        <ele>1393.8</ele>
        <time>2020-08-23T12:08:17Z</time>
      </trkpt>
      <trkpt lat="45.11948" lon="5.59779">
        <ele>1394</ele>
        <time>2020-08-23T12:08:18Z</time>
      </trkpt>
      <trkpt lat="45.11947" lon="5.59779">
        <ele>1394</ele>
        <time>2020-08-23T12:08:19Z</time>
      </trkpt>
      <trkpt lat="45.11946" lon="5.59778">
        <ele>1394.2</ele>
        <time>2020-08-23T12:08:20Z</time>
      </trkpt>
      <trkpt lat="45.11946" lon="5.59776">
        <ele>1394.2</ele>
        <time>2020-08-23T12:08:21Z</time>
      </trkpt>
      <trkpt lat="45.11945" lon="5.59773">
        <ele>1394.2</ele>
        <time>2020-08-23T12:08:22Z</time>
      </trkpt>
      <trkpt lat="45.11945" lon="5.59771">
        <ele>1394.2</ele>
        <time>2020-08-23T12:08:23Z</time>
      </trkpt>
      <trkpt lat="45.11946" lon="5.59768">
        <ele>1394.4</ele>
        <time>2020-08-23T12:08:24Z</time>
      </trkpt>
      <trkpt lat="45.11947" lon="5.59766">
        <ele>1394.4</ele>
        <time>2020-08-23T12:08:25Z</time>
      </trkpt>
      <trkpt lat="45.11948" lon="5.59764">
        <ele>1394.4</ele>
        <time>2020-08-23T12:08:26Z</time>
      </trkpt>
      <trkpt lat="45.1195" lon="5.59765">
        <ele>1394.4</ele>
        <time>2020-08-23T12:08:27Z</time>
      </trkpt>
      <trkpt lat="45.11952" lon="5.59765">
        <ele>1394.6</ele>
        <time>2020-08-23T12:08:28Z</time>
      </trkpt>
      <trkpt lat="45.11954" lon="5.59766">
        <ele>1394.6</ele>
        <time>2020-08-23T12:08:29Z</time>
      </trkpt>
      <trkpt lat="45.11956" lon="5.59765">
        <ele>1394.6</ele>
        <time>2020-08-23T12:08:30Z</time>
      </trkpt>
      <trkpt lat="45.11958" lon="5.59764">
        <ele>1394.6</ele>
        <time>2020-08-23T12:08:31Z</time>
      </trkpt>
      <trkpt lat="45.11959" lon="5.59763">
        <ele>1394.6</ele>
        <time>2020-08-23T12:08:32Z</time>
      </trkpt>
      <trkpt lat="45.11959" lon="5.59761">
        <ele>1394.6</ele>
        <time>2020-08-23T12:08:33Z</time>
      </trkpt>
      <trkpt lat="45.11959" lon="5.59759">
        <ele>1394.6</ele>
        <time>2020-08-23T12:08:34Z</time>
      </trkpt>
      <trkpt lat="45.11959" lon="5.59757">
        <ele>1394.6</ele>
        <time>2020-08-23T12:08:35Z</time>
      </trkpt>
      <trkpt lat="45.1196" lon="5.59756">
        <ele>1394.8</ele>
        <time>2020-08-23T12:08:36Z</time>
      </trkpt>
      <trkpt lat="45.11962" lon="5.59756">
        <ele>1394.8</ele>
        <time>2020-08-23T12:08:37Z</time>
      </trkpt>
      <trkpt lat="45.11964" lon="5.59756">
        <ele>1394.8</ele>
        <time>2020-08-23T12:08:38Z</time>
      </trkpt>
      <trkpt lat="45.11966" lon="5.59756">
        <ele>1394.8</ele>
        <time>2020-08-23T12:08:39Z</time>
      </trkpt>
      <trkpt lat="45.11968" lon="5.59756">
        <ele>1394.8</ele>
        <time>2020-08-23T12:08:40Z</time>
      </trkpt>
      <trkpt lat="45.1197" lon="5.59756">
        <ele>1394.8</ele>
        <time>2020-08-23T12:08:41Z</time>
      </trkpt>
      <trkpt lat="45.11972" lon="5.59755">
        <ele>1394.8</ele>
        <time>2020-08-23T12:08:42Z</time>
      </trkpt>
      <trkpt lat="45.11974" lon="5.59754">
        <ele>1394.8</ele>
        <time>2020-08-23T12:08:43Z</time>
      </trkpt>
      <trkpt lat="45.11975" lon="5.59752">
        <ele>1394.8</ele>
        <time>2020-08-23T12:08:44Z</time>
      </trkpt>
      <trkpt lat="45.11976" lon="5.5975">
        <ele>1394.8</ele>
        <time>2020-08-23T12:08:45Z</time>
      </trkpt>
      <trkpt lat="45.11975" lon="5.59747">
        <ele>1394.8</ele>
        <time>2020-08-23T12:08:46Z</time>
      </trkpt>
      <trkpt lat="45.11975" lon="5.59745">
        <ele>1394.6</ele>
        <time>2020-08-23T12:08:47Z</time>
      </trkpt>
      <trkpt lat="45.11976" lon="5.59743">
        <ele>1394.6</ele>
        <time>2020-08-23T12:08:48Z</time>
      </trkpt>
      <trkpt lat="45.11977" lon="5.59743">
        <ele>1394.6</ele>
        <time>2020-08-23T12:08:49Z</time>
      </trkpt>
      <trkpt lat="45.11978" lon="5.59743">
        <ele>1394.4</ele>
        <time>2020-08-23T12:08:50Z</time>
      </trkpt>
      <trkpt lat="45.11981" lon="5.59744">
        <ele>1394.4</ele>
        <time>2020-08-23T12:08:51Z</time>
      </trkpt>
      <trkpt lat="45.11984" lon="5.59745">
        <ele>1394.4</ele>
        <time>2020-08-23T12:08:52Z</time>
      </trkpt>
      <trkpt lat="45.11986" lon="5.59747">
        <ele>1394.4</ele>
        <time>2020-08-23T12:08:53Z</time>
      </trkpt>
      <trkpt lat="45.11988" lon="5.59749">
        <ele>1394.4</ele>
        <time>2020-08-23T12:08:54Z</time>
      </trkpt>
      <trkpt lat="45.11991" lon="5.59748">
        <ele>1394.4</ele>
        <time>2020-08-23T12:08:55Z</time>
      </trkpt>
      <trkpt lat="45.11992" lon="5.59747">
        <ele>1394.2</ele>
        <time>2020-08-23T12:08:56Z</time>
      </trkpt>
      <trkpt lat="45.11993" lon="5.59745">
        <ele>1394.2</ele>
        <time>2020-08-23T12:08:57Z</time>
      </trkpt>
      <trkpt lat="45.11992" lon="5.59743">
        <ele>1394.2</ele>
        <time>2020-08-23T12:08:58Z</time>
      </trkpt>
      <trkpt lat="45.11991" lon="5.5974">
        <ele>1394.2</ele>
        <time>2020-08-23T12:08:59Z</time>
      </trkpt>
      <trkpt lat="45.1199" lon="5.59738">
        <ele>1394.2</ele>
        <time>2020-08-23T12:09:00Z</time>
      </trkpt>
      <trkpt lat="45.11988" lon="5.59736">
        <ele>1394.2</ele>
        <time>2020-08-23T12:09:01Z</time>
      </trkpt>
      <trkpt lat="45.11987" lon="5.59733">
        <ele>1394.2</ele>
        <time>2020-08-23T12:09:02Z</time>
      </trkpt>
      <trkpt lat="45.11985" lon="5.59731">
        <ele>1394.2</ele>
        <time>2020-08-23T12:09:03Z</time>
      </trkpt>
      <trkpt lat="45.11983" lon="5.59728">
        <ele>1394.2</ele>
        <time>2020-08-23T12:09:04Z</time>
      </trkpt>
      <trkpt lat="45.11982" lon="5.59725">
        <ele>1394.2</ele>
        <time>2020-08-23T12:09:05Z</time>
      </trkpt>
      <trkpt lat="45.11981" lon="5.59722">
        <ele>1394.2</ele>
        <time>2020-08-23T12:09:06Z</time>
      </trkpt>
      <trkpt lat="45.11981" lon="5.59718">
        <ele>1394.2</ele>
        <time>2020-08-23T12:09:07Z</time>
      </trkpt>
      <trkpt lat="45.11981" lon="5.59714">
        <ele>1394</ele>
        <time>2020-08-23T12:09:08Z</time>
      </trkpt>
      <trkpt lat="45.1198" lon="5.59711">
        <ele>1394</ele>
        <time>2020-08-23T12:09:09Z</time>
      </trkpt>
      <trkpt lat="45.11979" lon="5.59708">
        <ele>1394</ele>
        <time>2020-08-23T12:09:10Z</time>
      </trkpt>
      <trkpt lat="45.11978" lon="5.59706">
        <ele>1393.8</ele>
        <time>2020-08-23T12:09:11Z</time>
      </trkpt>
      <trkpt lat="45.11976" lon="5.59704">
        <ele>1393.8</ele>
        <time>2020-08-23T12:09:12Z</time>
      </trkpt>
      <trkpt lat="45.11974" lon="5.59703">
        <ele>1393.6</ele>
        <time>2020-08-23T12:09:13Z</time>
      </trkpt>
      <trkpt lat="45.11972" lon="5.59701">
        <ele>1393.6</ele>
        <time>2020-08-23T12:09:14Z</time>
      </trkpt>
      <trkpt lat="45.11971" lon="5.59699">
        <ele>1393.6</ele>
        <time>2020-08-23T12:09:15Z</time>
      </trkpt>
      <trkpt lat="45.1197" lon="5.59697">
        <ele>1393.6</ele>
        <time>2020-08-23T12:09:16Z</time>
      </trkpt>
      <trkpt lat="45.11971" lon="5.59694">
        <ele>1393.6</ele>
        <time>2020-08-23T12:09:17Z</time>
      </trkpt>
      <trkpt lat="45.11972" lon="5.59693">
        <ele>1393.6</ele>
        <time>2020-08-23T12:09:18Z</time>
      </trkpt>
      <trkpt lat="45.11975" lon="5.59693">
        <ele>1393.4</ele>
        <time>2020-08-23T12:09:19Z</time>
      </trkpt>
      <trkpt lat="45.11977" lon="5.59693">
        <ele>1393.4</ele>
        <time>2020-08-23T12:09:20Z</time>
      </trkpt>
      <trkpt lat="45.1198" lon="5.59693">
        <ele>1393.2</ele>
        <time>2020-08-23T12:09:21Z</time>
      </trkpt>
      <trkpt lat="45.1198" lon="5.59693">
        <ele>1393.2</ele>
        <time>2020-08-23T12:09:22Z</time>
      </trkpt>
      <trkpt lat="45.1198" lon="5.59692">
        <ele>1393.2</ele>
        <time>2020-08-23T12:09:23Z</time>
      </trkpt>
      <trkpt lat="45.11981" lon="5.59692">
        <ele>1393.2</ele>
        <time>2020-08-23T12:09:24Z</time>
      </trkpt>
      <trkpt lat="45.11981" lon="5.59692">
        <ele>1393</ele>
        <time>2020-08-23T12:09:25Z</time>
      </trkpt>
      <trkpt lat="45.11981" lon="5.59692">
        <ele>1393</ele>
        <time>2020-08-23T12:09:26Z</time>
      </trkpt>
      <trkpt lat="45.11983" lon="5.59685">
        <ele>1392.6</ele>
        <time>2020-08-23T12:10:57Z</time>
      </trkpt>
      <trkpt lat="45.11984" lon="5.59685">
        <ele>1392.6</ele>
        <time>2020-08-23T12:10:58Z</time>
      </trkpt>
      <trkpt lat="45.11985" lon="5.59686">
        <ele>1392.4</ele>
        <time>2020-08-23T12:10:59Z</time>
      </trkpt>
      <trkpt lat="45.11987" lon="5.59687">
        <ele>1392.4</ele>
        <time>2020-08-23T12:11:00Z</time>
      </trkpt>
      <trkpt lat="45.11988" lon="5.59688">
        <ele>1392.2</ele>
        <time>2020-08-23T12:11:01Z</time>
      </trkpt>
      <trkpt lat="45.11991" lon="5.5969">
        <ele>1391.8</ele>
        <time>2020-08-23T12:11:02Z</time>
      </trkpt>
      <trkpt lat="45.11993" lon="5.59691">
        <ele>1391.6</ele>
        <time>2020-08-23T12:11:03Z</time>
      </trkpt>
      <trkpt lat="45.11996" lon="5.59693">
        <ele>1391.4</ele>
        <time>2020-08-23T12:11:04Z</time>
      </trkpt>
      <trkpt lat="45.11997" lon="5.59692">
        <ele>1391.2</ele>
        <time>2020-08-23T12:11:05Z</time>
      </trkpt>
      <trkpt lat="45.11998" lon="5.59692">
        <ele>1391</ele>
        <time>2020-08-23T12:11:06Z</time>
      </trkpt>
      <trkpt lat="45.11998" lon="5.5969">
        <ele>1390.8</ele>
        <time>2020-08-23T12:11:07Z</time>
      </trkpt>
      <trkpt lat="45.11997" lon="5.59689">
        <ele>1390.6</ele>
        <time>2020-08-23T12:11:08Z</time>
      </trkpt>
      <trkpt lat="45.11998" lon="5.59688">
        <ele>1390.4</ele>
        <time>2020-08-23T12:11:09Z</time>
      </trkpt>
      <trkpt lat="45.11999" lon="5.59688">
        <ele>1390.2</ele>
        <time>2020-08-23T12:11:10Z</time>
      </trkpt>
      <trkpt lat="45.12001" lon="5.59689">
        <ele>1389.8</ele>
        <time>2020-08-23T12:11:11Z</time>
      </trkpt>
      <trkpt lat="45.12003" lon="5.59689">
        <ele>1389.6</ele>
        <time>2020-08-23T12:11:12Z</time>
      </trkpt>
      <trkpt lat="45.12005" lon="5.59688">
        <ele>1389.4</ele>
        <time>2020-08-23T12:11:13Z</time>
      </trkpt>
      <trkpt lat="45.12005" lon="5.59686">
        <ele>1389.2</ele>
        <time>2020-08-23T12:11:14Z</time>
      </trkpt>
      <trkpt lat="45.12005" lon="5.59683">
        <ele>1389</ele>
        <time>2020-08-23T12:11:15Z</time>
      </trkpt>
      <trkpt lat="45.12005" lon="5.5968">
        <ele>1388.6</ele>
        <time>2020-08-23T12:11:16Z</time>
      </trkpt>
      <trkpt lat="45.12004" lon="5.59677">
        <ele>1388.6</ele>
        <time>2020-08-23T12:11:17Z</time>
      </trkpt>
      <trkpt lat="45.12002" lon="5.59674">
        <ele>1388.4</ele>
        <time>2020-08-23T12:11:18Z</time>
      </trkpt>
      <trkpt lat="45.12" lon="5.59671">
        <ele>1388.2</ele>
        <time>2020-08-23T12:11:19Z</time>
      </trkpt>
      <trkpt lat="45.11999" lon="5.59668">
        <ele>1388</ele>
        <time>2020-08-23T12:11:20Z</time>
      </trkpt>
      <trkpt lat="45.11997" lon="5.59665">
        <ele>1387.8</ele>
        <time>2020-08-23T12:11:21Z</time>
      </trkpt>
      <trkpt lat="45.11995" lon="5.59662">
        <ele>1387.8</ele>
        <time>2020-08-23T12:11:22Z</time>
      </trkpt>
      <trkpt lat="45.11994" lon="5.59658">
        <ele>1387.6</ele>
        <time>2020-08-23T12:11:23Z</time>
      </trkpt>
      <trkpt lat="45.11993" lon="5.59655">
        <ele>1387.4</ele>
        <time>2020-08-23T12:11:24Z</time>
      </trkpt>
      <trkpt lat="45.11993" lon="5.59653">
        <ele>1387.2</ele>
        <time>2020-08-23T12:11:25Z</time>
      </trkpt>
      <trkpt lat="45.11994" lon="5.59652">
        <ele>1387</ele>
        <time>2020-08-23T12:11:26Z</time>
      </trkpt>
      <trkpt lat="45.11995" lon="5.59653">
        <ele>1386.6</ele>
        <time>2020-08-23T12:11:27Z</time>
      </trkpt>
      <trkpt lat="45.11997" lon="5.59654">
        <ele>1386.4</ele>
        <time>2020-08-23T12:11:28Z</time>
      </trkpt>
      <trkpt lat="45.11999" lon="5.59656">
        <ele>1386.2</ele>
        <time>2020-08-23T12:11:29Z</time>
      </trkpt>
      <trkpt lat="45.12002" lon="5.59657">
        <ele>1386</ele>
        <time>2020-08-23T12:11:30Z</time>
      </trkpt>
      <trkpt lat="45.12003" lon="5.59657">
        <ele>1386</ele>
        <time>2020-08-23T12:11:31Z</time>
      </trkpt>
      <trkpt lat="45.12004" lon="5.59656">
        <ele>1385.8</ele>
        <time>2020-08-23T12:11:32Z</time>
      </trkpt>
      <trkpt lat="45.12003" lon="5.59654">
        <ele>1385.4</ele>
        <time>2020-08-23T12:11:33Z</time>
      </trkpt>
      <trkpt lat="45.12003" lon="5.59651">
        <ele>1385.4</ele>
        <time>2020-08-23T12:11:34Z</time>
      </trkpt>
      <trkpt lat="45.12001" lon="5.59649">
        <ele>1385.2</ele>
        <time>2020-08-23T12:11:35Z</time>
      </trkpt>
      <trkpt lat="45.12" lon="5.59645">
        <ele>1385</ele>
        <time>2020-08-23T12:11:36Z</time>
      </trkpt>
      <trkpt lat="45.11998" lon="5.59642">
        <ele>1384.8</ele>
        <time>2020-08-23T12:11:37Z</time>
      </trkpt>
      <trkpt lat="45.11997" lon="5.59638">
        <ele>1384.6</ele>
        <time>2020-08-23T12:11:38Z</time>
      </trkpt>
      <trkpt lat="45.11997" lon="5.59635">
        <ele>1384.2</ele>
        <time>2020-08-23T12:11:39Z</time>
      </trkpt>
      <trkpt lat="45.11996" lon="5.59631">
        <ele>1384</ele>
        <time>2020-08-23T12:11:40Z</time>
      </trkpt>
      <trkpt lat="45.11996" lon="5.59628">
        <ele>1383.8</ele>
        <time>2020-08-23T12:11:41Z</time>
      </trkpt>
      <trkpt lat="45.11996" lon="5.59625">
        <ele>1383.4</ele>
        <time>2020-08-23T12:11:42Z</time>
      </trkpt>
      <trkpt lat="45.11998" lon="5.59623">
        <ele>1383.2</ele>
        <time>2020-08-23T12:11:43Z</time>
      </trkpt>
      <trkpt lat="45.12" lon="5.59622">
        <ele>1383</ele>
        <time>2020-08-23T12:11:44Z</time>
      </trkpt>
      <trkpt lat="45.12002" lon="5.59621">
        <ele>1382.8</ele>
        <time>2020-08-23T12:11:45Z</time>
      </trkpt>
      <trkpt lat="45.12003" lon="5.59619">
        <ele>1382.6</ele>
        <time>2020-08-23T12:11:46Z</time>
      </trkpt>
      <trkpt lat="45.12003" lon="5.59616">
        <ele>1382.2</ele>
        <time>2020-08-23T12:11:47Z</time>
      </trkpt>
      <trkpt lat="45.12004" lon="5.59612">
        <ele>1381.8</ele>
        <time>2020-08-23T12:11:48Z</time>
      </trkpt>
      <trkpt lat="45.12003" lon="5.59609">
        <ele>1381.4</ele>
        <time>2020-08-23T12:11:49Z</time>
      </trkpt>
      <trkpt lat="45.12002" lon="5.59605">
        <ele>1381.2</ele>
        <time>2020-08-23T12:11:50Z</time>
      </trkpt>
      <trkpt lat="45.12001" lon="5.59601">
        <ele>1380.8</ele>
        <time>2020-08-23T12:11:51Z</time>
      </trkpt>
      <trkpt lat="45.12" lon="5.59598">
        <ele>1380.6</ele>
        <time>2020-08-23T12:11:52Z</time>
      </trkpt>
      <trkpt lat="45.12" lon="5.59595">
        <ele>1380.4</ele>
        <time>2020-08-23T12:11:53Z</time>
      </trkpt>
      <trkpt lat="45.12001" lon="5.59592">
        <ele>1380</ele>
        <time>2020-08-23T12:11:54Z</time>
      </trkpt>
      <trkpt lat="45.12002" lon="5.59589">
        <ele>1379.6</ele>
        <time>2020-08-23T12:11:55Z</time>
      </trkpt>
      <trkpt lat="45.12003" lon="5.59588">
        <ele>1379</ele>
        <time>2020-08-23T12:11:56Z</time>
      </trkpt>
      <trkpt lat="45.12005" lon="5.59587">
        <ele>1378.8</ele>
        <time>2020-08-23T12:11:57Z</time>
      </trkpt>
      <trkpt lat="45.12006" lon="5.59587">
        <ele>1378.4</ele>
        <time>2020-08-23T12:11:58Z</time>
      </trkpt>
      <trkpt lat="45.12007" lon="5.59588">
        <ele>1378.2</ele>
        <time>2020-08-23T12:11:59Z</time>
      </trkpt>
      <trkpt lat="45.12008" lon="5.59587">
        <ele>1377.8</ele>
        <time>2020-08-23T12:12:00Z</time>
      </trkpt>
      <trkpt lat="45.12009" lon="5.59586">
        <ele>1377.6</ele>
        <time>2020-08-23T12:12:01Z</time>
      </trkpt>
      <trkpt lat="45.12009" lon="5.59583">
        <ele>1377.2</ele>
        <time>2020-08-23T12:12:02Z</time>
      </trkpt>
      <trkpt lat="45.12009" lon="5.59581">
        <ele>1377</ele>
        <time>2020-08-23T12:12:03Z</time>
      </trkpt>
      <trkpt lat="45.1201" lon="5.59579">
        <ele>1376.6</ele>
        <time>2020-08-23T12:12:04Z</time>
      </trkpt>
      <trkpt lat="45.1201" lon="5.59576">
        <ele>1376.4</ele>
        <time>2020-08-23T12:12:05Z</time>
      </trkpt>
      <trkpt lat="45.1201" lon="5.59572">
        <ele>1376</ele>
        <time>2020-08-23T12:12:06Z</time>
      </trkpt>
      <trkpt lat="45.1201" lon="5.59569">
        <ele>1375.8</ele>
        <time>2020-08-23T12:12:07Z</time>
      </trkpt>
      <trkpt lat="45.12011" lon="5.59568">
        <ele>1375.4</ele>
        <time>2020-08-23T12:12:08Z</time>
      </trkpt>
      <trkpt lat="45.12013" lon="5.59567">
        <ele>1375.2</ele>
        <time>2020-08-23T12:12:09Z</time>
      </trkpt>
      <trkpt lat="45.12016" lon="5.59569">
        <ele>1374.8</ele>
        <time>2020-08-23T12:12:10Z</time>
      </trkpt>
      <trkpt lat="45.12019" lon="5.59571">
        <ele>1374.6</ele>
        <time>2020-08-23T12:12:11Z</time>
      </trkpt>
      <trkpt lat="45.12021" lon="5.59573">
        <ele>1374.2</ele>
        <time>2020-08-23T12:12:12Z</time>
      </trkpt>
      <trkpt lat="45.12024" lon="5.59574">
        <ele>1373.8</ele>
        <time>2020-08-23T12:12:13Z</time>
      </trkpt>
      <trkpt lat="45.12027" lon="5.59574">
        <ele>1373.4</ele>
        <time>2020-08-23T12:12:14Z</time>
      </trkpt>
      <trkpt lat="45.12027" lon="5.59572">
        <ele>1373.2</ele>
        <time>2020-08-23T12:12:15Z</time>
      </trkpt>
      <trkpt lat="45.12028" lon="5.59569">
        <ele>1372.8</ele>
        <time>2020-08-23T12:12:16Z</time>
      </trkpt>
      <trkpt lat="45.12029" lon="5.59565">
        <ele>1372.4</ele>
        <time>2020-08-23T12:12:17Z</time>
      </trkpt>
      <trkpt lat="45.12029" lon="5.5956">
        <ele>1372</ele>
        <time>2020-08-23T12:12:18Z</time>
      </trkpt>
      <trkpt lat="45.12029" lon="5.59555">
        <ele>1371.8</ele>
        <time>2020-08-23T12:12:19Z</time>
      </trkpt>
      <trkpt lat="45.1203" lon="5.5955">
        <ele>1371.4</ele>
        <time>2020-08-23T12:12:20Z</time>
      </trkpt>
      <trkpt lat="45.1203" lon="5.59546">
        <ele>1371.2</ele>
        <time>2020-08-23T12:12:21Z</time>
      </trkpt>
      <trkpt lat="45.12031" lon="5.59544">
        <ele>1370.8</ele>
        <time>2020-08-23T12:12:22Z</time>
      </trkpt>
      <trkpt lat="45.12032" lon="5.59544">
        <ele>1370.4</ele>
        <time>2020-08-23T12:12:23Z</time>
      </trkpt>
      <trkpt lat="45.12034" lon="5.59544">
        <ele>1370</ele>
        <time>2020-08-23T12:12:24Z</time>
      </trkpt>
      <trkpt lat="45.12036" lon="5.59542">
        <ele>1369.4</ele>
        <time>2020-08-23T12:12:25Z</time>
      </trkpt>
      <trkpt lat="45.12037" lon="5.5954">
        <ele>1369</ele>
        <time>2020-08-23T12:12:26Z</time>
      </trkpt>
      <trkpt lat="45.12038" lon="5.59536">
        <ele>1368.8</ele>
        <time>2020-08-23T12:12:27Z</time>
      </trkpt>
      <trkpt lat="45.12039" lon="5.59532">
        <ele>1368.4</ele>
        <time>2020-08-23T12:12:28Z</time>
      </trkpt>
      <trkpt lat="45.12041" lon="5.59529">
        <ele>1368</ele>
        <time>2020-08-23T12:12:29Z</time>
      </trkpt>
      <trkpt lat="45.12042" lon="5.59527">
        <ele>1367.6</ele>
        <time>2020-08-23T12:12:30Z</time>
      </trkpt>
      <trkpt lat="45.12043" lon="5.59527">
        <ele>1367.2</ele>
        <time>2020-08-23T12:12:31Z</time>
      </trkpt>
      <trkpt lat="45.12045" lon="5.59528">
        <ele>1366.6</ele>
        <time>2020-08-23T12:12:32Z</time>
      </trkpt>
      <trkpt lat="45.12046" lon="5.59529">
        <ele>1366.2</ele>
        <time>2020-08-23T12:12:33Z</time>
      </trkpt>
      <trkpt lat="45.12047" lon="5.59531">
        <ele>1365.8</ele>
        <time>2020-08-23T12:12:34Z</time>
      </trkpt>
      <trkpt lat="45.12048" lon="5.5953">
        <ele>1365.6</ele>
        <time>2020-08-23T12:12:35Z</time>
      </trkpt>
      <trkpt lat="45.1205" lon="5.59528">
        <ele>1365.2</ele>
        <time>2020-08-23T12:12:36Z</time>
      </trkpt>
      <trkpt lat="45.1205" lon="5.59525">
        <ele>1364.8</ele>
        <time>2020-08-23T12:12:37Z</time>
      </trkpt>
      <trkpt lat="45.1205" lon="5.59521">
        <ele>1364.4</ele>
        <time>2020-08-23T12:12:38Z</time>
      </trkpt>
      <trkpt lat="45.12051" lon="5.59517">
        <ele>1364</ele>
        <time>2020-08-23T12:12:39Z</time>
      </trkpt>
      <trkpt lat="45.12053" lon="5.59516">
        <ele>1363.8</ele>
        <time>2020-08-23T12:12:40Z</time>
      </trkpt>
      <trkpt lat="45.12055" lon="5.59515">
        <ele>1363.2</ele>
        <time>2020-08-23T12:12:41Z</time>
      </trkpt>
      <trkpt lat="45.12058" lon="5.59515">
        <ele>1362.8</ele>
        <time>2020-08-23T12:12:42Z</time>
      </trkpt>
      <trkpt lat="45.1206" lon="5.59518">
        <ele>1362.4</ele>
        <time>2020-08-23T12:12:43Z</time>
      </trkpt>
      <trkpt lat="45.12062" lon="5.5952">
        <ele>1362.2</ele>
        <time>2020-08-23T12:12:44Z</time>
      </trkpt>
      <trkpt lat="45.12064" lon="5.59521">
        <ele>1361.6</ele>
        <time>2020-08-23T12:12:45Z</time>
      </trkpt>
      <trkpt lat="45.12066" lon="5.59521">
        <ele>1361.2</ele>
        <time>2020-08-23T12:12:46Z</time>
      </trkpt>
      <trkpt lat="45.12066" lon="5.59517">
        <ele>1360.8</ele>
        <time>2020-08-23T12:12:47Z</time>
      </trkpt>
      <trkpt lat="45.12066" lon="5.59513">
        <ele>1360.4</ele>
        <time>2020-08-23T12:12:48Z</time>
      </trkpt>
      <trkpt lat="45.12067" lon="5.59511">
        <ele>1360.2</ele>
        <time>2020-08-23T12:12:49Z</time>
      </trkpt>
      <trkpt lat="45.12068" lon="5.5951">
        <ele>1359.8</ele>
        <time>2020-08-23T12:12:50Z</time>
      </trkpt>
      <trkpt lat="45.1207" lon="5.59508">
        <ele>1359.2</ele>
        <time>2020-08-23T12:12:51Z</time>
      </trkpt>
      <trkpt lat="45.12071" lon="5.59508">
        <ele>1358.8</ele>
        <time>2020-08-23T12:12:52Z</time>
      </trkpt>
      <trkpt lat="45.12072" lon="5.59508">
        <ele>1358.6</ele>
        <time>2020-08-23T12:12:53Z</time>
      </trkpt>
      <trkpt lat="45.12073" lon="5.59507">
        <ele>1358.2</ele>
        <time>2020-08-23T12:12:54Z</time>
      </trkpt>
      <trkpt lat="45.12074" lon="5.59506">
        <ele>1357.8</ele>
        <time>2020-08-23T12:12:55Z</time>
      </trkpt>
      <trkpt lat="45.12074" lon="5.59506">
        <ele>1357.4</ele>
        <time>2020-08-23T12:12:56Z</time>
      </trkpt>
      <trkpt lat="45.12074" lon="5.59506">
        <ele>1357.2</ele>
        <time>2020-08-23T12:12:57Z</time>
      </trkpt>
      <trkpt lat="45.12074" lon="5.59506">
        <ele>1356.8</ele>
        <time>2020-08-23T12:12:58Z</time>
      </trkpt>
      <trkpt lat="45.12074" lon="5.59506">
        <ele>1356.4</ele>
        <time>2020-08-23T12:12:59Z</time>
      </trkpt>
      <trkpt lat="45.12074" lon="5.59506">
        <ele>1356</ele>
        <time>2020-08-23T12:13:00Z</time>
      </trkpt>
      <trkpt lat="45.12074" lon="5.59506">
        <ele>1355.6</ele>
        <time>2020-08-23T12:13:01Z</time>
      </trkpt>
      <trkpt lat="45.12075" lon="5.59505">
        <ele>1353.4</ele>
        <time>2020-08-23T12:13:46Z</time>
      </trkpt>
      <trkpt lat="45.12077" lon="5.59504">
        <ele>1353.4</ele>
        <time>2020-08-23T12:13:47Z</time>
      </trkpt>
      <trkpt lat="45.12079" lon="5.59504">
        <ele>1353.4</ele>
        <time>2020-08-23T12:13:48Z</time>
      </trkpt>
      <trkpt lat="45.12081" lon="5.59504">
        <ele>1353</ele>
        <time>2020-08-23T12:13:49Z</time>
      </trkpt>
      <trkpt lat="45.12085" lon="5.59504">
        <ele>1352.8</ele>
        <time>2020-08-23T12:13:50Z</time>
      </trkpt>
      <trkpt lat="45.12087" lon="5.59505">
        <ele>1352.4</ele>
        <time>2020-08-23T12:13:51Z</time>
      </trkpt>
      <trkpt lat="45.1209" lon="5.59505">
        <ele>1352.2</ele>
        <time>2020-08-23T12:13:52Z</time>
      </trkpt>
      <trkpt lat="45.12091" lon="5.59506">
        <ele>1351.8</ele>
        <time>2020-08-23T12:13:53Z</time>
      </trkpt>
      <trkpt lat="45.12091" lon="5.59506">
        <ele>1351.4</ele>
        <time>2020-08-23T12:13:54Z</time>
      </trkpt>
      <trkpt lat="45.12091" lon="5.59506">
        <ele>1351</ele>
        <time>2020-08-23T12:13:55Z</time>
      </trkpt>
      <trkpt lat="45.12092" lon="5.59507">
        <ele>1350.6</ele>
        <time>2020-08-23T12:13:56Z</time>
      </trkpt>
      <trkpt lat="45.12092" lon="5.59507">
        <ele>1350.2</ele>
        <time>2020-08-23T12:13:57Z</time>
      </trkpt>
      <trkpt lat="45.12093" lon="5.59509">
        <ele>1350</ele>
        <time>2020-08-23T12:13:58Z</time>
      </trkpt>
      <trkpt lat="45.12094" lon="5.59511">
        <ele>1349.6</ele>
        <time>2020-08-23T12:13:59Z</time>
      </trkpt>
      <trkpt lat="45.12095" lon="5.59512">
        <ele>1349.2</ele>
        <time>2020-08-23T12:14:00Z</time>
      </trkpt>
      <trkpt lat="45.12097" lon="5.59514">
        <ele>1348.8</ele>
        <time>2020-08-23T12:14:01Z</time>
      </trkpt>
      <trkpt lat="45.121" lon="5.59515">
        <ele>1348.4</ele>
        <time>2020-08-23T12:14:02Z</time>
      </trkpt>
      <trkpt lat="45.12104" lon="5.59516">
        <ele>1348</ele>
        <time>2020-08-23T12:14:03Z</time>
      </trkpt>
      <trkpt lat="45.12108" lon="5.59518">
        <ele>1347.6</ele>
        <time>2020-08-23T12:14:04Z</time>
      </trkpt>
      <trkpt lat="45.12112" lon="5.59521">
        <ele>1347.2</ele>
        <time>2020-08-23T12:14:05Z</time>
      </trkpt>
      <trkpt lat="45.12115" lon="5.59523">
        <ele>1346.8</ele>
        <time>2020-08-23T12:14:06Z</time>
      </trkpt>
      <trkpt lat="45.12118" lon="5.59526">
        <ele>1346.2</ele>
        <time>2020-08-23T12:14:07Z</time>
      </trkpt>
      <trkpt lat="45.1212" lon="5.59528">
        <ele>1345.6</ele>
        <time>2020-08-23T12:14:08Z</time>
      </trkpt>
      <trkpt lat="45.12123" lon="5.59528">
        <ele>1345.2</ele>
        <time>2020-08-23T12:14:09Z</time>
      </trkpt>
      <trkpt lat="45.12125" lon="5.59528">
        <ele>1344.6</ele>
        <time>2020-08-23T12:14:10Z</time>
      </trkpt>
      <trkpt lat="45.12127" lon="5.59529">
        <ele>1344.2</ele>
        <time>2020-08-23T12:14:11Z</time>
      </trkpt>
      <trkpt lat="45.12129" lon="5.59532">
        <ele>1343.8</ele>
        <time>2020-08-23T12:14:12Z</time>
      </trkpt>
      <trkpt lat="45.1213" lon="5.59534">
        <ele>1343.4</ele>
        <time>2020-08-23T12:14:13Z</time>
      </trkpt>
      <trkpt lat="45.12131" lon="5.59538">
        <ele>1343</ele>
        <time>2020-08-23T12:14:14Z</time>
      </trkpt>
      <trkpt lat="45.12132" lon="5.5954">
        <ele>1342.6</ele>
        <time>2020-08-23T12:14:15Z</time>
      </trkpt>
      <trkpt lat="45.12134" lon="5.59541">
        <ele>1342.2</ele>
        <time>2020-08-23T12:14:16Z</time>
      </trkpt>
      <trkpt lat="45.12135" lon="5.5954">
        <ele>1341.8</ele>
        <time>2020-08-23T12:14:17Z</time>
      </trkpt>
      <trkpt lat="45.12136" lon="5.59537">
        <ele>1341.6</ele>
        <time>2020-08-23T12:14:18Z</time>
      </trkpt>
      <trkpt lat="45.12137" lon="5.59534">
        <ele>1341.2</ele>
        <time>2020-08-23T12:14:19Z</time>
      </trkpt>
      <trkpt lat="45.12138" lon="5.59529">
        <ele>1340.8</ele>
        <time>2020-08-23T12:14:20Z</time>
      </trkpt>
      <trkpt lat="45.12138" lon="5.59525">
        <ele>1340.4</ele>
        <time>2020-08-23T12:14:21Z</time>
      </trkpt>
      <trkpt lat="45.1214" lon="5.59523">
        <ele>1340</ele>
        <time>2020-08-23T12:14:22Z</time>
      </trkpt>
      <trkpt lat="45.12141" lon="5.59522">
        <ele>1339.6</ele>
        <time>2020-08-23T12:14:23Z</time>
      </trkpt>
      <trkpt lat="45.12142" lon="5.59523">
        <ele>1339</ele>
        <time>2020-08-23T12:14:24Z</time>
      </trkpt>
      <trkpt lat="45.12144" lon="5.59524">
        <ele>1338.6</ele>
        <time>2020-08-23T12:14:25Z</time>
      </trkpt>
      <trkpt lat="45.12146" lon="5.59525">
        <ele>1338.2</ele>
        <time>2020-08-23T12:14:26Z</time>
      </trkpt>
      <trkpt lat="45.12148" lon="5.59526">
        <ele>1337.8</ele>
        <time>2020-08-23T12:14:27Z</time>
      </trkpt>
      <trkpt lat="45.12151" lon="5.59527">
        <ele>1337.4</ele>
        <time>2020-08-23T12:14:28Z</time>
      </trkpt>
      <trkpt lat="45.12154" lon="5.59527">
        <ele>1337</ele>
        <time>2020-08-23T12:14:29Z</time>
      </trkpt>
      <trkpt lat="45.12157" lon="5.59526">
        <ele>1336.4</ele>
        <time>2020-08-23T12:14:30Z</time>
      </trkpt>
      <trkpt lat="45.12159" lon="5.59525">
        <ele>1336</ele>
        <time>2020-08-23T12:14:31Z</time>
      </trkpt>
      <trkpt lat="45.12162" lon="5.59525">
        <ele>1335.6</ele>
        <time>2020-08-23T12:14:32Z</time>
      </trkpt>
      <trkpt lat="45.12164" lon="5.59524">
        <ele>1335</ele>
        <time>2020-08-23T12:14:33Z</time>
      </trkpt>
      <trkpt lat="45.12166" lon="5.59526">
        <ele>1334.4</ele>
        <time>2020-08-23T12:14:34Z</time>
      </trkpt>
      <trkpt lat="45.12168" lon="5.59528">
        <ele>1334</ele>
        <time>2020-08-23T12:14:35Z</time>
      </trkpt>
      <trkpt lat="45.12169" lon="5.59531">
        <ele>1333.4</ele>
        <time>2020-08-23T12:14:36Z</time>
      </trkpt>
      <trkpt lat="45.12171" lon="5.59531">
        <ele>1333</ele>
        <time>2020-08-23T12:14:37Z</time>
      </trkpt>
      <trkpt lat="45.12174" lon="5.5953">
        <ele>1332.4</ele>
        <time>2020-08-23T12:14:38Z</time>
      </trkpt>
      <trkpt lat="45.12175" lon="5.59529">
        <ele>1332</ele>
        <time>2020-08-23T12:14:39Z</time>
      </trkpt>
      <trkpt lat="45.12176" lon="5.59527">
        <ele>1331.6</ele>
        <time>2020-08-23T12:14:40Z</time>
      </trkpt>
      <trkpt lat="45.12176" lon="5.59525">
        <ele>1331.2</ele>
        <time>2020-08-23T12:14:41Z</time>
      </trkpt>
      <trkpt lat="45.12177" lon="5.59521">
        <ele>1330.6</ele>
        <time>2020-08-23T12:14:42Z</time>
      </trkpt>
      <trkpt lat="45.12176" lon="5.59518">
        <ele>1330.2</ele>
        <time>2020-08-23T12:14:43Z</time>
      </trkpt>
      <trkpt lat="45.12175" lon="5.59515">
        <ele>1329.6</ele>
        <time>2020-08-23T12:14:44Z</time>
      </trkpt>
      <trkpt lat="45.12175" lon="5.59511">
        <ele>1329.2</ele>
        <time>2020-08-23T12:14:45Z</time>
      </trkpt>
      <trkpt lat="45.12175" lon="5.59508">
        <ele>1328.8</ele>
        <time>2020-08-23T12:14:46Z</time>
      </trkpt>
      <trkpt lat="45.12175" lon="5.59506">
        <ele>1328.2</ele>
        <time>2020-08-23T12:14:47Z</time>
      </trkpt>
      <trkpt lat="45.12174" lon="5.59504">
        <ele>1327.8</ele>
        <time>2020-08-23T12:14:48Z</time>
      </trkpt>
      <trkpt lat="45.12173" lon="5.59503">
        <ele>1327.4</ele>
        <time>2020-08-23T12:14:49Z</time>
      </trkpt>
      <trkpt lat="45.12172" lon="5.59501">
        <ele>1327</ele>
        <time>2020-08-23T12:14:50Z</time>
      </trkpt>
      <trkpt lat="45.12171" lon="5.59499">
        <ele>1326.8</ele>
        <time>2020-08-23T12:14:51Z</time>
      </trkpt>
      <trkpt lat="45.1217" lon="5.59497">
        <ele>1326.4</ele>
        <time>2020-08-23T12:14:52Z</time>
      </trkpt>
      <trkpt lat="45.12169" lon="5.59495">
        <ele>1326</ele>
        <time>2020-08-23T12:14:53Z</time>
      </trkpt>
      <trkpt lat="45.12169" lon="5.59492">
        <ele>1325.6</ele>
        <time>2020-08-23T12:14:54Z</time>
      </trkpt>
      <trkpt lat="45.12168" lon="5.59489">
        <ele>1325.2</ele>
        <time>2020-08-23T12:14:55Z</time>
      </trkpt>
      <trkpt lat="45.12167" lon="5.59486">
        <ele>1324.6</ele>
        <time>2020-08-23T12:14:56Z</time>
      </trkpt>
      <trkpt lat="45.12166" lon="5.59482">
        <ele>1324.2</ele>
        <time>2020-08-23T12:14:57Z</time>
      </trkpt>
      <trkpt lat="45.12165" lon="5.59478">
        <ele>1323.8</ele>
        <time>2020-08-23T12:14:58Z</time>
      </trkpt>
      <trkpt lat="45.12164" lon="5.59474">
        <ele>1323.2</ele>
        <time>2020-08-23T12:14:59Z</time>
      </trkpt>
      <trkpt lat="45.12162" lon="5.59469">
        <ele>1322.8</ele>
        <time>2020-08-23T12:15:00Z</time>
      </trkpt>
      <trkpt lat="45.12161" lon="5.59465">
        <ele>1322.2</ele>
        <time>2020-08-23T12:15:01Z</time>
      </trkpt>
      <trkpt lat="45.1216" lon="5.59461">
        <ele>1321.8</ele>
        <time>2020-08-23T12:15:02Z</time>
      </trkpt>
      <trkpt lat="45.12159" lon="5.59457">
        <ele>1321.4</ele>
        <time>2020-08-23T12:15:03Z</time>
      </trkpt>
      <trkpt lat="45.12159" lon="5.59453">
        <ele>1320.8</ele>
        <time>2020-08-23T12:15:04Z</time>
      </trkpt>
      <trkpt lat="45.12158" lon="5.59449">
        <ele>1320.4</ele>
        <time>2020-08-23T12:15:05Z</time>
      </trkpt>
      <trkpt lat="45.12157" lon="5.59446">
        <ele>1320</ele>
        <time>2020-08-23T12:15:06Z</time>
      </trkpt>
      <trkpt lat="45.12156" lon="5.59443">
        <ele>1319.6</ele>
        <time>2020-08-23T12:15:07Z</time>
      </trkpt>
      <trkpt lat="45.12155" lon="5.5944">
        <ele>1319</ele>
        <time>2020-08-23T12:15:08Z</time>
      </trkpt>
      <trkpt lat="45.12154" lon="5.59437">
        <ele>1318.6</ele>
        <time>2020-08-23T12:15:09Z</time>
      </trkpt>
      <trkpt lat="45.12153" lon="5.59434">
        <ele>1318.2</ele>
        <time>2020-08-23T12:15:10Z</time>
      </trkpt>
      <trkpt lat="45.12154" lon="5.59432">
        <ele>1317.8</ele>
        <time>2020-08-23T12:15:11Z</time>
      </trkpt>
      <trkpt lat="45.12154" lon="5.59432">
        <ele>1317.2</ele>
        <time>2020-08-23T12:15:12Z</time>
      </trkpt>
      <trkpt lat="45.12155" lon="5.59433">
        <ele>1316.8</ele>
        <time>2020-08-23T12:15:13Z</time>
      </trkpt>
      <trkpt lat="45.12156" lon="5.59432">
        <ele>1316.2</ele>
        <time>2020-08-23T12:15:14Z</time>
      </trkpt>
      <trkpt lat="45.12157" lon="5.59431">
        <ele>1315.8</ele>
        <time>2020-08-23T12:15:15Z</time>
      </trkpt>
      <trkpt lat="45.12158" lon="5.5943">
        <ele>1315.4</ele>
        <time>2020-08-23T12:15:16Z</time>
      </trkpt>
      <trkpt lat="45.12159" lon="5.5943">
        <ele>1314.8</ele>
        <time>2020-08-23T12:15:17Z</time>
      </trkpt>
      <trkpt lat="45.1216" lon="5.59431">
        <ele>1314.4</ele>
        <time>2020-08-23T12:15:18Z</time>
      </trkpt>
      <trkpt lat="45.12161" lon="5.59431">
        <ele>1313.8</ele>
        <time>2020-08-23T12:15:19Z</time>
      </trkpt>
      <trkpt lat="45.12162" lon="5.5943">
        <ele>1313.2</ele>
        <time>2020-08-23T12:15:20Z</time>
      </trkpt>
      <trkpt lat="45.12162" lon="5.59428">
        <ele>1312.8</ele>
        <time>2020-08-23T12:15:21Z</time>
      </trkpt>
      <trkpt lat="45.12163" lon="5.59426">
        <ele>1312.2</ele>
        <time>2020-08-23T12:15:22Z</time>
      </trkpt>
      <trkpt lat="45.12163" lon="5.59424">
        <ele>1311.6</ele>
        <time>2020-08-23T12:15:23Z</time>
      </trkpt>
      <trkpt lat="45.12164" lon="5.59423">
        <ele>1311</ele>
        <time>2020-08-23T12:15:24Z</time>
      </trkpt>
      <trkpt lat="45.12165" lon="5.59422">
        <ele>1310.6</ele>
        <time>2020-08-23T12:15:25Z</time>
      </trkpt>
      <trkpt lat="45.12166" lon="5.59424">
        <ele>1310.2</ele>
        <time>2020-08-23T12:15:26Z</time>
      </trkpt>
      <trkpt lat="45.12167" lon="5.59425">
        <ele>1309.6</ele>
        <time>2020-08-23T12:15:27Z</time>
      </trkpt>
      <trkpt lat="45.12168" lon="5.59426">
        <ele>1309.2</ele>
        <time>2020-08-23T12:15:28Z</time>
      </trkpt>
      <trkpt lat="45.12169" lon="5.59426">
        <ele>1308.6</ele>
        <time>2020-08-23T12:15:29Z</time>
      </trkpt>
      <trkpt lat="45.1217" lon="5.59424">
        <ele>1308</ele>
        <time>2020-08-23T12:15:30Z</time>
      </trkpt>
      <trkpt lat="45.12171" lon="5.59421">
        <ele>1307.4</ele>
        <time>2020-08-23T12:15:31Z</time>
      </trkpt>
      <trkpt lat="45.1217" lon="5.59419">
        <ele>1306.8</ele>
        <time>2020-08-23T12:15:32Z</time>
      </trkpt>
      <trkpt lat="45.1217" lon="5.59417">
        <ele>1306.2</ele>
        <time>2020-08-23T12:15:33Z</time>
      </trkpt>
      <trkpt lat="45.12169" lon="5.59416">
        <ele>1305.8</ele>
        <time>2020-08-23T12:15:34Z</time>
      </trkpt>
      <trkpt lat="45.12169" lon="5.59414">
        <ele>1305.4</ele>
        <time>2020-08-23T12:15:35Z</time>
      </trkpt>
      <trkpt lat="45.12169" lon="5.59412">
        <ele>1305</ele>
        <time>2020-08-23T12:15:36Z</time>
      </trkpt>
      <trkpt lat="45.1217" lon="5.59411">
        <ele>1304.4</ele>
        <time>2020-08-23T12:15:37Z</time>
      </trkpt>
      <trkpt lat="45.12172" lon="5.59411">
        <ele>1303.8</ele>
        <time>2020-08-23T12:15:38Z</time>
      </trkpt>
      <trkpt lat="45.12174" lon="5.59412">
        <ele>1303.2</ele>
        <time>2020-08-23T12:15:39Z</time>
      </trkpt>
      <trkpt lat="45.12175" lon="5.59413">
        <ele>1302.6</ele>
        <time>2020-08-23T12:15:40Z</time>
      </trkpt>
      <trkpt lat="45.12176" lon="5.59414">
        <ele>1302</ele>
        <time>2020-08-23T12:15:41Z</time>
      </trkpt>
      <trkpt lat="45.12177" lon="5.59415">
        <ele>1301.6</ele>
        <time>2020-08-23T12:15:42Z</time>
      </trkpt>
      <trkpt lat="45.12178" lon="5.59416">
        <ele>1301</ele>
        <time>2020-08-23T12:15:43Z</time>
      </trkpt>
      <trkpt lat="45.12178" lon="5.59416">
        <ele>1300.4</ele>
        <time>2020-08-23T12:15:44Z</time>
      </trkpt>
      <trkpt lat="45.1218" lon="5.59417">
        <ele>1299.8</ele>
        <time>2020-08-23T12:15:45Z</time>
      </trkpt>
      <trkpt lat="45.12182" lon="5.59417">
        <ele>1299.2</ele>
        <time>2020-08-23T12:15:46Z</time>
      </trkpt>
      <trkpt lat="45.12183" lon="5.59418">
        <ele>1298.6</ele>
        <time>2020-08-23T12:15:47Z</time>
      </trkpt>
      <trkpt lat="45.12183" lon="5.59418">
        <ele>1298</ele>
        <time>2020-08-23T12:15:48Z</time>
      </trkpt>
      <trkpt lat="45.12183" lon="5.59418">
        <ele>1297.6</ele>
        <time>2020-08-23T12:15:49Z</time>
      </trkpt>
      <trkpt lat="45.12184" lon="5.59418">
        <ele>1297</ele>
        <time>2020-08-23T12:15:50Z</time>
      </trkpt>
      <trkpt lat="45.12185" lon="5.59418">
        <ele>1296.4</ele>
        <time>2020-08-23T12:15:51Z</time>
      </trkpt>
      <trkpt lat="45.12185" lon="5.59418">
        <ele>1295.8</ele>
        <time>2020-08-23T12:15:52Z</time>
      </trkpt>
      <trkpt lat="45.12185" lon="5.59418">
        <ele>1295.4</ele>
        <time>2020-08-23T12:15:53Z</time>
      </trkpt>
      <trkpt lat="45.12185" lon="5.59418">
        <ele>1294.8</ele>
        <time>2020-08-23T12:15:54Z</time>
      </trkpt>
      <trkpt lat="45.12185" lon="5.59418">
        <ele>1294.2</ele>
        <time>2020-08-23T12:15:55Z</time>
      </trkpt>
      <trkpt lat="45.12185" lon="5.59418">
        <ele>1293.8</ele>
        <time>2020-08-23T12:15:56Z</time>
      </trkpt>
      <trkpt lat="45.12185" lon="5.59418">
        <ele>1293.2</ele>
        <time>2020-08-23T12:15:57Z</time>
      </trkpt>
      <trkpt lat="45.12185" lon="5.59418">
        <ele>1292.8</ele>
        <time>2020-08-23T12:15:58Z</time>
      </trkpt>
      <trkpt lat="45.12185" lon="5.59419">
        <ele>1289.6</ele>
        <time>2020-08-23T12:16:57Z</time>
      </trkpt>
      <trkpt lat="45.12186" lon="5.59419">
        <ele>1289.6</ele>
        <time>2020-08-23T12:16:58Z</time>
      </trkpt>
      <trkpt lat="45.12189" lon="5.5942">
        <ele>1289.4</ele>
        <time>2020-08-23T12:16:59Z</time>
      </trkpt>
      <trkpt lat="45.12191" lon="5.59422">
        <ele>1289</ele>
        <time>2020-08-23T12:17:00Z</time>
      </trkpt>
      <trkpt lat="45.12193" lon="5.59424">
        <ele>1288.6</ele>
        <time>2020-08-23T12:17:01Z</time>
      </trkpt>
      <trkpt lat="45.12195" lon="5.59426">
        <ele>1288</ele>
        <time>2020-08-23T12:17:02Z</time>
      </trkpt>
      <trkpt lat="45.12196" lon="5.59429">
        <ele>1287.6</ele>
        <time>2020-08-23T12:17:03Z</time>
      </trkpt>
      <trkpt lat="45.12198" lon="5.59431">
        <ele>1287.2</ele>
        <time>2020-08-23T12:17:04Z</time>
      </trkpt>
      <trkpt lat="45.12199" lon="5.59431">
        <ele>1286.6</ele>
        <time>2020-08-23T12:17:05Z</time>
      </trkpt>
      <trkpt lat="45.12201" lon="5.59431">
        <ele>1286.2</ele>
        <time>2020-08-23T12:17:06Z</time>
      </trkpt>
      <trkpt lat="45.12203" lon="5.59431">
        <ele>1285.6</ele>
        <time>2020-08-23T12:17:07Z</time>
      </trkpt>
      <trkpt lat="45.12205" lon="5.59431">
        <ele>1285</ele>
        <time>2020-08-23T12:17:08Z</time>
      </trkpt>
      <trkpt lat="45.12207" lon="5.59432">
        <ele>1284.6</ele>
        <time>2020-08-23T12:17:09Z</time>
      </trkpt>
      <trkpt lat="45.12209" lon="5.59432">
        <ele>1284.2</ele>
        <time>2020-08-23T12:17:10Z</time>
      </trkpt>
      <trkpt lat="45.12209" lon="5.59432">
        <ele>1283.6</ele>
        <time>2020-08-23T12:17:11Z</time>
      </trkpt>
      <trkpt lat="45.12209" lon="5.59433">
        <ele>1283</ele>
        <time>2020-08-23T12:17:12Z</time>
      </trkpt>
      <trkpt lat="45.12209" lon="5.59434">
        <ele>1282.6</ele>
        <time>2020-08-23T12:17:13Z</time>
      </trkpt>
      <trkpt lat="45.12209" lon="5.59436">
        <ele>1282.2</ele>
        <time>2020-08-23T12:17:14Z</time>
      </trkpt>
      <trkpt lat="45.1221" lon="5.59438">
        <ele>1281.6</ele>
        <time>2020-08-23T12:17:15Z</time>
      </trkpt>
      <trkpt lat="45.1221" lon="5.59441">
        <ele>1281.2</ele>
        <time>2020-08-23T12:17:16Z</time>
      </trkpt>
      <trkpt lat="45.12211" lon="5.59445">
        <ele>1280.8</ele>
        <time>2020-08-23T12:17:17Z</time>
      </trkpt>
      <trkpt lat="45.12211" lon="5.59448">
        <ele>1280.2</ele>
        <time>2020-08-23T12:17:18Z</time>
      </trkpt>
      <trkpt lat="45.12213" lon="5.59451">
        <ele>1279.8</ele>
        <time>2020-08-23T12:17:19Z</time>
      </trkpt>
      <trkpt lat="45.12215" lon="5.59453">
        <ele>1279.4</ele>
        <time>2020-08-23T12:17:20Z</time>
      </trkpt>
      <trkpt lat="45.12217" lon="5.59454">
        <ele>1278.8</ele>
        <time>2020-08-23T12:17:21Z</time>
      </trkpt>
      <trkpt lat="45.1222" lon="5.59454">
        <ele>1278.2</ele>
        <time>2020-08-23T12:17:22Z</time>
      </trkpt>
      <trkpt lat="45.12223" lon="5.59453">
        <ele>1277.8</ele>
        <time>2020-08-23T12:17:23Z</time>
      </trkpt>
      <trkpt lat="45.12227" lon="5.59454">
        <ele>1277.2</ele>
        <time>2020-08-23T12:17:24Z</time>
      </trkpt>
      <trkpt lat="45.1223" lon="5.59456">
        <ele>1276.8</ele>
        <time>2020-08-23T12:17:25Z</time>
      </trkpt>
      <trkpt lat="45.12233" lon="5.59459">
        <ele>1276.2</ele>
        <time>2020-08-23T12:17:26Z</time>
      </trkpt>
      <trkpt lat="45.12236" lon="5.59463">
        <ele>1276</ele>
        <time>2020-08-23T12:17:27Z</time>
      </trkpt>
      <trkpt lat="45.12241" lon="5.59468">
        <ele>1275.4</ele>
        <time>2020-08-23T12:17:28Z</time>
      </trkpt>
      <trkpt lat="45.12246" lon="5.59473">
        <ele>1274.8</ele>
        <time>2020-08-23T12:17:29Z</time>
      </trkpt>
      <trkpt lat="45.1225" lon="5.5948">
        <ele>1274.4</ele>
        <time>2020-08-23T12:17:30Z</time>
      </trkpt>
      <trkpt lat="45.12253" lon="5.59485">
        <ele>1274</ele>
        <time>2020-08-23T12:17:31Z</time>
      </trkpt>
      <trkpt lat="45.12256" lon="5.5949">
        <ele>1273.6</ele>
        <time>2020-08-23T12:17:32Z</time>
      </trkpt>
      <trkpt lat="45.1226" lon="5.59495">
        <ele>1273</ele>
        <time>2020-08-23T12:17:33Z</time>
      </trkpt>
      <trkpt lat="45.12264" lon="5.59501">
        <ele>1272.6</ele>
        <time>2020-08-23T12:17:34Z</time>
      </trkpt>
      <trkpt lat="45.12268" lon="5.59508">
        <ele>1272.2</ele>
        <time>2020-08-23T12:17:35Z</time>
      </trkpt>
      <trkpt lat="45.12273" lon="5.59514">
        <ele>1271.8</ele>
        <time>2020-08-23T12:17:36Z</time>
      </trkpt>
      <trkpt lat="45.12277" lon="5.5952">
        <ele>1271.6</ele>
        <time>2020-08-23T12:17:37Z</time>
      </trkpt>
      <trkpt lat="45.12281" lon="5.59525">
        <ele>1271.2</ele>
        <time>2020-08-23T12:17:38Z</time>
      </trkpt>
      <trkpt lat="45.12285" lon="5.59533">
        <ele>1270.8</ele>
        <time>2020-08-23T12:17:39Z</time>
      </trkpt>
      <trkpt lat="45.1229" lon="5.59543">
        <ele>1270.2</ele>
        <time>2020-08-23T12:17:40Z</time>
      </trkpt>
      <trkpt lat="45.12295" lon="5.59554">
        <ele>1269.8</ele>
        <time>2020-08-23T12:17:41Z</time>
      </trkpt>
      <trkpt lat="45.12299" lon="5.59565">
        <ele>1269.4</ele>
        <time>2020-08-23T12:17:42Z</time>
      </trkpt>
      <trkpt lat="45.12304" lon="5.59576">
        <ele>1269</ele>
        <time>2020-08-23T12:17:43Z</time>
      </trkpt>
      <trkpt lat="45.12307" lon="5.59583">
        <ele>1268.8</ele>
        <time>2020-08-23T12:17:44Z</time>
      </trkpt>
      <trkpt lat="45.1231" lon="5.59589">
        <ele>1268.4</ele>
        <time>2020-08-23T12:17:45Z</time>
      </trkpt>
      <trkpt lat="45.12315" lon="5.59594">
        <ele>1268</ele>
        <time>2020-08-23T12:17:46Z</time>
      </trkpt>
      <trkpt lat="45.12318" lon="5.596">
        <ele>1267.4</ele>
        <time>2020-08-23T12:17:47Z</time>
      </trkpt>
      <trkpt lat="45.1232" lon="5.59604">
        <ele>1267</ele>
        <time>2020-08-23T12:17:48Z</time>
      </trkpt>
      <trkpt lat="45.1232" lon="5.59609">
        <ele>1266.6</ele>
        <time>2020-08-23T12:17:49Z</time>
      </trkpt>
      <trkpt lat="45.12321" lon="5.59612">
        <ele>1266.2</ele>
        <time>2020-08-23T12:17:50Z</time>
      </trkpt>
      <trkpt lat="45.12322" lon="5.59615">
        <ele>1265.8</ele>
        <time>2020-08-23T12:17:51Z</time>
      </trkpt>
      <trkpt lat="45.12323" lon="5.59619">
        <ele>1265.4</ele>
        <time>2020-08-23T12:17:52Z</time>
      </trkpt>
      <trkpt lat="45.12323" lon="5.59621">
        <ele>1265</ele>
        <time>2020-08-23T12:17:53Z</time>
      </trkpt>
      <trkpt lat="45.12324" lon="5.59625">
        <ele>1264.6</ele>
        <time>2020-08-23T12:17:54Z</time>
      </trkpt>
      <trkpt lat="45.12324" lon="5.59627">
        <ele>1264.4</ele>
        <time>2020-08-23T12:17:55Z</time>
      </trkpt>
      <trkpt lat="45.12325" lon="5.5963">
        <ele>1263.8</ele>
        <time>2020-08-23T12:17:56Z</time>
      </trkpt>
      <trkpt lat="45.12326" lon="5.59633">
        <ele>1263.4</ele>
        <time>2020-08-23T12:17:57Z</time>
      </trkpt>
      <trkpt lat="45.12326" lon="5.59635">
        <ele>1263</ele>
        <time>2020-08-23T12:17:58Z</time>
      </trkpt>
      <trkpt lat="45.12327" lon="5.59637">
        <ele>1262.6</ele>
        <time>2020-08-23T12:17:59Z</time>
      </trkpt>
      <trkpt lat="45.12328" lon="5.59639">
        <ele>1262.2</ele>
        <time>2020-08-23T12:18:00Z</time>
      </trkpt>
      <trkpt lat="45.12328" lon="5.59641">
        <ele>1261.8</ele>
        <time>2020-08-23T12:18:01Z</time>
      </trkpt>
      <trkpt lat="45.1233" lon="5.59643">
        <ele>1261.4</ele>
        <time>2020-08-23T12:18:02Z</time>
      </trkpt>
      <trkpt lat="45.12332" lon="5.59645">
        <ele>1261</ele>
        <time>2020-08-23T12:18:03Z</time>
      </trkpt>
      <trkpt lat="45.12334" lon="5.59647">
        <ele>1260.4</ele>
        <time>2020-08-23T12:18:04Z</time>
      </trkpt>
      <trkpt lat="45.12336" lon="5.59649">
        <ele>1260</ele>
        <time>2020-08-23T12:18:05Z</time>
      </trkpt>
      <trkpt lat="45.12338" lon="5.59651">
        <ele>1259.6</ele>
        <time>2020-08-23T12:18:06Z</time>
      </trkpt>
      <trkpt lat="45.12341" lon="5.59651">
        <ele>1259.2</ele>
        <time>2020-08-23T12:18:07Z</time>
      </trkpt>
      <trkpt lat="45.12344" lon="5.59651">
        <ele>1258.8</ele>
        <time>2020-08-23T12:18:08Z</time>
      </trkpt>
      <trkpt lat="45.12346" lon="5.59652">
        <ele>1258.2</ele>
        <time>2020-08-23T12:18:09Z</time>
      </trkpt>
      <trkpt lat="45.12348" lon="5.59653">
        <ele>1257.8</ele>
        <time>2020-08-23T12:18:10Z</time>
      </trkpt>
      <trkpt lat="45.12351" lon="5.59653">
        <ele>1257.4</ele>
        <time>2020-08-23T12:18:11Z</time>
      </trkpt>
      <trkpt lat="45.12354" lon="5.59653">
        <ele>1257</ele>
        <time>2020-08-23T12:18:12Z</time>
      </trkpt>
      <trkpt lat="45.12357" lon="5.59652">
        <ele>1256.6</ele>
        <time>2020-08-23T12:18:13Z</time>
      </trkpt>
      <trkpt lat="45.12359" lon="5.5965">
        <ele>1256</ele>
        <time>2020-08-23T12:18:14Z</time>
      </trkpt>
      <trkpt lat="45.12363" lon="5.59648">
        <ele>1255.6</ele>
        <time>2020-08-23T12:18:15Z</time>
      </trkpt>
      <trkpt lat="45.12367" lon="5.59646">
        <ele>1255</ele>
        <time>2020-08-23T12:18:16Z</time>
      </trkpt>
      <trkpt lat="45.12371" lon="5.59642">
        <ele>1254.6</ele>
        <time>2020-08-23T12:18:17Z</time>
      </trkpt>
      <trkpt lat="45.12375" lon="5.59637">
        <ele>1254</ele>
        <time>2020-08-23T12:18:18Z</time>
      </trkpt>
      <trkpt lat="45.12379" lon="5.59632">
        <ele>1253.4</ele>
        <time>2020-08-23T12:18:19Z</time>
      </trkpt>
      <trkpt lat="45.12383" lon="5.59629">
        <ele>1252.8</ele>
        <time>2020-08-23T12:18:20Z</time>
      </trkpt>
      <trkpt lat="45.12388" lon="5.59626">
        <ele>1252.2</ele>
        <time>2020-08-23T12:18:21Z</time>
      </trkpt>
      <trkpt lat="45.12394" lon="5.59625">
        <ele>1251.6</ele>
        <time>2020-08-23T12:18:22Z</time>
      </trkpt>
      <trkpt lat="45.124" lon="5.59624">
        <ele>1251</ele>
        <time>2020-08-23T12:18:23Z</time>
      </trkpt>
      <trkpt lat="45.12406" lon="5.59622">
        <ele>1250.6</ele>
        <time>2020-08-23T12:18:24Z</time>
      </trkpt>
      <trkpt lat="45.12412" lon="5.59619">
        <ele>1250</ele>
        <time>2020-08-23T12:18:25Z</time>
      </trkpt>
      <trkpt lat="45.1242" lon="5.59615">
        <ele>1249.4</ele>
        <time>2020-08-23T12:18:26Z</time>
      </trkpt>
      <trkpt lat="45.12427" lon="5.59611">
        <ele>1248.8</ele>
        <time>2020-08-23T12:18:27Z</time>
      </trkpt>
      <trkpt lat="45.12434" lon="5.59608">
        <ele>1248.2</ele>
        <time>2020-08-23T12:18:28Z</time>
      </trkpt>
      <trkpt lat="45.1244" lon="5.59604">
        <ele>1247.6</ele>
        <time>2020-08-23T12:18:29Z</time>
      </trkpt>
      <trkpt lat="45.12447" lon="5.59601">
        <ele>1247.2</ele>
        <time>2020-08-23T12:18:30Z</time>
      </trkpt>
      <trkpt lat="45.12453" lon="5.59598">
        <ele>1246.4</ele>
        <time>2020-08-23T12:18:31Z</time>
      </trkpt>
      <trkpt lat="45.12459" lon="5.59595">
        <ele>1245.8</ele>
        <time>2020-08-23T12:18:32Z</time>
      </trkpt>
      <trkpt lat="45.12465" lon="5.59594">
        <ele>1245</ele>
        <time>2020-08-23T12:18:33Z</time>
      </trkpt>
      <trkpt lat="45.12471" lon="5.59593">
        <ele>1244.2</ele>
        <time>2020-08-23T12:18:34Z</time>
      </trkpt>
      <trkpt lat="45.12478" lon="5.59594">
        <ele>1243.6</ele>
        <time>2020-08-23T12:18:35Z</time>
      </trkpt>
      <trkpt lat="45.12483" lon="5.59597">
        <ele>1243</ele>
        <time>2020-08-23T12:18:36Z</time>
      </trkpt>
      <trkpt lat="45.12489" lon="5.59601">
        <ele>1242.4</ele>
        <time>2020-08-23T12:18:37Z</time>
      </trkpt>
      <trkpt lat="45.12494" lon="5.59606">
        <ele>1241.8</ele>
        <time>2020-08-23T12:18:38Z</time>
      </trkpt>
      <trkpt lat="45.125" lon="5.59613">
        <ele>1241.4</ele>
        <time>2020-08-23T12:18:39Z</time>
      </trkpt>
      <trkpt lat="45.12506" lon="5.5962">
        <ele>1240.8</ele>
        <time>2020-08-23T12:18:40Z</time>
      </trkpt>
      <trkpt lat="45.12512" lon="5.59628">
        <ele>1240.2</ele>
        <time>2020-08-23T12:18:41Z</time>
      </trkpt>
      <trkpt lat="45.12518" lon="5.59636">
        <ele>1239.8</ele>
        <time>2020-08-23T12:18:42Z</time>
      </trkpt>
      <trkpt lat="45.12525" lon="5.59643">
        <ele>1239.2</ele>
        <time>2020-08-23T12:18:43Z</time>
      </trkpt>
      <trkpt lat="45.12532" lon="5.59648">
        <ele>1238.8</ele>
        <time>2020-08-23T12:18:44Z</time>
      </trkpt>
      <trkpt lat="45.12539" lon="5.59653">
        <ele>1238.2</ele>
        <time>2020-08-23T12:18:45Z</time>
      </trkpt>
      <trkpt lat="45.12547" lon="5.59656">
        <ele>1237.8</ele>
        <time>2020-08-23T12:18:46Z</time>
      </trkpt>
      <trkpt lat="45.12555" lon="5.59659">
        <ele>1237.2</ele>
        <time>2020-08-23T12:18:47Z</time>
      </trkpt>
      <trkpt lat="45.12562" lon="5.5966">
        <ele>1236.8</ele>
        <time>2020-08-23T12:18:48Z</time>
      </trkpt>
      <trkpt lat="45.12569" lon="5.5966">
        <ele>1236.4</ele>
        <time>2020-08-23T12:18:49Z</time>
      </trkpt>
      <trkpt lat="45.12576" lon="5.59657">
        <ele>1236</ele>
        <time>2020-08-23T12:18:50Z</time>
      </trkpt>
      <trkpt lat="45.12582" lon="5.59654">
        <ele>1235.6</ele>
        <time>2020-08-23T12:18:51Z</time>
      </trkpt>
      <trkpt lat="45.12589" lon="5.5965">
        <ele>1235</ele>
        <time>2020-08-23T12:18:52Z</time>
      </trkpt>
      <trkpt lat="45.12594" lon="5.59646">
        <ele>1234.8</ele>
        <time>2020-08-23T12:18:53Z</time>
      </trkpt>
      <trkpt lat="45.12598" lon="5.59642">
        <ele>1234.4</ele>
        <time>2020-08-23T12:18:54Z</time>
      </trkpt>
      <trkpt lat="45.12601" lon="5.59636">
        <ele>1233.8</ele>
        <time>2020-08-23T12:18:55Z</time>
      </trkpt>
      <trkpt lat="45.12603" lon="5.5963">
        <ele>1233.4</ele>
        <time>2020-08-23T12:18:56Z</time>
      </trkpt>
      <trkpt lat="45.12603" lon="5.59624">
        <ele>1233</ele>
        <time>2020-08-23T12:18:57Z</time>
      </trkpt>
      <trkpt lat="45.12603" lon="5.59618">
        <ele>1232.6</ele>
        <time>2020-08-23T12:18:58Z</time>
      </trkpt>
      <trkpt lat="45.12604" lon="5.59613">
        <ele>1232</ele>
        <time>2020-08-23T12:18:59Z</time>
      </trkpt>
      <trkpt lat="45.12605" lon="5.59608">
        <ele>1231.6</ele>
        <time>2020-08-23T12:19:00Z</time>
      </trkpt>
      <trkpt lat="45.12606" lon="5.59604">
        <ele>1231.2</ele>
        <time>2020-08-23T12:19:01Z</time>
      </trkpt>
      <trkpt lat="45.12609" lon="5.59601">
        <ele>1230.8</ele>
        <time>2020-08-23T12:19:02Z</time>
      </trkpt>
      <trkpt lat="45.12611" lon="5.596">
        <ele>1230.2</ele>
        <time>2020-08-23T12:19:03Z</time>
      </trkpt>
      <trkpt lat="45.12613" lon="5.596">
        <ele>1229.8</ele>
        <time>2020-08-23T12:19:04Z</time>
      </trkpt>
      <trkpt lat="45.12616" lon="5.596">
        <ele>1229.4</ele>
        <time>2020-08-23T12:19:05Z</time>
      </trkpt>
      <trkpt lat="45.12618" lon="5.596">
        <ele>1229</ele>
        <time>2020-08-23T12:19:06Z</time>
      </trkpt>
      <trkpt lat="45.12621" lon="5.59599">
        <ele>1228.6</ele>
        <time>2020-08-23T12:19:07Z</time>
      </trkpt>
      <trkpt lat="45.12624" lon="5.59598">
        <ele>1228</ele>
        <time>2020-08-23T12:19:08Z</time>
      </trkpt>
      <trkpt lat="45.12627" lon="5.59598">
        <ele>1227.6</ele>
        <time>2020-08-23T12:19:09Z</time>
      </trkpt>
      <trkpt lat="45.1263" lon="5.59598">
        <ele>1227.2</ele>
        <time>2020-08-23T12:19:10Z</time>
      </trkpt>
      <trkpt lat="45.12633" lon="5.59598">
        <ele>1226.6</ele>
        <time>2020-08-23T12:19:11Z</time>
      </trkpt>
      <trkpt lat="45.12635" lon="5.596">
        <ele>1226.2</ele>
        <time>2020-08-23T12:19:12Z</time>
      </trkpt>
      <trkpt lat="45.12637" lon="5.59603">
        <ele>1225.8</ele>
        <time>2020-08-23T12:19:13Z</time>
      </trkpt>
      <trkpt lat="45.12805" lon="5.59042">
        <ele>1011.8</ele>
        <time>2020-08-23T06:26:53Z</time>
      </trkpt>
      <trkpt lat="45.12805" lon="5.59037">
        <ele>1011.8</ele>
        <time>2020-08-23T06:26:54Z</time>
      </trkpt>
      <trkpt lat="45.12806" lon="5.59033">
        <ele>1012</ele>
        <time>2020-08-23T06:26:55Z</time>
      </trkpt>
      <trkpt lat="45.12807" lon="5.59029">
        <ele>1012</ele>
        <time>2020-08-23T06:26:56Z</time>
      </trkpt>
      <trkpt lat="45.12808" lon="5.59025">
        <ele>1012</ele>
        <time>2020-08-23T06:26:57Z</time>
      </trkpt>
      <trkpt lat="45.12808" lon="5.5902">
        <ele>1012</ele>
        <time>2020-08-23T06:26:58Z</time>
      </trkpt>
      <trkpt lat="45.12809" lon="5.59015">
        <ele>1012</ele>
        <time>2020-08-23T06:26:59Z</time>
      </trkpt>
      <trkpt lat="45.1281" lon="5.5901">
        <ele>1012</ele>
        <time>2020-08-23T06:27:00Z</time>
      </trkpt>
      <trkpt lat="45.1281" lon="5.59004">
        <ele>1012</ele>
        <time>2020-08-23T06:27:01Z</time>
      </trkpt>
      <trkpt lat="45.12811" lon="5.58998">
        <ele>1012</ele>
        <time>2020-08-23T06:27:02Z</time>
      </trkpt>
      <trkpt lat="45.12811" lon="5.58992">
        <ele>1012</ele>
        <time>2020-08-23T06:27:03Z</time>
      </trkpt>
      <trkpt lat="45.12812" lon="5.58986">
        <ele>1012.2</ele>
        <time>2020-08-23T06:27:04Z</time>
      </trkpt>
      <trkpt lat="45.12813" lon="5.58979">
        <ele>1012.2</ele>
        <time>2020-08-23T06:27:05Z</time>
      </trkpt>
      <trkpt lat="45.12814" lon="5.58972">
        <ele>1012.2</ele>
        <time>2020-08-23T06:27:06Z</time>
      </trkpt>
      <trkpt lat="45.12815" lon="5.58965">
        <ele>1012.2</ele>
        <time>2020-08-23T06:27:07Z</time>
      </trkpt>
      <trkpt lat="45.12816" lon="5.58958">
        <ele>1012.2</ele>
        <time>2020-08-23T06:27:08Z</time>
      </trkpt>
      <trkpt lat="45.12816" lon="5.58951">
        <ele>1012</ele>
        <time>2020-08-23T06:27:09Z</time>
      </trkpt>
      <trkpt lat="45.12817" lon="5.58943">
        <ele>1012</ele>
        <time>2020-08-23T06:27:10Z</time>
      </trkpt>
      <trkpt lat="45.12819" lon="5.58936">
        <ele>1012</ele>
        <time>2020-08-23T06:27:11Z</time>
      </trkpt>
      <trkpt lat="45.12819" lon="5.58928">
        <ele>1012</ele>
        <time>2020-08-23T06:27:12Z</time>
      </trkpt>
      <trkpt lat="45.1282" lon="5.5892">
        <ele>1012</ele>
        <time>2020-08-23T06:27:13Z</time>
      </trkpt>
      <trkpt lat="45.12821" lon="5.58912">
        <ele>1012</ele>
        <time>2020-08-23T06:27:14Z</time>
      </trkpt>
      <trkpt lat="45.12822" lon="5.58905">
        <ele>1011.8</ele>
        <time>2020-08-23T06:27:15Z</time>
      </trkpt>
      <trkpt lat="45.12823" lon="5.58896">
        <ele>1011.8</ele>
        <time>2020-08-23T06:27:16Z</time>
      </trkpt>
      <trkpt lat="45.12824" lon="5.58888">
        <ele>1011.6</ele>
        <time>2020-08-23T06:27:17Z</time>
      </trkpt>
      <trkpt lat="45.12825" lon="5.5888">
        <ele>1011.6</ele>
        <time>2020-08-23T06:27:18Z</time>
      </trkpt>
      <trkpt lat="45.12827" lon="5.58873">
        <ele>1011.6</ele>
        <time>2020-08-23T06:27:19Z</time>
      </trkpt>
      <trkpt lat="45.12828" lon="5.58866">
        <ele>1011.6</ele>
        <time>2020-08-23T06:27:20Z</time>
      </trkpt>
      <trkpt lat="45.1283" lon="5.58859">
        <ele>1011.4</ele>
        <time>2020-08-23T06:27:21Z</time>
      </trkpt>
      <trkpt lat="45.12832" lon="5.58853">
        <ele>1011.4</ele>
        <time>2020-08-23T06:27:22Z</time>
      </trkpt>
      <trkpt lat="45.12834" lon="5.58846">
        <ele>1011.2</ele>
        <time>2020-08-23T06:27:23Z</time>
      </trkpt>
      <trkpt lat="45.12836" lon="5.5884">
        <ele>1011.2</ele>
        <time>2020-08-23T06:27:24Z</time>
      </trkpt>
      <trkpt lat="45.12838" lon="5.58833">
        <ele>1011.2</ele>
        <time>2020-08-23T06:27:25Z</time>
      </trkpt>
      <trkpt lat="45.1284" lon="5.58826">
        <ele>1011</ele>
        <time>2020-08-23T06:27:26Z</time>
      </trkpt>
      <trkpt lat="45.12842" lon="5.58819">
        <ele>1011</ele>
        <time>2020-08-23T06:27:27Z</time>
      </trkpt>
      <trkpt lat="45.12844" lon="5.58812">
        <ele>1011</ele>
        <time>2020-08-23T06:27:28Z</time>
      </trkpt>
      <trkpt lat="45.12846" lon="5.58805">
        <ele>1010.8</ele>
        <time>2020-08-23T06:27:29Z</time>
      </trkpt>
      <trkpt lat="45.12848" lon="5.58798">
        <ele>1010.8</ele>
        <time>2020-08-23T06:27:30Z</time>
      </trkpt>
      <trkpt lat="45.1285" lon="5.58791">
        <ele>1010.8</ele>
        <time>2020-08-23T06:27:31Z</time>
      </trkpt>
      <trkpt lat="45.12852" lon="5.58784">
        <ele>1010.8</ele>
        <time>2020-08-23T06:27:32Z</time>
      </trkpt>
      <trkpt lat="45.12854" lon="5.58777">
        <ele>1010.6</ele>
        <time>2020-08-23T06:27:33Z</time>
      </trkpt>
      <trkpt lat="45.12856" lon="5.5877">
        <ele>1010.6</ele>
        <time>2020-08-23T06:27:34Z</time>
      </trkpt>
      <trkpt lat="45.12858" lon="5.58762">
        <ele>1010.6</ele>
        <time>2020-08-23T06:27:35Z</time>
      </trkpt>
      <trkpt lat="45.1286" lon="5.58755">
        <ele>1010.4</ele>
        <time>2020-08-23T06:27:36Z</time>
      </trkpt>
      <trkpt lat="45.12862" lon="5.58748">
        <ele>1010.4</ele>
        <time>2020-08-23T06:27:37Z</time>
      </trkpt>
      <trkpt lat="45.12864" lon="5.58742">
        <ele>1010.4</ele>
        <time>2020-08-23T06:27:38Z</time>
      </trkpt>
      <trkpt lat="45.12867" lon="5.58735">
        <ele>1010.4</ele>
        <time>2020-08-23T06:27:39Z</time>
      </trkpt>
      <trkpt lat="45.12869" lon="5.58728">
        <ele>1010.2</ele>
        <time>2020-08-23T06:27:40Z</time>
      </trkpt>
      <trkpt lat="45.12871" lon="5.58721">
        <ele>1010.2</ele>
        <time>2020-08-23T06:27:41Z</time>
      </trkpt>
      <trkpt lat="45.12873" lon="5.58714">
        <ele>1010.2</ele>
        <time>2020-08-23T06:27:42Z</time>
      </trkpt>
      <trkpt lat="45.12875" lon="5.58708">
        <ele>1010.2</ele>
        <time>2020-08-23T06:27:43Z</time>
      </trkpt>
      <trkpt lat="45.12877" lon="5.58701">
        <ele>1010.2</ele>
        <time>2020-08-23T06:27:44Z</time>
      </trkpt>
      <trkpt lat="45.12879" lon="5.58694">
        <ele>1010</ele>
        <time>2020-08-23T06:27:45Z</time>
      </trkpt>
      <trkpt lat="45.12881" lon="5.58687">
        <ele>1010</ele>
        <time>2020-08-23T06:27:46Z</time>
      </trkpt>
      <trkpt lat="45.12883" lon="5.58679">
        <ele>1010</ele>
        <time>2020-08-23T06:27:47Z</time>
      </trkpt>
      <trkpt lat="45.12886" lon="5.58672">
        <ele>1009.8</ele>
        <time>2020-08-23T06:27:48Z</time>
      </trkpt>
      <trkpt lat="45.12888" lon="5.58664">
        <ele>1009.8</ele>
        <time>2020-08-23T06:27:49Z</time>
      </trkpt>
      <trkpt lat="45.1289" lon="5.58657">
        <ele>1009.8</ele>
        <time>2020-08-23T06:27:50Z</time>
      </trkpt>
      <trkpt lat="45.12892" lon="5.58649">
        <ele>1009.6</ele>
        <time>2020-08-23T06:27:51Z</time>
      </trkpt>
      <trkpt lat="45.12894" lon="5.58641">
        <ele>1009.6</ele>
        <time>2020-08-23T06:27:52Z</time>
      </trkpt>
      <trkpt lat="45.12896" lon="5.58633">
        <ele>1009.6</ele>
        <time>2020-08-23T06:27:53Z</time>
      </trkpt>
      <trkpt lat="45.12899" lon="5.58625">
        <ele>1009.6</ele>
        <time>2020-08-23T06:27:54Z</time>
      </trkpt>
      <trkpt lat="45.12901" lon="5.58617">
        <ele>1009.6</ele>
        <time>2020-08-23T06:27:55Z</time>
      </trkpt>
      <trkpt lat="45.12903" lon="5.58609">
        <ele>1009.4</ele>
        <time>2020-08-23T06:27:56Z</time>
      </trkpt>
      <trkpt lat="45.12906" lon="5.58602">
        <ele>1009.4</ele>
        <time>2020-08-23T06:27:57Z</time>
      </trkpt>
      <trkpt lat="45.12908" lon="5.58594">
        <ele>1009.4</ele>
        <time>2020-08-23T06:27:58Z</time>
      </trkpt>
      <trkpt lat="45.1291" lon="5.58586">
        <ele>1009.4</ele>
        <time>2020-08-23T06:27:59Z</time>
      </trkpt>
      <trkpt lat="45.12912" lon="5.58579">
        <ele>1009.4</ele>
        <time>2020-08-23T06:28:00Z</time>
      </trkpt>
      <trkpt lat="45.12915" lon="5.58571">
        <ele>1009.2</ele>
        <time>2020-08-23T06:28:01Z</time>
      </trkpt>
      <trkpt lat="45.12917" lon="5.58563">
        <ele>1009.2</ele>
        <time>2020-08-23T06:28:02Z</time>
      </trkpt>
      <trkpt lat="45.12919" lon="5.58555">
        <ele>1009</ele>
        <time>2020-08-23T06:28:03Z</time>
      </trkpt>
      <trkpt lat="45.12922" lon="5.58548">
        <ele>1009</ele>
        <time>2020-08-23T06:28:04Z</time>
      </trkpt>
      <trkpt lat="45.12923" lon="5.5854">
        <ele>1008.8</ele>
        <time>2020-08-23T06:28:05Z</time>
      </trkpt>
      <trkpt lat="45.12926" lon="5.58533">
        <ele>1008.8</ele>
        <time>2020-08-23T06:28:06Z</time>
      </trkpt>
      <trkpt lat="45.12928" lon="5.58525">
        <ele>1008.6</ele>
        <time>2020-08-23T06:28:07Z</time>
      </trkpt>
      <trkpt lat="45.1293" lon="5.58518">
        <ele>1008.6</ele>
        <time>2020-08-23T06:28:08Z</time>
      </trkpt>
      <trkpt lat="45.12932" lon="5.58511">
        <ele>1008.4</ele>
        <time>2020-08-23T06:28:09Z</time>
      </trkpt>
      <trkpt lat="45.12934" lon="5.58504">
        <ele>1008.4</ele>
        <time>2020-08-23T06:28:10Z</time>
      </trkpt>
      <trkpt lat="45.12936" lon="5.58497">
        <ele>1008.2</ele>
        <time>2020-08-23T06:28:11Z</time>
      </trkpt>
      <trkpt lat="45.12939" lon="5.58489">
        <ele>1008</ele>
        <time>2020-08-23T06:28:12Z</time>
      </trkpt>
      <trkpt lat="45.12941" lon="5.58482">
        <ele>1008</ele>
        <time>2020-08-23T06:28:13Z</time>
      </trkpt>
      <trkpt lat="45.12943" lon="5.58475">
        <ele>1007.8</ele>
        <time>2020-08-23T06:28:14Z</time>
      </trkpt>
      <trkpt lat="45.12945" lon="5.58468">
        <ele>1007.8</ele>
        <time>2020-08-23T06:28:15Z</time>
      </trkpt>
      <trkpt lat="45.12947" lon="5.5846">
        <ele>1007.6</ele>
        <time>2020-08-23T06:28:16Z</time>
      </trkpt>
      <trkpt lat="45.12949" lon="5.58453">
        <ele>1007.6</ele>
        <time>2020-08-23T06:28:17Z</time>
      </trkpt>
      <trkpt lat="45.12952" lon="5.58446">
        <ele>1007.4</ele>
        <time>2020-08-23T06:28:18Z</time>
      </trkpt>
      <trkpt lat="45.12954" lon="5.58438">
        <ele>1007.4</ele>
        <time>2020-08-23T06:28:19Z</time>
      </trkpt>
      <trkpt lat="45.12956" lon="5.58431">
        <ele>1007.4</ele>
        <time>2020-08-23T06:28:20Z</time>
      </trkpt>
      <trkpt lat="45.12959" lon="5.58424">
        <ele>1007.4</ele>
        <time>2020-08-23T06:28:21Z</time>
      </trkpt>
      <trkpt lat="45.12961" lon="5.58417">
        <ele>1007.2</ele>
        <time>2020-08-23T06:28:22Z</time>
      </trkpt>
      <trkpt lat="45.12963" lon="5.58409">
        <ele>1007.2</ele>
        <time>2020-08-23T06:28:23Z</time>
      </trkpt>
      <trkpt lat="45.12965" lon="5.58402">
        <ele>1007</ele>
        <time>2020-08-23T06:28:24Z</time>
      </trkpt>
      <trkpt lat="45.12968" lon="5.58395">
        <ele>1007</ele>
        <time>2020-08-23T06:28:25Z</time>
      </trkpt>
      <trkpt lat="45.1297" lon="5.58387">
        <ele>1007</ele>
        <time>2020-08-23T06:28:26Z</time>
      </trkpt>
      <trkpt lat="45.12972" lon="5.5838">
        <ele>1007</ele>
        <time>2020-08-23T06:28:27Z</time>
      </trkpt>
      <trkpt lat="45.12974" lon="5.58372">
        <ele>1006.8</ele>
        <time>2020-08-23T06:28:28Z</time>
      </trkpt>
      <trkpt lat="45.12976" lon="5.58365">
        <ele>1006.8</ele>
        <time>2020-08-23T06:28:29Z</time>
      </trkpt>
      <trkpt lat="45.12979" lon="5.58357">
        <ele>1006.6</ele>
        <time>2020-08-23T06:28:30Z</time>
      </trkpt>
      <trkpt lat="45.12981" lon="5.5835">
        <ele>1006.4</ele>
        <time>2020-08-23T06:28:31Z</time>
      </trkpt>
      <trkpt lat="45.12983" lon="5.58342">
        <ele>1006.4</ele>
        <time>2020-08-23T06:28:32Z</time>
      </trkpt>
      <trkpt lat="45.12986" lon="5.58335">
        <ele>1006.2</ele>
        <time>2020-08-23T06:28:33Z</time>
      </trkpt>
      <trkpt lat="45.12988" lon="5.58327">
        <ele>1006.2</ele>
        <time>2020-08-23T06:28:34Z</time>
      </trkpt>
      <trkpt lat="45.1299" lon="5.58319">
        <ele>1006</ele>
        <time>2020-08-23T06:28:35Z</time>
      </trkpt>
      <trkpt lat="45.12992" lon="5.58312">
        <ele>1005.8</ele>
        <time>2020-08-23T06:28:36Z</time>
      </trkpt>
      <trkpt lat="45.12994" lon="5.58304">
        <ele>1005.8</ele>
        <time>2020-08-23T06:28:37Z</time>
      </trkpt>
      <trkpt lat="45.12996" lon="5.58296">
        <ele>1005.8</ele>
        <time>2020-08-23T06:28:38Z</time>
      </trkpt>
      <trkpt lat="45.12999" lon="5.58288">
        <ele>1005.6</ele>
        <time>2020-08-23T06:28:39Z</time>
      </trkpt>
      <trkpt lat="45.13001" lon="5.58281">
        <ele>1005.6</ele>
        <time>2020-08-23T06:28:40Z</time>
      </trkpt>
      <trkpt lat="45.13004" lon="5.58273">
        <ele>1005.4</ele>
        <time>2020-08-23T06:28:41Z</time>
      </trkpt>
      <trkpt lat="45.13006" lon="5.58265">
        <ele>1005.4</ele>
        <time>2020-08-23T06:28:42Z</time>
      </trkpt>
      <trkpt lat="45.13009" lon="5.58258">
        <ele>1005.4</ele>
        <time>2020-08-23T06:28:43Z</time>
      </trkpt>
      <trkpt lat="45.13012" lon="5.58251">
        <ele>1005.2</ele>
        <time>2020-08-23T06:28:44Z</time>
      </trkpt>
      <trkpt lat="45.13016" lon="5.58245">
        <ele>1005.2</ele>
        <time>2020-08-23T06:28:45Z</time>
      </trkpt>
      <trkpt lat="45.1302" lon="5.58238">
        <ele>1005</ele>
        <time>2020-08-23T06:28:46Z</time>
      </trkpt>
      <trkpt lat="45.13025" lon="5.58233">
        <ele>1005</ele>
        <time>2020-08-23T06:28:47Z</time>
      </trkpt>
      <trkpt lat="45.1303" lon="5.58228">
        <ele>1005</ele>
        <time>2020-08-23T06:28:48Z</time>
      </trkpt>
      <trkpt lat="45.13034" lon="5.58224">
        <ele>1004.8</ele>
        <time>2020-08-23T06:28:49Z</time>
      </trkpt>
      <trkpt lat="45.1304" lon="5.5822">
        <ele>1004.8</ele>
        <time>2020-08-23T06:28:50Z</time>
      </trkpt>
      <trkpt lat="45.13046" lon="5.58217">
        <ele>1004.6</ele>
        <time>2020-08-23T06:28:51Z</time>
      </trkpt>
      <trkpt lat="45.13051" lon="5.58215">
        <ele>1004.6</ele>
        <time>2020-08-23T06:28:52Z</time>
      </trkpt>
      <trkpt lat="45.13057" lon="5.58213">
        <ele>1004.6</ele>
        <time>2020-08-23T06:28:53Z</time>
      </trkpt>
      <trkpt lat="45.13063" lon="5.58212">
        <ele>1004.6</ele>
        <time>2020-08-23T06:28:54Z</time>
      </trkpt>
      <trkpt lat="45.1307" lon="5.5821">
        <ele>1004.6</ele>
        <time>2020-08-23T06:28:55Z</time>
      </trkpt>
      <trkpt lat="45.13075" lon="5.58206">
        <ele>1004.6</ele>
        <time>2020-08-23T06:28:56Z</time>
      </trkpt>
      <trkpt lat="45.13081" lon="5.58202">
        <ele>1004.6</ele>
        <time>2020-08-23T06:28:57Z</time>
      </trkpt>
      <trkpt lat="45.13086" lon="5.58197">
        <ele>1004.6</ele>
        <time>2020-08-23T06:28:58Z</time>
      </trkpt>
      <trkpt lat="45.13091" lon="5.58192">
        <ele>1004.6</ele>
        <time>2020-08-23T06:28:59Z</time>
      </trkpt>
      <trkpt lat="45.13096" lon="5.58188">
        <ele>1004.4</ele>
        <time>2020-08-23T06:29:00Z</time>
      </trkpt>
      <trkpt lat="45.13102" lon="5.58183">
        <ele>1004.4</ele>
        <time>2020-08-23T06:29:01Z</time>
      </trkpt>
      <trkpt lat="45.13107" lon="5.58177">
        <ele>1004.4</ele>
        <time>2020-08-23T06:29:02Z</time>
      </trkpt>
      <trkpt lat="45.13109" lon="5.5817">
        <ele>1004.4</ele>
        <time>2020-08-23T06:29:03Z</time>
      </trkpt>
      <trkpt lat="45.1311" lon="5.58161">
        <ele>1004.4</ele>
        <time>2020-08-23T06:29:04Z</time>
      </trkpt>
      <trkpt lat="45.13108" lon="5.58153">
        <ele>1004.4</ele>
        <time>2020-08-23T06:29:05Z</time>
      </trkpt>
      <trkpt lat="45.13105" lon="5.58146">
        <ele>1004.4</ele>
        <time>2020-08-23T06:29:06Z</time>
      </trkpt>
      <trkpt lat="45.13099" lon="5.58141">
        <ele>1004.2</ele>
        <time>2020-08-23T06:29:07Z</time>
      </trkpt>
      <trkpt lat="45.13094" lon="5.58135">
        <ele>1004.2</ele>
        <time>2020-08-23T06:29:08Z</time>
      </trkpt>
      <trkpt lat="45.1309" lon="5.5813">
        <ele>1004.2</ele>
        <time>2020-08-23T06:29:09Z</time>
      </trkpt>
      <trkpt lat="45.13085" lon="5.58124">
        <ele>1004</ele>
        <time>2020-08-23T06:29:10Z</time>
      </trkpt>
      <trkpt lat="45.13081" lon="5.58119">
        <ele>1004</ele>
        <time>2020-08-23T06:29:11Z</time>
      </trkpt>
      <trkpt lat="45.13076" lon="5.58114">
        <ele>1004</ele>
        <time>2020-08-23T06:29:12Z</time>
      </trkpt>
      <trkpt lat="45.13071" lon="5.58109">
        <ele>1003.8</ele>
        <time>2020-08-23T06:29:13Z</time>
      </trkpt>
      <trkpt lat="45.13067" lon="5.58103">
        <ele>1003.8</ele>
        <time>2020-08-23T06:29:14Z</time>
      </trkpt>
      <trkpt lat="45.13064" lon="5.58096">
        <ele>1003.8</ele>
        <time>2020-08-23T06:29:15Z</time>
      </trkpt>
      <trkpt lat="45.13062" lon="5.58088">
        <ele>1003.6</ele>
        <time>2020-08-23T06:29:16Z</time>
      </trkpt>
      <trkpt lat="45.13061" lon="5.58081">
        <ele>1003.6</ele>
        <time>2020-08-23T06:29:17Z</time>
      </trkpt>
      <trkpt lat="45.13061" lon="5.58074">
        <ele>1003.4</ele>
        <time>2020-08-23T06:29:18Z</time>
      </trkpt>
      <trkpt lat="45.13062" lon="5.58066">
        <ele>1003.4</ele>
        <time>2020-08-23T06:29:19Z</time>
      </trkpt>
      <trkpt lat="45.13062" lon="5.5806">
        <ele>1003.4</ele>
        <time>2020-08-23T06:29:20Z</time>
      </trkpt>
      <trkpt lat="45.13062" lon="5.58054">
        <ele>1003.4</ele>
        <time>2020-08-23T06:29:21Z</time>
      </trkpt>
      <trkpt lat="45.13063" lon="5.58048">
        <ele>1003.2</ele>
        <time>2020-08-23T06:29:22Z</time>
      </trkpt>
      <trkpt lat="45.13062" lon="5.58043">
        <ele>1003.2</ele>
        <time>2020-08-23T06:29:23Z</time>
      </trkpt>
      <trkpt lat="45.13062" lon="5.58037">
        <ele>1003</ele>
        <time>2020-08-23T06:29:24Z</time>
      </trkpt>
      <trkpt lat="45.13062" lon="5.58032">
        <ele>1003</ele>
        <time>2020-08-23T06:29:25Z</time>
      </trkpt>
      <trkpt lat="45.1306" lon="5.58026">
        <ele>1003</ele>
        <time>2020-08-23T06:29:26Z</time>
      </trkpt>
      <trkpt lat="45.13059" lon="5.58021">
        <ele>1003</ele>
        <time>2020-08-23T06:29:27Z</time>
      </trkpt>
      <trkpt lat="45.13058" lon="5.58016">
        <ele>1003</ele>
        <time>2020-08-23T06:29:28Z</time>
      </trkpt>
      <trkpt lat="45.13056" lon="5.58011">
        <ele>1003</ele>
        <time>2020-08-23T06:29:29Z</time>
      </trkpt>
      <trkpt lat="45.13054" lon="5.58007">
        <ele>1003</ele>
        <time>2020-08-23T06:29:30Z</time>
      </trkpt>
      <trkpt lat="45.13052" lon="5.58003">
        <ele>1003</ele>
        <time>2020-08-23T06:29:31Z</time>
      </trkpt>
      <trkpt lat="45.1305" lon="5.58">
        <ele>1003</ele>
        <time>2020-08-23T06:29:32Z</time>
      </trkpt>
      <trkpt lat="45.13048" lon="5.57996">
        <ele>1002.8</ele>
        <time>2020-08-23T06:29:33Z</time>
      </trkpt>
      <trkpt lat="45.13046" lon="5.57992">
        <ele>1002.8</ele>
        <time>2020-08-23T06:29:34Z</time>
      </trkpt>
      <trkpt lat="45.13044" lon="5.57989">
        <ele>1002.8</ele>
        <time>2020-08-23T06:29:35Z</time>
      </trkpt>
      <trkpt lat="45.13041" lon="5.57985">
        <ele>1002.8</ele>
        <time>2020-08-23T06:29:36Z</time>
      </trkpt>
      <trkpt lat="45.13039" lon="5.57982">
        <ele>1002.8</ele>
        <time>2020-08-23T06:29:37Z</time>
      </trkpt>
      <trkpt lat="45.13037" lon="5.57979">
        <ele>1002.8</ele>
        <time>2020-08-23T06:29:38Z</time>
      </trkpt>
      <trkpt lat="45.13034" lon="5.57976">
        <ele>1002.8</ele>
        <time>2020-08-23T06:29:39Z</time>
      </trkpt>
      <trkpt lat="45.13032" lon="5.57973">
        <ele>1002.8</ele>
        <time>2020-08-23T06:29:40Z</time>
      </trkpt>
      <trkpt lat="45.1303" lon="5.5797">
        <ele>1002.8</ele>
        <time>2020-08-23T06:29:41Z</time>
      </trkpt>
      <trkpt lat="45.13028" lon="5.57967">
        <ele>1002.8</ele>
        <time>2020-08-23T06:29:42Z</time>
      </trkpt>
      <trkpt lat="45.13026" lon="5.57964">
        <ele>1002.8</ele>
        <time>2020-08-23T06:29:43Z</time>
      </trkpt>
      <trkpt lat="45.13024" lon="5.57961">
        <ele>1002.8</ele>
        <time>2020-08-23T06:29:44Z</time>
      </trkpt>
      <trkpt lat="45.13022" lon="5.57958">
        <ele>1002.8</ele>
        <time>2020-08-23T06:29:45Z</time>
      </trkpt>
      <trkpt lat="45.1302" lon="5.57955">
        <ele>1002.8</ele>
        <time>2020-08-23T06:29:46Z</time>
      </trkpt>
      <trkpt lat="45.13018" lon="5.57951">
        <ele>1002.8</ele>
        <time>2020-08-23T06:29:47Z</time>
      </trkpt>
      <trkpt lat="45.13016" lon="5.57948">
        <ele>1002.8</ele>
        <time>2020-08-23T06:29:48Z</time>
      </trkpt>
      <trkpt lat="45.13014" lon="5.57945">
        <ele>1002.8</ele>
        <time>2020-08-23T06:29:49Z</time>
      </trkpt>
      <trkpt lat="45.13012" lon="5.57942">
        <ele>1002.8</ele>
        <time>2020-08-23T06:29:50Z</time>
      </trkpt>
      <trkpt lat="45.1301" lon="5.5794">
        <ele>1002.8</ele>
        <time>2020-08-23T06:29:51Z</time>
      </trkpt>
      <trkpt lat="45.13008" lon="5.57936">
        <ele>1002.8</ele>
        <time>2020-08-23T06:29:52Z</time>
      </trkpt>
      <trkpt lat="45.13006" lon="5.57934">
        <ele>1002.6</ele>
        <time>2020-08-23T06:29:53Z</time>
      </trkpt>
      <trkpt lat="45.13004" lon="5.57931">
        <ele>1002.6</ele>
        <time>2020-08-23T06:29:54Z</time>
      </trkpt>
      <trkpt lat="45.13002" lon="5.57928">
        <ele>1002.6</ele>
        <time>2020-08-23T06:29:55Z</time>
      </trkpt>
      <trkpt lat="45.13" lon="5.57925">
        <ele>1002.6</ele>
        <time>2020-08-23T06:29:56Z</time>
      </trkpt>
      <trkpt lat="45.12998" lon="5.57923">
        <ele>1002.6</ele>
        <time>2020-08-23T06:29:57Z</time>
      </trkpt>
      <trkpt lat="45.12996" lon="5.57921">
        <ele>1002.6</ele>
        <time>2020-08-23T06:29:58Z</time>
      </trkpt>
      <trkpt lat="45.12993" lon="5.57918">
        <ele>1002.6</ele>
        <time>2020-08-23T06:29:59Z</time>
      </trkpt>
      <trkpt lat="45.12991" lon="5.57915">
        <ele>1002.6</ele>
        <time>2020-08-23T06:30:00Z</time>
      </trkpt>
      <trkpt lat="45.12989" lon="5.57913">
        <ele>1002.6</ele>
        <time>2020-08-23T06:30:01Z</time>
      </trkpt>
      <trkpt lat="45.12987" lon="5.5791">
        <ele>1002.8</ele>
        <time>2020-08-23T06:30:02Z</time>
      </trkpt>
      <trkpt lat="45.12985" lon="5.57908">
        <ele>1002.8</ele>
        <time>2020-08-23T06:30:03Z</time>
      </trkpt>
      <trkpt lat="45.12982" lon="5.57905">
        <ele>1002.8</ele>
        <time>2020-08-23T06:30:04Z</time>
      </trkpt>
      <trkpt lat="45.1298" lon="5.57903">
        <ele>1002.8</ele>
        <time>2020-08-23T06:30:05Z</time>
      </trkpt>
      <trkpt lat="45.12978" lon="5.57901">
        <ele>1003</ele>
        <time>2020-08-23T06:30:06Z</time>
      </trkpt>
      <trkpt lat="45.12976" lon="5.57898">
        <ele>1003</ele>
        <time>2020-08-23T06:30:07Z</time>
      </trkpt>
      <trkpt lat="45.12974" lon="5.57896">
        <ele>1003.2</ele>
        <time>2020-08-23T06:30:08Z</time>
      </trkpt>
      <trkpt lat="45.12972" lon="5.57894">
        <ele>1003.2</ele>
        <time>2020-08-23T06:30:09Z</time>
      </trkpt>
      <trkpt lat="45.1297" lon="5.57892">
        <ele>1003.2</ele>
        <time>2020-08-23T06:30:10Z</time>
      </trkpt>
      <trkpt lat="45.12967" lon="5.5789">
        <ele>1003.4</ele>
        <time>2020-08-23T06:30:11Z</time>
      </trkpt>
      <trkpt lat="45.12965" lon="5.57888">
        <ele>1003.4</ele>
        <time>2020-08-23T06:30:12Z</time>
      </trkpt>
      <trkpt lat="45.12963" lon="5.57885">
        <ele>1003.6</ele>
        <time>2020-08-23T06:30:13Z</time>
      </trkpt>
      <trkpt lat="45.12961" lon="5.57883">
        <ele>1003.6</ele>
        <time>2020-08-23T06:30:14Z</time>
      </trkpt>
      <trkpt lat="45.12959" lon="5.57881">
        <ele>1003.8</ele>
        <time>2020-08-23T06:30:15Z</time>
      </trkpt>
      <trkpt lat="45.12956" lon="5.57878">
        <ele>1004</ele>
        <time>2020-08-23T06:30:16Z</time>
      </trkpt>
      <trkpt lat="45.12954" lon="5.57876">
        <ele>1004</ele>
        <time>2020-08-23T06:30:17Z</time>
      </trkpt>
      <trkpt lat="45.12952" lon="5.57874">
        <ele>1004.2</ele>
        <time>2020-08-23T06:30:18Z</time>
      </trkpt>
      <trkpt lat="45.1295" lon="5.57872">
        <ele>1004.2</ele>
        <time>2020-08-23T06:30:19Z</time>
      </trkpt>
      <trkpt lat="45.12948" lon="5.57869">
        <ele>1004.4</ele>
        <time>2020-08-23T06:30:20Z</time>
      </trkpt>
      <trkpt lat="45.12946" lon="5.57867">
        <ele>1004.6</ele>
        <time>2020-08-23T06:30:21Z</time>
      </trkpt>
      <trkpt lat="45.12944" lon="5.57865">
        <ele>1004.6</ele>
        <time>2020-08-23T06:30:22Z</time>
      </trkpt>
      <trkpt lat="45.12942" lon="5.57863">
        <ele>1004.8</ele>
        <time>2020-08-23T06:30:23Z</time>
      </trkpt>
      <trkpt lat="45.1294" lon="5.5786">
        <ele>1004.8</ele>
        <time>2020-08-23T06:30:24Z</time>
      </trkpt>
      <trkpt lat="45.12938" lon="5.57858">
        <ele>1005</ele>
        <time>2020-08-23T06:30:25Z</time>
      </trkpt>
      <trkpt lat="45.12935" lon="5.57856">
        <ele>1005</ele>
        <time>2020-08-23T06:30:26Z</time>
      </trkpt>
      <trkpt lat="45.12933" lon="5.57854">
        <ele>1005.2</ele>
        <time>2020-08-23T06:30:27Z</time>
      </trkpt>
      <trkpt lat="45.12931" lon="5.57852">
        <ele>1005.2</ele>
        <time>2020-08-23T06:30:28Z</time>
      </trkpt>
      <trkpt lat="45.12929" lon="5.5785">
        <ele>1005.4</ele>
        <time>2020-08-23T06:30:29Z</time>
      </trkpt>
      <trkpt lat="45.12927" lon="5.57847">
        <ele>1005.4</ele>
        <time>2020-08-23T06:30:30Z</time>
      </trkpt>
      <trkpt lat="45.12925" lon="5.57845">
        <ele>1005.6</ele>
        <time>2020-08-23T06:30:31Z</time>
      </trkpt>
      <trkpt lat="45.12923" lon="5.57842">
        <ele>1005.6</ele>
        <time>2020-08-23T06:30:32Z</time>
      </trkpt>
      <trkpt lat="45.12921" lon="5.5784">
        <ele>1005.8</ele>
        <time>2020-08-23T06:30:33Z</time>
      </trkpt>
      <trkpt lat="45.12919" lon="5.57838">
        <ele>1005.8</ele>
        <time>2020-08-23T06:30:34Z</time>
      </trkpt>
      <trkpt lat="45.12917" lon="5.57836">
        <ele>1006</ele>
        <time>2020-08-23T06:30:35Z</time>
      </trkpt>
      <trkpt lat="45.12915" lon="5.57833">
        <ele>1006.2</ele>
        <time>2020-08-23T06:30:36Z</time>
      </trkpt>
      <trkpt lat="45.12913" lon="5.57831">
        <ele>1006.2</ele>
        <time>2020-08-23T06:30:37Z</time>
      </trkpt>
      <trkpt lat="45.12911" lon="5.57829">
        <ele>1006.4</ele>
        <time>2020-08-23T06:30:38Z</time>
      </trkpt>
      <trkpt lat="45.12909" lon="5.57826">
        <ele>1006.4</ele>
        <time>2020-08-23T06:30:39Z</time>
      </trkpt>
      <trkpt lat="45.12907" lon="5.57824">
        <ele>1006.6</ele>
        <time>2020-08-23T06:30:40Z</time>
      </trkpt>
      <trkpt lat="45.12905" lon="5.57822">
        <ele>1006.6</ele>
        <time>2020-08-23T06:30:41Z</time>
      </trkpt>
      <trkpt lat="45.12903" lon="5.57819">
        <ele>1006.8</ele>
        <time>2020-08-23T06:30:42Z</time>
      </trkpt>
      <trkpt lat="45.12901" lon="5.57817">
        <ele>1006.8</ele>
        <time>2020-08-23T06:30:43Z</time>
      </trkpt>
      <trkpt lat="45.12899" lon="5.57815">
        <ele>1006.8</ele>
        <time>2020-08-23T06:30:44Z</time>
      </trkpt>
      <trkpt lat="45.12897" lon="5.57813">
        <ele>1007</ele>
        <time>2020-08-23T06:30:45Z</time>
      </trkpt>
      <trkpt lat="45.12894" lon="5.57811">
        <ele>1007</ele>
        <time>2020-08-23T06:30:46Z</time>
      </trkpt>
      <trkpt lat="45.12893" lon="5.57809">
        <ele>1007</ele>
        <time>2020-08-23T06:30:47Z</time>
      </trkpt>
      <trkpt lat="45.12891" lon="5.57806">
        <ele>1007.2</ele>
        <time>2020-08-23T06:30:48Z</time>
      </trkpt>
      <trkpt lat="45.12889" lon="5.57804">
        <ele>1007.2</ele>
        <time>2020-08-23T06:30:49Z</time>
      </trkpt>
      <trkpt lat="45.12887" lon="5.57802">
        <ele>1007.4</ele>
        <time>2020-08-23T06:30:50Z</time>
      </trkpt>
      <trkpt lat="45.12885" lon="5.578">
        <ele>1007.4</ele>
        <time>2020-08-23T06:30:51Z</time>
      </trkpt>
      <trkpt lat="45.12883" lon="5.57797">
        <ele>1007.6</ele>
        <time>2020-08-23T06:30:52Z</time>
      </trkpt>
      <trkpt lat="45.12881" lon="5.57795">
        <ele>1007.6</ele>
        <time>2020-08-23T06:30:53Z</time>
      </trkpt>
      <trkpt lat="45.12879" lon="5.57793">
        <ele>1007.8</ele>
        <time>2020-08-23T06:30:54Z</time>
      </trkpt>
      <trkpt lat="45.12877" lon="5.5779">
        <ele>1007.8</ele>
        <time>2020-08-23T06:30:55Z</time>
      </trkpt>
      <trkpt lat="45.12875" lon="5.57788">
        <ele>1008</ele>
        <time>2020-08-23T06:30:56Z</time>
      </trkpt>
      <trkpt lat="45.12873" lon="5.57786">
        <ele>1008</ele>
        <time>2020-08-23T06:30:57Z</time>
      </trkpt>
      <trkpt lat="45.1287" lon="5.57783">
        <ele>1008.2</ele>
        <time>2020-08-23T06:30:58Z</time>
      </trkpt>
      <trkpt lat="45.12869" lon="5.57781">
        <ele>1008.2</ele>
        <time>2020-08-23T06:30:59Z</time>
      </trkpt>
      <trkpt lat="45.12867" lon="5.57779">
        <ele>1008.4</ele>
        <time>2020-08-23T06:31:00Z</time>
      </trkpt>
      <trkpt lat="45.12864" lon="5.57777">
        <ele>1008.4</ele>
        <time>2020-08-23T06:31:01Z</time>
      </trkpt>
      <trkpt lat="45.12862" lon="5.57774">
        <ele>1008.6</ele>
        <time>2020-08-23T06:31:02Z</time>
      </trkpt>
      <trkpt lat="45.1286" lon="5.57772">
        <ele>1008.6</ele>
        <time>2020-08-23T06:31:03Z</time>
      </trkpt>
      <trkpt lat="45.12858" lon="5.57769">
        <ele>1008.6</ele>
        <time>2020-08-23T06:31:04Z</time>
      </trkpt>
      <trkpt lat="45.12856" lon="5.57767">
        <ele>1008.6</ele>
        <time>2020-08-23T06:31:05Z</time>
      </trkpt>
      <trkpt lat="45.12854" lon="5.57764">
        <ele>1008.8</ele>
        <time>2020-08-23T06:31:06Z</time>
      </trkpt>
      <trkpt lat="45.12852" lon="5.57762">
        <ele>1008.8</ele>
        <time>2020-08-23T06:31:07Z</time>
      </trkpt>
      <trkpt lat="45.1285" lon="5.5776">
        <ele>1008.8</ele>
        <time>2020-08-23T06:31:08Z</time>
      </trkpt>
      <trkpt lat="45.12848" lon="5.57757">
        <ele>1008.8</ele>
        <time>2020-08-23T06:31:09Z</time>
      </trkpt>
      <trkpt lat="45.12846" lon="5.57755">
        <ele>1008.8</ele>
        <time>2020-08-23T06:31:10Z</time>
      </trkpt>
      <trkpt lat="45.12845" lon="5.57752">
        <ele>1009</ele>
        <time>2020-08-23T06:31:11Z</time>
      </trkpt>
      <trkpt lat="45.12843" lon="5.5775">
        <ele>1009</ele>
        <time>2020-08-23T06:31:12Z</time>
      </trkpt>
      <trkpt lat="45.12841" lon="5.57747">
        <ele>1009</ele>
        <time>2020-08-23T06:31:13Z</time>
      </trkpt>
      <trkpt lat="45.12839" lon="5.57745">
        <ele>1009</ele>
        <time>2020-08-23T06:31:14Z</time>
      </trkpt>
      <trkpt lat="45.12838" lon="5.57743">
        <ele>1009</ele>
        <time>2020-08-23T06:31:15Z</time>
      </trkpt>
      <trkpt lat="45.12835" lon="5.5774">
        <ele>1009</ele>
        <time>2020-08-23T06:31:16Z</time>
      </trkpt>
      <trkpt lat="45.12833" lon="5.57738">
        <ele>1009</ele>
        <time>2020-08-23T06:31:17Z</time>
      </trkpt>
      <trkpt lat="45.12832" lon="5.57735">
        <ele>1009</ele>
        <time>2020-08-23T06:31:18Z</time>
      </trkpt>
      <trkpt lat="45.1283" lon="5.57732">
        <ele>1009</ele>
        <time>2020-08-23T06:31:19Z</time>
      </trkpt>
      <trkpt lat="45.12828" lon="5.57729">
        <ele>1009</ele>
        <time>2020-08-23T06:31:20Z</time>
      </trkpt>
      <trkpt lat="45.12827" lon="5.57727">
        <ele>1009.2</ele>
        <time>2020-08-23T06:31:21Z</time>
      </trkpt>
      <trkpt lat="45.12825" lon="5.57724">
        <ele>1009.2</ele>
        <time>2020-08-23T06:31:22Z</time>
      </trkpt>
      <trkpt lat="45.12824" lon="5.57721">
        <ele>1009.2</ele>
        <time>2020-08-23T06:31:23Z</time>
      </trkpt>
      <trkpt lat="45.12822" lon="5.57719">
        <ele>1009.4</ele>
        <time>2020-08-23T06:31:24Z</time>
      </trkpt>
      <trkpt lat="45.1282" lon="5.57716">
        <ele>1009.6</ele>
        <time>2020-08-23T06:31:25Z</time>
      </trkpt>
      <trkpt lat="45.12818" lon="5.57713">
        <ele>1009.6</ele>
        <time>2020-08-23T06:31:26Z</time>
      </trkpt>
      <trkpt lat="45.12816" lon="5.57711">
        <ele>1009.8</ele>
        <time>2020-08-23T06:31:27Z</time>
      </trkpt>
      <trkpt lat="45.12815" lon="5.57708">
        <ele>1010</ele>
        <time>2020-08-23T06:31:28Z</time>
      </trkpt>
      <trkpt lat="45.12813" lon="5.57706">
        <ele>1010</ele>
        <time>2020-08-23T06:31:29Z</time>
      </trkpt>
      <trkpt lat="45.12811" lon="5.57703">
        <ele>1010.2</ele>
        <time>2020-08-23T06:31:30Z</time>
      </trkpt>
      <trkpt lat="45.12809" lon="5.577">
        <ele>1010.4</ele>
        <time>2020-08-23T06:31:31Z</time>
      </trkpt>
      <trkpt lat="45.12808" lon="5.57698">
        <ele>1010.6</ele>
        <time>2020-08-23T06:31:32Z</time>
      </trkpt>
      <trkpt lat="45.12806" lon="5.57695">
        <ele>1010.8</ele>
        <time>2020-08-23T06:31:33Z</time>
      </trkpt>
      <trkpt lat="45.12804" lon="5.57692">
        <ele>1010.8</ele>
        <time>2020-08-23T06:31:34Z</time>
      </trkpt>
      <trkpt lat="45.12803" lon="5.5769">
        <ele>1011</ele>
        <time>2020-08-23T06:31:35Z</time>
      </trkpt>
      <trkpt lat="45.12801" lon="5.57687">
        <ele>1011.2</ele>
        <time>2020-08-23T06:31:36Z</time>
      </trkpt>
      <trkpt lat="45.12799" lon="5.57684">
        <ele>1011.2</ele>
        <time>2020-08-23T06:31:37Z</time>
      </trkpt>
      <trkpt lat="45.12798" lon="5.57681">
        <ele>1011.4</ele>
        <time>2020-08-23T06:31:38Z</time>
      </trkpt>
      <trkpt lat="45.12796" lon="5.57679">
        <ele>1011.6</ele>
        <time>2020-08-23T06:31:39Z</time>
      </trkpt>
      <trkpt lat="45.12794" lon="5.57676">
        <ele>1011.8</ele>
        <time>2020-08-23T06:31:40Z</time>
      </trkpt>
      <trkpt lat="45.12792" lon="5.57673">
        <ele>1011.8</ele>
        <time>2020-08-23T06:31:41Z</time>
      </trkpt>
      <trkpt lat="45.12791" lon="5.57671">
        <ele>1012</ele>
        <time>2020-08-23T06:31:42Z</time>
      </trkpt>
      <trkpt lat="45.12789" lon="5.57668">
        <ele>1012.2</ele>
        <time>2020-08-23T06:31:43Z</time>
      </trkpt>
      <trkpt lat="45.12787" lon="5.57665">
        <ele>1012.2</ele>
        <time>2020-08-23T06:31:44Z</time>
      </trkpt>
      <trkpt lat="45.12786" lon="5.57663">
        <ele>1012.4</ele>
        <time>2020-08-23T06:31:45Z</time>
      </trkpt>
      <trkpt lat="45.12784" lon="5.5766">
        <ele>1012.6</ele>
        <time>2020-08-23T06:31:46Z</time>
      </trkpt>
      <trkpt lat="45.12783" lon="5.57658">
        <ele>1012.8</ele>
        <time>2020-08-23T06:31:47Z</time>
      </trkpt>
      <trkpt lat="45.12781" lon="5.57655">
        <ele>1012.8</ele>
        <time>2020-08-23T06:31:48Z</time>
      </trkpt>
      <trkpt lat="45.12779" lon="5.57653">
        <ele>1013</ele>
        <time>2020-08-23T06:31:49Z</time>
      </trkpt>
      <trkpt lat="45.12777" lon="5.5765">
        <ele>1013.2</ele>
        <time>2020-08-23T06:31:50Z</time>
      </trkpt>
      <trkpt lat="45.12776" lon="5.57647">
        <ele>1013.4</ele>
        <time>2020-08-23T06:31:51Z</time>
      </trkpt>
      <trkpt lat="45.12774" lon="5.57645">
        <ele>1013.8</ele>
        <time>2020-08-23T06:31:52Z</time>
      </trkpt>
      <trkpt lat="45.12772" lon="5.57642">
        <ele>1013.8</ele>
        <time>2020-08-23T06:31:53Z</time>
      </trkpt>
      <trkpt lat="45.12771" lon="5.57639">
        <ele>1014</ele>
        <time>2020-08-23T06:31:54Z</time>
      </trkpt>
      <trkpt lat="45.12769" lon="5.57637">
        <ele>1014.2</ele>
        <time>2020-08-23T06:31:55Z</time>
      </trkpt>
      <trkpt lat="45.12767" lon="5.57634">
        <ele>1014.4</ele>
        <time>2020-08-23T06:31:56Z</time>
      </trkpt>
      <trkpt lat="45.12765" lon="5.57632">
        <ele>1014.6</ele>
        <time>2020-08-23T06:31:57Z</time>
      </trkpt>
      <trkpt lat="45.12763" lon="5.57629">
        <ele>1014.8</ele>
        <time>2020-08-23T06:31:58Z</time>
      </trkpt>
      <trkpt lat="45.12762" lon="5.57626">
        <ele>1015</ele>
        <time>2020-08-23T06:31:59Z</time>
      </trkpt>
      <trkpt lat="45.1276" lon="5.57623">
        <ele>1015.2</ele>
        <time>2020-08-23T06:32:00Z</time>
      </trkpt>
      <trkpt lat="45.12758" lon="5.57621">
        <ele>1015.4</ele>
        <time>2020-08-23T06:32:01Z</time>
      </trkpt>
      <trkpt lat="45.12756" lon="5.57619">
        <ele>1015.6</ele>
        <time>2020-08-23T06:32:02Z</time>
      </trkpt>
      <trkpt lat="45.12753" lon="5.57616">
        <ele>1015.8</ele>
        <time>2020-08-23T06:32:03Z</time>
      </trkpt>
      <trkpt lat="45.12751" lon="5.57614">
        <ele>1016</ele>
        <time>2020-08-23T06:32:04Z</time>
      </trkpt>
      <trkpt lat="45.1275" lon="5.57611">
        <ele>1016.2</ele>
        <time>2020-08-23T06:32:05Z</time>
      </trkpt>
      <trkpt lat="45.12747" lon="5.57609">
        <ele>1016.2</ele>
        <time>2020-08-23T06:32:06Z</time>
      </trkpt>
      <trkpt lat="45.12745" lon="5.57606">
        <ele>1016.4</ele>
        <time>2020-08-23T06:32:07Z</time>
      </trkpt>
      <trkpt lat="45.12743" lon="5.57604">
        <ele>1016.6</ele>
        <time>2020-08-23T06:32:08Z</time>
      </trkpt>
      <trkpt lat="45.12741" lon="5.57602">
        <ele>1016.8</ele>
        <time>2020-08-23T06:32:09Z</time>
      </trkpt>
      <trkpt lat="45.12739" lon="5.576">
        <ele>1017</ele>
        <time>2020-08-23T06:32:10Z</time>
      </trkpt>
      <trkpt lat="45.12737" lon="5.57598">
        <ele>1017.2</ele>
        <time>2020-08-23T06:32:11Z</time>
      </trkpt>
      <trkpt lat="45.12735" lon="5.57596">
        <ele>1017.2</ele>
        <time>2020-08-23T06:32:12Z</time>
      </trkpt>
      <trkpt lat="45.12732" lon="5.57594">
        <ele>1017.4</ele>
        <time>2020-08-23T06:32:13Z</time>
      </trkpt>
      <trkpt lat="45.1273" lon="5.57593">
        <ele>1017.6</ele>
        <time>2020-08-23T06:32:14Z</time>
      </trkpt>
      <trkpt lat="45.12728" lon="5.57591">
        <ele>1017.8</ele>
        <time>2020-08-23T06:32:15Z</time>
      </trkpt>
      <trkpt lat="45.12725" lon="5.57589">
        <ele>1017.8</ele>
        <time>2020-08-23T06:32:16Z</time>
      </trkpt>
      <trkpt lat="45.12723" lon="5.57588">
        <ele>1018</ele>
        <time>2020-08-23T06:32:17Z</time>
      </trkpt>
      <trkpt lat="45.12721" lon="5.57586">
        <ele>1018</ele>
        <time>2020-08-23T06:32:18Z</time>
      </trkpt>
      <trkpt lat="45.12718" lon="5.57585">
        <ele>1018.2</ele>
        <time>2020-08-23T06:32:19Z</time>
      </trkpt>
      <trkpt lat="45.12716" lon="5.57583">
        <ele>1018.2</ele>
        <time>2020-08-23T06:32:20Z</time>
      </trkpt>
      <trkpt lat="45.12713" lon="5.57582">
        <ele>1018.2</ele>
        <time>2020-08-23T06:32:21Z</time>
      </trkpt>
      <trkpt lat="45.12711" lon="5.57581">
        <ele>1018.2</ele>
        <time>2020-08-23T06:32:22Z</time>
      </trkpt>
      <trkpt lat="45.12709" lon="5.57579">
        <ele>1018.4</ele>
        <time>2020-08-23T06:32:23Z</time>
      </trkpt>
      <trkpt lat="45.12706" lon="5.57578">
        <ele>1018.4</ele>
        <time>2020-08-23T06:32:24Z</time>
      </trkpt>
      <trkpt lat="45.12704" lon="5.57576">
        <ele>1018.4</ele>
        <time>2020-08-23T06:32:25Z</time>
      </trkpt>
      <trkpt lat="45.12702" lon="5.57575">
        <ele>1018.4</ele>
        <time>2020-08-23T06:32:26Z</time>
      </trkpt>
      <trkpt lat="45.127" lon="5.57573">
        <ele>1018.6</ele>
        <time>2020-08-23T06:32:27Z</time>
      </trkpt>
      <trkpt lat="45.12697" lon="5.57571">
        <ele>1018.6</ele>
        <time>2020-08-23T06:32:28Z</time>
      </trkpt>
      <trkpt lat="45.12695" lon="5.5757">
        <ele>1018.6</ele>
        <time>2020-08-23T06:32:29Z</time>
      </trkpt>
      <trkpt lat="45.12692" lon="5.57568">
        <ele>1018.6</ele>
        <time>2020-08-23T06:32:30Z</time>
      </trkpt>
      <trkpt lat="45.1269" lon="5.57566">
        <ele>1018.6</ele>
        <time>2020-08-23T06:32:31Z</time>
      </trkpt>
      <trkpt lat="45.12688" lon="5.57564">
        <ele>1018.8</ele>
        <time>2020-08-23T06:32:32Z</time>
      </trkpt>
      <trkpt lat="45.12686" lon="5.57562">
        <ele>1018.8</ele>
        <time>2020-08-23T06:32:33Z</time>
      </trkpt>
      <trkpt lat="45.12684" lon="5.5756">
        <ele>1018.8</ele>
        <time>2020-08-23T06:32:34Z</time>
      </trkpt>
      <trkpt lat="45.12681" lon="5.57558">
        <ele>1018.8</ele>
        <time>2020-08-23T06:32:35Z</time>
      </trkpt>
      <trkpt lat="45.12679" lon="5.57555">
        <ele>1018.8</ele>
        <time>2020-08-23T06:32:36Z</time>
      </trkpt>
      <trkpt lat="45.12677" lon="5.57553">
        <ele>1019</ele>
        <time>2020-08-23T06:32:37Z</time>
      </trkpt>
      <trkpt lat="45.12675" lon="5.57551">
        <ele>1019</ele>
        <time>2020-08-23T06:32:38Z</time>
      </trkpt>
      <trkpt lat="45.12672" lon="5.57549">
        <ele>1019</ele>
        <time>2020-08-23T06:32:39Z</time>
      </trkpt>
      <trkpt lat="45.1267" lon="5.57547">
        <ele>1019.2</ele>
        <time>2020-08-23T06:32:40Z</time>
      </trkpt>
      <trkpt lat="45.12669" lon="5.57545">
        <ele>1019.2</ele>
        <time>2020-08-23T06:32:41Z</time>
      </trkpt>
      <trkpt lat="45.12666" lon="5.57542">
        <ele>1019.4</ele>
        <time>2020-08-23T06:32:42Z</time>
      </trkpt>
      <trkpt lat="45.12665" lon="5.5754">
        <ele>1019.4</ele>
        <time>2020-08-23T06:32:43Z</time>
      </trkpt>
      <trkpt lat="45.12663" lon="5.57537">
        <ele>1019.6</ele>
        <time>2020-08-23T06:32:44Z</time>
      </trkpt>
      <trkpt lat="45.12661" lon="5.57535">
        <ele>1019.6</ele>
        <time>2020-08-23T06:32:45Z</time>
      </trkpt>
      <trkpt lat="45.12659" lon="5.57533">
        <ele>1019.8</ele>
        <time>2020-08-23T06:32:46Z</time>
      </trkpt>
      <trkpt lat="45.12657" lon="5.5753">
        <ele>1020</ele>
        <time>2020-08-23T06:32:47Z</time>
      </trkpt>
      <trkpt lat="45.12655" lon="5.57528">
        <ele>1020</ele>
        <time>2020-08-23T06:32:48Z</time>
      </trkpt>
      <trkpt lat="45.12653" lon="5.57525">
        <ele>1020.2</ele>
        <time>2020-08-23T06:32:49Z</time>
      </trkpt>
      <trkpt lat="45.12651" lon="5.57523">
        <ele>1020.2</ele>
        <time>2020-08-23T06:32:50Z</time>
      </trkpt>
      <trkpt lat="45.1265" lon="5.57521">
        <ele>1020.4</ele>
        <time>2020-08-23T06:32:51Z</time>
      </trkpt>
      <trkpt lat="45.12647" lon="5.57518">
        <ele>1020.6</ele>
        <time>2020-08-23T06:32:52Z</time>
      </trkpt>
      <trkpt lat="45.12645" lon="5.57516">
        <ele>1020.8</ele>
        <time>2020-08-23T06:32:53Z</time>
      </trkpt>
      <trkpt lat="45.12643" lon="5.57513">
        <ele>1020.8</ele>
        <time>2020-08-23T06:32:54Z</time>
      </trkpt>
      <trkpt lat="45.12642" lon="5.57511">
        <ele>1021</ele>
        <time>2020-08-23T06:32:55Z</time>
      </trkpt>
      <trkpt lat="45.1264" lon="5.57508">
        <ele>1021.2</ele>
        <time>2020-08-23T06:32:56Z</time>
      </trkpt>
      <trkpt lat="45.12638" lon="5.57506">
        <ele>1021.2</ele>
        <time>2020-08-23T06:32:57Z</time>
      </trkpt>
      <trkpt lat="45.12636" lon="5.57503">
        <ele>1021.4</ele>
        <time>2020-08-23T06:32:58Z</time>
      </trkpt>
      <trkpt lat="45.12634" lon="5.57501">
        <ele>1021.6</ele>
        <time>2020-08-23T06:32:59Z</time>
      </trkpt>
      <trkpt lat="45.12632" lon="5.57499">
        <ele>1021.6</ele>
        <time>2020-08-23T06:33:00Z</time>
      </trkpt>
      <trkpt lat="45.1263" lon="5.57496">
        <ele>1021.8</ele>
        <time>2020-08-23T06:33:01Z</time>
      </trkpt>
      <trkpt lat="45.12628" lon="5.57494">
        <ele>1022</ele>
        <time>2020-08-23T06:33:02Z</time>
      </trkpt>
      <trkpt lat="45.12626" lon="5.57492">
        <ele>1022.2</ele>
        <time>2020-08-23T06:33:03Z</time>
      </trkpt>
      <trkpt lat="45.12624" lon="5.57489">
        <ele>1022.4</ele>
        <time>2020-08-23T06:33:04Z</time>
      </trkpt>
      <trkpt lat="45.12623" lon="5.57487">
        <ele>1022.6</ele>
        <time>2020-08-23T06:33:05Z</time>
      </trkpt>
      <trkpt lat="45.1262" lon="5.57484">
        <ele>1022.6</ele>
        <time>2020-08-23T06:33:06Z</time>
      </trkpt>
      <trkpt lat="45.12619" lon="5.57482">
        <ele>1022.8</ele>
        <time>2020-08-23T06:33:07Z</time>
      </trkpt>
      <trkpt lat="45.12616" lon="5.5748">
        <ele>1023</ele>
        <time>2020-08-23T06:33:08Z</time>
      </trkpt>
      <trkpt lat="45.12614" lon="5.57477">
        <ele>1023.2</ele>
        <time>2020-08-23T06:33:09Z</time>
      </trkpt>
      <trkpt lat="45.12613" lon="5.57475">
        <ele>1023.4</ele>
        <time>2020-08-23T06:33:10Z</time>
      </trkpt>
      <trkpt lat="45.12611" lon="5.57472">
        <ele>1023.6</ele>
        <time>2020-08-23T06:33:11Z</time>
      </trkpt>
      <trkpt lat="45.12609" lon="5.5747">
        <ele>1023.6</ele>
        <time>2020-08-23T06:33:12Z</time>
      </trkpt>
      <trkpt lat="45.12607" lon="5.57467">
        <ele>1023.8</ele>
        <time>2020-08-23T06:33:13Z</time>
      </trkpt>
      <trkpt lat="45.12605" lon="5.57465">
        <ele>1024</ele>
        <time>2020-08-23T06:33:14Z</time>
      </trkpt>
      <trkpt lat="45.12603" lon="5.57463">
        <ele>1024.2</ele>
        <time>2020-08-23T06:33:15Z</time>
      </trkpt>
      <trkpt lat="45.12601" lon="5.5746">
        <ele>1024.4</ele>
        <time>2020-08-23T06:33:16Z</time>
      </trkpt>
      <trkpt lat="45.12598" lon="5.57458">
        <ele>1024.4</ele>
        <time>2020-08-23T06:33:17Z</time>
      </trkpt>
      <trkpt lat="45.12596" lon="5.57456">
        <ele>1024.6</ele>
        <time>2020-08-23T06:33:18Z</time>
      </trkpt>
      <trkpt lat="45.12595" lon="5.57454">
        <ele>1024.8</ele>
        <time>2020-08-23T06:33:19Z</time>
      </trkpt>
      <trkpt lat="45.12592" lon="5.57451">
        <ele>1024.8</ele>
        <time>2020-08-23T06:33:20Z</time>
      </trkpt>
      <trkpt lat="45.1259" lon="5.57449">
        <ele>1025</ele>
        <time>2020-08-23T06:33:21Z</time>
      </trkpt>
      <trkpt lat="45.12589" lon="5.57447">
        <ele>1025.2</ele>
        <time>2020-08-23T06:33:22Z</time>
      </trkpt>
      <trkpt lat="45.12587" lon="5.57445">
        <ele>1025.4</ele>
        <time>2020-08-23T06:33:23Z</time>
      </trkpt>
      <trkpt lat="45.12584" lon="5.57443">
        <ele>1025.6</ele>
        <time>2020-08-23T06:33:24Z</time>
      </trkpt>
      <trkpt lat="45.12582" lon="5.57441">
        <ele>1025.6</ele>
        <time>2020-08-23T06:33:25Z</time>
      </trkpt>
      <trkpt lat="45.12581" lon="5.57438">
        <ele>1025.8</ele>
        <time>2020-08-23T06:33:26Z</time>
      </trkpt>
      <trkpt lat="45.12578" lon="5.57436">
        <ele>1026</ele>
        <time>2020-08-23T06:33:27Z</time>
      </trkpt>
      <trkpt lat="45.12576" lon="5.57434">
        <ele>1026.2</ele>
        <time>2020-08-23T06:33:28Z</time>
      </trkpt>
      <trkpt lat="45.12574" lon="5.57432">
        <ele>1026.2</ele>
        <time>2020-08-23T06:33:29Z</time>
      </trkpt>
      <trkpt lat="45.12572" lon="5.5743">
        <ele>1026.4</ele>
        <time>2020-08-23T06:33:30Z</time>
      </trkpt>
      <trkpt lat="45.1257" lon="5.57428">
        <ele>1026.6</ele>
        <time>2020-08-23T06:33:31Z</time>
      </trkpt>
      <trkpt lat="45.12568" lon="5.57426">
        <ele>1026.6</ele>
        <time>2020-08-23T06:33:32Z</time>
      </trkpt>
      <trkpt lat="45.12566" lon="5.57423">
        <ele>1026.8</ele>
        <time>2020-08-23T06:33:33Z</time>
      </trkpt>
      <trkpt lat="45.12565" lon="5.57421">
        <ele>1027</ele>
        <time>2020-08-23T06:33:34Z</time>
      </trkpt>
      <trkpt lat="45.12563" lon="5.57418">
        <ele>1027.2</ele>
        <time>2020-08-23T06:33:35Z</time>
      </trkpt>
      <trkpt lat="45.12562" lon="5.57416">
        <ele>1027.4</ele>
        <time>2020-08-23T06:33:36Z</time>
      </trkpt>
      <trkpt lat="45.12561" lon="5.57414">
        <ele>1027.6</ele>
        <time>2020-08-23T06:33:37Z</time>
      </trkpt>
      <trkpt lat="45.1256" lon="5.57412">
        <ele>1027.8</ele>
        <time>2020-08-23T06:33:38Z</time>
      </trkpt>
      <trkpt lat="45.12558" lon="5.57411">
        <ele>1028</ele>
        <time>2020-08-23T06:33:39Z</time>
      </trkpt>
      <trkpt lat="45.12557" lon="5.57409">
        <ele>1028</ele>
        <time>2020-08-23T06:33:40Z</time>
      </trkpt>
      <trkpt lat="45.12556" lon="5.57408">
        <ele>1028.2</ele>
        <time>2020-08-23T06:33:41Z</time>
      </trkpt>
      <trkpt lat="45.12555" lon="5.57406">
        <ele>1028.4</ele>
        <time>2020-08-23T06:33:42Z</time>
      </trkpt>
      <trkpt lat="45.12554" lon="5.57405">
        <ele>1028.6</ele>
        <time>2020-08-23T06:33:43Z</time>
      </trkpt>
      <trkpt lat="45.12553" lon="5.57403">
        <ele>1028.6</ele>
        <time>2020-08-23T06:33:44Z</time>
      </trkpt>
      <trkpt lat="45.12552" lon="5.57402">
        <ele>1028.8</ele>
        <time>2020-08-23T06:33:45Z</time>
      </trkpt>
      <trkpt lat="45.1255" lon="5.57401">
        <ele>1028.8</ele>
        <time>2020-08-23T06:33:46Z</time>
      </trkpt>
      <trkpt lat="45.12549" lon="5.574">
        <ele>1029</ele>
        <time>2020-08-23T06:33:47Z</time>
      </trkpt>
      <trkpt lat="45.12548" lon="5.57399">
        <ele>1029</ele>
        <time>2020-08-23T06:33:48Z</time>
      </trkpt>
      <trkpt lat="45.12546" lon="5.57398">
        <ele>1029.2</ele>
        <time>2020-08-23T06:33:49Z</time>
      </trkpt>
      <trkpt lat="45.12545" lon="5.57397">
        <ele>1029.2</ele>
        <time>2020-08-23T06:33:50Z</time>
      </trkpt>
      <trkpt lat="45.12544" lon="5.57396">
        <ele>1029.4</ele>
        <time>2020-08-23T06:33:51Z</time>
      </trkpt>
      <trkpt lat="45.12543" lon="5.57394">
        <ele>1029.6</ele>
        <time>2020-08-23T06:33:52Z</time>
      </trkpt>
      <trkpt lat="45.12542" lon="5.57393">
        <ele>1029.6</ele>
        <time>2020-08-23T06:33:53Z</time>
      </trkpt>
      <trkpt lat="45.12541" lon="5.57391">
        <ele>1029.8</ele>
        <time>2020-08-23T06:33:54Z</time>
      </trkpt>
      <trkpt lat="45.1254" lon="5.5739">
        <ele>1030</ele>
        <time>2020-08-23T06:33:55Z</time>
      </trkpt>
      <trkpt lat="45.12539" lon="5.57389">
        <ele>1030</ele>
        <time>2020-08-23T06:33:56Z</time>
      </trkpt>
      <trkpt lat="45.12537" lon="5.57387">
        <ele>1030</ele>
        <time>2020-08-23T06:33:57Z</time>
      </trkpt>
      <trkpt lat="45.12536" lon="5.57386">
        <ele>1030.2</ele>
        <time>2020-08-23T06:33:58Z</time>
      </trkpt>
      <trkpt lat="45.12535" lon="5.57385">
        <ele>1030.2</ele>
        <time>2020-08-23T06:33:59Z</time>
      </trkpt>
      <trkpt lat="45.12534" lon="5.57383">
        <ele>1030.4</ele>
        <time>2020-08-23T06:34:00Z</time>
      </trkpt>
      <trkpt lat="45.12532" lon="5.57382">
        <ele>1030.4</ele>
        <time>2020-08-23T06:34:01Z</time>
      </trkpt>
      <trkpt lat="45.12531" lon="5.57381">
        <ele>1030.6</ele>
        <time>2020-08-23T06:34:02Z</time>
      </trkpt>
      <trkpt lat="45.12531" lon="5.57379">
        <ele>1030.6</ele>
        <time>2020-08-23T06:34:03Z</time>
      </trkpt>
      <trkpt lat="45.12529" lon="5.57378">
        <ele>1030.8</ele>
        <time>2020-08-23T06:34:04Z</time>
      </trkpt>
      <trkpt lat="45.12528" lon="5.57377">
        <ele>1031</ele>
        <time>2020-08-23T06:34:05Z</time>
      </trkpt>
      <trkpt lat="45.12527" lon="5.57376">
        <ele>1031</ele>
        <time>2020-08-23T06:34:06Z</time>
      </trkpt>
      <trkpt lat="45.12526" lon="5.57374">
        <ele>1031.2</ele>
        <time>2020-08-23T06:34:07Z</time>
      </trkpt>
      <trkpt lat="45.12525" lon="5.57373">
        <ele>1031.2</ele>
        <time>2020-08-23T06:34:08Z</time>
      </trkpt>
      <trkpt lat="45.12524" lon="5.57372">
        <ele>1031.4</ele>
        <time>2020-08-23T06:34:09Z</time>
      </trkpt>
      <trkpt lat="45.12523" lon="5.57371">
        <ele>1031.4</ele>
        <time>2020-08-23T06:34:10Z</time>
      </trkpt>
      <trkpt lat="45.12521" lon="5.57369">
        <ele>1031.6</ele>
        <time>2020-08-23T06:34:11Z</time>
      </trkpt>
      <trkpt lat="45.1252" lon="5.57368">
        <ele>1031.6</ele>
        <time>2020-08-23T06:34:12Z</time>
      </trkpt>
      <trkpt lat="45.12519" lon="5.57367">
        <ele>1031.8</ele>
        <time>2020-08-23T06:34:13Z</time>
      </trkpt>
      <trkpt lat="45.12518" lon="5.57365">
        <ele>1032</ele>
        <time>2020-08-23T06:34:14Z</time>
      </trkpt>
      <trkpt lat="45.12517" lon="5.57364">
        <ele>1032</ele>
        <time>2020-08-23T06:34:15Z</time>
      </trkpt>
      <trkpt lat="45.12516" lon="5.57363">
        <ele>1032.2</ele>
        <time>2020-08-23T06:34:16Z</time>
      </trkpt>
      <trkpt lat="45.12515" lon="5.57361">
        <ele>1032.4</ele>
        <time>2020-08-23T06:34:17Z</time>
      </trkpt>
      <trkpt lat="45.12514" lon="5.5736">
        <ele>1032.6</ele>
        <time>2020-08-23T06:34:18Z</time>
      </trkpt>
      <trkpt lat="45.12513" lon="5.57359">
        <ele>1032.6</ele>
        <time>2020-08-23T06:34:19Z</time>
      </trkpt>
      <trkpt lat="45.12511" lon="5.57357">
        <ele>1032.8</ele>
        <time>2020-08-23T06:34:20Z</time>
      </trkpt>
      <trkpt lat="45.1251" lon="5.57356">
        <ele>1033</ele>
        <time>2020-08-23T06:34:21Z</time>
      </trkpt>
      <trkpt lat="45.12509" lon="5.57355">
        <ele>1033</ele>
        <time>2020-08-23T06:34:22Z</time>
      </trkpt>
      <trkpt lat="45.12508" lon="5.57353">
        <ele>1033.2</ele>
        <time>2020-08-23T06:34:23Z</time>
      </trkpt>
      <trkpt lat="45.12507" lon="5.57352">
        <ele>1033.4</ele>
        <time>2020-08-23T06:34:24Z</time>
      </trkpt>
      <trkpt lat="45.12506" lon="5.57351">
        <ele>1033.6</ele>
        <time>2020-08-23T06:34:25Z</time>
      </trkpt>
      <trkpt lat="45.12505" lon="5.57349">
        <ele>1033.6</ele>
        <time>2020-08-23T06:34:26Z</time>
      </trkpt>
      <trkpt lat="45.12503" lon="5.57348">
        <ele>1033.8</ele>
        <time>2020-08-23T06:34:27Z</time>
      </trkpt>
      <trkpt lat="45.12502" lon="5.57347">
        <ele>1034</ele>
        <time>2020-08-23T06:34:28Z</time>
      </trkpt>
      <trkpt lat="45.12502" lon="5.57346">
        <ele>1034.2</ele>
        <time>2020-08-23T06:34:29Z</time>
      </trkpt>
      <trkpt lat="45.125" lon="5.57344">
        <ele>1034.4</ele>
        <time>2020-08-23T06:34:30Z</time>
      </trkpt>
      <trkpt lat="45.125" lon="5.57343">
        <ele>1034.6</ele>
        <time>2020-08-23T06:34:31Z</time>
      </trkpt>
      <trkpt lat="45.12499" lon="5.57341">
        <ele>1034.6</ele>
        <time>2020-08-23T06:34:32Z</time>
      </trkpt>
      <trkpt lat="45.12497" lon="5.5734">
        <ele>1034.8</ele>
        <time>2020-08-23T06:34:33Z</time>
      </trkpt>
      <trkpt lat="45.12497" lon="5.57339">
        <ele>1035</ele>
        <time>2020-08-23T06:34:34Z</time>
      </trkpt>
      <trkpt lat="45.12495" lon="5.57338">
        <ele>1035</ele>
        <time>2020-08-23T06:34:35Z</time>
      </trkpt>
      <trkpt lat="45.12494" lon="5.57336">
        <ele>1035</ele>
        <time>2020-08-23T06:34:36Z</time>
      </trkpt>
      <trkpt lat="45.12493" lon="5.57335">
        <ele>1035.2</ele>
        <time>2020-08-23T06:34:37Z</time>
      </trkpt>
      <trkpt lat="45.12492" lon="5.57333">
        <ele>1035.2</ele>
        <time>2020-08-23T06:34:38Z</time>
      </trkpt>
      <trkpt lat="45.12491" lon="5.57332">
        <ele>1035.4</ele>
        <time>2020-08-23T06:34:39Z</time>
      </trkpt>
      <trkpt lat="45.12489" lon="5.57331">
        <ele>1035.4</ele>
        <time>2020-08-23T06:34:40Z</time>
      </trkpt>
      <trkpt lat="45.12488" lon="5.57329">
        <ele>1035.6</ele>
        <time>2020-08-23T06:34:41Z</time>
      </trkpt>
      <trkpt lat="45.12487" lon="5.57328">
        <ele>1035.8</ele>
        <time>2020-08-23T06:34:42Z</time>
      </trkpt>
      <trkpt lat="45.12486" lon="5.57327">
        <ele>1035.8</ele>
        <time>2020-08-23T06:34:43Z</time>
      </trkpt>
      <trkpt lat="45.12485" lon="5.57326">
        <ele>1036</ele>
        <time>2020-08-23T06:34:44Z</time>
      </trkpt>
      <trkpt lat="45.12484" lon="5.57325">
        <ele>1036</ele>
        <time>2020-08-23T06:34:45Z</time>
      </trkpt>
      <trkpt lat="45.12483" lon="5.57324">
        <ele>1036.2</ele>
        <time>2020-08-23T06:34:46Z</time>
      </trkpt>
      <trkpt lat="45.12482" lon="5.57323">
        <ele>1036.4</ele>
        <time>2020-08-23T06:34:47Z</time>
      </trkpt>
      <trkpt lat="45.12481" lon="5.57321">
        <ele>1036.4</ele>
        <time>2020-08-23T06:34:48Z</time>
      </trkpt>
      <trkpt lat="45.1248" lon="5.5732">
        <ele>1036.6</ele>
        <time>2020-08-23T06:34:49Z</time>
      </trkpt>
      <trkpt lat="45.12479" lon="5.57319">
        <ele>1036.8</ele>
        <time>2020-08-23T06:34:50Z</time>
      </trkpt>
      <trkpt lat="45.12478" lon="5.57317">
        <ele>1036.8</ele>
        <time>2020-08-23T06:34:51Z</time>
      </trkpt>
      <trkpt lat="45.12477" lon="5.57316">
        <ele>1037</ele>
        <time>2020-08-23T06:34:52Z</time>
      </trkpt>
      <trkpt lat="45.12476" lon="5.57315">
        <ele>1037.2</ele>
        <time>2020-08-23T06:34:53Z</time>
      </trkpt>
      <trkpt lat="45.12475" lon="5.57314">
        <ele>1037.2</ele>
        <time>2020-08-23T06:34:54Z</time>
      </trkpt>
      <trkpt lat="45.12474" lon="5.57312">
        <ele>1037.4</ele>
        <time>2020-08-23T06:34:55Z</time>
      </trkpt>
      <trkpt lat="45.12473" lon="5.57311">
        <ele>1037.6</ele>
        <time>2020-08-23T06:34:56Z</time>
      </trkpt>
      <trkpt lat="45.12472" lon="5.57309">
        <ele>1037.8</ele>
        <time>2020-08-23T06:34:57Z</time>
      </trkpt>
      <trkpt lat="45.12471" lon="5.57308">
        <ele>1038</ele>
        <time>2020-08-23T06:34:58Z</time>
      </trkpt>
      <trkpt lat="45.1247" lon="5.57307">
        <ele>1038.2</ele>
        <time>2020-08-23T06:34:59Z</time>
      </trkpt>
      <trkpt lat="45.12469" lon="5.57305">
        <ele>1038.4</ele>
        <time>2020-08-23T06:35:00Z</time>
      </trkpt>
      <trkpt lat="45.12468" lon="5.57304">
        <ele>1038.6</ele>
        <time>2020-08-23T06:35:01Z</time>
      </trkpt>
      <trkpt lat="45.12467" lon="5.57303">
        <ele>1038.8</ele>
        <time>2020-08-23T06:35:02Z</time>
      </trkpt>
      <trkpt lat="45.12466" lon="5.57302">
        <ele>1039</ele>
        <time>2020-08-23T06:35:03Z</time>
      </trkpt>
      <trkpt lat="45.12465" lon="5.57301">
        <ele>1039.4</ele>
        <time>2020-08-23T06:35:04Z</time>
      </trkpt>
      <trkpt lat="45.12464" lon="5.57299">
        <ele>1039.6</ele>
        <time>2020-08-23T06:35:05Z</time>
      </trkpt>
      <trkpt lat="45.12463" lon="5.57298">
        <ele>1039.8</ele>
        <time>2020-08-23T06:35:06Z</time>
      </trkpt>
      <trkpt lat="45.12462" lon="5.57297">
        <ele>1040</ele>
        <time>2020-08-23T06:35:07Z</time>
      </trkpt>
      <trkpt lat="45.12461" lon="5.57295">
        <ele>1040.2</ele>
        <time>2020-08-23T06:35:08Z</time>
      </trkpt>
      <trkpt lat="45.1246" lon="5.57294">
        <ele>1040.4</ele>
        <time>2020-08-23T06:35:09Z</time>
      </trkpt>
      <trkpt lat="45.12459" lon="5.57293">
        <ele>1040.6</ele>
        <time>2020-08-23T06:35:10Z</time>
      </trkpt>
      <trkpt lat="45.12458" lon="5.57292">
        <ele>1040.8</ele>
        <time>2020-08-23T06:35:11Z</time>
      </trkpt>
      <trkpt lat="45.12457" lon="5.57291">
        <ele>1041</ele>
        <time>2020-08-23T06:35:12Z</time>
      </trkpt>
      <trkpt lat="45.12456" lon="5.57289">
        <ele>1041.2</ele>
        <time>2020-08-23T06:35:13Z</time>
      </trkpt>
      <trkpt lat="45.12455" lon="5.57288">
        <ele>1041.4</ele>
        <time>2020-08-23T06:35:14Z</time>
      </trkpt>
      <trkpt lat="45.12454" lon="5.57287">
        <ele>1041.8</ele>
        <time>2020-08-23T06:35:15Z</time>
      </trkpt>
      <trkpt lat="45.12453" lon="5.57286">
        <ele>1042</ele>
        <time>2020-08-23T06:35:16Z</time>
      </trkpt>
      <trkpt lat="45.12452" lon="5.57284">
        <ele>1042.2</ele>
        <time>2020-08-23T06:35:17Z</time>
      </trkpt>
      <trkpt lat="45.12451" lon="5.57283">
        <ele>1042.4</ele>
        <time>2020-08-23T06:35:18Z</time>
      </trkpt>
      <trkpt lat="45.1245" lon="5.57281">
        <ele>1042.6</ele>
        <time>2020-08-23T06:35:19Z</time>
      </trkpt>
      <trkpt lat="45.12449" lon="5.5728">
        <ele>1042.8</ele>
        <time>2020-08-23T06:35:20Z</time>
      </trkpt>
      <trkpt lat="45.12448" lon="5.57278">
        <ele>1043</ele>
        <time>2020-08-23T06:35:21Z</time>
      </trkpt>
      <trkpt lat="45.12447" lon="5.57277">
        <ele>1043.2</ele>
        <time>2020-08-23T06:35:22Z</time>
      </trkpt>
      <trkpt lat="45.12446" lon="5.57275">
        <ele>1043.4</ele>
        <time>2020-08-23T06:35:23Z</time>
      </trkpt>
      <trkpt lat="45.12445" lon="5.57274">
        <ele>1043.6</ele>
        <time>2020-08-23T06:35:24Z</time>
      </trkpt>
      <trkpt lat="45.12444" lon="5.57273">
        <ele>1043.8</ele>
        <time>2020-08-23T06:35:25Z</time>
      </trkpt>
      <trkpt lat="45.12443" lon="5.57271">
        <ele>1043.8</ele>
        <time>2020-08-23T06:35:26Z</time>
      </trkpt>
      <trkpt lat="45.12442" lon="5.57269">
        <ele>1044</ele>
        <time>2020-08-23T06:35:27Z</time>
      </trkpt>
      <trkpt lat="45.12441" lon="5.57268">
        <ele>1044.2</ele>
        <time>2020-08-23T06:35:28Z</time>
      </trkpt>
      <trkpt lat="45.12439" lon="5.57267">
        <ele>1044.4</ele>
        <time>2020-08-23T06:35:29Z</time>
      </trkpt>
      <trkpt lat="45.12438" lon="5.57266">
        <ele>1044.6</ele>
        <time>2020-08-23T06:35:30Z</time>
      </trkpt>
      <trkpt lat="45.12437" lon="5.57265">
        <ele>1045</ele>
        <time>2020-08-23T06:35:31Z</time>
      </trkpt>
      <trkpt lat="45.12436" lon="5.57264">
        <ele>1045.2</ele>
        <time>2020-08-23T06:35:32Z</time>
      </trkpt>
      <trkpt lat="45.12436" lon="5.57262">
        <ele>1045.2</ele>
        <time>2020-08-23T06:35:33Z</time>
      </trkpt>
      <trkpt lat="45.12434" lon="5.57261">
        <ele>1045.4</ele>
        <time>2020-08-23T06:35:34Z</time>
      </trkpt>
      <trkpt lat="45.12433" lon="5.5726">
        <ele>1045.6</ele>
        <time>2020-08-23T06:35:35Z</time>
      </trkpt>
      <trkpt lat="45.12432" lon="5.57259">
        <ele>1045.8</ele>
        <time>2020-08-23T06:35:36Z</time>
      </trkpt>
      <trkpt lat="45.12431" lon="5.57258">
        <ele>1046</ele>
        <time>2020-08-23T06:35:37Z</time>
      </trkpt>
      <trkpt lat="45.1243" lon="5.57257">
        <ele>1046.2</ele>
        <time>2020-08-23T06:35:38Z</time>
      </trkpt>
      <trkpt lat="45.12429" lon="5.57256">
        <ele>1046.4</ele>
        <time>2020-08-23T06:35:39Z</time>
      </trkpt>
      <trkpt lat="45.12428" lon="5.57255">
        <ele>1046.6</ele>
        <time>2020-08-23T06:35:40Z</time>
      </trkpt>
      <trkpt lat="45.12427" lon="5.57253">
        <ele>1046.8</ele>
        <time>2020-08-23T06:35:41Z</time>
      </trkpt>
      <trkpt lat="45.12426" lon="5.57252">
        <ele>1047</ele>
        <time>2020-08-23T06:35:42Z</time>
      </trkpt>
      <trkpt lat="45.12425" lon="5.57251">
        <ele>1047</ele>
        <time>2020-08-23T06:35:43Z</time>
      </trkpt>
      <trkpt lat="45.12424" lon="5.5725">
        <ele>1047.2</ele>
        <time>2020-08-23T06:35:44Z</time>
      </trkpt>
      <trkpt lat="45.12423" lon="5.57249">
        <ele>1047.4</ele>
        <time>2020-08-23T06:35:45Z</time>
      </trkpt>
      <trkpt lat="45.12421" lon="5.57248">
        <ele>1047.6</ele>
        <time>2020-08-23T06:35:46Z</time>
      </trkpt>
      <trkpt lat="45.1242" lon="5.57248">
        <ele>1047.6</ele>
        <time>2020-08-23T06:35:47Z</time>
      </trkpt>
      <trkpt lat="45.12418" lon="5.57246">
        <ele>1047.8</ele>
        <time>2020-08-23T06:35:48Z</time>
      </trkpt>
      <trkpt lat="45.12418" lon="5.57245">
        <ele>1048</ele>
        <time>2020-08-23T06:35:49Z</time>
      </trkpt>
      <trkpt lat="45.12417" lon="5.57244">
        <ele>1048.2</ele>
        <time>2020-08-23T06:35:50Z</time>
      </trkpt>
      <trkpt lat="45.12415" lon="5.57243">
        <ele>1048.4</ele>
        <time>2020-08-23T06:35:51Z</time>
      </trkpt>
      <trkpt lat="45.12414" lon="5.57242">
        <ele>1048.4</ele>
        <time>2020-08-23T06:35:52Z</time>
      </trkpt>
      <trkpt lat="45.12413" lon="5.57241">
        <ele>1048.6</ele>
        <time>2020-08-23T06:35:53Z</time>
      </trkpt>
      <trkpt lat="45.12412" lon="5.5724">
        <ele>1048.8</ele>
        <time>2020-08-23T06:35:54Z</time>
      </trkpt>
      <trkpt lat="45.12411" lon="5.57239">
        <ele>1049</ele>
        <time>2020-08-23T06:35:55Z</time>
      </trkpt>
      <trkpt lat="45.12409" lon="5.57238">
        <ele>1049</ele>
        <time>2020-08-23T06:35:56Z</time>
      </trkpt>
      <trkpt lat="45.12408" lon="5.57237">
        <ele>1049.2</ele>
        <time>2020-08-23T06:35:57Z</time>
      </trkpt>
      <trkpt lat="45.12407" lon="5.57236">
        <ele>1049.2</ele>
        <time>2020-08-23T06:35:58Z</time>
      </trkpt>
      <trkpt lat="45.12405" lon="5.57235">
        <ele>1049.4</ele>
        <time>2020-08-23T06:35:59Z</time>
      </trkpt>
      <trkpt lat="45.12404" lon="5.57234">
        <ele>1049.4</ele>
        <time>2020-08-23T06:36:00Z</time>
      </trkpt>
      <trkpt lat="45.12403" lon="5.57233">
        <ele>1049.6</ele>
        <time>2020-08-23T06:36:01Z</time>
      </trkpt>
      <trkpt lat="45.12402" lon="5.57232">
        <ele>1049.8</ele>
        <time>2020-08-23T06:36:02Z</time>
      </trkpt>
      <trkpt lat="45.124" lon="5.5723">
        <ele>1049.8</ele>
        <time>2020-08-23T06:36:03Z</time>
      </trkpt>
      <trkpt lat="45.12399" lon="5.57229">
        <ele>1050</ele>
        <time>2020-08-23T06:36:04Z</time>
      </trkpt>
      <trkpt lat="45.12398" lon="5.57228">
        <ele>1050.2</ele>
        <time>2020-08-23T06:36:05Z</time>
      </trkpt>
      <trkpt lat="45.12397" lon="5.57227">
        <ele>1050.2</ele>
        <time>2020-08-23T06:36:06Z</time>
      </trkpt>
      <trkpt lat="45.12396" lon="5.57226">
        <ele>1050.2</ele>
        <time>2020-08-23T06:36:07Z</time>
      </trkpt>
      <trkpt lat="45.12394" lon="5.57224">
        <ele>1050.4</ele>
        <time>2020-08-23T06:36:08Z</time>
      </trkpt>
      <trkpt lat="45.12394" lon="5.57223">
        <ele>1050.4</ele>
        <time>2020-08-23T06:36:09Z</time>
      </trkpt>
      <trkpt lat="45.12392" lon="5.57221">
        <ele>1050.6</ele>
        <time>2020-08-23T06:36:10Z</time>
      </trkpt>
      <trkpt lat="45.12391" lon="5.5722">
        <ele>1050.8</ele>
        <time>2020-08-23T06:36:11Z</time>
      </trkpt>
      <trkpt lat="45.12389" lon="5.57219">
        <ele>1051</ele>
        <time>2020-08-23T06:36:12Z</time>
      </trkpt>
      <trkpt lat="45.12388" lon="5.57217">
        <ele>1051.2</ele>
        <time>2020-08-23T06:36:13Z</time>
      </trkpt>
      <trkpt lat="45.12387" lon="5.57216">
        <ele>1051.6</ele>
        <time>2020-08-23T06:36:14Z</time>
      </trkpt>
      <trkpt lat="45.12386" lon="5.57215">
        <ele>1051.8</ele>
        <time>2020-08-23T06:36:15Z</time>
      </trkpt>
      <trkpt lat="45.12384" lon="5.57213">
        <ele>1052</ele>
        <time>2020-08-23T06:36:16Z</time>
      </trkpt>
      <trkpt lat="45.12383" lon="5.57212">
        <ele>1052.2</ele>
        <time>2020-08-23T06:36:17Z</time>
      </trkpt>
      <trkpt lat="45.12381" lon="5.57211">
        <ele>1052.6</ele>
        <time>2020-08-23T06:36:18Z</time>
      </trkpt>
      <trkpt lat="45.1238" lon="5.57209">
        <ele>1052.8</ele>
        <time>2020-08-23T06:36:19Z</time>
      </trkpt>
      <trkpt lat="45.12379" lon="5.57208">
        <ele>1053.2</ele>
        <time>2020-08-23T06:36:20Z</time>
      </trkpt>
      <trkpt lat="45.12378" lon="5.57207">
        <ele>1053.4</ele>
        <time>2020-08-23T06:36:21Z</time>
      </trkpt>
      <trkpt lat="45.12377" lon="5.57205">
        <ele>1053.6</ele>
        <time>2020-08-23T06:36:22Z</time>
      </trkpt>
      <trkpt lat="45.12376" lon="5.57204">
        <ele>1054</ele>
        <time>2020-08-23T06:36:23Z</time>
      </trkpt>
      <trkpt lat="45.12375" lon="5.57203">
        <ele>1054.2</ele>
        <time>2020-08-23T06:36:24Z</time>
      </trkpt>
      <trkpt lat="45.12373" lon="5.57202">
        <ele>1054.4</ele>
        <time>2020-08-23T06:36:25Z</time>
      </trkpt>
      <trkpt lat="45.12372" lon="5.57201">
        <ele>1054.6</ele>
        <time>2020-08-23T06:36:26Z</time>
      </trkpt>
      <trkpt lat="45.12371" lon="5.572">
        <ele>1055</ele>
        <time>2020-08-23T06:36:27Z</time>
      </trkpt>
      <trkpt lat="45.1237" lon="5.57199">
        <ele>1055.2</ele>
        <time>2020-08-23T06:36:28Z</time>
      </trkpt>
      <trkpt lat="45.12368" lon="5.57198">
        <ele>1055.4</ele>
        <time>2020-08-23T06:36:29Z</time>
      </trkpt>
      <trkpt lat="45.12367" lon="5.57197">
        <ele>1055.6</ele>
        <time>2020-08-23T06:36:30Z</time>
      </trkpt>
      <trkpt lat="45.12366" lon="5.57195">
        <ele>1055.8</ele>
        <time>2020-08-23T06:36:31Z</time>
      </trkpt>
      <trkpt lat="45.12365" lon="5.57194">
        <ele>1056</ele>
        <time>2020-08-23T06:36:32Z</time>
      </trkpt>
      <trkpt lat="45.12363" lon="5.57193">
        <ele>1056.2</ele>
        <time>2020-08-23T06:36:33Z</time>
      </trkpt>
      <trkpt lat="45.12362" lon="5.57191">
        <ele>1056.4</ele>
        <time>2020-08-23T06:36:34Z</time>
      </trkpt>
      <trkpt lat="45.12361" lon="5.5719">
        <ele>1056.6</ele>
        <time>2020-08-23T06:36:35Z</time>
      </trkpt>
      <trkpt lat="45.1236" lon="5.57189">
        <ele>1056.8</ele>
        <time>2020-08-23T06:36:36Z</time>
      </trkpt>
      <trkpt lat="45.12358" lon="5.57188">
        <ele>1057</ele>
        <time>2020-08-23T06:36:37Z</time>
      </trkpt>
      <trkpt lat="45.12357" lon="5.57186">
        <ele>1057.2</ele>
        <time>2020-08-23T06:36:38Z</time>
      </trkpt>
      <trkpt lat="45.12356" lon="5.57185">
        <ele>1057.4</ele>
        <time>2020-08-23T06:36:39Z</time>
      </trkpt>
      <trkpt lat="45.12354" lon="5.57184">
        <ele>1057.4</ele>
        <time>2020-08-23T06:36:40Z</time>
      </trkpt>
      <trkpt lat="45.12353" lon="5.57183">
        <ele>1057.6</ele>
        <time>2020-08-23T06:36:41Z</time>
      </trkpt>
      <trkpt lat="45.12351" lon="5.57182">
        <ele>1057.8</ele>
        <time>2020-08-23T06:36:42Z</time>
      </trkpt>
      <trkpt lat="45.1235" lon="5.57181">
        <ele>1057.8</ele>
        <time>2020-08-23T06:36:43Z</time>
      </trkpt>
      <trkpt lat="45.12349" lon="5.5718">
        <ele>1058</ele>
        <time>2020-08-23T06:36:44Z</time>
      </trkpt>
      <trkpt lat="45.12347" lon="5.57179">
        <ele>1058.2</ele>
        <time>2020-08-23T06:36:45Z</time>
      </trkpt>
      <trkpt lat="45.12345" lon="5.57179">
        <ele>1058.4</ele>
        <time>2020-08-23T06:36:46Z</time>
      </trkpt>
      <trkpt lat="45.12344" lon="5.57178">
        <ele>1058.8</ele>
        <time>2020-08-23T06:36:47Z</time>
      </trkpt>
      <trkpt lat="45.12343" lon="5.57177">
        <ele>1059</ele>
        <time>2020-08-23T06:36:48Z</time>
      </trkpt>
      <trkpt lat="45.12341" lon="5.57176">
        <ele>1059.2</ele>
        <time>2020-08-23T06:36:49Z</time>
      </trkpt>
      <trkpt lat="45.1234" lon="5.57175">
        <ele>1059.4</ele>
        <time>2020-08-23T06:36:50Z</time>
      </trkpt>
      <trkpt lat="45.12339" lon="5.57174">
        <ele>1059.6</ele>
        <time>2020-08-23T06:36:51Z</time>
      </trkpt>
      <trkpt lat="45.12337" lon="5.57174">
        <ele>1059.8</ele>
        <time>2020-08-23T06:36:52Z</time>
      </trkpt>
      <trkpt lat="45.12336" lon="5.57173">
        <ele>1060.2</ele>
        <time>2020-08-23T06:36:53Z</time>
      </trkpt>
      <trkpt lat="45.12334" lon="5.57172">
        <ele>1060.4</ele>
        <time>2020-08-23T06:36:54Z</time>
      </trkpt>
      <trkpt lat="45.12333" lon="5.57171">
        <ele>1060.6</ele>
        <time>2020-08-23T06:36:55Z</time>
      </trkpt>
      <trkpt lat="45.12331" lon="5.5717">
        <ele>1060.8</ele>
        <time>2020-08-23T06:36:56Z</time>
      </trkpt>
      <trkpt lat="45.1233" lon="5.57169">
        <ele>1061.2</ele>
        <time>2020-08-23T06:36:57Z</time>
      </trkpt>
      <trkpt lat="45.12329" lon="5.57167">
        <ele>1061.4</ele>
        <time>2020-08-23T06:36:58Z</time>
      </trkpt>
      <trkpt lat="45.12327" lon="5.57166">
        <ele>1061.8</ele>
        <time>2020-08-23T06:36:59Z</time>
      </trkpt>
      <trkpt lat="45.12325" lon="5.57165">
        <ele>1062</ele>
        <time>2020-08-23T06:37:00Z</time>
      </trkpt>
      <trkpt lat="45.12324" lon="5.57164">
        <ele>1062.4</ele>
        <time>2020-08-23T06:37:01Z</time>
      </trkpt>
      <trkpt lat="45.12322" lon="5.57163">
        <ele>1062.6</ele>
        <time>2020-08-23T06:37:02Z</time>
      </trkpt>
      <trkpt lat="45.12321" lon="5.57162">
        <ele>1062.8</ele>
        <time>2020-08-23T06:37:03Z</time>
      </trkpt>
      <trkpt lat="45.1232" lon="5.57161">
        <ele>1063.2</ele>
        <time>2020-08-23T06:37:04Z</time>
      </trkpt>
      <trkpt lat="45.12318" lon="5.5716">
        <ele>1063.6</ele>
        <time>2020-08-23T06:37:05Z</time>
      </trkpt>
      <trkpt lat="45.12317" lon="5.5716">
        <ele>1063.8</ele>
        <time>2020-08-23T06:37:06Z</time>
      </trkpt>
      <trkpt lat="45.12315" lon="5.57159">
        <ele>1064.2</ele>
        <time>2020-08-23T06:37:07Z</time>
      </trkpt>
      <trkpt lat="45.12314" lon="5.57158">
        <ele>1064.4</ele>
        <time>2020-08-23T06:37:08Z</time>
      </trkpt>
      <trkpt lat="45.12313" lon="5.57157">
        <ele>1064.8</ele>
        <time>2020-08-23T06:37:09Z</time>
      </trkpt>
      <trkpt lat="45.12312" lon="5.57156">
        <ele>1065</ele>
        <time>2020-08-23T06:37:10Z</time>
      </trkpt>
      <trkpt lat="45.1231" lon="5.57155">
        <ele>1065.4</ele>
        <time>2020-08-23T06:37:11Z</time>
      </trkpt>
      <trkpt lat="45.12309" lon="5.57154">
        <ele>1065.6</ele>
        <time>2020-08-23T06:37:12Z</time>
      </trkpt>
      <trkpt lat="45.12308" lon="5.57152">
        <ele>1066</ele>
        <time>2020-08-23T06:37:13Z</time>
      </trkpt>
      <trkpt lat="45.12307" lon="5.5715">
        <ele>1066.2</ele>
        <time>2020-08-23T06:37:14Z</time>
      </trkpt>
      <trkpt lat="45.12305" lon="5.57149">
        <ele>1066.6</ele>
        <time>2020-08-23T06:37:15Z</time>
      </trkpt>
      <trkpt lat="45.12304" lon="5.57148">
        <ele>1066.8</ele>
        <time>2020-08-23T06:37:16Z</time>
      </trkpt>
      <trkpt lat="45.12302" lon="5.57147">
        <ele>1067</ele>
        <time>2020-08-23T06:37:17Z</time>
      </trkpt>
      <trkpt lat="45.12301" lon="5.57146">
        <ele>1067.4</ele>
        <time>2020-08-23T06:37:18Z</time>
      </trkpt>
      <trkpt lat="45.12299" lon="5.57145">
        <ele>1067.6</ele>
        <time>2020-08-23T06:37:19Z</time>
      </trkpt>
      <trkpt lat="45.12298" lon="5.57144">
        <ele>1067.8</ele>
        <time>2020-08-23T06:37:20Z</time>
      </trkpt>
      <trkpt lat="45.12297" lon="5.57143">
        <ele>1068.2</ele>
        <time>2020-08-23T06:37:21Z</time>
      </trkpt>
      <trkpt lat="45.12296" lon="5.57141">
        <ele>1068.4</ele>
        <time>2020-08-23T06:37:22Z</time>
      </trkpt>
      <trkpt lat="45.12294" lon="5.5714">
        <ele>1068.6</ele>
        <time>2020-08-23T06:37:23Z</time>
      </trkpt>
      <trkpt lat="45.12293" lon="5.57139">
        <ele>1068.8</ele>
        <time>2020-08-23T06:37:24Z</time>
      </trkpt>
      <trkpt lat="45.12291" lon="5.57138">
        <ele>1069.2</ele>
        <time>2020-08-23T06:37:25Z</time>
      </trkpt>
      <trkpt lat="45.1229" lon="5.57137">
        <ele>1069.4</ele>
        <time>2020-08-23T06:37:26Z</time>
      </trkpt>
      <trkpt lat="45.12289" lon="5.57136">
        <ele>1069.8</ele>
        <time>2020-08-23T06:37:27Z</time>
      </trkpt>
      <trkpt lat="45.12288" lon="5.57135">
        <ele>1070</ele>
        <time>2020-08-23T06:37:28Z</time>
      </trkpt>
      <trkpt lat="45.12287" lon="5.57134">
        <ele>1070.2</ele>
        <time>2020-08-23T06:37:29Z</time>
      </trkpt>
      <trkpt lat="45.12286" lon="5.57133">
        <ele>1070.6</ele>
        <time>2020-08-23T06:37:30Z</time>
      </trkpt>
      <trkpt lat="45.12285" lon="5.57133">
        <ele>1070.8</ele>
        <time>2020-08-23T06:37:31Z</time>
      </trkpt>
      <trkpt lat="45.12284" lon="5.57132">
        <ele>1071</ele>
        <time>2020-08-23T06:37:32Z</time>
      </trkpt>
      <trkpt lat="45.12283" lon="5.5713">
        <ele>1071.4</ele>
        <time>2020-08-23T06:37:33Z</time>
      </trkpt>
      <trkpt lat="45.12282" lon="5.57129">
        <ele>1071.6</ele>
        <time>2020-08-23T06:37:34Z</time>
      </trkpt>
      <trkpt lat="45.12281" lon="5.57128">
        <ele>1071.8</ele>
        <time>2020-08-23T06:37:35Z</time>
      </trkpt>
      <trkpt lat="45.1228" lon="5.57127">
        <ele>1072</ele>
        <time>2020-08-23T06:37:36Z</time>
      </trkpt>
      <trkpt lat="45.12278" lon="5.57125">
        <ele>1072.2</ele>
        <time>2020-08-23T06:37:37Z</time>
      </trkpt>
      <trkpt lat="45.12277" lon="5.57124">
        <ele>1072.4</ele>
        <time>2020-08-23T06:37:38Z</time>
      </trkpt>
      <trkpt lat="45.12276" lon="5.57124">
        <ele>1072.8</ele>
        <time>2020-08-23T06:37:39Z</time>
      </trkpt>
      <trkpt lat="45.12275" lon="5.57123">
        <ele>1073</ele>
        <time>2020-08-23T06:37:40Z</time>
      </trkpt>
      <trkpt lat="45.12274" lon="5.57122">
        <ele>1073.2</ele>
        <time>2020-08-23T06:37:41Z</time>
      </trkpt>
      <trkpt lat="45.12272" lon="5.57121">
        <ele>1073.4</ele>
        <time>2020-08-23T06:37:42Z</time>
      </trkpt>
      <trkpt lat="45.12271" lon="5.5712">
        <ele>1073.6</ele>
        <time>2020-08-23T06:37:43Z</time>
      </trkpt>
      <trkpt lat="45.1227" lon="5.57119">
        <ele>1073.8</ele>
        <time>2020-08-23T06:37:44Z</time>
      </trkpt>
      <trkpt lat="45.12268" lon="5.57118">
        <ele>1074</ele>
        <time>2020-08-23T06:37:45Z</time>
      </trkpt>
      <trkpt lat="45.12267" lon="5.57117">
        <ele>1074.4</ele>
        <time>2020-08-23T06:37:46Z</time>
      </trkpt>
      <trkpt lat="45.12265" lon="5.57116">
        <ele>1074.6</ele>
        <time>2020-08-23T06:37:47Z</time>
      </trkpt>
      <trkpt lat="45.12264" lon="5.57115">
        <ele>1074.8</ele>
        <time>2020-08-23T06:37:48Z</time>
      </trkpt>
      <trkpt lat="45.12263" lon="5.57114">
        <ele>1075</ele>
        <time>2020-08-23T06:37:49Z</time>
      </trkpt>
      <trkpt lat="45.12261" lon="5.57113">
        <ele>1075.2</ele>
        <time>2020-08-23T06:37:50Z</time>
      </trkpt>
      <trkpt lat="45.1226" lon="5.57113">
        <ele>1075.4</ele>
        <time>2020-08-23T06:37:51Z</time>
      </trkpt>
      <trkpt lat="45.12259" lon="5.57112">
        <ele>1075.6</ele>
        <time>2020-08-23T06:37:52Z</time>
      </trkpt>
      <trkpt lat="45.12258" lon="5.57111">
        <ele>1076</ele>
        <time>2020-08-23T06:37:53Z</time>
      </trkpt>
      <trkpt lat="45.12257" lon="5.5711">
        <ele>1076.2</ele>
        <time>2020-08-23T06:37:54Z</time>
      </trkpt>
      <trkpt lat="45.12255" lon="5.57109">
        <ele>1076.4</ele>
        <time>2020-08-23T06:37:55Z</time>
      </trkpt>
      <trkpt lat="45.12254" lon="5.57108">
        <ele>1076.6</ele>
        <time>2020-08-23T06:37:56Z</time>
      </trkpt>
      <trkpt lat="45.12252" lon="5.57107">
        <ele>1076.8</ele>
        <time>2020-08-23T06:37:57Z</time>
      </trkpt>
      <trkpt lat="45.12251" lon="5.57106">
        <ele>1077</ele>
        <time>2020-08-23T06:37:58Z</time>
      </trkpt>
      <trkpt lat="45.12249" lon="5.57105">
        <ele>1077.2</ele>
        <time>2020-08-23T06:37:59Z</time>
      </trkpt>
      <trkpt lat="45.12248" lon="5.57105">
        <ele>1077.4</ele>
        <time>2020-08-23T06:38:00Z</time>
      </trkpt>
      <trkpt lat="45.12247" lon="5.57104">
        <ele>1077.6</ele>
        <time>2020-08-23T06:38:01Z</time>
      </trkpt>
      <trkpt lat="45.12246" lon="5.57104">
        <ele>1077.8</ele>
        <time>2020-08-23T06:38:02Z</time>
      </trkpt>
      <trkpt lat="45.12245" lon="5.57103">
        <ele>1078</ele>
        <time>2020-08-23T06:38:03Z</time>
      </trkpt>
      <trkpt lat="45.12244" lon="5.57102">
        <ele>1078.2</ele>
        <time>2020-08-23T06:38:04Z</time>
      </trkpt>
      <trkpt lat="45.12243" lon="5.571">
        <ele>1078.4</ele>
        <time>2020-08-23T06:38:05Z</time>
      </trkpt>
      <trkpt lat="45.12242" lon="5.57099">
        <ele>1078.6</ele>
        <time>2020-08-23T06:38:06Z</time>
      </trkpt>
      <trkpt lat="45.12241" lon="5.57097">
        <ele>1078.8</ele>
        <time>2020-08-23T06:38:07Z</time>
      </trkpt>
      <trkpt lat="45.1224" lon="5.57096">
        <ele>1079</ele>
        <time>2020-08-23T06:38:08Z</time>
      </trkpt>
      <trkpt lat="45.12239" lon="5.57095">
        <ele>1079.2</ele>
        <time>2020-08-23T06:38:09Z</time>
      </trkpt>
      <trkpt lat="45.12238" lon="5.57094">
        <ele>1079.4</ele>
        <time>2020-08-23T06:38:10Z</time>
      </trkpt>
      <trkpt lat="45.12236" lon="5.57093">
        <ele>1079.6</ele>
        <time>2020-08-23T06:38:11Z</time>
      </trkpt>
      <trkpt lat="45.12234" lon="5.57092">
        <ele>1079.8</ele>
        <time>2020-08-23T06:38:12Z</time>
      </trkpt>
      <trkpt lat="45.12233" lon="5.57091">
        <ele>1080</ele>
        <time>2020-08-23T06:38:13Z</time>
      </trkpt>
      <trkpt lat="45.12232" lon="5.5709">
        <ele>1080.2</ele>
        <time>2020-08-23T06:38:14Z</time>
      </trkpt>
      <trkpt lat="45.12231" lon="5.57089">
        <ele>1080.4</ele>
        <time>2020-08-23T06:38:15Z</time>
      </trkpt>
      <trkpt lat="45.1223" lon="5.57088">
        <ele>1080.6</ele>
        <time>2020-08-23T06:38:16Z</time>
      </trkpt>
      <trkpt lat="45.12228" lon="5.57088">
        <ele>1080.8</ele>
        <time>2020-08-23T06:38:17Z</time>
      </trkpt>
      <trkpt lat="45.12227" lon="5.57087">
        <ele>1081</ele>
        <time>2020-08-23T06:38:18Z</time>
      </trkpt>
      <trkpt lat="45.12225" lon="5.57087">
        <ele>1081.2</ele>
        <time>2020-08-23T06:38:19Z</time>
      </trkpt>
      <trkpt lat="45.12224" lon="5.57086">
        <ele>1081.4</ele>
        <time>2020-08-23T06:38:20Z</time>
      </trkpt>
      <trkpt lat="45.12223" lon="5.57086">
        <ele>1081.6</ele>
        <time>2020-08-23T06:38:21Z</time>
      </trkpt>
      <trkpt lat="45.12222" lon="5.57086">
        <ele>1082</ele>
        <time>2020-08-23T06:38:22Z</time>
      </trkpt>
      <trkpt lat="45.1222" lon="5.57086">
        <ele>1082</ele>
        <time>2020-08-23T06:38:23Z</time>
      </trkpt>
      <trkpt lat="45.12219" lon="5.57085">
        <ele>1082.2</ele>
        <time>2020-08-23T06:38:24Z</time>
      </trkpt>
      <trkpt lat="45.12217" lon="5.57085">
        <ele>1082.4</ele>
        <time>2020-08-23T06:38:25Z</time>
      </trkpt>
      <trkpt lat="45.12215" lon="5.57085">
        <ele>1082.4</ele>
        <time>2020-08-23T06:38:26Z</time>
      </trkpt>
      <trkpt lat="45.12214" lon="5.57084">
        <ele>1082.6</ele>
        <time>2020-08-23T06:38:27Z</time>
      </trkpt>
      <trkpt lat="45.12212" lon="5.57084">
        <ele>1082.8</ele>
        <time>2020-08-23T06:38:28Z</time>
      </trkpt>
      <trkpt lat="45.12211" lon="5.57084">
        <ele>1082.8</ele>
        <time>2020-08-23T06:38:29Z</time>
      </trkpt>
      <trkpt lat="45.12209" lon="5.57083">
        <ele>1083</ele>
        <time>2020-08-23T06:38:30Z</time>
      </trkpt>
      <trkpt lat="45.12208" lon="5.57082">
        <ele>1083.2</ele>
        <time>2020-08-23T06:38:31Z</time>
      </trkpt>
      <trkpt lat="45.12207" lon="5.57081">
        <ele>1083.2</ele>
        <time>2020-08-23T06:38:32Z</time>
      </trkpt>
      <trkpt lat="45.12205" lon="5.5708">
        <ele>1083.4</ele>
        <time>2020-08-23T06:38:33Z</time>
      </trkpt>
      <trkpt lat="45.12204" lon="5.57079">
        <ele>1083.6</ele>
        <time>2020-08-23T06:38:34Z</time>
      </trkpt>
      <trkpt lat="45.12202" lon="5.57079">
        <ele>1083.8</ele>
        <time>2020-08-23T06:38:35Z</time>
      </trkpt>
      <trkpt lat="45.12201" lon="5.57078">
        <ele>1084</ele>
        <time>2020-08-23T06:38:36Z</time>
      </trkpt>
      <trkpt lat="45.12199" lon="5.57077">
        <ele>1084.2</ele>
        <time>2020-08-23T06:38:37Z</time>
      </trkpt>
      <trkpt lat="45.12198" lon="5.57076">
        <ele>1084.2</ele>
        <time>2020-08-23T06:38:38Z</time>
      </trkpt>
      <trkpt lat="45.12196" lon="5.57075">
        <ele>1084.4</ele>
        <time>2020-08-23T06:38:39Z</time>
      </trkpt>
      <trkpt lat="45.12195" lon="5.57074">
        <ele>1084.6</ele>
        <time>2020-08-23T06:38:40Z</time>
      </trkpt>
      <trkpt lat="45.12194" lon="5.57073">
        <ele>1084.6</ele>
        <time>2020-08-23T06:38:41Z</time>
      </trkpt>
      <trkpt lat="45.12193" lon="5.57071">
        <ele>1084.8</ele>
        <time>2020-08-23T06:38:42Z</time>
      </trkpt>
      <trkpt lat="45.12191" lon="5.57071">
        <ele>1084.8</ele>
        <time>2020-08-23T06:38:43Z</time>
      </trkpt>
      <trkpt lat="45.1219" lon="5.5707">
        <ele>1085</ele>
        <time>2020-08-23T06:38:44Z</time>
      </trkpt>
      <trkpt lat="45.12188" lon="5.5707">
        <ele>1085</ele>
        <time>2020-08-23T06:38:45Z</time>
      </trkpt>
      <trkpt lat="45.12186" lon="5.57069">
        <ele>1085.2</ele>
        <time>2020-08-23T06:38:46Z</time>
      </trkpt>
      <trkpt lat="45.12185" lon="5.57068">
        <ele>1085.4</ele>
        <time>2020-08-23T06:38:47Z</time>
      </trkpt>
      <trkpt lat="45.12183" lon="5.57067">
        <ele>1085.4</ele>
        <time>2020-08-23T06:38:48Z</time>
      </trkpt>
      <trkpt lat="45.12182" lon="5.57067">
        <ele>1085.6</ele>
        <time>2020-08-23T06:38:49Z</time>
      </trkpt>
      <trkpt lat="45.1218" lon="5.57066">
        <ele>1085.6</ele>
        <time>2020-08-23T06:38:50Z</time>
      </trkpt>
      <trkpt lat="45.12178" lon="5.57065">
        <ele>1085.6</ele>
        <time>2020-08-23T06:38:51Z</time>
      </trkpt>
      <trkpt lat="45.12177" lon="5.57064">
        <ele>1085.8</ele>
        <time>2020-08-23T06:38:52Z</time>
      </trkpt>
      <trkpt lat="45.12175" lon="5.57063">
        <ele>1085.8</ele>
        <time>2020-08-23T06:38:53Z</time>
      </trkpt>
      <trkpt lat="45.12174" lon="5.57062">
        <ele>1086</ele>
        <time>2020-08-23T06:38:54Z</time>
      </trkpt>
      <trkpt lat="45.12172" lon="5.57061">
        <ele>1086</ele>
        <time>2020-08-23T06:38:55Z</time>
      </trkpt>
      <trkpt lat="45.12171" lon="5.5706">
        <ele>1086.2</ele>
        <time>2020-08-23T06:38:56Z</time>
      </trkpt>
      <trkpt lat="45.12169" lon="5.5706">
        <ele>1086.2</ele>
        <time>2020-08-23T06:38:57Z</time>
      </trkpt>
      <trkpt lat="45.12168" lon="5.57059">
        <ele>1086.4</ele>
        <time>2020-08-23T06:38:58Z</time>
      </trkpt>
      <trkpt lat="45.12167" lon="5.57058">
        <ele>1086.4</ele>
        <time>2020-08-23T06:38:59Z</time>
      </trkpt>
      <trkpt lat="45.12166" lon="5.57057">
        <ele>1086.6</ele>
        <time>2020-08-23T06:39:00Z</time>
      </trkpt>
      <trkpt lat="45.12164" lon="5.57057">
        <ele>1086.6</ele>
        <time>2020-08-23T06:39:01Z</time>
      </trkpt>
      <trkpt lat="45.12163" lon="5.57056">
        <ele>1086.8</ele>
        <time>2020-08-23T06:39:02Z</time>
      </trkpt>
      <trkpt lat="45.12161" lon="5.57056">
        <ele>1086.8</ele>
        <time>2020-08-23T06:39:03Z</time>
      </trkpt>
      <trkpt lat="45.1216" lon="5.57055">
        <ele>1087</ele>
        <time>2020-08-23T06:39:04Z</time>
      </trkpt>
      <trkpt lat="45.12159" lon="5.57055">
        <ele>1087</ele>
        <time>2020-08-23T06:39:05Z</time>
      </trkpt>
      <trkpt lat="45.12157" lon="5.57054">
        <ele>1087.2</ele>
        <time>2020-08-23T06:39:06Z</time>
      </trkpt>
      <trkpt lat="45.12156" lon="5.57053">
        <ele>1087.4</ele>
        <time>2020-08-23T06:39:07Z</time>
      </trkpt>
      <trkpt lat="45.12154" lon="5.57052">
        <ele>1087.4</ele>
        <time>2020-08-23T06:39:08Z</time>
      </trkpt>
      <trkpt lat="45.12152" lon="5.57052">
        <ele>1087.6</ele>
        <time>2020-08-23T06:39:09Z</time>
      </trkpt>
      <trkpt lat="45.1215" lon="5.57051">
        <ele>1087.6</ele>
        <time>2020-08-23T06:39:10Z</time>
      </trkpt>
      <trkpt lat="45.12148" lon="5.5705">
        <ele>1087.6</ele>
        <time>2020-08-23T06:39:11Z</time>
      </trkpt>
      <trkpt lat="45.12147" lon="5.57049">
        <ele>1087.6</ele>
        <time>2020-08-23T06:39:12Z</time>
      </trkpt>
      <trkpt lat="45.12145" lon="5.57049">
        <ele>1087.8</ele>
        <time>2020-08-23T06:39:13Z</time>
      </trkpt>
      <trkpt lat="45.12143" lon="5.57048">
        <ele>1087.8</ele>
        <time>2020-08-23T06:39:14Z</time>
      </trkpt>
      <trkpt lat="45.12142" lon="5.57048">
        <ele>1088</ele>
        <time>2020-08-23T06:39:15Z</time>
      </trkpt>
      <trkpt lat="45.1214" lon="5.57047">
        <ele>1088</ele>
        <time>2020-08-23T06:39:16Z</time>
      </trkpt>
      <trkpt lat="45.12138" lon="5.57047">
        <ele>1088</ele>
        <time>2020-08-23T06:39:17Z</time>
      </trkpt>
      <trkpt lat="45.12137" lon="5.57046">
        <ele>1088.2</ele>
        <time>2020-08-23T06:39:18Z</time>
      </trkpt>
      <trkpt lat="45.12135" lon="5.57045">
        <ele>1088.2</ele>
        <time>2020-08-23T06:39:19Z</time>
      </trkpt>
      <trkpt lat="45.12133" lon="5.57044">
        <ele>1088.4</ele>
        <time>2020-08-23T06:39:20Z</time>
      </trkpt>
      <trkpt lat="45.12132" lon="5.57043">
        <ele>1088.4</ele>
        <time>2020-08-23T06:39:21Z</time>
      </trkpt>
      <trkpt lat="45.1213" lon="5.57043">
        <ele>1088.4</ele>
        <time>2020-08-23T06:39:22Z</time>
      </trkpt>
      <trkpt lat="45.12128" lon="5.57042">
        <ele>1088.6</ele>
        <time>2020-08-23T06:39:23Z</time>
      </trkpt>
      <trkpt lat="45.12127" lon="5.57042">
        <ele>1088.6</ele>
        <time>2020-08-23T06:39:24Z</time>
      </trkpt>
      <trkpt lat="45.12126" lon="5.57041">
        <ele>1088.6</ele>
        <time>2020-08-23T06:39:25Z</time>
      </trkpt>
      <trkpt lat="45.12124" lon="5.5704">
        <ele>1088.8</ele>
        <time>2020-08-23T06:39:26Z</time>
      </trkpt>
      <trkpt lat="45.12123" lon="5.5704">
        <ele>1088.8</ele>
        <time>2020-08-23T06:39:27Z</time>
      </trkpt>
      <trkpt lat="45.12121" lon="5.57039">
        <ele>1089</ele>
        <time>2020-08-23T06:39:28Z</time>
      </trkpt>
      <trkpt lat="45.1212" lon="5.57038">
        <ele>1089</ele>
        <time>2020-08-23T06:39:29Z</time>
      </trkpt>
      <trkpt lat="45.12119" lon="5.57037">
        <ele>1089</ele>
        <time>2020-08-23T06:39:30Z</time>
      </trkpt>
      <trkpt lat="45.12117" lon="5.57035">
        <ele>1089</ele>
        <time>2020-08-23T06:39:31Z</time>
      </trkpt>
      <trkpt lat="45.12115" lon="5.57034">
        <ele>1089</ele>
        <time>2020-08-23T06:39:32Z</time>
      </trkpt>
      <trkpt lat="45.12113" lon="5.57033">
        <ele>1089</ele>
        <time>2020-08-23T06:39:33Z</time>
      </trkpt>
      <trkpt lat="45.12112" lon="5.57032">
        <ele>1089.2</ele>
        <time>2020-08-23T06:39:34Z</time>
      </trkpt>
      <trkpt lat="45.1211" lon="5.57031">
        <ele>1089.4</ele>
        <time>2020-08-23T06:39:35Z</time>
      </trkpt>
      <trkpt lat="45.12109" lon="5.5703">
        <ele>1089.4</ele>
        <time>2020-08-23T06:39:36Z</time>
      </trkpt>
      <trkpt lat="45.12107" lon="5.57029">
        <ele>1089.6</ele>
        <time>2020-08-23T06:39:37Z</time>
      </trkpt>
      <trkpt lat="45.12105" lon="5.57029">
        <ele>1089.8</ele>
        <time>2020-08-23T06:39:38Z</time>
      </trkpt>
      <trkpt lat="45.12103" lon="5.57028">
        <ele>1089.8</ele>
        <time>2020-08-23T06:39:39Z</time>
      </trkpt>
      <trkpt lat="45.12102" lon="5.57027">
        <ele>1090</ele>
        <time>2020-08-23T06:39:40Z</time>
      </trkpt>
      <trkpt lat="45.121" lon="5.57026">
        <ele>1090.2</ele>
        <time>2020-08-23T06:39:41Z</time>
      </trkpt>
      <trkpt lat="45.12098" lon="5.57025">
        <ele>1090.4</ele>
        <time>2020-08-23T06:39:42Z</time>
      </trkpt>
      <trkpt lat="45.12097" lon="5.57024">
        <ele>1090.6</ele>
        <time>2020-08-23T06:39:43Z</time>
      </trkpt>
      <trkpt lat="45.12096" lon="5.57023">
        <ele>1090.8</ele>
        <time>2020-08-23T06:39:44Z</time>
      </trkpt>
      <trkpt lat="45.12094" lon="5.57022">
        <ele>1091</ele>
        <time>2020-08-23T06:39:45Z</time>
      </trkpt>
      <trkpt lat="45.12092" lon="5.57021">
        <ele>1091</ele>
        <time>2020-08-23T06:39:46Z</time>
      </trkpt>
      <trkpt lat="45.1209" lon="5.5702">
        <ele>1091.4</ele>
        <time>2020-08-23T06:39:47Z</time>
      </trkpt>
      <trkpt lat="45.12088" lon="5.57019">
        <ele>1091.6</ele>
        <time>2020-08-23T06:39:48Z</time>
      </trkpt>
      <trkpt lat="45.12087" lon="5.57018">
        <ele>1091.6</ele>
        <time>2020-08-23T06:39:49Z</time>
      </trkpt>
      <trkpt lat="45.12085" lon="5.57017">
        <ele>1091.8</ele>
        <time>2020-08-23T06:39:50Z</time>
      </trkpt>
      <trkpt lat="45.12083" lon="5.57016">
        <ele>1092</ele>
        <time>2020-08-23T06:39:51Z</time>
      </trkpt>
      <trkpt lat="45.12082" lon="5.57015">
        <ele>1092.2</ele>
        <time>2020-08-23T06:39:52Z</time>
      </trkpt>
      <trkpt lat="45.1208" lon="5.57014">
        <ele>1092.4</ele>
        <time>2020-08-23T06:39:53Z</time>
      </trkpt>
      <trkpt lat="45.12079" lon="5.57013">
        <ele>1092.6</ele>
        <time>2020-08-23T06:39:54Z</time>
      </trkpt>
      <trkpt lat="45.12077" lon="5.57012">
        <ele>1092.8</ele>
        <time>2020-08-23T06:39:55Z</time>
      </trkpt>
      <trkpt lat="45.12075" lon="5.57011">
        <ele>1093</ele>
        <time>2020-08-23T06:39:56Z</time>
      </trkpt>
      <trkpt lat="45.12074" lon="5.57009">
        <ele>1093.2</ele>
        <time>2020-08-23T06:39:57Z</time>
      </trkpt>
      <trkpt lat="45.12073" lon="5.57008">
        <ele>1093.4</ele>
        <time>2020-08-23T06:39:58Z</time>
      </trkpt>
      <trkpt lat="45.12072" lon="5.57007">
        <ele>1093.6</ele>
        <time>2020-08-23T06:39:59Z</time>
      </trkpt>
      <trkpt lat="45.12071" lon="5.57006">
        <ele>1093.8</ele>
        <time>2020-08-23T06:40:00Z</time>
      </trkpt>
      <trkpt lat="45.12069" lon="5.57005">
        <ele>1093.8</ele>
        <time>2020-08-23T06:40:01Z</time>
      </trkpt>
      <trkpt lat="45.12067" lon="5.57003">
        <ele>1094</ele>
        <time>2020-08-23T06:40:02Z</time>
      </trkpt>
      <trkpt lat="45.12066" lon="5.57002">
        <ele>1094.2</ele>
        <time>2020-08-23T06:40:03Z</time>
      </trkpt>
      <trkpt lat="45.12065" lon="5.57001">
        <ele>1094.2</ele>
        <time>2020-08-23T06:40:04Z</time>
      </trkpt>
      <trkpt lat="45.12064" lon="5.56999">
        <ele>1094.4</ele>
        <time>2020-08-23T06:40:05Z</time>
      </trkpt>
      <trkpt lat="45.12063" lon="5.56998">
        <ele>1094.6</ele>
        <time>2020-08-23T06:40:06Z</time>
      </trkpt>
      <trkpt lat="45.12062" lon="5.56996">
        <ele>1094.8</ele>
        <time>2020-08-23T06:40:07Z</time>
      </trkpt>
      <trkpt lat="45.12061" lon="5.56995">
        <ele>1095</ele>
        <time>2020-08-23T06:40:08Z</time>
      </trkpt>
      <trkpt lat="45.12059" lon="5.56994">
        <ele>1095.2</ele>
        <time>2020-08-23T06:40:09Z</time>
      </trkpt>
      <trkpt lat="45.12058" lon="5.56992">
        <ele>1095.2</ele>
        <time>2020-08-23T06:40:10Z</time>
      </trkpt>
      <trkpt lat="45.12057" lon="5.56991">
        <ele>1095.4</ele>
        <time>2020-08-23T06:40:11Z</time>
      </trkpt>
      <trkpt lat="45.12055" lon="5.56989">
        <ele>1095.6</ele>
        <time>2020-08-23T06:40:12Z</time>
      </trkpt>
      <trkpt lat="45.12054" lon="5.56988">
        <ele>1095.8</ele>
        <time>2020-08-23T06:40:13Z</time>
      </trkpt>
      <trkpt lat="45.12053" lon="5.56987">
        <ele>1096</ele>
        <time>2020-08-23T06:40:14Z</time>
      </trkpt>
      <trkpt lat="45.12052" lon="5.56985">
        <ele>1096</ele>
        <time>2020-08-23T06:40:15Z</time>
      </trkpt>
      <trkpt lat="45.12051" lon="5.56984">
        <ele>1096.2</ele>
        <time>2020-08-23T06:40:16Z</time>
      </trkpt>
      <trkpt lat="45.12049" lon="5.56983">
        <ele>1096.2</ele>
        <time>2020-08-23T06:40:17Z</time>
      </trkpt>
      <trkpt lat="45.12048" lon="5.56981">
        <ele>1096.4</ele>
        <time>2020-08-23T06:40:18Z</time>
      </trkpt>
      <trkpt lat="45.12046" lon="5.5698">
        <ele>1096.6</ele>
        <time>2020-08-23T06:40:19Z</time>
      </trkpt>
      <trkpt lat="45.12045" lon="5.56979">
        <ele>1096.6</ele>
        <time>2020-08-23T06:40:20Z</time>
      </trkpt>
      <trkpt lat="45.12043" lon="5.56978">
        <ele>1096.8</ele>
        <time>2020-08-23T06:40:21Z</time>
      </trkpt>
      <trkpt lat="45.12042" lon="5.56976">
        <ele>1097</ele>
        <time>2020-08-23T06:40:22Z</time>
      </trkpt>
      <trkpt lat="45.12041" lon="5.56975">
        <ele>1097.2</ele>
        <time>2020-08-23T06:40:23Z</time>
      </trkpt>
      <trkpt lat="45.1204" lon="5.56973">
        <ele>1097.2</ele>
        <time>2020-08-23T06:40:24Z</time>
      </trkpt>
      <trkpt lat="45.12039" lon="5.56972">
        <ele>1097.4</ele>
        <time>2020-08-23T06:40:25Z</time>
      </trkpt>
      <trkpt lat="45.12037" lon="5.56971">
        <ele>1097.6</ele>
        <time>2020-08-23T06:40:26Z</time>
      </trkpt>
      <trkpt lat="45.12036" lon="5.56969">
        <ele>1097.8</ele>
        <time>2020-08-23T06:40:27Z</time>
      </trkpt>
      <trkpt lat="45.12035" lon="5.56968">
        <ele>1098</ele>
        <time>2020-08-23T06:40:28Z</time>
      </trkpt>
      <trkpt lat="45.12034" lon="5.56967">
        <ele>1098.2</ele>
        <time>2020-08-23T06:40:29Z</time>
      </trkpt>
      <trkpt lat="45.12032" lon="5.56965">
        <ele>1098.2</ele>
        <time>2020-08-23T06:40:30Z</time>
      </trkpt>
      <trkpt lat="45.12031" lon="5.56964">
        <ele>1098.4</ele>
        <time>2020-08-23T06:40:31Z</time>
      </trkpt>
      <trkpt lat="45.12029" lon="5.56963">
        <ele>1098.6</ele>
        <time>2020-08-23T06:40:32Z</time>
      </trkpt>
      <trkpt lat="45.12027" lon="5.56962">
        <ele>1098.8</ele>
        <time>2020-08-23T06:40:33Z</time>
      </trkpt>
      <trkpt lat="45.12026" lon="5.56961">
        <ele>1099</ele>
        <time>2020-08-23T06:40:34Z</time>
      </trkpt>
      <trkpt lat="45.12024" lon="5.5696">
        <ele>1099.2</ele>
        <time>2020-08-23T06:40:35Z</time>
      </trkpt>
      <trkpt lat="45.12023" lon="5.56959">
        <ele>1099.4</ele>
        <time>2020-08-23T06:40:36Z</time>
      </trkpt>
      <trkpt lat="45.12021" lon="5.56958">
        <ele>1099.6</ele>
        <time>2020-08-23T06:40:37Z</time>
      </trkpt>
      <trkpt lat="45.1202" lon="5.56957">
        <ele>1099.6</ele>
        <time>2020-08-23T06:40:38Z</time>
      </trkpt>
      <trkpt lat="45.12019" lon="5.56956">
        <ele>1099.8</ele>
        <time>2020-08-23T06:40:39Z</time>
      </trkpt>
      <trkpt lat="45.12017" lon="5.56955">
        <ele>1100</ele>
        <time>2020-08-23T06:40:40Z</time>
      </trkpt>
      <trkpt lat="45.12016" lon="5.56954">
        <ele>1100.2</ele>
        <time>2020-08-23T06:40:41Z</time>
      </trkpt>
      <trkpt lat="45.12014" lon="5.56953">
        <ele>1100.4</ele>
        <time>2020-08-23T06:40:42Z</time>
      </trkpt>
      <trkpt lat="45.12012" lon="5.56952">
        <ele>1100.4</ele>
        <time>2020-08-23T06:40:43Z</time>
      </trkpt>
      <trkpt lat="45.1201" lon="5.56951">
        <ele>1100.6</ele>
        <time>2020-08-23T06:40:44Z</time>
      </trkpt>
      <trkpt lat="45.12009" lon="5.5695">
        <ele>1100.6</ele>
        <time>2020-08-23T06:40:45Z</time>
      </trkpt>
      <trkpt lat="45.12007" lon="5.56949">
        <ele>1100.8</ele>
        <time>2020-08-23T06:40:46Z</time>
      </trkpt>
      <trkpt lat="45.12005" lon="5.56948">
        <ele>1100.8</ele>
        <time>2020-08-23T06:40:47Z</time>
      </trkpt>
      <trkpt lat="45.12004" lon="5.56947">
        <ele>1101</ele>
        <time>2020-08-23T06:40:48Z</time>
      </trkpt>
      <trkpt lat="45.12002" lon="5.56946">
        <ele>1101.2</ele>
        <time>2020-08-23T06:40:49Z</time>
      </trkpt>
      <trkpt lat="45.12001" lon="5.56945">
        <ele>1101.2</ele>
        <time>2020-08-23T06:40:50Z</time>
      </trkpt>
      <trkpt lat="45.12" lon="5.56944">
        <ele>1101.4</ele>
        <time>2020-08-23T06:40:51Z</time>
      </trkpt>
      <trkpt lat="45.11998" lon="5.56943">
        <ele>1101.4</ele>
        <time>2020-08-23T06:40:52Z</time>
      </trkpt>
      <trkpt lat="45.11996" lon="5.56942">
        <ele>1101.4</ele>
        <time>2020-08-23T06:40:53Z</time>
      </trkpt>
      <trkpt lat="45.11995" lon="5.56941">
        <ele>1101.6</ele>
        <time>2020-08-23T06:40:54Z</time>
      </trkpt>
      <trkpt lat="45.11993" lon="5.5694">
        <ele>1101.6</ele>
        <time>2020-08-23T06:40:55Z</time>
      </trkpt>
      <trkpt lat="45.11992" lon="5.5694">
        <ele>1101.6</ele>
        <time>2020-08-23T06:40:56Z</time>
      </trkpt>
      <trkpt lat="45.1199" lon="5.56939">
        <ele>1101.8</ele>
        <time>2020-08-23T06:40:57Z</time>
      </trkpt>
      <trkpt lat="45.11989" lon="5.56938">
        <ele>1101.8</ele>
        <time>2020-08-23T06:40:58Z</time>
      </trkpt>
      <trkpt lat="45.11987" lon="5.56938">
        <ele>1101.8</ele>
        <time>2020-08-23T06:40:59Z</time>
      </trkpt>
      <trkpt lat="45.11986" lon="5.56937">
        <ele>1101.8</ele>
        <time>2020-08-23T06:41:00Z</time>
      </trkpt>
      <trkpt lat="45.11984" lon="5.56936">
        <ele>1102</ele>
        <time>2020-08-23T06:41:01Z</time>
      </trkpt>
      <trkpt lat="45.11983" lon="5.56936">
        <ele>1102</ele>
        <time>2020-08-23T06:41:02Z</time>
      </trkpt>
      <trkpt lat="45.11981" lon="5.56935">
        <ele>1102</ele>
        <time>2020-08-23T06:41:03Z</time>
      </trkpt>
      <trkpt lat="45.11979" lon="5.56934">
        <ele>1102</ele>
        <time>2020-08-23T06:41:04Z</time>
      </trkpt>
      <trkpt lat="45.11977" lon="5.56934">
        <ele>1102.2</ele>
        <time>2020-08-23T06:41:05Z</time>
      </trkpt>
      <trkpt lat="45.11976" lon="5.56934">
        <ele>1102.2</ele>
        <time>2020-08-23T06:41:06Z</time>
      </trkpt>
      <trkpt lat="45.11974" lon="5.56934">
        <ele>1102.2</ele>
        <time>2020-08-23T06:41:07Z</time>
      </trkpt>
      <trkpt lat="45.11972" lon="5.56933">
        <ele>1102.4</ele>
        <time>2020-08-23T06:41:08Z</time>
      </trkpt>
      <trkpt lat="45.11971" lon="5.56933">
        <ele>1102.4</ele>
        <time>2020-08-23T06:41:09Z</time>
      </trkpt>
      <trkpt lat="45.11969" lon="5.56932">
        <ele>1102.6</ele>
        <time>2020-08-23T06:41:10Z</time>
      </trkpt>
      <trkpt lat="45.11968" lon="5.56932">
        <ele>1102.8</ele>
        <time>2020-08-23T06:41:11Z</time>
      </trkpt>
      <trkpt lat="45.11966" lon="5.56931">
        <ele>1102.8</ele>
        <time>2020-08-23T06:41:12Z</time>
      </trkpt>
      <trkpt lat="45.11965" lon="5.5693">
        <ele>1103</ele>
        <time>2020-08-23T06:41:13Z</time>
      </trkpt>
      <trkpt lat="45.11964" lon="5.56929">
        <ele>1103.2</ele>
        <time>2020-08-23T06:41:14Z</time>
      </trkpt>
      <trkpt lat="45.11963" lon="5.56928">
        <ele>1103.2</ele>
        <time>2020-08-23T06:41:15Z</time>
      </trkpt>
      <trkpt lat="45.11961" lon="5.56927">
        <ele>1103.4</ele>
        <time>2020-08-23T06:41:16Z</time>
      </trkpt>
      <trkpt lat="45.1196" lon="5.56927">
        <ele>1103.6</ele>
        <time>2020-08-23T06:41:17Z</time>
      </trkpt>
      <trkpt lat="45.11959" lon="5.56926">
        <ele>1103.8</ele>
        <time>2020-08-23T06:41:18Z</time>
      </trkpt>
      <trkpt lat="45.11957" lon="5.56925">
        <ele>1104</ele>
        <time>2020-08-23T06:41:19Z</time>
      </trkpt>
      <trkpt lat="45.11956" lon="5.56925">
        <ele>1104.2</ele>
        <time>2020-08-23T06:41:20Z</time>
      </trkpt>
      <trkpt lat="45.11954" lon="5.56924">
        <ele>1104.4</ele>
        <time>2020-08-23T06:41:21Z</time>
      </trkpt>
      <trkpt lat="45.11952" lon="5.56924">
        <ele>1104.4</ele>
        <time>2020-08-23T06:41:22Z</time>
      </trkpt>
      <trkpt lat="45.11951" lon="5.56923">
        <ele>1104.6</ele>
        <time>2020-08-23T06:41:23Z</time>
      </trkpt>
      <trkpt lat="45.11949" lon="5.56922">
        <ele>1104.8</ele>
        <time>2020-08-23T06:41:24Z</time>
      </trkpt>
      <trkpt lat="45.11948" lon="5.56921">
        <ele>1105</ele>
        <time>2020-08-23T06:41:25Z</time>
      </trkpt>
      <trkpt lat="45.11947" lon="5.5692">
        <ele>1105</ele>
        <time>2020-08-23T06:41:26Z</time>
      </trkpt>
      <trkpt lat="45.11945" lon="5.56919">
        <ele>1105.2</ele>
        <time>2020-08-23T06:41:27Z</time>
      </trkpt>
      <trkpt lat="45.11943" lon="5.56919">
        <ele>1105.2</ele>
        <time>2020-08-23T06:41:28Z</time>
      </trkpt>
      <trkpt lat="45.11942" lon="5.56918">
        <ele>1105.4</ele>
        <time>2020-08-23T06:41:29Z</time>
      </trkpt>
      <trkpt lat="45.1194" lon="5.56917">
        <ele>1105.6</ele>
        <time>2020-08-23T06:41:30Z</time>
      </trkpt>
      <trkpt lat="45.11939" lon="5.56916">
        <ele>1105.6</ele>
        <time>2020-08-23T06:41:31Z</time>
      </trkpt>
      <trkpt lat="45.11937" lon="5.56915">
        <ele>1105.8</ele>
        <time>2020-08-23T06:41:32Z</time>
      </trkpt>
      <trkpt lat="45.11936" lon="5.56914">
        <ele>1105.8</ele>
        <time>2020-08-23T06:41:33Z</time>
      </trkpt>
      <trkpt lat="45.11934" lon="5.56913">
        <ele>1106</ele>
        <time>2020-08-23T06:41:34Z</time>
      </trkpt>
      <trkpt lat="45.11933" lon="5.56912">
        <ele>1106</ele>
        <time>2020-08-23T06:41:35Z</time>
      </trkpt>
      <trkpt lat="45.11932" lon="5.56911">
        <ele>1106.2</ele>
        <time>2020-08-23T06:41:36Z</time>
      </trkpt>
      <trkpt lat="45.1193" lon="5.5691">
        <ele>1106.2</ele>
        <time>2020-08-23T06:41:37Z</time>
      </trkpt>
      <trkpt lat="45.11929" lon="5.56909">
        <ele>1106.4</ele>
        <time>2020-08-23T06:41:38Z</time>
      </trkpt>
      <trkpt lat="45.11927" lon="5.56908">
        <ele>1106.6</ele>
        <time>2020-08-23T06:41:39Z</time>
      </trkpt>
      <trkpt lat="45.11926" lon="5.56907">
        <ele>1106.6</ele>
        <time>2020-08-23T06:41:40Z</time>
      </trkpt>
      <trkpt lat="45.11924" lon="5.56906">
        <ele>1106.6</ele>
        <time>2020-08-23T06:41:41Z</time>
      </trkpt>
      <trkpt lat="45.11923" lon="5.56906">
        <ele>1106.8</ele>
        <time>2020-08-23T06:41:42Z</time>
      </trkpt>
      <trkpt lat="45.11921" lon="5.56905">
        <ele>1106.8</ele>
        <time>2020-08-23T06:41:43Z</time>
      </trkpt>
      <trkpt lat="45.11919" lon="5.56904">
        <ele>1107</ele>
        <time>2020-08-23T06:41:44Z</time>
      </trkpt>
      <trkpt lat="45.11918" lon="5.56903">
        <ele>1107.2</ele>
        <time>2020-08-23T06:41:45Z</time>
      </trkpt>
      <trkpt lat="45.11916" lon="5.56902">
        <ele>1107.2</ele>
        <time>2020-08-23T06:41:46Z</time>
      </trkpt>
      <trkpt lat="45.11914" lon="5.56901">
        <ele>1107.4</ele>
        <time>2020-08-23T06:41:47Z</time>
      </trkpt>
      <trkpt lat="45.11913" lon="5.569">
        <ele>1107.6</ele>
        <time>2020-08-23T06:41:48Z</time>
      </trkpt>
      <trkpt lat="45.11911" lon="5.56899">
        <ele>1107.8</ele>
        <time>2020-08-23T06:41:49Z</time>
      </trkpt>
      <trkpt lat="45.1191" lon="5.56898">
        <ele>1108</ele>
        <time>2020-08-23T06:41:50Z</time>
      </trkpt>
      <trkpt lat="45.11908" lon="5.56897">
        <ele>1108.2</ele>
        <time>2020-08-23T06:41:51Z</time>
      </trkpt>
      <trkpt lat="45.11907" lon="5.56896">
        <ele>1108.4</ele>
        <time>2020-08-23T06:41:52Z</time>
      </trkpt>
      <trkpt lat="45.11905" lon="5.56895">
        <ele>1108.6</ele>
        <time>2020-08-23T06:41:53Z</time>
      </trkpt>
      <trkpt lat="45.11904" lon="5.56894">
        <ele>1108.6</ele>
        <time>2020-08-23T06:41:54Z</time>
      </trkpt>
      <trkpt lat="45.11902" lon="5.56893">
        <ele>1108.8</ele>
        <time>2020-08-23T06:41:55Z</time>
      </trkpt>
      <trkpt lat="45.11901" lon="5.56892">
        <ele>1109</ele>
        <time>2020-08-23T06:41:56Z</time>
      </trkpt>
      <trkpt lat="45.119" lon="5.56891">
        <ele>1109.2</ele>
        <time>2020-08-23T06:41:57Z</time>
      </trkpt>
      <trkpt lat="45.11898" lon="5.5689">
        <ele>1109.4</ele>
        <time>2020-08-23T06:41:58Z</time>
      </trkpt>
      <trkpt lat="45.11896" lon="5.56889">
        <ele>1109.8</ele>
        <time>2020-08-23T06:41:59Z</time>
      </trkpt>
      <trkpt lat="45.11895" lon="5.56888">
        <ele>1110</ele>
        <time>2020-08-23T06:42:00Z</time>
      </trkpt>
      <trkpt lat="45.11893" lon="5.56887">
        <ele>1110.2</ele>
        <time>2020-08-23T06:42:01Z</time>
      </trkpt>
      <trkpt lat="45.11892" lon="5.56886">
        <ele>1110.4</ele>
        <time>2020-08-23T06:42:02Z</time>
      </trkpt>
      <trkpt lat="45.1189" lon="5.56885">
        <ele>1110.6</ele>
        <time>2020-08-23T06:42:03Z</time>
      </trkpt>
      <trkpt lat="45.11889" lon="5.56884">
        <ele>1111</ele>
        <time>2020-08-23T06:42:04Z</time>
      </trkpt>
      <trkpt lat="45.11887" lon="5.56883">
        <ele>1111.2</ele>
        <time>2020-08-23T06:42:05Z</time>
      </trkpt>
      <trkpt lat="45.11886" lon="5.56882">
        <ele>1111.4</ele>
        <time>2020-08-23T06:42:06Z</time>
      </trkpt>
      <trkpt lat="45.11885" lon="5.56881">
        <ele>1111.8</ele>
        <time>2020-08-23T06:42:07Z</time>
      </trkpt>
      <trkpt lat="45.11883" lon="5.5688">
        <ele>1112</ele>
        <time>2020-08-23T06:42:08Z</time>
      </trkpt>
      <trkpt lat="45.11882" lon="5.56879">
        <ele>1112.2</ele>
        <time>2020-08-23T06:42:09Z</time>
      </trkpt>
      <trkpt lat="45.11881" lon="5.56878">
        <ele>1112.4</ele>
        <time>2020-08-23T06:42:10Z</time>
      </trkpt>
      <trkpt lat="45.1188" lon="5.56877">
        <ele>1112.6</ele>
        <time>2020-08-23T06:42:11Z</time>
      </trkpt>
      <trkpt lat="45.11878" lon="5.56876">
        <ele>1113</ele>
        <time>2020-08-23T06:42:12Z</time>
      </trkpt>
      <trkpt lat="45.11877" lon="5.56875">
        <ele>1113.2</ele>
        <time>2020-08-23T06:42:13Z</time>
      </trkpt>
      <trkpt lat="45.11875" lon="5.56874">
        <ele>1113.6</ele>
        <time>2020-08-23T06:42:14Z</time>
      </trkpt>
      <trkpt lat="45.11874" lon="5.56874">
        <ele>1113.8</ele>
        <time>2020-08-23T06:42:15Z</time>
      </trkpt>
      <trkpt lat="45.11873" lon="5.56874">
        <ele>1114.2</ele>
        <time>2020-08-23T06:42:16Z</time>
      </trkpt>
      <trkpt lat="45.11873" lon="5.56874">
        <ele>1114.6</ele>
        <time>2020-08-23T06:42:17Z</time>
      </trkpt>
      <trkpt lat="45.11873" lon="5.56874">
        <ele>1114.8</ele>
        <time>2020-08-23T06:42:18Z</time>
      </trkpt>
      <trkpt lat="45.11873" lon="5.56874">
        <ele>1115</ele>
        <time>2020-08-23T06:42:19Z</time>
      </trkpt>
      <trkpt lat="45.11873" lon="5.56874">
        <ele>1115.2</ele>
        <time>2020-08-23T06:42:20Z</time>
      </trkpt>
      <trkpt lat="45.11872" lon="5.56872">
        <ele>1115.4</ele>
        <time>2020-08-23T06:42:21Z</time>
      </trkpt>
      <trkpt lat="45.11871" lon="5.56871">
        <ele>1115.6</ele>
        <time>2020-08-23T06:42:22Z</time>
      </trkpt>
      <trkpt lat="45.1187" lon="5.56871">
        <ele>1115.8</ele>
        <time>2020-08-23T06:42:23Z</time>
      </trkpt>
      <trkpt lat="45.11869" lon="5.5687">
        <ele>1115.8</ele>
        <time>2020-08-23T06:42:24Z</time>
      </trkpt>
      <trkpt lat="45.11869" lon="5.56869">
        <ele>1116</ele>
        <time>2020-08-23T06:42:25Z</time>
      </trkpt>
      <trkpt lat="45.11869" lon="5.56869">
        <ele>1116.4</ele>
        <time>2020-08-23T06:42:26Z</time>
      </trkpt>
      <trkpt lat="45.11869" lon="5.56869">
        <ele>1116.6</ele>
        <time>2020-08-23T06:42:27Z</time>
      </trkpt>
      <trkpt lat="45.11869" lon="5.56869">
        <ele>1116.8</ele>
        <time>2020-08-23T06:42:28Z</time>
      </trkpt>
      <trkpt lat="45.11869" lon="5.56869">
        <ele>1117</ele>
        <time>2020-08-23T06:42:29Z</time>
      </trkpt>
      <trkpt lat="45.11869" lon="5.56869">
        <ele>1117.2</ele>
        <time>2020-08-23T06:42:30Z</time>
      </trkpt>
      <trkpt lat="45.11869" lon="5.56869">
        <ele>1117.4</ele>
        <time>2020-08-23T06:42:31Z</time>
      </trkpt>
      <trkpt lat="45.11869" lon="5.56869">
        <ele>1117.4</ele>
        <time>2020-08-23T06:42:32Z</time>
      </trkpt>
      <trkpt lat="45.11869" lon="5.56869">
        <ele>1117.6</ele>
        <time>2020-08-23T06:42:33Z</time>
      </trkpt>
      <trkpt lat="45.11869" lon="5.56869">
        <ele>1117.6</ele>
        <time>2020-08-23T06:42:34Z</time>
      </trkpt>
      <trkpt lat="45.11871" lon="5.56856">
        <ele>1118.4</ele>
        <time>2020-08-23T06:48:53Z</time>
      </trkpt>
      <trkpt lat="45.11871" lon="5.56854">
        <ele>1118.4</ele>
        <time>2020-08-23T06:48:54Z</time>
      </trkpt>
      <trkpt lat="45.11872" lon="5.56853">
        <ele>1118.4</ele>
        <time>2020-08-23T06:48:55Z</time>
      </trkpt>
      <trkpt lat="45.11874" lon="5.56851">
        <ele>1118.4</ele>
        <time>2020-08-23T06:48:56Z</time>
      </trkpt>
      <trkpt lat="45.11875" lon="5.5685">
        <ele>1118.4</ele>
        <time>2020-08-23T06:48:57Z</time>
      </trkpt>
      <trkpt lat="45.11876" lon="5.56849">
        <ele>1118.6</ele>
        <time>2020-08-23T06:48:58Z</time>
      </trkpt>
      <trkpt lat="45.11877" lon="5.56848">
        <ele>1118.8</ele>
        <time>2020-08-23T06:48:59Z</time>
      </trkpt>
      <trkpt lat="45.11878" lon="5.56847">
        <ele>1119</ele>
        <time>2020-08-23T06:49:00Z</time>
      </trkpt>
      <trkpt lat="45.11879" lon="5.56846">
        <ele>1119</ele>
        <time>2020-08-23T06:49:01Z</time>
      </trkpt>
      <trkpt lat="45.1188" lon="5.56845">
        <ele>1119.2</ele>
        <time>2020-08-23T06:49:02Z</time>
      </trkpt>
      <trkpt lat="45.11882" lon="5.56844">
        <ele>1119.6</ele>
        <time>2020-08-23T06:49:03Z</time>
      </trkpt>
      <trkpt lat="45.11883" lon="5.56843">
        <ele>1119.8</ele>
        <time>2020-08-23T06:49:04Z</time>
      </trkpt>
      <trkpt lat="45.11884" lon="5.56842">
        <ele>1120.2</ele>
        <time>2020-08-23T06:49:05Z</time>
      </trkpt>
      <trkpt lat="45.11886" lon="5.56841">
        <ele>1120.6</ele>
        <time>2020-08-23T06:49:06Z</time>
      </trkpt>
      <trkpt lat="45.11887" lon="5.5684">
        <ele>1121</ele>
        <time>2020-08-23T06:49:07Z</time>
      </trkpt>
      <trkpt lat="45.11889" lon="5.56839">
        <ele>1121.4</ele>
        <time>2020-08-23T06:49:08Z</time>
      </trkpt>
      <trkpt lat="45.1189" lon="5.56837">
        <ele>1121.6</ele>
        <time>2020-08-23T06:49:09Z</time>
      </trkpt>
      <trkpt lat="45.11891" lon="5.56836">
        <ele>1122</ele>
        <time>2020-08-23T06:49:10Z</time>
      </trkpt>
      <trkpt lat="45.11892" lon="5.56835">
        <ele>1122.4</ele>
        <time>2020-08-23T06:49:11Z</time>
      </trkpt>
      <trkpt lat="45.11893" lon="5.56833">
        <ele>1122.8</ele>
        <time>2020-08-23T06:49:12Z</time>
      </trkpt>
      <trkpt lat="45.11894" lon="5.56832">
        <ele>1123.2</ele>
        <time>2020-08-23T06:49:13Z</time>
      </trkpt>
      <trkpt lat="45.11895" lon="5.5683">
        <ele>1123.6</ele>
        <time>2020-08-23T06:49:14Z</time>
      </trkpt>
      <trkpt lat="45.11895" lon="5.56828">
        <ele>1124</ele>
        <time>2020-08-23T06:49:15Z</time>
      </trkpt>
      <trkpt lat="45.11895" lon="5.56827">
        <ele>1124.6</ele>
        <time>2020-08-23T06:49:16Z</time>
      </trkpt>
      <trkpt lat="45.11896" lon="5.56824">
        <ele>1125</ele>
        <time>2020-08-23T06:49:17Z</time>
      </trkpt>
      <trkpt lat="45.11896" lon="5.56822">
        <ele>1125.4</ele>
        <time>2020-08-23T06:49:18Z</time>
      </trkpt>
      <trkpt lat="45.11897" lon="5.5682">
        <ele>1125.8</ele>
        <time>2020-08-23T06:49:19Z</time>
      </trkpt>
      <trkpt lat="45.11897" lon="5.56819">
        <ele>1126.2</ele>
        <time>2020-08-23T06:49:20Z</time>
      </trkpt>
      <trkpt lat="45.11897" lon="5.56817">
        <ele>1126.8</ele>
        <time>2020-08-23T06:49:21Z</time>
      </trkpt>
      <trkpt lat="45.11897" lon="5.56816">
        <ele>1127.2</ele>
        <time>2020-08-23T06:49:22Z</time>
      </trkpt>
      <trkpt lat="45.11898" lon="5.56814">
        <ele>1127.6</ele>
        <time>2020-08-23T06:49:23Z</time>
      </trkpt>
      <trkpt lat="45.11899" lon="5.56812">
        <ele>1128.2</ele>
        <time>2020-08-23T06:49:24Z</time>
      </trkpt>
      <trkpt lat="45.119" lon="5.5681">
        <ele>1128.6</ele>
        <time>2020-08-23T06:49:25Z</time>
      </trkpt>
      <trkpt lat="45.119" lon="5.56808">
        <ele>1129</ele>
        <time>2020-08-23T06:49:26Z</time>
      </trkpt>
      <trkpt lat="45.11901" lon="5.56806">
        <ele>1129.4</ele>
        <time>2020-08-23T06:49:27Z</time>
      </trkpt>
      <trkpt lat="45.11901" lon="5.56805">
        <ele>1129.8</ele>
        <time>2020-08-23T06:49:28Z</time>
      </trkpt>
      <trkpt lat="45.11902" lon="5.56802">
        <ele>1130.4</ele>
        <time>2020-08-23T06:49:29Z</time>
      </trkpt>
      <trkpt lat="45.11903" lon="5.568">
        <ele>1130.8</ele>
        <time>2020-08-23T06:49:30Z</time>
      </trkpt>
      <trkpt lat="45.11903" lon="5.56798">
        <ele>1131.2</ele>
        <time>2020-08-23T06:49:31Z</time>
      </trkpt>
      <trkpt lat="45.11903" lon="5.56795">
        <ele>1131.6</ele>
        <time>2020-08-23T06:49:32Z</time>
      </trkpt>
      <trkpt lat="45.11904" lon="5.56793">
        <ele>1132</ele>
        <time>2020-08-23T06:49:33Z</time>
      </trkpt>
      <trkpt lat="45.11905" lon="5.5679">
        <ele>1132.4</ele>
        <time>2020-08-23T06:49:34Z</time>
      </trkpt>
      <trkpt lat="45.11905" lon="5.56788">
        <ele>1132.8</ele>
        <time>2020-08-23T06:49:35Z</time>
      </trkpt>
      <trkpt lat="45.11906" lon="5.56785">
        <ele>1133.2</ele>
        <time>2020-08-23T06:49:36Z</time>
      </trkpt>
      <trkpt lat="45.11906" lon="5.56783">
        <ele>1133.6</ele>
        <time>2020-08-23T06:49:37Z</time>
      </trkpt>
      <trkpt lat="45.11907" lon="5.5678">
        <ele>1134</ele>
        <time>2020-08-23T06:49:38Z</time>
      </trkpt>
      <trkpt lat="45.11908" lon="5.56778">
        <ele>1134.4</ele>
        <time>2020-08-23T06:49:39Z</time>
      </trkpt>
      <trkpt lat="45.11908" lon="5.56775">
        <ele>1134.8</ele>
        <time>2020-08-23T06:49:40Z</time>
      </trkpt>
      <trkpt lat="45.11909" lon="5.56773">
        <ele>1135.2</ele>
        <time>2020-08-23T06:49:41Z</time>
      </trkpt>
      <trkpt lat="45.1191" lon="5.5677">
        <ele>1135.6</ele>
        <time>2020-08-23T06:49:42Z</time>
      </trkpt>
      <trkpt lat="45.11911" lon="5.56768">
        <ele>1136</ele>
        <time>2020-08-23T06:49:43Z</time>
      </trkpt>
      <trkpt lat="45.11911" lon="5.56766">
        <ele>1136.4</ele>
        <time>2020-08-23T06:49:44Z</time>
      </trkpt>
      <trkpt lat="45.11912" lon="5.56764">
        <ele>1136.8</ele>
        <time>2020-08-23T06:49:45Z</time>
      </trkpt>
      <trkpt lat="45.11913" lon="5.56761">
        <ele>1137.2</ele>
        <time>2020-08-23T06:49:46Z</time>
      </trkpt>
      <trkpt lat="45.11914" lon="5.56759">
        <ele>1137.6</ele>
        <time>2020-08-23T06:49:47Z</time>
      </trkpt>
      <trkpt lat="45.11914" lon="5.56757">
        <ele>1138</ele>
        <time>2020-08-23T06:49:48Z</time>
      </trkpt>
      <trkpt lat="45.11915" lon="5.56754">
        <ele>1138.4</ele>
        <time>2020-08-23T06:49:49Z</time>
      </trkpt>
      <trkpt lat="45.11916" lon="5.56752">
        <ele>1138.8</ele>
        <time>2020-08-23T06:49:50Z</time>
      </trkpt>
      <trkpt lat="45.11917" lon="5.5675">
        <ele>1139.2</ele>
        <time>2020-08-23T06:49:51Z</time>
      </trkpt>
      <trkpt lat="45.11918" lon="5.56748">
        <ele>1139.6</ele>
        <time>2020-08-23T06:49:52Z</time>
      </trkpt>
      <trkpt lat="45.11918" lon="5.56746">
        <ele>1140</ele>
        <time>2020-08-23T06:49:53Z</time>
      </trkpt>
      <trkpt lat="45.11919" lon="5.56744">
        <ele>1140.4</ele>
        <time>2020-08-23T06:49:54Z</time>
      </trkpt>
      <trkpt lat="45.11919" lon="5.56741">
        <ele>1140.8</ele>
        <time>2020-08-23T06:49:55Z</time>
      </trkpt>
      <trkpt lat="45.11921" lon="5.56739">
        <ele>1141.2</ele>
        <time>2020-08-23T06:49:56Z</time>
      </trkpt>
      <trkpt lat="45.11921" lon="5.56737">
        <ele>1141.6</ele>
        <time>2020-08-23T06:49:57Z</time>
      </trkpt>
      <trkpt lat="45.11922" lon="5.56735">
        <ele>1142</ele>
        <time>2020-08-23T06:49:58Z</time>
      </trkpt>
      <trkpt lat="45.11923" lon="5.56733">
        <ele>1142.2</ele>
        <time>2020-08-23T06:49:59Z</time>
      </trkpt>
      <trkpt lat="45.11923" lon="5.56731">
        <ele>1142.6</ele>
        <time>2020-08-23T06:50:00Z</time>
      </trkpt>
      <trkpt lat="45.11924" lon="5.56729">
        <ele>1143</ele>
        <time>2020-08-23T06:50:01Z</time>
      </trkpt>
      <trkpt lat="45.11924" lon="5.56727">
        <ele>1143.4</ele>
        <time>2020-08-23T06:50:02Z</time>
      </trkpt>
      <trkpt lat="45.11925" lon="5.56724">
        <ele>1143.8</ele>
        <time>2020-08-23T06:50:03Z</time>
      </trkpt>
      <trkpt lat="45.11926" lon="5.56722">
        <ele>1144</ele>
        <time>2020-08-23T06:50:04Z</time>
      </trkpt>
      <trkpt lat="45.11927" lon="5.5672">
        <ele>1144.4</ele>
        <time>2020-08-23T06:50:05Z</time>
      </trkpt>
      <trkpt lat="45.11928" lon="5.56718">
        <ele>1144.6</ele>
        <time>2020-08-23T06:50:06Z</time>
      </trkpt>
      <trkpt lat="45.11929" lon="5.56716">
        <ele>1145</ele>
        <time>2020-08-23T06:50:07Z</time>
      </trkpt>
      <trkpt lat="45.11929" lon="5.56714">
        <ele>1145.2</ele>
        <time>2020-08-23T06:50:08Z</time>
      </trkpt>
      <trkpt lat="45.1193" lon="5.56712">
        <ele>1145.6</ele>
        <time>2020-08-23T06:50:09Z</time>
      </trkpt>
      <trkpt lat="45.11931" lon="5.5671">
        <ele>1146</ele>
        <time>2020-08-23T06:50:10Z</time>
      </trkpt>
      <trkpt lat="45.11932" lon="5.56708">
        <ele>1146.4</ele>
        <time>2020-08-23T06:50:11Z</time>
      </trkpt>
      <trkpt lat="45.11933" lon="5.56706">
        <ele>1146.6</ele>
        <time>2020-08-23T06:50:12Z</time>
      </trkpt>
      <trkpt lat="45.11934" lon="5.56704">
        <ele>1147</ele>
        <time>2020-08-23T06:50:13Z</time>
      </trkpt>
      <trkpt lat="45.11935" lon="5.56702">
        <ele>1147.4</ele>
        <time>2020-08-23T06:50:14Z</time>
      </trkpt>
      <trkpt lat="45.11936" lon="5.567">
        <ele>1147.6</ele>
        <time>2020-08-23T06:50:15Z</time>
      </trkpt>
      <trkpt lat="45.11937" lon="5.56698">
        <ele>1148</ele>
        <time>2020-08-23T06:50:16Z</time>
      </trkpt>
      <trkpt lat="45.11938" lon="5.56696">
        <ele>1148.4</ele>
        <time>2020-08-23T06:50:17Z</time>
      </trkpt>
      <trkpt lat="45.11939" lon="5.56694">
        <ele>1148.6</ele>
        <time>2020-08-23T06:50:18Z</time>
      </trkpt>
      <trkpt lat="45.1194" lon="5.56692">
        <ele>1149</ele>
        <time>2020-08-23T06:50:19Z</time>
      </trkpt>
      <trkpt lat="45.1194" lon="5.56691">
        <ele>1149.2</ele>
        <time>2020-08-23T06:50:20Z</time>
      </trkpt>
      <trkpt lat="45.11941" lon="5.56689">
        <ele>1149.6</ele>
        <time>2020-08-23T06:50:21Z</time>
      </trkpt>
      <trkpt lat="45.11942" lon="5.56687">
        <ele>1149.8</ele>
        <time>2020-08-23T06:50:22Z</time>
      </trkpt>
      <trkpt lat="45.11943" lon="5.56685">
        <ele>1150.2</ele>
        <time>2020-08-23T06:50:23Z</time>
      </trkpt>
      <trkpt lat="45.11944" lon="5.56683">
        <ele>1150.4</ele>
        <time>2020-08-23T06:50:24Z</time>
      </trkpt>
      <trkpt lat="45.11945" lon="5.56681">
        <ele>1150.8</ele>
        <time>2020-08-23T06:50:25Z</time>
      </trkpt>
      <trkpt lat="45.11947" lon="5.56679">
        <ele>1151</ele>
        <time>2020-08-23T06:50:26Z</time>
      </trkpt>
      <trkpt lat="45.11947" lon="5.56678">
        <ele>1151.2</ele>
        <time>2020-08-23T06:50:27Z</time>
      </trkpt>
      <trkpt lat="45.11948" lon="5.56676">
        <ele>1151.6</ele>
        <time>2020-08-23T06:50:28Z</time>
      </trkpt>
      <trkpt lat="45.1195" lon="5.56674">
        <ele>1151.8</ele>
        <time>2020-08-23T06:50:29Z</time>
      </trkpt>
      <trkpt lat="45.1195" lon="5.56672">
        <ele>1152</ele>
        <time>2020-08-23T06:50:30Z</time>
      </trkpt>
      <trkpt lat="45.11951" lon="5.56671">
        <ele>1152.2</ele>
        <time>2020-08-23T06:50:31Z</time>
      </trkpt>
      <trkpt lat="45.11953" lon="5.56669">
        <ele>1152.6</ele>
        <time>2020-08-23T06:50:32Z</time>
      </trkpt>
      <trkpt lat="45.11953" lon="5.56668">
        <ele>1152.8</ele>
        <time>2020-08-23T06:50:33Z</time>
      </trkpt>
      <trkpt lat="45.11955" lon="5.56666">
        <ele>1153.2</ele>
        <time>2020-08-23T06:50:34Z</time>
      </trkpt>
      <trkpt lat="45.11956" lon="5.56665">
        <ele>1153.4</ele>
        <time>2020-08-23T06:50:35Z</time>
      </trkpt>
      <trkpt lat="45.11957" lon="5.56663">
        <ele>1153.6</ele>
        <time>2020-08-23T06:50:36Z</time>
      </trkpt>
      <trkpt lat="45.11958" lon="5.56662">
        <ele>1153.8</ele>
        <time>2020-08-23T06:50:37Z</time>
      </trkpt>
      <trkpt lat="45.11959" lon="5.5666">
        <ele>1154.2</ele>
        <time>2020-08-23T06:50:38Z</time>
      </trkpt>
      <trkpt lat="45.1196" lon="5.56659">
        <ele>1154.4</ele>
        <time>2020-08-23T06:50:39Z</time>
      </trkpt>
      <trkpt lat="45.11961" lon="5.56657">
        <ele>1154.6</ele>
        <time>2020-08-23T06:50:40Z</time>
      </trkpt>
      <trkpt lat="45.11963" lon="5.56655">
        <ele>1154.8</ele>
        <time>2020-08-23T06:50:41Z</time>
      </trkpt>
      <trkpt lat="45.11964" lon="5.56653">
        <ele>1155</ele>
        <time>2020-08-23T06:50:42Z</time>
      </trkpt>
      <trkpt lat="45.11965" lon="5.56652">
        <ele>1155.4</ele>
        <time>2020-08-23T06:50:43Z</time>
      </trkpt>
      <trkpt lat="45.11966" lon="5.5665">
        <ele>1155.6</ele>
        <time>2020-08-23T06:50:44Z</time>
      </trkpt>
      <trkpt lat="45.11967" lon="5.56648">
        <ele>1155.8</ele>
        <time>2020-08-23T06:50:45Z</time>
      </trkpt>
      <trkpt lat="45.11968" lon="5.56647">
        <ele>1156</ele>
        <time>2020-08-23T06:50:46Z</time>
      </trkpt>
      <trkpt lat="45.11969" lon="5.56645">
        <ele>1156.2</ele>
        <time>2020-08-23T06:50:47Z</time>
      </trkpt>
      <trkpt lat="45.1197" lon="5.56643">
        <ele>1156.4</ele>
        <time>2020-08-23T06:50:48Z</time>
      </trkpt>
      <trkpt lat="45.11971" lon="5.56642">
        <ele>1156.6</ele>
        <time>2020-08-23T06:50:49Z</time>
      </trkpt>
      <trkpt lat="45.11972" lon="5.5664">
        <ele>1156.8</ele>
        <time>2020-08-23T06:50:50Z</time>
      </trkpt>
      <trkpt lat="45.11973" lon="5.56638">
        <ele>1157.2</ele>
        <time>2020-08-23T06:50:51Z</time>
      </trkpt>
      <trkpt lat="45.11974" lon="5.56637">
        <ele>1157.4</ele>
        <time>2020-08-23T06:50:52Z</time>
      </trkpt>
      <trkpt lat="45.11975" lon="5.56635">
        <ele>1157.6</ele>
        <time>2020-08-23T06:50:53Z</time>
      </trkpt>
      <trkpt lat="45.11977" lon="5.56634">
        <ele>1157.8</ele>
        <time>2020-08-23T06:50:54Z</time>
      </trkpt>
      <trkpt lat="45.11977" lon="5.56632">
        <ele>1158</ele>
        <time>2020-08-23T06:50:55Z</time>
      </trkpt>
      <trkpt lat="45.11979" lon="5.5663">
        <ele>1158.4</ele>
        <time>2020-08-23T06:50:56Z</time>
      </trkpt>
      <trkpt lat="45.11979" lon="5.56628">
        <ele>1158.6</ele>
        <time>2020-08-23T06:50:57Z</time>
      </trkpt>
      <trkpt lat="45.1198" lon="5.56627">
        <ele>1158.8</ele>
        <time>2020-08-23T06:50:58Z</time>
      </trkpt>
      <trkpt lat="45.11981" lon="5.56625">
        <ele>1159</ele>
        <time>2020-08-23T06:50:59Z</time>
      </trkpt>
      <trkpt lat="45.11982" lon="5.56623">
        <ele>1159.2</ele>
        <time>2020-08-23T06:51:00Z</time>
      </trkpt>
      <trkpt lat="45.11983" lon="5.56621">
        <ele>1159.4</ele>
        <time>2020-08-23T06:51:01Z</time>
      </trkpt>
      <trkpt lat="45.11984" lon="5.56619">
        <ele>1159.6</ele>
        <time>2020-08-23T06:51:02Z</time>
      </trkpt>
      <trkpt lat="45.11985" lon="5.56618">
        <ele>1159.8</ele>
        <time>2020-08-23T06:51:03Z</time>
      </trkpt>
      <trkpt lat="45.11986" lon="5.56616">
        <ele>1160</ele>
        <time>2020-08-23T06:51:04Z</time>
      </trkpt>
      <trkpt lat="45.11987" lon="5.56614">
        <ele>1160.4</ele>
        <time>2020-08-23T06:51:05Z</time>
      </trkpt>
      <trkpt lat="45.11988" lon="5.56613">
        <ele>1160.6</ele>
        <time>2020-08-23T06:51:06Z</time>
      </trkpt>
      <trkpt lat="45.1199" lon="5.56611">
        <ele>1160.8</ele>
        <time>2020-08-23T06:51:07Z</time>
      </trkpt>
      <trkpt lat="45.11991" lon="5.56609">
        <ele>1161</ele>
        <time>2020-08-23T06:51:08Z</time>
      </trkpt>
      <trkpt lat="45.11992" lon="5.56608">
        <ele>1161.2</ele>
        <time>2020-08-23T06:51:09Z</time>
      </trkpt>
      <trkpt lat="45.11993" lon="5.56606">
        <ele>1161.4</ele>
        <time>2020-08-23T06:51:10Z</time>
      </trkpt>
      <trkpt lat="45.11995" lon="5.56605">
        <ele>1161.6</ele>
        <time>2020-08-23T06:51:11Z</time>
      </trkpt>
      <trkpt lat="45.11996" lon="5.56603">
        <ele>1161.6</ele>
        <time>2020-08-23T06:51:12Z</time>
      </trkpt>
      <trkpt lat="45.11998" lon="5.56602">
        <ele>1161.8</ele>
        <time>2020-08-23T06:51:13Z</time>
      </trkpt>
      <trkpt lat="45.11999" lon="5.566">
        <ele>1162</ele>
        <time>2020-08-23T06:51:14Z</time>
      </trkpt>
      <trkpt lat="45.12" lon="5.56599">
        <ele>1162.2</ele>
        <time>2020-08-23T06:51:15Z</time>
      </trkpt>
      <trkpt lat="45.12001" lon="5.56597">
        <ele>1162.4</ele>
        <time>2020-08-23T06:51:16Z</time>
      </trkpt>
      <trkpt lat="45.12003" lon="5.56596">
        <ele>1162.4</ele>
        <time>2020-08-23T06:51:17Z</time>
      </trkpt>
      <trkpt lat="45.12005" lon="5.56595">
        <ele>1162.6</ele>
        <time>2020-08-23T06:51:18Z</time>
      </trkpt>
      <trkpt lat="45.12006" lon="5.56594">
        <ele>1162.8</ele>
        <time>2020-08-23T06:51:19Z</time>
      </trkpt>
      <trkpt lat="45.12007" lon="5.56593">
        <ele>1162.8</ele>
        <time>2020-08-23T06:51:20Z</time>
      </trkpt>
      <trkpt lat="45.12009" lon="5.56592">
        <ele>1162.8</ele>
        <time>2020-08-23T06:51:21Z</time>
      </trkpt>
      <trkpt lat="45.12011" lon="5.56591">
        <ele>1162.8</ele>
        <time>2020-08-23T06:51:22Z</time>
      </trkpt>
      <trkpt lat="45.12012" lon="5.56591">
        <ele>1162.8</ele>
        <time>2020-08-23T06:51:23Z</time>
      </trkpt>
      <trkpt lat="45.12014" lon="5.5659">
        <ele>1162.8</ele>
        <time>2020-08-23T06:51:24Z</time>
      </trkpt>
      <trkpt lat="45.12015" lon="5.5659">
        <ele>1162.8</ele>
        <time>2020-08-23T06:51:25Z</time>
      </trkpt>
      <trkpt lat="45.12017" lon="5.5659">
        <ele>1162.8</ele>
        <time>2020-08-23T06:51:26Z</time>
      </trkpt>
      <trkpt lat="45.12018" lon="5.5659">
        <ele>1162.8</ele>
        <time>2020-08-23T06:51:27Z</time>
      </trkpt>
      <trkpt lat="45.1202" lon="5.5659">
        <ele>1162.8</ele>
        <time>2020-08-23T06:51:28Z</time>
      </trkpt>
      <trkpt lat="45.12021" lon="5.5659">
        <ele>1162.8</ele>
        <time>2020-08-23T06:51:29Z</time>
      </trkpt>
      <trkpt lat="45.12023" lon="5.5659">
        <ele>1162.8</ele>
        <time>2020-08-23T06:51:30Z</time>
      </trkpt>
      <trkpt lat="45.12024" lon="5.56589">
        <ele>1162.8</ele>
        <time>2020-08-23T06:51:31Z</time>
      </trkpt>
      <trkpt lat="45.12026" lon="5.56589">
        <ele>1162.8</ele>
        <time>2020-08-23T06:51:32Z</time>
      </trkpt>
      <trkpt lat="45.12028" lon="5.56589">
        <ele>1163</ele>
        <time>2020-08-23T06:51:33Z</time>
      </trkpt>
      <trkpt lat="45.12029" lon="5.56588">
        <ele>1163</ele>
        <time>2020-08-23T06:51:34Z</time>
      </trkpt>
      <trkpt lat="45.12031" lon="5.56588">
        <ele>1163</ele>
        <time>2020-08-23T06:51:35Z</time>
      </trkpt>
      <trkpt lat="45.12033" lon="5.56588">
        <ele>1163</ele>
        <time>2020-08-23T06:51:36Z</time>
      </trkpt>
      <trkpt lat="45.12035" lon="5.56588">
        <ele>1163</ele>
        <time>2020-08-23T06:51:37Z</time>
      </trkpt>
      <trkpt lat="45.12036" lon="5.56589">
        <ele>1163</ele>
        <time>2020-08-23T06:51:38Z</time>
      </trkpt>
      <trkpt lat="45.12037" lon="5.56589">
        <ele>1163</ele>
        <time>2020-08-23T06:51:39Z</time>
      </trkpt>
      <trkpt lat="45.12038" lon="5.56589">
        <ele>1163</ele>
        <time>2020-08-23T06:51:40Z</time>
      </trkpt>
      <trkpt lat="45.1204" lon="5.56588">
        <ele>1163.2</ele>
        <time>2020-08-23T06:51:41Z</time>
      </trkpt>
      <trkpt lat="45.12041" lon="5.56588">
        <ele>1163.2</ele>
        <time>2020-08-23T06:51:42Z</time>
      </trkpt>
      <trkpt lat="45.12043" lon="5.56589">
        <ele>1163.2</ele>
        <time>2020-08-23T06:51:43Z</time>
      </trkpt>
      <trkpt lat="45.12044" lon="5.56588">
        <ele>1163.2</ele>
        <time>2020-08-23T06:51:44Z</time>
      </trkpt>
      <trkpt lat="45.12046" lon="5.56588">
        <ele>1163.2</ele>
        <time>2020-08-23T06:51:45Z</time>
      </trkpt>
      <trkpt lat="45.12048" lon="5.56588">
        <ele>1163.2</ele>
        <time>2020-08-23T06:51:46Z</time>
      </trkpt>
      <trkpt lat="45.12049" lon="5.56588">
        <ele>1163.2</ele>
        <time>2020-08-23T06:51:47Z</time>
      </trkpt>
      <trkpt lat="45.12051" lon="5.56587">
        <ele>1163.2</ele>
        <time>2020-08-23T06:51:48Z</time>
      </trkpt>
      <trkpt lat="45.12052" lon="5.56586">
        <ele>1163.4</ele>
        <time>2020-08-23T06:51:49Z</time>
      </trkpt>
      <trkpt lat="45.12054" lon="5.56585">
        <ele>1163.4</ele>
        <time>2020-08-23T06:51:50Z</time>
      </trkpt>
      <trkpt lat="45.12055" lon="5.56584">
        <ele>1163.6</ele>
        <time>2020-08-23T06:51:51Z</time>
      </trkpt>
      <trkpt lat="45.12056" lon="5.56583">
        <ele>1163.6</ele>
        <time>2020-08-23T06:51:52Z</time>
      </trkpt>
      <trkpt lat="45.12058" lon="5.56582">
        <ele>1163.8</ele>
        <time>2020-08-23T06:51:53Z</time>
      </trkpt>
      <trkpt lat="45.12058" lon="5.56581">
        <ele>1163.8</ele>
        <time>2020-08-23T06:51:54Z</time>
      </trkpt>
      <trkpt lat="45.12059" lon="5.56579">
        <ele>1164</ele>
        <time>2020-08-23T06:51:55Z</time>
      </trkpt>
      <trkpt lat="45.12059" lon="5.56577">
        <ele>1164</ele>
        <time>2020-08-23T06:51:56Z</time>
      </trkpt>
      <trkpt lat="45.1206" lon="5.56576">
        <ele>1164.2</ele>
        <time>2020-08-23T06:51:57Z</time>
      </trkpt>
      <trkpt lat="45.1206" lon="5.56574">
        <ele>1164.2</ele>
        <time>2020-08-23T06:51:58Z</time>
      </trkpt>
      <trkpt lat="45.1206" lon="5.56572">
        <ele>1164.4</ele>
        <time>2020-08-23T06:51:59Z</time>
      </trkpt>
      <trkpt lat="45.12059" lon="5.5657">
        <ele>1164.6</ele>
        <time>2020-08-23T06:52:00Z</time>
      </trkpt>
      <trkpt lat="45.12059" lon="5.56569">
        <ele>1164.8</ele>
        <time>2020-08-23T06:52:01Z</time>
      </trkpt>
      <trkpt lat="45.12058" lon="5.56568">
        <ele>1164.8</ele>
        <time>2020-08-23T06:52:02Z</time>
      </trkpt>
      <trkpt lat="45.12058" lon="5.56567">
        <ele>1165</ele>
        <time>2020-08-23T06:52:03Z</time>
      </trkpt>
      <trkpt lat="45.12058" lon="5.56565">
        <ele>1165.2</ele>
        <time>2020-08-23T06:52:04Z</time>
      </trkpt>
      <trkpt lat="45.12057" lon="5.56563">
        <ele>1165.4</ele>
        <time>2020-08-23T06:52:05Z</time>
      </trkpt>
      <trkpt lat="45.12056" lon="5.56562">
        <ele>1165.6</ele>
        <time>2020-08-23T06:52:06Z</time>
      </trkpt>
      <trkpt lat="45.12056" lon="5.56561">
        <ele>1165.8</ele>
        <time>2020-08-23T06:52:07Z</time>
      </trkpt>
      <trkpt lat="45.12055" lon="5.5656">
        <ele>1166</ele>
        <time>2020-08-23T06:52:08Z</time>
      </trkpt>
      <trkpt lat="45.12054" lon="5.56559">
        <ele>1166</ele>
        <time>2020-08-23T06:52:09Z</time>
      </trkpt>
      <trkpt lat="45.12053" lon="5.56559">
        <ele>1166.2</ele>
        <time>2020-08-23T06:52:10Z</time>
      </trkpt>
      <trkpt lat="45.12053" lon="5.56557">
        <ele>1166.4</ele>
        <time>2020-08-23T06:52:11Z</time>
      </trkpt>
      <trkpt lat="45.12052" lon="5.56556">
        <ele>1166.4</ele>
        <time>2020-08-23T06:52:12Z</time>
      </trkpt>
      <trkpt lat="45.12051" lon="5.56555">
        <ele>1166.6</ele>
        <time>2020-08-23T06:52:13Z</time>
      </trkpt>
      <trkpt lat="45.1205" lon="5.56554">
        <ele>1166.8</ele>
        <time>2020-08-23T06:52:14Z</time>
      </trkpt>
      <trkpt lat="45.12049" lon="5.56553">
        <ele>1166.8</ele>
        <time>2020-08-23T06:52:15Z</time>
      </trkpt>
      <trkpt lat="45.12047" lon="5.56552">
        <ele>1167</ele>
        <time>2020-08-23T06:52:16Z</time>
      </trkpt>
      <trkpt lat="45.12046" lon="5.56551">
        <ele>1167</ele>
        <time>2020-08-23T06:52:17Z</time>
      </trkpt>
      <trkpt lat="45.12045" lon="5.56549">
        <ele>1167.2</ele>
        <time>2020-08-23T06:52:18Z</time>
      </trkpt>
      <trkpt lat="45.12044" lon="5.56548">
        <ele>1167.2</ele>
        <time>2020-08-23T06:52:19Z</time>
      </trkpt>
      <trkpt lat="45.12043" lon="5.56547">
        <ele>1167.4</ele>
        <time>2020-08-23T06:52:20Z</time>
      </trkpt>
      <trkpt lat="45.12043" lon="5.56545">
        <ele>1167.6</ele>
        <time>2020-08-23T06:52:21Z</time>
      </trkpt>
      <trkpt lat="45.12042" lon="5.56544">
        <ele>1167.6</ele>
        <time>2020-08-23T06:52:22Z</time>
      </trkpt>
      <trkpt lat="45.12041" lon="5.56543">
        <ele>1167.8</ele>
        <time>2020-08-23T06:52:23Z</time>
      </trkpt>
      <trkpt lat="45.1204" lon="5.56542">
        <ele>1168</ele>
        <time>2020-08-23T06:52:24Z</time>
      </trkpt>
      <trkpt lat="45.1204" lon="5.5654">
        <ele>1168.2</ele>
        <time>2020-08-23T06:52:25Z</time>
      </trkpt>
      <trkpt lat="45.12039" lon="5.56539">
        <ele>1168.4</ele>
        <time>2020-08-23T06:52:26Z</time>
      </trkpt>
      <trkpt lat="45.12038" lon="5.56537">
        <ele>1168.6</ele>
        <time>2020-08-23T06:52:27Z</time>
      </trkpt>
      <trkpt lat="45.12038" lon="5.56535">
        <ele>1168.6</ele>
        <time>2020-08-23T06:52:28Z</time>
      </trkpt>
      <trkpt lat="45.12037" lon="5.56533">
        <ele>1168.8</ele>
        <time>2020-08-23T06:52:29Z</time>
      </trkpt>
      <trkpt lat="45.12036" lon="5.56531">
        <ele>1169</ele>
        <time>2020-08-23T06:52:30Z</time>
      </trkpt>
      <trkpt lat="45.12035" lon="5.56529">
        <ele>1169.2</ele>
        <time>2020-08-23T06:52:31Z</time>
      </trkpt>
      <trkpt lat="45.12035" lon="5.56528">
        <ele>1169.2</ele>
        <time>2020-08-23T06:52:32Z</time>
      </trkpt>
      <trkpt lat="45.12035" lon="5.56526">
        <ele>1169.4</ele>
        <time>2020-08-23T06:52:33Z</time>
      </trkpt>
      <trkpt lat="45.12035" lon="5.56524">
        <ele>1169.4</ele>
        <time>2020-08-23T06:52:34Z</time>
      </trkpt>
      <trkpt lat="45.12034" lon="5.56522">
        <ele>1169.6</ele>
        <time>2020-08-23T06:52:35Z</time>
      </trkpt>
      <trkpt lat="45.12033" lon="5.56519">
        <ele>1169.6</ele>
        <time>2020-08-23T06:52:36Z</time>
      </trkpt>
      <trkpt lat="45.12032" lon="5.56517">
        <ele>1169.8</ele>
        <time>2020-08-23T06:52:37Z</time>
      </trkpt>
      <trkpt lat="45.12032" lon="5.56516">
        <ele>1169.8</ele>
        <time>2020-08-23T06:52:38Z</time>
      </trkpt>
      <trkpt lat="45.12031" lon="5.56515">
        <ele>1169.8</ele>
        <time>2020-08-23T06:52:39Z</time>
      </trkpt>
      <trkpt lat="45.1203" lon="5.56514">
        <ele>1170</ele>
        <time>2020-08-23T06:52:40Z</time>
      </trkpt>
      <trkpt lat="45.12029" lon="5.56513">
        <ele>1170</ele>
        <time>2020-08-23T06:52:41Z</time>
      </trkpt>
      <trkpt lat="45.12028" lon="5.56511">
        <ele>1170</ele>
        <time>2020-08-23T06:52:42Z</time>
      </trkpt>
      <trkpt lat="45.12027" lon="5.5651">
        <ele>1170.2</ele>
        <time>2020-08-23T06:52:43Z</time>
      </trkpt>
      <trkpt lat="45.12026" lon="5.56508">
        <ele>1170.2</ele>
        <time>2020-08-23T06:52:44Z</time>
      </trkpt>
      <trkpt lat="45.12025" lon="5.56507">
        <ele>1170.4</ele>
        <time>2020-08-23T06:52:45Z</time>
      </trkpt>
      <trkpt lat="45.12024" lon="5.56506">
        <ele>1170.4</ele>
        <time>2020-08-23T06:52:46Z</time>
      </trkpt>
      <trkpt lat="45.12023" lon="5.56505">
        <ele>1170.4</ele>
        <time>2020-08-23T06:52:47Z</time>
      </trkpt>
      <trkpt lat="45.12021" lon="5.56504">
        <ele>1170.6</ele>
        <time>2020-08-23T06:52:48Z</time>
      </trkpt>
      <trkpt lat="45.1202" lon="5.56504">
        <ele>1170.6</ele>
        <time>2020-08-23T06:52:49Z</time>
      </trkpt>
      <trkpt lat="45.12019" lon="5.56503">
        <ele>1170.8</ele>
        <time>2020-08-23T06:52:50Z</time>
      </trkpt>
      <trkpt lat="45.12017" lon="5.56503">
        <ele>1170.8</ele>
        <time>2020-08-23T06:52:51Z</time>
      </trkpt>
      <trkpt lat="45.12016" lon="5.56502">
        <ele>1171</ele>
        <time>2020-08-23T06:52:52Z</time>
      </trkpt>
      <trkpt lat="45.12016" lon="5.56501">
        <ele>1171</ele>
        <time>2020-08-23T06:52:53Z</time>
      </trkpt>
      <trkpt lat="45.12014" lon="5.565">
        <ele>1171.2</ele>
        <time>2020-08-23T06:52:54Z</time>
      </trkpt>
      <trkpt lat="45.12013" lon="5.565">
        <ele>1171.2</ele>
        <time>2020-08-23T06:52:55Z</time>
      </trkpt>
      <trkpt lat="45.12011" lon="5.56498">
        <ele>1171.4</ele>
        <time>2020-08-23T06:52:56Z</time>
      </trkpt>
      <trkpt lat="45.1201" lon="5.56498">
        <ele>1171.4</ele>
        <time>2020-08-23T06:52:57Z</time>
      </trkpt>
      <trkpt lat="45.12009" lon="5.56497">
        <ele>1171.6</ele>
        <time>2020-08-23T06:52:58Z</time>
      </trkpt>
      <trkpt lat="45.12007" lon="5.56495">
        <ele>1171.8</ele>
        <time>2020-08-23T06:52:59Z</time>
      </trkpt>
      <trkpt lat="45.12006" lon="5.56493">
        <ele>1171.8</ele>
        <time>2020-08-23T06:53:00Z</time>
      </trkpt>
      <trkpt lat="45.12004" lon="5.56492">
        <ele>1172</ele>
        <time>2020-08-23T06:53:01Z</time>
      </trkpt>
      <trkpt lat="45.12003" lon="5.5649">
        <ele>1172</ele>
        <time>2020-08-23T06:53:02Z</time>
      </trkpt>
      <trkpt lat="45.12001" lon="5.56489">
        <ele>1172.2</ele>
        <time>2020-08-23T06:53:03Z</time>
      </trkpt>
      <trkpt lat="45.12" lon="5.56488">
        <ele>1172.4</ele>
        <time>2020-08-23T06:53:04Z</time>
      </trkpt>
      <trkpt lat="45.11999" lon="5.56487">
        <ele>1172.4</ele>
        <time>2020-08-23T06:53:05Z</time>
      </trkpt>
      <trkpt lat="45.11998" lon="5.56487">
        <ele>1172.6</ele>
        <time>2020-08-23T06:53:06Z</time>
      </trkpt>
      <trkpt lat="45.11997" lon="5.56485">
        <ele>1172.6</ele>
        <time>2020-08-23T06:53:07Z</time>
      </trkpt>
      <trkpt lat="45.11996" lon="5.56484">
        <ele>1172.8</ele>
        <time>2020-08-23T06:53:08Z</time>
      </trkpt>
      <trkpt lat="45.11995" lon="5.56482">
        <ele>1173</ele>
        <time>2020-08-23T06:53:09Z</time>
      </trkpt>
      <trkpt lat="45.11993" lon="5.56481">
        <ele>1173</ele>
        <time>2020-08-23T06:53:10Z</time>
      </trkpt>
      <trkpt lat="45.11992" lon="5.56479">
        <ele>1173.2</ele>
        <time>2020-08-23T06:53:11Z</time>
      </trkpt>
      <trkpt lat="45.1199" lon="5.56477">
        <ele>1173.4</ele>
        <time>2020-08-23T06:53:12Z</time>
      </trkpt>
      <trkpt lat="45.11989" lon="5.56476">
        <ele>1173.4</ele>
        <time>2020-08-23T06:53:13Z</time>
      </trkpt>
      <trkpt lat="45.11988" lon="5.56474">
        <ele>1173.6</ele>
        <time>2020-08-23T06:53:14Z</time>
      </trkpt>
      <trkpt lat="45.11987" lon="5.56471">
        <ele>1173.6</ele>
        <time>2020-08-23T06:53:15Z</time>
      </trkpt>
      <trkpt lat="45.11985" lon="5.5647">
        <ele>1173.8</ele>
        <time>2020-08-23T06:53:16Z</time>
      </trkpt>
      <trkpt lat="45.11984" lon="5.56468">
        <ele>1173.8</ele>
        <time>2020-08-23T06:53:17Z</time>
      </trkpt>
      <trkpt lat="45.11984" lon="5.56465">
        <ele>1174</ele>
        <time>2020-08-23T06:53:18Z</time>
      </trkpt>
      <trkpt lat="45.11983" lon="5.56463">
        <ele>1174</ele>
        <time>2020-08-23T06:53:19Z</time>
      </trkpt>
      <trkpt lat="45.11982" lon="5.56461">
        <ele>1174.2</ele>
        <time>2020-08-23T06:53:20Z</time>
      </trkpt>
      <trkpt lat="45.11982" lon="5.56459">
        <ele>1174.4</ele>
        <time>2020-08-23T06:53:21Z</time>
      </trkpt>
      <trkpt lat="45.11981" lon="5.56457">
        <ele>1174.4</ele>
        <time>2020-08-23T06:53:22Z</time>
      </trkpt>
      <trkpt lat="45.11981" lon="5.56455">
        <ele>1174.6</ele>
        <time>2020-08-23T06:53:23Z</time>
      </trkpt>
      <trkpt lat="45.1198" lon="5.56454">
        <ele>1174.6</ele>
        <time>2020-08-23T06:53:24Z</time>
      </trkpt>
      <trkpt lat="45.11979" lon="5.56452">
        <ele>1174.8</ele>
        <time>2020-08-23T06:53:25Z</time>
      </trkpt>
      <trkpt lat="45.11979" lon="5.56451">
        <ele>1174.8</ele>
        <time>2020-08-23T06:53:26Z</time>
      </trkpt>
      <trkpt lat="45.11979" lon="5.5645">
        <ele>1175</ele>
        <time>2020-08-23T06:53:27Z</time>
      </trkpt>
      <trkpt lat="45.11978" lon="5.56447">
        <ele>1175</ele>
        <time>2020-08-23T06:53:28Z</time>
      </trkpt>
      <trkpt lat="45.11978" lon="5.56445">
        <ele>1175.2</ele>
        <time>2020-08-23T06:53:29Z</time>
      </trkpt>
      <trkpt lat="45.11978" lon="5.56442">
        <ele>1175.2</ele>
        <time>2020-08-23T06:53:30Z</time>
      </trkpt>
      <trkpt lat="45.11978" lon="5.5644">
        <ele>1175.4</ele>
        <time>2020-08-23T06:53:31Z</time>
      </trkpt>
      <trkpt lat="45.11979" lon="5.56438">
        <ele>1175.4</ele>
        <time>2020-08-23T06:53:32Z</time>
      </trkpt>
      <trkpt lat="45.11979" lon="5.56436">
        <ele>1175.4</ele>
        <time>2020-08-23T06:53:33Z</time>
      </trkpt>
      <trkpt lat="45.1198" lon="5.56433">
        <ele>1175.6</ele>
        <time>2020-08-23T06:53:34Z</time>
      </trkpt>
      <trkpt lat="45.11981" lon="5.5643">
        <ele>1175.6</ele>
        <time>2020-08-23T06:53:35Z</time>
      </trkpt>
      <trkpt lat="45.11982" lon="5.56429">
        <ele>1175.8</ele>
        <time>2020-08-23T06:53:36Z</time>
      </trkpt>
      <trkpt lat="45.11982" lon="5.56427">
        <ele>1176</ele>
        <time>2020-08-23T06:53:37Z</time>
      </trkpt>
      <trkpt lat="45.11983" lon="5.56425">
        <ele>1176</ele>
        <time>2020-08-23T06:53:38Z</time>
      </trkpt>
      <trkpt lat="45.11984" lon="5.56423">
        <ele>1176.2</ele>
        <time>2020-08-23T06:53:39Z</time>
      </trkpt>
      <trkpt lat="45.11985" lon="5.5642">
        <ele>1176.4</ele>
        <time>2020-08-23T06:53:40Z</time>
      </trkpt>
      <trkpt lat="45.11986" lon="5.56418">
        <ele>1176.6</ele>
        <time>2020-08-23T06:53:41Z</time>
      </trkpt>
      <trkpt lat="45.11987" lon="5.56416">
        <ele>1176.8</ele>
        <time>2020-08-23T06:53:42Z</time>
      </trkpt>
      <trkpt lat="45.11988" lon="5.56414">
        <ele>1176.8</ele>
        <time>2020-08-23T06:53:43Z</time>
      </trkpt>
      <trkpt lat="45.1199" lon="5.56412">
        <ele>1177</ele>
        <time>2020-08-23T06:53:44Z</time>
      </trkpt>
      <trkpt lat="45.11991" lon="5.56411">
        <ele>1177.2</ele>
        <time>2020-08-23T06:53:45Z</time>
      </trkpt>
      <trkpt lat="45.11992" lon="5.56409">
        <ele>1177.4</ele>
        <time>2020-08-23T06:53:46Z</time>
      </trkpt>
      <trkpt lat="45.11993" lon="5.56407">
        <ele>1177.6</ele>
        <time>2020-08-23T06:53:47Z</time>
      </trkpt>
      <trkpt lat="45.11995" lon="5.56405">
        <ele>1177.8</ele>
        <time>2020-08-23T06:53:48Z</time>
      </trkpt>
      <trkpt lat="45.11996" lon="5.56404">
        <ele>1178</ele>
        <time>2020-08-23T06:53:49Z</time>
      </trkpt>
      <trkpt lat="45.11998" lon="5.56403">
        <ele>1178.2</ele>
        <time>2020-08-23T06:53:50Z</time>
      </trkpt>
      <trkpt lat="45.11999" lon="5.56401">
        <ele>1178.4</ele>
        <time>2020-08-23T06:53:51Z</time>
      </trkpt>
      <trkpt lat="45.12001" lon="5.564">
        <ele>1178.4</ele>
        <time>2020-08-23T06:53:52Z</time>
      </trkpt>
      <trkpt lat="45.12002" lon="5.56399">
        <ele>1178.6</ele>
        <time>2020-08-23T06:53:53Z</time>
      </trkpt>
      <trkpt lat="45.12004" lon="5.56398">
        <ele>1178.8</ele>
        <time>2020-08-23T06:53:54Z</time>
      </trkpt>
      <trkpt lat="45.12006" lon="5.56397">
        <ele>1179</ele>
        <time>2020-08-23T06:53:55Z</time>
      </trkpt>
      <trkpt lat="45.12007" lon="5.56396">
        <ele>1179.2</ele>
        <time>2020-08-23T06:53:56Z</time>
      </trkpt>
      <trkpt lat="45.12009" lon="5.56395">
        <ele>1179.4</ele>
        <time>2020-08-23T06:53:57Z</time>
      </trkpt>
      <trkpt lat="45.12011" lon="5.56393">
        <ele>1179.6</ele>
        <time>2020-08-23T06:53:58Z</time>
      </trkpt>
      <trkpt lat="45.12012" lon="5.56393">
        <ele>1179.8</ele>
        <time>2020-08-23T06:53:59Z</time>
      </trkpt>
      <trkpt lat="45.12014" lon="5.56391">
        <ele>1179.8</ele>
        <time>2020-08-23T06:54:00Z</time>
      </trkpt>
      <trkpt lat="45.12016" lon="5.5639">
        <ele>1180</ele>
        <time>2020-08-23T06:54:01Z</time>
      </trkpt>
      <trkpt lat="45.12017" lon="5.56389">
        <ele>1180.2</ele>
        <time>2020-08-23T06:54:02Z</time>
      </trkpt>
      <trkpt lat="45.12018" lon="5.56388">
        <ele>1180.4</ele>
        <time>2020-08-23T06:54:03Z</time>
      </trkpt>
      <trkpt lat="45.12019" lon="5.56387">
        <ele>1180.6</ele>
        <time>2020-08-23T06:54:04Z</time>
      </trkpt>
      <trkpt lat="45.12021" lon="5.56385">
        <ele>1180.8</ele>
        <time>2020-08-23T06:54:05Z</time>
      </trkpt>
      <trkpt lat="45.12023" lon="5.56383">
        <ele>1180.8</ele>
        <time>2020-08-23T06:54:06Z</time>
      </trkpt>
      <trkpt lat="45.12025" lon="5.5638">
        <ele>1181</ele>
        <time>2020-08-23T06:54:07Z</time>
      </trkpt>
      <trkpt lat="45.12027" lon="5.56378">
        <ele>1181</ele>
        <time>2020-08-23T06:54:08Z</time>
      </trkpt>
      <trkpt lat="45.12029" lon="5.56376">
        <ele>1181.2</ele>
        <time>2020-08-23T06:54:09Z</time>
      </trkpt>
      <trkpt lat="45.12032" lon="5.56374">
        <ele>1181.4</ele>
        <time>2020-08-23T06:54:10Z</time>
      </trkpt>
      <trkpt lat="45.12034" lon="5.56373">
        <ele>1181.4</ele>
        <time>2020-08-23T06:54:11Z</time>
      </trkpt>
      <trkpt lat="45.12036" lon="5.56372">
        <ele>1181.6</ele>
        <time>2020-08-23T06:54:12Z</time>
      </trkpt>
      <trkpt lat="45.12038" lon="5.56371">
        <ele>1181.6</ele>
        <time>2020-08-23T06:54:13Z</time>
      </trkpt>
      <trkpt lat="45.12041" lon="5.5637">
        <ele>1181.8</ele>
        <time>2020-08-23T06:54:14Z</time>
      </trkpt>
      <trkpt lat="45.12043" lon="5.56369">
        <ele>1181.8</ele>
        <time>2020-08-23T06:54:15Z</time>
      </trkpt>
      <trkpt lat="45.12046" lon="5.56368">
        <ele>1182</ele>
        <time>2020-08-23T06:54:16Z</time>
      </trkpt>
      <trkpt lat="45.12049" lon="5.56368">
        <ele>1182</ele>
        <time>2020-08-23T06:54:17Z</time>
      </trkpt>
      <trkpt lat="45.12052" lon="5.56367">
        <ele>1182.2</ele>
        <time>2020-08-23T06:54:18Z</time>
      </trkpt>
      <trkpt lat="45.12055" lon="5.56366">
        <ele>1182.2</ele>
        <time>2020-08-23T06:54:19Z</time>
      </trkpt>
      <trkpt lat="45.12058" lon="5.56365">
        <ele>1182.2</ele>
        <time>2020-08-23T06:54:20Z</time>
      </trkpt>
      <trkpt lat="45.12061" lon="5.56364">
        <ele>1182.4</ele>
        <time>2020-08-23T06:54:21Z</time>
      </trkpt>
      <trkpt lat="45.12064" lon="5.56363">
        <ele>1182.4</ele>
        <time>2020-08-23T06:54:22Z</time>
      </trkpt>
      <trkpt lat="45.12067" lon="5.56362">
        <ele>1182.4</ele>
        <time>2020-08-23T06:54:23Z</time>
      </trkpt>
      <trkpt lat="45.1207" lon="5.56361">
        <ele>1182.4</ele>
        <time>2020-08-23T06:54:24Z</time>
      </trkpt>
      <trkpt lat="45.12073" lon="5.5636">
        <ele>1182.6</ele>
        <time>2020-08-23T06:54:25Z</time>
      </trkpt>
      <trkpt lat="45.12075" lon="5.56359">
        <ele>1182.6</ele>
        <time>2020-08-23T06:54:26Z</time>
      </trkpt>
      <trkpt lat="45.12079" lon="5.56358">
        <ele>1182.8</ele>
        <time>2020-08-23T06:54:27Z</time>
      </trkpt>
      <trkpt lat="45.12082" lon="5.56357">
        <ele>1182.8</ele>
        <time>2020-08-23T06:54:28Z</time>
      </trkpt>
      <trkpt lat="45.12085" lon="5.56356">
        <ele>1182.8</ele>
        <time>2020-08-23T06:54:29Z</time>
      </trkpt>
      <trkpt lat="45.12087" lon="5.56355">
        <ele>1183</ele>
        <time>2020-08-23T06:54:30Z</time>
      </trkpt>
      <trkpt lat="45.1209" lon="5.56355">
        <ele>1183</ele>
        <time>2020-08-23T06:54:31Z</time>
      </trkpt>
      <trkpt lat="45.12093" lon="5.56354">
        <ele>1183</ele>
        <time>2020-08-23T06:54:32Z</time>
      </trkpt>
      <trkpt lat="45.12096" lon="5.56353">
        <ele>1183</ele>
        <time>2020-08-23T06:54:33Z</time>
      </trkpt>
      <trkpt lat="45.12099" lon="5.56352">
        <ele>1183</ele>
        <time>2020-08-23T06:54:34Z</time>
      </trkpt>
      <trkpt lat="45.12102" lon="5.5635">
        <ele>1183</ele>
        <time>2020-08-23T06:54:35Z</time>
      </trkpt>
      <trkpt lat="45.12105" lon="5.56349">
        <ele>1183</ele>
        <time>2020-08-23T06:54:36Z</time>
      </trkpt>
      <trkpt lat="45.12108" lon="5.56348">
        <ele>1183</ele>
        <time>2020-08-23T06:54:37Z</time>
      </trkpt>
      <trkpt lat="45.12111" lon="5.56346">
        <ele>1183</ele>
        <time>2020-08-23T06:54:38Z</time>
      </trkpt>
      <trkpt lat="45.12114" lon="5.56345">
        <ele>1183</ele>
        <time>2020-08-23T06:54:39Z</time>
      </trkpt>
      <trkpt lat="45.12117" lon="5.56343">
        <ele>1183.2</ele>
        <time>2020-08-23T06:54:40Z</time>
      </trkpt>
      <trkpt lat="45.1212" lon="5.56342">
        <ele>1183.2</ele>
        <time>2020-08-23T06:54:41Z</time>
      </trkpt>
      <trkpt lat="45.12123" lon="5.5634">
        <ele>1183.2</ele>
        <time>2020-08-23T06:54:42Z</time>
      </trkpt>
      <trkpt lat="45.12126" lon="5.56337">
        <ele>1183.2</ele>
        <time>2020-08-23T06:54:43Z</time>
      </trkpt>
      <trkpt lat="45.12129" lon="5.56335">
        <ele>1183.2</ele>
        <time>2020-08-23T06:54:44Z</time>
      </trkpt>
      <trkpt lat="45.12132" lon="5.56332">
        <ele>1183.2</ele>
        <time>2020-08-23T06:54:45Z</time>
      </trkpt>
      <trkpt lat="45.12135" lon="5.56329">
        <ele>1183</ele>
        <time>2020-08-23T06:54:46Z</time>
      </trkpt>
      <trkpt lat="45.12137" lon="5.56326">
        <ele>1182.8</ele>
        <time>2020-08-23T06:54:47Z</time>
      </trkpt>
      <trkpt lat="45.1214" lon="5.56323">
        <ele>1182.6</ele>
        <time>2020-08-23T06:54:48Z</time>
      </trkpt>
      <trkpt lat="45.12142" lon="5.56319">
        <ele>1182.4</ele>
        <time>2020-08-23T06:54:49Z</time>
      </trkpt>
      <trkpt lat="45.12145" lon="5.56316">
        <ele>1182</ele>
        <time>2020-08-23T06:54:50Z</time>
      </trkpt>
      <trkpt lat="45.12147" lon="5.56311">
        <ele>1181.8</ele>
        <time>2020-08-23T06:54:51Z</time>
      </trkpt>
      <trkpt lat="45.12149" lon="5.56307">
        <ele>1181.4</ele>
        <time>2020-08-23T06:54:52Z</time>
      </trkpt>
      <trkpt lat="45.12151" lon="5.56302">
        <ele>1181.2</ele>
        <time>2020-08-23T06:54:53Z</time>
      </trkpt>
      <trkpt lat="45.12152" lon="5.56297">
        <ele>1181</ele>
        <time>2020-08-23T06:54:54Z</time>
      </trkpt>
      <trkpt lat="45.12153" lon="5.56292">
        <ele>1180.8</ele>
        <time>2020-08-23T06:54:55Z</time>
      </trkpt>
      <trkpt lat="45.12153" lon="5.56287">
        <ele>1180.6</ele>
        <time>2020-08-23T06:54:56Z</time>
      </trkpt>
      <trkpt lat="45.12152" lon="5.56282">
        <ele>1180.4</ele>
        <time>2020-08-23T06:54:57Z</time>
      </trkpt>
      <trkpt lat="45.12151" lon="5.56277">
        <ele>1180.2</ele>
        <time>2020-08-23T06:54:58Z</time>
      </trkpt>
      <trkpt lat="45.12149" lon="5.56272">
        <ele>1179.8</ele>
        <time>2020-08-23T06:54:59Z</time>
      </trkpt>
      <trkpt lat="45.12147" lon="5.56268">
        <ele>1179.6</ele>
        <time>2020-08-23T06:55:00Z</time>
      </trkpt>
      <trkpt lat="45.12145" lon="5.56263">
        <ele>1179.2</ele>
        <time>2020-08-23T06:55:01Z</time>
      </trkpt>
      <trkpt lat="45.12143" lon="5.56259">
        <ele>1178.8</ele>
        <time>2020-08-23T06:55:02Z</time>
      </trkpt>
      <trkpt lat="45.12141" lon="5.56254">
        <ele>1178.4</ele>
        <time>2020-08-23T06:55:03Z</time>
      </trkpt>
      <trkpt lat="45.12138" lon="5.5625">
        <ele>1178</ele>
        <time>2020-08-23T06:55:04Z</time>
      </trkpt>
      <trkpt lat="45.12136" lon="5.56246">
        <ele>1177.6</ele>
        <time>2020-08-23T06:55:05Z</time>
      </trkpt>
      <trkpt lat="45.12134" lon="5.56242">
        <ele>1177.2</ele>
        <time>2020-08-23T06:55:06Z</time>
      </trkpt>
      <trkpt lat="45.12132" lon="5.56237">
        <ele>1176.6</ele>
        <time>2020-08-23T06:55:07Z</time>
      </trkpt>
      <trkpt lat="45.1213" lon="5.56232">
        <ele>1176.4</ele>
        <time>2020-08-23T06:55:08Z</time>
      </trkpt>
      <trkpt lat="45.12129" lon="5.56227">
        <ele>1176</ele>
        <time>2020-08-23T06:55:09Z</time>
      </trkpt>
      <trkpt lat="45.12128" lon="5.56222">
        <ele>1175.8</ele>
        <time>2020-08-23T06:55:10Z</time>
      </trkpt>
      <trkpt lat="45.12128" lon="5.56216">
        <ele>1175.6</ele>
        <time>2020-08-23T06:55:11Z</time>
      </trkpt>
      <trkpt lat="45.12129" lon="5.56211">
        <ele>1175.4</ele>
        <time>2020-08-23T06:55:12Z</time>
      </trkpt>
      <trkpt lat="45.12131" lon="5.56207">
        <ele>1175.4</ele>
        <time>2020-08-23T06:55:13Z</time>
      </trkpt>
      <trkpt lat="45.12133" lon="5.56203">
        <ele>1175.2</ele>
        <time>2020-08-23T06:55:14Z</time>
      </trkpt>
      <trkpt lat="45.12136" lon="5.56199">
        <ele>1175.2</ele>
        <time>2020-08-23T06:55:15Z</time>
      </trkpt>
      <trkpt lat="45.12139" lon="5.56196">
        <ele>1175</ele>
        <time>2020-08-23T06:55:16Z</time>
      </trkpt>
      <trkpt lat="45.12142" lon="5.56193">
        <ele>1175.2</ele>
        <time>2020-08-23T06:55:17Z</time>
      </trkpt>
      <trkpt lat="45.12145" lon="5.5619">
        <ele>1175.2</ele>
        <time>2020-08-23T06:55:18Z</time>
      </trkpt>
      <trkpt lat="45.12148" lon="5.56188">
        <ele>1175.2</ele>
        <time>2020-08-23T06:55:19Z</time>
      </trkpt>
      <trkpt lat="45.12151" lon="5.56187">
        <ele>1175.2</ele>
        <time>2020-08-23T06:55:20Z</time>
      </trkpt>
      <trkpt lat="45.12154" lon="5.56185">
        <ele>1175.2</ele>
        <time>2020-08-23T06:55:21Z</time>
      </trkpt>
      <trkpt lat="45.12157" lon="5.56183">
        <ele>1175.2</ele>
        <time>2020-08-23T06:55:22Z</time>
      </trkpt>
      <trkpt lat="45.1216" lon="5.56181">
        <ele>1175.4</ele>
        <time>2020-08-23T06:55:23Z</time>
      </trkpt>
      <trkpt lat="45.12164" lon="5.56179">
        <ele>1175.4</ele>
        <time>2020-08-23T06:55:24Z</time>
      </trkpt>
      <trkpt lat="45.12167" lon="5.56176">
        <ele>1175.6</ele>
        <time>2020-08-23T06:55:25Z</time>
      </trkpt>
      <trkpt lat="45.1217" lon="5.56173">
        <ele>1175.6</ele>
        <time>2020-08-23T06:55:26Z</time>
      </trkpt>
      <trkpt lat="45.12174" lon="5.5617">
        <ele>1175.8</ele>
        <time>2020-08-23T06:55:27Z</time>
      </trkpt>
      <trkpt lat="45.12178" lon="5.56167">
        <ele>1175.8</ele>
        <time>2020-08-23T06:55:28Z</time>
      </trkpt>
      <trkpt lat="45.12182" lon="5.56164">
        <ele>1176</ele>
        <time>2020-08-23T06:55:29Z</time>
      </trkpt>
      <trkpt lat="45.12185" lon="5.56161">
        <ele>1176</ele>
        <time>2020-08-23T06:55:30Z</time>
      </trkpt>
      <trkpt lat="45.12189" lon="5.56156">
        <ele>1176.2</ele>
        <time>2020-08-23T06:55:31Z</time>
      </trkpt>
      <trkpt lat="45.12193" lon="5.56153">
        <ele>1176.2</ele>
        <time>2020-08-23T06:55:32Z</time>
      </trkpt>
      <trkpt lat="45.12196" lon="5.5615">
        <ele>1176.4</ele>
        <time>2020-08-23T06:55:33Z</time>
      </trkpt>
      <trkpt lat="45.12201" lon="5.56147">
        <ele>1176.4</ele>
        <time>2020-08-23T06:55:34Z</time>
      </trkpt>
      <trkpt lat="45.12204" lon="5.56144">
        <ele>1176.4</ele>
        <time>2020-08-23T06:55:35Z</time>
      </trkpt>
      <trkpt lat="45.12209" lon="5.56141">
        <ele>1176.6</ele>
        <time>2020-08-23T06:55:36Z</time>
      </trkpt>
      <trkpt lat="45.12212" lon="5.56138">
        <ele>1176.6</ele>
        <time>2020-08-23T06:55:37Z</time>
      </trkpt>
      <trkpt lat="45.12216" lon="5.56135">
        <ele>1176.8</ele>
        <time>2020-08-23T06:55:38Z</time>
      </trkpt>
      <trkpt lat="45.1222" lon="5.56132">
        <ele>1176.8</ele>
        <time>2020-08-23T06:55:39Z</time>
      </trkpt>
      <trkpt lat="45.12225" lon="5.56129">
        <ele>1176.8</ele>
        <time>2020-08-23T06:55:40Z</time>
      </trkpt>
      <trkpt lat="45.12228" lon="5.56127">
        <ele>1177</ele>
        <time>2020-08-23T06:55:41Z</time>
      </trkpt>
      <trkpt lat="45.12232" lon="5.56124">
        <ele>1177</ele>
        <time>2020-08-23T06:55:42Z</time>
      </trkpt>
      <trkpt lat="45.12236" lon="5.56122">
        <ele>1177.2</ele>
        <time>2020-08-23T06:55:43Z</time>
      </trkpt>
      <trkpt lat="45.1224" lon="5.56119">
        <ele>1177.2</ele>
        <time>2020-08-23T06:55:44Z</time>
      </trkpt>
      <trkpt lat="45.12244" lon="5.56117">
        <ele>1177.4</ele>
        <time>2020-08-23T06:55:45Z</time>
      </trkpt>
      <trkpt lat="45.12248" lon="5.56115">
        <ele>1177.4</ele>
        <time>2020-08-23T06:55:46Z</time>
      </trkpt>
      <trkpt lat="45.12252" lon="5.56113">
        <ele>1177.6</ele>
        <time>2020-08-23T06:55:47Z</time>
      </trkpt>
      <trkpt lat="45.12256" lon="5.5611">
        <ele>1177.8</ele>
        <time>2020-08-23T06:55:48Z</time>
      </trkpt>
      <trkpt lat="45.1226" lon="5.56108">
        <ele>1177.8</ele>
        <time>2020-08-23T06:55:49Z</time>
      </trkpt>
      <trkpt lat="45.12264" lon="5.56105">
        <ele>1178</ele>
        <time>2020-08-23T06:55:50Z</time>
      </trkpt>
      <trkpt lat="45.12268" lon="5.56103">
        <ele>1178.2</ele>
        <time>2020-08-23T06:55:51Z</time>
      </trkpt>
      <trkpt lat="45.12272" lon="5.561">
        <ele>1178.2</ele>
        <time>2020-08-23T06:55:52Z</time>
      </trkpt>
      <trkpt lat="45.12276" lon="5.56098">
        <ele>1178.4</ele>
        <time>2020-08-23T06:55:53Z</time>
      </trkpt>
      <trkpt lat="45.1228" lon="5.56096">
        <ele>1178.4</ele>
        <time>2020-08-23T06:55:54Z</time>
      </trkpt>
      <trkpt lat="45.12285" lon="5.56094">
        <ele>1178.6</ele>
        <time>2020-08-23T06:55:55Z</time>
      </trkpt>
      <trkpt lat="45.12289" lon="5.56093">
        <ele>1178.6</ele>
        <time>2020-08-23T06:55:56Z</time>
      </trkpt>
      <trkpt lat="45.12293" lon="5.56092">
        <ele>1178.8</ele>
        <time>2020-08-23T06:55:57Z</time>
      </trkpt>
      <trkpt lat="45.12297" lon="5.56091">
        <ele>1178.8</ele>
        <time>2020-08-23T06:55:58Z</time>
      </trkpt>
      <trkpt lat="45.12302" lon="5.56091">
        <ele>1179</ele>
        <time>2020-08-23T06:55:59Z</time>
      </trkpt>
      <trkpt lat="45.12306" lon="5.56091">
        <ele>1179</ele>
        <time>2020-08-23T06:56:00Z</time>
      </trkpt>
      <trkpt lat="45.1231" lon="5.56092">
        <ele>1179.2</ele>
        <time>2020-08-23T06:56:01Z</time>
      </trkpt>
      <trkpt lat="45.12315" lon="5.56093">
        <ele>1179.4</ele>
        <time>2020-08-23T06:56:02Z</time>
      </trkpt>
      <trkpt lat="45.12319" lon="5.56094">
        <ele>1179.6</ele>
        <time>2020-08-23T06:56:03Z</time>
      </trkpt>
      <trkpt lat="45.12323" lon="5.56096">
        <ele>1179.6</ele>
        <time>2020-08-23T06:56:04Z</time>
      </trkpt>
      <trkpt lat="45.12327" lon="5.56098">
        <ele>1179.8</ele>
        <time>2020-08-23T06:56:05Z</time>
      </trkpt>
      <trkpt lat="45.12331" lon="5.561">
        <ele>1180</ele>
        <time>2020-08-23T06:56:06Z</time>
      </trkpt>
      <trkpt lat="45.12335" lon="5.56102">
        <ele>1180</ele>
        <time>2020-08-23T06:56:07Z</time>
      </trkpt>
      <trkpt lat="45.12339" lon="5.56104">
        <ele>1180.2</ele>
        <time>2020-08-23T06:56:08Z</time>
      </trkpt>
      <trkpt lat="45.12343" lon="5.56106">
        <ele>1180.2</ele>
        <time>2020-08-23T06:56:09Z</time>
      </trkpt>
      <trkpt lat="45.12347" lon="5.56109">
        <ele>1180.4</ele>
        <time>2020-08-23T06:56:10Z</time>
      </trkpt>
      <trkpt lat="45.12351" lon="5.56111">
        <ele>1180.6</ele>
        <time>2020-08-23T06:56:11Z</time>
      </trkpt>
      <trkpt lat="45.12354" lon="5.56114">
        <ele>1180.6</ele>
        <time>2020-08-23T06:56:12Z</time>
      </trkpt>
      <trkpt lat="45.12358" lon="5.56116">
        <ele>1180.8</ele>
        <time>2020-08-23T06:56:13Z</time>
      </trkpt>
      <trkpt lat="45.12362" lon="5.56118">
        <ele>1180.8</ele>
        <time>2020-08-23T06:56:14Z</time>
      </trkpt>
      <trkpt lat="45.12365" lon="5.56121">
        <ele>1181</ele>
        <time>2020-08-23T06:56:15Z</time>
      </trkpt>
      <trkpt lat="45.12369" lon="5.56123">
        <ele>1181</ele>
        <time>2020-08-23T06:56:16Z</time>
      </trkpt>
      <trkpt lat="45.12373" lon="5.56125">
        <ele>1181.2</ele>
        <time>2020-08-23T06:56:17Z</time>
      </trkpt>
      <trkpt lat="45.12376" lon="5.56127">
        <ele>1181.4</ele>
        <time>2020-08-23T06:56:18Z</time>
      </trkpt>
      <trkpt lat="45.12379" lon="5.56129">
        <ele>1181.4</ele>
        <time>2020-08-23T06:56:19Z</time>
      </trkpt>
      <trkpt lat="45.12382" lon="5.5613">
        <ele>1181.4</ele>
        <time>2020-08-23T06:56:20Z</time>
      </trkpt>
      <trkpt lat="45.12385" lon="5.56131">
        <ele>1181.6</ele>
        <time>2020-08-23T06:56:21Z</time>
      </trkpt>
      <trkpt lat="45.12388" lon="5.56132">
        <ele>1181.6</ele>
        <time>2020-08-23T06:56:22Z</time>
      </trkpt>
      <trkpt lat="45.1239" lon="5.56131">
        <ele>1181.8</ele>
        <time>2020-08-23T06:56:23Z</time>
      </trkpt>
      <trkpt lat="45.12392" lon="5.56129">
        <ele>1181.8</ele>
        <time>2020-08-23T06:56:24Z</time>
      </trkpt>
      <trkpt lat="45.12394" lon="5.56126">
        <ele>1181.8</ele>
        <time>2020-08-23T06:56:25Z</time>
      </trkpt>
      <trkpt lat="45.12397" lon="5.56122">
        <ele>1181.8</ele>
        <time>2020-08-23T06:56:26Z</time>
      </trkpt>
      <trkpt lat="45.124" lon="5.56119">
        <ele>1181.8</ele>
        <time>2020-08-23T06:56:27Z</time>
      </trkpt>
      <trkpt lat="45.12404" lon="5.56117">
        <ele>1182</ele>
        <time>2020-08-23T06:56:28Z</time>
      </trkpt>
      <trkpt lat="45.12406" lon="5.56116">
        <ele>1182</ele>
        <time>2020-08-23T06:56:29Z</time>
      </trkpt>
      <trkpt lat="45.12408" lon="5.56114">
        <ele>1182</ele>
        <time>2020-08-23T06:56:30Z</time>
      </trkpt>
      <trkpt lat="45.12411" lon="5.56113">
        <ele>1182</ele>
        <time>2020-08-23T06:56:31Z</time>
      </trkpt>
      <trkpt lat="45.12413" lon="5.56112">
        <ele>1182</ele>
        <time>2020-08-23T06:56:32Z</time>
      </trkpt>
      <trkpt lat="45.12415" lon="5.56111">
        <ele>1182</ele>
        <time>2020-08-23T06:56:33Z</time>
      </trkpt>
      <trkpt lat="45.12417" lon="5.5611">
        <ele>1182</ele>
        <time>2020-08-23T06:56:34Z</time>
      </trkpt>
      <trkpt lat="45.12418" lon="5.56109">
        <ele>1182</ele>
        <time>2020-08-23T06:56:35Z</time>
      </trkpt>
      <trkpt lat="45.1242" lon="5.56108">
        <ele>1182</ele>
        <time>2020-08-23T06:56:36Z</time>
      </trkpt>
      <trkpt lat="45.12422" lon="5.56107">
        <ele>1182</ele>
        <time>2020-08-23T06:56:37Z</time>
      </trkpt>
      <trkpt lat="45.12423" lon="5.56105">
        <ele>1182.2</ele>
        <time>2020-08-23T06:56:38Z</time>
      </trkpt>
      <trkpt lat="45.12425" lon="5.56104">
        <ele>1182.2</ele>
        <time>2020-08-23T06:56:39Z</time>
      </trkpt>
      <trkpt lat="45.12426" lon="5.56102">
        <ele>1182</ele>
        <time>2020-08-23T06:56:40Z</time>
      </trkpt>
      <trkpt lat="45.12428" lon="5.561">
        <ele>1182</ele>
        <time>2020-08-23T06:56:41Z</time>
      </trkpt>
      <trkpt lat="45.12429" lon="5.56098">
        <ele>1181.8</ele>
        <time>2020-08-23T06:56:42Z</time>
      </trkpt>
      <trkpt lat="45.1243" lon="5.56096">
        <ele>1181.8</ele>
        <time>2020-08-23T06:56:43Z</time>
      </trkpt>
      <trkpt lat="45.12431" lon="5.56093">
        <ele>1181.6</ele>
        <time>2020-08-23T06:56:44Z</time>
      </trkpt>
      <trkpt lat="45.12432" lon="5.56091">
        <ele>1181.6</ele>
        <time>2020-08-23T06:56:45Z</time>
      </trkpt>
      <trkpt lat="45.12432" lon="5.56088">
        <ele>1181.4</ele>
        <time>2020-08-23T06:56:46Z</time>
      </trkpt>
      <trkpt lat="45.12431" lon="5.56086">
        <ele>1181.4</ele>
        <time>2020-08-23T06:56:47Z</time>
      </trkpt>
      <trkpt lat="45.12431" lon="5.56084">
        <ele>1181.2</ele>
        <time>2020-08-23T06:56:48Z</time>
      </trkpt>
      <trkpt lat="45.12431" lon="5.56082">
        <ele>1181</ele>
        <time>2020-08-23T06:56:49Z</time>
      </trkpt>
      <trkpt lat="45.1243" lon="5.5608">
        <ele>1180.8</ele>
        <time>2020-08-23T06:56:50Z</time>
      </trkpt>
      <trkpt lat="45.12429" lon="5.56078">
        <ele>1180.4</ele>
        <time>2020-08-23T06:56:51Z</time>
      </trkpt>
      <trkpt lat="45.12429" lon="5.56076">
        <ele>1180.2</ele>
        <time>2020-08-23T06:56:52Z</time>
      </trkpt>
      <trkpt lat="45.12428" lon="5.56074">
        <ele>1179.8</ele>
        <time>2020-08-23T06:56:53Z</time>
      </trkpt>
      <trkpt lat="45.12428" lon="5.56072">
        <ele>1179.6</ele>
        <time>2020-08-23T06:56:54Z</time>
      </trkpt>
      <trkpt lat="45.12428" lon="5.56071">
        <ele>1179.4</ele>
        <time>2020-08-23T06:56:55Z</time>
      </trkpt>
      <trkpt lat="45.12427" lon="5.56069">
        <ele>1179.2</ele>
        <time>2020-08-23T06:56:56Z</time>
      </trkpt>
      <trkpt lat="45.12426" lon="5.56067">
        <ele>1179.2</ele>
        <time>2020-08-23T06:56:57Z</time>
      </trkpt>
      <trkpt lat="45.12426" lon="5.56065">
        <ele>1179.2</ele>
        <time>2020-08-23T06:56:58Z</time>
      </trkpt>
      <trkpt lat="45.12425" lon="5.56063">
        <ele>1179.2</ele>
        <time>2020-08-23T06:56:59Z</time>
      </trkpt>
      <trkpt lat="45.12424" lon="5.56061">
        <ele>1179.2</ele>
        <time>2020-08-23T06:57:00Z</time>
      </trkpt>
      <trkpt lat="45.12423" lon="5.5606">
        <ele>1179.2</ele>
        <time>2020-08-23T06:57:01Z</time>
      </trkpt>
      <trkpt lat="45.12423" lon="5.56058">
        <ele>1179.2</ele>
        <time>2020-08-23T06:57:02Z</time>
      </trkpt>
      <trkpt lat="45.12421" lon="5.56056">
        <ele>1179.4</ele>
        <time>2020-08-23T06:57:03Z</time>
      </trkpt>
      <trkpt lat="45.1242" lon="5.56055">
        <ele>1179.4</ele>
        <time>2020-08-23T06:57:04Z</time>
      </trkpt>
      <trkpt lat="45.1242" lon="5.56053">
        <ele>1179.6</ele>
        <time>2020-08-23T06:57:05Z</time>
      </trkpt>
      <trkpt lat="45.12418" lon="5.56051">
        <ele>1179.6</ele>
        <time>2020-08-23T06:57:06Z</time>
      </trkpt>
      <trkpt lat="45.12417" lon="5.5605">
        <ele>1179.8</ele>
        <time>2020-08-23T06:57:07Z</time>
      </trkpt>
      <trkpt lat="45.12416" lon="5.56048">
        <ele>1179.8</ele>
        <time>2020-08-23T06:57:08Z</time>
      </trkpt>
      <trkpt lat="45.12415" lon="5.56046">
        <ele>1180</ele>
        <time>2020-08-23T06:57:09Z</time>
      </trkpt>
      <trkpt lat="45.12413" lon="5.56044">
        <ele>1180.2</ele>
        <time>2020-08-23T06:57:10Z</time>
      </trkpt>
      <trkpt lat="45.12412" lon="5.56043">
        <ele>1180.2</ele>
        <time>2020-08-23T06:57:11Z</time>
      </trkpt>
      <trkpt lat="45.12411" lon="5.56041">
        <ele>1180.4</ele>
        <time>2020-08-23T06:57:12Z</time>
      </trkpt>
      <trkpt lat="45.12409" lon="5.5604">
        <ele>1180.6</ele>
        <time>2020-08-23T06:57:13Z</time>
      </trkpt>
      <trkpt lat="45.12408" lon="5.56038">
        <ele>1180.8</ele>
        <time>2020-08-23T06:57:14Z</time>
      </trkpt>
      <trkpt lat="45.12407" lon="5.56037">
        <ele>1181</ele>
        <time>2020-08-23T06:57:15Z</time>
      </trkpt>
      <trkpt lat="45.12405" lon="5.56036">
        <ele>1181</ele>
        <time>2020-08-23T06:57:16Z</time>
      </trkpt>
      <trkpt lat="45.12404" lon="5.56035">
        <ele>1181.2</ele>
        <time>2020-08-23T06:57:17Z</time>
      </trkpt>
      <trkpt lat="45.12403" lon="5.56033">
        <ele>1181.4</ele>
        <time>2020-08-23T06:57:18Z</time>
      </trkpt>
      <trkpt lat="45.12402" lon="5.56032">
        <ele>1181.6</ele>
        <time>2020-08-23T06:57:19Z</time>
      </trkpt>
      <trkpt lat="45.124" lon="5.56031">
        <ele>1181.8</ele>
        <time>2020-08-23T06:57:20Z</time>
      </trkpt>
      <trkpt lat="45.12399" lon="5.56029">
        <ele>1182</ele>
        <time>2020-08-23T06:57:21Z</time>
      </trkpt>
      <trkpt lat="45.12397" lon="5.56028">
        <ele>1182</ele>
        <time>2020-08-23T06:57:22Z</time>
      </trkpt>
      <trkpt lat="45.12396" lon="5.56027">
        <ele>1182.2</ele>
        <time>2020-08-23T06:57:23Z</time>
      </trkpt>
      <trkpt lat="45.12395" lon="5.56026">
        <ele>1182.4</ele>
        <time>2020-08-23T06:57:24Z</time>
      </trkpt>
      <trkpt lat="45.12393" lon="5.56025">
        <ele>1182.6</ele>
        <time>2020-08-23T06:57:25Z</time>
      </trkpt>
      <trkpt lat="45.12391" lon="5.56024">
        <ele>1182.8</ele>
        <time>2020-08-23T06:57:26Z</time>
      </trkpt>
      <trkpt lat="45.1239" lon="5.56022">
        <ele>1183</ele>
        <time>2020-08-23T06:57:27Z</time>
      </trkpt>
      <trkpt lat="45.12388" lon="5.5602">
        <ele>1183.2</ele>
        <time>2020-08-23T06:57:28Z</time>
      </trkpt>
      <trkpt lat="45.12387" lon="5.56018">
        <ele>1183.4</ele>
        <time>2020-08-23T06:57:29Z</time>
      </trkpt>
      <trkpt lat="45.12385" lon="5.56016">
        <ele>1183.6</ele>
        <time>2020-08-23T06:57:30Z</time>
      </trkpt>
      <trkpt lat="45.12384" lon="5.56015">
        <ele>1183.8</ele>
        <time>2020-08-23T06:57:31Z</time>
      </trkpt>
      <trkpt lat="45.12383" lon="5.56013">
        <ele>1184</ele>
        <time>2020-08-23T06:57:32Z</time>
      </trkpt>
      <trkpt lat="45.12381" lon="5.56011">
        <ele>1184.2</ele>
        <time>2020-08-23T06:57:33Z</time>
      </trkpt>
      <trkpt lat="45.1238" lon="5.56009">
        <ele>1184.4</ele>
        <time>2020-08-23T06:57:34Z</time>
      </trkpt>
      <trkpt lat="45.12378" lon="5.56006">
        <ele>1184.4</ele>
        <time>2020-08-23T06:57:35Z</time>
      </trkpt>
      <trkpt lat="45.12376" lon="5.56004">
        <ele>1184.6</ele>
        <time>2020-08-23T06:57:36Z</time>
      </trkpt>
      <trkpt lat="45.12374" lon="5.56002">
        <ele>1184.8</ele>
        <time>2020-08-23T06:57:37Z</time>
      </trkpt>
      <trkpt lat="45.12373" lon="5.55999">
        <ele>1185</ele>
        <time>2020-08-23T06:57:38Z</time>
      </trkpt>
      <trkpt lat="45.12371" lon="5.55996">
        <ele>1185.2</ele>
        <time>2020-08-23T06:57:39Z</time>
      </trkpt>
      <trkpt lat="45.1237" lon="5.55993">
        <ele>1185.4</ele>
        <time>2020-08-23T06:57:40Z</time>
      </trkpt>
      <trkpt lat="45.1237" lon="5.5599">
        <ele>1185.6</ele>
        <time>2020-08-23T06:57:41Z</time>
      </trkpt>
      <trkpt lat="45.12368" lon="5.55986">
        <ele>1185.8</ele>
        <time>2020-08-23T06:57:42Z</time>
      </trkpt>
      <trkpt lat="45.12368" lon="5.55982">
        <ele>1186</ele>
        <time>2020-08-23T06:57:43Z</time>
      </trkpt>
      <trkpt lat="45.12367" lon="5.55978">
        <ele>1186.2</ele>
        <time>2020-08-23T06:57:44Z</time>
      </trkpt>
      <trkpt lat="45.12367" lon="5.55974">
        <ele>1186.4</ele>
        <time>2020-08-23T06:57:45Z</time>
      </trkpt>
      <trkpt lat="45.12367" lon="5.5597">
        <ele>1186.6</ele>
        <time>2020-08-23T06:57:46Z</time>
      </trkpt>
      <trkpt lat="45.12367" lon="5.55966">
        <ele>1186.8</ele>
        <time>2020-08-23T06:57:47Z</time>
      </trkpt>
      <trkpt lat="45.12366" lon="5.55963">
        <ele>1187</ele>
        <time>2020-08-23T06:57:48Z</time>
      </trkpt>
      <trkpt lat="45.12367" lon="5.55959">
        <ele>1187</ele>
        <time>2020-08-23T06:57:49Z</time>
      </trkpt>
      <trkpt lat="45.12367" lon="5.55955">
        <ele>1187.2</ele>
        <time>2020-08-23T06:57:50Z</time>
      </trkpt>
      <trkpt lat="45.12367" lon="5.55951">
        <ele>1187.4</ele>
        <time>2020-08-23T06:57:51Z</time>
      </trkpt>
      <trkpt lat="45.12367" lon="5.55948">
        <ele>1187.6</ele>
        <time>2020-08-23T06:57:52Z</time>
      </trkpt>
      <trkpt lat="45.12368" lon="5.55945">
        <ele>1187.8</ele>
        <time>2020-08-23T06:57:53Z</time>
      </trkpt>
      <trkpt lat="45.12368" lon="5.55941">
        <ele>1187.8</ele>
        <time>2020-08-23T06:57:54Z</time>
      </trkpt>
      <trkpt lat="45.12368" lon="5.55938">
        <ele>1188</ele>
        <time>2020-08-23T06:57:55Z</time>
      </trkpt>
      <trkpt lat="45.12369" lon="5.55934">
        <ele>1188.2</ele>
        <time>2020-08-23T06:57:56Z</time>
      </trkpt>
      <trkpt lat="45.1237" lon="5.55931">
        <ele>1188.4</ele>
        <time>2020-08-23T06:57:57Z</time>
      </trkpt>
      <trkpt lat="45.1237" lon="5.55928">
        <ele>1188.6</ele>
        <time>2020-08-23T06:57:58Z</time>
      </trkpt>
      <trkpt lat="45.1237" lon="5.55924">
        <ele>1188.8</ele>
        <time>2020-08-23T06:57:59Z</time>
      </trkpt>
      <trkpt lat="45.12371" lon="5.5592">
        <ele>1189</ele>
        <time>2020-08-23T06:58:00Z</time>
      </trkpt>
      <trkpt lat="45.12371" lon="5.55917">
        <ele>1189</ele>
        <time>2020-08-23T06:58:01Z</time>
      </trkpt>
      <trkpt lat="45.12371" lon="5.55913">
        <ele>1189.2</ele>
        <time>2020-08-23T06:58:02Z</time>
      </trkpt>
      <trkpt lat="45.12372" lon="5.5591">
        <ele>1189.4</ele>
        <time>2020-08-23T06:58:03Z</time>
      </trkpt>
      <trkpt lat="45.12373" lon="5.55907">
        <ele>1189.6</ele>
        <time>2020-08-23T06:58:04Z</time>
      </trkpt>
      <trkpt lat="45.12373" lon="5.55904">
        <ele>1189.8</ele>
        <time>2020-08-23T06:58:05Z</time>
      </trkpt>
      <trkpt lat="45.12373" lon="5.55902">
        <ele>1190</ele>
        <time>2020-08-23T06:58:06Z</time>
      </trkpt>
      <trkpt lat="45.12374" lon="5.559">
        <ele>1190</ele>
        <time>2020-08-23T06:58:07Z</time>
      </trkpt>
      <trkpt lat="45.12374" lon="5.55897">
        <ele>1190.2</ele>
        <time>2020-08-23T06:58:08Z</time>
      </trkpt>
      <trkpt lat="45.12375" lon="5.55895">
        <ele>1190.4</ele>
        <time>2020-08-23T06:58:09Z</time>
      </trkpt>
      <trkpt lat="45.12376" lon="5.55893">
        <ele>1190.6</ele>
        <time>2020-08-23T06:58:10Z</time>
      </trkpt>
      <trkpt lat="45.12377" lon="5.55891">
        <ele>1190.8</ele>
        <time>2020-08-23T06:58:11Z</time>
      </trkpt>
      <trkpt lat="45.12377" lon="5.55889">
        <ele>1191</ele>
        <time>2020-08-23T06:58:12Z</time>
      </trkpt>
      <trkpt lat="45.12378" lon="5.55886">
        <ele>1191.2</ele>
        <time>2020-08-23T06:58:13Z</time>
      </trkpt>
      <trkpt lat="45.12378" lon="5.55884">
        <ele>1191.4</ele>
        <time>2020-08-23T06:58:14Z</time>
      </trkpt>
      <trkpt lat="45.12379" lon="5.55881">
        <ele>1191.6</ele>
        <time>2020-08-23T06:58:15Z</time>
      </trkpt>
      <trkpt lat="45.1238" lon="5.55878">
        <ele>1191.8</ele>
        <time>2020-08-23T06:58:16Z</time>
      </trkpt>
      <trkpt lat="45.1238" lon="5.55876">
        <ele>1191.8</ele>
        <time>2020-08-23T06:58:17Z</time>
      </trkpt>
      <trkpt lat="45.12381" lon="5.55874">
        <ele>1192</ele>
        <time>2020-08-23T06:58:18Z</time>
      </trkpt>
      <trkpt lat="45.12382" lon="5.55871">
        <ele>1192.4</ele>
        <time>2020-08-23T06:58:19Z</time>
      </trkpt>
      <trkpt lat="45.12383" lon="5.5587">
        <ele>1192.6</ele>
        <time>2020-08-23T06:58:20Z</time>
      </trkpt>
      <trkpt lat="45.12383" lon="5.55868">
        <ele>1192.6</ele>
        <time>2020-08-23T06:58:21Z</time>
      </trkpt>
      <trkpt lat="45.12384" lon="5.55867">
        <ele>1192.8</ele>
        <time>2020-08-23T06:58:22Z</time>
      </trkpt>
      <trkpt lat="45.12384" lon="5.55867">
        <ele>1193</ele>
        <time>2020-08-23T06:58:23Z</time>
      </trkpt>
      <trkpt lat="45.12384" lon="5.55863">
        <ele>1193.2</ele>
        <time>2020-08-23T06:58:24Z</time>
      </trkpt>
      <trkpt lat="45.12385" lon="5.5586">
        <ele>1193.4</ele>
        <time>2020-08-23T06:58:25Z</time>
      </trkpt>
      <trkpt lat="45.12386" lon="5.55858">
        <ele>1193.6</ele>
        <time>2020-08-23T06:58:26Z</time>
      </trkpt>
      <trkpt lat="45.12388" lon="5.55848">
        <ele>1194.2</ele>
        <time>2020-08-23T06:58:30Z</time>
      </trkpt>
      <trkpt lat="45.12389" lon="5.55845">
        <ele>1194.4</ele>
        <time>2020-08-23T06:58:31Z</time>
      </trkpt>
      <trkpt lat="45.1239" lon="5.55843">
        <ele>1194.4</ele>
        <time>2020-08-23T06:58:32Z</time>
      </trkpt>
      <trkpt lat="45.12391" lon="5.55841">
        <ele>1194.6</ele>
        <time>2020-08-23T06:58:33Z</time>
      </trkpt>
      <trkpt lat="45.12391" lon="5.55839">
        <ele>1194.8</ele>
        <time>2020-08-23T06:58:34Z</time>
      </trkpt>
      <trkpt lat="45.12392" lon="5.55837">
        <ele>1194.8</ele>
        <time>2020-08-23T06:58:35Z</time>
      </trkpt>
      <trkpt lat="45.12394" lon="5.55803">
        <ele>1211.2</ele>
        <time>2020-07-19T07:33:37.000Z</time>
      </trkpt>
      <trkpt lat="45.12401" lon="5.55794">
        <ele>1212.2</ele>
        <time>2020-07-19T07:33:43.000Z</time>
      </trkpt>
      <trkpt lat="45.12407" lon="5.5579">
        <ele>1213</ele>
        <time>2020-07-19T07:33:47.000Z</time>
      </trkpt>
      <trkpt lat="45.12415" lon="5.55784">
        <ele>1213.8</ele>
        <time>2020-07-19T07:33:52.000Z</time>
      </trkpt>
      <trkpt lat="45.12423" lon="5.55778">
        <ele>1214.4</ele>
        <time>2020-07-19T07:33:56.000Z</time>
      </trkpt>
      <trkpt lat="45.12431" lon="5.55771">
        <ele>1215</ele>
        <time>2020-07-19T07:34:00.000Z</time>
      </trkpt>
      <trkpt lat="45.12437" lon="5.55764">
        <ele>1215.4</ele>
        <time>2020-07-19T07:34:04.000Z</time>
      </trkpt>
      <trkpt lat="45.12441" lon="5.55751">
        <ele>1216</ele>
        <time>2020-07-19T07:34:08.000Z</time>
      </trkpt>
      <trkpt lat="45.12441" lon="5.55741">
        <ele>1216.4</ele>
        <time>2020-07-19T07:34:11.000Z</time>
      </trkpt>
      <trkpt lat="45.12441" lon="5.55728">
        <ele>1217</ele>
        <time>2020-07-19T07:34:15.000Z</time>
      </trkpt>
      <trkpt lat="45.12437" lon="5.5572">
        <ele>1217.4</ele>
        <time>2020-07-19T07:34:19.000Z</time>
      </trkpt>
      <trkpt lat="45.1243" lon="5.55713">
        <ele>1218</ele>
        <time>2020-07-19T07:34:24.000Z</time>
      </trkpt>
      <trkpt lat="45.12426" lon="5.55712">
        <ele>1218.4</ele>
        <time>2020-07-19T07:34:28.000Z</time>
      </trkpt>
      <trkpt lat="45.12418" lon="5.55711">
        <ele>1219.8</ele>
        <time>2020-07-19T07:34:45.000Z</time>
      </trkpt>
      <trkpt lat="45.12413" lon="5.55711">
        <ele>1220</ele>
        <time>2020-07-19T07:34:47.000Z</time>
      </trkpt>
      <trkpt lat="45.12407" lon="5.55708">
        <ele>1220.4</ele>
        <time>2020-07-19T07:34:50.000Z</time>
      </trkpt>
      <trkpt lat="45.12402" lon="5.55707">
        <ele>1220.6</ele>
        <time>2020-07-19T07:34:52.000Z</time>
      </trkpt>
      <trkpt lat="45.12396" lon="5.55703">
        <ele>1220.8</ele>
        <time>2020-07-19T07:34:55.000Z</time>
      </trkpt>
      <trkpt lat="45.12389" lon="5.55697">
        <ele>1221.2</ele>
        <time>2020-07-19T07:34:58.000Z</time>
      </trkpt>
      <trkpt lat="45.12383" lon="5.55691">
        <ele>1221.4</ele>
        <time>2020-07-19T07:35:00.000Z</time>
      </trkpt>
      <trkpt lat="45.12379" lon="5.55685">
        <ele>1221.8</ele>
        <time>2020-07-19T07:35:02.000Z</time>
      </trkpt>
      <trkpt lat="45.12376" lon="5.55673">
        <ele>1222.2</ele>
        <time>2020-07-19T07:35:05.000Z</time>
      </trkpt>
      <trkpt lat="45.12374" lon="5.55661">
        <ele>1222.8</ele>
        <time>2020-07-19T07:35:09.000Z</time>
      </trkpt>
      <trkpt lat="45.12373" lon="5.55648">
        <ele>1223.4</ele>
        <time>2020-07-19T07:35:12.000Z</time>
      </trkpt>
      <trkpt lat="45.12373" lon="5.55644">
        <ele>1223.6</ele>
        <time>2020-07-19T07:35:13.000Z</time>
      </trkpt>
      <trkpt lat="45.12372" lon="5.55631">
        <ele>1224</ele>
        <time>2020-07-19T07:35:16.000Z</time>
      </trkpt>
      <trkpt lat="45.12371" lon="5.5562">
        <ele>1224.6</ele>
        <time>2020-07-19T07:35:19.000Z</time>
      </trkpt>
      <trkpt lat="45.1237" lon="5.55612">
        <ele>1224.8</ele>
        <time>2020-07-19T07:35:21.000Z</time>
      </trkpt>
      <trkpt lat="45.1237" lon="5.55597">
        <ele>1225.6</ele>
        <time>2020-07-19T07:35:25.000Z</time>
      </trkpt>
      <trkpt lat="45.1237" lon="5.55593">
        <ele>1225.8</ele>
        <time>2020-07-19T07:35:26.000Z</time>
      </trkpt>
      <trkpt lat="45.1237" lon="5.55577">
        <ele>1226.4</ele>
        <time>2020-07-19T07:35:30.000Z</time>
      </trkpt>
      <trkpt lat="45.12371" lon="5.55565">
        <ele>1226.8</ele>
        <time>2020-07-19T07:35:33.000Z</time>
      </trkpt>
      <trkpt lat="45.12371" lon="5.55556">
        <ele>1227.2</ele>
        <time>2020-07-19T07:35:35.000Z</time>
      </trkpt>
      <trkpt lat="45.12371" lon="5.55547">
        <ele>1227.6</ele>
        <time>2020-07-19T07:35:37.000Z</time>
      </trkpt>
      <trkpt lat="45.12372" lon="5.55539">
        <ele>1227.8</ele>
        <time>2020-07-19T07:35:39.000Z</time>
      </trkpt>
      <trkpt lat="45.12373" lon="5.55528">
        <ele>1228.2</ele>
        <time>2020-07-19T07:35:42.000Z</time>
      </trkpt>
      <trkpt lat="45.12373" lon="5.55517">
        <ele>1228.6</ele>
        <time>2020-07-19T07:35:45.000Z</time>
      </trkpt>
      <trkpt lat="45.12375" lon="5.5551">
        <ele>1228.8</ele>
        <time>2020-07-19T07:35:47.000Z</time>
      </trkpt>
      <trkpt lat="45.12378" lon="5.55496">
        <ele>1229.4</ele>
        <time>2020-07-19T07:35:51.000Z</time>
      </trkpt>
      <trkpt lat="45.1238" lon="5.55489">
        <ele>1229.8</ele>
        <time>2020-07-19T07:35:53.000Z</time>
      </trkpt>
      <trkpt lat="45.12381" lon="5.55477">
        <ele>1230.4</ele>
        <time>2020-07-19T07:35:57.000Z</time>
      </trkpt>
      <trkpt lat="45.12382" lon="5.55471">
        <ele>1230.8</ele>
        <time>2020-07-19T07:35:59.000Z</time>
      </trkpt>
      <trkpt lat="45.12386" lon="5.55461">
        <ele>1231</ele>
        <time>2020-07-19T07:36:02.000Z</time>
      </trkpt>
      <trkpt lat="45.12388" lon="5.55453">
        <ele>1231.2</ele>
        <time>2020-07-19T07:36:04.000Z</time>
      </trkpt>
      <trkpt lat="45.12392" lon="5.5544">
        <ele>1231.8</ele>
        <time>2020-07-19T07:36:08.000Z</time>
      </trkpt>
      <trkpt lat="45.12396" lon="5.55428">
        <ele>1232.2</ele>
        <time>2020-07-19T07:36:12.000Z</time>
      </trkpt>
      <trkpt lat="45.124" lon="5.55422">
        <ele>1232.4</ele>
        <time>2020-07-19T07:36:14.000Z</time>
      </trkpt>
      <trkpt lat="45.12405" lon="5.55409">
        <ele>1232.8</ele>
        <time>2020-07-19T07:36:18.000Z</time>
      </trkpt>
      <trkpt lat="45.1241" lon="5.554">
        <ele>1233.2</ele>
        <time>2020-07-19T07:36:21.000Z</time>
      </trkpt>
      <trkpt lat="45.12414" lon="5.55392">
        <ele>1233.6</ele>
        <time>2020-07-19T07:36:24.000Z</time>
      </trkpt>
      <trkpt lat="45.12418" lon="5.55382">
        <ele>1234</ele>
        <time>2020-07-19T07:36:27.000Z</time>
      </trkpt>
      <trkpt lat="45.12421" lon="5.55376">
        <ele>1234.2</ele>
        <time>2020-07-19T07:36:29.000Z</time>
      </trkpt>
      <trkpt lat="45.12427" lon="5.55366">
        <ele>1234.8</ele>
        <time>2020-07-19T07:36:32.000Z</time>
      </trkpt>
      <trkpt lat="45.12434" lon="5.55352">
        <ele>1235.4</ele>
        <time>2020-07-19T07:36:36.000Z</time>
      </trkpt>
      <trkpt lat="45.12439" lon="5.5534">
        <ele>1236.2</ele>
        <time>2020-07-19T07:36:40.000Z</time>
      </trkpt>
      <trkpt lat="45.12448" lon="5.55328">
        <ele>1237</ele>
        <time>2020-07-19T07:36:44.000Z</time>
      </trkpt>
      <trkpt lat="45.12452" lon="5.55321">
        <ele>1237.4</ele>
        <time>2020-07-19T07:36:46.000Z</time>
      </trkpt>
      <trkpt lat="45.12455" lon="5.55314">
        <ele>1237.8</ele>
        <time>2020-07-19T07:36:48.000Z</time>
      </trkpt>
      <trkpt lat="45.1246" lon="5.55305">
        <ele>1238.2</ele>
        <time>2020-07-19T07:36:51.000Z</time>
      </trkpt>
      <trkpt lat="45.12465" lon="5.55296">
        <ele>1238.8</ele>
        <time>2020-07-19T07:36:54.000Z</time>
      </trkpt>
      <trkpt lat="45.12468" lon="5.55285">
        <ele>1239.4</ele>
        <time>2020-07-19T07:36:57.000Z</time>
      </trkpt>
      <trkpt lat="45.12471" lon="5.55272">
        <ele>1240</ele>
        <time>2020-07-19T07:37:00.000Z</time>
      </trkpt>
      <trkpt lat="45.12474" lon="5.5526">
        <ele>1240.6</ele>
        <time>2020-07-19T07:37:03.000Z</time>
      </trkpt>
      <trkpt lat="45.12477" lon="5.55245">
        <ele>1241</ele>
        <time>2020-07-19T07:37:07.000Z</time>
      </trkpt>
      <trkpt lat="45.1248" lon="5.55235">
        <ele>1241.6</ele>
        <time>2020-07-19T07:37:10.000Z</time>
      </trkpt>
      <trkpt lat="45.12481" lon="5.55219">
        <ele>1242</ele>
        <time>2020-07-19T07:37:14.000Z</time>
      </trkpt>
      <trkpt lat="45.12481" lon="5.55203">
        <ele>1242.6</ele>
        <time>2020-07-19T07:37:18.000Z</time>
      </trkpt>
      <trkpt lat="45.12481" lon="5.55194">
        <ele>1242.8</ele>
        <time>2020-07-19T07:37:20.000Z</time>
      </trkpt>
      <trkpt lat="45.12481" lon="5.55184">
        <ele>1243</ele>
        <time>2020-07-19T07:37:22.000Z</time>
      </trkpt>
      <trkpt lat="45.12481" lon="5.55175">
        <ele>1243.2</ele>
        <time>2020-07-19T07:37:24.000Z</time>
      </trkpt>
      <trkpt lat="45.12486" lon="5.55092">
        <ele>1247.9</ele>
        <time>2020-07-19T07:37:39.000Z</time>
      </trkpt>
      <trkpt lat="45.1248" lon="5.55062">
        <ele>1243.8</ele>
        <time>2020-07-19T07:37:52.000Z</time>
      </trkpt>
      <trkpt lat="45.12477" lon="5.55051">
        <ele>1242.5</ele>
        <time>2020-07-19T07:37:53.000Z</time>
      </trkpt>
      <trkpt lat="45.12477" lon="5.55044">
        <ele>1241.5</ele>
        <time>2020-07-19T07:37:54.000Z</time>
      </trkpt>
      <trkpt lat="45.1247" lon="5.55021">
        <ele>1239</ele>
        <time>2020-07-19T07:37:55.000Z</time>
      </trkpt>
      <trkpt lat="45.12453" lon="5.55009">
        <ele>1238.7</ele>
        <time>2020-07-19T07:37:56.000Z</time>
      </trkpt>
      <trkpt lat="45.12241" lon="5.54912">
        <ele>1245.2</ele>
        <time>2020-07-19T07:43:48.000Z</time>
      </trkpt>
      <trkpt lat="45.12234" lon="5.54909">
        <ele>1245</ele>
        <time>2020-07-19T07:43:51.000Z</time>
      </trkpt>
      <trkpt lat="45.12228" lon="5.54906">
        <ele>1245</ele>
        <time>2020-07-19T07:43:54.000Z</time>
      </trkpt>
      <trkpt lat="45.12223" lon="5.54904">
        <ele>1245</ele>
        <time>2020-07-19T07:43:56.000Z</time>
      </trkpt>
      <trkpt lat="45.12215" lon="5.54898">
        <ele>1245</ele>
        <time>2020-07-19T07:43:59.000Z</time>
      </trkpt>
      <trkpt lat="45.12203" lon="5.54893">
        <ele>1245</ele>
        <time>2020-07-19T07:44:03.000Z</time>
      </trkpt>
      <trkpt lat="45.12193" lon="5.54888">
        <ele>1245</ele>
        <time>2020-07-19T07:44:06.000Z</time>
      </trkpt>
      <trkpt lat="45.12187" lon="5.54885">
        <ele>1245.2</ele>
        <time>2020-07-19T07:44:08.000Z</time>
      </trkpt>
      <trkpt lat="45.12177" lon="5.54882">
        <ele>1245.4</ele>
        <time>2020-07-19T07:44:11.000Z</time>
      </trkpt>
      <trkpt lat="45.1217" lon="5.54878">
        <ele>1245.8</ele>
        <time>2020-07-19T07:44:13.000Z</time>
      </trkpt>
      <trkpt lat="45.12164" lon="5.54874">
        <ele>1246</ele>
        <time>2020-07-19T07:44:15.000Z</time>
      </trkpt>
      <trkpt lat="45.12154" lon="5.54868">
        <ele>1246.2</ele>
        <time>2020-07-19T07:44:18.000Z</time>
      </trkpt>
      <trkpt lat="45.12148" lon="5.54864">
        <ele>1246.4</ele>
        <time>2020-07-19T07:44:20.000Z</time>
      </trkpt>
      <trkpt lat="45.12141" lon="5.54861">
        <ele>1246.6</ele>
        <time>2020-07-19T07:44:22.000Z</time>
      </trkpt>
      <trkpt lat="45.12132" lon="5.54858">
        <ele>1247</ele>
        <time>2020-07-19T07:44:25.000Z</time>
      </trkpt>
      <trkpt lat="45.12123" lon="5.54856">
        <ele>1247.4</ele>
        <time>2020-07-19T07:44:28.000Z</time>
      </trkpt>
      <trkpt lat="45.12112" lon="5.54854">
        <ele>1247.8</ele>
        <time>2020-07-19T07:44:32.000Z</time>
      </trkpt>
      <trkpt lat="45.12106" lon="5.54852">
        <ele>1248</ele>
        <time>2020-07-19T07:44:34.000Z</time>
      </trkpt>
      <trkpt lat="45.12097" lon="5.54851">
        <ele>1248.4</ele>
        <time>2020-07-19T07:44:37.000Z</time>
      </trkpt>
      <trkpt lat="45.12088" lon="5.54851">
        <ele>1248.8</ele>
        <time>2020-07-19T07:44:40.000Z</time>
      </trkpt>
      <trkpt lat="45.12078" lon="5.54851">
        <ele>1249</ele>
        <time>2020-07-19T07:44:43.000Z</time>
      </trkpt>
      <trkpt lat="45.12067" lon="5.54851">
        <ele>1249.4</ele>
        <time>2020-07-19T07:44:46.000Z</time>
      </trkpt>
      <trkpt lat="45.12056" lon="5.54853">
        <ele>1249.8</ele>
        <time>2020-07-19T07:44:50.000Z</time>
      </trkpt>
      <trkpt lat="45.12044" lon="5.54857">
        <ele>1250.2</ele>
        <time>2020-07-19T07:44:54.000Z</time>
      </trkpt>
      <trkpt lat="45.12034" lon="5.54863">
        <ele>1250.2</ele>
        <time>2020-07-19T07:44:58.000Z</time>
      </trkpt>
      <trkpt lat="45.12025" lon="5.54867">
        <ele>1250.4</ele>
        <time>2020-07-19T07:45:01.000Z</time>
      </trkpt>
      <trkpt lat="45.12014" lon="5.54873">
        <ele>1250</ele>
        <time>2020-07-19T07:45:05.000Z</time>
      </trkpt>
      <trkpt lat="45.12008" lon="5.54878">
        <ele>1249.6</ele>
        <time>2020-07-19T07:45:08.000Z</time>
      </trkpt>
      <trkpt lat="45.12001" lon="5.54881">
        <ele>1248.2</ele>
        <time>2020-07-19T07:45:11.000Z</time>
      </trkpt>
      <trkpt lat="45.11995" lon="5.54882">
        <ele>1249</ele>
        <time>2020-07-19T07:45:13.000Z</time>
      </trkpt>
      <trkpt lat="45.11982" lon="5.54882">
        <ele>1250</ele>
        <time>2020-07-19T07:45:17.000Z</time>
      </trkpt>
      <trkpt lat="45.11976" lon="5.54882">
        <ele>1250</ele>
        <time>2020-07-19T07:45:19.000Z</time>
      </trkpt>
      <trkpt lat="45.1197" lon="5.54884">
        <ele>1250.2</ele>
        <time>2020-07-19T07:45:24.000Z</time>
      </trkpt>
      <trkpt lat="45.11954" lon="5.54854">
        <ele>1254.2</ele>
        <time>2020-07-19T07:47:35.000Z</time>
      </trkpt>
      <trkpt lat="45.11953" lon="5.5483">
        <ele>1254</ele>
        <time>2020-07-19T07:47:41.000Z</time>
      </trkpt>
      <trkpt lat="45.11952" lon="5.54821">
        <ele>1254.2</ele>
        <time>2020-07-19T07:47:43.000Z</time>
      </trkpt>
      <trkpt lat="45.11949" lon="5.54813">
        <ele>1254</ele>
        <time>2020-07-19T07:47:45.000Z</time>
      </trkpt>
      <trkpt lat="45.11946" lon="5.54805">
        <ele>1254.2</ele>
        <time>2020-07-19T07:47:47.000Z</time>
      </trkpt>
      <trkpt lat="45.1194" lon="5.54796">
        <ele>1254.2</ele>
        <time>2020-07-19T07:47:50.000Z</time>
      </trkpt>
      <trkpt lat="45.11932" lon="5.54789">
        <ele>1254.2</ele>
        <time>2020-07-19T07:47:53.000Z</time>
      </trkpt>
      <trkpt lat="45.11919" lon="5.54785">
        <ele>1254.4</ele>
        <time>2020-07-19T07:47:57.000Z</time>
      </trkpt>
      <trkpt lat="45.11913" lon="5.54784">
        <ele>1254.4</ele>
        <time>2020-07-19T07:47:59.000Z</time>
      </trkpt>
      <trkpt lat="45.11905" lon="5.54786">
        <ele>1254.6</ele>
        <time>2020-07-19T07:48:02.000Z</time>
      </trkpt>
      <trkpt lat="45.11896" lon="5.54787">
        <ele>1254.8</ele>
        <time>2020-07-19T07:48:05.000Z</time>
      </trkpt>
      <trkpt lat="45.11889" lon="5.54787">
        <ele>1255</ele>
        <time>2020-07-19T07:48:07.000Z</time>
      </trkpt>
      <trkpt lat="45.11884" lon="5.54789">
        <ele>1255</ele>
        <time>2020-07-19T07:48:09.000Z</time>
      </trkpt>
      <trkpt lat="45.11875" lon="5.54792">
        <ele>1255.4</ele>
        <time>2020-07-19T07:48:12.000Z</time>
      </trkpt>
      <trkpt lat="45.11869" lon="5.54795">
        <ele>1255.6</ele>
        <time>2020-07-19T07:48:14.000Z</time>
      </trkpt>
      <trkpt lat="45.1186" lon="5.54799">
        <ele>1255.8</ele>
        <time>2020-07-19T07:48:17.000Z</time>
      </trkpt>
      <trkpt lat="45.11852" lon="5.54802">
        <ele>1256.2</ele>
        <time>2020-07-19T07:48:20.000Z</time>
      </trkpt>
      <trkpt lat="45.11846" lon="5.54805">
        <ele>1256.4</ele>
        <time>2020-07-19T07:48:22.000Z</time>
      </trkpt>
      <trkpt lat="45.11836" lon="5.54808">
        <ele>1256.8</ele>
        <time>2020-07-19T07:48:25.000Z</time>
      </trkpt>
      <trkpt lat="45.11826" lon="5.54811">
        <ele>1257</ele>
        <time>2020-07-19T07:48:28.000Z</time>
      </trkpt>
      <trkpt lat="45.11817" lon="5.54815">
        <ele>1257.4</ele>
        <time>2020-07-19T07:48:31.000Z</time>
      </trkpt>
      <trkpt lat="45.1181" lon="5.54818">
        <ele>1257.6</ele>
        <time>2020-07-19T07:48:33.000Z</time>
      </trkpt>
      <trkpt lat="45.11795" lon="5.5482">
        <ele>1258</ele>
        <time>2020-07-19T07:48:37.000Z</time>
      </trkpt>
      <trkpt lat="45.11787" lon="5.54822">
        <ele>1258.2</ele>
        <time>2020-07-19T07:48:39.000Z</time>
      </trkpt>
      <trkpt lat="45.11784" lon="5.54823">
        <ele>1258.2</ele>
        <time>2020-07-19T07:48:40.000Z</time>
      </trkpt>
      <trkpt lat="45.11771" lon="5.54824">
        <ele>1258.6</ele>
        <time>2020-07-19T07:48:44.000Z</time>
      </trkpt>
      <trkpt lat="45.11761" lon="5.54824">
        <ele>1258.8</ele>
        <time>2020-07-19T07:48:47.000Z</time>
      </trkpt>
      <trkpt lat="45.11747" lon="5.54826">
        <ele>1259.2</ele>
        <time>2020-07-19T07:48:51.000Z</time>
      </trkpt>
      <trkpt lat="45.11739" lon="5.54828">
        <ele>1259.4</ele>
        <time>2020-07-19T07:48:53.000Z</time>
      </trkpt>
      <trkpt lat="45.11729" lon="5.54832">
        <ele>1259.6</ele>
        <time>2020-07-19T07:48:56.000Z</time>
      </trkpt>
      <trkpt lat="45.11719" lon="5.54836">
        <ele>1259.8</ele>
        <time>2020-07-19T07:48:59.000Z</time>
      </trkpt>
      <trkpt lat="45.11712" lon="5.54837">
        <ele>1260</ele>
        <time>2020-07-19T07:49:01.000Z</time>
      </trkpt>
      <trkpt lat="45.11702" lon="5.54841">
        <ele>1260</ele>
        <time>2020-07-19T07:49:04.000Z</time>
      </trkpt>
      <trkpt lat="45.11692" lon="5.54845">
        <ele>1260.2</ele>
        <time>2020-07-19T07:49:07.000Z</time>
      </trkpt>
      <trkpt lat="45.11682" lon="5.54849">
        <ele>1260.4</ele>
        <time>2020-07-19T07:49:10.000Z</time>
      </trkpt>
      <trkpt lat="45.11679" lon="5.54851">
        <ele>1260.4</ele>
        <time>2020-07-19T07:49:11.000Z</time>
      </trkpt>
      <trkpt lat="45.11668" lon="5.54858">
        <ele>1260.8</ele>
        <time>2020-07-19T07:49:14.000Z</time>
      </trkpt>
      <trkpt lat="45.11662" lon="5.54861">
        <ele>1261</ele>
        <time>2020-07-19T07:49:16.000Z</time>
      </trkpt>
      <trkpt lat="45.11658" lon="5.54863">
        <ele>1261</ele>
        <time>2020-07-19T07:49:17.000Z</time>
      </trkpt>
      <trkpt lat="45.11643" lon="5.54867">
        <ele>1261.2</ele>
        <time>2020-07-19T07:49:21.000Z</time>
      </trkpt>
      <trkpt lat="45.11636" lon="5.54869">
        <ele>1261.4</ele>
        <time>2020-07-19T07:49:23.000Z</time>
      </trkpt>
      <trkpt lat="45.11633" lon="5.5487">
        <ele>1261.4</ele>
        <time>2020-07-19T07:49:24.000Z</time>
      </trkpt>
      <trkpt lat="45.11621" lon="5.54874">
        <ele>1261.4</ele>
        <time>2020-07-19T07:49:27.000Z</time>
      </trkpt>
      <trkpt lat="45.11611" lon="5.54875">
        <ele>1261.4</ele>
        <time>2020-07-19T07:49:30.000Z</time>
      </trkpt>
      <trkpt lat="45.11597" lon="5.54875">
        <ele>1261.4</ele>
        <time>2020-07-19T07:49:34.000Z</time>
      </trkpt>
      <trkpt lat="45.11591" lon="5.54875">
        <ele>1261.4</ele>
        <time>2020-07-19T07:49:36.000Z</time>
      </trkpt>
      <trkpt lat="45.11585" lon="5.54874">
        <ele>1261.4</ele>
        <time>2020-07-19T07:49:38.000Z</time>
      </trkpt>
      <trkpt lat="45.11575" lon="5.54871">
        <ele>1261.4</ele>
        <time>2020-07-19T07:49:43.000Z</time>
      </trkpt>
      <trkpt lat="45.11572" lon="5.54868">
        <ele>1259.6</ele>
        <time>2020-07-19T07:51:23.000Z</time>
      </trkpt>
      <trkpt lat="45.11569" lon="5.5486">
        <ele>1259.6</ele>
        <time>2020-07-19T07:51:25.000Z</time>
      </trkpt>
      <trkpt lat="45.11565" lon="5.54853">
        <ele>1259.6</ele>
        <time>2020-07-19T07:51:27.000Z</time>
      </trkpt>
      <trkpt lat="45.1156" lon="5.54849">
        <ele>1259.8</ele>
        <time>2020-07-19T07:51:29.000Z</time>
      </trkpt>
      <trkpt lat="45.11557" lon="5.54847">
        <ele>1259.8</ele>
        <time>2020-07-19T07:51:30.000Z</time>
      </trkpt>
      <trkpt lat="45.11551" lon="5.54843">
        <ele>1260</ele>
        <time>2020-07-19T07:51:32.000Z</time>
      </trkpt>
      <trkpt lat="45.11548" lon="5.54837">
        <ele>1260</ele>
        <time>2020-07-19T07:51:34.000Z</time>
      </trkpt>
      <trkpt lat="45.11544" lon="5.54831">
        <ele>1260.4</ele>
        <time>2020-07-19T07:51:37.000Z</time>
      </trkpt>
      <trkpt lat="45.11538" lon="5.54825">
        <ele>1261</ele>
        <time>2020-07-19T07:51:41.000Z</time>
      </trkpt>
      <trkpt lat="45.11531" lon="5.54822">
        <ele>1261.4</ele>
        <time>2020-07-19T07:51:44.000Z</time>
      </trkpt>
      <trkpt lat="45.11523" lon="5.5482">
        <ele>1262</ele>
        <time>2020-07-19T07:51:47.000Z</time>
      </trkpt>
      <trkpt lat="45.11511" lon="5.54818">
        <ele>1262.4</ele>
        <time>2020-07-19T07:51:51.000Z</time>
      </trkpt>
      <trkpt lat="45.11502" lon="5.54815">
        <ele>1263</ele>
        <time>2020-07-19T07:51:54.000Z</time>
      </trkpt>
      <trkpt lat="45.11496" lon="5.54812">
        <ele>1263.4</ele>
        <time>2020-07-19T07:51:56.000Z</time>
      </trkpt>
      <trkpt lat="45.11492" lon="5.54806">
        <ele>1263.8</ele>
        <time>2020-07-19T07:51:58.000Z</time>
      </trkpt>
      <trkpt lat="45.11486" lon="5.548">
        <ele>1264.2</ele>
        <time>2020-07-19T07:52:00.000Z</time>
      </trkpt>
      <trkpt lat="45.11478" lon="5.54792">
        <ele>1264.6</ele>
        <time>2020-07-19T07:52:03.000Z</time>
      </trkpt>
      <trkpt lat="45.11475" lon="5.5479">
        <ele>1264.8</ele>
        <time>2020-07-19T07:52:04.000Z</time>
      </trkpt>
      <trkpt lat="45.11468" lon="5.5479">
        <ele>1265</ele>
        <time>2020-07-19T07:52:06.000Z</time>
      </trkpt>
      <trkpt lat="45.1146" lon="5.54794">
        <ele>1265.2</ele>
        <time>2020-07-19T07:52:08.000Z</time>
      </trkpt>
      <trkpt lat="45.11456" lon="5.54795">
        <ele>1265.4</ele>
        <time>2020-07-19T07:52:09.000Z</time>
      </trkpt>
      <trkpt lat="45.11443" lon="5.54797">
        <ele>1265.6</ele>
        <time>2020-07-19T07:52:12.000Z</time>
      </trkpt>
      <trkpt lat="45.11437" lon="5.54795">
        <ele>1265.8</ele>
        <time>2020-07-19T07:52:14.000Z</time>
      </trkpt>
      <trkpt lat="45.11433" lon="5.54789">
        <ele>1265.8</ele>
        <time>2020-07-19T07:52:16.000Z</time>
      </trkpt>
      <trkpt lat="45.11428" lon="5.54784">
        <ele>1265.8</ele>
        <time>2020-07-19T07:52:18.000Z</time>
      </trkpt>
      <trkpt lat="45.11425" lon="5.54785">
        <ele>1265.8</ele>
        <time>2020-07-19T07:52:19.000Z</time>
      </trkpt>
      <trkpt lat="45.11418" lon="5.54786">
        <ele>1266</ele>
        <time>2020-07-19T07:52:21.000Z</time>
      </trkpt>
      <trkpt lat="45.11412" lon="5.54783">
        <ele>1266.2</ele>
        <time>2020-07-19T07:52:23.000Z</time>
      </trkpt>
      <trkpt lat="45.11404" lon="5.54781">
        <ele>1266.2</ele>
        <time>2020-07-19T07:52:25.000Z</time>
      </trkpt>
      <trkpt lat="45.11399" lon="5.54778">
        <ele>1266.4</ele>
        <time>2020-07-19T07:52:27.000Z</time>
      </trkpt>
      <trkpt lat="45.11396" lon="5.54775">
        <ele>1266.4</ele>
        <time>2020-07-19T07:52:28.000Z</time>
      </trkpt>
      <trkpt lat="45.11388" lon="5.5477">
        <ele>1266.6</ele>
        <time>2020-07-19T07:52:30.000Z</time>
      </trkpt>
      <trkpt lat="45.11377" lon="5.54765">
        <ele>1266.8</ele>
        <time>2020-07-19T07:52:33.000Z</time>
      </trkpt>
      <trkpt lat="45.11369" lon="5.5476">
        <ele>1267</ele>
        <time>2020-07-19T07:52:35.000Z</time>
      </trkpt>
      <trkpt lat="45.11366" lon="5.54759">
        <ele>1267</ele>
        <time>2020-07-19T07:52:36.000Z</time>
      </trkpt>
      <trkpt lat="45.11359" lon="5.54758">
        <ele>1267.2</ele>
        <time>2020-07-19T07:52:38.000Z</time>
      </trkpt>
      <trkpt lat="45.1135" lon="5.54759">
        <ele>1267.4</ele>
        <time>2020-07-19T07:52:40.000Z</time>
      </trkpt>
      <trkpt lat="45.11341" lon="5.54762">
        <ele>1267.4</ele>
        <time>2020-07-19T07:52:42.000Z</time>
      </trkpt>
      <trkpt lat="45.11336" lon="5.54763">
        <ele>1267.4</ele>
        <time>2020-07-19T07:52:43.000Z</time>
      </trkpt>
      <trkpt lat="45.11326" lon="5.54763">
        <ele>1267.4</ele>
        <time>2020-07-19T07:52:45.000Z</time>
      </trkpt>
      <trkpt lat="45.11317" lon="5.54764">
        <ele>1267.2</ele>
        <time>2020-07-19T07:52:47.000Z</time>
      </trkpt>
      <trkpt lat="45.11312" lon="5.54761">
        <ele>1267.2</ele>
        <time>2020-07-19T07:52:49.000Z</time>
      </trkpt>
      <trkpt lat="45.11304" lon="5.54755">
        <ele>1266.8</ele>
        <time>2020-07-19T07:53:01.000Z</time>
      </trkpt>
      <trkpt lat="45.11295" lon="5.54753">
        <ele>1266.6</ele>
        <time>2020-07-19T07:53:04.000Z</time>
      </trkpt>
      <trkpt lat="45.11284" lon="5.54749">
        <ele>1266.2</ele>
        <time>2020-07-19T07:53:07.000Z</time>
      </trkpt>
      <trkpt lat="45.11279" lon="5.54748">
        <ele>1266</ele>
        <time>2020-07-19T07:53:08.000Z</time>
      </trkpt>
      <trkpt lat="45.11272" lon="5.54749">
        <ele>1266</ele>
        <time>2020-07-19T07:53:09.000Z</time>
      </trkpt>
      <trkpt lat="45.1126" lon="5.54751">
        <ele>1266</ele>
        <time>2020-07-19T07:53:11.000Z</time>
      </trkpt>
      <trkpt lat="45.11242" lon="5.54751">
        <ele>1265.6</ele>
        <time>2020-07-19T07:53:14.000Z</time>
      </trkpt>
      <trkpt lat="45.11237" lon="5.54753">
        <ele>1265.4</ele>
        <time>2020-07-19T07:53:15.000Z</time>
      </trkpt>
      <trkpt lat="45.11231" lon="5.54759">
        <ele>1265.2</ele>
        <time>2020-07-19T07:53:18.000Z</time>
      </trkpt>
      <trkpt lat="45.11222" lon="5.54762">
        <ele>1265</ele>
        <time>2020-07-19T07:53:21.000Z</time>
      </trkpt>
      <trkpt lat="45.1121" lon="5.54767">
        <ele>1265</ele>
        <time>2020-07-19T07:53:24.000Z</time>
      </trkpt>
      <trkpt lat="45.11206" lon="5.54767">
        <ele>1265</ele>
        <time>2020-07-19T07:53:25.000Z</time>
      </trkpt>
      <trkpt lat="45.11197" lon="5.54767">
        <ele>1265.2</ele>
        <time>2020-07-19T07:53:27.000Z</time>
      </trkpt>
      <trkpt lat="45.1118" lon="5.54765">
        <ele>1264.8</ele>
        <time>2020-07-19T07:53:31.000Z</time>
      </trkpt>
      <trkpt lat="45.11168" lon="5.54763">
        <ele>1264.8</ele>
        <time>2020-07-19T07:53:34.000Z</time>
      </trkpt>
      <trkpt lat="45.11164" lon="5.5476">
        <ele>1264.8</ele>
        <time>2020-07-19T07:53:35.000Z</time>
      </trkpt>
      <trkpt lat="45.11154" lon="5.5475">
        <ele>1264.2</ele>
        <time>2020-07-19T07:53:38.000Z</time>
      </trkpt>
      <trkpt lat="45.11146" lon="5.54744">
        <ele>1263.6</ele>
        <time>2020-07-19T07:53:40.000Z</time>
      </trkpt>
      <trkpt lat="45.11137" lon="5.5474">
        <ele>1263.4</ele>
        <time>2020-07-19T07:53:42.000Z</time>
      </trkpt>
      <trkpt lat="45.11129" lon="5.54742">
        <ele>1263</ele>
        <time>2020-07-19T07:53:44.000Z</time>
      </trkpt>
      <trkpt lat="45.11123" lon="5.54746">
        <ele>1262.8</ele>
        <time>2020-07-19T07:53:46.000Z</time>
      </trkpt>
      <trkpt lat="45.11118" lon="5.54747">
        <ele>1262.8</ele>
        <time>2020-07-19T07:53:48.000Z</time>
      </trkpt>
      <trkpt lat="45.11108" lon="5.54745">
        <ele>1262.4</ele>
        <time>2020-07-19T07:53:52.000Z</time>
      </trkpt>
      <trkpt lat="45.11103" lon="5.54744">
        <ele>1262.2</ele>
        <time>2020-07-19T07:53:54.000Z</time>
      </trkpt>
      <trkpt lat="45.11095" lon="5.54747">
        <ele>1262</ele>
        <time>2020-07-19T07:53:57.000Z</time>
      </trkpt>
      <trkpt lat="45.11087" lon="5.54748">
        <ele>1261.8</ele>
        <time>2020-07-19T07:53:59.000Z</time>
      </trkpt>
      <trkpt lat="45.1108" lon="5.54749">
        <ele>1261.4</ele>
        <time>2020-07-19T07:54:01.000Z</time>
      </trkpt>
      <trkpt lat="45.11074" lon="5.54748">
        <ele>1261</ele>
        <time>2020-07-19T07:54:03.000Z</time>
      </trkpt>
      <trkpt lat="45.11066" lon="5.54745">
        <ele>1260.6</ele>
        <time>2020-07-19T07:54:05.000Z</time>
      </trkpt>
      <trkpt lat="45.11058" lon="5.54744">
        <ele>1260.2</ele>
        <time>2020-07-19T07:54:07.000Z</time>
      </trkpt>
      <trkpt lat="45.11054" lon="5.54746">
        <ele>1260</ele>
        <time>2020-07-19T07:54:09.000Z</time>
      </trkpt>
      <trkpt lat="45.11044" lon="5.54747">
        <ele>1257</ele>
        <time>2020-07-19T07:54:33.000Z</time>
      </trkpt>
      <trkpt lat="45.11034" lon="5.54751">
        <ele>1256.6</ele>
        <time>2020-07-19T07:54:36.000Z</time>
      </trkpt>
      <trkpt lat="45.11024" lon="5.54751">
        <ele>1256.2</ele>
        <time>2020-07-19T07:54:39.000Z</time>
      </trkpt>
      <trkpt lat="45.1102" lon="5.54752">
        <ele>1256</ele>
        <time>2020-07-19T07:54:40.000Z</time>
      </trkpt>
      <trkpt lat="45.11011" lon="5.54749">
        <ele>1255.6</ele>
        <time>2020-07-19T07:54:42.000Z</time>
      </trkpt>
      <trkpt lat="45.11005" lon="5.54745">
        <ele>1255.2</ele>
        <time>2020-07-19T07:54:44.000Z</time>
      </trkpt>
      <trkpt lat="45.11002" lon="5.54744">
        <ele>1255</ele>
        <time>2020-07-19T07:54:45.000Z</time>
      </trkpt>
      <trkpt lat="45.10995" lon="5.54744">
        <ele>1254.8</ele>
        <time>2020-07-19T07:54:47.000Z</time>
      </trkpt>
      <trkpt lat="45.10986" lon="5.54745">
        <ele>1254.6</ele>
        <time>2020-07-19T07:54:49.000Z</time>
      </trkpt>
      <trkpt lat="45.10982" lon="5.54745">
        <ele>1254.6</ele>
        <time>2020-07-19T07:54:50.000Z</time>
      </trkpt>
      <trkpt lat="45.1097" lon="5.54739">
        <ele>1254.2</ele>
        <time>2020-07-19T07:54:53.000Z</time>
      </trkpt>
      <trkpt lat="45.10953" lon="5.54735">
        <ele>1253.6</ele>
        <time>2020-07-19T07:54:56.000Z</time>
      </trkpt>
      <trkpt lat="45.10943" lon="5.54731">
        <ele>1253.2</ele>
        <time>2020-07-19T07:54:58.000Z</time>
      </trkpt>
      <trkpt lat="45.10935" lon="5.54731">
        <ele>1252.8</ele>
        <time>2020-07-19T07:55:00.000Z</time>
      </trkpt>
      <trkpt lat="45.10927" lon="5.54733">
        <ele>1252.4</ele>
        <time>2020-07-19T07:55:03.000Z</time>
      </trkpt>
      <trkpt lat="45.10917" lon="5.54735">
        <ele>1252</ele>
        <time>2020-07-19T07:55:06.000Z</time>
      </trkpt>
      <trkpt lat="45.10909" lon="5.54735">
        <ele>1251.8</ele>
        <time>2020-07-19T07:55:08.000Z</time>
      </trkpt>
      <trkpt lat="45.10899" lon="5.54733">
        <ele>1250.8</ele>
        <time>2020-07-19T07:55:11.000Z</time>
      </trkpt>
      <trkpt lat="45.10893" lon="5.54733">
        <ele>1250.4</ele>
        <time>2020-07-19T07:55:13.000Z</time>
      </trkpt>
      <trkpt lat="45.10888" lon="5.54736">
        <ele>1249.8</ele>
        <time>2020-07-19T07:55:15.000Z</time>
      </trkpt>
      <trkpt lat="45.10879" lon="5.54739">
        <ele>1249</ele>
        <time>2020-07-19T07:55:18.000Z</time>
      </trkpt>
      <trkpt lat="45.10871" lon="5.54739">
        <ele>1248.4</ele>
        <time>2020-07-19T07:55:20.000Z</time>
      </trkpt>
      <trkpt lat="45.10863" lon="5.54738">
        <ele>1247.6</ele>
        <time>2020-07-19T07:55:22.000Z</time>
      </trkpt>
      <trkpt lat="45.10858" lon="5.54735">
        <ele>1246.8</ele>
        <time>2020-07-19T07:55:24.000Z</time>
      </trkpt>
      <trkpt lat="45.10853" lon="5.54725">
        <ele>1245.2</ele>
        <time>2020-07-19T07:55:28.000Z</time>
      </trkpt>
      <trkpt lat="45.1085" lon="5.54723">
        <ele>1244.8</ele>
        <time>2020-07-19T07:55:29.000Z</time>
      </trkpt>
      <trkpt lat="45.10841" lon="5.5472">
        <ele>1244</ele>
        <time>2020-07-19T07:55:31.000Z</time>
      </trkpt>
      <trkpt lat="45.10834" lon="5.54717">
        <ele>1243.2</ele>
        <time>2020-07-19T07:55:33.000Z</time>
      </trkpt>
      <trkpt lat="45.10825" lon="5.54717">
        <ele>1242.6</ele>
        <time>2020-07-19T07:55:35.000Z</time>
      </trkpt>
      <trkpt lat="45.10811" lon="5.54724">
        <ele>1242</ele>
        <time>2020-07-19T07:55:38.000Z</time>
      </trkpt>
      <trkpt lat="45.10807" lon="5.54725">
        <ele>1241.6</ele>
        <time>2020-07-19T07:55:39.000Z</time>
      </trkpt>
      <trkpt lat="45.10799" lon="5.54724">
        <ele>1241.2</ele>
        <time>2020-07-19T07:55:41.000Z</time>
      </trkpt>
      <trkpt lat="45.10794" lon="5.5472">
        <ele>1240.6</ele>
        <time>2020-07-19T07:55:43.000Z</time>
      </trkpt>
      <trkpt lat="45.10788" lon="5.54715">
        <ele>1239.2</ele>
        <time>2020-07-19T07:55:47.000Z</time>
      </trkpt>
      <trkpt lat="45.10785" lon="5.54712">
        <ele>1238.8</ele>
        <time>2020-07-19T07:55:49.000Z</time>
      </trkpt>
      <trkpt lat="45.10777" lon="5.54707">
        <ele>1237.2</ele>
        <time>2020-07-19T07:55:54.000Z</time>
      </trkpt>
      <trkpt lat="45.10769" lon="5.54703">
        <ele>1235.8</ele>
        <time>2020-07-19T07:55:58.000Z</time>
      </trkpt>
      <trkpt lat="45.10759" lon="5.54699">
        <ele>1234.4</ele>
        <time>2020-07-19T07:56:02.000Z</time>
      </trkpt>
      <trkpt lat="45.10752" lon="5.54696">
        <ele>1233</ele>
        <time>2020-07-19T07:56:07.000Z</time>
      </trkpt>
      <trkpt lat="45.10745" lon="5.54692">
        <ele>1231.8</ele>
        <time>2020-07-19T07:56:11.000Z</time>
      </trkpt>
      <trkpt lat="45.1074" lon="5.5469">
        <ele>1231.4</ele>
        <time>2020-07-19T07:56:13.000Z</time>
      </trkpt>
      <trkpt lat="45.10733" lon="5.54684">
        <ele>1230.4</ele>
        <time>2020-07-19T07:56:16.000Z</time>
      </trkpt>
      <trkpt lat="45.10731" lon="5.54681">
        <ele>1230</ele>
        <time>2020-07-19T07:56:17.000Z</time>
      </trkpt>
      <trkpt lat="45.10727" lon="5.54668">
        <ele>1229</ele>
        <time>2020-07-19T07:56:20.000Z</time>
      </trkpt>
      <trkpt lat="45.10722" lon="5.54662">
        <ele>1228.4</ele>
        <time>2020-07-19T07:56:22.000Z</time>
      </trkpt>
      <trkpt lat="45.10716" lon="5.5466">
        <ele>1228</ele>
        <time>2020-07-19T07:56:24.000Z</time>
      </trkpt>
      <trkpt lat="45.10708" lon="5.54656">
        <ele>1227.6</ele>
        <time>2020-07-19T07:56:26.000Z</time>
      </trkpt>
      <trkpt lat="45.10688" lon="5.54646">
        <ele>1226.8</ele>
        <time>2020-07-19T07:56:30.000Z</time>
      </trkpt>
      <trkpt lat="45.10681" lon="5.54644">
        <ele>1226.2</ele>
        <time>2020-07-19T07:56:32.000Z</time>
      </trkpt>
      <trkpt lat="45.10677" lon="5.5464">
        <ele>1222.8</ele>
        <time>2020-07-19T07:56:55.000Z</time>
      </trkpt>
      <trkpt lat="45.10675" lon="5.54637">
        <ele>1222.4</ele>
        <time>2020-07-19T07:56:56.000Z</time>
      </trkpt>
      <trkpt lat="45.10669" lon="5.54632">
        <ele>1222</ele>
        <time>2020-07-19T07:56:59.000Z</time>
      </trkpt>
      <trkpt lat="45.10661" lon="5.54626">
        <ele>1221.2</ele>
        <time>2020-07-19T07:57:03.000Z</time>
      </trkpt>
      <trkpt lat="45.10655" lon="5.54615">
        <ele>1220.8</ele>
        <time>2020-07-19T07:57:07.000Z</time>
      </trkpt>
      <trkpt lat="45.10653" lon="5.54608">
        <ele>1220.6</ele>
        <time>2020-07-19T07:57:09.000Z</time>
      </trkpt>
      <trkpt lat="45.10649" lon="5.546">
        <ele>1220.4</ele>
        <time>2020-07-19T07:57:11.000Z</time>
      </trkpt>
      <trkpt lat="45.10645" lon="5.54594">
        <ele>1220.2</ele>
        <time>2020-07-19T07:57:13.000Z</time>
      </trkpt>
      <trkpt lat="45.10638" lon="5.54586">
        <ele>1220</ele>
        <time>2020-07-19T07:57:16.000Z</time>
      </trkpt>
      <trkpt lat="45.10636" lon="5.54576">
        <ele>1220</ele>
        <time>2020-07-19T07:57:19.000Z</time>
      </trkpt>
      <trkpt lat="45.10633" lon="5.54565">
        <ele>1219.6</ele>
        <time>2020-07-19T07:57:22.000Z</time>
      </trkpt>
      <trkpt lat="45.10627" lon="5.54553">
        <ele>1219.6</ele>
        <time>2020-07-19T07:57:26.000Z</time>
      </trkpt>
      <trkpt lat="45.10624" lon="5.54549">
        <ele>1219.4</ele>
        <time>2020-07-19T07:57:28.000Z</time>
      </trkpt>
      <trkpt lat="45.10617" lon="5.5454">
        <ele>1219</ele>
        <time>2020-07-19T07:57:32.000Z</time>
      </trkpt>
      <trkpt lat="45.10615" lon="5.54534">
        <ele>1218.8</ele>
        <time>2020-07-19T07:57:34.000Z</time>
      </trkpt>
      <trkpt lat="45.10611" lon="5.54523">
        <ele>1218.8</ele>
        <time>2020-07-19T07:57:38.000Z</time>
      </trkpt>
      <trkpt lat="45.1061" lon="5.54512">
        <ele>1218.6</ele>
        <time>2020-07-19T07:57:42.000Z</time>
      </trkpt>
      <trkpt lat="45.10609" lon="5.54499">
        <ele>1218.6</ele>
        <time>2020-07-19T07:57:46.000Z</time>
      </trkpt>
      <trkpt lat="45.10605" lon="5.5449">
        <ele>1218.6</ele>
        <time>2020-07-19T07:57:50.000Z</time>
      </trkpt>
      <trkpt lat="45.10597" lon="5.54485">
        <ele>1218.6</ele>
        <time>2020-07-19T07:57:54.000Z</time>
      </trkpt>
      <trkpt lat="45.10594" lon="5.54482">
        <ele>1218.6</ele>
        <time>2020-07-19T07:57:56.000Z</time>
      </trkpt>
      <trkpt lat="45.10593" lon="5.54475">
        <ele>1218.8</ele>
        <time>2020-07-19T07:57:59.000Z</time>
      </trkpt>
      <trkpt lat="45.10591" lon="5.54468">
        <ele>1218.8</ele>
        <time>2020-07-19T07:58:02.000Z</time>
      </trkpt>
      <trkpt lat="45.10589" lon="5.5446">
        <ele>1219</ele>
        <time>2020-07-19T07:58:05.000Z</time>
      </trkpt>
      <trkpt lat="45.10582" lon="5.54451">
        <ele>1219.2</ele>
        <time>2020-07-19T07:58:09.000Z</time>
      </trkpt>
      <trkpt lat="45.10579" lon="5.5444">
        <ele>1219.2</ele>
        <time>2020-07-19T07:58:13.000Z</time>
      </trkpt>
      <trkpt lat="45.10577" lon="5.54433">
        <ele>1219.2</ele>
        <time>2020-07-19T07:58:16.000Z</time>
      </trkpt>
      <trkpt lat="45.10564" lon="5.54413">
        <ele>1219.4</ele>
        <time>2020-07-19T07:58:19.000Z</time>
      </trkpt>
      <trkpt lat="45.1056" lon="5.54409">
        <ele>1219.6</ele>
        <time>2020-07-19T07:58:20.000Z</time>
      </trkpt>
      <trkpt lat="45.10561" lon="5.54402">
        <ele>1220</ele>
        <time>2020-07-19T07:58:24.000Z</time>
      </trkpt>
      <trkpt lat="45.1056" lon="5.54393">
        <ele>1220</ele>
        <time>2020-07-19T07:58:27.000Z</time>
      </trkpt>
      <trkpt lat="45.10553" lon="5.54387">
        <ele>1220.4</ele>
        <time>2020-07-19T07:58:31.000Z</time>
      </trkpt>
      <trkpt lat="45.10549" lon="5.54381">
        <ele>1220.8</ele>
        <time>2020-07-19T07:58:34.000Z</time>
      </trkpt>
      <trkpt lat="45.10546" lon="5.54374">
        <ele>1221</ele>
        <time>2020-07-19T07:58:37.000Z</time>
      </trkpt>
      <trkpt lat="45.10537" lon="5.54374">
        <ele>1221.4</ele>
        <time>2020-07-19T07:58:41.000Z</time>
      </trkpt>
      <trkpt lat="45.10526" lon="5.54376">
        <ele>1221.8</ele>
        <time>2020-07-19T07:58:45.000Z</time>
      </trkpt>
      <trkpt lat="45.10521" lon="5.54372">
        <ele>1222.2</ele>
        <time>2020-07-19T07:58:48.000Z</time>
      </trkpt>
      <trkpt lat="45.10511" lon="5.54368">
        <ele>1222.6</ele>
        <time>2020-07-19T07:58:52.000Z</time>
      </trkpt>
      <trkpt lat="45.10505" lon="5.54365">
        <ele>1222.8</ele>
        <time>2020-07-19T07:58:54.000Z</time>
      </trkpt>
      <trkpt lat="45.10499" lon="5.54361">
        <ele>1223.2</ele>
        <time>2020-07-19T07:58:57.000Z</time>
      </trkpt>
      <trkpt lat="45.10491" lon="5.54357">
        <ele>1223.6</ele>
        <time>2020-07-19T07:59:00.000Z</time>
      </trkpt>
      <trkpt lat="45.10487" lon="5.54351">
        <ele>1223.8</ele>
        <time>2020-07-19T07:59:02.000Z</time>
      </trkpt>
      <trkpt lat="45.10481" lon="5.54348">
        <ele>1224.2</ele>
        <time>2020-07-19T07:59:05.000Z</time>
      </trkpt>
      <trkpt lat="45.10474" lon="5.54344">
        <ele>1225</ele>
        <time>2020-07-19T07:59:09.000Z</time>
      </trkpt>
      <trkpt lat="45.10468" lon="5.54345">
        <ele>1225.2</ele>
        <time>2020-07-19T07:59:11.000Z</time>
      </trkpt>
      <trkpt lat="45.10463" lon="5.54342">
        <ele>1225.4</ele>
        <time>2020-07-19T07:59:13.000Z</time>
      </trkpt>
      <trkpt lat="45.10458" lon="5.54336">
        <ele>1226</ele>
        <time>2020-07-19T07:59:16.000Z</time>
      </trkpt>
      <trkpt lat="45.10454" lon="5.5433">
        <ele>1226.4</ele>
        <time>2020-07-19T07:59:19.000Z</time>
      </trkpt>
      <trkpt lat="45.10453" lon="5.54322">
        <ele>1227</ele>
        <time>2020-07-19T07:59:23.000Z</time>
      </trkpt>
      <trkpt lat="45.10451" lon="5.54314">
        <ele>1227.2</ele>
        <time>2020-07-19T07:59:26.000Z</time>
      </trkpt>
      <trkpt lat="45.10447" lon="5.5431">
        <ele>1227.6</ele>
        <time>2020-07-19T07:59:28.000Z</time>
      </trkpt>
      <trkpt lat="45.10442" lon="5.54304">
        <ele>1228</ele>
        <time>2020-07-19T07:59:31.000Z</time>
      </trkpt>
      <trkpt lat="45.10439" lon="5.54301">
        <ele>1228.4</ele>
        <time>2020-07-19T07:59:33.000Z</time>
      </trkpt>
      <trkpt lat="45.10438" lon="5.54294">
        <ele>1228.8</ele>
        <time>2020-07-19T07:59:37.000Z</time>
      </trkpt>
      <trkpt lat="45.10433" lon="5.54285">
        <ele>1229.2</ele>
        <time>2020-07-19T07:59:41.000Z</time>
      </trkpt>
      <trkpt lat="45.10428" lon="5.54282">
        <ele>1229.4</ele>
        <time>2020-07-19T07:59:43.000Z</time>
      </trkpt>
      <trkpt lat="45.10422" lon="5.54276">
        <ele>1229.8</ele>
        <time>2020-07-19T07:59:46.000Z</time>
      </trkpt>
      <trkpt lat="45.10416" lon="5.54274">
        <ele>1230.2</ele>
        <time>2020-07-19T07:59:49.000Z</time>
      </trkpt>
      <trkpt lat="45.10412" lon="5.54275">
        <ele>1230.4</ele>
        <time>2020-07-19T07:59:51.000Z</time>
      </trkpt>
      <trkpt lat="45.10402" lon="5.54272">
        <ele>1231.2</ele>
        <time>2020-07-19T07:59:56.000Z</time>
      </trkpt>
      <trkpt lat="45.10398" lon="5.54266">
        <ele>1231.6</ele>
        <time>2020-07-19T07:59:59.000Z</time>
      </trkpt>
      <trkpt lat="45.10395" lon="5.54261">
        <ele>1232</ele>
        <time>2020-07-19T08:00:02.000Z</time>
      </trkpt>
      <trkpt lat="45.10391" lon="5.54253">
        <ele>1232.4</ele>
        <time>2020-07-19T08:00:06.000Z</time>
      </trkpt>
      <trkpt lat="45.10384" lon="5.54247">
        <ele>1233.2</ele>
        <time>2020-07-19T08:00:11.000Z</time>
      </trkpt>
      <trkpt lat="45.10378" lon="5.54248">
        <ele>1233.8</ele>
        <time>2020-07-19T08:00:15.000Z</time>
      </trkpt>
      <trkpt lat="45.10373" lon="5.54247">
        <ele>1234.4</ele>
        <time>2020-07-19T08:00:18.000Z</time>
      </trkpt>
      <trkpt lat="45.10368" lon="5.54242">
        <ele>1235</ele>
        <time>2020-07-19T08:00:21.000Z</time>
      </trkpt>
      <trkpt lat="45.10362" lon="5.54242">
        <ele>1235.6</ele>
        <time>2020-07-19T08:00:25.000Z</time>
      </trkpt>
      <trkpt lat="45.10357" lon="5.54238">
        <ele>1236</ele>
        <time>2020-07-19T08:00:28.000Z</time>
      </trkpt>
      <trkpt lat="45.10352" lon="5.54232">
        <ele>1236.6</ele>
        <time>2020-07-19T08:00:32.000Z</time>
      </trkpt>
      <trkpt lat="45.10347" lon="5.54232">
        <ele>1237</ele>
        <time>2020-07-19T08:00:35.000Z</time>
      </trkpt>
      <trkpt lat="45.10341" lon="5.54234">
        <ele>1237.4</ele>
        <time>2020-07-19T08:00:38.000Z</time>
      </trkpt>
      <trkpt lat="45.10334" lon="5.54233">
        <ele>1237.8</ele>
        <time>2020-07-19T08:00:42.000Z</time>
      </trkpt>
      <trkpt lat="45.10326" lon="5.54237">
        <ele>1238.6</ele>
        <time>2020-07-19T08:00:47.000Z</time>
      </trkpt>
      <trkpt lat="45.10316" lon="5.5424">
        <ele>1239.4</ele>
        <time>2020-07-19T08:00:52.000Z</time>
      </trkpt>
      <trkpt lat="45.10308" lon="5.54239">
        <ele>1240</ele>
        <time>2020-07-19T08:00:56.000Z</time>
      </trkpt>
      <trkpt lat="45.10298" lon="5.54241">
        <ele>1240.6</ele>
        <time>2020-07-19T08:01:03.000Z</time>
      </trkpt>
      <trkpt lat="45.10294" lon="5.5425">
        <ele>1240.6</ele>
        <time>2020-07-19T08:01:07.000Z</time>
      </trkpt>
      <trkpt lat="45.10292" lon="5.54255">
        <ele>1240.6</ele>
        <time>2020-07-19T08:01:09.000Z</time>
      </trkpt>
      <trkpt lat="45.10276" lon="5.54254">
        <ele>1236.4</ele>
        <time>2020-07-19T08:03:14.000Z</time>
      </trkpt>
      <trkpt lat="45.10272" lon="5.5425">
        <ele>1236.4</ele>
        <time>2020-07-19T08:03:16.000Z</time>
      </trkpt>
      <trkpt lat="45.10265" lon="5.54246">
        <ele>1236.6</ele>
        <time>2020-07-19T08:03:22.000Z</time>
      </trkpt>
      <trkpt lat="45.1026" lon="5.54246">
        <ele>1242.4</ele>
        <time>2020-07-19T08:04:06.000Z</time>
      </trkpt>
      <trkpt lat="45.10256" lon="5.54248">
        <ele>1243</ele>
        <time>2020-07-19T08:04:10.000Z</time>
      </trkpt>
      <trkpt lat="45.1025" lon="5.54247">
        <ele>1243.4</ele>
        <time>2020-07-19T08:04:15.000Z</time>
      </trkpt>
      <trkpt lat="45.10244" lon="5.54247">
        <ele>1243.8</ele>
        <time>2020-07-19T08:04:18.000Z</time>
      </trkpt>
      <trkpt lat="45.10236" lon="5.54243">
        <ele>1244.2</ele>
        <time>2020-07-19T08:04:22.000Z</time>
      </trkpt>
      <trkpt lat="45.10229" lon="5.54241">
        <ele>1244.4</ele>
        <time>2020-07-19T08:04:25.000Z</time>
      </trkpt>
      <trkpt lat="45.10228" lon="5.54236">
        <ele>1244.6</ele>
        <time>2020-07-19T08:04:27.000Z</time>
      </trkpt>
      <trkpt lat="45.10221" lon="5.54228">
        <ele>1244.8</ele>
        <time>2020-07-19T08:04:33.000Z</time>
      </trkpt>
      <trkpt lat="45.10216" lon="5.54227">
        <ele>1245.2</ele>
        <time>2020-07-19T08:04:47.000Z</time>
      </trkpt>
      <trkpt lat="45.10212" lon="5.54229">
        <ele>1247</ele>
        <time>2020-07-19T08:05:10.000Z</time>
      </trkpt>
      <trkpt lat="45.10207" lon="5.5423">
        <ele>1246.6</ele>
        <time>2020-07-19T08:05:21.000Z</time>
      </trkpt>
      <trkpt lat="45.10202" lon="5.54229">
        <ele>1246.4</ele>
        <time>2020-07-19T08:05:23.000Z</time>
      </trkpt>
      <trkpt lat="45.10196" lon="5.54225">
        <ele>1246.4</ele>
        <time>2020-07-19T08:05:27.000Z</time>
      </trkpt>
      <trkpt lat="45.10192" lon="5.54223">
        <ele>1246.6</ele>
        <time>2020-07-19T08:05:32.000Z</time>
      </trkpt>
      <trkpt lat="45.10185" lon="5.54219">
        <ele>1246.6</ele>
        <time>2020-07-19T08:05:36.000Z</time>
      </trkpt>
      <trkpt lat="45.1018" lon="5.54214">
        <ele>1246.6</ele>
        <time>2020-07-19T08:05:38.000Z</time>
      </trkpt>
      <trkpt lat="45.10175" lon="5.54209">
        <ele>1246.6</ele>
        <time>2020-07-19T08:05:40.000Z</time>
      </trkpt>
      <trkpt lat="45.10169" lon="5.54208">
        <ele>1246.4</ele>
        <time>2020-07-19T08:05:42.000Z</time>
      </trkpt>
      <trkpt lat="45.10161" lon="5.54205">
        <ele>1246.8</ele>
        <time>2020-07-19T08:05:46.000Z</time>
      </trkpt>
      <trkpt lat="45.10157" lon="5.54206">
        <ele>1247.2</ele>
        <time>2020-07-19T08:05:50.000Z</time>
      </trkpt>
      <trkpt lat="45.10155" lon="5.5421">
        <ele>1247.4</ele>
        <time>2020-07-19T08:05:53.000Z</time>
      </trkpt>
      <trkpt lat="45.10151" lon="5.54211">
        <ele>1248</ele>
        <time>2020-07-19T08:05:57.000Z</time>
      </trkpt>
      <trkpt lat="45.10148" lon="5.54212">
        <ele>1248.2</ele>
        <time>2020-07-19T08:06:01.000Z</time>
      </trkpt>
      <trkpt lat="45.1014" lon="5.54212">
        <ele>1248.2</ele>
        <time>2020-07-19T08:06:04.000Z</time>
      </trkpt>
      <trkpt lat="45.10131" lon="5.54212">
        <ele>1248.6</ele>
        <time>2020-07-19T08:06:08.000Z</time>
      </trkpt>
      <trkpt lat="45.10124" lon="5.54206">
        <ele>1249</ele>
        <time>2020-07-19T08:06:12.000Z</time>
      </trkpt>
      <trkpt lat="45.1012" lon="5.54197">
        <ele>1249.2</ele>
        <time>2020-07-19T08:06:16.000Z</time>
      </trkpt>
      <trkpt lat="45.10116" lon="5.54195">
        <ele>1249.4</ele>
        <time>2020-07-19T08:06:18.000Z</time>
      </trkpt>
      <trkpt lat="45.1011" lon="5.54195">
        <ele>1249.6</ele>
        <time>2020-07-19T08:06:21.000Z</time>
      </trkpt>
      <trkpt lat="45.10103" lon="5.54194">
        <ele>1250</ele>
        <time>2020-07-19T08:06:24.000Z</time>
      </trkpt>
      <trkpt lat="45.1009" lon="5.54192">
        <ele>1250.4</ele>
        <time>2020-07-19T08:06:27.000Z</time>
      </trkpt>
      <trkpt lat="45.10085" lon="5.54185">
        <ele>1250.6</ele>
        <time>2020-07-19T08:06:30.000Z</time>
      </trkpt>
      <trkpt lat="45.10086" lon="5.54171">
        <ele>1250.8</ele>
        <time>2020-07-19T08:06:33.000Z</time>
      </trkpt>
      <trkpt lat="45.10088" lon="5.54163">
        <ele>1250.8</ele>
        <time>2020-07-19T08:06:35.000Z</time>
      </trkpt>
      <trkpt lat="45.10094" lon="5.54156">
        <ele>1250.8</ele>
        <time>2020-07-19T08:06:37.000Z</time>
      </trkpt>
      <trkpt lat="45.101" lon="5.54145">
        <ele>1250.8</ele>
        <time>2020-07-19T08:06:40.000Z</time>
      </trkpt>
      <trkpt lat="45.10098" lon="5.54137">
        <ele>1250.8</ele>
        <time>2020-07-19T08:06:42.000Z</time>
      </trkpt>
      <trkpt lat="45.10091" lon="5.5413">
        <ele>1250.6</ele>
        <time>2020-07-19T08:06:45.000Z</time>
      </trkpt>
      <trkpt lat="45.10083" lon="5.54122">
        <ele>1250.2</ele>
        <time>2020-07-19T08:06:48.000Z</time>
      </trkpt>
      <trkpt lat="45.10067" lon="5.54108">
        <ele>1250.2</ele>
        <time>2020-07-19T08:06:52.000Z</time>
      </trkpt>
      <trkpt lat="45.10058" lon="5.54101">
        <ele>1250</ele>
        <time>2020-07-19T08:06:54.000Z</time>
      </trkpt>
      <trkpt lat="45.10049" lon="5.54095">
        <ele>1250</ele>
        <time>2020-07-19T08:06:57.000Z</time>
      </trkpt>
      <trkpt lat="45.10042" lon="5.54089">
        <ele>1250.2</ele>
        <time>2020-07-19T08:07:01.000Z</time>
      </trkpt>
      <trkpt lat="45.10034" lon="5.54086">
        <ele>1250.6</ele>
        <time>2020-07-19T08:07:05.000Z</time>
      </trkpt>
      <trkpt lat="45.10026" lon="5.54085">
        <ele>1251</ele>
        <time>2020-07-19T08:07:09.000Z</time>
      </trkpt>
      <trkpt lat="45.1002" lon="5.54081">
        <ele>1251.4</ele>
        <time>2020-07-19T08:07:13.000Z</time>
      </trkpt>
      <trkpt lat="45.10011" lon="5.5408">
        <ele>1252</ele>
        <time>2020-07-19T08:07:17.000Z</time>
      </trkpt>
      <trkpt lat="45.10004" lon="5.54075">
        <ele>1252.6</ele>
        <time>2020-07-19T08:07:21.000Z</time>
      </trkpt>
      <trkpt lat="45.10003" lon="5.54069">
        <ele>1253</ele>
        <time>2020-07-19T08:07:24.000Z</time>
      </trkpt>
      <trkpt lat="45.09994" lon="5.54067">
        <ele>1254</ele>
        <time>2020-07-19T08:07:30.000Z</time>
      </trkpt>
      <trkpt lat="45.09985" lon="5.5407">
        <ele>1254.8</ele>
        <time>2020-07-19T08:07:34.000Z</time>
      </trkpt>
      <trkpt lat="45.09979" lon="5.54073">
        <ele>1255.4</ele>
        <time>2020-07-19T08:07:38.000Z</time>
      </trkpt>
      <trkpt lat="45.09979" lon="5.54069">
        <ele>1255.8</ele>
        <time>2020-07-19T08:07:41.000Z</time>
      </trkpt>
      <trkpt lat="45.09977" lon="5.54062">
        <ele>1256.4</ele>
        <time>2020-07-19T08:07:45.000Z</time>
      </trkpt>
      <trkpt lat="45.09972" lon="5.54058">
        <ele>1257.2</ele>
        <time>2020-07-19T08:07:49.000Z</time>
      </trkpt>
      <trkpt lat="45.09968" lon="5.54055">
        <ele>1257.6</ele>
        <time>2020-07-19T08:07:51.000Z</time>
      </trkpt>
      <trkpt lat="45.09963" lon="5.54052">
        <ele>1258.2</ele>
        <time>2020-07-19T08:07:54.000Z</time>
      </trkpt>
      <trkpt lat="45.09958" lon="5.5405">
        <ele>1258.6</ele>
        <time>2020-07-19T08:07:56.000Z</time>
      </trkpt>
      <trkpt lat="45.09948" lon="5.54049">
        <ele>1259.4</ele>
        <time>2020-07-19T08:08:01.000Z</time>
      </trkpt>
      <trkpt lat="45.09942" lon="5.54048">
        <ele>1260</ele>
        <time>2020-07-19T08:08:04.000Z</time>
      </trkpt>
      <trkpt lat="45.09935" lon="5.54047">
        <ele>1261.2</ele>
        <time>2020-07-19T08:08:10.000Z</time>
      </trkpt>
      <trkpt lat="45.09927" lon="5.54046">
        <ele>1263</ele>
        <time>2020-07-19T08:08:24.000Z</time>
      </trkpt>
      <trkpt lat="45.09924" lon="5.54041">
        <ele>1263.4</ele>
        <time>2020-07-19T08:08:28.000Z</time>
      </trkpt>
      <trkpt lat="45.09918" lon="5.54036">
        <ele>1263.8</ele>
        <time>2020-07-19T08:08:33.000Z</time>
      </trkpt>
      <trkpt lat="45.0991" lon="5.54034">
        <ele>1264.8</ele>
        <time>2020-07-19T08:08:39.000Z</time>
      </trkpt>
      <trkpt lat="45.09904" lon="5.54033">
        <ele>1265.4</ele>
        <time>2020-07-19T08:08:42.000Z</time>
      </trkpt>
      <trkpt lat="45.09897" lon="5.54032">
        <ele>1266</ele>
        <time>2020-07-19T08:08:46.000Z</time>
      </trkpt>
      <trkpt lat="45.09893" lon="5.54032">
        <ele>1266.4</ele>
        <time>2020-07-19T08:08:48.000Z</time>
      </trkpt>
      <trkpt lat="45.09885" lon="5.5403">
        <ele>1267.4</ele>
        <time>2020-07-19T08:08:53.000Z</time>
      </trkpt>
      <trkpt lat="45.09881" lon="5.54027">
        <ele>1268.2</ele>
        <time>2020-07-19T08:08:57.000Z</time>
      </trkpt>
      <trkpt lat="45.09879" lon="5.54025">
        <ele>1270.6</ele>
        <time>2020-07-19T08:09:12.000Z</time>
      </trkpt>
      <trkpt lat="45.09877" lon="5.54024">
        <ele>1271.2</ele>
        <time>2020-07-19T08:09:43.000Z</time>
      </trkpt>
      <trkpt lat="45.09874" lon="5.5402">
        <ele>1271.6</ele>
        <time>2020-07-19T08:09:55.000Z</time>
      </trkpt>
      <trkpt lat="45.09869" lon="5.54014">
        <ele>1272.2</ele>
        <time>2020-07-19T08:10:00.000Z</time>
      </trkpt>
      <trkpt lat="45.09867" lon="5.54009">
        <ele>1272.8</ele>
        <time>2020-07-19T08:10:04.000Z</time>
      </trkpt>
      <trkpt lat="45.09868" lon="5.54006">
        <ele>1273.4</ele>
        <time>2020-07-19T08:10:08.000Z</time>
      </trkpt>
      <trkpt lat="45.09871" lon="5.54002">
        <ele>1274</ele>
        <time>2020-07-19T08:10:11.000Z</time>
      </trkpt>
      <trkpt lat="45.09873" lon="5.53996">
        <ele>1274.8</ele>
        <time>2020-07-19T08:10:15.000Z</time>
      </trkpt>
      <trkpt lat="45.0987" lon="5.53986">
        <ele>1276</ele>
        <time>2020-07-19T08:10:20.000Z</time>
      </trkpt>
      <trkpt lat="45.09871" lon="5.53977">
        <ele>1276.8</ele>
        <time>2020-07-19T08:10:24.000Z</time>
      </trkpt>
      <trkpt lat="45.09872" lon="5.53969">
        <ele>1278</ele>
        <time>2020-07-19T08:10:28.000Z</time>
      </trkpt>
      <trkpt lat="45.0987" lon="5.53959">
        <ele>1287</ele>
        <time>2020-07-19T08:11:16.000Z</time>
      </trkpt>
      <trkpt lat="45.09868" lon="5.53952">
        <ele>1288</ele>
        <time>2020-07-19T08:11:25.000Z</time>
      </trkpt>
      <trkpt lat="45.09866" lon="5.53945">
        <ele>1288.8</ele>
        <time>2020-07-19T08:11:30.000Z</time>
      </trkpt>
      <trkpt lat="45.09866" lon="5.53943">
        <ele>1289.4</ele>
        <time>2020-07-19T08:11:34.000Z</time>
      </trkpt>
      <trkpt lat="45.09861" lon="5.53937">
        <ele>1290.4</ele>
        <time>2020-07-19T08:11:41.000Z</time>
      </trkpt>
      <trkpt lat="45.09861" lon="5.53932">
        <ele>1291</ele>
        <time>2020-07-19T08:11:46.000Z</time>
      </trkpt>
      <trkpt lat="45.09859" lon="5.53919">
        <ele>1297.4</ele>
        <time>2020-07-19T08:13:28.000Z</time>
      </trkpt>
      <trkpt lat="45.09859" lon="5.53911">
        <ele>1297.4</ele>
        <time>2020-07-19T08:13:32.000Z</time>
      </trkpt>
      <trkpt lat="45.09857" lon="5.53901">
        <ele>1297.8</ele>
        <time>2020-07-19T08:13:37.000Z</time>
      </trkpt>
      <trkpt lat="45.09853" lon="5.53891">
        <ele>1298</ele>
        <time>2020-07-19T08:13:41.000Z</time>
      </trkpt>
      <trkpt lat="45.0985" lon="5.53882">
        <ele>1298</ele>
        <time>2020-07-19T08:13:45.000Z</time>
      </trkpt>
      <trkpt lat="45.09848" lon="5.53877">
        <ele>1298.2</ele>
        <time>2020-07-19T08:13:47.000Z</time>
      </trkpt>
      <trkpt lat="45.09843" lon="5.53868">
        <ele>1298.4</ele>
        <time>2020-07-19T08:13:51.000Z</time>
      </trkpt>
      <trkpt lat="45.0984" lon="5.53862">
        <ele>1298.8</ele>
        <time>2020-07-19T08:13:54.000Z</time>
      </trkpt>
      <trkpt lat="45.09834" lon="5.53851">
        <ele>1299.2</ele>
        <time>2020-07-19T08:13:58.000Z</time>
      </trkpt>
      <trkpt lat="45.09829" lon="5.53843">
        <ele>1299.4</ele>
        <time>2020-07-19T08:14:01.000Z</time>
      </trkpt>
      <trkpt lat="45.09826" lon="5.53839">
        <ele>1299.6</ele>
        <time>2020-07-19T08:14:03.000Z</time>
      </trkpt>
      <trkpt lat="45.09821" lon="5.53834">
        <ele>1300</ele>
        <time>2020-07-19T08:14:05.000Z</time>
      </trkpt>
      <trkpt lat="45.09813" lon="5.53823">
        <ele>1300.6</ele>
        <time>2020-07-19T08:14:09.000Z</time>
      </trkpt>
      <trkpt lat="45.09807" lon="5.53817">
        <ele>1300.8</ele>
        <time>2020-07-19T08:14:12.000Z</time>
      </trkpt>
      <trkpt lat="45.098" lon="5.53811">
        <ele>1301</ele>
        <time>2020-07-19T08:14:15.000Z</time>
      </trkpt>
      <trkpt lat="45.09795" lon="5.53808">
        <ele>1301.4</ele>
        <time>2020-07-19T08:14:17.000Z</time>
      </trkpt>
      <trkpt lat="45.09788" lon="5.53803">
        <ele>1301.8</ele>
        <time>2020-07-19T08:14:20.000Z</time>
      </trkpt>
      <trkpt lat="45.09781" lon="5.53799">
        <ele>1302.4</ele>
        <time>2020-07-19T08:14:23.000Z</time>
      </trkpt>
      <trkpt lat="45.09777" lon="5.53796">
        <ele>1302.6</ele>
        <time>2020-07-19T08:14:25.000Z</time>
      </trkpt>
      <trkpt lat="45.09771" lon="5.53792">
        <ele>1303.2</ele>
        <time>2020-07-19T08:14:28.000Z</time>
      </trkpt>
      <trkpt lat="45.09762" lon="5.53786">
        <ele>1303.8</ele>
        <time>2020-07-19T08:14:32.000Z</time>
      </trkpt>
      <trkpt lat="45.09753" lon="5.53782">
        <ele>1304.6</ele>
        <time>2020-07-19T08:14:36.000Z</time>
      </trkpt>
      <trkpt lat="45.09745" lon="5.53781">
        <ele>1305</ele>
        <time>2020-07-19T08:14:39.000Z</time>
      </trkpt>
      <trkpt lat="45.09741" lon="5.5378">
        <ele>1305.4</ele>
        <time>2020-07-19T08:14:41.000Z</time>
      </trkpt>
      <trkpt lat="45.09731" lon="5.53777">
        <ele>1306</ele>
        <time>2020-07-19T08:14:45.000Z</time>
      </trkpt>
      <trkpt lat="45.09726" lon="5.53775">
        <ele>1306.4</ele>
        <time>2020-07-19T08:14:47.000Z</time>
      </trkpt>
      <trkpt lat="45.0972" lon="5.5377">
        <ele>1306.8</ele>
        <time>2020-07-19T08:14:50.000Z</time>
      </trkpt>
      <trkpt lat="45.09711" lon="5.53766">
        <ele>1307.4</ele>
        <time>2020-07-19T08:14:54.000Z</time>
      </trkpt>
      <trkpt lat="45.09705" lon="5.53762">
        <ele>1307.8</ele>
        <time>2020-07-19T08:14:57.000Z</time>
      </trkpt>
      <trkpt lat="45.09701" lon="5.5376">
        <ele>1308.2</ele>
        <time>2020-07-19T08:14:59.000Z</time>
      </trkpt>
      <trkpt lat="45.09695" lon="5.53756">
        <ele>1308.6</ele>
        <time>2020-07-19T08:15:02.000Z</time>
      </trkpt>
      <trkpt lat="45.09691" lon="5.53752">
        <ele>1309</ele>
        <time>2020-07-19T08:15:04.000Z</time>
      </trkpt>
      <trkpt lat="45.09683" lon="5.53746">
        <ele>1309.4</ele>
        <time>2020-07-19T08:15:07.000Z</time>
      </trkpt>
      <trkpt lat="45.09675" lon="5.53741">
        <ele>1309.8</ele>
        <time>2020-07-19T08:15:10.000Z</time>
      </trkpt>
      <trkpt lat="45.09667" lon="5.53733">
        <ele>1310.4</ele>
        <time>2020-07-19T08:15:14.000Z</time>
      </trkpt>
      <trkpt lat="45.09662" lon="5.53727">
        <ele>1310.8</ele>
        <time>2020-07-19T08:15:17.000Z</time>
      </trkpt>
      <trkpt lat="45.0966" lon="5.53721">
        <ele>1311</ele>
        <time>2020-07-19T08:15:19.000Z</time>
      </trkpt>
      <trkpt lat="45.0966" lon="5.53709">
        <ele>1311.6</ele>
        <time>2020-07-19T08:15:22.000Z</time>
      </trkpt>
      <trkpt lat="45.09665" lon="5.53694">
        <ele>1312</ele>
        <time>2020-07-19T08:15:26.000Z</time>
      </trkpt>
      <trkpt lat="45.09668" lon="5.53683">
        <ele>1312.4</ele>
        <time>2020-07-19T08:15:29.000Z</time>
      </trkpt>
      <trkpt lat="45.09674" lon="5.53671">
        <ele>1312.8</ele>
        <time>2020-07-19T08:15:33.000Z</time>
      </trkpt>
      <trkpt lat="45.09678" lon="5.53664">
        <ele>1313</ele>
        <time>2020-07-19T08:15:36.000Z</time>
      </trkpt>
      <trkpt lat="45.0968" lon="5.53659">
        <ele>1313</ele>
        <time>2020-07-19T08:15:38.000Z</time>
      </trkpt>
      <trkpt lat="45.09686" lon="5.53648">
        <ele>1313.6</ele>
        <time>2020-07-19T08:15:42.000Z</time>
      </trkpt>
      <trkpt lat="45.09689" lon="5.53636">
        <ele>1314</ele>
        <time>2020-07-19T08:15:46.000Z</time>
      </trkpt>
      <trkpt lat="45.09691" lon="5.53629">
        <ele>1314.2</ele>
        <time>2020-07-19T08:15:48.000Z</time>
      </trkpt>
      <trkpt lat="45.09689" lon="5.53617">
        <ele>1314.6</ele>
        <time>2020-07-19T08:15:52.000Z</time>
      </trkpt>
      <trkpt lat="45.09685" lon="5.53604">
        <ele>1315</ele>
        <time>2020-07-19T08:15:56.000Z</time>
      </trkpt>
      <trkpt lat="45.09683" lon="5.53598">
        <ele>1315.2</ele>
        <time>2020-07-19T08:15:58.000Z</time>
      </trkpt>
      <trkpt lat="45.09678" lon="5.5359">
        <ele>1315.6</ele>
        <time>2020-07-19T08:16:01.000Z</time>
      </trkpt>
      <trkpt lat="45.09671" lon="5.5358">
        <ele>1316</ele>
        <time>2020-07-19T08:16:05.000Z</time>
      </trkpt>
      <trkpt lat="45.09666" lon="5.53575">
        <ele>1316.2</ele>
        <time>2020-07-19T08:16:07.000Z</time>
      </trkpt>
      <trkpt lat="45.09657" lon="5.53569">
        <ele>1316.6</ele>
        <time>2020-07-19T08:16:11.000Z</time>
      </trkpt>
      <trkpt lat="45.09649" lon="5.53565">
        <ele>1317.2</ele>
        <time>2020-07-19T08:16:15.000Z</time>
      </trkpt>
      <trkpt lat="45.0964" lon="5.53564">
        <ele>1317.8</ele>
        <time>2020-07-19T08:16:20.000Z</time>
      </trkpt>
      <trkpt lat="45.09634" lon="5.53565">
        <ele>1318.2</ele>
        <time>2020-07-19T08:16:23.000Z</time>
      </trkpt>
      <trkpt lat="45.09629" lon="5.53564">
        <ele>1318.6</ele>
        <time>2020-07-19T08:16:26.000Z</time>
      </trkpt>
      <trkpt lat="45.09619" lon="5.53563">
        <ele>1319.2</ele>
        <time>2020-07-19T08:16:31.000Z</time>
      </trkpt>
      <trkpt lat="45.09615" lon="5.53564">
        <ele>1319.4</ele>
        <time>2020-07-19T08:16:33.000Z</time>
      </trkpt>
      <trkpt lat="45.09606" lon="5.53569">
        <ele>1320</ele>
        <time>2020-07-19T08:16:37.000Z</time>
      </trkpt>
      <trkpt lat="45.09601" lon="5.53571">
        <ele>1320.4</ele>
        <time>2020-07-19T08:16:40.000Z</time>
      </trkpt>
      <trkpt lat="45.09596" lon="5.53574">
        <ele>1321.2</ele>
        <time>2020-07-19T08:16:44.000Z</time>
      </trkpt>
      <trkpt lat="45.09589" lon="5.53578">
        <ele>1321.8</ele>
        <time>2020-07-19T08:16:48.000Z</time>
      </trkpt>
      <trkpt lat="45.09581" lon="5.53587">
        <ele>1322.8</ele>
        <time>2020-07-19T08:16:54.000Z</time>
      </trkpt>
      <trkpt lat="45.0957" lon="5.53601">
        <ele>1324.2</ele>
        <time>2020-07-19T08:17:03.000Z</time>
      </trkpt>
      <trkpt lat="45.09563" lon="5.53609">
        <ele>1325</ele>
        <time>2020-07-19T08:17:08.000Z</time>
      </trkpt>
      <trkpt lat="45.09557" lon="5.53616">
        <ele>1325.6</ele>
        <time>2020-07-19T08:17:12.000Z</time>
      </trkpt>
      <trkpt lat="45.0955" lon="5.53623">
        <ele>1326.4</ele>
        <time>2020-07-19T08:17:17.000Z</time>
      </trkpt>
      <trkpt lat="45.09546" lon="5.53627">
        <ele>1327.2</ele>
        <time>2020-07-19T08:17:21.000Z</time>
      </trkpt>
      <trkpt lat="45.09545" lon="5.53628">
        <ele>1327.6</ele>
        <time>2020-07-19T08:17:43.000Z</time>
      </trkpt>
      <trkpt lat="45.09539" lon="5.53633">
        <ele>1329</ele>
        <time>2020-07-19T08:17:59.000Z</time>
      </trkpt>
      <trkpt lat="45.09533" lon="5.53636">
        <ele>1329.2</ele>
        <time>2020-07-19T08:18:04.000Z</time>
      </trkpt>
      <trkpt lat="45.09526" lon="5.5364">
        <ele>1329.6</ele>
        <time>2020-07-19T08:18:09.000Z</time>
      </trkpt>
      <trkpt lat="45.0952" lon="5.53644">
        <ele>1330</ele>
        <time>2020-07-19T08:18:13.000Z</time>
      </trkpt>
      <trkpt lat="45.09515" lon="5.53652">
        <ele>1330.6</ele>
        <time>2020-07-19T08:18:18.000Z</time>
      </trkpt>
      <trkpt lat="45.09513" lon="5.53662">
        <ele>1331.4</ele>
        <time>2020-07-19T08:18:24.000Z</time>
      </trkpt>
      <trkpt lat="45.09512" lon="5.53673">
        <ele>1331.4</ele>
        <time>2020-07-19T08:18:30.000Z</time>
      </trkpt>
      <trkpt lat="45.09511" lon="5.53677">
        <ele>1331.6</ele>
        <time>2020-07-19T08:18:32.000Z</time>
      </trkpt>
      <trkpt lat="45.09508" lon="5.53684">
        <ele>1331.6</ele>
        <time>2020-07-19T08:18:35.000Z</time>
      </trkpt>
      <trkpt lat="45.09506" lon="5.53697">
        <ele>1331.6</ele>
        <time>2020-07-19T08:18:40.000Z</time>
      </trkpt>
      <trkpt lat="45.09506" lon="5.53703">
        <ele>1331.6</ele>
        <time>2020-07-19T08:18:42.000Z</time>
      </trkpt>
      <trkpt lat="45.09504" lon="5.53712">
        <ele>1331.4</ele>
        <time>2020-07-19T08:18:46.000Z</time>
      </trkpt>
      <trkpt lat="45.09503" lon="5.53718">
        <ele>1331.4</ele>
        <time>2020-07-19T08:18:48.000Z</time>
      </trkpt>
      <trkpt lat="45.095" lon="5.53731">
        <ele>1331.2</ele>
        <time>2020-07-19T08:18:52.000Z</time>
      </trkpt>
      <trkpt lat="45.09494" lon="5.53743">
        <ele>1331</ele>
        <time>2020-07-19T08:18:57.000Z</time>
      </trkpt>
      <trkpt lat="45.09491" lon="5.53751">
        <ele>1331</ele>
        <time>2020-07-19T08:19:00.000Z</time>
      </trkpt>
      <trkpt lat="45.09486" lon="5.53759">
        <ele>1331</ele>
        <time>2020-07-19T08:19:04.000Z</time>
      </trkpt>
      <trkpt lat="45.0948" lon="5.53769">
        <ele>1331.6</ele>
        <time>2020-07-19T08:19:09.000Z</time>
      </trkpt>
      <trkpt lat="45.09475" lon="5.53774">
        <ele>1332.4</ele>
        <time>2020-07-19T08:19:12.000Z</time>
      </trkpt>
      <trkpt lat="45.09472" lon="5.5378">
        <ele>1333</ele>
        <time>2020-07-19T08:19:15.000Z</time>
      </trkpt>
      <trkpt lat="45.09467" lon="5.53784">
        <ele>1333.8</ele>
        <time>2020-07-19T08:19:18.000Z</time>
      </trkpt>
      <trkpt lat="45.09458" lon="5.53783">
        <ele>1335</ele>
        <time>2020-07-19T08:19:23.000Z</time>
      </trkpt>
      <trkpt lat="45.09451" lon="5.53788">
        <ele>1336.6</ele>
        <time>2020-07-19T08:19:28.000Z</time>
      </trkpt>
      <trkpt lat="45.09444" lon="5.5379">
        <ele>1337.8</ele>
        <time>2020-07-19T08:19:32.000Z</time>
      </trkpt>
      <trkpt lat="45.09441" lon="5.53793">
        <ele>1338.6</ele>
        <time>2020-07-19T08:19:34.000Z</time>
      </trkpt>
      <trkpt lat="45.0944" lon="5.538">
        <ele>1339.6</ele>
        <time>2020-07-19T08:19:37.000Z</time>
      </trkpt>
      <trkpt lat="45.09436" lon="5.53809">
        <ele>1341</ele>
        <time>2020-07-19T08:19:41.000Z</time>
      </trkpt>
      <trkpt lat="45.09435" lon="5.53816">
        <ele>1342.2</ele>
        <time>2020-07-19T08:19:45.000Z</time>
      </trkpt>
      <trkpt lat="45.09428" lon="5.5382">
        <ele>1343.8</ele>
        <time>2020-07-19T08:19:49.000Z</time>
      </trkpt>
      <trkpt lat="45.09423" lon="5.53827">
        <ele>1345</ele>
        <time>2020-07-19T08:19:53.000Z</time>
      </trkpt>
      <trkpt lat="45.09421" lon="5.5383">
        <ele>1345.8</ele>
        <time>2020-07-19T08:19:55.000Z</time>
      </trkpt>
      <trkpt lat="45.09415" lon="5.5383">
        <ele>1346.6</ele>
        <time>2020-07-19T08:19:58.000Z</time>
      </trkpt>
      <trkpt lat="45.09407" lon="5.53826">
        <ele>1347.6</ele>
        <time>2020-07-19T08:20:02.000Z</time>
      </trkpt>
      <trkpt lat="45.09402" lon="5.53829">
        <ele>1348.8</ele>
        <time>2020-07-19T08:20:06.000Z</time>
      </trkpt>
      <trkpt lat="45.09399" lon="5.5383">
        <ele>1349.2</ele>
        <time>2020-07-19T08:20:08.000Z</time>
      </trkpt>
      <trkpt lat="45.09393" lon="5.53829">
        <ele>1350</ele>
        <time>2020-07-19T08:20:11.000Z</time>
      </trkpt>
      <trkpt lat="45.0939" lon="5.53831">
        <ele>1350.6</ele>
        <time>2020-07-19T08:20:13.000Z</time>
      </trkpt>
      <trkpt lat="45.09382" lon="5.53833">
        <ele>1351.4</ele>
        <time>2020-07-19T08:20:17.000Z</time>
      </trkpt>
      <trkpt lat="45.09377" lon="5.53838">
        <ele>1352.2</ele>
        <time>2020-07-19T08:20:21.000Z</time>
      </trkpt>
      <trkpt lat="45.09372" lon="5.53838">
        <ele>1352.8</ele>
        <time>2020-07-19T08:20:24.000Z</time>
      </trkpt>
      <trkpt lat="45.09368" lon="5.53837">
        <ele>1353.8</ele>
        <time>2020-07-19T08:20:29.000Z</time>
      </trkpt>
      <trkpt lat="45.09365" lon="5.53834">
        <ele>1358.2</ele>
        <time>2020-07-19T08:22:43.000Z</time>
      </trkpt>
      <trkpt lat="45.09363" lon="5.53829">
        <ele>1358.2</ele>
        <time>2020-07-19T08:22:47.000Z</time>
      </trkpt>
      <trkpt lat="45.09357" lon="5.53821">
        <ele>1358</ele>
        <time>2020-07-19T08:22:53.000Z</time>
      </trkpt>
      <trkpt lat="45.09353" lon="5.53817">
        <ele>1358</ele>
        <time>2020-07-19T08:22:56.000Z</time>
      </trkpt>
      <trkpt lat="45.09348" lon="5.53808">
        <ele>1358</ele>
        <time>2020-07-19T08:23:01.000Z</time>
      </trkpt>
      <trkpt lat="45.09344" lon="5.53798">
        <ele>1358</ele>
        <time>2020-07-19T08:23:05.000Z</time>
      </trkpt>
      <trkpt lat="45.0934" lon="5.53794">
        <ele>1358</ele>
        <time>2020-07-19T08:23:07.000Z</time>
      </trkpt>
      <trkpt lat="45.09334" lon="5.53786">
        <ele>1357.8</ele>
        <time>2020-07-19T08:23:11.000Z</time>
      </trkpt>
      <trkpt lat="45.09331" lon="5.53778">
        <ele>1357.8</ele>
        <time>2020-07-19T08:23:13.000Z</time>
      </trkpt>
      <trkpt lat="45.09328" lon="5.53771">
        <ele>1357.8</ele>
        <time>2020-07-19T08:23:15.000Z</time>
      </trkpt>
      <trkpt lat="45.09318" lon="5.53762">
        <ele>1357.4</ele>
        <time>2020-07-19T08:23:19.000Z</time>
      </trkpt>
      <trkpt lat="45.0931" lon="5.53756">
        <ele>1357.2</ele>
        <time>2020-07-19T08:23:22.000Z</time>
      </trkpt>
      <trkpt lat="45.09304" lon="5.53752">
        <ele>1357</ele>
        <time>2020-07-19T08:23:27.000Z</time>
      </trkpt>
      <trkpt lat="45.09303" lon="5.53752">
        <ele>1356.4</ele>
        <time>2020-07-19T08:23:45.000Z</time>
      </trkpt>
      <trkpt lat="45.09303" lon="5.53754">
        <ele>1356.4</ele>
        <time>2020-07-19T08:23:50.000Z</time>
      </trkpt>
      <trkpt lat="45.093" lon="5.53757">
        <ele>1356.6</ele>
        <time>2020-07-19T08:24:00.000Z</time>
      </trkpt>
      <trkpt lat="45.09295" lon="5.53756">
        <ele>1356.6</ele>
        <time>2020-07-19T08:24:04.000Z</time>
      </trkpt>
      <trkpt lat="45.0929" lon="5.53756">
        <ele>1356.6</ele>
        <time>2020-07-19T08:24:07.000Z</time>
      </trkpt>
      <trkpt lat="45.09282" lon="5.53756">
        <ele>1356.8</ele>
        <time>2020-07-19T08:24:11.000Z</time>
      </trkpt>
      <trkpt lat="45.09275" lon="5.53756">
        <ele>1357</ele>
        <time>2020-07-19T08:24:15.000Z</time>
      </trkpt>
      <trkpt lat="45.09266" lon="5.53756">
        <ele>1357.4</ele>
        <time>2020-07-19T08:24:20.000Z</time>
      </trkpt>
      <trkpt lat="45.09266" lon="5.53749">
        <ele>1357.4</ele>
        <time>2020-07-19T08:24:24.000Z</time>
      </trkpt>
      <trkpt lat="45.09264" lon="5.53739">
        <ele>1357.2</ele>
        <time>2020-07-19T08:24:28.000Z</time>
      </trkpt>
      <trkpt lat="45.09259" lon="5.53732">
        <ele>1357</ele>
        <time>2020-07-19T08:24:30.000Z</time>
      </trkpt>
      <trkpt lat="45.09255" lon="5.53729">
        <ele>1356.8</ele>
        <time>2020-07-19T08:24:32.000Z</time>
      </trkpt>
      <trkpt lat="45.09247" lon="5.53723">
        <ele>1356.6</ele>
        <time>2020-07-19T08:24:36.000Z</time>
      </trkpt>
      <trkpt lat="45.09244" lon="5.53714">
        <ele>1356.6</ele>
        <time>2020-07-19T08:24:39.000Z</time>
      </trkpt>
      <trkpt lat="45.09243" lon="5.53705">
        <ele>1356.2</ele>
        <time>2020-07-19T08:24:42.000Z</time>
      </trkpt>
      <trkpt lat="45.09242" lon="5.53697">
        <ele>1356.4</ele>
        <time>2020-07-19T08:24:44.000Z</time>
      </trkpt>
      <trkpt lat="45.09242" lon="5.5369">
        <ele>1356.2</ele>
        <time>2020-07-19T08:24:46.000Z</time>
      </trkpt>
      <trkpt lat="45.09244" lon="5.53679">
        <ele>1355.8</ele>
        <time>2020-07-19T08:24:50.000Z</time>
      </trkpt>
      <trkpt lat="45.09244" lon="5.53671">
        <ele>1355.6</ele>
        <time>2020-07-19T08:24:53.000Z</time>
      </trkpt>
      <trkpt lat="45.09245" lon="5.5366">
        <ele>1355.2</ele>
        <time>2020-07-19T08:24:56.000Z</time>
      </trkpt>
      <trkpt lat="45.09244" lon="5.53654">
        <ele>1354.8</ele>
        <time>2020-07-19T08:24:58.000Z</time>
      </trkpt>
      <trkpt lat="45.09243" lon="5.53645">
        <ele>1354.6</ele>
        <time>2020-07-19T08:25:00.000Z</time>
      </trkpt>
      <trkpt lat="45.0924" lon="5.53633">
        <ele>1354.2</ele>
        <time>2020-07-19T08:25:03.000Z</time>
      </trkpt>
      <trkpt lat="45.09238" lon="5.53627">
        <ele>1354</ele>
        <time>2020-07-19T08:25:05.000Z</time>
      </trkpt>
      <trkpt lat="45.09233" lon="5.5362">
        <ele>1353.8</ele>
        <time>2020-07-19T08:25:08.000Z</time>
      </trkpt>
      <trkpt lat="45.0923" lon="5.53613">
        <ele>1353.6</ele>
        <time>2020-07-19T08:25:12.000Z</time>
      </trkpt>
      <trkpt lat="45.09224" lon="5.53608">
        <ele>1353.4</ele>
        <time>2020-07-19T08:25:16.000Z</time>
      </trkpt>
      <trkpt lat="45.0922" lon="5.53598">
        <ele>1353.4</ele>
        <time>2020-07-19T08:25:20.000Z</time>
      </trkpt>
      <trkpt lat="45.09215" lon="5.53588">
        <ele>1353.2</ele>
        <time>2020-07-19T08:25:23.000Z</time>
      </trkpt>
      <trkpt lat="45.09206" lon="5.53578">
        <ele>1352.8</ele>
        <time>2020-07-19T08:25:26.000Z</time>
      </trkpt>
      <trkpt lat="45.09202" lon="5.53575">
        <ele>1352.8</ele>
        <time>2020-07-19T08:25:27.000Z</time>
      </trkpt>
      <trkpt lat="45.09196" lon="5.53571">
        <ele>1352.8</ele>
        <time>2020-07-19T08:25:29.000Z</time>
      </trkpt>
      <trkpt lat="45.09191" lon="5.53567">
        <ele>1352.6</ele>
        <time>2020-07-19T08:25:31.000Z</time>
      </trkpt>
      <trkpt lat="45.09185" lon="5.53557">
        <ele>1352.4</ele>
        <time>2020-07-19T08:25:35.000Z</time>
      </trkpt>
      <trkpt lat="45.09179" lon="5.53552">
        <ele>1352.2</ele>
        <time>2020-07-19T08:25:37.000Z</time>
      </trkpt>
      <trkpt lat="45.09172" lon="5.53545">
        <ele>1352</ele>
        <time>2020-07-19T08:25:40.000Z</time>
      </trkpt>
      <trkpt lat="45.09169" lon="5.53535">
        <ele>1351.8</ele>
        <time>2020-07-19T08:25:43.000Z</time>
      </trkpt>
      <trkpt lat="45.09164" lon="5.53522">
        <ele>1351.8</ele>
        <time>2020-07-19T08:25:47.000Z</time>
      </trkpt>
      <trkpt lat="45.09162" lon="5.53522">
        <ele>1351.6</ele>
        <time>2020-07-19T08:25:51.000Z</time>
      </trkpt>
      <trkpt lat="45.09161" lon="5.53516">
        <ele>1349</ele>
        <time>2020-07-19T08:26:39.000Z</time>
      </trkpt>
      <trkpt lat="45.09157" lon="5.53503">
        <ele>1348.8</ele>
        <time>2020-07-19T08:26:44.000Z</time>
      </trkpt>
      <trkpt lat="45.09154" lon="5.53493">
        <ele>1348.8</ele>
        <time>2020-07-19T08:26:47.000Z</time>
      </trkpt>
      <trkpt lat="45.09148" lon="5.53481">
        <ele>1349</ele>
        <time>2020-07-19T08:26:51.000Z</time>
      </trkpt>
      <trkpt lat="45.09142" lon="5.53474">
        <ele>1349.2</ele>
        <time>2020-07-19T08:26:55.000Z</time>
      </trkpt>
      <trkpt lat="45.09136" lon="5.53472">
        <ele>1349.4</ele>
        <time>2020-07-19T08:26:58.000Z</time>
      </trkpt>
      <trkpt lat="45.09131" lon="5.5347">
        <ele>1349.6</ele>
        <time>2020-07-19T08:27:01.000Z</time>
      </trkpt>
      <trkpt lat="45.09126" lon="5.53469">
        <ele>1350</ele>
        <time>2020-07-19T08:27:06.000Z</time>
      </trkpt>
      <trkpt lat="45.09126" lon="5.53463">
        <ele>1345.8</ele>
        <time>2020-07-19T08:34:30.000Z</time>
      </trkpt>
      <trkpt lat="45.09126" lon="5.53466">
        <ele>1345.4</ele>
        <time>2020-07-19T08:34:34.000Z</time>
      </trkpt>
      <trkpt lat="45.09125" lon="5.5347">
        <ele>1345.2</ele>
        <time>2020-07-19T08:34:38.000Z</time>
      </trkpt>
      <trkpt lat="45.09124" lon="5.53474">
        <ele>1345.2</ele>
        <time>2020-07-19T08:34:40.000Z</time>
      </trkpt>
      <trkpt lat="45.09125" lon="5.5348">
        <ele>1345.2</ele>
        <time>2020-07-19T08:34:43.000Z</time>
      </trkpt>
      <trkpt lat="45.09131" lon="5.53487">
        <ele>1345.4</ele>
        <time>2020-07-19T08:34:48.000Z</time>
      </trkpt>
      <trkpt lat="45.09132" lon="5.53494">
        <ele>1345.6</ele>
        <time>2020-07-19T08:34:52.000Z</time>
      </trkpt>
      <trkpt lat="45.09129" lon="5.53503">
        <ele>1346</ele>
        <time>2020-07-19T08:34:56.000Z</time>
      </trkpt>
      <trkpt lat="45.09127" lon="5.53509">
        <ele>1346.4</ele>
        <time>2020-07-19T08:35:01.000Z</time>
      </trkpt>
      <trkpt lat="45.09123" lon="5.53519">
        <ele>1345.8</ele>
        <time>2020-07-19T08:35:51.000Z</time>
      </trkpt>
      <trkpt lat="45.09122" lon="5.53525">
        <ele>1345.6</ele>
        <time>2020-07-19T08:35:55.000Z</time>
      </trkpt>
      <trkpt lat="45.09125" lon="5.53534">
        <ele>1345.2</ele>
        <time>2020-07-19T08:36:00.000Z</time>
      </trkpt>
      <trkpt lat="45.09123" lon="5.53542">
        <ele>1345.2</ele>
        <time>2020-07-19T08:36:03.000Z</time>
      </trkpt>
      <trkpt lat="45.09121" lon="5.53549">
        <ele>1345.4</ele>
        <time>2020-07-19T08:36:07.000Z</time>
      </trkpt>
      <trkpt lat="45.09117" lon="5.5356">
        <ele>1346</ele>
        <time>2020-07-19T08:36:13.000Z</time>
      </trkpt>
      <trkpt lat="45.09113" lon="5.53571">
        <ele>1345.8</ele>
        <time>2020-07-19T08:36:16.000Z</time>
      </trkpt>
      <trkpt lat="45.0911" lon="5.53584">
        <ele>1346</ele>
        <time>2020-07-19T08:36:19.000Z</time>
      </trkpt>
      <trkpt lat="45.09107" lon="5.53592">
        <ele>1346.2</ele>
        <time>2020-07-19T08:36:21.000Z</time>
      </trkpt>
      <trkpt lat="45.09104" lon="5.53604">
        <ele>1346.6</ele>
        <time>2020-07-19T08:36:24.000Z</time>
      </trkpt>
      <trkpt lat="45.091" lon="5.53615">
        <ele>1346.8</ele>
        <time>2020-07-19T08:36:27.000Z</time>
      </trkpt>
      <trkpt lat="45.09097" lon="5.53627">
        <ele>1347</ele>
        <time>2020-07-19T08:36:31.000Z</time>
      </trkpt>
      <trkpt lat="45.09092" lon="5.53638">
        <ele>1347.2</ele>
        <time>2020-07-19T08:36:34.000Z</time>
      </trkpt>
      <trkpt lat="45.09089" lon="5.53646">
        <ele>1347.2</ele>
        <time>2020-07-19T08:36:37.000Z</time>
      </trkpt>
      <trkpt lat="45.09089" lon="5.53655">
        <ele>1347.6</ele>
        <time>2020-07-19T08:36:41.000Z</time>
      </trkpt>
      <trkpt lat="45.09087" lon="5.5366">
        <ele>1348</ele>
        <time>2020-07-19T08:36:45.000Z</time>
      </trkpt>
      <trkpt lat="45.09084" lon="5.53666">
        <ele>1348.2</ele>
        <time>2020-07-19T08:36:50.000Z</time>
      </trkpt>
      <trkpt lat="45.09079" lon="5.53675">
        <ele>1348.2</ele>
        <time>2020-07-19T08:36:54.000Z</time>
      </trkpt>
      <trkpt lat="45.09076" lon="5.53686">
        <ele>1348.4</ele>
        <time>2020-07-19T08:36:58.000Z</time>
      </trkpt>
      <trkpt lat="45.09073" lon="5.53692">
        <ele>1348.4</ele>
        <time>2020-07-19T08:37:00.000Z</time>
      </trkpt>
      <trkpt lat="45.09064" lon="5.53707">
        <ele>1348.8</ele>
        <time>2020-07-19T08:37:07.000Z</time>
      </trkpt>
      <trkpt lat="45.09058" lon="5.53717">
        <ele>1349.4</ele>
        <time>2020-07-19T08:37:12.000Z</time>
      </trkpt>
      <trkpt lat="45.09053" lon="5.53727">
        <ele>1349.8</ele>
        <time>2020-07-19T08:37:16.000Z</time>
      </trkpt>
      <trkpt lat="45.09045" lon="5.5374">
        <ele>1349.8</ele>
        <time>2020-07-19T08:37:20.000Z</time>
      </trkpt>
      <trkpt lat="45.09042" lon="5.53743">
        <ele>1350</ele>
        <time>2020-07-19T08:37:21.000Z</time>
      </trkpt>
      <trkpt lat="45.09037" lon="5.53755">
        <ele>1350</ele>
        <time>2020-07-19T08:37:24.000Z</time>
      </trkpt>
      <trkpt lat="45.09033" lon="5.53768">
        <ele>1350</ele>
        <time>2020-07-19T08:37:27.000Z</time>
      </trkpt>
      <trkpt lat="45.09027" lon="5.53779">
        <ele>1350.2</ele>
        <time>2020-07-19T08:37:31.000Z</time>
      </trkpt>
      <trkpt lat="45.09021" lon="5.53786">
        <ele>1350</ele>
        <time>2020-07-19T08:37:34.000Z</time>
      </trkpt>
      <trkpt lat="45.09017" lon="5.53793">
        <ele>1350</ele>
        <time>2020-07-19T08:37:36.000Z</time>
      </trkpt>
      <trkpt lat="45.09012" lon="5.53798">
        <ele>1349.8</ele>
        <time>2020-07-19T08:37:38.000Z</time>
      </trkpt>
      <trkpt lat="45.09009" lon="5.53804">
        <ele>1349.8</ele>
        <time>2020-07-19T08:37:40.000Z</time>
      </trkpt>
      <trkpt lat="45.09003" lon="5.53814">
        <ele>1349.6</ele>
        <time>2020-07-19T08:37:44.000Z</time>
      </trkpt>
      <trkpt lat="45.09001" lon="5.53819">
        <ele>1349.6</ele>
        <time>2020-07-19T08:37:46.000Z</time>
      </trkpt>
      <trkpt lat="45.08995" lon="5.53824">
        <ele>1349.4</ele>
        <time>2020-07-19T08:37:49.000Z</time>
      </trkpt>
      <trkpt lat="45.08991" lon="5.5383">
        <ele>1349.2</ele>
        <time>2020-07-19T08:37:51.000Z</time>
      </trkpt>
      <trkpt lat="45.08987" lon="5.53837">
        <ele>1349</ele>
        <time>2020-07-19T08:37:54.000Z</time>
      </trkpt>
      <trkpt lat="45.08983" lon="5.53841">
        <ele>1348.8</ele>
        <time>2020-07-19T08:37:57.000Z</time>
      </trkpt>
      <trkpt lat="45.08977" lon="5.53851">
        <ele>1348.4</ele>
        <time>2020-07-19T08:38:01.000Z</time>
      </trkpt>
      <trkpt lat="45.0897" lon="5.53858">
        <ele>1348</ele>
        <time>2020-07-19T08:38:05.000Z</time>
      </trkpt>
      <trkpt lat="45.08967" lon="5.53863">
        <ele>1347.8</ele>
        <time>2020-07-19T08:38:07.000Z</time>
      </trkpt>
      <trkpt lat="45.08963" lon="5.53871">
        <ele>1347.6</ele>
        <time>2020-07-19T08:38:09.000Z</time>
      </trkpt>
      <trkpt lat="45.08959" lon="5.53876">
        <ele>1347.4</ele>
        <time>2020-07-19T08:38:11.000Z</time>
      </trkpt>
      <trkpt lat="45.08953" lon="5.53882">
        <ele>1347.2</ele>
        <time>2020-07-19T08:38:14.000Z</time>
      </trkpt>
      <trkpt lat="45.08944" lon="5.53887">
        <ele>1346.8</ele>
        <time>2020-07-19T08:38:18.000Z</time>
      </trkpt>
      <trkpt lat="45.08935" lon="5.53893">
        <ele>1346.6</ele>
        <time>2020-07-19T08:38:22.000Z</time>
      </trkpt>
      <trkpt lat="45.08931" lon="5.53897">
        <ele>1346.4</ele>
        <time>2020-07-19T08:38:24.000Z</time>
      </trkpt>
      <trkpt lat="45.08925" lon="5.53904">
        <ele>1346.2</ele>
        <time>2020-07-19T08:38:27.000Z</time>
      </trkpt>
      <trkpt lat="45.08916" lon="5.53911">
        <ele>1346</ele>
        <time>2020-07-19T08:38:31.000Z</time>
      </trkpt>
      <trkpt lat="45.0891" lon="5.5392">
        <ele>1345.8</ele>
        <time>2020-07-19T08:38:35.000Z</time>
      </trkpt>
      <trkpt lat="45.08904" lon="5.53931">
        <ele>1345.6</ele>
        <time>2020-07-19T08:38:41.000Z</time>
      </trkpt>
      <trkpt lat="45.08897" lon="5.53939">
        <ele>1341.4</ele>
        <time>2020-07-19T08:39:23.000Z</time>
      </trkpt>
      <trkpt lat="45.08892" lon="5.53946">
        <ele>1340.8</ele>
        <time>2020-07-19T08:39:27.000Z</time>
      </trkpt>
      <trkpt lat="45.08883" lon="5.53948">
        <ele>1334.8</ele>
        <time>2020-07-19T08:40:23.000Z</time>
      </trkpt>
      <trkpt lat="45.08879" lon="5.5395">
        <ele>1334.2</ele>
        <time>2020-07-19T08:40:28.000Z</time>
      </trkpt>
      <trkpt lat="45.08875" lon="5.53959">
        <ele>1333.6</ele>
        <time>2020-07-19T08:40:32.000Z</time>
      </trkpt>
      <trkpt lat="45.08873" lon="5.53966">
        <ele>1333.4</ele>
        <time>2020-07-19T08:40:34.000Z</time>
      </trkpt>
      <trkpt lat="45.08866" lon="5.53979">
        <ele>1333</ele>
        <time>2020-07-19T08:40:38.000Z</time>
      </trkpt>
      <trkpt lat="45.08862" lon="5.53988">
        <ele>1332.8</ele>
        <time>2020-07-19T08:40:41.000Z</time>
      </trkpt>
      <trkpt lat="45.08857" lon="5.5399">
        <ele>1332.8</ele>
        <time>2020-07-19T08:40:44.000Z</time>
      </trkpt>
      <trkpt lat="45.08851" lon="5.53999">
        <ele>1332.6</ele>
        <time>2020-07-19T08:40:50.000Z</time>
      </trkpt>
      <trkpt lat="45.08849" lon="5.54008">
        <ele>1332.4</ele>
        <time>2020-07-19T08:40:55.000Z</time>
      </trkpt>
      <trkpt lat="45.08846" lon="5.54015">
        <ele>1332.2</ele>
        <time>2020-07-19T08:40:58.000Z</time>
      </trkpt>
      <trkpt lat="45.08844" lon="5.54024">
        <ele>1331.8</ele>
        <time>2020-07-19T08:41:01.000Z</time>
      </trkpt>
      <trkpt lat="45.08844" lon="5.5403">
        <ele>1331.6</ele>
        <time>2020-07-19T08:41:03.000Z</time>
      </trkpt>
      <trkpt lat="45.08837" lon="5.54037">
        <ele>1331</ele>
        <time>2020-07-19T08:41:07.000Z</time>
      </trkpt>
      <trkpt lat="45.08833" lon="5.5403">
        <ele>1330.4</ele>
        <time>2020-07-19T08:41:11.000Z</time>
      </trkpt>
      <trkpt lat="45.08828" lon="5.5403">
        <ele>1330</ele>
        <time>2020-07-19T08:41:14.000Z</time>
      </trkpt>
      <trkpt lat="45.08822" lon="5.54039">
        <ele>1329.6</ele>
        <time>2020-07-19T08:41:17.000Z</time>
      </trkpt>
      <trkpt lat="45.08821" lon="5.54044">
        <ele>1329.2</ele>
        <time>2020-07-19T08:41:19.000Z</time>
      </trkpt>
      <trkpt lat="45.08817" lon="5.54056">
        <ele>1328</ele>
        <time>2020-07-19T08:41:26.000Z</time>
      </trkpt>
      <trkpt lat="45.08815" lon="5.54056">
        <ele>1326.8</ele>
        <time>2020-07-19T08:41:32.000Z</time>
      </trkpt>
      <trkpt lat="45.08814" lon="5.54051">
        <ele>1326</ele>
        <time>2020-07-19T08:41:38.000Z</time>
      </trkpt>
      <trkpt lat="45.08814" lon="5.54046">
        <ele>1325.6</ele>
        <time>2020-07-19T08:41:43.000Z</time>
      </trkpt>
      <trkpt lat="45.08814" lon="5.54043">
        <ele>1325.2</ele>
        <time>2020-07-19T08:41:46.000Z</time>
      </trkpt>
      <trkpt lat="45.08812" lon="5.54042">
        <ele>1324.8</ele>
        <time>2020-07-19T08:41:50.000Z</time>
      </trkpt>
      <trkpt lat="45.08808" lon="5.54044">
        <ele>1323.8</ele>
        <time>2020-07-19T08:41:54.000Z</time>
      </trkpt>
      <trkpt lat="45.08806" lon="5.54048">
        <ele>1323.2</ele>
        <time>2020-07-19T08:41:57.000Z</time>
      </trkpt>
      <trkpt lat="45.088" lon="5.5406">
        <ele>1322.4</ele>
        <time>2020-07-19T08:42:02.000Z</time>
      </trkpt>
      <trkpt lat="45.08796" lon="5.54068">
        <ele>1321.8</ele>
        <time>2020-07-19T08:42:05.000Z</time>
      </trkpt>
      <trkpt lat="45.0879" lon="5.54075">
        <ele>1321</ele>
        <time>2020-07-19T08:42:09.000Z</time>
      </trkpt>
      <trkpt lat="45.08784" lon="5.54081">
        <ele>1320</ele>
        <time>2020-07-19T08:42:13.000Z</time>
      </trkpt>
      <trkpt lat="45.08782" lon="5.54091">
        <ele>1319</ele>
        <time>2020-07-19T08:42:16.000Z</time>
      </trkpt>
      <trkpt lat="45.08779" lon="5.54101">
        <ele>1318</ele>
        <time>2020-07-19T08:42:20.000Z</time>
      </trkpt>
      <trkpt lat="45.08778" lon="5.54111">
        <ele>1317.2</ele>
        <time>2020-07-19T08:42:25.000Z</time>
      </trkpt>
      <trkpt lat="45.08775" lon="5.5412">
        <ele>1316.4</ele>
        <time>2020-07-19T08:42:29.000Z</time>
      </trkpt>
      <trkpt lat="45.08771" lon="5.54128">
        <ele>1315.8</ele>
        <time>2020-07-19T08:42:33.000Z</time>
      </trkpt>
      <trkpt lat="45.08765" lon="5.54136">
        <ele>1315.2</ele>
        <time>2020-07-19T08:42:37.000Z</time>
      </trkpt>
      <trkpt lat="45.08762" lon="5.54142">
        <ele>1314.8</ele>
        <time>2020-07-19T08:42:39.000Z</time>
      </trkpt>
      <trkpt lat="45.08754" lon="5.54148">
        <ele>1314</ele>
        <time>2020-07-19T08:42:43.000Z</time>
      </trkpt>
      <trkpt lat="45.0875" lon="5.54156">
        <ele>1313.2</ele>
        <time>2020-07-19T08:42:46.000Z</time>
      </trkpt>
      <trkpt lat="45.08746" lon="5.54159">
        <ele>1312.8</ele>
        <time>2020-07-19T08:42:48.000Z</time>
      </trkpt>
      <trkpt lat="45.08741" lon="5.54169">
        <ele>1311.6</ele>
        <time>2020-07-19T08:42:52.000Z</time>
      </trkpt>
      <trkpt lat="45.08737" lon="5.54175">
        <ele>1310.6</ele>
        <time>2020-07-19T08:42:56.000Z</time>
      </trkpt>
      <trkpt lat="45.08735" lon="5.54183">
        <ele>1309.8</ele>
        <time>2020-07-19T08:42:59.000Z</time>
      </trkpt>
      <trkpt lat="45.0873" lon="5.54195">
        <ele>1308.6</ele>
        <time>2020-07-19T08:43:04.000Z</time>
      </trkpt>
      <trkpt lat="45.08727" lon="5.54205">
        <ele>1308</ele>
        <time>2020-07-19T08:43:07.000Z</time>
      </trkpt>
      <trkpt lat="45.08721" lon="5.54214">
        <ele>1307</ele>
        <time>2020-07-19T08:43:11.000Z</time>
      </trkpt>
      <trkpt lat="45.08717" lon="5.54225">
        <ele>1306.4</ele>
        <time>2020-07-19T08:43:16.000Z</time>
      </trkpt>
      <trkpt lat="45.08711" lon="5.54232">
        <ele>1306</ele>
        <time>2020-07-19T08:43:19.000Z</time>
      </trkpt>
      <trkpt lat="45.08704" lon="5.54239">
        <ele>1305.2</ele>
        <time>2020-07-19T08:43:24.000Z</time>
      </trkpt>
      <trkpt lat="45.087" lon="5.54243">
        <ele>1304.8</ele>
        <time>2020-07-19T08:43:26.000Z</time>
      </trkpt>
      <trkpt lat="45.08696" lon="5.5425">
        <ele>1304.4</ele>
        <time>2020-07-19T08:43:29.000Z</time>
      </trkpt>
      <trkpt lat="45.08694" lon="5.54258">
        <ele>1303.8</ele>
        <time>2020-07-19T08:43:33.000Z</time>
      </trkpt>
      <trkpt lat="45.08696" lon="5.54263">
        <ele>1297.8</ele>
        <time>2020-07-19T08:45:15.000Z</time>
      </trkpt>
      <trkpt lat="45.08701" lon="5.54258">
        <ele>1297.8</ele>
        <time>2020-07-19T08:45:19.000Z</time>
      </trkpt>
      <trkpt lat="45.08706" lon="5.54254">
        <ele>1297.8</ele>
        <time>2020-07-19T08:45:23.000Z</time>
      </trkpt>
      <trkpt lat="45.08712" lon="5.54246">
        <ele>1298.2</ele>
        <time>2020-07-19T08:45:28.000Z</time>
      </trkpt>
      <trkpt lat="45.08718" lon="5.54242">
        <ele>1298.6</ele>
        <time>2020-07-19T08:45:33.000Z</time>
      </trkpt>
      <trkpt lat="45.08717" lon="5.54246">
        <ele>1298.8</ele>
        <time>2020-07-19T08:45:37.000Z</time>
      </trkpt>
      <trkpt lat="45.08715" lon="5.54251">
        <ele>1299.2</ele>
        <time>2020-07-19T08:45:41.000Z</time>
      </trkpt>
      <trkpt lat="45.08717" lon="5.54254">
        <ele>1299.6</ele>
        <time>2020-07-19T08:45:44.000Z</time>
      </trkpt>
      <trkpt lat="45.0872" lon="5.54251">
        <ele>1300</ele>
        <time>2020-07-19T08:45:47.000Z</time>
      </trkpt>
      <trkpt lat="45.0872" lon="5.54253">
        <ele>1300.4</ele>
        <time>2020-07-19T08:45:50.000Z</time>
      </trkpt>
      <trkpt lat="45.08716" lon="5.54263">
        <ele>1301</ele>
        <time>2020-07-19T08:45:57.000Z</time>
      </trkpt>
      <trkpt lat="45.08715" lon="5.5427">
        <ele>1301.6</ele>
        <time>2020-07-19T08:46:01.000Z</time>
      </trkpt>
      <trkpt lat="45.08716" lon="5.54274">
        <ele>1302.4</ele>
        <time>2020-07-19T08:46:06.000Z</time>
      </trkpt>
      <trkpt lat="45.08721" lon="5.54275">
        <ele>1303</ele>
        <time>2020-07-19T08:46:12.000Z</time>
      </trkpt>
      <trkpt lat="45.08724" lon="5.54274">
        <ele>1303.4</ele>
        <time>2020-07-19T08:46:15.000Z</time>
      </trkpt>
      <trkpt lat="45.08728" lon="5.54268">
        <ele>1304</ele>
        <time>2020-07-19T08:46:21.000Z</time>
      </trkpt>
      <trkpt lat="45.08732" lon="5.54263">
        <ele>1304.6</ele>
        <time>2020-07-19T08:46:25.000Z</time>
      </trkpt>
      <trkpt lat="45.08736" lon="5.54257">
        <ele>1305</ele>
        <time>2020-07-19T08:46:29.000Z</time>
      </trkpt>
      <trkpt lat="45.0874" lon="5.5425">
        <ele>1305.6</ele>
        <time>2020-07-19T08:46:33.000Z</time>
      </trkpt>
      <trkpt lat="45.08743" lon="5.54239">
        <ele>1306.2</ele>
        <time>2020-07-19T08:46:37.000Z</time>
      </trkpt>
      <trkpt lat="45.08744" lon="5.54232">
        <ele>1306.6</ele>
        <time>2020-07-19T08:46:40.000Z</time>
      </trkpt>
      <trkpt lat="45.08749" lon="5.54223">
        <ele>1307.6</ele>
        <time>2020-07-19T08:46:46.000Z</time>
      </trkpt>
      <trkpt lat="45.08752" lon="5.54216">
        <ele>1308</ele>
        <time>2020-07-19T08:46:49.000Z</time>
      </trkpt>
      <trkpt lat="45.08755" lon="5.54211">
        <ele>1308.4</ele>
        <time>2020-07-19T08:46:52.000Z</time>
      </trkpt>
      <trkpt lat="45.08766" lon="5.54199">
        <ele>1309.6</ele>
        <time>2020-07-19T08:47:02.000Z</time>
      </trkpt>
      <trkpt lat="45.08773" lon="5.54191">
        <ele>1310</ele>
        <time>2020-07-19T08:47:08.000Z</time>
      </trkpt>
      <trkpt lat="45.08773" lon="5.54192">
        <ele>1310.6</ele>
        <time>2020-07-19T08:47:13.000Z</time>
      </trkpt>
      <trkpt lat="45.08773" lon="5.54197">
        <ele>1311.2</ele>
        <time>2020-07-19T08:47:17.000Z</time>
      </trkpt>
      <trkpt lat="45.08773" lon="5.54203">
        <ele>1311.6</ele>
        <time>2020-07-19T08:47:20.000Z</time>
      </trkpt>
      <trkpt lat="45.08773" lon="5.54209">
        <ele>1312.2</ele>
        <time>2020-07-19T08:47:24.000Z</time>
      </trkpt>
      <trkpt lat="45.08773" lon="5.54214">
        <ele>1312.4</ele>
        <time>2020-07-19T08:47:26.000Z</time>
      </trkpt>
      <trkpt lat="45.08775" lon="5.54222">
        <ele>1313</ele>
        <time>2020-07-19T08:47:30.000Z</time>
      </trkpt>
      <trkpt lat="45.08777" lon="5.54227">
        <ele>1313.6</ele>
        <time>2020-07-19T08:47:33.000Z</time>
      </trkpt>
      <trkpt lat="45.08781" lon="5.54224">
        <ele>1314.2</ele>
        <time>2020-07-19T08:47:37.000Z</time>
      </trkpt>
      <trkpt lat="45.08784" lon="5.5422">
        <ele>1314.8</ele>
        <time>2020-07-19T08:47:41.000Z</time>
      </trkpt>
      <trkpt lat="45.08788" lon="5.54215">
        <ele>1315.2</ele>
        <time>2020-07-19T08:47:45.000Z</time>
      </trkpt>
      <trkpt lat="45.08797" lon="5.5421">
        <ele>1316.4</ele>
        <time>2020-07-19T08:47:52.000Z</time>
      </trkpt>
      <trkpt lat="45.08798" lon="5.54214">
        <ele>1317.2</ele>
        <time>2020-07-19T08:47:56.000Z</time>
      </trkpt>
      <trkpt lat="45.08802" lon="5.54217">
        <ele>1317.8</ele>
        <time>2020-07-19T08:47:59.000Z</time>
      </trkpt>
      <trkpt lat="45.08807" lon="5.54212">
        <ele>1318.4</ele>
        <time>2020-07-19T08:48:03.000Z</time>
      </trkpt>
      <trkpt lat="45.08813" lon="5.54206">
        <ele>1319.2</ele>
        <time>2020-07-19T08:48:08.000Z</time>
      </trkpt>
      <trkpt lat="45.08815" lon="5.5421">
        <ele>1319.8</ele>
        <time>2020-07-19T08:48:12.000Z</time>
      </trkpt>
      <trkpt lat="45.08818" lon="5.54214">
        <ele>1320.2</ele>
        <time>2020-07-19T08:48:14.000Z</time>
      </trkpt>
      <trkpt lat="45.08822" lon="5.54211">
        <ele>1320.8</ele>
        <time>2020-07-19T08:48:18.000Z</time>
      </trkpt>
      <trkpt lat="45.08825" lon="5.54201">
        <ele>1321.6</ele>
        <time>2020-07-19T08:48:23.000Z</time>
      </trkpt>
      <trkpt lat="45.08827" lon="5.54193">
        <ele>1322.2</ele>
        <time>2020-07-19T08:48:27.000Z</time>
      </trkpt>
      <trkpt lat="45.08831" lon="5.54194">
        <ele>1322.8</ele>
        <time>2020-07-19T08:48:31.000Z</time>
      </trkpt>
      <trkpt lat="45.08835" lon="5.54196">
        <ele>1323.2</ele>
        <time>2020-07-19T08:48:34.000Z</time>
      </trkpt>
      <trkpt lat="45.08841" lon="5.54187">
        <ele>1324.2</ele>
        <time>2020-07-19T08:48:40.000Z</time>
      </trkpt>
      <trkpt lat="45.08846" lon="5.54177">
        <ele>1325</ele>
        <time>2020-07-19T08:48:44.000Z</time>
      </trkpt>
      <trkpt lat="45.08847" lon="5.54167">
        <ele>1325.6</ele>
        <time>2020-07-19T08:48:48.000Z</time>
      </trkpt>
      <trkpt lat="45.08849" lon="5.54163">
        <ele>1326</ele>
        <time>2020-07-19T08:48:50.000Z</time>
      </trkpt>
      <trkpt lat="45.08853" lon="5.54164">
        <ele>1326.6</ele>
        <time>2020-07-19T08:48:54.000Z</time>
      </trkpt>
      <trkpt lat="45.08854" lon="5.5417">
        <ele>1327</ele>
        <time>2020-07-19T08:48:57.000Z</time>
      </trkpt>
      <trkpt lat="45.08857" lon="5.54172">
        <ele>1327.4</ele>
        <time>2020-07-19T08:49:00.000Z</time>
      </trkpt>
      <trkpt lat="45.0886" lon="5.54164">
        <ele>1328.4</ele>
        <time>2020-07-19T08:49:05.000Z</time>
      </trkpt>
      <trkpt lat="45.08864" lon="5.54156">
        <ele>1329.2</ele>
        <time>2020-07-19T08:49:09.000Z</time>
      </trkpt>
      <trkpt lat="45.08866" lon="5.54147">
        <ele>1329.8</ele>
        <time>2020-07-19T08:49:13.000Z</time>
      </trkpt>
      <trkpt lat="45.0887" lon="5.54146">
        <ele>1330.4</ele>
        <time>2020-07-19T08:49:17.000Z</time>
      </trkpt>
      <trkpt lat="45.08873" lon="5.54151">
        <ele>1330.8</ele>
        <time>2020-07-19T08:49:20.000Z</time>
      </trkpt>
      <trkpt lat="45.08876" lon="5.54161">
        <ele>1331.6</ele>
        <time>2020-07-19T08:49:25.000Z</time>
      </trkpt>
      <trkpt lat="45.08883" lon="5.54165">
        <ele>1332.2</ele>
        <time>2020-07-19T08:49:30.000Z</time>
      </trkpt>
      <trkpt lat="45.08889" lon="5.5417">
        <ele>1332.8</ele>
        <time>2020-07-19T08:49:34.000Z</time>
      </trkpt>
      <trkpt lat="45.08896" lon="5.54177">
        <ele>1333.4</ele>
        <time>2020-07-19T08:49:39.000Z</time>
      </trkpt>
      <trkpt lat="45.08902" lon="5.54181">
        <ele>1333.8</ele>
        <time>2020-07-19T08:49:43.000Z</time>
      </trkpt>
      <trkpt lat="45.08908" lon="5.54183">
        <ele>1334</ele>
        <time>2020-07-19T08:49:47.000Z</time>
      </trkpt>
      <trkpt lat="45.08914" lon="5.54188">
        <ele>1334.4</ele>
        <time>2020-07-19T08:49:51.000Z</time>
      </trkpt>
      <trkpt lat="45.08918" lon="5.54194">
        <ele>1338.8</ele>
        <time>2020-07-19T08:52:36.000Z</time>
      </trkpt>
      <trkpt lat="45.0892" lon="5.54198">
        <ele>1338.8</ele>
        <time>2020-07-19T08:52:39.000Z</time>
      </trkpt>
      <trkpt lat="45.08926" lon="5.54205">
        <ele>1338.8</ele>
        <time>2020-07-19T08:52:43.000Z</time>
      </trkpt>
      <trkpt lat="45.08932" lon="5.5421">
        <ele>1338.6</ele>
        <time>2020-07-19T08:52:46.000Z</time>
      </trkpt>
      <trkpt lat="45.08935" lon="5.54216">
        <ele>1338.2</ele>
        <time>2020-07-19T08:52:48.000Z</time>
      </trkpt>
      <trkpt lat="45.0894" lon="5.54221">
        <ele>1337.8</ele>
        <time>2020-07-19T08:52:50.000Z</time>
      </trkpt>
      <trkpt lat="45.08945" lon="5.54223">
        <ele>1337.6</ele>
        <time>2020-07-19T08:52:52.000Z</time>
      </trkpt>
      <trkpt lat="45.08953" lon="5.54231">
        <ele>1337</ele>
        <time>2020-07-19T08:52:56.000Z</time>
      </trkpt>
      <trkpt lat="45.08958" lon="5.54233">
        <ele>1336.8</ele>
        <time>2020-07-19T08:52:59.000Z</time>
      </trkpt>
      <trkpt lat="45.08967" lon="5.54238">
        <ele>1336.4</ele>
        <time>2020-07-19T08:53:03.000Z</time>
      </trkpt>
      <trkpt lat="45.08974" lon="5.54243">
        <ele>1336</ele>
        <time>2020-07-19T08:53:07.000Z</time>
      </trkpt>
      <trkpt lat="45.0898" lon="5.54243">
        <ele>1335.6</ele>
        <time>2020-07-19T08:53:11.000Z</time>
      </trkpt>
      <trkpt lat="45.08987" lon="5.54245">
        <ele>1335.4</ele>
        <time>2020-07-19T08:53:14.000Z</time>
      </trkpt>
      <trkpt lat="45.08992" lon="5.54248">
        <ele>1335.2</ele>
        <time>2020-07-19T08:53:16.000Z</time>
      </trkpt>
      <trkpt lat="45.09" lon="5.5425">
        <ele>1335</ele>
        <time>2020-07-19T08:53:19.000Z</time>
      </trkpt>
      <trkpt lat="45.09009" lon="5.54253">
        <ele>1334.8</ele>
        <time>2020-07-19T08:53:23.000Z</time>
      </trkpt>
      <trkpt lat="45.09019" lon="5.54256">
        <ele>1334.6</ele>
        <time>2020-07-19T08:53:27.000Z</time>
      </trkpt>
      <trkpt lat="45.09027" lon="5.54256">
        <ele>1334.4</ele>
        <time>2020-07-19T08:53:30.000Z</time>
      </trkpt>
      <trkpt lat="45.09036" lon="5.54256">
        <ele>1334.2</ele>
        <time>2020-07-19T08:53:33.000Z</time>
      </trkpt>
      <trkpt lat="45.09045" lon="5.54254">
        <ele>1333.8</ele>
        <time>2020-07-19T08:53:37.000Z</time>
      </trkpt>
      <trkpt lat="45.0905" lon="5.54251">
        <ele>1333.6</ele>
        <time>2020-07-19T08:53:39.000Z</time>
      </trkpt>
      <trkpt lat="45.0906" lon="5.54248">
        <ele>1333.4</ele>
        <time>2020-07-19T08:53:43.000Z</time>
      </trkpt>
      <trkpt lat="45.09066" lon="5.54246">
        <ele>1333.4</ele>
        <time>2020-07-19T08:53:46.000Z</time>
      </trkpt>
      <trkpt lat="45.09073" lon="5.54242">
        <ele>1333.6</ele>
        <time>2020-07-19T08:53:50.000Z</time>
      </trkpt>
      <trkpt lat="45.09076" lon="5.54237">
        <ele>1333.8</ele>
        <time>2020-07-19T08:53:54.000Z</time>
      </trkpt>
      <trkpt lat="45.09084" lon="5.54232">
        <ele>1334.2</ele>
        <time>2020-07-19T08:54:02.000Z</time>
      </trkpt>
      <trkpt lat="45.09093" lon="5.54229">
        <ele>1334.4</ele>
        <time>2020-07-19T08:54:08.000Z</time>
      </trkpt>
      <trkpt lat="45.09099" lon="5.54222">
        <ele>1334.6</ele>
        <time>2020-07-19T08:54:12.000Z</time>
      </trkpt>
      <trkpt lat="45.09104" lon="5.54219">
        <ele>1334.6</ele>
        <time>2020-07-19T08:54:15.000Z</time>
      </trkpt>
      <trkpt lat="45.09109" lon="5.54216">
        <ele>1335</ele>
        <time>2020-07-19T08:54:18.000Z</time>
      </trkpt>
      <trkpt lat="45.09117" lon="5.54211">
        <ele>1335.2</ele>
        <time>2020-07-19T08:54:23.000Z</time>
      </trkpt>
      <trkpt lat="45.09122" lon="5.54205">
        <ele>1335.6</ele>
        <time>2020-07-19T08:54:27.000Z</time>
      </trkpt>
      <trkpt lat="45.09129" lon="5.54198">
        <ele>1336.2</ele>
        <time>2020-07-19T08:54:32.000Z</time>
      </trkpt>
      <trkpt lat="45.09137" lon="5.54194">
        <ele>1336.6</ele>
        <time>2020-07-19T08:54:37.000Z</time>
      </trkpt>
      <trkpt lat="45.09141" lon="5.54192">
        <ele>1336.8</ele>
        <time>2020-07-19T08:54:39.000Z</time>
      </trkpt>
      <trkpt lat="45.09148" lon="5.54188">
        <ele>1337.2</ele>
        <time>2020-07-19T08:54:43.000Z</time>
      </trkpt>
      <trkpt lat="45.09156" lon="5.54185">
        <ele>1337.4</ele>
        <time>2020-07-19T08:54:47.000Z</time>
      </trkpt>
      <trkpt lat="45.09164" lon="5.5418">
        <ele>1337.6</ele>
        <time>2020-07-19T08:54:51.000Z</time>
      </trkpt>
      <trkpt lat="45.09171" lon="5.54178">
        <ele>1337.8</ele>
        <time>2020-07-19T08:54:54.000Z</time>
      </trkpt>
      <trkpt lat="45.09174" lon="5.54175">
        <ele>1337.8</ele>
        <time>2020-07-19T08:54:56.000Z</time>
      </trkpt>
      <trkpt lat="45.09182" lon="5.5417">
        <ele>1338</ele>
        <time>2020-07-19T08:55:00.000Z</time>
      </trkpt>
      <trkpt lat="45.09189" lon="5.54165">
        <ele>1338.2</ele>
        <time>2020-07-19T08:55:02.000Z</time>
      </trkpt>
      <trkpt lat="45.09194" lon="5.54163">
        <ele>1338.2</ele>
        <time>2020-07-19T08:55:04.000Z</time>
      </trkpt>
      <trkpt lat="45.092" lon="5.54159">
        <ele>1338.2</ele>
        <time>2020-07-19T08:55:06.000Z</time>
      </trkpt>
      <trkpt lat="45.09205" lon="5.54155">
        <ele>1338</ele>
        <time>2020-07-19T08:55:09.000Z</time>
      </trkpt>
      <trkpt lat="45.09212" lon="5.54154">
        <ele>1338</ele>
        <time>2020-07-19T08:55:12.000Z</time>
      </trkpt>
      <trkpt lat="45.09221" lon="5.5415">
        <ele>1338.2</ele>
        <time>2020-07-19T08:55:15.000Z</time>
      </trkpt>
      <trkpt lat="45.0923" lon="5.54146">
        <ele>1338.2</ele>
        <time>2020-07-19T08:55:18.000Z</time>
      </trkpt>
      <trkpt lat="45.09233" lon="5.54144">
        <ele>1338.2</ele>
        <time>2020-07-19T08:55:19.000Z</time>
      </trkpt>
      <trkpt lat="45.09241" lon="5.54136">
        <ele>1338.2</ele>
        <time>2020-07-19T08:55:22.000Z</time>
      </trkpt>
      <trkpt lat="45.0925" lon="5.54131">
        <ele>1338.2</ele>
        <time>2020-07-19T08:55:25.000Z</time>
      </trkpt>
      <trkpt lat="45.09259" lon="5.54125">
        <ele>1338</ele>
        <time>2020-07-19T08:55:28.000Z</time>
      </trkpt>
      <trkpt lat="45.09266" lon="5.54124">
        <ele>1338</ele>
        <time>2020-07-19T08:55:31.000Z</time>
      </trkpt>
      <trkpt lat="45.09272" lon="5.54125">
        <ele>1338</ele>
        <time>2020-07-19T08:55:33.000Z</time>
      </trkpt>
      <trkpt lat="45.09279" lon="5.54126">
        <ele>1337.8</ele>
        <time>2020-07-19T08:55:35.000Z</time>
      </trkpt>
      <trkpt lat="45.09283" lon="5.54126">
        <ele>1337.8</ele>
        <time>2020-07-19T08:55:37.000Z</time>
      </trkpt>
      <trkpt lat="45.0929" lon="5.54123">
        <ele>1337.8</ele>
        <time>2020-07-19T08:55:40.000Z</time>
      </trkpt>
      <trkpt lat="45.09295" lon="5.54124">
        <ele>1337.6</ele>
        <time>2020-07-19T08:55:42.000Z</time>
      </trkpt>
      <trkpt lat="45.09305" lon="5.54123">
        <ele>1337.2</ele>
        <time>2020-07-19T08:55:46.000Z</time>
      </trkpt>
      <trkpt lat="45.09316" lon="5.54121">
        <ele>1337.2</ele>
        <time>2020-07-19T08:55:49.000Z</time>
      </trkpt>
      <trkpt lat="45.09319" lon="5.54121">
        <ele>1337.2</ele>
        <time>2020-07-19T08:55:50.000Z</time>
      </trkpt>
      <trkpt lat="45.09328" lon="5.54119">
        <ele>1337.2</ele>
        <time>2020-07-19T08:55:53.000Z</time>
      </trkpt>
      <trkpt lat="45.09332" lon="5.54119">
        <ele>1337.2</ele>
        <time>2020-07-19T08:55:55.000Z</time>
      </trkpt>
      <trkpt lat="45.09338" lon="5.5412">
        <ele>1337</ele>
        <time>2020-07-19T08:55:58.000Z</time>
      </trkpt>
      <trkpt lat="45.0934" lon="5.54114">
        <ele>1337</ele>
        <time>2020-07-19T08:56:03.000Z</time>
      </trkpt>
      <trkpt lat="45.09339" lon="5.54111">
        <ele>1337</ele>
        <time>2020-07-19T08:56:06.000Z</time>
      </trkpt>
      <trkpt lat="45.09343" lon="5.54099">
        <ele>1337.2</ele>
        <time>2020-07-19T08:56:12.000Z</time>
      </trkpt>
      <trkpt lat="45.09346" lon="5.54093">
        <ele>1337.4</ele>
        <time>2020-07-19T08:56:15.000Z</time>
      </trkpt>
      <trkpt lat="45.0935" lon="5.5408">
        <ele>1337.8</ele>
        <time>2020-07-19T08:56:21.000Z</time>
      </trkpt>
      <trkpt lat="45.09352" lon="5.54068">
        <ele>1337.6</ele>
        <time>2020-07-19T08:56:26.000Z</time>
      </trkpt>
      <trkpt lat="45.09354" lon="5.54058">
        <ele>1337.8</ele>
        <time>2020-07-19T08:56:30.000Z</time>
      </trkpt>
      <trkpt lat="45.09356" lon="5.54049">
        <ele>1338.2</ele>
        <time>2020-07-19T08:56:34.000Z</time>
      </trkpt>
      <trkpt lat="45.09355" lon="5.54041">
        <ele>1338.4</ele>
        <time>2020-07-19T08:56:37.000Z</time>
      </trkpt>
      <trkpt lat="45.09355" lon="5.5403">
        <ele>1339</ele>
        <time>2020-07-19T08:56:42.000Z</time>
      </trkpt>
      <trkpt lat="45.09356" lon="5.5402">
        <ele>1339.6</ele>
        <time>2020-07-19T08:56:46.000Z</time>
      </trkpt>
      <trkpt lat="45.09357" lon="5.54008">
        <ele>1340.4</ele>
        <time>2020-07-19T08:56:51.000Z</time>
      </trkpt>
      <trkpt lat="45.09358" lon="5.53998">
        <ele>1341.2</ele>
        <time>2020-07-19T08:56:55.000Z</time>
      </trkpt>
      <trkpt lat="45.09359" lon="5.53992">
        <ele>1341.6</ele>
        <time>2020-07-19T08:56:57.000Z</time>
      </trkpt>
      <trkpt lat="45.09359" lon="5.53978">
        <ele>1342.6</ele>
        <time>2020-07-19T08:57:02.000Z</time>
      </trkpt>
      <trkpt lat="45.09358" lon="5.53971">
        <ele>1343.2</ele>
        <time>2020-07-19T08:57:05.000Z</time>
      </trkpt>
      <trkpt lat="45.09358" lon="5.5396">
        <ele>1344</ele>
        <time>2020-07-19T08:57:09.000Z</time>
      </trkpt>
      <trkpt lat="45.09359" lon="5.53948">
        <ele>1345</ele>
        <time>2020-07-19T08:57:13.000Z</time>
      </trkpt>
      <trkpt lat="45.09358" lon="5.53938">
        <ele>1345.6</ele>
        <time>2020-07-19T08:57:16.000Z</time>
      </trkpt>
      <trkpt lat="45.09359" lon="5.53928">
        <ele>1346.4</ele>
        <time>2020-07-19T08:57:20.000Z</time>
      </trkpt>
      <trkpt lat="45.09361" lon="5.53916">
        <ele>1347.2</ele>
        <time>2020-07-19T08:57:24.000Z</time>
      </trkpt>
      <trkpt lat="45.09361" lon="5.53902">
        <ele>1347.8</ele>
        <time>2020-07-19T08:57:29.000Z</time>
      </trkpt>
      <trkpt lat="45.09362" lon="5.53891">
        <ele>1349</ele>
        <time>2020-07-19T08:57:34.000Z</time>
      </trkpt>
      <trkpt lat="45.09362" lon="5.53883">
        <ele>1350</ele>
        <time>2020-07-19T08:57:38.000Z</time>
      </trkpt>
      <trkpt lat="45.09362" lon="5.53876">
        <ele>1350.6</ele>
        <time>2020-07-19T08:57:41.000Z</time>
      </trkpt>
      <trkpt lat="45.09362" lon="5.53865">
        <ele>1351.6</ele>
        <time>2020-07-19T08:57:45.000Z</time>
      </trkpt>
      <trkpt lat="45.09362" lon="5.53851">
        <ele>1359</ele>
        <time>2020-07-19T09:10:39.000Z</time>
      </trkpt>
      <trkpt lat="45.09366" lon="5.53852">
        <ele>1358.8</ele>
        <time>2020-07-19T09:10:42.000Z</time>
      </trkpt>
      <trkpt lat="45.09372" lon="5.53848">
        <ele>1358.6</ele>
        <time>2020-07-19T09:10:45.000Z</time>
      </trkpt>
      <trkpt lat="45.09378" lon="5.53846">
        <ele>1358.4</ele>
        <time>2020-07-19T09:10:47.000Z</time>
      </trkpt>
      <trkpt lat="45.09387" lon="5.53843">
        <ele>1358.4</ele>
        <time>2020-07-19T09:10:51.000Z</time>
      </trkpt>
      <trkpt lat="45.09395" lon="5.53842">
        <ele>1358</ele>
        <time>2020-07-19T09:10:55.000Z</time>
      </trkpt>
      <trkpt lat="45.09402" lon="5.53841">
        <ele>1358</ele>
        <time>2020-07-19T09:10:57.000Z</time>
      </trkpt>
      <trkpt lat="45.09409" lon="5.53836">
        <ele>1357.8</ele>
        <time>2020-07-19T09:10:59.000Z</time>
      </trkpt>
      <trkpt lat="45.09417" lon="5.53832">
        <ele>1357.8</ele>
        <time>2020-07-19T09:11:01.000Z</time>
      </trkpt>
      <trkpt lat="45.09424" lon="5.53824">
        <ele>1357.4</ele>
        <time>2020-07-19T09:11:04.000Z</time>
      </trkpt>
      <trkpt lat="45.09431" lon="5.5382">
        <ele>1357</ele>
        <time>2020-07-19T09:11:08.000Z</time>
      </trkpt>
      <trkpt lat="45.09439" lon="5.53814">
        <ele>1356.6</ele>
        <time>2020-07-19T09:11:13.000Z</time>
      </trkpt>
      <trkpt lat="45.09444" lon="5.53814">
        <ele>1356.4</ele>
        <time>2020-07-19T09:11:16.000Z</time>
      </trkpt>
      <trkpt lat="45.09454" lon="5.5381">
        <ele>1355.6</ele>
        <time>2020-07-19T09:11:20.000Z</time>
      </trkpt>
      <trkpt lat="45.09459" lon="5.53814">
        <ele>1355.2</ele>
        <time>2020-07-19T09:11:24.000Z</time>
      </trkpt>
      <trkpt lat="45.09469" lon="5.53811">
        <ele>1354.6</ele>
        <time>2020-07-19T09:11:27.000Z</time>
      </trkpt>
      <trkpt lat="45.09472" lon="5.5381">
        <ele>1354.4</ele>
        <time>2020-07-19T09:11:28.000Z</time>
      </trkpt>
      <trkpt lat="45.09478" lon="5.53811">
        <ele>1353.8</ele>
        <time>2020-07-19T09:11:31.000Z</time>
      </trkpt>
      <trkpt lat="45.09483" lon="5.53819">
        <ele>1353.6</ele>
        <time>2020-07-19T09:11:34.000Z</time>
      </trkpt>
      <trkpt lat="45.09487" lon="5.53823">
        <ele>1353.4</ele>
        <time>2020-07-19T09:11:36.000Z</time>
      </trkpt>
      <trkpt lat="45.09494" lon="5.53824">
        <ele>1353</ele>
        <time>2020-07-19T09:11:38.000Z</time>
      </trkpt>
      <trkpt lat="45.09499" lon="5.53822">
        <ele>1352.8</ele>
        <time>2020-07-19T09:11:39.000Z</time>
      </trkpt>
      <trkpt lat="45.09509" lon="5.53817">
        <ele>1352.6</ele>
        <time>2020-07-19T09:11:41.000Z</time>
      </trkpt>
      <trkpt lat="45.09517" lon="5.53816">
        <ele>1352.2</ele>
        <time>2020-07-19T09:11:43.000Z</time>
      </trkpt>
      <trkpt lat="45.09523" lon="5.5382">
        <ele>1351.8</ele>
        <time>2020-07-19T09:11:45.000Z</time>
      </trkpt>
      <trkpt lat="45.09528" lon="5.53826">
        <ele>1351.4</ele>
        <time>2020-07-19T09:11:47.000Z</time>
      </trkpt>
      <trkpt lat="45.09534" lon="5.53829">
        <ele>1351</ele>
        <time>2020-07-19T09:11:49.000Z</time>
      </trkpt>
      <trkpt lat="45.0954" lon="5.53829">
        <ele>1350.8</ele>
        <time>2020-07-19T09:11:51.000Z</time>
      </trkpt>
      <trkpt lat="45.09548" lon="5.53834">
        <ele>1350.4</ele>
        <time>2020-07-19T09:11:54.000Z</time>
      </trkpt>
      <trkpt lat="45.09558" lon="5.53841">
        <ele>1349.8</ele>
        <time>2020-07-19T09:11:58.000Z</time>
      </trkpt>
      <trkpt lat="45.09562" lon="5.53849">
        <ele>1349.4</ele>
        <time>2020-07-19T09:12:01.000Z</time>
      </trkpt>
      <trkpt lat="45.09569" lon="5.5386">
        <ele>1349.2</ele>
        <time>2020-07-19T09:12:05.000Z</time>
      </trkpt>
      <trkpt lat="45.09574" lon="5.53868">
        <ele>1348.8</ele>
        <time>2020-07-19T09:12:08.000Z</time>
      </trkpt>
      <trkpt lat="45.09579" lon="5.53873">
        <ele>1348.8</ele>
        <time>2020-07-19T09:12:10.000Z</time>
      </trkpt>
      <trkpt lat="45.09584" lon="5.53877">
        <ele>1348.4</ele>
        <time>2020-07-19T09:12:12.000Z</time>
      </trkpt>
      <trkpt lat="45.09592" lon="5.53881">
        <ele>1348.2</ele>
        <time>2020-07-19T09:12:15.000Z</time>
      </trkpt>
      <trkpt lat="45.09599" lon="5.5389">
        <ele>1347.8</ele>
        <time>2020-07-19T09:12:18.000Z</time>
      </trkpt>
      <trkpt lat="45.09605" lon="5.53892">
        <ele>1347.4</ele>
        <time>2020-07-19T09:12:20.000Z</time>
      </trkpt>
      <trkpt lat="45.0961" lon="5.5389">
        <ele>1347</ele>
        <time>2020-07-19T09:12:22.000Z</time>
      </trkpt>
      <trkpt lat="45.09617" lon="5.53883">
        <ele>1346.6</ele>
        <time>2020-07-19T09:12:25.000Z</time>
      </trkpt>
      <trkpt lat="45.09623" lon="5.5388">
        <ele>1346.2</ele>
        <time>2020-07-19T09:12:27.000Z</time>
      </trkpt>
      <trkpt lat="45.09632" lon="5.53881">
        <ele>1345.6</ele>
        <time>2020-07-19T09:12:30.000Z</time>
      </trkpt>
      <trkpt lat="45.09638" lon="5.53877">
        <ele>1345.4</ele>
        <time>2020-07-19T09:12:32.000Z</time>
      </trkpt>
      <trkpt lat="45.09646" lon="5.53867">
        <ele>1344.8</ele>
        <time>2020-07-19T09:12:35.000Z</time>
      </trkpt>
      <trkpt lat="45.09658" lon="5.53856">
        <ele>1343.8</ele>
        <time>2020-07-19T09:12:39.000Z</time>
      </trkpt>
      <trkpt lat="45.09661" lon="5.53855">
        <ele>1343.6</ele>
        <time>2020-07-19T09:12:40.000Z</time>
      </trkpt>
      <trkpt lat="45.09671" lon="5.5385">
        <ele>1343</ele>
        <time>2020-07-19T09:12:43.000Z</time>
      </trkpt>
      <trkpt lat="45.09677" lon="5.53849">
        <ele>1342.4</ele>
        <time>2020-07-19T09:12:45.000Z</time>
      </trkpt>
      <trkpt lat="45.09685" lon="5.53854">
        <ele>1341.6</ele>
        <time>2020-07-19T09:12:48.000Z</time>
      </trkpt>
      <trkpt lat="45.0969" lon="5.53858">
        <ele>1341.2</ele>
        <time>2020-07-19T09:12:50.000Z</time>
      </trkpt>
      <trkpt lat="45.09696" lon="5.53859">
        <ele>1340.8</ele>
        <time>2020-07-19T09:12:52.000Z</time>
      </trkpt>
      <trkpt lat="45.09703" lon="5.53855">
        <ele>1340.4</ele>
        <time>2020-07-19T09:12:54.000Z</time>
      </trkpt>
      <trkpt lat="45.09711" lon="5.53853">
        <ele>1339.8</ele>
        <time>2020-07-19T09:12:56.000Z</time>
      </trkpt>
      <trkpt lat="45.0972" lon="5.53858">
        <ele>1339</ele>
        <time>2020-07-19T09:12:58.000Z</time>
      </trkpt>
      <trkpt lat="45.09723" lon="5.53865">
        <ele>1338.4</ele>
        <time>2020-07-19T09:13:00.000Z</time>
      </trkpt>
      <trkpt lat="45.09728" lon="5.53875">
        <ele>1337.2</ele>
        <time>2020-07-19T09:13:04.000Z</time>
      </trkpt>
      <trkpt lat="45.09736" lon="5.53876">
        <ele>1336.4</ele>
        <time>2020-07-19T09:13:07.000Z</time>
      </trkpt>
      <trkpt lat="45.09742" lon="5.53878">
        <ele>1335.8</ele>
        <time>2020-07-19T09:13:09.000Z</time>
      </trkpt>
      <trkpt lat="45.09749" lon="5.53884">
        <ele>1335</ele>
        <time>2020-07-19T09:13:11.000Z</time>
      </trkpt>
      <trkpt lat="45.09755" lon="5.53887">
        <ele>1334.2</ele>
        <time>2020-07-19T09:13:13.000Z</time>
      </trkpt>
      <trkpt lat="45.09762" lon="5.53887">
        <ele>1333.4</ele>
        <time>2020-07-19T09:13:15.000Z</time>
      </trkpt>
      <trkpt lat="45.09769" lon="5.5389">
        <ele>1332.8</ele>
        <time>2020-07-19T09:13:17.000Z</time>
      </trkpt>
      <trkpt lat="45.09776" lon="5.53896">
        <ele>1332</ele>
        <time>2020-07-19T09:13:19.000Z</time>
      </trkpt>
      <trkpt lat="45.09784" lon="5.53898">
        <ele>1331</ele>
        <time>2020-07-19T09:13:21.000Z</time>
      </trkpt>
      <trkpt lat="45.09793" lon="5.53903">
        <ele>1329.6</ele>
        <time>2020-07-19T09:13:24.000Z</time>
      </trkpt>
      <trkpt lat="45.09799" lon="5.53907">
        <ele>1328.6</ele>
        <time>2020-07-19T09:13:26.000Z</time>
      </trkpt>
      <trkpt lat="45.09806" lon="5.53908">
        <ele>1327</ele>
        <time>2020-07-19T09:13:30.000Z</time>
      </trkpt>
      <trkpt lat="45.09813" lon="5.53906">
        <ele>1325.4</ele>
        <time>2020-07-19T09:13:34.000Z</time>
      </trkpt>
      <trkpt lat="45.09817" lon="5.53906">
        <ele>1324.6</ele>
        <time>2020-07-19T09:13:36.000Z</time>
      </trkpt>
      <trkpt lat="45.09824" lon="5.53909">
        <ele>1323.2</ele>
        <time>2020-07-19T09:13:39.000Z</time>
      </trkpt>
      <trkpt lat="45.09828" lon="5.53914">
        <ele>1322.2</ele>
        <time>2020-07-19T09:13:41.000Z</time>
      </trkpt>
      <trkpt lat="45.09833" lon="5.53917">
        <ele>1321.2</ele>
        <time>2020-07-19T09:13:43.000Z</time>
      </trkpt>
      <trkpt lat="45.0984" lon="5.53918">
        <ele>1320</ele>
        <time>2020-07-19T09:13:45.000Z</time>
      </trkpt>
      <trkpt lat="45.09845" lon="5.53919">
        <ele>1317.8</ele>
        <time>2020-07-19T09:13:49.000Z</time>
      </trkpt>
      <trkpt lat="45.0985" lon="5.5392">
        <ele>1313.8</ele>
        <time>2020-07-19T09:13:59.000Z</time>
      </trkpt>
      <trkpt lat="45.09854" lon="5.53932">
        <ele>1312</ele>
        <time>2020-07-19T09:14:03.000Z</time>
      </trkpt>
      <trkpt lat="45.09859" lon="5.53941">
        <ele>1310</ele>
        <time>2020-07-19T09:14:07.000Z</time>
      </trkpt>
      <trkpt lat="45.0986" lon="5.53955">
        <ele>1308.2</ele>
        <time>2020-07-19T09:14:10.000Z</time>
      </trkpt>
      <trkpt lat="45.09863" lon="5.53969">
        <ele>1307.2</ele>
        <time>2020-07-19T09:14:12.000Z</time>
      </trkpt>
      <trkpt lat="45.09862" lon="5.53981">
        <ele>1305.4</ele>
        <time>2020-07-19T09:14:15.000Z</time>
      </trkpt>
      <trkpt lat="45.09857" lon="5.53994">
        <ele>1303.6</ele>
        <time>2020-07-19T09:14:19.000Z</time>
      </trkpt>
      <trkpt lat="45.09861" lon="5.54006">
        <ele>1302.2</ele>
        <time>2020-07-19T09:14:22.000Z</time>
      </trkpt>
      <trkpt lat="45.09866" lon="5.54016">
        <ele>1300.6</ele>
        <time>2020-07-19T09:14:25.000Z</time>
      </trkpt>
      <trkpt lat="45.09871" lon="5.54021">
        <ele>1299.4</ele>
        <time>2020-07-19T09:14:27.000Z</time>
      </trkpt>
      <trkpt lat="45.09875" lon="5.54022">
        <ele>1298.8</ele>
        <time>2020-07-19T09:14:28.000Z</time>
      </trkpt>
      <trkpt lat="45.09885" lon="5.5402">
        <ele>1297</ele>
        <time>2020-07-19T09:14:31.000Z</time>
      </trkpt>
      <trkpt lat="45.09889" lon="5.5402">
        <ele>1296.4</ele>
        <time>2020-07-19T09:14:32.000Z</time>
      </trkpt>
      <trkpt lat="45.099" lon="5.54021">
        <ele>1294.4</ele>
        <time>2020-07-19T09:14:35.000Z</time>
      </trkpt>
      <trkpt lat="45.09906" lon="5.54024">
        <ele>1293.2</ele>
        <time>2020-07-19T09:14:37.000Z</time>
      </trkpt>
      <trkpt lat="45.09912" lon="5.54033">
        <ele>1291.4</ele>
        <time>2020-07-19T09:14:40.000Z</time>
      </trkpt>
      <trkpt lat="45.09924" lon="5.54039">
        <ele>1289.6</ele>
        <time>2020-07-19T09:14:43.000Z</time>
      </trkpt>
      <trkpt lat="45.09927" lon="5.5404">
        <ele>1288.8</ele>
        <time>2020-07-19T09:14:44.000Z</time>
      </trkpt>
      <trkpt lat="45.09935" lon="5.5404">
        <ele>1287.4</ele>
        <time>2020-07-19T09:14:46.000Z</time>
      </trkpt>
      <trkpt lat="45.09939" lon="5.5404">
        <ele>1286.8</ele>
        <time>2020-07-19T09:14:47.000Z</time>
      </trkpt>
      <trkpt lat="45.09946" lon="5.54043">
        <ele>1285.6</ele>
        <time>2020-07-19T09:14:49.000Z</time>
      </trkpt>
      <trkpt lat="45.09951" lon="5.54049">
        <ele>1284.4</ele>
        <time>2020-07-19T09:14:51.000Z</time>
      </trkpt>
      <trkpt lat="45.09953" lon="5.54056">
        <ele>1283.2</ele>
        <time>2020-07-19T09:14:53.000Z</time>
      </trkpt>
      <trkpt lat="45.09962" lon="5.54059">
        <ele>1281.2</ele>
        <time>2020-07-19T09:14:56.000Z</time>
      </trkpt>
      <trkpt lat="45.09971" lon="5.54056">
        <ele>1279.6</ele>
        <time>2020-07-19T09:14:59.000Z</time>
      </trkpt>
      <trkpt lat="45.09979" lon="5.54059">
        <ele>1278</ele>
        <time>2020-07-19T09:15:02.000Z</time>
      </trkpt>
      <trkpt lat="45.09984" lon="5.54067">
        <ele>1276.4</ele>
        <time>2020-07-19T09:15:05.000Z</time>
      </trkpt>
      <trkpt lat="45.09992" lon="5.54069">
        <ele>1274.6</ele>
        <time>2020-07-19T09:15:08.000Z</time>
      </trkpt>
      <trkpt lat="45.09997" lon="5.54069">
        <ele>1273.4</ele>
        <time>2020-07-19T09:15:10.000Z</time>
      </trkpt>
      <trkpt lat="45.10005" lon="5.54068">
        <ele>1272.2</ele>
        <time>2020-07-19T09:15:12.000Z</time>
      </trkpt>
      <trkpt lat="45.10011" lon="5.54068">
        <ele>1271.8</ele>
        <time>2020-07-19T09:15:13.000Z</time>
      </trkpt>
      <trkpt lat="45.10017" lon="5.5407">
        <ele>1271</ele>
        <time>2020-07-19T09:15:14.000Z</time>
      </trkpt>
      <trkpt lat="45.10038" lon="5.54078">
        <ele>1269</ele>
        <time>2020-07-19T09:15:17.000Z</time>
      </trkpt>
      <trkpt lat="45.10044" lon="5.54081">
        <ele>1268.4</ele>
        <time>2020-07-19T09:15:18.000Z</time>
      </trkpt>
      <trkpt lat="45.10049" lon="5.54084">
        <ele>1267.8</ele>
        <time>2020-07-19T09:15:19.000Z</time>
      </trkpt>
      <trkpt lat="45.10066" lon="5.541">
        <ele>1265.2</ele>
        <time>2020-07-19T09:15:25.000Z</time>
      </trkpt>
      <trkpt lat="45.10072" lon="5.54104">
        <ele>1264.4</ele>
        <time>2020-07-19T09:15:27.000Z</time>
      </trkpt>
      <trkpt lat="45.10076" lon="5.54109">
        <ele>1263.6</ele>
        <time>2020-07-19T09:15:29.000Z</time>
      </trkpt>
      <trkpt lat="45.10078" lon="5.54122">
        <ele>1262.6</ele>
        <time>2020-07-19T09:15:33.000Z</time>
      </trkpt>
      <trkpt lat="45.10078" lon="5.5413">
        <ele>1262</ele>
        <time>2020-07-19T09:15:36.000Z</time>
      </trkpt>
      <trkpt lat="45.10075" lon="5.54143">
        <ele>1260.8</ele>
        <time>2020-07-19T09:15:42.000Z</time>
      </trkpt>
      <trkpt lat="45.10077" lon="5.54157">
        <ele>1260.4</ele>
        <time>2020-07-19T09:15:46.000Z</time>
      </trkpt>
      <trkpt lat="45.1008" lon="5.54171">
        <ele>1259.8</ele>
        <time>2020-07-19T09:15:50.000Z</time>
      </trkpt>
      <trkpt lat="45.10082" lon="5.54176">
        <ele>1259.8</ele>
        <time>2020-07-19T09:15:52.000Z</time>
      </trkpt>
      <trkpt lat="45.1009" lon="5.54179">
        <ele>1259.6</ele>
        <time>2020-07-19T09:15:56.000Z</time>
      </trkpt>
      <trkpt lat="45.101" lon="5.54179">
        <ele>1259.2</ele>
        <time>2020-07-19T09:16:01.000Z</time>
      </trkpt>
      <trkpt lat="45.10106" lon="5.54183">
        <ele>1259</ele>
        <time>2020-07-19T09:16:04.000Z</time>
      </trkpt>
      <trkpt lat="45.10108" lon="5.54192">
        <ele>1259</ele>
        <time>2020-07-19T09:16:08.000Z</time>
      </trkpt>
      <trkpt lat="45.10111" lon="5.54197">
        <ele>1258.8</ele>
        <time>2020-07-19T09:16:10.000Z</time>
      </trkpt>
      <trkpt lat="45.10119" lon="5.54202">
        <ele>1258.8</ele>
        <time>2020-07-19T09:16:14.000Z</time>
      </trkpt>
      <trkpt lat="45.10123" lon="5.54204">
        <ele>1258.2</ele>
        <time>2020-07-19T09:16:26.000Z</time>
      </trkpt>
      <trkpt lat="45.10127" lon="5.54202">
        <ele>1258</ele>
        <time>2020-07-19T09:16:28.000Z</time>
      </trkpt>
      <trkpt lat="45.10133" lon="5.54199">
        <ele>1257.8</ele>
        <time>2020-07-19T09:16:31.000Z</time>
      </trkpt>
      <trkpt lat="45.10138" lon="5.54195">
        <ele>1257.4</ele>
        <time>2020-07-19T09:16:34.000Z</time>
      </trkpt>
      <trkpt lat="45.10143" lon="5.54194">
        <ele>1257.2</ele>
        <time>2020-07-19T09:16:36.000Z</time>
      </trkpt>
      <trkpt lat="45.10149" lon="5.54191">
        <ele>1257</ele>
        <time>2020-07-19T09:16:38.000Z</time>
      </trkpt>
      <trkpt lat="45.10155" lon="5.54194">
        <ele>1256.8</ele>
        <time>2020-07-19T09:16:41.000Z</time>
      </trkpt>
      <trkpt lat="45.10161" lon="5.54202">
        <ele>1256.4</ele>
        <time>2020-07-19T09:16:44.000Z</time>
      </trkpt>
      <trkpt lat="45.10169" lon="5.54208">
        <ele>1256.2</ele>
        <time>2020-07-19T09:16:47.000Z</time>
      </trkpt>
      <trkpt lat="45.10175" lon="5.54212">
        <ele>1256</ele>
        <time>2020-07-19T09:16:49.000Z</time>
      </trkpt>
      <trkpt lat="45.10183" lon="5.54214">
        <ele>1256</ele>
        <time>2020-07-19T09:16:51.000Z</time>
      </trkpt>
      <trkpt lat="45.10191" lon="5.54212">
        <ele>1255.8</ele>
        <time>2020-07-19T09:16:53.000Z</time>
      </trkpt>
      <trkpt lat="45.10196" lon="5.54208">
        <ele>1255.8</ele>
        <time>2020-07-19T09:16:55.000Z</time>
      </trkpt>
      <trkpt lat="45.102" lon="5.54202">
        <ele>1255.6</ele>
        <time>2020-07-19T09:16:57.000Z</time>
      </trkpt>
      <trkpt lat="45.10207" lon="5.54193">
        <ele>1255.2</ele>
        <time>2020-07-19T09:17:00.000Z</time>
      </trkpt>
      <trkpt lat="45.1021" lon="5.54191">
        <ele>1255</ele>
        <time>2020-07-19T09:17:01.000Z</time>
      </trkpt>
      <trkpt lat="45.1022" lon="5.54183">
        <ele>1254.4</ele>
        <time>2020-07-19T09:17:04.000Z</time>
      </trkpt>
      <trkpt lat="45.10222" lon="5.54179">
        <ele>1254.4</ele>
        <time>2020-07-19T09:17:05.000Z</time>
      </trkpt>
      <trkpt lat="45.10223" lon="5.54171">
        <ele>1254</ele>
        <time>2020-07-19T09:17:07.000Z</time>
      </trkpt>
      <trkpt lat="45.10221" lon="5.54163">
        <ele>1253.6</ele>
        <time>2020-07-19T09:17:09.000Z</time>
      </trkpt>
      <trkpt lat="45.10222" lon="5.54156">
        <ele>1253.2</ele>
        <time>2020-07-19T09:17:11.000Z</time>
      </trkpt>
      <trkpt lat="45.10225" lon="5.54149">
        <ele>1252.8</ele>
        <time>2020-07-19T09:17:13.000Z</time>
      </trkpt>
      <trkpt lat="45.1023" lon="5.5413">
        <ele>1251.8</ele>
        <time>2020-07-19T09:17:17.000Z</time>
      </trkpt>
      <trkpt lat="45.10237" lon="5.54121">
        <ele>1251.4</ele>
        <time>2020-07-19T09:17:19.000Z</time>
      </trkpt>
      <trkpt lat="45.10243" lon="5.54115">
        <ele>1251</ele>
        <time>2020-07-19T09:17:21.000Z</time>
      </trkpt>
      <trkpt lat="45.10248" lon="5.54114">
        <ele>1250.6</ele>
        <time>2020-07-19T09:17:23.000Z</time>
      </trkpt>
      <trkpt lat="45.10258" lon="5.54111">
        <ele>1250</ele>
        <time>2020-07-19T09:17:26.000Z</time>
      </trkpt>
      <trkpt lat="45.10263" lon="5.5411">
        <ele>1249.8</ele>
        <time>2020-07-19T09:17:28.000Z</time>
      </trkpt>
      <trkpt lat="45.10272" lon="5.54111">
        <ele>1249.6</ele>
        <time>2020-07-19T09:17:32.000Z</time>
      </trkpt>
      <trkpt lat="45.10278" lon="5.54106">
        <ele>1249.4</ele>
        <time>2020-07-19T09:17:34.000Z</time>
      </trkpt>
      <trkpt lat="45.10283" lon="5.54101">
        <ele>1249.4</ele>
        <time>2020-07-19T09:17:36.000Z</time>
      </trkpt>
      <trkpt lat="45.1029" lon="5.54092">
        <ele>1249.2</ele>
        <time>2020-07-19T09:17:40.000Z</time>
      </trkpt>
      <trkpt lat="45.10292" lon="5.54094">
        <ele>1249.2</ele>
        <time>2020-07-19T09:17:43.000Z</time>
      </trkpt>
      <trkpt lat="45.10299" lon="5.5409">
        <ele>1249</ele>
        <time>2020-07-19T09:17:46.000Z</time>
      </trkpt>
      <trkpt lat="45.10303" lon="5.54085">
        <ele>1249</ele>
        <time>2020-07-19T09:17:48.000Z</time>
      </trkpt>
      <trkpt lat="45.10307" lon="5.54074">
        <ele>1249</ele>
        <time>2020-07-19T09:17:52.000Z</time>
      </trkpt>
      <trkpt lat="45.1031" lon="5.54064">
        <ele>1249</ele>
        <time>2020-07-19T09:17:55.000Z</time>
      </trkpt>
      <trkpt lat="45.10311" lon="5.54056">
        <ele>1248.8</ele>
        <time>2020-07-19T09:17:57.000Z</time>
      </trkpt>
      <trkpt lat="45.10311" lon="5.54047">
        <ele>1248.8</ele>
        <time>2020-07-19T09:17:59.000Z</time>
      </trkpt>
      <trkpt lat="45.1031" lon="5.54042">
        <ele>1248.6</ele>
        <time>2020-07-19T09:18:00.000Z</time>
      </trkpt>
      <trkpt lat="45.10305" lon="5.54033">
        <ele>1248.4</ele>
        <time>2020-07-19T09:18:02.000Z</time>
      </trkpt>
      <trkpt lat="45.10302" lon="5.54024">
        <ele>1248</ele>
        <time>2020-07-19T09:18:04.000Z</time>
      </trkpt>
      <trkpt lat="45.103" lon="5.54014">
        <ele>1247.6</ele>
        <time>2020-07-19T09:18:06.000Z</time>
      </trkpt>
      <trkpt lat="45.103" lon="5.54008">
        <ele>1247.6</ele>
        <time>2020-07-19T09:18:07.000Z</time>
      </trkpt>
      <trkpt lat="45.10299" lon="5.53997">
        <ele>1247.2</ele>
        <time>2020-07-19T09:18:09.000Z</time>
      </trkpt>
      <trkpt lat="45.10294" lon="5.53988">
        <ele>1246.8</ele>
        <time>2020-07-19T09:18:11.000Z</time>
      </trkpt>
      <trkpt lat="45.10289" lon="5.53982">
        <ele>1246.4</ele>
        <time>2020-07-19T09:18:13.000Z</time>
      </trkpt>
      <trkpt lat="45.10286" lon="5.53975">
        <ele>1246</ele>
        <time>2020-07-19T09:18:15.000Z</time>
      </trkpt>
      <trkpt lat="45.10284" lon="5.53966">
        <ele>1245.4</ele>
        <time>2020-07-19T09:18:17.000Z</time>
      </trkpt>
      <trkpt lat="45.10285" lon="5.53952">
        <ele>1244.8</ele>
        <time>2020-07-19T09:18:19.000Z</time>
      </trkpt>
      <trkpt lat="45.10287" lon="5.53932">
        <ele>1243.8</ele>
        <time>2020-07-19T09:18:22.000Z</time>
      </trkpt>
      <trkpt lat="45.10288" lon="5.53926">
        <ele>1243.6</ele>
        <time>2020-07-19T09:18:23.000Z</time>
      </trkpt>
      <trkpt lat="45.1029" lon="5.53913">
        <ele>1242.8</ele>
        <time>2020-07-19T09:18:26.000Z</time>
      </trkpt>
      <trkpt lat="45.10291" lon="5.53901">
        <ele>1241.6</ele>
        <time>2020-07-19T09:18:29.000Z</time>
      </trkpt>
      <trkpt lat="45.10294" lon="5.5389">
        <ele>1240.8</ele>
        <time>2020-07-19T09:18:32.000Z</time>
      </trkpt>
      <trkpt lat="45.10299" lon="5.53879">
        <ele>1239.8</ele>
        <time>2020-07-19T09:18:35.000Z</time>
      </trkpt>
      <trkpt lat="45.10301" lon="5.53869">
        <ele>1239.4</ele>
        <time>2020-07-19T09:18:37.000Z</time>
      </trkpt>
      <trkpt lat="45.10303" lon="5.53859">
        <ele>1238.4</ele>
        <time>2020-07-19T09:18:40.000Z</time>
      </trkpt>
      <trkpt lat="45.10305" lon="5.53851">
        <ele>1238</ele>
        <time>2020-07-19T09:18:42.000Z</time>
      </trkpt>
      <trkpt lat="45.10305" lon="5.53842">
        <ele>1236.8</ele>
        <time>2020-07-19T09:18:46.000Z</time>
      </trkpt>
      <trkpt lat="45.10306" lon="5.53827">
        <ele>1229.4</ele>
        <time>2020-07-19T09:19:17.000Z</time>
      </trkpt>
      <trkpt lat="45.1031" lon="5.53811">
        <ele>1228</ele>
        <time>2020-07-19T09:19:21.000Z</time>
      </trkpt>
      <trkpt lat="45.1031" lon="5.53804">
        <ele>1227.4</ele>
        <time>2020-07-19T09:19:23.000Z</time>
      </trkpt>
      <trkpt lat="45.10312" lon="5.53796">
        <ele>1226.4</ele>
        <time>2020-07-19T09:19:26.000Z</time>
      </trkpt>
      <trkpt lat="45.10309" lon="5.53789">
        <ele>1225</ele>
        <time>2020-07-19T09:19:30.000Z</time>
      </trkpt>
      <trkpt lat="45.10304" lon="5.53789">
        <ele>1224.2</ele>
        <time>2020-07-19T09:19:32.000Z</time>
      </trkpt>
      <trkpt lat="45.10296" lon="5.53791">
        <ele>1223.2</ele>
        <time>2020-07-19T09:19:35.000Z</time>
      </trkpt>
      <trkpt lat="45.1029" lon="5.5379">
        <ele>1222.2</ele>
        <time>2020-07-19T09:19:37.000Z</time>
      </trkpt>
      <trkpt lat="45.10287" lon="5.53783">
        <ele>1221.4</ele>
        <time>2020-07-19T09:19:39.000Z</time>
      </trkpt>
      <trkpt lat="45.10286" lon="5.53776">
        <ele>1220.8</ele>
        <time>2020-07-19T09:19:41.000Z</time>
      </trkpt>
      <trkpt lat="45.10289" lon="5.53766">
        <ele>1219.4</ele>
        <time>2020-07-19T09:19:45.000Z</time>
      </trkpt>
      <trkpt lat="45.10294" lon="5.53758">
        <ele>1218.4</ele>
        <time>2020-07-19T09:19:47.000Z</time>
      </trkpt>
      <trkpt lat="45.10298" lon="5.5375">
        <ele>1217.6</ele>
        <time>2020-07-19T09:19:49.000Z</time>
      </trkpt>
      <trkpt lat="45.103" lon="5.53741">
        <ele>1216.8</ele>
        <time>2020-07-19T09:19:51.000Z</time>
      </trkpt>
      <trkpt lat="45.1031" lon="5.53729">
        <ele>1215.4</ele>
        <time>2020-07-19T09:19:54.000Z</time>
      </trkpt>
      <trkpt lat="45.10317" lon="5.53719">
        <ele>1214.4</ele>
        <time>2020-07-19T09:19:56.000Z</time>
      </trkpt>
      <trkpt lat="45.10326" lon="5.53701">
        <ele>1212.8</ele>
        <time>2020-07-19T09:19:59.000Z</time>
      </trkpt>
      <trkpt lat="45.10328" lon="5.53692">
        <ele>1211.6</ele>
        <time>2020-07-19T09:20:01.000Z</time>
      </trkpt>
      <trkpt lat="45.10329" lon="5.53687">
        <ele>1211</ele>
        <time>2020-07-19T09:20:02.000Z</time>
      </trkpt>
      <trkpt lat="45.10333" lon="5.53679">
        <ele>1209.8</ele>
        <time>2020-07-19T09:20:04.000Z</time>
      </trkpt>
      <trkpt lat="45.10336" lon="5.53671">
        <ele>1208.6</ele>
        <time>2020-07-19T09:20:06.000Z</time>
      </trkpt>
      <trkpt lat="45.1034" lon="5.5366">
        <ele>1207</ele>
        <time>2020-07-19T09:20:09.000Z</time>
      </trkpt>
      <trkpt lat="45.10341" lon="5.53652">
        <ele>1205.8</ele>
        <time>2020-07-19T09:20:11.000Z</time>
      </trkpt>
      <trkpt lat="45.10344" lon="5.5364">
        <ele>1204.6</ele>
        <time>2020-07-19T09:20:13.000Z</time>
      </trkpt>
      <trkpt lat="45.10346" lon="5.53628">
        <ele>1203.2</ele>
        <time>2020-07-19T09:20:15.000Z</time>
      </trkpt>
      <trkpt lat="45.10346" lon="5.53618">
        <ele>1202</ele>
        <time>2020-07-19T09:20:17.000Z</time>
      </trkpt>
      <trkpt lat="45.10348" lon="5.53611">
        <ele>1201</ele>
        <time>2020-07-19T09:20:19.000Z</time>
      </trkpt>
      <trkpt lat="45.1035" lon="5.53604">
        <ele>1199.6</ele>
        <time>2020-07-19T09:20:21.000Z</time>
      </trkpt>
      <trkpt lat="45.10349" lon="5.53594">
        <ele>1197.8</ele>
        <time>2020-07-19T09:20:24.000Z</time>
      </trkpt>
      <trkpt lat="45.1035" lon="5.53584">
        <ele>1196.4</ele>
        <time>2020-07-19T09:20:26.000Z</time>
      </trkpt>
      <trkpt lat="45.1035" lon="5.53579">
        <ele>1195.8</ele>
        <time>2020-07-19T09:20:27.000Z</time>
      </trkpt>
      <trkpt lat="45.10349" lon="5.53569">
        <ele>1194.6</ele>
        <time>2020-07-19T09:20:29.000Z</time>
      </trkpt>
      <trkpt lat="45.1035" lon="5.53557">
        <ele>1192.6</ele>
        <time>2020-07-19T09:20:32.000Z</time>
      </trkpt>
      <trkpt lat="45.1035" lon="5.53548">
        <ele>1191.2</ele>
        <time>2020-07-19T09:20:34.000Z</time>
      </trkpt>
      <trkpt lat="45.10346" lon="5.53535">
        <ele>1189.2</ele>
        <time>2020-07-19T09:20:37.000Z</time>
      </trkpt>
      <trkpt lat="45.10345" lon="5.53526">
        <ele>1187.8</ele>
        <time>2020-07-19T09:20:39.000Z</time>
      </trkpt>
      <trkpt lat="45.10352" lon="5.53523">
        <ele>1185.8</ele>
        <time>2020-07-19T09:20:42.000Z</time>
      </trkpt>
      <trkpt lat="45.10357" lon="5.53531">
        <ele>1183.6</ele>
        <time>2020-07-19T09:20:45.000Z</time>
      </trkpt>
      <trkpt lat="45.10358" lon="5.53538">
        <ele>1182.2</ele>
        <time>2020-07-19T09:20:47.000Z</time>
      </trkpt>
      <trkpt lat="45.10362" lon="5.53537">
        <ele>1179.8</ele>
        <time>2020-07-19T09:20:51.000Z</time>
      </trkpt>
      <trkpt lat="45.10366" lon="5.53525">
        <ele>1166.4</ele>
        <time>2020-07-19T09:21:20.000Z</time>
      </trkpt>
      <trkpt lat="45.10367" lon="5.53513">
        <ele>1165.2</ele>
        <time>2020-07-19T09:21:23.000Z</time>
      </trkpt>
      <trkpt lat="45.10368" lon="5.535">
        <ele>1163</ele>
        <time>2020-07-19T09:21:29.000Z</time>
      </trkpt>
      <trkpt lat="45.10369" lon="5.53494">
        <ele>1161.8</ele>
        <time>2020-07-19T09:21:33.000Z</time>
      </trkpt>
      <trkpt lat="45.10368" lon="5.53486">
        <ele>1161.2</ele>
        <time>2020-07-19T09:21:35.000Z</time>
      </trkpt>
      <trkpt lat="45.10366" lon="5.53476">
        <ele>1159.8</ele>
        <time>2020-07-19T09:21:39.000Z</time>
      </trkpt>
      <trkpt lat="45.10366" lon="5.53462">
        <ele>1158.4</ele>
        <time>2020-07-19T09:21:43.000Z</time>
      </trkpt>
      <trkpt lat="45.10366" lon="5.53454">
        <ele>1157.6</ele>
        <time>2020-07-19T09:21:45.000Z</time>
      </trkpt>
      <trkpt lat="45.10368" lon="5.53447">
        <ele>1156.8</ele>
        <time>2020-07-19T09:21:47.000Z</time>
      </trkpt>
      <trkpt lat="45.10372" lon="5.53439">
        <ele>1155.6</ele>
        <time>2020-07-19T09:21:50.000Z</time>
      </trkpt>
      <trkpt lat="45.10378" lon="5.5343">
        <ele>1153.8</ele>
        <time>2020-07-19T09:21:54.000Z</time>
      </trkpt>
      <trkpt lat="45.10384" lon="5.5342">
        <ele>1152</ele>
        <time>2020-07-19T09:21:58.000Z</time>
      </trkpt>
      <trkpt lat="45.1039" lon="5.53412">
        <ele>1150.2</ele>
        <time>2020-07-19T09:22:02.000Z</time>
      </trkpt>
      <trkpt lat="45.10395" lon="5.534">
        <ele>1148.6</ele>
        <time>2020-07-19T09:22:06.000Z</time>
      </trkpt>
      <trkpt lat="45.10398" lon="5.53394">
        <ele>1147.6</ele>
        <time>2020-07-19T09:22:08.000Z</time>
      </trkpt>
      <trkpt lat="45.10399" lon="5.53386">
        <ele>1146.6</ele>
        <time>2020-07-19T09:22:10.000Z</time>
      </trkpt>
      <trkpt lat="45.10399" lon="5.53373">
        <ele>1144.6</ele>
        <time>2020-07-19T09:22:14.000Z</time>
      </trkpt>
      <trkpt lat="45.10404" lon="5.5336">
        <ele>1142.6</ele>
        <time>2020-07-19T09:22:18.000Z</time>
      </trkpt>
      <trkpt lat="45.10408" lon="5.53353">
        <ele>1141.2</ele>
        <time>2020-07-19T09:22:21.000Z</time>
      </trkpt>
      <trkpt lat="45.1041" lon="5.53349">
        <ele>1139.4</ele>
        <time>2020-07-19T09:22:25.000Z</time>
      </trkpt>
      <trkpt lat="45.10411" lon="5.53344">
        <ele>1138.6</ele>
        <time>2020-07-19T09:22:27.000Z</time>
      </trkpt>
      <trkpt lat="45.10411" lon="5.53333">
        <ele>1137.4</ele>
        <time>2020-07-19T09:22:30.000Z</time>
      </trkpt>
      <trkpt lat="45.10409" lon="5.53325">
        <ele>1136.4</ele>
        <time>2020-07-19T09:22:32.000Z</time>
      </trkpt>
      <trkpt lat="45.10406" lon="5.53318">
        <ele>1135.2</ele>
        <time>2020-07-19T09:22:34.000Z</time>
      </trkpt>
      <trkpt lat="45.10408" lon="5.53306">
        <ele>1133.2</ele>
        <time>2020-07-19T09:22:38.000Z</time>
      </trkpt>
      <trkpt lat="45.10411" lon="5.53297">
        <ele>1131</ele>
        <time>2020-07-19T09:22:43.000Z</time>
      </trkpt>
      <trkpt lat="45.10415" lon="5.5329">
        <ele>1116</ele>
        <time>2020-07-19T09:23:42.000Z</time>
      </trkpt>
      <trkpt lat="45.10412" lon="5.5328">
        <ele>1114.6</ele>
        <time>2020-07-19T09:23:46.000Z</time>
      </trkpt>
      <trkpt lat="45.10408" lon="5.53274">
        <ele>1113.8</ele>
        <time>2020-07-19T09:23:49.000Z</time>
      </trkpt>
      <trkpt lat="45.10403" lon="5.53268">
        <ele>1113.2</ele>
        <time>2020-07-19T09:23:52.000Z</time>
      </trkpt>
      <trkpt lat="45.10395" lon="5.53262">
        <ele>1112.4</ele>
        <time>2020-07-19T09:23:56.000Z</time>
      </trkpt>
      <trkpt lat="45.10388" lon="5.53252">
        <ele>1111.6</ele>
        <time>2020-07-19T09:24:00.000Z</time>
      </trkpt>
      <trkpt lat="45.1038" lon="5.53244">
        <ele>1110.8</ele>
        <time>2020-07-19T09:24:04.000Z</time>
      </trkpt>
      <trkpt lat="45.10376" lon="5.5324">
        <ele>1110.4</ele>
        <time>2020-07-19T09:24:06.000Z</time>
      </trkpt>
      <trkpt lat="45.10371" lon="5.53235">
        <ele>1110.2</ele>
        <time>2020-07-19T09:24:08.000Z</time>
      </trkpt>
      <trkpt lat="45.10364" lon="5.53231">
        <ele>1109.6</ele>
        <time>2020-07-19T09:24:11.000Z</time>
      </trkpt>
      <trkpt lat="45.1036" lon="5.53229">
        <ele>1109.2</ele>
        <time>2020-07-19T09:24:13.000Z</time>
      </trkpt>
      <trkpt lat="45.10353" lon="5.53224">
        <ele>1108.6</ele>
        <time>2020-07-19T09:24:17.000Z</time>
      </trkpt>
      <trkpt lat="45.10347" lon="5.53219">
        <ele>1108.2</ele>
        <time>2020-07-19T09:24:21.000Z</time>
      </trkpt>
      <trkpt lat="45.10343" lon="5.53216">
        <ele>1107.8</ele>
        <time>2020-07-19T09:24:23.000Z</time>
      </trkpt>
      <trkpt lat="45.10335" lon="5.53207">
        <ele>1107</ele>
        <time>2020-07-19T09:24:27.000Z</time>
      </trkpt>
      <trkpt lat="45.1033" lon="5.53204">
        <ele>1106.8</ele>
        <time>2020-07-19T09:24:29.000Z</time>
      </trkpt>
      <trkpt lat="45.10323" lon="5.53196">
        <ele>1106.2</ele>
        <time>2020-07-19T09:24:33.000Z</time>
      </trkpt>
      <trkpt lat="45.10314" lon="5.53189">
        <ele>1105.4</ele>
        <time>2020-07-19T09:24:36.000Z</time>
      </trkpt>
      <trkpt lat="45.10307" lon="5.53182">
        <ele>1104.8</ele>
        <time>2020-07-19T09:24:39.000Z</time>
      </trkpt>
      <trkpt lat="45.10305" lon="5.53176">
        <ele>1104.4</ele>
        <time>2020-07-19T09:24:41.000Z</time>
      </trkpt>
      <trkpt lat="45.10302" lon="5.53169">
        <ele>1104</ele>
        <time>2020-07-19T09:24:43.000Z</time>
      </trkpt>
      <trkpt lat="45.10299" lon="5.53155">
        <ele>1102.8</ele>
        <time>2020-07-19T09:24:47.000Z</time>
      </trkpt>
      <trkpt lat="45.10293" lon="5.5315">
        <ele>1102.2</ele>
        <time>2020-07-19T09:24:49.000Z</time>
      </trkpt>
      <trkpt lat="45.1029" lon="5.53143">
        <ele>1101.6</ele>
        <time>2020-07-19T09:24:51.000Z</time>
      </trkpt>
      <trkpt lat="45.10291" lon="5.53133">
        <ele>1100.8</ele>
        <time>2020-07-19T09:24:53.000Z</time>
      </trkpt>
      <trkpt lat="45.1029" lon="5.53127">
        <ele>1100.4</ele>
        <time>2020-07-19T09:24:54.000Z</time>
      </trkpt>
      <trkpt lat="45.10284" lon="5.53108">
        <ele>1099.2</ele>
        <time>2020-07-19T09:24:57.000Z</time>
      </trkpt>
      <trkpt lat="45.10282" lon="5.53099">
        <ele>1098.8</ele>
        <time>2020-07-19T09:24:58.000Z</time>
      </trkpt>
      <trkpt lat="45.10281" lon="5.53089">
        <ele>1098.2</ele>
        <time>2020-07-19T09:24:59.000Z</time>
      </trkpt>
      <trkpt lat="45.10278" lon="5.53062">
        <ele>1096.4</ele>
        <time>2020-07-19T09:25:02.000Z</time>
      </trkpt>
      <trkpt lat="45.10276" lon="5.53052">
        <ele>1095.4</ele>
        <time>2020-07-19T09:25:04.000Z</time>
      </trkpt>
      <trkpt lat="45.10273" lon="5.53047">
        <ele>1093.4</ele>
        <time>2020-07-19T09:25:08.000Z</time>
      </trkpt>
      <trkpt lat="45.10275" lon="5.5304">
        <ele>1075.8</ele>
        <time>2020-07-19T09:26:29.000Z</time>
      </trkpt>
      <trkpt lat="45.10278" lon="5.5303">
        <ele>1075.4</ele>
        <time>2020-07-19T09:26:31.000Z</time>
      </trkpt>
      <trkpt lat="45.10291" lon="5.53011">
        <ele>1074.4</ele>
        <time>2020-07-19T09:26:34.000Z</time>
      </trkpt>
      <trkpt lat="45.10296" lon="5.53005">
        <ele>1074</ele>
        <time>2020-07-19T09:26:35.000Z</time>
      </trkpt>
      <trkpt lat="45.10301" lon="5.53">
        <ele>1073.6</ele>
        <time>2020-07-19T09:26:36.000Z</time>
      </trkpt>
      <trkpt lat="45.10314" lon="5.52981">
        <ele>1072.2</ele>
        <time>2020-07-19T09:26:39.000Z</time>
      </trkpt>
      <trkpt lat="45.10325" lon="5.52963">
        <ele>1070.4</ele>
        <time>2020-07-19T09:26:42.000Z</time>
      </trkpt>
      <trkpt lat="45.10329" lon="5.52959">
        <ele>1069.8</ele>
        <time>2020-07-19T09:26:43.000Z</time>
      </trkpt>
      <trkpt lat="45.10336" lon="5.52956">
        <ele>1068.6</ele>
        <time>2020-07-19T09:26:45.000Z</time>
      </trkpt>
      <trkpt lat="45.10345" lon="5.52955">
        <ele>1066.8</ele>
        <time>2020-07-19T09:26:48.000Z</time>
      </trkpt>
      <trkpt lat="45.10349" lon="5.52955">
        <ele>1064.8</ele>
        <time>2020-07-19T09:26:52.000Z</time>
      </trkpt>
      <trkpt lat="45.10354" lon="5.52962">
        <ele>1056.8</ele>
        <time>2020-07-19T09:27:15.000Z</time>
      </trkpt>
      <trkpt lat="45.10358" lon="5.52971">
        <ele>1055.8</ele>
        <time>2020-07-19T09:27:18.000Z</time>
      </trkpt>
      <trkpt lat="45.10363" lon="5.52979">
        <ele>1055</ele>
        <time>2020-07-19T09:27:21.000Z</time>
      </trkpt>
      <trkpt lat="45.10371" lon="5.52991">
        <ele>1054</ele>
        <time>2020-07-19T09:27:24.000Z</time>
      </trkpt>
      <trkpt lat="45.10379" lon="5.52998">
        <ele>1053.4</ele>
        <time>2020-07-19T09:27:26.000Z</time>
      </trkpt>
      <trkpt lat="45.10383" lon="5.53002">
        <ele>1053.2</ele>
        <time>2020-07-19T09:27:27.000Z</time>
      </trkpt>
      <trkpt lat="45.10397" lon="5.53024">
        <ele>1052</ele>
        <time>2020-07-19T09:27:31.000Z</time>
      </trkpt>
      <trkpt lat="45.10403" lon="5.53036">
        <ele>1051.4</ele>
        <time>2020-07-19T09:27:33.000Z</time>
      </trkpt>
      <trkpt lat="45.10408" lon="5.53046">
        <ele>1050.8</ele>
        <time>2020-07-19T09:27:35.000Z</time>
      </trkpt>
      <trkpt lat="45.10416" lon="5.53058">
        <ele>1050.2</ele>
        <time>2020-07-19T09:27:38.000Z</time>
      </trkpt>
      <trkpt lat="45.10424" lon="5.53067">
        <ele>1048.4</ele>
        <time>2020-07-19T09:27:41.000Z</time>
      </trkpt>
      <trkpt lat="45.10434" lon="5.53075">
        <ele>1047.8</ele>
        <time>2020-07-19T09:27:44.000Z</time>
      </trkpt>
      <trkpt lat="45.10437" lon="5.53078">
        <ele>1047.6</ele>
        <time>2020-07-19T09:27:45.000Z</time>
      </trkpt>
      <trkpt lat="45.10448" lon="5.53088">
        <ele>1047.2</ele>
        <time>2020-07-19T09:27:48.000Z</time>
      </trkpt>
      <trkpt lat="45.10463" lon="5.531">
        <ele>1046.2</ele>
        <time>2020-07-19T09:27:52.000Z</time>
      </trkpt>
      <trkpt lat="45.10474" lon="5.53108">
        <ele>1045.8</ele>
        <time>2020-07-19T09:27:55.000Z</time>
      </trkpt>
      <trkpt lat="45.1049" lon="5.53118">
        <ele>1045</ele>
        <time>2020-07-19T09:27:59.000Z</time>
      </trkpt>
      <trkpt lat="45.10505" lon="5.53127">
        <ele>1044.6</ele>
        <time>2020-07-19T09:28:02.000Z</time>
      </trkpt>
      <trkpt lat="45.10519" lon="5.53136">
        <ele>1044.2</ele>
        <time>2020-07-19T09:28:05.000Z</time>
      </trkpt>
      <trkpt lat="45.10526" lon="5.53142">
        <ele>1043.8</ele>
        <time>2020-07-19T09:28:07.000Z</time>
      </trkpt>
      <trkpt lat="45.1054" lon="5.5315">
        <ele>1043.4</ele>
        <time>2020-07-19T09:28:10.000Z</time>
      </trkpt>
      <trkpt lat="45.10554" lon="5.53159">
        <ele>1043.2</ele>
        <time>2020-07-19T09:28:13.000Z</time>
      </trkpt>
      <trkpt lat="45.10558" lon="5.53162">
        <ele>1043</ele>
        <time>2020-07-19T09:28:14.000Z</time>
      </trkpt>
      <trkpt lat="45.10571" lon="5.53173">
        <ele>1042.4</ele>
        <time>2020-07-19T09:28:17.000Z</time>
      </trkpt>
      <trkpt lat="45.10584" lon="5.53186">
        <ele>1042</ele>
        <time>2020-07-19T09:28:20.000Z</time>
      </trkpt>
      <trkpt lat="45.10593" lon="5.53189">
        <ele>1041.6</ele>
        <time>2020-07-19T09:28:22.000Z</time>
      </trkpt>
      <trkpt lat="45.10603" lon="5.53188">
        <ele>1041.4</ele>
        <time>2020-07-19T09:28:24.000Z</time>
      </trkpt>
      <trkpt lat="45.10612" lon="5.53182">
        <ele>1040.8</ele>
        <time>2020-07-19T09:28:26.000Z</time>
      </trkpt>
      <trkpt lat="45.10619" lon="5.53176">
        <ele>1040.4</ele>
        <time>2020-07-19T09:28:28.000Z</time>
      </trkpt>
      <trkpt lat="45.10626" lon="5.53169">
        <ele>1040.2</ele>
        <time>2020-07-19T09:28:30.000Z</time>
      </trkpt>
      <trkpt lat="45.10628" lon="5.53166">
        <ele>1040.2</ele>
        <time>2020-07-19T09:28:31.000Z</time>
      </trkpt>
      <trkpt lat="45.10634" lon="5.53161">
        <ele>1040.2</ele>
        <time>2020-07-19T09:28:33.000Z</time>
      </trkpt>
      <trkpt lat="45.10643" lon="5.53156">
        <ele>1040</ele>
        <time>2020-07-19T09:28:36.000Z</time>
      </trkpt>
      <trkpt lat="45.10654" lon="5.53147">
        <ele>1039.6</ele>
        <time>2020-07-19T09:28:39.000Z</time>
      </trkpt>
      <trkpt lat="45.10662" lon="5.53141">
        <ele>1039.6</ele>
        <time>2020-07-19T09:28:41.000Z</time>
      </trkpt>
      <trkpt lat="45.10677" lon="5.53135">
        <ele>1039.2</ele>
        <time>2020-07-19T09:28:44.000Z</time>
      </trkpt>
      <trkpt lat="45.10697" lon="5.53124">
        <ele>1038.4</ele>
        <time>2020-07-19T09:28:48.000Z</time>
      </trkpt>
      <trkpt lat="45.10716" lon="5.53114">
        <ele>1037.6</ele>
        <time>2020-07-19T09:28:52.000Z</time>
      </trkpt>
      <trkpt lat="45.10731" lon="5.53108">
        <ele>1036.8</ele>
        <time>2020-07-19T09:28:55.000Z</time>
      </trkpt>
      <trkpt lat="45.10749" lon="5.53105">
        <ele>1035.8</ele>
        <time>2020-07-19T09:28:59.000Z</time>
      </trkpt>
      <trkpt lat="45.10762" lon="5.53103">
        <ele>1035.2</ele>
        <time>2020-07-19T09:29:02.000Z</time>
      </trkpt>
      <trkpt lat="45.10766" lon="5.53102">
        <ele>1035</ele>
        <time>2020-07-19T09:29:03.000Z</time>
      </trkpt>
      <trkpt lat="45.10778" lon="5.531">
        <ele>1034.6</ele>
        <time>2020-07-19T09:29:06.000Z</time>
      </trkpt>
      <trkpt lat="45.1079" lon="5.531">
        <ele>1034.2</ele>
        <time>2020-07-19T09:29:09.000Z</time>
      </trkpt>
      <trkpt lat="45.10799" lon="5.53101">
        <ele>1034</ele>
        <time>2020-07-19T09:29:11.000Z</time>
      </trkpt>
      <trkpt lat="45.10803" lon="5.53101">
        <ele>1033.8</ele>
        <time>2020-07-19T09:29:12.000Z</time>
      </trkpt>
      <trkpt lat="45.10815" lon="5.53103">
        <ele>1033.4</ele>
        <time>2020-07-19T09:29:15.000Z</time>
      </trkpt>
      <trkpt lat="45.10827" lon="5.53102">
        <ele>1032.2</ele>
        <time>2020-07-19T09:29:18.000Z</time>
      </trkpt>
      <trkpt lat="45.10836" lon="5.53101">
        <ele>1030.8</ele>
        <time>2020-07-19T09:29:20.000Z</time>
      </trkpt>
      <trkpt lat="45.10858" lon="5.53097">
        <ele>1028.4</ele>
        <time>2020-07-19T09:29:24.000Z</time>
      </trkpt>
      <trkpt lat="45.10864" lon="5.53096">
        <ele>1027.6</ele>
        <time>2020-07-19T09:29:25.000Z</time>
      </trkpt>
      <trkpt lat="45.10877" lon="5.53096">
        <ele>1026</ele>
        <time>2020-07-19T09:29:27.000Z</time>
      </trkpt>
      <trkpt lat="45.10897" lon="5.53099">
        <ele>1023.4</ele>
        <time>2020-07-19T09:29:30.000Z</time>
      </trkpt>
      <trkpt lat="45.10921" lon="5.53106">
        <ele>1019.8</ele>
        <time>2020-07-19T09:29:34.000Z</time>
      </trkpt>
      <trkpt lat="45.10941" lon="5.53108">
        <ele>1017</ele>
        <time>2020-07-19T09:29:37.000Z</time>
      </trkpt>
      <trkpt lat="45.10948" lon="5.53109">
        <ele>1016.2</ele>
        <time>2020-07-19T09:29:38.000Z</time>
      </trkpt>
      <trkpt lat="45.10955" lon="5.53112">
        <ele>1015.2</ele>
        <time>2020-07-19T09:29:39.000Z</time>
      </trkpt>
      <trkpt lat="45.10961" lon="5.53115">
        <ele>1014.2</ele>
        <time>2020-07-19T09:29:40.000Z</time>
      </trkpt>
      <trkpt lat="45.10976" lon="5.53126">
        <ele>1011.6</ele>
        <time>2020-07-19T09:29:43.000Z</time>
      </trkpt>
      <trkpt lat="45.10984" lon="5.53131">
        <ele>1009.8</ele>
        <time>2020-07-19T09:29:45.000Z</time>
      </trkpt>
      <trkpt lat="45.10999" lon="5.53136">
        <ele>1007.2</ele>
        <time>2020-07-19T09:29:48.000Z</time>
      </trkpt>
      <trkpt lat="45.11023" lon="5.53141">
        <ele>1003.8</ele>
        <time>2020-07-19T09:29:52.000Z</time>
      </trkpt>
      <trkpt lat="45.11046" lon="5.53145">
        <ele>1001</ele>
        <time>2020-07-19T09:29:55.000Z</time>
      </trkpt>
      <trkpt lat="45.11054" lon="5.53148">
        <ele>1000.2</ele>
        <time>2020-07-19T09:29:56.000Z</time>
      </trkpt>
      <trkpt lat="45.11082" lon="5.53163">
        <ele>997.8</ele>
        <time>2020-07-19T09:29:59.000Z</time>
      </trkpt>
      <trkpt lat="45.111" lon="5.53171">
        <ele>995.6</ele>
        <time>2020-07-19T09:30:01.000Z</time>
      </trkpt>
      <trkpt lat="45.11124" lon="5.53179">
        <ele>992.4</ele>
        <time>2020-07-19T09:30:04.000Z</time>
      </trkpt>
      <trkpt lat="45.11132" lon="5.53182">
        <ele>991.2</ele>
        <time>2020-07-19T09:30:05.000Z</time>
      </trkpt>
      <trkpt lat="45.1114" lon="5.53188">
        <ele>990.2</ele>
        <time>2020-07-19T09:30:06.000Z</time>
      </trkpt>
      <trkpt lat="45.11147" lon="5.53196">
        <ele>989.2</ele>
        <time>2020-07-19T09:30:07.000Z</time>
      </trkpt>
      <trkpt lat="45.11153" lon="5.53204">
        <ele>988.2</ele>
        <time>2020-07-19T09:30:08.000Z</time>
      </trkpt>
      <trkpt lat="45.1117" lon="5.53234">
        <ele>985.6</ele>
        <time>2020-07-19T09:30:11.000Z</time>
      </trkpt>
      <trkpt lat="45.11176" lon="5.53243">
        <ele>984.6</ele>
        <time>2020-07-19T09:30:12.000Z</time>
      </trkpt>
      <trkpt lat="45.11184" lon="5.53249">
        <ele>983.4</ele>
        <time>2020-07-19T09:30:13.000Z</time>
      </trkpt>
      <trkpt lat="45.112" lon="5.53258">
        <ele>981.2</ele>
        <time>2020-07-19T09:30:15.000Z</time>
      </trkpt>
      <trkpt lat="45.11227" lon="5.53266">
        <ele>978</ele>
        <time>2020-07-19T09:30:18.000Z</time>
      </trkpt>
      <trkpt lat="45.11258" lon="5.53273">
        <ele>974</ele>
        <time>2020-07-19T09:30:22.000Z</time>
      </trkpt>
      <trkpt lat="45.11272" lon="5.53275">
        <ele>972.2</ele>
        <time>2020-07-19T09:30:24.000Z</time>
      </trkpt>
      <trkpt lat="45.11294" lon="5.53276">
        <ele>968.2</ele>
        <time>2020-07-19T09:30:28.000Z</time>
      </trkpt>
      <trkpt lat="45.11306" lon="5.53279">
        <ele>966.4</ele>
        <time>2020-07-19T09:30:30.000Z</time>
      </trkpt>
      <trkpt lat="45.11311" lon="5.53281">
        <ele>965.8</ele>
        <time>2020-07-19T09:30:31.000Z</time>
      </trkpt>
      <trkpt lat="45.11316" lon="5.53283">
        <ele>965.2</ele>
        <time>2020-07-19T09:30:32.000Z</time>
      </trkpt>
      <trkpt lat="45.1134" lon="5.53298">
        <ele>963</ele>
        <time>2020-07-19T09:30:36.000Z</time>
      </trkpt>
      <trkpt lat="45.11351" lon="5.53306">
        <ele>961.8</ele>
        <time>2020-07-19T09:30:38.000Z</time>
      </trkpt>
      <trkpt lat="45.11355" lon="5.53312">
        <ele>961</ele>
        <time>2020-07-19T09:30:39.000Z</time>
      </trkpt>
      <trkpt lat="45.11359" lon="5.53319">
        <ele>960.4</ele>
        <time>2020-07-19T09:30:40.000Z</time>
      </trkpt>
      <trkpt lat="45.11361" lon="5.53326">
        <ele>959.8</ele>
        <time>2020-07-19T09:30:41.000Z</time>
      </trkpt>
      <trkpt lat="45.11364" lon="5.53348">
        <ele>958.4</ele>
        <time>2020-07-19T09:30:44.000Z</time>
      </trkpt>
      <trkpt lat="45.11366" lon="5.53355">
        <ele>958</ele>
        <time>2020-07-19T09:30:45.000Z</time>
      </trkpt>
      <trkpt lat="45.11372" lon="5.53365">
        <ele>957.2</ele>
        <time>2020-07-19T09:30:47.000Z</time>
      </trkpt>
      <trkpt lat="45.11382" lon="5.53378">
        <ele>955.8</ele>
        <time>2020-07-19T09:30:50.000Z</time>
      </trkpt>
      <trkpt lat="45.11386" lon="5.53382">
        <ele>955.4</ele>
        <time>2020-07-19T09:30:51.000Z</time>
      </trkpt>
      <trkpt lat="45.11401" lon="5.53396">
        <ele>953.4</ele>
        <time>2020-07-19T09:30:55.000Z</time>
      </trkpt>
      <trkpt lat="45.11412" lon="5.53404">
        <ele>952.2</ele>
        <time>2020-07-19T09:30:58.000Z</time>
      </trkpt>
      <trkpt lat="45.11424" lon="5.5341">
        <ele>951</ele>
        <time>2020-07-19T09:31:01.000Z</time>
      </trkpt>
      <trkpt lat="45.11431" lon="5.53413">
        <ele>950.2</ele>
        <time>2020-07-19T09:31:03.000Z</time>
      </trkpt>
      <trkpt lat="45.11442" lon="5.53416">
        <ele>949</ele>
        <time>2020-07-19T09:31:06.000Z</time>
      </trkpt>
      <trkpt lat="45.11454" lon="5.5342">
        <ele>947.6</ele>
        <time>2020-07-19T09:31:10.000Z</time>
      </trkpt>
      <trkpt lat="45.11457" lon="5.5342">
        <ele>971.8</ele>
        <time>2020-07-19T09:32:56.000Z</time>
      </trkpt>
      <trkpt lat="45.11466" lon="5.53421">
        <ele>971.4</ele>
        <time>2020-07-19T09:33:00.000Z</time>
      </trkpt>
      <trkpt lat="45.11469" lon="5.53421">
        <ele>971</ele>
        <time>2020-07-19T09:33:01.000Z</time>
      </trkpt>
      <trkpt lat="45.11484" lon="5.53419">
        <ele>969.2</ele>
        <time>2020-07-19T09:33:05.000Z</time>
      </trkpt>
      <trkpt lat="45.11491" lon="5.53416">
        <ele>968.4</ele>
        <time>2020-07-19T09:33:07.000Z</time>
      </trkpt>
      <trkpt lat="45.11494" lon="5.53413">
        <ele>968</ele>
        <time>2020-07-19T09:33:08.000Z</time>
      </trkpt>
      <trkpt lat="45.11504" lon="5.53405">
        <ele>967.2</ele>
        <time>2020-07-19T09:33:11.000Z</time>
      </trkpt>
      <trkpt lat="45.11515" lon="5.5339">
        <ele>967</ele>
        <time>2020-07-19T09:33:15.000Z</time>
      </trkpt>
      <trkpt lat="45.11518" lon="5.53386">
        <ele>967</ele>
        <time>2020-07-19T09:33:16.000Z</time>
      </trkpt>
      <trkpt lat="45.11524" lon="5.53379">
        <ele>967.2</ele>
        <time>2020-07-19T09:33:18.000Z</time>
      </trkpt>
      <trkpt lat="45.11531" lon="5.53374">
        <ele>967</ele>
        <time>2020-07-19T09:33:20.000Z</time>
      </trkpt>
      <trkpt lat="45.11535" lon="5.53373">
        <ele>966.8</ele>
        <time>2020-07-19T09:33:21.000Z</time>
      </trkpt>
      <trkpt lat="45.11543" lon="5.53373">
        <ele>966.2</ele>
        <time>2020-07-19T09:33:23.000Z</time>
      </trkpt>
      <trkpt lat="45.11548" lon="5.53374">
        <ele>965.8</ele>
        <time>2020-07-19T09:33:24.000Z</time>
      </trkpt>
      <trkpt lat="45.11562" lon="5.5338">
        <ele>964.2</ele>
        <time>2020-07-19T09:33:28.000Z</time>
      </trkpt>
      <trkpt lat="45.11569" lon="5.53384">
        <ele>963.4</ele>
        <time>2020-07-19T09:33:30.000Z</time>
      </trkpt>
      <trkpt lat="45.11581" lon="5.53389">
        <ele>962.2</ele>
        <time>2020-07-19T09:33:33.000Z</time>
      </trkpt>
      <trkpt lat="45.11593" lon="5.53393">
        <ele>961</ele>
        <time>2020-07-19T09:33:36.000Z</time>
      </trkpt>
      <trkpt lat="45.116" lon="5.53396">
        <ele>960.2</ele>
        <time>2020-07-19T09:33:38.000Z</time>
      </trkpt>
      <trkpt lat="45.11607" lon="5.534">
        <ele>959.6</ele>
        <time>2020-07-19T09:33:40.000Z</time>
      </trkpt>
      <trkpt lat="45.11618" lon="5.53407">
        <ele>958.6</ele>
        <time>2020-07-19T09:33:43.000Z</time>
      </trkpt>
      <trkpt lat="45.11628" lon="5.53417">
        <ele>957.4</ele>
        <time>2020-07-19T09:33:46.000Z</time>
      </trkpt>
      <trkpt lat="45.11631" lon="5.5342">
        <ele>957</ele>
        <time>2020-07-19T09:33:47.000Z</time>
      </trkpt>
      <trkpt lat="45.11645" lon="5.53434">
        <ele>956</ele>
        <time>2020-07-19T09:33:51.000Z</time>
      </trkpt>
      <trkpt lat="45.11648" lon="5.53437">
        <ele>955.6</ele>
        <time>2020-07-19T09:33:52.000Z</time>
      </trkpt>
      <trkpt lat="45.11655" lon="5.53444">
        <ele>955.2</ele>
        <time>2020-07-19T09:33:54.000Z</time>
      </trkpt>
      <trkpt lat="45.11667" lon="5.53452">
        <ele>954.4</ele>
        <time>2020-07-19T09:33:57.000Z</time>
      </trkpt>
      <trkpt lat="45.11679" lon="5.53457">
        <ele>953.6</ele>
        <time>2020-07-19T09:34:00.000Z</time>
      </trkpt>
      <trkpt lat="45.11683" lon="5.53458">
        <ele>953.4</ele>
        <time>2020-07-19T09:34:01.000Z</time>
      </trkpt>
      <trkpt lat="45.11696" lon="5.5346">
        <ele>952.4</ele>
        <time>2020-07-19T09:34:04.000Z</time>
      </trkpt>
      <trkpt lat="45.11713" lon="5.5346">
        <ele>951.4</ele>
        <time>2020-07-19T09:34:08.000Z</time>
      </trkpt>
      <trkpt lat="45.11722" lon="5.53462">
        <ele>951</ele>
        <time>2020-07-19T09:34:10.000Z</time>
      </trkpt>
      <trkpt lat="45.11731" lon="5.53466">
        <ele>950.4</ele>
        <time>2020-07-19T09:34:12.000Z</time>
      </trkpt>
      <trkpt lat="45.11735" lon="5.53468">
        <ele>950.2</ele>
        <time>2020-07-19T09:34:13.000Z</time>
      </trkpt>
      <trkpt lat="45.11742" lon="5.53475">
        <ele>949.8</ele>
        <time>2020-07-19T09:34:15.000Z</time>
      </trkpt>
      <trkpt lat="45.11749" lon="5.53484">
        <ele>949.6</ele>
        <time>2020-07-19T09:34:17.000Z</time>
      </trkpt>
      <trkpt lat="45.11754" lon="5.53493">
        <ele>949.4</ele>
        <time>2020-07-19T09:34:19.000Z</time>
      </trkpt>
      <trkpt lat="45.11763" lon="5.53506">
        <ele>949.2</ele>
        <time>2020-07-19T09:34:22.000Z</time>
      </trkpt>
      <trkpt lat="45.1177" lon="5.53515">
        <ele>949</ele>
        <time>2020-07-19T09:34:24.000Z</time>
      </trkpt>
      <trkpt lat="45.11773" lon="5.53519">
        <ele>949</ele>
        <time>2020-07-19T09:34:25.000Z</time>
      </trkpt>
      <trkpt lat="45.11781" lon="5.53534">
        <ele>948.8</ele>
        <time>2020-07-19T09:34:28.000Z</time>
      </trkpt>
      <trkpt lat="45.1179" lon="5.53547">
        <ele>948.6</ele>
        <time>2020-07-19T09:34:31.000Z</time>
      </trkpt>
      <trkpt lat="45.11811" lon="5.5358">
        <ele>948.4</ele>
        <time>2020-07-19T09:34:38.000Z</time>
      </trkpt>
      <trkpt lat="45.1182" lon="5.53593">
        <ele>948.2</ele>
        <time>2020-07-19T09:34:41.000Z</time>
      </trkpt>
      <trkpt lat="45.11829" lon="5.53606">
        <ele>948.2</ele>
        <time>2020-07-19T09:34:44.000Z</time>
      </trkpt>
      <trkpt lat="45.11835" lon="5.53614">
        <ele>948</ele>
        <time>2020-07-19T09:34:46.000Z</time>
      </trkpt>
      <trkpt lat="45.11843" lon="5.53627">
        <ele>948</ele>
        <time>2020-07-19T09:34:49.000Z</time>
      </trkpt>
      <trkpt lat="45.11851" lon="5.53639">
        <ele>948</ele>
        <time>2020-07-19T09:34:52.000Z</time>
      </trkpt>
      <trkpt lat="45.11856" lon="5.53648">
        <ele>948</ele>
        <time>2020-07-19T09:34:54.000Z</time>
      </trkpt>
      <trkpt lat="45.11865" lon="5.53659">
        <ele>948.2</ele>
        <time>2020-07-19T09:34:57.000Z</time>
      </trkpt>
      <trkpt lat="45.11868" lon="5.53663">
        <ele>948.2</ele>
        <time>2020-07-19T09:34:58.000Z</time>
      </trkpt>
      <trkpt lat="45.11876" lon="5.53671">
        <ele>948.4</ele>
        <time>2020-07-19T09:35:01.000Z</time>
      </trkpt>
      <trkpt lat="45.11885" lon="5.53679">
        <ele>948.6</ele>
        <time>2020-07-19T09:35:04.000Z</time>
      </trkpt>
      <trkpt lat="45.11893" lon="5.53687">
        <ele>948.6</ele>
        <time>2020-07-19T09:35:07.000Z</time>
      </trkpt>
      <trkpt lat="45.11902" lon="5.53694">
        <ele>948.8</ele>
        <time>2020-07-19T09:35:10.000Z</time>
      </trkpt>
      <trkpt lat="45.11909" lon="5.53704">
        <ele>948.8</ele>
        <time>2020-07-19T09:35:13.000Z</time>
      </trkpt>
      <trkpt lat="45.11914" lon="5.53709">
        <ele>949</ele>
        <time>2020-07-19T09:35:15.000Z</time>
      </trkpt>
      <trkpt lat="45.11921" lon="5.53719">
        <ele>949.4</ele>
        <time>2020-07-19T09:35:18.000Z</time>
      </trkpt>
      <trkpt lat="45.11928" lon="5.53726">
        <ele>949.8</ele>
        <time>2020-07-19T09:35:21.000Z</time>
      </trkpt>
      <trkpt lat="45.11939" lon="5.53738">
        <ele>968.2</ele>
        <time>2020-07-19T09:37:33.000Z</time>
      </trkpt>
      <trkpt lat="45.11949" lon="5.53744">
        <ele>967.2</ele>
        <time>2020-07-19T09:37:37.000Z</time>
      </trkpt>
      <trkpt lat="45.11957" lon="5.5375">
        <ele>966.6</ele>
        <time>2020-07-19T09:37:41.000Z</time>
      </trkpt>
      <trkpt lat="45.11964" lon="5.53757">
        <ele>966.2</ele>
        <time>2020-07-19T09:37:45.000Z</time>
      </trkpt>
      <trkpt lat="45.1197" lon="5.53764">
        <ele>966.4</ele>
        <time>2020-07-19T09:37:49.000Z</time>
      </trkpt>
      <trkpt lat="45.11973" lon="5.53768">
        <ele>966.6</ele>
        <time>2020-07-19T09:37:51.000Z</time>
      </trkpt>
      <trkpt lat="45.11979" lon="5.53773">
        <ele>967.4</ele>
        <time>2020-07-19T09:37:54.000Z</time>
      </trkpt>
      <trkpt lat="45.11985" lon="5.53779">
        <ele>968.2</ele>
        <time>2020-07-19T09:37:57.000Z</time>
      </trkpt>
      <trkpt lat="45.11992" lon="5.53782">
        <ele>968.6</ele>
        <time>2020-07-19T09:38:00.000Z</time>
      </trkpt>
      <trkpt lat="45.11999" lon="5.53786">
        <ele>968.8</ele>
        <time>2020-07-19T09:38:04.000Z</time>
      </trkpt>
      <trkpt lat="45.12001" lon="5.53787">
        <ele>969</ele>
        <time>2020-07-19T09:38:05.000Z</time>
      </trkpt>
      <trkpt lat="45.1201" lon="5.53792">
        <ele>969.6</ele>
        <time>2020-07-19T09:38:09.000Z</time>
      </trkpt>
      <trkpt lat="45.12019" lon="5.53796">
        <ele>969.8</ele>
        <time>2020-07-19T09:38:13.000Z</time>
      </trkpt>
      <trkpt lat="45.12021" lon="5.53798">
        <ele>970</ele>
        <time>2020-07-19T09:38:14.000Z</time>
      </trkpt>
      <trkpt lat="45.1203" lon="5.53802">
        <ele>970.2</ele>
        <time>2020-07-19T09:38:18.000Z</time>
      </trkpt>
      <trkpt lat="45.12041" lon="5.53806">
        <ele>970.4</ele>
        <time>2020-07-19T09:38:22.000Z</time>
      </trkpt>
      <trkpt lat="45.12049" lon="5.53808">
        <ele>970.8</ele>
        <time>2020-07-19T09:38:25.000Z</time>
      </trkpt>
      <trkpt lat="45.12058" lon="5.53809">
        <ele>970.8</ele>
        <time>2020-07-19T09:38:28.000Z</time>
      </trkpt>
      <trkpt lat="45.12066" lon="5.5381">
        <ele>971</ele>
        <time>2020-07-19T09:38:31.000Z</time>
      </trkpt>
      <trkpt lat="45.12074" lon="5.53811">
        <ele>971</ele>
        <time>2020-07-19T09:38:34.000Z</time>
      </trkpt>
      <trkpt lat="45.12094" lon="5.53811">
        <ele>971</ele>
        <time>2020-07-19T09:38:40.000Z</time>
      </trkpt>
      <trkpt lat="45.12105" lon="5.53812">
        <ele>971</ele>
        <time>2020-07-19T09:38:43.000Z</time>
      </trkpt>
      <trkpt lat="45.12119" lon="5.53814">
        <ele>971.2</ele>
        <time>2020-07-19T09:38:47.000Z</time>
      </trkpt>
      <trkpt lat="45.1213" lon="5.53817">
        <ele>971.2</ele>
        <time>2020-07-19T09:38:50.000Z</time>
      </trkpt>
      <trkpt lat="45.12146" lon="5.53821">
        <ele>971.4</ele>
        <time>2020-07-19T09:38:54.000Z</time>
      </trkpt>
      <trkpt lat="45.12158" lon="5.53824">
        <ele>971.6</ele>
        <time>2020-07-19T09:38:57.000Z</time>
      </trkpt>
      <trkpt lat="45.1217" lon="5.53825">
        <ele>971.6</ele>
        <time>2020-07-19T09:39:00.000Z</time>
      </trkpt>
      <trkpt lat="45.12182" lon="5.53826">
        <ele>971.6</ele>
        <time>2020-07-19T09:39:03.000Z</time>
      </trkpt>
      <trkpt lat="45.1219" lon="5.53827">
        <ele>971.8</ele>
        <time>2020-07-19T09:39:05.000Z</time>
      </trkpt>
      <trkpt lat="45.12203" lon="5.53827">
        <ele>971.8</ele>
        <time>2020-07-19T09:39:08.000Z</time>
      </trkpt>
      <trkpt lat="45.12215" lon="5.53828">
        <ele>971.8</ele>
        <time>2020-07-19T09:39:11.000Z</time>
      </trkpt>
      <trkpt lat="45.12233" lon="5.5383">
        <ele>971.8</ele>
        <time>2020-07-19T09:39:15.000Z</time>
      </trkpt>
      <trkpt lat="45.12246" lon="5.53832">
        <ele>972</ele>
        <time>2020-07-19T09:39:18.000Z</time>
      </trkpt>
      <trkpt lat="45.1225" lon="5.53833">
        <ele>972</ele>
        <time>2020-07-19T09:39:19.000Z</time>
      </trkpt>
      <trkpt lat="45.12262" lon="5.53839">
        <ele>972.2</ele>
        <time>2020-07-19T09:39:22.000Z</time>
      </trkpt>
      <trkpt lat="45.1227" lon="5.53843">
        <ele>972.6</ele>
        <time>2020-07-19T09:39:24.000Z</time>
      </trkpt>
      <trkpt lat="45.12273" lon="5.53846">
        <ele>972.6</ele>
        <time>2020-07-19T09:39:25.000Z</time>
      </trkpt>
      <trkpt lat="45.12286" lon="5.53857">
        <ele>973.2</ele>
        <time>2020-07-19T09:39:29.000Z</time>
      </trkpt>
      <trkpt lat="45.12294" lon="5.53863">
        <ele>973.8</ele>
        <time>2020-07-19T09:39:32.000Z</time>
      </trkpt>
      <trkpt lat="45.123" lon="5.53867">
        <ele>974.4</ele>
        <time>2020-07-19T09:39:34.000Z</time>
      </trkpt>
      <trkpt lat="45.12305" lon="5.53869">
        <ele>974.8</ele>
        <time>2020-07-19T09:39:36.000Z</time>
      </trkpt>
      <trkpt lat="45.12316" lon="5.53872">
        <ele>975.6</ele>
        <time>2020-07-19T09:39:40.000Z</time>
      </trkpt>
      <trkpt lat="45.12321" lon="5.53872">
        <ele>976</ele>
        <time>2020-07-19T09:39:42.000Z</time>
      </trkpt>
      <trkpt lat="45.12331" lon="5.53871">
        <ele>976.6</ele>
        <time>2020-07-19T09:39:46.000Z</time>
      </trkpt>
      <trkpt lat="45.12341" lon="5.53868">
        <ele>977</ele>
        <time>2020-07-19T09:39:50.000Z</time>
      </trkpt>
      <trkpt lat="45.12363" lon="5.53861">
        <ele>977.4</ele>
        <time>2020-07-19T09:39:58.000Z</time>
      </trkpt>
      <trkpt lat="45.12373" lon="5.53858">
        <ele>977.6</ele>
        <time>2020-07-19T09:40:01.000Z</time>
      </trkpt>
      <trkpt lat="45.12382" lon="5.53856">
        <ele>977.6</ele>
        <time>2020-07-19T09:40:04.000Z</time>
      </trkpt>
      <trkpt lat="45.12391" lon="5.53853">
        <ele>977.8</ele>
        <time>2020-07-19T09:40:07.000Z</time>
      </trkpt>
      <trkpt lat="45.12415" lon="5.53847">
        <ele>978.2</ele>
        <time>2020-07-19T09:40:14.000Z</time>
      </trkpt>
      <trkpt lat="45.12418" lon="5.53846">
        <ele>978.2</ele>
        <time>2020-07-19T09:40:15.000Z</time>
      </trkpt>
      <trkpt lat="45.12431" lon="5.53843">
        <ele>978.6</ele>
        <time>2020-07-19T09:40:19.000Z</time>
      </trkpt>
      <trkpt lat="45.12444" lon="5.53841">
        <ele>979</ele>
        <time>2020-07-19T09:40:23.000Z</time>
      </trkpt>
      <trkpt lat="45.12458" lon="5.53839">
        <ele>979.2</ele>
        <time>2020-07-19T09:40:27.000Z</time>
      </trkpt>
      <trkpt lat="45.12469" lon="5.53838">
        <ele>979.4</ele>
        <time>2020-07-19T09:40:30.000Z</time>
      </trkpt>
      <trkpt lat="45.12485" lon="5.53839">
        <ele>980.4</ele>
        <time>2020-07-19T09:40:34.000Z</time>
      </trkpt>
      <trkpt lat="45.12493" lon="5.53839">
        <ele>980.6</ele>
        <time>2020-07-19T09:40:36.000Z</time>
      </trkpt>
      <trkpt lat="45.12509" lon="5.53839">
        <ele>981</ele>
        <time>2020-07-19T09:40:40.000Z</time>
      </trkpt>
      <trkpt lat="45.12518" lon="5.53839">
        <ele>981</ele>
        <time>2020-07-19T09:40:42.000Z</time>
      </trkpt>
      <trkpt lat="45.12537" lon="5.5384">
        <ele>981</ele>
        <time>2020-07-19T09:40:46.000Z</time>
      </trkpt>
      <trkpt lat="45.12548" lon="5.53838">
        <ele>981</ele>
        <time>2020-07-19T09:40:49.000Z</time>
      </trkpt>
      <trkpt lat="45.12561" lon="5.53837">
        <ele>981.2</ele>
        <time>2020-07-19T09:40:52.000Z</time>
      </trkpt>
      <trkpt lat="45.12574" lon="5.53834">
        <ele>981.2</ele>
        <time>2020-07-19T09:40:55.000Z</time>
      </trkpt>
      <trkpt lat="45.12582" lon="5.53831">
        <ele>981.2</ele>
        <time>2020-07-19T09:40:57.000Z</time>
      </trkpt>
      <trkpt lat="45.12595" lon="5.53825">
        <ele>981.4</ele>
        <time>2020-07-19T09:41:00.000Z</time>
      </trkpt>
      <trkpt lat="45.12607" lon="5.53817">
        <ele>981.8</ele>
        <time>2020-07-19T09:41:03.000Z</time>
      </trkpt>
      <trkpt lat="45.12621" lon="5.53807">
        <ele>982.4</ele>
        <time>2020-07-19T09:41:07.000Z</time>
      </trkpt>
      <trkpt lat="45.12631" lon="5.53799">
        <ele>983</ele>
        <time>2020-07-19T09:41:10.000Z</time>
      </trkpt>
      <trkpt lat="45.12642" lon="5.53792">
        <ele>983.2</ele>
        <time>2020-07-19T09:41:13.000Z</time>
      </trkpt>
      <trkpt lat="45.12656" lon="5.53784">
        <ele>983.6</ele>
        <time>2020-07-19T09:41:17.000Z</time>
      </trkpt>
      <trkpt lat="45.12663" lon="5.5378">
        <ele>983.6</ele>
        <time>2020-07-19T09:41:19.000Z</time>
      </trkpt>
      <trkpt lat="45.12674" lon="5.53772">
        <ele>983.8</ele>
        <time>2020-07-19T09:41:22.000Z</time>
      </trkpt>
      <trkpt lat="45.12678" lon="5.5377">
        <ele>984</ele>
        <time>2020-07-19T09:41:23.000Z</time>
      </trkpt>
      <trkpt lat="45.1269" lon="5.53765">
        <ele>984.4</ele>
        <time>2020-07-19T09:41:26.000Z</time>
      </trkpt>
      <trkpt lat="45.12705" lon="5.53756">
        <ele>984.8</ele>
        <time>2020-07-19T09:41:30.000Z</time>
      </trkpt>
      <trkpt lat="45.12715" lon="5.5375">
        <ele>985.2</ele>
        <time>2020-07-19T09:41:33.000Z</time>
      </trkpt>
      <trkpt lat="45.12729" lon="5.53744">
        <ele>985.8</ele>
        <time>2020-07-19T09:41:37.000Z</time>
      </trkpt>
      <trkpt lat="45.12736" lon="5.53742">
        <ele>986.2</ele>
        <time>2020-07-19T09:41:39.000Z</time>
      </trkpt>
      <trkpt lat="45.12743" lon="5.53741">
        <ele>986.6</ele>
        <time>2020-07-19T09:41:41.000Z</time>
      </trkpt>
      <trkpt lat="45.12754" lon="5.53739">
        <ele>987.6</ele>
        <time>2020-07-19T09:41:45.000Z</time>
      </trkpt>
      <trkpt lat="45.12761" lon="5.5374">
        <ele>988</ele>
        <time>2020-07-19T09:41:48.000Z</time>
      </trkpt>
      <trkpt lat="45.12768" lon="5.53739">
        <ele>988.4</ele>
        <time>2020-07-19T09:41:51.000Z</time>
      </trkpt>
      <trkpt lat="45.12775" lon="5.5374">
        <ele>988.8</ele>
        <time>2020-07-19T09:41:54.000Z</time>
      </trkpt>
      <trkpt lat="45.1278" lon="5.53739">
        <ele>989</ele>
        <time>2020-07-19T09:41:56.000Z</time>
      </trkpt>
      <trkpt lat="45.1279" lon="5.53736">
        <ele>989.4</ele>
        <time>2020-07-19T09:42:00.000Z</time>
      </trkpt>
      <trkpt lat="45.12797" lon="5.53734">
        <ele>989.4</ele>
        <time>2020-07-19T09:42:03.000Z</time>
      </trkpt>
      <trkpt lat="45.12802" lon="5.53733">
        <ele>989.6</ele>
        <time>2020-07-19T09:42:05.000Z</time>
      </trkpt>
      <trkpt lat="45.1281" lon="5.53734">
        <ele>989.8</ele>
        <time>2020-07-19T09:42:08.000Z</time>
      </trkpt>
      <trkpt lat="45.12818" lon="5.53735">
        <ele>990.2</ele>
        <time>2020-07-19T09:42:11.000Z</time>
      </trkpt>
      <trkpt lat="45.12821" lon="5.53735">
        <ele>990.4</ele>
        <time>2020-07-19T09:42:12.000Z</time>
      </trkpt>
      <trkpt lat="45.12833" lon="5.53738">
        <ele>991.2</ele>
        <time>2020-07-19T09:42:16.000Z</time>
      </trkpt>
      <trkpt lat="45.12836" lon="5.53739">
        <ele>991.4</ele>
        <time>2020-07-19T09:42:17.000Z</time>
      </trkpt>
      <trkpt lat="45.12845" lon="5.53742">
        <ele>992</ele>
        <time>2020-07-19T09:42:20.000Z</time>
      </trkpt>
      <trkpt lat="45.12857" lon="5.53748">
        <ele>993.2</ele>
        <time>2020-07-19T09:42:24.000Z</time>
      </trkpt>
      <trkpt lat="45.1286" lon="5.53749">
        <ele>993.6</ele>
        <time>2020-07-19T09:42:25.000Z</time>
      </trkpt>
      <trkpt lat="45.12871" lon="5.53754">
        <ele>994.6</ele>
        <time>2020-07-19T09:42:29.000Z</time>
      </trkpt>
      <trkpt lat="45.12882" lon="5.5376">
        <ele>995.8</ele>
        <time>2020-07-19T09:42:33.000Z</time>
      </trkpt>
      <trkpt lat="45.1289" lon="5.53765">
        <ele>996.8</ele>
        <time>2020-07-19T09:42:36.000Z</time>
      </trkpt>
      <trkpt lat="45.12898" lon="5.5377">
        <ele>997.6</ele>
        <time>2020-07-19T09:42:39.000Z</time>
      </trkpt>
      <trkpt lat="45.12903" lon="5.53773">
        <ele>998.2</ele>
        <time>2020-07-19T09:42:41.000Z</time>
      </trkpt>
      <trkpt lat="45.12909" lon="5.53777">
        <ele>998.6</ele>
        <time>2020-07-19T09:42:43.000Z</time>
      </trkpt>
      <trkpt lat="45.1292" lon="5.53783">
        <ele>999.4</ele>
        <time>2020-07-19T09:42:47.000Z</time>
      </trkpt>
      <trkpt lat="45.12922" lon="5.53784">
        <ele>999.8</ele>
        <time>2020-07-19T09:42:48.000Z</time>
      </trkpt>
      <trkpt lat="45.12932" lon="5.53791">
        <ele>1000.4</ele>
        <time>2020-07-19T09:42:52.000Z</time>
      </trkpt>
      <trkpt lat="45.12938" lon="5.53794">
        <ele>1000.8</ele>
        <time>2020-07-19T09:42:54.000Z</time>
      </trkpt>
      <trkpt lat="45.12942" lon="5.53797">
        <ele>1001</ele>
        <time>2020-07-19T09:42:56.000Z</time>
      </trkpt>
      <trkpt lat="45.12949" lon="5.53802">
        <ele>1001.6</ele>
        <time>2020-07-19T09:42:59.000Z</time>
      </trkpt>
      <trkpt lat="45.12959" lon="5.53806">
        <ele>1002.4</ele>
        <time>2020-07-19T09:43:03.000Z</time>
      </trkpt>
      <trkpt lat="45.12967" lon="5.5381">
        <ele>1003.2</ele>
        <time>2020-07-19T09:43:07.000Z</time>
      </trkpt>
      <trkpt lat="45.12976" lon="5.53814">
        <ele>1004</ele>
        <time>2020-07-19T09:43:11.000Z</time>
      </trkpt>
      <trkpt lat="45.12978" lon="5.53815">
        <ele>1004.2</ele>
        <time>2020-07-19T09:43:12.000Z</time>
      </trkpt>
      <trkpt lat="45.12986" lon="5.5382">
        <ele>1005</ele>
        <time>2020-07-19T09:43:16.000Z</time>
      </trkpt>
      <trkpt lat="45.12993" lon="5.53824">
        <ele>1006</ele>
        <time>2020-07-19T09:43:20.000Z</time>
      </trkpt>
      <trkpt lat="45.13" lon="5.53829">
        <ele>1007.2</ele>
        <time>2020-07-19T09:43:24.000Z</time>
      </trkpt>
      <trkpt lat="45.13009" lon="5.53835">
        <ele>1008.6</ele>
        <time>2020-07-19T09:43:29.000Z</time>
      </trkpt>
      <trkpt lat="45.13012" lon="5.53837">
        <ele>1009.2</ele>
        <time>2020-07-19T09:43:31.000Z</time>
      </trkpt>
      <trkpt lat="45.13019" lon="5.53842">
        <ele>1010.4</ele>
        <time>2020-07-19T09:43:35.000Z</time>
      </trkpt>
      <trkpt lat="45.13026" lon="5.53847">
        <ele>1011.4</ele>
        <time>2020-07-19T09:43:39.000Z</time>
      </trkpt>
      <trkpt lat="45.1303" lon="5.53849">
        <ele>1012</ele>
        <time>2020-07-19T09:43:41.000Z</time>
      </trkpt>
      <trkpt lat="45.13037" lon="5.53855">
        <ele>1012.6</ele>
        <time>2020-07-19T09:43:45.000Z</time>
      </trkpt>
      <trkpt lat="45.13041" lon="5.53857">
        <ele>1013.2</ele>
        <time>2020-07-19T09:43:47.000Z</time>
      </trkpt>
      <trkpt lat="45.13049" lon="5.53863">
        <ele>1014.2</ele>
        <time>2020-07-19T09:43:52.000Z</time>
      </trkpt>
      <trkpt lat="45.13057" lon="5.53866">
        <ele>1015</ele>
        <time>2020-07-19T09:43:56.000Z</time>
      </trkpt>
      <trkpt lat="45.1306" lon="5.53868">
        <ele>1015.2</ele>
        <time>2020-07-19T09:43:58.000Z</time>
      </trkpt>
      <trkpt lat="45.13068" lon="5.53871">
        <ele>1015.8</ele>
        <time>2020-07-19T09:44:02.000Z</time>
      </trkpt>
      <trkpt lat="45.13078" lon="5.53872">
        <ele>1016.2</ele>
        <time>2020-07-19T09:44:07.000Z</time>
      </trkpt>
      <trkpt lat="45.13084" lon="5.53873">
        <ele>1016.2</ele>
        <time>2020-07-19T09:44:10.000Z</time>
      </trkpt>
      <trkpt lat="45.13092" lon="5.53874">
        <ele>1016.4</ele>
        <time>2020-07-19T09:44:14.000Z</time>
      </trkpt>
      <trkpt lat="45.13102" lon="5.53874">
        <ele>1016.4</ele>
        <time>2020-07-19T09:44:19.000Z</time>
      </trkpt>
      <trkpt lat="45.13121" lon="5.53872">
        <ele>1016.4</ele>
        <time>2020-07-19T09:44:29.000Z</time>
      </trkpt>
      <trkpt lat="45.1313" lon="5.53871">
        <ele>1016.2</ele>
        <time>2020-07-19T09:44:33.000Z</time>
      </trkpt>
      <trkpt lat="45.13138" lon="5.53872">
        <ele>1015.8</ele>
        <time>2020-07-19T09:44:36.000Z</time>
      </trkpt>
      <trkpt lat="45.13142" lon="5.53876">
        <ele>1015.6</ele>
        <time>2020-07-19T09:44:38.000Z</time>
      </trkpt>
      <trkpt lat="45.13144" lon="5.53885">
        <ele>1015.4</ele>
        <time>2020-07-19T09:44:40.000Z</time>
      </trkpt>
      <trkpt lat="45.13144" lon="5.53897">
        <ele>1015.2</ele>
        <time>2020-07-19T09:44:42.000Z</time>
      </trkpt>
      <trkpt lat="45.13146" lon="5.53927">
        <ele>1015</ele>
        <time>2020-07-19T09:44:46.000Z</time>
      </trkpt>
      <trkpt lat="45.13148" lon="5.53946">
        <ele>1015</ele>
        <time>2020-07-19T09:44:48.000Z</time>
      </trkpt>
      <trkpt lat="45.13149" lon="5.53956">
        <ele>1014.8</ele>
        <time>2020-07-19T09:44:49.000Z</time>
      </trkpt>
      <trkpt lat="45.13154" lon="5.53989">
        <ele>1014.6</ele>
        <time>2020-07-19T09:44:52.000Z</time>
      </trkpt>
      <trkpt lat="45.13155" lon="5.54001">
        <ele>1014.4</ele>
        <time>2020-07-19T09:44:53.000Z</time>
      </trkpt>
      <trkpt lat="45.13157" lon="5.54013">
        <ele>1014.4</ele>
        <time>2020-07-19T09:44:54.000Z</time>
      </trkpt>
      <trkpt lat="45.13163" lon="5.54036">
        <ele>1014.4</ele>
        <time>2020-07-19T09:44:56.000Z</time>
      </trkpt>
      <trkpt lat="45.1318" lon="5.54085">
        <ele>1014.6</ele>
        <time>2020-07-19T09:45:00.000Z</time>
      </trkpt>
      <trkpt lat="45.13185" lon="5.54096">
        <ele>1014.6</ele>
        <time>2020-07-19T09:45:01.000Z</time>
      </trkpt>
      <trkpt lat="45.13198" lon="5.54126">
        <ele>1015.2</ele>
        <time>2020-07-19T09:45:04.000Z</time>
      </trkpt>
      <trkpt lat="45.13213" lon="5.54164">
        <ele>1016</ele>
        <time>2020-07-19T09:45:08.000Z</time>
      </trkpt>
      <trkpt lat="45.13226" lon="5.54192">
        <ele>1017</ele>
        <time>2020-07-19T09:45:12.000Z</time>
      </trkpt>
      <trkpt lat="45.13234" lon="5.54208">
        <ele>1017.4</ele>
        <time>2020-07-19T09:45:15.000Z</time>
      </trkpt>
      <trkpt lat="45.13237" lon="5.54213">
        <ele>1017.6</ele>
        <time>2020-07-19T09:45:16.000Z</time>
      </trkpt>
      <trkpt lat="45.13243" lon="5.54221">
        <ele>1018</ele>
        <time>2020-07-19T09:45:18.000Z</time>
      </trkpt>
      <trkpt lat="45.13256" lon="5.54231">
        <ele>1018.2</ele>
        <time>2020-07-19T09:45:21.000Z</time>
      </trkpt>
      <trkpt lat="45.13265" lon="5.54235">
        <ele>1018.2</ele>
        <time>2020-07-19T09:45:23.000Z</time>
      </trkpt>
      <trkpt lat="45.13269" lon="5.54236">
        <ele>1018.2</ele>
        <time>2020-07-19T09:45:24.000Z</time>
      </trkpt>
      <trkpt lat="45.13284" lon="5.54238">
        <ele>1017.8</ele>
        <time>2020-07-19T09:45:27.000Z</time>
      </trkpt>
      <trkpt lat="45.13295" lon="5.54238">
        <ele>1018</ele>
        <time>2020-07-19T09:45:29.000Z</time>
      </trkpt>
      <trkpt lat="45.13305" lon="5.54237">
        <ele>1017.8</ele>
        <time>2020-07-19T09:45:31.000Z</time>
      </trkpt>
      <trkpt lat="45.13319" lon="5.54236">
        <ele>1017.6</ele>
        <time>2020-07-19T09:45:34.000Z</time>
      </trkpt>
      <trkpt lat="45.13335" lon="5.54236">
        <ele>1017.2</ele>
        <time>2020-07-19T09:45:37.000Z</time>
      </trkpt>
      <trkpt lat="45.1335" lon="5.54236">
        <ele>1017</ele>
        <time>2020-07-19T09:45:40.000Z</time>
      </trkpt>
      <trkpt lat="45.13363" lon="5.54239">
        <ele>1016.8</ele>
        <time>2020-07-19T09:45:43.000Z</time>
      </trkpt>
      <trkpt lat="45.13381" lon="5.54244">
        <ele>1016.8</ele>
        <time>2020-07-19T09:45:47.000Z</time>
      </trkpt>
      <trkpt lat="45.13394" lon="5.54249">
        <ele>1016.6</ele>
        <time>2020-07-19T09:45:50.000Z</time>
      </trkpt>
      <trkpt lat="45.13403" lon="5.54251">
        <ele>1016.8</ele>
        <time>2020-07-19T09:45:52.000Z</time>
      </trkpt>
      <trkpt lat="45.13415" lon="5.54256">
        <ele>1016.6</ele>
        <time>2020-07-19T09:45:55.000Z</time>
      </trkpt>
      <trkpt lat="45.13423" lon="5.5426">
        <ele>1016.6</ele>
        <time>2020-07-19T09:45:57.000Z</time>
      </trkpt>
      <trkpt lat="45.13435" lon="5.54266">
        <ele>1016.6</ele>
        <time>2020-07-19T09:46:00.000Z</time>
      </trkpt>
      <trkpt lat="45.13443" lon="5.54272">
        <ele>1016.6</ele>
        <time>2020-07-19T09:46:02.000Z</time>
      </trkpt>
      <trkpt lat="45.13451" lon="5.54279">
        <ele>1016.6</ele>
        <time>2020-07-19T09:46:04.000Z</time>
      </trkpt>
      <trkpt lat="45.13461" lon="5.54288">
        <ele>1016.8</ele>
        <time>2020-07-19T09:46:07.000Z</time>
      </trkpt>
      <trkpt lat="45.13468" lon="5.54295">
        <ele>1017</ele>
        <time>2020-07-19T09:46:09.000Z</time>
      </trkpt>
      <trkpt lat="45.13479" lon="5.54304">
        <ele>1017.2</ele>
        <time>2020-07-19T09:46:12.000Z</time>
      </trkpt>
      <trkpt lat="45.13487" lon="5.54309">
        <ele>1017.4</ele>
        <time>2020-07-19T09:46:14.000Z</time>
      </trkpt>
      <trkpt lat="45.13494" lon="5.54312">
        <ele>1017.4</ele>
        <time>2020-07-19T09:46:16.000Z</time>
      </trkpt>
      <trkpt lat="45.13502" lon="5.54313">
        <ele>1017.4</ele>
        <time>2020-07-19T09:46:18.000Z</time>
      </trkpt>
      <trkpt lat="45.13506" lon="5.54313">
        <ele>1017.6</ele>
        <time>2020-07-19T09:46:19.000Z</time>
      </trkpt>
      <trkpt lat="45.13514" lon="5.54311">
        <ele>1017.4</ele>
        <time>2020-07-19T09:46:21.000Z</time>
      </trkpt>
      <trkpt lat="45.13527" lon="5.5431">
        <ele>1017.4</ele>
        <time>2020-07-19T09:46:24.000Z</time>
      </trkpt>
      <trkpt lat="45.13532" lon="5.5431">
        <ele>1017.4</ele>
        <time>2020-07-19T09:46:25.000Z</time>
      </trkpt>
      <trkpt lat="45.1354" lon="5.54313">
        <ele>1017.2</ele>
        <time>2020-07-19T09:46:27.000Z</time>
      </trkpt>
      <trkpt lat="45.13548" lon="5.54317">
        <ele>1017.4</ele>
        <time>2020-07-19T09:46:29.000Z</time>
      </trkpt>
      <trkpt lat="45.13552" lon="5.5432">
        <ele>1017.4</ele>
        <time>2020-07-19T09:46:30.000Z</time>
      </trkpt>
      <trkpt lat="45.13574" lon="5.5434">
        <ele>1017.6</ele>
        <time>2020-07-19T09:46:36.000Z</time>
      </trkpt>
      <trkpt lat="45.13578" lon="5.54343">
        <ele>1017.6</ele>
        <time>2020-07-19T09:46:37.000Z</time>
      </trkpt>
      <trkpt lat="45.13585" lon="5.54349">
        <ele>1017.8</ele>
        <time>2020-07-19T09:46:39.000Z</time>
      </trkpt>
      <trkpt lat="45.13596" lon="5.54359">
        <ele>1018</ele>
        <time>2020-07-19T09:46:42.000Z</time>
      </trkpt>
      <trkpt lat="45.13607" lon="5.54369">
        <ele>1018.6</ele>
        <time>2020-07-19T09:46:45.000Z</time>
      </trkpt>
      <trkpt lat="45.13617" lon="5.5438">
        <ele>1019.8</ele>
        <time>2020-07-19T09:46:48.000Z</time>
      </trkpt>
      <trkpt lat="45.13631" lon="5.54393">
        <ele>1020.6</ele>
        <time>2020-07-19T09:46:52.000Z</time>
      </trkpt>
      <trkpt lat="45.13638" lon="5.544">
        <ele>1021</ele>
        <time>2020-07-19T09:46:54.000Z</time>
      </trkpt>
      <trkpt lat="45.13648" lon="5.5441">
        <ele>1021.4</ele>
        <time>2020-07-19T09:46:57.000Z</time>
      </trkpt>
      <trkpt lat="45.13659" lon="5.54419">
        <ele>1021.8</ele>
        <time>2020-07-19T09:47:00.000Z</time>
      </trkpt>
      <trkpt lat="45.13662" lon="5.54422">
        <ele>1022</ele>
        <time>2020-07-19T09:47:01.000Z</time>
      </trkpt>
      <trkpt lat="45.13676" lon="5.54435">
        <ele>1022.6</ele>
        <time>2020-07-19T09:47:05.000Z</time>
      </trkpt>
      <trkpt lat="45.13687" lon="5.54443">
        <ele>1022.8</ele>
        <time>2020-07-19T09:47:08.000Z</time>
      </trkpt>
      <trkpt lat="45.13699" lon="5.54449">
        <ele>1022.8</ele>
        <time>2020-07-19T09:47:11.000Z</time>
      </trkpt>
      <trkpt lat="45.13707" lon="5.54452">
        <ele>1022.8</ele>
        <time>2020-07-19T09:47:13.000Z</time>
      </trkpt>
      <trkpt lat="45.1372" lon="5.54454">
        <ele>1023.2</ele>
        <time>2020-07-19T09:47:16.000Z</time>
      </trkpt>
      <trkpt lat="45.13733" lon="5.54456">
        <ele>1023.6</ele>
        <time>2020-07-19T09:47:19.000Z</time>
      </trkpt>
      <trkpt lat="45.13742" lon="5.54459">
        <ele>1023.8</ele>
        <time>2020-07-19T09:47:21.000Z</time>
      </trkpt>
      <trkpt lat="45.13756" lon="5.54468">
        <ele>1024.4</ele>
        <time>2020-07-19T09:47:25.000Z</time>
      </trkpt>
      <trkpt lat="45.13766" lon="5.54475">
        <ele>1024.8</ele>
        <time>2020-07-19T09:47:28.000Z</time>
      </trkpt>
      <trkpt lat="45.13779" lon="5.54483">
        <ele>1025.2</ele>
        <time>2020-07-19T09:47:32.000Z</time>
      </trkpt>
      <trkpt lat="45.13786" lon="5.54486">
        <ele>1025.4</ele>
        <time>2020-07-19T09:47:34.000Z</time>
      </trkpt>
      <trkpt lat="45.13796" lon="5.54488">
        <ele>1025.6</ele>
        <time>2020-07-19T09:47:37.000Z</time>
      </trkpt>
      <trkpt lat="45.13801" lon="5.5449">
        <ele>1025.8</ele>
        <time>2020-07-19T09:47:39.000Z</time>
      </trkpt>
      <trkpt lat="45.1381" lon="5.5449">
        <ele>1026</ele>
        <time>2020-07-19T09:47:42.000Z</time>
      </trkpt>
      <trkpt lat="45.13824" lon="5.54492">
        <ele>1026.2</ele>
        <time>2020-07-19T09:47:46.000Z</time>
      </trkpt>
      <trkpt lat="45.13838" lon="5.54492">
        <ele>1026.4</ele>
        <time>2020-07-19T09:47:50.000Z</time>
      </trkpt>
      <trkpt lat="45.13844" lon="5.54493">
        <ele>1026.4</ele>
        <time>2020-07-19T09:47:52.000Z</time>
      </trkpt>
      <trkpt lat="45.13857" lon="5.54493">
        <ele>1026.6</ele>
        <time>2020-07-19T09:47:56.000Z</time>
      </trkpt>
      <trkpt lat="45.13864" lon="5.54494">
        <ele>1026.6</ele>
        <time>2020-07-19T09:47:58.000Z</time>
      </trkpt>
      <trkpt lat="45.13875" lon="5.54495">
        <ele>1026.8</ele>
        <time>2020-07-19T09:48:02.000Z</time>
      </trkpt>
      <trkpt lat="45.13879" lon="5.54494">
        <ele>1026.8</ele>
        <time>2020-07-19T09:48:04.000Z</time>
      </trkpt>
      <trkpt lat="45.13886" lon="5.54495">
        <ele>1027</ele>
        <time>2020-07-19T09:48:08.000Z</time>
      </trkpt>
      <trkpt lat="45.13893" lon="5.54495">
        <ele>1027.4</ele>
        <time>2020-07-19T09:48:12.000Z</time>
      </trkpt>
      <trkpt lat="45.13903" lon="5.54496">
        <ele>1028.6</ele>
        <time>2020-07-19T09:48:16.000Z</time>
      </trkpt>
      <trkpt lat="45.13911" lon="5.54498">
        <ele>1029.4</ele>
        <time>2020-07-19T09:48:19.000Z</time>
      </trkpt>
      <trkpt lat="45.13919" lon="5.54498">
        <ele>1029.8</ele>
        <time>2020-07-19T09:48:22.000Z</time>
      </trkpt>
      <trkpt lat="45.13929" lon="5.54499">
        <ele>1030.6</ele>
        <time>2020-07-19T09:48:26.000Z</time>
      </trkpt>
      <trkpt lat="45.13937" lon="5.54502">
        <ele>1031.2</ele>
        <time>2020-07-19T09:48:29.000Z</time>
      </trkpt>
      <trkpt lat="45.13948" lon="5.54547">
        <ele>1035</ele>
        <time>2020-07-19T09:48:41.000Z</time>
      </trkpt>
      <trkpt lat="45.13952" lon="5.54562">
        <ele>1036.6</ele>
        <time>2020-07-19T09:48:45.000Z</time>
      </trkpt>
      <trkpt lat="45.1396" lon="5.54588">
        <ele>1038.6</ele>
        <time>2020-07-19T09:48:53.000Z</time>
      </trkpt>
      <trkpt lat="45.13964" lon="5.54601">
        <ele>1039.4</ele>
        <time>2020-07-19T09:48:57.000Z</time>
      </trkpt>
      <trkpt lat="45.13965" lon="5.54609">
        <ele>1039.8</ele>
        <time>2020-07-19T09:48:59.000Z</time>
      </trkpt>
      <trkpt lat="45.13963" lon="5.54616">
        <ele>1040.2</ele>
        <time>2020-07-19T09:49:01.000Z</time>
      </trkpt>
      <trkpt lat="45.13958" lon="5.54629">
        <ele>1041.6</ele>
        <time>2020-07-19T09:49:05.000Z</time>
      </trkpt>
      <trkpt lat="45.13954" lon="5.54638">
        <ele>1042.6</ele>
        <time>2020-07-19T09:49:08.000Z</time>
      </trkpt>
      <trkpt lat="45.1395" lon="5.54648">
        <ele>1044</ele>
        <time>2020-07-19T09:49:12.000Z</time>
      </trkpt>
      <trkpt lat="45.13948" lon="5.54654">
        <ele>1045.2</ele>
        <time>2020-07-19T09:49:15.000Z</time>
      </trkpt>
      <trkpt lat="45.13946" lon="5.5466">
        <ele>1070.8</ele>
        <time>2020-07-19T09:51:09.000Z</time>
      </trkpt>
      <trkpt lat="45.13942" lon="5.54667">
        <ele>1071</ele>
        <time>2020-07-19T09:51:13.000Z</time>
      </trkpt>
      <trkpt lat="45.13939" lon="5.54677">
        <ele>1070.8</ele>
        <time>2020-07-19T09:51:18.000Z</time>
      </trkpt>
      <trkpt lat="45.13937" lon="5.54688">
        <ele>1070</ele>
        <time>2020-07-19T09:51:23.000Z</time>
      </trkpt>
      <trkpt lat="45.13932" lon="5.54699">
        <ele>1070</ele>
        <time>2020-07-19T09:51:28.000Z</time>
      </trkpt>
      <trkpt lat="45.13927" lon="5.54708">
        <ele>1070</ele>
        <time>2020-07-19T09:51:33.000Z</time>
      </trkpt>
      <trkpt lat="45.13921" lon="5.54715">
        <ele>1070</ele>
        <time>2020-07-19T09:51:38.000Z</time>
      </trkpt>
      <trkpt lat="45.13915" lon="5.54721">
        <ele>1070.2</ele>
        <time>2020-07-19T09:51:43.000Z</time>
      </trkpt>
      <trkpt lat="45.13913" lon="5.54725">
        <ele>1070.2</ele>
        <time>2020-07-19T09:51:45.000Z</time>
      </trkpt>
      <trkpt lat="45.13906" lon="5.54731">
        <ele>1070.2</ele>
        <time>2020-07-19T09:51:50.000Z</time>
      </trkpt>
      <trkpt lat="45.13898" lon="5.54739">
        <ele>1070</ele>
        <time>2020-07-19T09:51:55.000Z</time>
      </trkpt>
      <trkpt lat="45.1389" lon="5.54745">
        <ele>1069.6</ele>
        <time>2020-07-19T09:52:00.000Z</time>
      </trkpt>
      <trkpt lat="45.13883" lon="5.54749">
        <ele>1069.4</ele>
        <time>2020-07-19T09:52:04.000Z</time>
      </trkpt>
      <trkpt lat="45.13876" lon="5.54752">
        <ele>1069.4</ele>
        <time>2020-07-19T09:52:09.000Z</time>
      </trkpt>
      <trkpt lat="45.13866" lon="5.54754">
        <ele>1069.4</ele>
        <time>2020-07-19T09:52:15.000Z</time>
      </trkpt>
      <trkpt lat="45.13856" lon="5.54756">
        <ele>1069.4</ele>
        <time>2020-07-19T09:52:21.000Z</time>
      </trkpt>
      <trkpt lat="45.13849" lon="5.54757">
        <ele>1069</ele>
        <time>2020-07-19T09:52:25.000Z</time>
      </trkpt>
      <trkpt lat="45.13844" lon="5.54758">
        <ele>1069</ele>
        <time>2020-07-19T09:52:28.000Z</time>
      </trkpt>
      <trkpt lat="45.13838" lon="5.5476">
        <ele>1068.8</ele>
        <time>2020-07-19T09:52:32.000Z</time>
      </trkpt>
      <trkpt lat="45.1383" lon="5.54763">
        <ele>1068.6</ele>
        <time>2020-07-19T09:52:37.000Z</time>
      </trkpt>
      <trkpt lat="45.13823" lon="5.54767">
        <ele>1068.4</ele>
        <time>2020-07-19T09:52:42.000Z</time>
      </trkpt>
      <trkpt lat="45.13816" lon="5.54769">
        <ele>1068.4</ele>
        <time>2020-07-19T09:52:46.000Z</time>
      </trkpt>
      <trkpt lat="45.13807" lon="5.54771">
        <ele>1068.4</ele>
        <time>2020-07-19T09:52:52.000Z</time>
      </trkpt>
      <trkpt lat="45.13801" lon="5.54773">
        <ele>1068.6</ele>
        <time>2020-07-19T09:52:56.000Z</time>
      </trkpt>
      <trkpt lat="45.13796" lon="5.54778">
        <ele>1069</ele>
        <time>2020-07-19T09:53:00.000Z</time>
      </trkpt>
      <trkpt lat="45.13791" lon="5.54783">
        <ele>1069.6</ele>
        <time>2020-07-19T09:53:04.000Z</time>
      </trkpt>
      <trkpt lat="45.1379" lon="5.5479">
        <ele>1070.2</ele>
        <time>2020-07-19T09:53:07.000Z</time>
      </trkpt>
      <trkpt lat="45.1379" lon="5.548">
        <ele>1070.2</ele>
        <time>2020-07-19T09:53:11.000Z</time>
      </trkpt>
      <trkpt lat="45.13789" lon="5.54807">
        <ele>1070.4</ele>
        <time>2020-07-19T09:53:14.000Z</time>
      </trkpt>
      <trkpt lat="45.13787" lon="5.54818">
        <ele>1070.6</ele>
        <time>2020-07-19T09:53:19.000Z</time>
      </trkpt>
      <trkpt lat="45.13783" lon="5.54831">
        <ele>1071.2</ele>
        <time>2020-07-19T09:53:25.000Z</time>
      </trkpt>
      <trkpt lat="45.13778" lon="5.54839">
        <ele>1073</ele>
        <time>2020-07-19T09:53:31.000Z</time>
      </trkpt>
      <trkpt lat="45.13776" lon="5.54842">
        <ele>1073.6</ele>
        <time>2020-07-19T09:53:33.000Z</time>
      </trkpt>
      <trkpt lat="45.13773" lon="5.54845">
        <ele>1074.6</ele>
        <time>2020-07-19T09:53:36.000Z</time>
      </trkpt>
      <trkpt lat="45.1377" lon="5.54845">
        <ele>1075.6</ele>
        <time>2020-07-19T09:53:39.000Z</time>
      </trkpt>
      <trkpt lat="45.13764" lon="5.54849">
        <ele>1077.4</ele>
        <time>2020-07-19T09:53:44.000Z</time>
      </trkpt>
      <trkpt lat="45.13758" lon="5.54852">
        <ele>1078.8</ele>
        <time>2020-07-19T09:53:49.000Z</time>
      </trkpt>
      <trkpt lat="45.13754" lon="5.54855">
        <ele>1080.2</ele>
        <time>2020-07-19T09:53:54.000Z</time>
      </trkpt>
      <trkpt lat="45.13747" lon="5.5486">
        <ele>1082.4</ele>
        <time>2020-07-19T09:54:02.000Z</time>
      </trkpt>
      <trkpt lat="45.13741" lon="5.54862">
        <ele>1083.8</ele>
        <time>2020-07-19T09:54:07.000Z</time>
      </trkpt>
      <trkpt lat="45.13733" lon="5.54869">
        <ele>1086.2</ele>
        <time>2020-07-19T09:54:15.000Z</time>
      </trkpt>
      <trkpt lat="45.13725" lon="5.54874">
        <ele>1088.2</ele>
        <time>2020-07-19T09:54:21.000Z</time>
      </trkpt>
      <trkpt lat="45.13721" lon="5.54874">
        <ele>1089.2</ele>
        <time>2020-07-19T09:54:24.000Z</time>
      </trkpt>
      <trkpt lat="45.13712" lon="5.54873">
        <ele>1090.8</ele>
        <time>2020-07-19T09:54:30.000Z</time>
      </trkpt>
      <trkpt lat="45.13706" lon="5.54872">
        <ele>1091.8</ele>
        <time>2020-07-19T09:54:34.000Z</time>
      </trkpt>
      <trkpt lat="45.13699" lon="5.54868">
        <ele>1093</ele>
        <time>2020-07-19T09:54:38.000Z</time>
      </trkpt>
      <trkpt lat="45.13691" lon="5.54867">
        <ele>1094.8</ele>
        <time>2020-07-19T09:54:44.000Z</time>
      </trkpt>
      <trkpt lat="45.13683" lon="5.54864">
        <ele>1097</ele>
        <time>2020-07-19T09:54:51.000Z</time>
      </trkpt>
      <trkpt lat="45.13677" lon="5.54859">
        <ele>1098.4</ele>
        <time>2020-07-19T09:54:56.000Z</time>
      </trkpt>
      <trkpt lat="45.13672" lon="5.54857">
        <ele>1099.4</ele>
        <time>2020-07-19T09:55:00.000Z</time>
      </trkpt>
      <trkpt lat="45.13668" lon="5.54855">
        <ele>1100.4</ele>
        <time>2020-07-19T09:55:03.000Z</time>
      </trkpt>
      <trkpt lat="45.13662" lon="5.54853">
        <ele>1101.4</ele>
        <time>2020-07-19T09:55:07.000Z</time>
      </trkpt>
      <trkpt lat="45.13656" lon="5.5485">
        <ele>1102.4</ele>
        <time>2020-07-19T09:55:11.000Z</time>
      </trkpt>
      <trkpt lat="45.13649" lon="5.54849">
        <ele>1103.8</ele>
        <time>2020-07-19T09:55:16.000Z</time>
      </trkpt>
      <trkpt lat="45.13643" lon="5.54848">
        <ele>1104.6</ele>
        <time>2020-07-19T09:55:20.000Z</time>
      </trkpt>
      <trkpt lat="45.13638" lon="5.54847">
        <ele>1105.6</ele>
        <time>2020-07-19T09:55:24.000Z</time>
      </trkpt>
      <trkpt lat="45.13632" lon="5.54849">
        <ele>1106.6</ele>
        <time>2020-07-19T09:55:28.000Z</time>
      </trkpt>
      <trkpt lat="45.13624" lon="5.54851">
        <ele>1108.2</ele>
        <time>2020-07-19T09:55:35.000Z</time>
      </trkpt>
      <trkpt lat="45.13613" lon="5.54853">
        <ele>1110</ele>
        <time>2020-07-19T09:55:43.000Z</time>
      </trkpt>
      <trkpt lat="45.13609" lon="5.54853">
        <ele>1110.6</ele>
        <time>2020-07-19T09:55:46.000Z</time>
      </trkpt>
      <trkpt lat="45.13601" lon="5.54854">
        <ele>1112.4</ele>
        <time>2020-07-19T09:55:54.000Z</time>
      </trkpt>
      <trkpt lat="45.13591" lon="5.54854">
        <ele>1113.6</ele>
        <time>2020-07-19T09:55:59.000Z</time>
      </trkpt>
      <trkpt lat="45.13586" lon="5.54856">
        <ele>1114.4</ele>
        <time>2020-07-19T09:56:03.000Z</time>
      </trkpt>
      <trkpt lat="45.13573" lon="5.54862">
        <ele>1116.2</ele>
        <time>2020-07-19T09:56:12.000Z</time>
      </trkpt>
      <trkpt lat="45.13571" lon="5.54863">
        <ele>1116.6</ele>
        <time>2020-07-19T09:56:14.000Z</time>
      </trkpt>
      <trkpt lat="45.13562" lon="5.54866">
        <ele>1117.8</ele>
        <time>2020-07-19T09:56:20.000Z</time>
      </trkpt>
      <trkpt lat="45.13558" lon="5.54869">
        <ele>1118.4</ele>
        <time>2020-07-19T09:56:24.000Z</time>
      </trkpt>
      <trkpt lat="45.13547" lon="5.54873">
        <ele>1120</ele>
        <time>2020-07-19T09:56:33.000Z</time>
      </trkpt>
      <trkpt lat="45.13545" lon="5.54873">
        <ele>1120.4</ele>
        <time>2020-07-19T09:56:35.000Z</time>
      </trkpt>
      <trkpt lat="45.13535" lon="5.54878">
        <ele>1121.4</ele>
        <time>2020-07-19T09:56:41.000Z</time>
      </trkpt>
      <trkpt lat="45.13527" lon="5.54882">
        <ele>1122.2</ele>
        <time>2020-07-19T09:56:46.000Z</time>
      </trkpt>
      <trkpt lat="45.1352" lon="5.54887">
        <ele>1122.6</ele>
        <time>2020-07-19T09:56:50.000Z</time>
      </trkpt>
      <trkpt lat="45.13516" lon="5.54889">
        <ele>1123</ele>
        <time>2020-07-19T09:56:52.000Z</time>
      </trkpt>
      <trkpt lat="45.1351" lon="5.54894">
        <ele>1123.6</ele>
        <time>2020-07-19T09:56:56.000Z</time>
      </trkpt>
      <trkpt lat="45.13505" lon="5.54897">
        <ele>1124</ele>
        <time>2020-07-19T09:56:59.000Z</time>
      </trkpt>
      <trkpt lat="45.13499" lon="5.54902">
        <ele>1124.8</ele>
        <time>2020-07-19T09:57:04.000Z</time>
      </trkpt>
      <trkpt lat="45.13494" lon="5.54905">
        <ele>1125.4</ele>
        <time>2020-07-19T09:57:08.000Z</time>
      </trkpt>
      <trkpt lat="45.13489" lon="5.54908">
        <ele>1126</ele>
        <time>2020-07-19T09:57:12.000Z</time>
      </trkpt>
      <trkpt lat="45.1348" lon="5.54915">
        <ele>1127</ele>
        <time>2020-07-19T09:57:19.000Z</time>
      </trkpt>
      <trkpt lat="45.13477" lon="5.5492">
        <ele>1127.4</ele>
        <time>2020-07-19T09:57:23.000Z</time>
      </trkpt>
      <trkpt lat="45.13473" lon="5.54923">
        <ele>1127.8</ele>
        <time>2020-07-19T09:57:26.000Z</time>
      </trkpt>
      <trkpt lat="45.13467" lon="5.54926">
        <ele>1128.2</ele>
        <time>2020-07-19T09:57:30.000Z</time>
      </trkpt>
      <trkpt lat="45.13463" lon="5.54931">
        <ele>1128.2</ele>
        <time>2020-07-19T09:57:33.000Z</time>
      </trkpt>
      <trkpt lat="45.1346" lon="5.54941">
        <ele>1128.6</ele>
        <time>2020-07-19T09:57:38.000Z</time>
      </trkpt>
      <trkpt lat="45.13455" lon="5.54952">
        <ele>1128.8</ele>
        <time>2020-07-19T09:57:44.000Z</time>
      </trkpt>
      <trkpt lat="45.13448" lon="5.54961">
        <ele>1128.6</ele>
        <time>2020-07-19T09:57:49.000Z</time>
      </trkpt>
      <trkpt lat="45.13443" lon="5.54965">
        <ele>1128.6</ele>
        <time>2020-07-19T09:57:54.000Z</time>
      </trkpt>
      <trkpt lat="45.13437" lon="5.54967">
        <ele>1128.8</ele>
        <time>2020-07-19T09:57:58.000Z</time>
      </trkpt>
      <trkpt lat="45.13428" lon="5.5497">
        <ele>1129.2</ele>
        <time>2020-07-19T09:58:03.000Z</time>
      </trkpt>
      <trkpt lat="45.13423" lon="5.54974">
        <ele>1129.6</ele>
        <time>2020-07-19T09:58:07.000Z</time>
      </trkpt>
      <trkpt lat="45.13419" lon="5.54979">
        <ele>1130</ele>
        <time>2020-07-19T09:58:11.000Z</time>
      </trkpt>
      <trkpt lat="45.13414" lon="5.54981">
        <ele>1130.6</ele>
        <time>2020-07-19T09:58:15.000Z</time>
      </trkpt>
      <trkpt lat="45.13407" lon="5.54984">
        <ele>1131.6</ele>
        <time>2020-07-19T09:58:20.000Z</time>
      </trkpt>
      <trkpt lat="45.13387" lon="5.5499">
        <ele>1132.4</ele>
        <time>2020-07-19T09:58:24.000Z</time>
      </trkpt>
      <trkpt lat="45.13389" lon="5.54989">
        <ele>1133.2</ele>
        <time>2020-07-19T09:58:28.000Z</time>
      </trkpt>
      <trkpt lat="45.13381" lon="5.54995">
        <ele>1134</ele>
        <time>2020-07-19T09:58:33.000Z</time>
      </trkpt>
      <trkpt lat="45.13374" lon="5.54994">
        <ele>1135</ele>
        <time>2020-07-19T09:58:38.000Z</time>
      </trkpt>
      <trkpt lat="45.1337" lon="5.54998">
        <ele>1135.8</ele>
        <time>2020-07-19T09:58:42.000Z</time>
      </trkpt>
      <trkpt lat="45.13363" lon="5.54999">
        <ele>1136.8</ele>
        <time>2020-07-19T09:58:47.000Z</time>
      </trkpt>
      <trkpt lat="45.13357" lon="5.55002">
        <ele>1137.8</ele>
        <time>2020-07-19T09:58:52.000Z</time>
      </trkpt>
      <trkpt lat="45.13353" lon="5.55007">
        <ele>1138.8</ele>
        <time>2020-07-19T09:58:56.000Z</time>
      </trkpt>
      <trkpt lat="45.13347" lon="5.55009">
        <ele>1139.4</ele>
        <time>2020-07-19T09:59:00.000Z</time>
      </trkpt>
      <trkpt lat="45.13343" lon="5.5501">
        <ele>1140.2</ele>
        <time>2020-07-19T09:59:04.000Z</time>
      </trkpt>
      <trkpt lat="45.13332" lon="5.55011">
        <ele>1141.8</ele>
        <time>2020-07-19T09:59:12.000Z</time>
      </trkpt>
      <trkpt lat="45.13327" lon="5.55012">
        <ele>1142.4</ele>
        <time>2020-07-19T09:59:16.000Z</time>
      </trkpt>
      <trkpt lat="45.13322" lon="5.55013">
        <ele>1143</ele>
        <time>2020-07-19T09:59:20.000Z</time>
      </trkpt>
      <trkpt lat="45.13315" lon="5.55015">
        <ele>1143.6</ele>
        <time>2020-07-19T09:59:25.000Z</time>
      </trkpt>
      <trkpt lat="45.1331" lon="5.55017">
        <ele>1144.2</ele>
        <time>2020-07-19T09:59:29.000Z</time>
      </trkpt>
      <trkpt lat="45.13305" lon="5.5502">
        <ele>1144.6</ele>
        <time>2020-07-19T09:59:33.000Z</time>
      </trkpt>
      <trkpt lat="45.13301" lon="5.55021">
        <ele>1145.2</ele>
        <time>2020-07-19T09:59:36.000Z</time>
      </trkpt>
      <trkpt lat="45.13293" lon="5.55023">
        <ele>1146.2</ele>
        <time>2020-07-19T09:59:41.000Z</time>
      </trkpt>
      <trkpt lat="45.13284" lon="5.55027">
        <ele>1146.8</ele>
        <time>2020-07-19T09:59:47.000Z</time>
      </trkpt>
      <trkpt lat="45.13277" lon="5.55029">
        <ele>1147.4</ele>
        <time>2020-07-19T09:59:52.000Z</time>
      </trkpt>
      <trkpt lat="45.13271" lon="5.5503">
        <ele>1148</ele>
        <time>2020-07-19T09:59:56.000Z</time>
      </trkpt>
      <trkpt lat="45.13263" lon="5.55034">
        <ele>1148.8</ele>
        <time>2020-07-19T10:00:02.000Z</time>
      </trkpt>
      <trkpt lat="45.13257" lon="5.55036">
        <ele>1149.6</ele>
        <time>2020-07-19T10:00:07.000Z</time>
      </trkpt>
      <trkpt lat="45.1325" lon="5.55038">
        <ele>1150.4</ele>
        <time>2020-07-19T10:00:13.000Z</time>
      </trkpt>
      <trkpt lat="45.1324" lon="5.55039">
        <ele>1151</ele>
        <time>2020-07-19T10:00:20.000Z</time>
      </trkpt>
      <trkpt lat="45.13237" lon="5.55038">
        <ele>1151.2</ele>
        <time>2020-07-19T10:00:22.000Z</time>
      </trkpt>
      <trkpt lat="45.13231" lon="5.55033">
        <ele>1151.8</ele>
        <time>2020-07-19T10:00:28.000Z</time>
      </trkpt>
      <trkpt lat="45.13227" lon="5.5503">
        <ele>1152.2</ele>
        <time>2020-07-19T10:00:32.000Z</time>
      </trkpt>
      <trkpt lat="45.13224" lon="5.55028">
        <ele>1152.4</ele>
        <time>2020-07-19T10:00:35.000Z</time>
      </trkpt>
      <trkpt lat="45.13218" lon="5.55023">
        <ele>1153.2</ele>
        <time>2020-07-19T10:00:40.000Z</time>
      </trkpt>
      <trkpt lat="45.13211" lon="5.55017">
        <ele>1153.6</ele>
        <time>2020-07-19T10:00:44.000Z</time>
      </trkpt>
      <trkpt lat="45.13206" lon="5.55011">
        <ele>1154.4</ele>
        <time>2020-07-19T10:00:49.000Z</time>
      </trkpt>
      <trkpt lat="45.13201" lon="5.55005">
        <ele>1155.2</ele>
        <time>2020-07-19T10:00:54.000Z</time>
      </trkpt>
      <trkpt lat="45.13194" lon="5.55">
        <ele>1155.8</ele>
        <time>2020-07-19T10:00:59.000Z</time>
      </trkpt>
      <trkpt lat="45.13188" lon="5.54996">
        <ele>1156.6</ele>
        <time>2020-07-19T10:01:04.000Z</time>
      </trkpt>
      <trkpt lat="45.13185" lon="5.54995">
        <ele>1157</ele>
        <time>2020-07-19T10:01:06.000Z</time>
      </trkpt>
      <trkpt lat="45.13179" lon="5.54993">
        <ele>1157</ele>
        <time>2020-07-19T10:01:10.000Z</time>
      </trkpt>
      <trkpt lat="45.1317" lon="5.5499">
        <ele>1157.6</ele>
        <time>2020-07-19T10:01:15.000Z</time>
      </trkpt>
      <trkpt lat="45.13162" lon="5.54986">
        <ele>1158.2</ele>
        <time>2020-07-19T10:01:21.000Z</time>
      </trkpt>
      <trkpt lat="45.13158" lon="5.54984">
        <ele>1158.4</ele>
        <time>2020-07-19T10:01:25.000Z</time>
      </trkpt>
      <trkpt lat="45.1315" lon="5.5498">
        <ele>1159.4</ele>
        <time>2020-07-19T10:01:31.000Z</time>
      </trkpt>
      <trkpt lat="45.13141" lon="5.54975">
        <ele>1160.8</ele>
        <time>2020-07-19T10:01:39.000Z</time>
      </trkpt>
      <trkpt lat="45.13136" lon="5.54971">
        <ele>1161.4</ele>
        <time>2020-07-19T10:01:43.000Z</time>
      </trkpt>
      <trkpt lat="45.1313" lon="5.54969">
        <ele>1162.2</ele>
        <time>2020-07-19T10:01:47.000Z</time>
      </trkpt>
      <trkpt lat="45.13124" lon="5.54967">
        <ele>1163</ele>
        <time>2020-07-19T10:01:51.000Z</time>
      </trkpt>
      <trkpt lat="45.13116" lon="5.54965">
        <ele>1164.2</ele>
        <time>2020-07-19T10:01:57.000Z</time>
      </trkpt>
      <trkpt lat="45.13108" lon="5.54963">
        <ele>1165.2</ele>
        <time>2020-07-19T10:02:02.000Z</time>
      </trkpt>
      <trkpt lat="45.13104" lon="5.54963">
        <ele>1165.6</ele>
        <time>2020-07-19T10:02:05.000Z</time>
      </trkpt>
      <trkpt lat="45.13098" lon="5.54963">
        <ele>1166.6</ele>
        <time>2020-07-19T10:02:10.000Z</time>
      </trkpt>
      <trkpt lat="45.13091" lon="5.54966">
        <ele>1167.2</ele>
        <time>2020-07-19T10:02:15.000Z</time>
      </trkpt>
      <trkpt lat="45.13086" lon="5.54972">
        <ele>1167.6</ele>
        <time>2020-07-19T10:02:19.000Z</time>
      </trkpt>
      <trkpt lat="45.13083" lon="5.54977">
        <ele>1167.8</ele>
        <time>2020-07-19T10:02:23.000Z</time>
      </trkpt>
      <trkpt lat="45.13076" lon="5.54985">
        <ele>1168.8</ele>
        <time>2020-07-19T10:02:30.000Z</time>
      </trkpt>
      <trkpt lat="45.13072" lon="5.54992">
        <ele>1169.6</ele>
        <time>2020-07-19T10:02:35.000Z</time>
      </trkpt>
      <trkpt lat="45.13068" lon="5.54998">
        <ele>1170.2</ele>
        <time>2020-07-19T10:02:39.000Z</time>
      </trkpt>
      <trkpt lat="45.13065" lon="5.55001">
        <ele>1170.8</ele>
        <time>2020-07-19T10:02:42.000Z</time>
      </trkpt>
      <trkpt lat="45.13061" lon="5.55004">
        <ele>1171.8</ele>
        <time>2020-07-19T10:02:46.000Z</time>
      </trkpt>
      <trkpt lat="45.13052" lon="5.55005">
        <ele>1173</ele>
        <time>2020-07-19T10:02:52.000Z</time>
      </trkpt>
      <trkpt lat="45.13047" lon="5.55004">
        <ele>1173.6</ele>
        <time>2020-07-19T10:02:55.000Z</time>
      </trkpt>
      <trkpt lat="45.1304" lon="5.55004">
        <ele>1174.6</ele>
        <time>2020-07-19T10:03:00.000Z</time>
      </trkpt>
      <trkpt lat="45.13035" lon="5.55004">
        <ele>1175.6</ele>
        <time>2020-07-19T10:03:05.000Z</time>
      </trkpt>
      <trkpt lat="45.13033" lon="5.55003">
        <ele>1176</ele>
        <time>2020-07-19T10:03:07.000Z</time>
      </trkpt>
      <trkpt lat="45.13029" lon="5.55003">
        <ele>1176.8</ele>
        <time>2020-07-19T10:03:11.000Z</time>
      </trkpt>
      <trkpt lat="45.13017" lon="5.55002">
        <ele>1178.6</ele>
        <time>2020-07-19T10:03:19.000Z</time>
      </trkpt>
      <trkpt lat="45.13011" lon="5.54999">
        <ele>1179.4</ele>
        <time>2020-07-19T10:03:23.000Z</time>
      </trkpt>
      <trkpt lat="45.13006" lon="5.54998">
        <ele>1180.2</ele>
        <time>2020-07-19T10:03:27.000Z</time>
      </trkpt>
      <trkpt lat="45.12997" lon="5.54996">
        <ele>1182</ele>
        <time>2020-07-19T10:03:35.000Z</time>
      </trkpt>
      <trkpt lat="45.12993" lon="5.54995">
        <ele>1182.6</ele>
        <time>2020-07-19T10:03:39.000Z</time>
      </trkpt>
      <trkpt lat="45.12986" lon="5.54991">
        <ele>1183.8</ele>
        <time>2020-07-19T10:03:45.000Z</time>
      </trkpt>
      <trkpt lat="45.12978" lon="5.54986">
        <ele>1185</ele>
        <time>2020-07-19T10:03:51.000Z</time>
      </trkpt>
      <trkpt lat="45.12972" lon="5.5498">
        <ele>1186</ele>
        <time>2020-07-19T10:03:56.000Z</time>
      </trkpt>
      <trkpt lat="45.12964" lon="5.54975">
        <ele>1187.2</ele>
        <time>2020-07-19T10:04:04.000Z</time>
      </trkpt>
      <trkpt lat="45.12957" lon="5.54972">
        <ele>1188</ele>
        <time>2020-07-19T10:04:09.000Z</time>
      </trkpt>
      <trkpt lat="45.12954" lon="5.54972">
        <ele>1188.4</ele>
        <time>2020-07-19T10:04:12.000Z</time>
      </trkpt>
      <trkpt lat="45.12951" lon="5.5497">
        <ele>1188.8</ele>
        <time>2020-07-19T10:04:15.000Z</time>
      </trkpt>
      <trkpt lat="45.12948" lon="5.54968">
        <ele>1189.2</ele>
        <time>2020-07-19T10:04:19.000Z</time>
      </trkpt>
      <trkpt lat="45.12942" lon="5.54965">
        <ele>1190.6</ele>
        <time>2020-07-19T10:04:32.000Z</time>
      </trkpt>
      <trkpt lat="45.12937" lon="5.54962">
        <ele>1190.8</ele>
        <time>2020-07-19T10:04:36.000Z</time>
      </trkpt>
      <trkpt lat="45.12931" lon="5.5496">
        <ele>1191.2</ele>
        <time>2020-07-19T10:04:41.000Z</time>
      </trkpt>
      <trkpt lat="45.12927" lon="5.54957">
        <ele>1191.6</ele>
        <time>2020-07-19T10:04:45.000Z</time>
      </trkpt>
      <trkpt lat="45.12917" lon="5.54952">
        <ele>1192.4</ele>
        <time>2020-07-19T10:04:53.000Z</time>
      </trkpt>
      <trkpt lat="45.12913" lon="5.54951">
        <ele>1192.6</ele>
        <time>2020-07-19T10:04:57.000Z</time>
      </trkpt>
      <trkpt lat="45.12905" lon="5.54949">
        <ele>1193.4</ele>
        <time>2020-07-19T10:05:04.000Z</time>
      </trkpt>
      <trkpt lat="45.12898" lon="5.54947">
        <ele>1193.8</ele>
        <time>2020-07-19T10:05:09.000Z</time>
      </trkpt>
      <trkpt lat="45.12891" lon="5.54945">
        <ele>1194.2</ele>
        <time>2020-07-19T10:05:14.000Z</time>
      </trkpt>
      <trkpt lat="45.12883" lon="5.54943">
        <ele>1194.8</ele>
        <time>2020-07-19T10:05:20.000Z</time>
      </trkpt>
      <trkpt lat="45.12875" lon="5.54942">
        <ele>1195.4</ele>
        <time>2020-07-19T10:05:26.000Z</time>
      </trkpt>
      <trkpt lat="45.12869" lon="5.54943">
        <ele>1196</ele>
        <time>2020-07-19T10:05:31.000Z</time>
      </trkpt>
      <trkpt lat="45.12865" lon="5.54944">
        <ele>1196.8</ele>
        <time>2020-07-19T10:05:35.000Z</time>
      </trkpt>
      <trkpt lat="45.12858" lon="5.54943">
        <ele>1197.4</ele>
        <time>2020-07-19T10:05:40.000Z</time>
      </trkpt>
      <trkpt lat="45.12853" lon="5.54945">
        <ele>1198</ele>
        <time>2020-07-19T10:05:44.000Z</time>
      </trkpt>
      <trkpt lat="45.12846" lon="5.54945">
        <ele>1198.8</ele>
        <time>2020-07-19T10:05:49.000Z</time>
      </trkpt>
      <trkpt lat="45.12836" lon="5.54948">
        <ele>1200.2</ele>
        <time>2020-07-19T10:05:57.000Z</time>
      </trkpt>
      <trkpt lat="45.12828" lon="5.5495">
        <ele>1201.4</ele>
        <time>2020-07-19T10:06:03.000Z</time>
      </trkpt>
      <trkpt lat="45.12824" lon="5.5495">
        <ele>1202</ele>
        <time>2020-07-19T10:06:06.000Z</time>
      </trkpt>
      <trkpt lat="45.12818" lon="5.54952">
        <ele>1203</ele>
        <time>2020-07-19T10:06:11.000Z</time>
      </trkpt>
      <trkpt lat="45.12812" lon="5.54954">
        <ele>1203.8</ele>
        <time>2020-07-19T10:06:15.000Z</time>
      </trkpt>
      <trkpt lat="45.12808" lon="5.54956">
        <ele>1204.6</ele>
        <time>2020-07-19T10:06:19.000Z</time>
      </trkpt>
      <trkpt lat="45.12806" lon="5.54959">
        <ele>1205</ele>
        <time>2020-07-19T10:06:21.000Z</time>
      </trkpt>
      <trkpt lat="45.12803" lon="5.54963">
        <ele>1205.8</ele>
        <time>2020-07-19T10:06:24.000Z</time>
      </trkpt>
      <trkpt lat="45.128" lon="5.54964">
        <ele>1206.2</ele>
        <time>2020-07-19T10:06:26.000Z</time>
      </trkpt>
      <trkpt lat="45.12796" lon="5.54968">
        <ele>1207.4</ele>
        <time>2020-07-19T10:06:30.000Z</time>
      </trkpt>
      <trkpt lat="45.12794" lon="5.54971">
        <ele>1208</ele>
        <time>2020-07-19T10:06:33.000Z</time>
      </trkpt>
      <trkpt lat="45.12789" lon="5.54977">
        <ele>1209.4</ele>
        <time>2020-07-19T10:06:39.000Z</time>
      </trkpt>
      <trkpt lat="45.12787" lon="5.5498">
        <ele>1210.2</ele>
        <time>2020-07-19T10:06:42.000Z</time>
      </trkpt>
      <trkpt lat="45.12783" lon="5.54986">
        <ele>1211.2</ele>
        <time>2020-07-19T10:06:47.000Z</time>
      </trkpt>
      <trkpt lat="45.1278" lon="5.54988">
        <ele>1211.8</ele>
        <time>2020-07-19T10:06:50.000Z</time>
      </trkpt>
      <trkpt lat="45.12775" lon="5.54995">
        <ele>1212.8</ele>
        <time>2020-07-19T10:06:55.000Z</time>
      </trkpt>
      <trkpt lat="45.1277" lon="5.55001">
        <ele>1213.6</ele>
        <time>2020-07-19T10:07:00.000Z</time>
      </trkpt>
      <trkpt lat="45.12766" lon="5.55002">
        <ele>1214.2</ele>
        <time>2020-07-19T10:07:05.000Z</time>
      </trkpt>
      <trkpt lat="45.12761" lon="5.55">
        <ele>1215</ele>
        <time>2020-07-19T10:07:09.000Z</time>
      </trkpt>
      <trkpt lat="45.12755" lon="5.54988">
        <ele>1217.2</ele>
        <time>2020-07-19T10:07:18.000Z</time>
      </trkpt>
      <trkpt lat="45.12752" lon="5.54981">
        <ele>1218.6</ele>
        <time>2020-07-19T10:07:23.000Z</time>
      </trkpt>
      <trkpt lat="45.12747" lon="5.54977">
        <ele>1219.6</ele>
        <time>2020-07-19T10:07:27.000Z</time>
      </trkpt>
      <trkpt lat="45.12742" lon="5.54973">
        <ele>1220.8</ele>
        <time>2020-07-19T10:07:31.000Z</time>
      </trkpt>
      <trkpt lat="45.12737" lon="5.54972">
        <ele>1221.6</ele>
        <time>2020-07-19T10:07:34.000Z</time>
      </trkpt>
      <trkpt lat="45.12733" lon="5.54973">
        <ele>1222.4</ele>
        <time>2020-07-19T10:07:37.000Z</time>
      </trkpt>
      <trkpt lat="45.12725" lon="5.54971">
        <ele>1223.6</ele>
        <time>2020-07-19T10:07:42.000Z</time>
      </trkpt>
      <trkpt lat="45.12722" lon="5.54972">
        <ele>1224</ele>
        <time>2020-07-19T10:07:44.000Z</time>
      </trkpt>
      <trkpt lat="45.12712" lon="5.54971">
        <ele>1225</ele>
        <time>2020-07-19T10:07:50.000Z</time>
      </trkpt>
      <trkpt lat="45.12701" lon="5.54972">
        <ele>1226</ele>
        <time>2020-07-19T10:07:57.000Z</time>
      </trkpt>
      <trkpt lat="45.12693" lon="5.54974">
        <ele>1226.8</ele>
        <time>2020-07-19T10:08:02.000Z</time>
      </trkpt>
      <trkpt lat="45.12685" lon="5.54975">
        <ele>1227.6</ele>
        <time>2020-07-19T10:08:07.000Z</time>
      </trkpt>
      <trkpt lat="45.12679" lon="5.54977">
        <ele>1228.2</ele>
        <time>2020-07-19T10:08:11.000Z</time>
      </trkpt>
      <trkpt lat="45.12672" lon="5.54981">
        <ele>1228.4</ele>
        <time>2020-07-19T10:08:16.000Z</time>
      </trkpt>
      <trkpt lat="45.12666" lon="5.54983">
        <ele>1228.2</ele>
        <time>2020-07-19T10:08:20.000Z</time>
      </trkpt>
      <trkpt lat="45.12661" lon="5.54984">
        <ele>1227.8</ele>
        <time>2020-07-19T10:08:24.000Z</time>
      </trkpt>
      <trkpt lat="45.12655" lon="5.54985">
        <ele>1227.6</ele>
        <time>2020-07-19T10:08:28.000Z</time>
      </trkpt>
      <trkpt lat="45.12648" lon="5.54986">
        <ele>1227.8</ele>
        <time>2020-07-19T10:08:32.000Z</time>
      </trkpt>
      <trkpt lat="45.12642" lon="5.54988">
        <ele>1228.2</ele>
        <time>2020-07-19T10:08:37.000Z</time>
      </trkpt>
      <trkpt lat="45.12632" lon="5.5499">
        <ele>1229.2</ele>
        <time>2020-07-19T10:08:44.000Z</time>
      </trkpt>
      <trkpt lat="45.12624" lon="5.54992">
        <ele>1230.2</ele>
        <time>2020-07-19T10:08:49.000Z</time>
      </trkpt>
      <trkpt lat="45.12614" lon="5.54996">
        <ele>1230.8</ele>
        <time>2020-07-19T10:08:55.000Z</time>
      </trkpt>
      <trkpt lat="45.12609" lon="5.54998">
        <ele>1231.6</ele>
        <time>2020-07-19T10:08:59.000Z</time>
      </trkpt>
      <trkpt lat="45.12603" lon="5.55002">
        <ele>1232.4</ele>
        <time>2020-07-19T10:09:03.000Z</time>
      </trkpt>
      <trkpt lat="45.126" lon="5.55005">
        <ele>1233.2</ele>
        <time>2020-07-19T10:09:07.000Z</time>
      </trkpt>
      <trkpt lat="45.12596" lon="5.5501">
        <ele>1234.2</ele>
        <time>2020-07-19T10:09:11.000Z</time>
      </trkpt>
      <trkpt lat="45.12591" lon="5.55018">
        <ele>1234.4</ele>
        <time>2020-07-19T10:09:16.000Z</time>
      </trkpt>
      <trkpt lat="45.12585" lon="5.55029">
        <ele>1234.4</ele>
        <time>2020-07-19T10:09:22.000Z</time>
      </trkpt>
      <trkpt lat="45.12579" lon="5.55037">
        <ele>1235</ele>
        <time>2020-07-19T10:09:27.000Z</time>
      </trkpt>
      <trkpt lat="45.12576" lon="5.55039">
        <ele>1235.2</ele>
        <time>2020-07-19T10:09:29.000Z</time>
      </trkpt>
      <trkpt lat="45.12573" lon="5.55043">
        <ele>1236</ele>
        <time>2020-07-19T10:09:32.000Z</time>
      </trkpt>
      <trkpt lat="45.12566" lon="5.55049">
        <ele>1237</ele>
        <time>2020-07-19T10:09:37.000Z</time>
      </trkpt>
      <trkpt lat="45.1256" lon="5.55055">
        <ele>1237.6</ele>
        <time>2020-07-19T10:09:42.000Z</time>
      </trkpt>
      <trkpt lat="45.12555" lon="5.55058">
        <ele>1238</ele>
        <time>2020-07-19T10:09:45.000Z</time>
      </trkpt>
      <trkpt lat="45.12548" lon="5.55066">
        <ele>1238.4</ele>
        <time>2020-07-19T10:09:51.000Z</time>
      </trkpt>
      <trkpt lat="45.12543" lon="5.55074">
        <ele>1238.6</ele>
        <time>2020-07-19T10:09:55.000Z</time>
      </trkpt>
      <trkpt lat="45.12538" lon="5.55081">
        <ele>1239.2</ele>
        <time>2020-07-19T10:09:59.000Z</time>
      </trkpt>
      <trkpt lat="45.12532" lon="5.5509">
        <ele>1240</ele>
        <time>2020-07-19T10:10:04.000Z</time>
      </trkpt>
      <trkpt lat="45.12529" lon="5.55097">
        <ele>1240.4</ele>
        <time>2020-07-19T10:10:08.000Z</time>
      </trkpt>
      <trkpt lat="45.12524" lon="5.55107">
        <ele>1240.4</ele>
        <time>2020-07-19T10:10:12.000Z</time>
      </trkpt>
      <trkpt lat="45.1252" lon="5.55116">
        <ele>1240.2</ele>
        <time>2020-07-19T10:10:16.000Z</time>
      </trkpt>
      <trkpt lat="45.12514" lon="5.55125">
        <ele>1239.8</ele>
        <time>2020-07-19T10:10:20.000Z</time>
      </trkpt>
      <trkpt lat="45.1251" lon="5.55135">
        <ele>1239.4</ele>
        <time>2020-07-19T10:10:24.000Z</time>
      </trkpt>
      <trkpt lat="45.12508" lon="5.55145">
        <ele>1239</ele>
        <time>2020-07-19T10:10:28.000Z</time>
      </trkpt>
      <trkpt lat="45.12505" lon="5.55155">
        <ele>1238.4</ele>
        <time>2020-07-19T10:10:32.000Z</time>
      </trkpt>
      <trkpt lat="45.12503" lon="5.55163">
        <ele>1238</ele>
        <time>2020-07-19T10:10:35.000Z</time>
      </trkpt>
      <trkpt lat="45.12488" lon="5.55167">
        <ele>1258.8</ele>
        <time>2020-07-19T10:20:53.000Z</time>
      </trkpt>
      <trkpt lat="45.1249" lon="5.55157">
        <ele>1257.4</ele>
        <time>2020-07-19T10:21:06.000Z</time>
      </trkpt>
      <trkpt lat="45.12489" lon="5.55146">
        <ele>1257.4</ele>
        <time>2020-07-19T10:21:10.000Z</time>
      </trkpt>
      <trkpt lat="45.12487" lon="5.55135">
        <ele>1257.4</ele>
        <time>2020-07-19T10:21:13.000Z</time>
      </trkpt>
      <trkpt lat="45.12486" lon="5.55126">
        <ele>1257.2</ele>
        <time>2020-07-19T10:21:15.000Z</time>
      </trkpt>
      <trkpt lat="45.12484" lon="5.55113">
        <ele>1257</ele>
        <time>2020-07-19T10:21:18.000Z</time>
      </trkpt>
      <trkpt lat="45.12483" lon="5.55101">
        <ele>1256.8</ele>
        <time>2020-07-19T10:21:21.000Z</time>
      </trkpt>
      <trkpt lat="45.1248" lon="5.55088">
        <ele>1256.4</ele>
        <time>2020-07-19T10:21:26.000Z</time>
      </trkpt>
      <trkpt lat="45.12479" lon="5.55079">
        <ele>1255.8</ele>
        <time>2020-07-19T10:21:30.000Z</time>
      </trkpt>
      <trkpt lat="45.12477" lon="5.55074">
        <ele>1254.6</ele>
        <time>2020-07-19T10:21:34.000Z</time>
      </trkpt>
      <trkpt lat="45.12473" lon="5.5507">
        <ele>1254</ele>
        <time>2020-07-19T10:21:38.000Z</time>
      </trkpt>
      <trkpt lat="45.1247" lon="5.55063">
        <ele>1254.6</ele>
        <time>2020-07-19T10:21:44.000Z</time>
      </trkpt>
      <trkpt lat="45.12464" lon="5.55055">
        <ele>1256</ele>
        <time>2020-07-19T10:21:50.000Z</time>
      </trkpt>
      <trkpt lat="45.12459" lon="5.55053">
        <ele>1257</ele>
        <time>2020-07-19T10:21:54.000Z</time>
      </trkpt>
      <trkpt lat="45.12453" lon="5.55052">
        <ele>1258.2</ele>
        <time>2020-07-19T10:21:59.000Z</time>
      </trkpt>
      <trkpt lat="45.12445" lon="5.55054">
        <ele>1259.6</ele>
        <time>2020-07-19T10:22:04.000Z</time>
      </trkpt>
      <trkpt lat="45.12441" lon="5.55057">
        <ele>1261</ele>
        <time>2020-07-19T10:22:09.000Z</time>
      </trkpt>
      <trkpt lat="45.12436" lon="5.55061">
        <ele>1262.4</ele>
        <time>2020-07-19T10:22:14.000Z</time>
      </trkpt>
      <trkpt lat="45.12433" lon="5.55063">
        <ele>1263</ele>
        <time>2020-07-19T10:22:18.000Z</time>
      </trkpt>
      <trkpt lat="45.12427" lon="5.55067">
        <ele>1263.8</ele>
        <time>2020-07-19T10:22:23.000Z</time>
      </trkpt>
      <trkpt lat="45.12423" lon="5.5507">
        <ele>1264.4</ele>
        <time>2020-07-19T10:22:26.000Z</time>
      </trkpt>
      <trkpt lat="45.12414" lon="5.55073">
        <ele>1265.8</ele>
        <time>2020-07-19T10:22:32.000Z</time>
      </trkpt>
      <trkpt lat="45.12411" lon="5.55076">
        <ele>1266.6</ele>
        <time>2020-07-19T10:22:35.000Z</time>
      </trkpt>
      <trkpt lat="45.12404" lon="5.55083">
        <ele>1267.4</ele>
        <time>2020-07-19T10:22:41.000Z</time>
      </trkpt>
      <trkpt lat="45.12397" lon="5.55087">
        <ele>1268.2</ele>
        <time>2020-07-19T10:22:46.000Z</time>
      </trkpt>
      <trkpt lat="45.12392" lon="5.55092">
        <ele>1269</ele>
        <time>2020-07-19T10:22:50.000Z</time>
      </trkpt>
      <trkpt lat="45.12384" lon="5.55097">
        <ele>1270.4</ele>
        <time>2020-07-19T10:22:56.000Z</time>
      </trkpt>
      <trkpt lat="45.1238" lon="5.55101">
        <ele>1271.6</ele>
        <time>2020-07-19T10:23:00.000Z</time>
      </trkpt>
      <trkpt lat="45.12375" lon="5.55104">
        <ele>1272.6</ele>
        <time>2020-07-19T10:23:04.000Z</time>
      </trkpt>
      <trkpt lat="45.12368" lon="5.55108">
        <ele>1274</ele>
        <time>2020-07-19T10:23:09.000Z</time>
      </trkpt>
      <trkpt lat="45.12362" lon="5.55113">
        <ele>1275.2</ele>
        <time>2020-07-19T10:23:13.000Z</time>
      </trkpt>
      <trkpt lat="45.12356" lon="5.55116">
        <ele>1276.4</ele>
        <time>2020-07-19T10:23:17.000Z</time>
      </trkpt>
      <trkpt lat="45.12351" lon="5.5512">
        <ele>1277.6</ele>
        <time>2020-07-19T10:23:21.000Z</time>
      </trkpt>
      <trkpt lat="45.12343" lon="5.55128">
        <ele>1279.2</ele>
        <time>2020-07-19T10:23:27.000Z</time>
      </trkpt>
      <trkpt lat="45.12338" lon="5.55131">
        <ele>1280.2</ele>
        <time>2020-07-19T10:23:31.000Z</time>
      </trkpt>
      <trkpt lat="45.12331" lon="5.55131">
        <ele>1281</ele>
        <time>2020-07-19T10:23:35.000Z</time>
      </trkpt>
      <trkpt lat="45.12325" lon="5.55132">
        <ele>1281.6</ele>
        <time>2020-07-19T10:23:39.000Z</time>
      </trkpt>
      <trkpt lat="45.12317" lon="5.55135">
        <ele>1282.8</ele>
        <time>2020-07-19T10:23:44.000Z</time>
      </trkpt>
      <trkpt lat="45.12311" lon="5.55136">
        <ele>1283.6</ele>
        <time>2020-07-19T10:23:48.000Z</time>
      </trkpt>
      <trkpt lat="45.12304" lon="5.55141">
        <ele>1284.4</ele>
        <time>2020-07-19T10:23:52.000Z</time>
      </trkpt>
      <trkpt lat="45.123" lon="5.55143">
        <ele>1285.2</ele>
        <time>2020-07-19T10:23:55.000Z</time>
      </trkpt>
      <trkpt lat="45.12292" lon="5.55147">
        <ele>1286.4</ele>
        <time>2020-07-19T10:24:00.000Z</time>
      </trkpt>
      <trkpt lat="45.12284" lon="5.55151">
        <ele>1287.4</ele>
        <time>2020-07-19T10:24:05.000Z</time>
      </trkpt>
      <trkpt lat="45.12278" lon="5.55154">
        <ele>1288.2</ele>
        <time>2020-07-19T10:24:08.000Z</time>
      </trkpt>
      <trkpt lat="45.1227" lon="5.55159">
        <ele>1289.4</ele>
        <time>2020-07-19T10:24:13.000Z</time>
      </trkpt>
      <trkpt lat="45.12261" lon="5.55163">
        <ele>1290.8</ele>
        <time>2020-07-19T10:24:19.000Z</time>
      </trkpt>
      <trkpt lat="45.12252" lon="5.55166">
        <ele>1292</ele>
        <time>2020-07-19T10:24:24.000Z</time>
      </trkpt>
      <trkpt lat="45.12247" lon="5.55167">
        <ele>1292.6</ele>
        <time>2020-07-19T10:24:27.000Z</time>
      </trkpt>
      <trkpt lat="45.12243" lon="5.55167">
        <ele>1293</ele>
        <time>2020-07-19T10:24:29.000Z</time>
      </trkpt>
      <trkpt lat="45.12235" lon="5.5517">
        <ele>1294</ele>
        <time>2020-07-19T10:24:34.000Z</time>
      </trkpt>
      <trkpt lat="45.12228" lon="5.55173">
        <ele>1294.8</ele>
        <time>2020-07-19T10:24:38.000Z</time>
      </trkpt>
      <trkpt lat="45.12225" lon="5.55175">
        <ele>1298.4</ele>
        <time>2020-07-19T10:25:57.000Z</time>
      </trkpt>
      <trkpt lat="45.12219" lon="5.55174">
        <ele>1298.2</ele>
        <time>2020-07-19T10:26:01.000Z</time>
      </trkpt>
      <trkpt lat="45.12208" lon="5.55174">
        <ele>1298</ele>
        <time>2020-07-19T10:26:07.000Z</time>
      </trkpt>
      <trkpt lat="45.12199" lon="5.55174">
        <ele>1298.6</ele>
        <time>2020-07-19T10:26:12.000Z</time>
      </trkpt>
      <trkpt lat="45.12194" lon="5.55175">
        <ele>1298.8</ele>
        <time>2020-07-19T10:26:14.000Z</time>
      </trkpt>
      <trkpt lat="45.12171" lon="5.55175">
        <ele>1300</ele>
        <time>2020-07-19T10:26:23.000Z</time>
      </trkpt>
      <trkpt lat="45.12161" lon="5.55175">
        <ele>1299.2</ele>
        <time>2020-07-19T10:26:26.000Z</time>
      </trkpt>
      <trkpt lat="45.12155" lon="5.55176">
        <ele>1299.2</ele>
        <time>2020-07-19T10:26:28.000Z</time>
      </trkpt>
      <trkpt lat="45.12142" lon="5.55177">
        <ele>1299</ele>
        <time>2020-07-19T10:26:32.000Z</time>
      </trkpt>
      <trkpt lat="45.12132" lon="5.55178">
        <ele>1299.2</ele>
        <time>2020-07-19T10:26:35.000Z</time>
      </trkpt>
      <trkpt lat="45.12123" lon="5.55177">
        <ele>1299.2</ele>
        <time>2020-07-19T10:26:37.000Z</time>
      </trkpt>
      <trkpt lat="45.12113" lon="5.55176">
        <ele>1299.6</ele>
        <time>2020-07-19T10:26:39.000Z</time>
      </trkpt>
      <trkpt lat="45.12108" lon="5.55175">
        <ele>1299.6</ele>
        <time>2020-07-19T10:26:40.000Z</time>
      </trkpt>
      <trkpt lat="45.12091" lon="5.55171">
        <ele>1299.4</ele>
        <time>2020-07-19T10:26:43.000Z</time>
      </trkpt>
      <trkpt lat="45.12067" lon="5.55167">
        <ele>1299.2</ele>
        <time>2020-07-19T10:26:47.000Z</time>
      </trkpt>
      <trkpt lat="45.12049" lon="5.55161">
        <ele>1299.2</ele>
        <time>2020-07-19T10:26:50.000Z</time>
      </trkpt>
      <trkpt lat="45.12043" lon="5.55158">
        <ele>1299</ele>
        <time>2020-07-19T10:26:51.000Z</time>
      </trkpt>
      <trkpt lat="45.12031" lon="5.5515">
        <ele>1299.2</ele>
        <time>2020-07-19T10:26:53.000Z</time>
      </trkpt>
      <trkpt lat="45.12008" lon="5.55129">
        <ele>1298.8</ele>
        <time>2020-07-19T10:26:57.000Z</time>
      </trkpt>
      <trkpt lat="45.11975" lon="5.55101">
        <ele>1298</ele>
        <time>2020-07-19T10:27:01.000Z</time>
      </trkpt>
      <trkpt lat="45.11944" lon="5.55071">
        <ele>1296.8</ele>
        <time>2020-07-19T10:27:05.000Z</time>
      </trkpt>
      <trkpt lat="45.11937" lon="5.55065">
        <ele>1296.4</ele>
        <time>2020-07-19T10:27:06.000Z</time>
      </trkpt>
      <trkpt lat="45.11905" lon="5.55041">
        <ele>1294.6</ele>
        <time>2020-07-19T10:27:10.000Z</time>
      </trkpt>
      <trkpt lat="45.11898" lon="5.55034">
        <ele>1294.4</ele>
        <time>2020-07-19T10:27:11.000Z</time>
      </trkpt>
      <trkpt lat="45.11892" lon="5.55027">
        <ele>1294</ele>
        <time>2020-07-19T10:27:12.000Z</time>
      </trkpt>
      <trkpt lat="45.11888" lon="5.5502">
        <ele>1293.8</ele>
        <time>2020-07-19T10:27:13.000Z</time>
      </trkpt>
      <trkpt lat="45.11884" lon="5.55008">
        <ele>1293.4</ele>
        <time>2020-07-19T10:27:15.000Z</time>
      </trkpt>
      <trkpt lat="45.1188" lon="5.54999">
        <ele>1292.8</ele>
        <time>2020-07-19T10:27:18.000Z</time>
      </trkpt>
      <trkpt lat="45.11876" lon="5.54991">
        <ele>1292.6</ele>
        <time>2020-07-19T10:27:21.000Z</time>
      </trkpt>
      <trkpt lat="45.11871" lon="5.54983">
        <ele>1292.2</ele>
        <time>2020-07-19T10:27:24.000Z</time>
      </trkpt>
      <trkpt lat="45.11864" lon="5.54974">
        <ele>1291.8</ele>
        <time>2020-07-19T10:27:28.000Z</time>
      </trkpt>
      <trkpt lat="45.11856" lon="5.54967">
        <ele>1291.4</ele>
        <time>2020-07-19T10:27:33.000Z</time>
      </trkpt>
      <trkpt lat="45.11846" lon="5.54964">
        <ele>1291.2</ele>
        <time>2020-07-19T10:27:39.000Z</time>
      </trkpt>
      <trkpt lat="45.11837" lon="5.54962">
        <ele>1291.2</ele>
        <time>2020-07-19T10:27:45.000Z</time>
      </trkpt>
      <trkpt lat="45.11826" lon="5.54961">
        <ele>1291.4</ele>
        <time>2020-07-19T10:27:51.000Z</time>
      </trkpt>
      <trkpt lat="45.11819" lon="5.54957">
        <ele>1291.2</ele>
        <time>2020-07-19T10:27:56.000Z</time>
      </trkpt>
      <trkpt lat="45.11814" lon="5.54954">
        <ele>1291</ele>
        <time>2020-07-19T10:27:59.000Z</time>
      </trkpt>
      <trkpt lat="45.11809" lon="5.54951">
        <ele>1291.2</ele>
        <time>2020-07-19T10:28:02.000Z</time>
      </trkpt>
      <trkpt lat="45.11802" lon="5.5495">
        <ele>1291.4</ele>
        <time>2020-07-19T10:28:06.000Z</time>
      </trkpt>
      <trkpt lat="45.11797" lon="5.5495">
        <ele>1291.6</ele>
        <time>2020-07-19T10:28:09.000Z</time>
      </trkpt>
      <trkpt lat="45.11788" lon="5.54947">
        <ele>1292</ele>
        <time>2020-07-19T10:28:15.000Z</time>
      </trkpt>
      <trkpt lat="45.11781" lon="5.54947">
        <ele>1292.2</ele>
        <time>2020-07-19T10:28:18.000Z</time>
      </trkpt>
      <trkpt lat="45.11776" lon="5.54946">
        <ele>1292.2</ele>
        <time>2020-07-19T10:28:20.000Z</time>
      </trkpt>
      <trkpt lat="45.11768" lon="5.54944">
        <ele>1292.4</ele>
        <time>2020-07-19T10:28:23.000Z</time>
      </trkpt>
      <trkpt lat="45.11765" lon="5.54944">
        <ele>1292.4</ele>
        <time>2020-07-19T10:28:24.000Z</time>
      </trkpt>
      <trkpt lat="45.11752" lon="5.54942">
        <ele>1292.6</ele>
        <time>2020-07-19T10:28:28.000Z</time>
      </trkpt>
      <trkpt lat="45.11744" lon="5.54939">
        <ele>1292.6</ele>
        <time>2020-07-19T10:28:30.000Z</time>
      </trkpt>
      <trkpt lat="45.11741" lon="5.54938">
        <ele>1292.6</ele>
        <time>2020-07-19T10:28:31.000Z</time>
      </trkpt>
      <trkpt lat="45.11729" lon="5.54935">
        <ele>1292.4</ele>
        <time>2020-07-19T10:28:34.000Z</time>
      </trkpt>
      <trkpt lat="45.1172" lon="5.54934">
        <ele>1292.6</ele>
        <time>2020-07-19T10:28:36.000Z</time>
      </trkpt>
      <trkpt lat="45.11707" lon="5.54931">
        <ele>1292.6</ele>
        <time>2020-07-19T10:28:39.000Z</time>
      </trkpt>
      <trkpt lat="45.11702" lon="5.5493">
        <ele>1292.6</ele>
        <time>2020-07-19T10:28:40.000Z</time>
      </trkpt>
      <trkpt lat="45.11691" lon="5.54926">
        <ele>1292.4</ele>
        <time>2020-07-19T10:28:42.000Z</time>
      </trkpt>
      <trkpt lat="45.11675" lon="5.54917">
        <ele>1292</ele>
        <time>2020-07-19T10:28:45.000Z</time>
      </trkpt>
      <trkpt lat="45.1167" lon="5.54914">
        <ele>1292</ele>
        <time>2020-07-19T10:28:46.000Z</time>
      </trkpt>
      <trkpt lat="45.11647" lon="5.54899">
        <ele>1291.4</ele>
        <time>2020-07-19T10:28:50.000Z</time>
      </trkpt>
      <trkpt lat="45.11641" lon="5.54897">
        <ele>1291.2</ele>
        <time>2020-07-19T10:28:51.000Z</time>
      </trkpt>
      <trkpt lat="45.11619" lon="5.54893">
        <ele>1290.6</ele>
        <time>2020-07-19T10:28:54.000Z</time>
      </trkpt>
      <trkpt lat="45.11607" lon="5.54889">
        <ele>1290.2</ele>
        <time>2020-07-19T10:28:56.000Z</time>
      </trkpt>
      <trkpt lat="45.11601" lon="5.54886">
        <ele>1290</ele>
        <time>2020-07-19T10:28:57.000Z</time>
      </trkpt>
      <trkpt lat="45.11587" lon="5.54875">
        <ele>1289.6</ele>
        <time>2020-07-19T10:29:00.000Z</time>
      </trkpt>
      <trkpt lat="45.1158" lon="5.54867">
        <ele>1289.6</ele>
        <time>2020-07-19T10:29:02.000Z</time>
      </trkpt>
      <trkpt lat="45.11576" lon="5.54859">
        <ele>1289.6</ele>
        <time>2020-07-19T10:29:04.000Z</time>
      </trkpt>
      <trkpt lat="45.11571" lon="5.54851">
        <ele>1289.6</ele>
        <time>2020-07-19T10:29:06.000Z</time>
      </trkpt>
      <trkpt lat="45.11565" lon="5.54847">
        <ele>1289.6</ele>
        <time>2020-07-19T10:29:08.000Z</time>
      </trkpt>
      <trkpt lat="45.11559" lon="5.54838">
        <ele>1290.2</ele>
        <time>2020-07-19T10:29:12.000Z</time>
      </trkpt>
      <trkpt lat="45.11553" lon="5.54832">
        <ele>1290.6</ele>
        <time>2020-07-19T10:29:15.000Z</time>
      </trkpt>
      <trkpt lat="45.11546" lon="5.54828">
        <ele>1291.2</ele>
        <time>2020-07-19T10:29:18.000Z</time>
      </trkpt>
      <trkpt lat="45.11541" lon="5.54827">
        <ele>1291.4</ele>
        <time>2020-07-19T10:29:20.000Z</time>
      </trkpt>
      <trkpt lat="45.11533" lon="5.54823">
        <ele>1291.8</ele>
        <time>2020-07-19T10:29:23.000Z</time>
      </trkpt>
      <trkpt lat="45.11522" lon="5.5482">
        <ele>1292.8</ele>
        <time>2020-07-19T10:29:27.000Z</time>
      </trkpt>
      <trkpt lat="45.11515" lon="5.54818">
        <ele>1293.2</ele>
        <time>2020-07-19T10:29:30.000Z</time>
      </trkpt>
      <trkpt lat="45.11512" lon="5.54817">
        <ele>1293.4</ele>
        <time>2020-07-19T10:29:31.000Z</time>
      </trkpt>
      <trkpt lat="45.11503" lon="5.54811">
        <ele>1293.8</ele>
        <time>2020-07-19T10:29:35.000Z</time>
      </trkpt>
      <trkpt lat="45.11497" lon="5.54804">
        <ele>1294.2</ele>
        <time>2020-07-19T10:29:38.000Z</time>
      </trkpt>
      <trkpt lat="45.11491" lon="5.54801">
        <ele>1294.6</ele>
        <time>2020-07-19T10:29:41.000Z</time>
      </trkpt>
      <trkpt lat="45.11484" lon="5.54794">
        <ele>1295</ele>
        <time>2020-07-19T10:29:44.000Z</time>
      </trkpt>
      <trkpt lat="45.11479" lon="5.5479">
        <ele>1295.2</ele>
        <time>2020-07-19T10:29:46.000Z</time>
      </trkpt>
      <trkpt lat="45.11469" lon="5.54792">
        <ele>1295.6</ele>
        <time>2020-07-19T10:29:49.000Z</time>
      </trkpt>
      <trkpt lat="45.11459" lon="5.54794">
        <ele>1295.8</ele>
        <time>2020-07-19T10:29:52.000Z</time>
      </trkpt>
      <trkpt lat="45.11449" lon="5.54792">
        <ele>1296</ele>
        <time>2020-07-19T10:29:55.000Z</time>
      </trkpt>
      <trkpt lat="45.11443" lon="5.54788">
        <ele>1296.4</ele>
        <time>2020-07-19T10:29:58.000Z</time>
      </trkpt>
      <trkpt lat="45.11438" lon="5.5478">
        <ele>1296.4</ele>
        <time>2020-07-19T10:30:01.000Z</time>
      </trkpt>
      <trkpt lat="45.11433" lon="5.54779">
        <ele>1296.4</ele>
        <time>2020-07-19T10:30:03.000Z</time>
      </trkpt>
      <trkpt lat="45.11424" lon="5.5478">
        <ele>1296.4</ele>
        <time>2020-07-19T10:30:06.000Z</time>
      </trkpt>
      <trkpt lat="45.11416" lon="5.54777">
        <ele>1296.4</ele>
        <time>2020-07-19T10:30:09.000Z</time>
      </trkpt>
      <trkpt lat="45.11409" lon="5.54776">
        <ele>1296.6</ele>
        <time>2020-07-19T10:30:11.000Z</time>
      </trkpt>
      <trkpt lat="45.11402" lon="5.5477">
        <ele>1296.4</ele>
        <time>2020-07-19T10:30:15.000Z</time>
      </trkpt>
      <trkpt lat="45.11393" lon="5.54768">
        <ele>1296.4</ele>
        <time>2020-07-19T10:30:18.000Z</time>
      </trkpt>
      <trkpt lat="45.11383" lon="5.54765">
        <ele>1296.2</ele>
        <time>2020-07-19T10:30:21.000Z</time>
      </trkpt>
      <trkpt lat="45.11375" lon="5.54761">
        <ele>1295.8</ele>
        <time>2020-07-19T10:30:24.000Z</time>
      </trkpt>
      <trkpt lat="45.11372" lon="5.5476">
        <ele>1295.8</ele>
        <time>2020-07-19T10:30:25.000Z</time>
      </trkpt>
      <trkpt lat="45.11363" lon="5.54757">
        <ele>1295.8</ele>
        <time>2020-07-19T10:30:28.000Z</time>
      </trkpt>
      <trkpt lat="45.11359" lon="5.54757">
        <ele>1295.6</ele>
        <time>2020-07-19T10:30:29.000Z</time>
      </trkpt>
      <trkpt lat="45.11348" lon="5.54762">
        <ele>1295.4</ele>
        <time>2020-07-19T10:30:32.000Z</time>
      </trkpt>
      <trkpt lat="45.11345" lon="5.54762">
        <ele>1295.4</ele>
        <time>2020-07-19T10:30:33.000Z</time>
      </trkpt>
      <trkpt lat="45.11337" lon="5.5476">
        <ele>1295</ele>
        <time>2020-07-19T10:30:35.000Z</time>
      </trkpt>
      <trkpt lat="45.11332" lon="5.54759">
        <ele>1295</ele>
        <time>2020-07-19T10:30:36.000Z</time>
      </trkpt>
      <trkpt lat="45.11324" lon="5.54759">
        <ele>1294.8</ele>
        <time>2020-07-19T10:30:38.000Z</time>
      </trkpt>
      <trkpt lat="45.11318" lon="5.54753">
        <ele>1293.2</ele>
        <time>2020-07-19T10:30:42.000Z</time>
      </trkpt>
      <trkpt lat="45.11316" lon="5.54754">
        <ele>1291.6</ele>
        <time>2020-07-19T10:30:45.000Z</time>
      </trkpt>
      <trkpt lat="45.11306" lon="5.54755">
        <ele>1259.8</ele>
        <time>2020-07-19T10:31:57.000Z</time>
      </trkpt>
      <trkpt lat="45.11296" lon="5.5475">
        <ele>1259.8</ele>
        <time>2020-07-19T10:32:00.000Z</time>
      </trkpt>
      <trkpt lat="45.11291" lon="5.54749">
        <ele>1259.8</ele>
        <time>2020-07-19T10:32:01.000Z</time>
      </trkpt>
      <trkpt lat="45.11285" lon="5.54749">
        <ele>1259.8</ele>
        <time>2020-07-19T10:32:02.000Z</time>
      </trkpt>
      <trkpt lat="45.11272" lon="5.54751">
        <ele>1260</ele>
        <time>2020-07-19T10:32:04.000Z</time>
      </trkpt>
      <trkpt lat="45.11252" lon="5.54753">
        <ele>1259.6</ele>
        <time>2020-07-19T10:32:07.000Z</time>
      </trkpt>
      <trkpt lat="45.11243" lon="5.54755">
        <ele>1259.6</ele>
        <time>2020-07-19T10:32:09.000Z</time>
      </trkpt>
      <trkpt lat="45.11236" lon="5.5476">
        <ele>1260.6</ele>
        <time>2020-07-19T10:32:12.000Z</time>
      </trkpt>
      <trkpt lat="45.11224" lon="5.54762">
        <ele>1261.6</ele>
        <time>2020-07-19T10:32:15.000Z</time>
      </trkpt>
      <trkpt lat="45.1121" lon="5.54769">
        <ele>1263.4</ele>
        <time>2020-07-19T10:32:19.000Z</time>
      </trkpt>
      <trkpt lat="45.11206" lon="5.54769">
        <ele>1264</ele>
        <time>2020-07-19T10:32:20.000Z</time>
      </trkpt>
      <trkpt lat="45.11198" lon="5.54769">
        <ele>1264.8</ele>
        <time>2020-07-19T10:32:22.000Z</time>
      </trkpt>
      <trkpt lat="45.11195" lon="5.54768">
        <ele>1265.2</ele>
        <time>2020-07-19T10:32:23.000Z</time>
      </trkpt>
      <trkpt lat="45.11178" lon="5.54766">
        <ele>1267</ele>
        <time>2020-07-19T10:32:27.000Z</time>
      </trkpt>
      <trkpt lat="45.11172" lon="5.54764">
        <ele>1267.8</ele>
        <time>2020-07-19T10:32:29.000Z</time>
      </trkpt>
      <trkpt lat="45.11166" lon="5.5476">
        <ele>1268.6</ele>
        <time>2020-07-19T10:32:31.000Z</time>
      </trkpt>
      <trkpt lat="45.11156" lon="5.54749">
        <ele>1269.8</ele>
        <time>2020-07-19T10:32:34.000Z</time>
      </trkpt>
      <trkpt lat="45.11147" lon="5.54743">
        <ele>1270</ele>
        <time>2020-07-19T10:32:36.000Z</time>
      </trkpt>
      <trkpt lat="45.11139" lon="5.54744">
        <ele>1270.4</ele>
        <time>2020-07-19T10:32:38.000Z</time>
      </trkpt>
      <trkpt lat="45.11132" lon="5.54748">
        <ele>1271.2</ele>
        <time>2020-07-19T10:32:40.000Z</time>
      </trkpt>
      <trkpt lat="45.11125" lon="5.54751">
        <ele>1272.2</ele>
        <time>2020-07-19T10:32:43.000Z</time>
      </trkpt>
      <trkpt lat="45.11119" lon="5.54751">
        <ele>1273</ele>
        <time>2020-07-19T10:32:45.000Z</time>
      </trkpt>
      <trkpt lat="45.11104" lon="5.5475">
        <ele>1274</ele>
        <time>2020-07-19T10:32:49.000Z</time>
      </trkpt>
      <trkpt lat="45.11092" lon="5.54748">
        <ele>1274.4</ele>
        <time>2020-07-19T10:32:52.000Z</time>
      </trkpt>
      <trkpt lat="45.11084" lon="5.54749">
        <ele>1274.8</ele>
        <time>2020-07-19T10:32:54.000Z</time>
      </trkpt>
      <trkpt lat="45.11073" lon="5.54744">
        <ele>1275.4</ele>
        <time>2020-07-19T10:32:57.000Z</time>
      </trkpt>
      <trkpt lat="45.11068" lon="5.54744">
        <ele>1275.6</ele>
        <time>2020-07-19T10:32:58.000Z</time>
      </trkpt>
      <trkpt lat="45.11059" lon="5.54744">
        <ele>1275.8</ele>
        <time>2020-07-19T10:33:00.000Z</time>
      </trkpt>
      <trkpt lat="45.11052" lon="5.54743">
        <ele>1276.2</ele>
        <time>2020-07-19T10:33:02.000Z</time>
      </trkpt>
      <trkpt lat="45.11044" lon="5.54744">
        <ele>1276.4</ele>
        <time>2020-07-19T10:33:04.000Z</time>
      </trkpt>
      <trkpt lat="45.11036" lon="5.54747">
        <ele>1276.8</ele>
        <time>2020-07-19T10:33:06.000Z</time>
      </trkpt>
      <trkpt lat="45.11033" lon="5.54747">
        <ele>1277</ele>
        <time>2020-07-19T10:33:07.000Z</time>
      </trkpt>
      <trkpt lat="45.11025" lon="5.54747">
        <ele>1277.2</ele>
        <time>2020-07-19T10:33:09.000Z</time>
      </trkpt>
      <trkpt lat="45.11018" lon="5.54747">
        <ele>1277.4</ele>
        <time>2020-07-19T10:33:11.000Z</time>
      </trkpt>
      <trkpt lat="45.11011" lon="5.54744">
        <ele>1277.4</ele>
        <time>2020-07-19T10:33:13.000Z</time>
      </trkpt>
      <trkpt lat="45.11003" lon="5.54742">
        <ele>1277.6</ele>
        <time>2020-07-19T10:33:15.000Z</time>
      </trkpt>
      <trkpt lat="45.10999" lon="5.54743">
        <ele>1277.8</ele>
        <time>2020-07-19T10:33:16.000Z</time>
      </trkpt>
      <trkpt lat="45.10991" lon="5.54745">
        <ele>1278</ele>
        <time>2020-07-19T10:33:18.000Z</time>
      </trkpt>
      <trkpt lat="45.1098" lon="5.54741">
        <ele>1278.2</ele>
        <time>2020-07-19T10:33:21.000Z</time>
      </trkpt>
      <trkpt lat="45.10964" lon="5.54733">
        <ele>1278.2</ele>
        <time>2020-07-19T10:33:25.000Z</time>
      </trkpt>
      <trkpt lat="45.10954" lon="5.54731">
        <ele>1278</ele>
        <time>2020-07-19T10:33:27.000Z</time>
      </trkpt>
      <trkpt lat="45.10948" lon="5.54731">
        <ele>1278</ele>
        <time>2020-07-19T10:33:28.000Z</time>
      </trkpt>
      <trkpt lat="45.10931" lon="5.54733">
        <ele>1278.4</ele>
        <time>2020-07-19T10:33:32.000Z</time>
      </trkpt>
      <trkpt lat="45.10927" lon="5.54735">
        <ele>1278.6</ele>
        <time>2020-07-19T10:33:33.000Z</time>
      </trkpt>
      <trkpt lat="45.10919" lon="5.54736">
        <ele>1278.4</ele>
        <time>2020-07-19T10:33:35.000Z</time>
      </trkpt>
      <trkpt lat="45.10911" lon="5.54734">
        <ele>1278.2</ele>
        <time>2020-07-19T10:33:37.000Z</time>
      </trkpt>
      <trkpt lat="45.10903" lon="5.54733">
        <ele>1277.8</ele>
        <time>2020-07-19T10:33:39.000Z</time>
      </trkpt>
      <trkpt lat="45.10899" lon="5.54734">
        <ele>1277.6</ele>
        <time>2020-07-19T10:33:40.000Z</time>
      </trkpt>
      <trkpt lat="45.10893" lon="5.54736">
        <ele>1277</ele>
        <time>2020-07-19T10:33:42.000Z</time>
      </trkpt>
      <trkpt lat="45.10876" lon="5.54738">
        <ele>1275.8</ele>
        <time>2020-07-19T10:33:46.000Z</time>
      </trkpt>
      <trkpt lat="45.10871" lon="5.54738">
        <ele>1275.4</ele>
        <time>2020-07-19T10:33:47.000Z</time>
      </trkpt>
      <trkpt lat="45.10863" lon="5.54737">
        <ele>1273.8</ele>
        <time>2020-07-19T10:33:50.000Z</time>
      </trkpt>
      <trkpt lat="45.10861" lon="5.54738">
        <ele>1265.4</ele>
        <time>2020-07-19T10:34:05.000Z</time>
      </trkpt>
      <trkpt lat="45.1086" lon="5.54732">
        <ele>1264.4</ele>
        <time>2020-07-19T10:34:07.000Z</time>
      </trkpt>
      <trkpt lat="45.10854" lon="5.54727">
        <ele>1263.6</ele>
        <time>2020-07-19T10:34:09.000Z</time>
      </trkpt>
      <trkpt lat="45.10845" lon="5.54724">
        <ele>1262.8</ele>
        <time>2020-07-19T10:34:11.000Z</time>
      </trkpt>
      <trkpt lat="45.10838" lon="5.54721">
        <ele>1261.8</ele>
        <time>2020-07-19T10:34:13.000Z</time>
      </trkpt>
      <trkpt lat="45.10831" lon="5.54721">
        <ele>1261</ele>
        <time>2020-07-19T10:34:15.000Z</time>
      </trkpt>
      <trkpt lat="45.10817" lon="5.54726">
        <ele>1260</ele>
        <time>2020-07-19T10:34:18.000Z</time>
      </trkpt>
      <trkpt lat="45.10809" lon="5.54729">
        <ele>1259.4</ele>
        <time>2020-07-19T10:34:20.000Z</time>
      </trkpt>
      <trkpt lat="45.10806" lon="5.54728">
        <ele>1259</ele>
        <time>2020-07-19T10:34:21.000Z</time>
      </trkpt>
      <trkpt lat="45.10801" lon="5.54723">
        <ele>1258.4</ele>
        <time>2020-07-19T10:34:23.000Z</time>
      </trkpt>
      <trkpt lat="45.10798" lon="5.54719">
        <ele>1257.6</ele>
        <time>2020-07-19T10:34:25.000Z</time>
      </trkpt>
      <trkpt lat="45.1079" lon="5.54715">
        <ele>1256.6</ele>
        <time>2020-07-19T10:34:28.000Z</time>
      </trkpt>
      <trkpt lat="45.10786" lon="5.54713">
        <ele>1256</ele>
        <time>2020-07-19T10:34:30.000Z</time>
      </trkpt>
      <trkpt lat="45.10781" lon="5.54709">
        <ele>1255.2</ele>
        <time>2020-07-19T10:34:33.000Z</time>
      </trkpt>
      <trkpt lat="45.10776" lon="5.54708">
        <ele>1254.6</ele>
        <time>2020-07-19T10:34:35.000Z</time>
      </trkpt>
      <trkpt lat="45.1077" lon="5.54706">
        <ele>1254</ele>
        <time>2020-07-19T10:34:37.000Z</time>
      </trkpt>
      <trkpt lat="45.1076" lon="5.547">
        <ele>1253.4</ele>
        <time>2020-07-19T10:34:41.000Z</time>
      </trkpt>
      <trkpt lat="45.10753" lon="5.54697">
        <ele>1253</ele>
        <time>2020-07-19T10:34:44.000Z</time>
      </trkpt>
      <trkpt lat="45.10745" lon="5.54693">
        <ele>1252.6</ele>
        <time>2020-07-19T10:34:48.000Z</time>
      </trkpt>
      <trkpt lat="45.10738" lon="5.54689">
        <ele>1252</ele>
        <time>2020-07-19T10:34:51.000Z</time>
      </trkpt>
      <trkpt lat="45.10735" lon="5.54685">
        <ele>1251.6</ele>
        <time>2020-07-19T10:34:53.000Z</time>
      </trkpt>
      <trkpt lat="45.10732" lon="5.54676">
        <ele>1250.8</ele>
        <time>2020-07-19T10:34:55.000Z</time>
      </trkpt>
      <trkpt lat="45.10727" lon="5.54668">
        <ele>1250.2</ele>
        <time>2020-07-19T10:34:57.000Z</time>
      </trkpt>
      <trkpt lat="45.10719" lon="5.54664">
        <ele>1249.8</ele>
        <time>2020-07-19T10:35:00.000Z</time>
      </trkpt>
      <trkpt lat="45.10706" lon="5.54655">
        <ele>1249</ele>
        <time>2020-07-19T10:35:04.000Z</time>
      </trkpt>
      <trkpt lat="45.10702" lon="5.54654">
        <ele>1248.8</ele>
        <time>2020-07-19T10:35:05.000Z</time>
      </trkpt>
      <trkpt lat="45.10691" lon="5.54647">
        <ele>1248.4</ele>
        <time>2020-07-19T10:35:08.000Z</time>
      </trkpt>
      <trkpt lat="45.10688" lon="5.54644">
        <ele>1248.2</ele>
        <time>2020-07-19T10:35:09.000Z</time>
      </trkpt>
      <trkpt lat="45.10682" lon="5.54636">
        <ele>1247.8</ele>
        <time>2020-07-19T10:35:11.000Z</time>
      </trkpt>
      <trkpt lat="45.10679" lon="5.54632">
        <ele>1247.6</ele>
        <time>2020-07-19T10:35:12.000Z</time>
      </trkpt>
      <trkpt lat="45.1067" lon="5.54626">
        <ele>1247.2</ele>
        <time>2020-07-19T10:35:15.000Z</time>
      </trkpt>
      <trkpt lat="45.10661" lon="5.5462">
        <ele>1246.8</ele>
        <time>2020-07-19T10:35:19.000Z</time>
      </trkpt>
      <trkpt lat="45.10659" lon="5.54619">
        <ele>1245.6</ele>
        <time>2020-07-19T10:35:23.000Z</time>
      </trkpt>
      <trkpt lat="45.10657" lon="5.54614">
        <ele>1246</ele>
        <time>2020-07-19T10:35:27.000Z</time>
      </trkpt>
      <trkpt lat="45.10654" lon="5.54605">
        <ele>1245.8</ele>
        <time>2020-07-19T10:35:30.000Z</time>
      </trkpt>
      <trkpt lat="45.10648" lon="5.54595">
        <ele>1245.6</ele>
        <time>2020-07-19T10:35:33.000Z</time>
      </trkpt>
      <trkpt lat="45.10644" lon="5.54587">
        <ele>1245.4</ele>
        <time>2020-07-19T10:35:36.000Z</time>
      </trkpt>
      <trkpt lat="45.10644" lon="5.54582">
        <ele>1245.2</ele>
        <time>2020-07-19T10:35:38.000Z</time>
      </trkpt>
      <trkpt lat="45.10643" lon="5.5457">
        <ele>1244.8</ele>
        <time>2020-07-19T10:35:41.000Z</time>
      </trkpt>
      <trkpt lat="45.1064" lon="5.54561">
        <ele>1244.6</ele>
        <time>2020-07-19T10:35:43.000Z</time>
      </trkpt>
      <trkpt lat="45.10634" lon="5.54552">
        <ele>1244.4</ele>
        <time>2020-07-19T10:35:46.000Z</time>
      </trkpt>
      <trkpt lat="45.10632" lon="5.54549">
        <ele>1244.2</ele>
        <time>2020-07-19T10:35:47.000Z</time>
      </trkpt>
      <trkpt lat="45.10624" lon="5.54539">
        <ele>1244</ele>
        <time>2020-07-19T10:35:51.000Z</time>
      </trkpt>
      <trkpt lat="45.10621" lon="5.54534">
        <ele>1243.8</ele>
        <time>2020-07-19T10:35:53.000Z</time>
      </trkpt>
      <trkpt lat="45.10617" lon="5.54524">
        <ele>1243.6</ele>
        <time>2020-07-19T10:35:57.000Z</time>
      </trkpt>
      <trkpt lat="45.10617" lon="5.54518">
        <ele>1243.4</ele>
        <time>2020-07-19T10:35:59.000Z</time>
      </trkpt>
      <trkpt lat="45.10617" lon="5.54507">
        <ele>1243.4</ele>
        <time>2020-07-19T10:36:03.000Z</time>
      </trkpt>
      <trkpt lat="45.10614" lon="5.54495">
        <ele>1243.2</ele>
        <time>2020-07-19T10:36:07.000Z</time>
      </trkpt>
      <trkpt lat="45.1061" lon="5.5449">
        <ele>1243</ele>
        <time>2020-07-19T10:36:09.000Z</time>
      </trkpt>
      <trkpt lat="45.10602" lon="5.54483">
        <ele>1243.2</ele>
        <time>2020-07-19T10:36:13.000Z</time>
      </trkpt>
      <trkpt lat="45.106" lon="5.54474">
        <ele>1243.2</ele>
        <time>2020-07-19T10:36:17.000Z</time>
      </trkpt>
      <trkpt lat="45.10597" lon="5.54468">
        <ele>1243.2</ele>
        <time>2020-07-19T10:36:19.000Z</time>
      </trkpt>
      <trkpt lat="45.10595" lon="5.54459">
        <ele>1243.2</ele>
        <time>2020-07-19T10:36:22.000Z</time>
      </trkpt>
      <trkpt lat="45.10588" lon="5.54448">
        <ele>1243.4</ele>
        <time>2020-07-19T10:36:26.000Z</time>
      </trkpt>
      <trkpt lat="45.10585" lon="5.54434">
        <ele>1243.6</ele>
        <time>2020-07-19T10:36:30.000Z</time>
      </trkpt>
      <trkpt lat="45.10579" lon="5.54426">
        <ele>1243.6</ele>
        <time>2020-07-19T10:36:33.000Z</time>
      </trkpt>
      <trkpt lat="45.10577" lon="5.54419">
        <ele>1243.8</ele>
        <time>2020-07-19T10:36:35.000Z</time>
      </trkpt>
      <trkpt lat="45.10576" lon="5.54411">
        <ele>1244</ele>
        <time>2020-07-19T10:36:37.000Z</time>
      </trkpt>
      <trkpt lat="45.10568" lon="5.54397">
        <ele>1244.2</ele>
        <time>2020-07-19T10:36:41.000Z</time>
      </trkpt>
      <trkpt lat="45.10564" lon="5.54389">
        <ele>1244.4</ele>
        <time>2020-07-19T10:36:43.000Z</time>
      </trkpt>
      <trkpt lat="45.10561" lon="5.54386">
        <ele>1244.4</ele>
        <time>2020-07-19T10:36:44.000Z</time>
      </trkpt>
      <trkpt lat="45.10554" lon="5.54383">
        <ele>1244.6</ele>
        <time>2020-07-19T10:36:46.000Z</time>
      </trkpt>
      <trkpt lat="45.10547" lon="5.54379">
        <ele>1244.8</ele>
        <time>2020-07-19T10:36:48.000Z</time>
      </trkpt>
      <trkpt lat="45.1054" lon="5.54377">
        <ele>1245</ele>
        <time>2020-07-19T10:36:50.000Z</time>
      </trkpt>
      <trkpt lat="45.10535" lon="5.54375">
        <ele>1245.2</ele>
        <time>2020-07-19T10:36:52.000Z</time>
      </trkpt>
      <trkpt lat="45.10531" lon="5.54371">
        <ele>1245.6</ele>
        <time>2020-07-19T10:36:54.000Z</time>
      </trkpt>
      <trkpt lat="45.10522" lon="5.54367">
        <ele>1246</ele>
        <time>2020-07-19T10:36:57.000Z</time>
      </trkpt>
      <trkpt lat="45.10516" lon="5.54363">
        <ele>1246.2</ele>
        <time>2020-07-19T10:36:59.000Z</time>
      </trkpt>
      <trkpt lat="45.10513" lon="5.54361">
        <ele>1246.2</ele>
        <time>2020-07-19T10:37:00.000Z</time>
      </trkpt>
      <trkpt lat="45.10507" lon="5.5436">
        <ele>1246.6</ele>
        <time>2020-07-19T10:37:02.000Z</time>
      </trkpt>
      <trkpt lat="45.10504" lon="5.54357">
        <ele>1246.8</ele>
        <time>2020-07-19T10:37:03.000Z</time>
      </trkpt>
      <trkpt lat="45.10498" lon="5.54349">
        <ele>1247.2</ele>
        <time>2020-07-19T10:37:06.000Z</time>
      </trkpt>
      <trkpt lat="45.10493" lon="5.54348">
        <ele>1247.4</ele>
        <time>2020-07-19T10:37:08.000Z</time>
      </trkpt>
      <trkpt lat="45.10488" lon="5.54344">
        <ele>1247.8</ele>
        <time>2020-07-19T10:37:10.000Z</time>
      </trkpt>
      <trkpt lat="45.10483" lon="5.54342">
        <ele>1248.2</ele>
        <time>2020-07-19T10:37:12.000Z</time>
      </trkpt>
      <trkpt lat="45.10476" lon="5.54341">
        <ele>1248.6</ele>
        <time>2020-07-19T10:37:14.000Z</time>
      </trkpt>
      <trkpt lat="45.10473" lon="5.54339">
        <ele>1248.8</ele>
        <time>2020-07-19T10:37:15.000Z</time>
      </trkpt>
      <trkpt lat="45.10465" lon="5.54329">
        <ele>1249.4</ele>
        <time>2020-07-19T10:37:19.000Z</time>
      </trkpt>
      <trkpt lat="45.10461" lon="5.54322">
        <ele>1249.6</ele>
        <time>2020-07-19T10:37:22.000Z</time>
      </trkpt>
      <trkpt lat="45.10459" lon="5.54314">
        <ele>1249.6</ele>
        <time>2020-07-19T10:37:24.000Z</time>
      </trkpt>
      <trkpt lat="45.10455" lon="5.54307">
        <ele>1249.6</ele>
        <time>2020-07-19T10:37:26.000Z</time>
      </trkpt>
      <trkpt lat="45.10452" lon="5.54301">
        <ele>1249.8</ele>
        <time>2020-07-19T10:37:28.000Z</time>
      </trkpt>
      <trkpt lat="45.10448" lon="5.5429">
        <ele>1250</ele>
        <time>2020-07-19T10:37:33.000Z</time>
      </trkpt>
      <trkpt lat="45.10444" lon="5.54283">
        <ele>1250</ele>
        <time>2020-07-19T10:37:35.000Z</time>
      </trkpt>
      <trkpt lat="45.10437" lon="5.54276">
        <ele>1250.4</ele>
        <time>2020-07-19T10:37:38.000Z</time>
      </trkpt>
      <trkpt lat="45.10428" lon="5.54269">
        <ele>1250.8</ele>
        <time>2020-07-19T10:37:41.000Z</time>
      </trkpt>
      <trkpt lat="45.10424" lon="5.54267">
        <ele>1250.8</ele>
        <time>2020-07-19T10:37:42.000Z</time>
      </trkpt>
      <trkpt lat="45.10415" lon="5.54265">
        <ele>1251.4</ele>
        <time>2020-07-19T10:37:45.000Z</time>
      </trkpt>
      <trkpt lat="45.10408" lon="5.54263">
        <ele>1252</ele>
        <time>2020-07-19T10:37:48.000Z</time>
      </trkpt>
      <trkpt lat="45.10403" lon="5.54256">
        <ele>1252.4</ele>
        <time>2020-07-19T10:37:51.000Z</time>
      </trkpt>
      <trkpt lat="45.10399" lon="5.54247">
        <ele>1252.8</ele>
        <time>2020-07-19T10:37:54.000Z</time>
      </trkpt>
      <trkpt lat="45.10392" lon="5.54241">
        <ele>1253.2</ele>
        <time>2020-07-19T10:37:57.000Z</time>
      </trkpt>
      <trkpt lat="45.10387" lon="5.5424">
        <ele>1253.6</ele>
        <time>2020-07-19T10:37:59.000Z</time>
      </trkpt>
      <trkpt lat="45.10378" lon="5.54239">
        <ele>1254.4</ele>
        <time>2020-07-19T10:38:03.000Z</time>
      </trkpt>
      <trkpt lat="45.1037" lon="5.54234">
        <ele>1254.8</ele>
        <time>2020-07-19T10:38:06.000Z</time>
      </trkpt>
      <trkpt lat="45.10362" lon="5.54224">
        <ele>1255.6</ele>
        <time>2020-07-19T10:38:10.000Z</time>
      </trkpt>
      <trkpt lat="45.10357" lon="5.54222">
        <ele>1255.8</ele>
        <time>2020-07-19T10:38:12.000Z</time>
      </trkpt>
      <trkpt lat="45.1035" lon="5.54223">
        <ele>1256.2</ele>
        <time>2020-07-19T10:38:14.000Z</time>
      </trkpt>
      <trkpt lat="45.10338" lon="5.54223">
        <ele>1256.6</ele>
        <time>2020-07-19T10:38:17.000Z</time>
      </trkpt>
      <trkpt lat="45.10333" lon="5.54225">
        <ele>1257</ele>
        <time>2020-07-19T10:38:19.000Z</time>
      </trkpt>
      <trkpt lat="45.10329" lon="5.54229">
        <ele>1257.4</ele>
        <time>2020-07-19T10:38:21.000Z</time>
      </trkpt>
      <trkpt lat="45.10322" lon="5.54232">
        <ele>1257.8</ele>
        <time>2020-07-19T10:38:23.000Z</time>
      </trkpt>
      <trkpt lat="45.10318" lon="5.54232">
        <ele>1258</ele>
        <time>2020-07-19T10:38:24.000Z</time>
      </trkpt>
      <trkpt lat="45.10311" lon="5.54231">
        <ele>1258.2</ele>
        <time>2020-07-19T10:38:26.000Z</time>
      </trkpt>
      <trkpt lat="45.10305" lon="5.54231">
        <ele>1258.4</ele>
        <time>2020-07-19T10:38:28.000Z</time>
      </trkpt>
      <trkpt lat="45.10297" lon="5.54238">
        <ele>1258.4</ele>
        <time>2020-07-19T10:38:31.000Z</time>
      </trkpt>
      <trkpt lat="45.10292" lon="5.54246">
        <ele>1258.4</ele>
        <time>2020-07-19T10:38:33.000Z</time>
      </trkpt>
      <trkpt lat="45.10284" lon="5.54253">
        <ele>1258</ele>
        <time>2020-07-19T10:38:38.000Z</time>
      </trkpt>
      <trkpt lat="45.10283" lon="5.54261">
        <ele>1257.4</ele>
        <time>2020-07-19T10:40:33.000Z</time>
      </trkpt>
      <trkpt lat="45.10276" lon="5.54268">
        <ele>1255.8</ele>
        <time>2020-07-19T10:40:37.000Z</time>
      </trkpt>
      <trkpt lat="45.10271" lon="5.5427">
        <ele>1254.8</ele>
        <time>2020-07-19T10:40:39.000Z</time>
      </trkpt>
      <trkpt lat="45.10264" lon="5.54273">
        <ele>1253.6</ele>
        <time>2020-07-19T10:40:41.000Z</time>
      </trkpt>
      <trkpt lat="45.10252" lon="5.54275">
        <ele>1251.8</ele>
        <time>2020-07-19T10:40:44.000Z</time>
      </trkpt>
      <trkpt lat="45.1024" lon="5.54278">
        <ele>1249.8</ele>
        <time>2020-07-19T10:40:47.000Z</time>
      </trkpt>
      <trkpt lat="45.10231" lon="5.54279">
        <ele>1248.6</ele>
        <time>2020-07-19T10:40:49.000Z</time>
      </trkpt>
      <trkpt lat="45.10214" lon="5.5428">
        <ele>1246.2</ele>
        <time>2020-07-19T10:40:53.000Z</time>
      </trkpt>
      <trkpt lat="45.10196" lon="5.5428">
        <ele>1244</ele>
        <time>2020-07-19T10:40:57.000Z</time>
      </trkpt>
      <trkpt lat="45.10177" lon="5.54278">
        <ele>1243.4</ele>
        <time>2020-07-19T10:41:01.000Z</time>
      </trkpt>
      <trkpt lat="45.10168" lon="5.54276">
        <ele>1243</ele>
        <time>2020-07-19T10:41:03.000Z</time>
      </trkpt>
      <trkpt lat="45.10148" lon="5.54272">
        <ele>1242</ele>
        <time>2020-07-19T10:41:07.000Z</time>
      </trkpt>
      <trkpt lat="45.1013" lon="5.54271">
        <ele>1241.6</ele>
        <time>2020-07-19T10:41:10.000Z</time>
      </trkpt>
      <trkpt lat="45.10112" lon="5.54269">
        <ele>1241.2</ele>
        <time>2020-07-19T10:41:13.000Z</time>
      </trkpt>
      <trkpt lat="45.10096" lon="5.54264">
        <ele>1240.6</ele>
        <time>2020-07-19T10:41:16.000Z</time>
      </trkpt>
      <trkpt lat="45.10086" lon="5.5426">
        <ele>1240.6</ele>
        <time>2020-07-19T10:41:18.000Z</time>
      </trkpt>
      <trkpt lat="45.1007" lon="5.54252">
        <ele>1240.2</ele>
        <time>2020-07-19T10:41:21.000Z</time>
      </trkpt>
      <trkpt lat="45.10056" lon="5.54244">
        <ele>1240</ele>
        <time>2020-07-19T10:41:24.000Z</time>
      </trkpt>
      <trkpt lat="45.10052" lon="5.54241">
        <ele>1240</ele>
        <time>2020-07-19T10:41:25.000Z</time>
      </trkpt>
      <trkpt lat="45.10033" lon="5.54232">
        <ele>1240.4</ele>
        <time>2020-07-19T10:41:29.000Z</time>
      </trkpt>
      <trkpt lat="45.10024" lon="5.54226">
        <ele>1240.8</ele>
        <time>2020-07-19T10:41:31.000Z</time>
      </trkpt>
      <trkpt lat="45.10015" lon="5.54223">
        <ele>1241</ele>
        <time>2020-07-19T10:41:33.000Z</time>
      </trkpt>
      <trkpt lat="45.10003" lon="5.54221">
        <ele>1241.4</ele>
        <time>2020-07-19T10:41:36.000Z</time>
      </trkpt>
      <trkpt lat="45.09999" lon="5.54221">
        <ele>1241.6</ele>
        <time>2020-07-19T10:41:37.000Z</time>
      </trkpt>
      <trkpt lat="45.09991" lon="5.54223">
        <ele>1241.8</ele>
        <time>2020-07-19T10:41:39.000Z</time>
      </trkpt>
      <trkpt lat="45.09979" lon="5.54224">
        <ele>1242</ele>
        <time>2020-07-19T10:41:42.000Z</time>
      </trkpt>
      <trkpt lat="45.09968" lon="5.54224">
        <ele>1242.2</ele>
        <time>2020-07-19T10:41:45.000Z</time>
      </trkpt>
      <trkpt lat="45.09961" lon="5.54224">
        <ele>1242.6</ele>
        <time>2020-07-19T10:41:47.000Z</time>
      </trkpt>
      <trkpt lat="45.0995" lon="5.54221">
        <ele>1242.8</ele>
        <time>2020-07-19T10:41:50.000Z</time>
      </trkpt>
      <trkpt lat="45.09943" lon="5.5422">
        <ele>1243</ele>
        <time>2020-07-19T10:41:52.000Z</time>
      </trkpt>
      <trkpt lat="45.09934" lon="5.54216">
        <ele>1243.2</ele>
        <time>2020-07-19T10:41:55.000Z</time>
      </trkpt>
      <trkpt lat="45.09929" lon="5.54214">
        <ele>1243.2</ele>
        <time>2020-07-19T10:41:57.000Z</time>
      </trkpt>
      <trkpt lat="45.09922" lon="5.54209">
        <ele>1243.8</ele>
        <time>2020-07-19T10:42:00.000Z</time>
      </trkpt>
      <trkpt lat="45.09917" lon="5.54208">
        <ele>1244.4</ele>
        <time>2020-07-19T10:42:02.000Z</time>
      </trkpt>
      <trkpt lat="45.0991" lon="5.54205">
        <ele>1245.4</ele>
        <time>2020-07-19T10:42:05.000Z</time>
      </trkpt>
      <trkpt lat="45.09903" lon="5.54203">
        <ele>1246.4</ele>
        <time>2020-07-19T10:42:08.000Z</time>
      </trkpt>
      <trkpt lat="45.09896" lon="5.542">
        <ele>1248</ele>
        <time>2020-07-19T10:42:12.000Z</time>
      </trkpt>
      <trkpt lat="45.09888" lon="5.54198">
        <ele>1249.6</ele>
        <time>2020-07-19T10:42:16.000Z</time>
      </trkpt>
      <trkpt lat="45.09884" lon="5.54197">
        <ele>1250.4</ele>
        <time>2020-07-19T10:42:18.000Z</time>
      </trkpt>
      <trkpt lat="45.09876" lon="5.54196">
        <ele>1252.8</ele>
        <time>2020-07-19T10:42:24.000Z</time>
      </trkpt>
      <trkpt lat="45.09872" lon="5.54196">
        <ele>1253.4</ele>
        <time>2020-07-19T10:42:26.000Z</time>
      </trkpt>
      <trkpt lat="45.09857" lon="5.54192">
        <ele>1254.2</ele>
        <time>2020-07-19T10:42:35.000Z</time>
      </trkpt>
      <trkpt lat="45.09851" lon="5.54191">
        <ele>1254.2</ele>
        <time>2020-07-19T10:42:39.000Z</time>
      </trkpt>
      <trkpt lat="45.09848" lon="5.54191">
        <ele>1254.2</ele>
        <time>2020-07-19T10:42:41.000Z</time>
      </trkpt>
      <trkpt lat="45.09839" lon="5.54189">
        <ele>1254.2</ele>
        <time>2020-07-19T10:42:47.000Z</time>
      </trkpt>
      <trkpt lat="45.09833" lon="5.54187">
        <ele>1254.6</ele>
        <time>2020-07-19T10:42:51.000Z</time>
      </trkpt>
      <trkpt lat="45.09824" lon="5.54187">
        <ele>1255.8</ele>
        <time>2020-07-19T10:42:57.000Z</time>
      </trkpt>
      <trkpt lat="45.09817" lon="5.54186">
        <ele>1256.8</ele>
        <time>2020-07-19T10:43:02.000Z</time>
      </trkpt>
      <trkpt lat="45.09811" lon="5.54187">
        <ele>1258</ele>
        <time>2020-07-19T10:43:06.000Z</time>
      </trkpt>
      <trkpt lat="45.09806" lon="5.54187">
        <ele>1258.4</ele>
        <time>2020-07-19T10:43:10.000Z</time>
      </trkpt>
      <trkpt lat="45.098" lon="5.54189">
        <ele>1258.6</ele>
        <time>2020-07-19T10:43:14.000Z</time>
      </trkpt>
      <trkpt lat="45.09794" lon="5.54194">
        <ele>1258.6</ele>
        <time>2020-07-19T10:43:18.000Z</time>
      </trkpt>
      <trkpt lat="45.09788" lon="5.54197">
        <ele>1259.4</ele>
        <time>2020-07-19T10:43:23.000Z</time>
      </trkpt>
      <trkpt lat="45.09783" lon="5.54199">
        <ele>1260.8</ele>
        <time>2020-07-19T10:43:28.000Z</time>
      </trkpt>
      <trkpt lat="45.09778" lon="5.54202">
        <ele>1262</ele>
        <time>2020-07-19T10:43:32.000Z</time>
      </trkpt>
      <trkpt lat="45.0977" lon="5.54204">
        <ele>1264.6</ele>
        <time>2020-07-19T10:43:38.000Z</time>
      </trkpt>
      <trkpt lat="45.09764" lon="5.54208">
        <ele>1266.4</ele>
        <time>2020-07-19T10:43:42.000Z</time>
      </trkpt>
      <trkpt lat="45.09758" lon="5.54209">
        <ele>1268.2</ele>
        <time>2020-07-19T10:43:46.000Z</time>
      </trkpt>
      <trkpt lat="45.0975" lon="5.54211">
        <ele>1270.6</ele>
        <time>2020-07-19T10:43:52.000Z</time>
      </trkpt>
      <trkpt lat="45.09745" lon="5.5421">
        <ele>1272.2</ele>
        <time>2020-07-19T10:43:56.000Z</time>
      </trkpt>
      <trkpt lat="45.09732" lon="5.54212">
        <ele>1276.4</ele>
        <time>2020-07-19T10:44:07.000Z</time>
      </trkpt>
      <trkpt lat="45.09728" lon="5.54211">
        <ele>1277.6</ele>
        <time>2020-07-19T10:44:10.000Z</time>
      </trkpt>
      <trkpt lat="45.0972" lon="5.54211">
        <ele>1279.4</ele>
        <time>2020-07-19T10:44:15.000Z</time>
      </trkpt>
      <trkpt lat="45.09714" lon="5.5421">
        <ele>1280.8</ele>
        <time>2020-07-19T10:44:19.000Z</time>
      </trkpt>
      <trkpt lat="45.0971" lon="5.54209">
        <ele>1282.2</ele>
        <time>2020-07-19T10:44:23.000Z</time>
      </trkpt>
      <trkpt lat="45.09696" lon="5.54208">
        <ele>1285.2</ele>
        <time>2020-07-19T10:44:32.000Z</time>
      </trkpt>
      <trkpt lat="45.09691" lon="5.54206">
        <ele>1286.8</ele>
        <time>2020-07-19T10:44:37.000Z</time>
      </trkpt>
      <trkpt lat="45.09686" lon="5.54205">
        <ele>1287.6</ele>
        <time>2020-07-19T10:44:40.000Z</time>
      </trkpt>
      <trkpt lat="45.09678" lon="5.54204">
        <ele>1289.4</ele>
        <time>2020-07-19T10:44:46.000Z</time>
      </trkpt>
      <trkpt lat="45.0967" lon="5.54203">
        <ele>1290.6</ele>
        <time>2020-07-19T10:44:51.000Z</time>
      </trkpt>
      <trkpt lat="45.09666" lon="5.54203">
        <ele>1290.8</ele>
        <time>2020-07-19T10:44:54.000Z</time>
      </trkpt>
      <trkpt lat="45.0966" lon="5.542">
        <ele>1291.6</ele>
        <time>2020-07-19T10:44:59.000Z</time>
      </trkpt>
      <trkpt lat="45.09656" lon="5.54199">
        <ele>1292.4</ele>
        <time>2020-07-19T10:45:02.000Z</time>
      </trkpt>
      <trkpt lat="45.09647" lon="5.54198">
        <ele>1293.4</ele>
        <time>2020-07-19T10:45:08.000Z</time>
      </trkpt>
      <trkpt lat="45.0964" lon="5.54196">
        <ele>1294.2</ele>
        <time>2020-07-19T10:45:13.000Z</time>
      </trkpt>
      <trkpt lat="45.09633" lon="5.54194">
        <ele>1295</ele>
        <time>2020-07-19T10:45:18.000Z</time>
      </trkpt>
      <trkpt lat="45.09624" lon="5.54191">
        <ele>1295.2</ele>
        <time>2020-07-19T10:45:25.000Z</time>
      </trkpt>
      <trkpt lat="45.09619" lon="5.5419">
        <ele>1295.6</ele>
        <time>2020-07-19T10:45:29.000Z</time>
      </trkpt>
      <trkpt lat="45.09615" lon="5.54187">
        <ele>1296.2</ele>
        <time>2020-07-19T10:45:33.000Z</time>
      </trkpt>
      <trkpt lat="45.09608" lon="5.54186">
        <ele>1297.2</ele>
        <time>2020-07-19T10:45:38.000Z</time>
      </trkpt>
      <trkpt lat="45.09602" lon="5.54186">
        <ele>1298.6</ele>
        <time>2020-07-19T10:45:43.000Z</time>
      </trkpt>
      <trkpt lat="45.09592" lon="5.54183">
        <ele>1299.8</ele>
        <time>2020-07-19T10:45:49.000Z</time>
      </trkpt>
      <trkpt lat="45.09584" lon="5.5418">
        <ele>1300.6</ele>
        <time>2020-07-19T10:45:55.000Z</time>
      </trkpt>
      <trkpt lat="45.09578" lon="5.54178">
        <ele>1301.4</ele>
        <time>2020-07-19T10:46:00.000Z</time>
      </trkpt>
      <trkpt lat="45.09573" lon="5.54175">
        <ele>1302</ele>
        <time>2020-07-19T10:46:03.000Z</time>
      </trkpt>
      <trkpt lat="45.09565" lon="5.54171">
        <ele>1303.2</ele>
        <time>2020-07-19T10:46:10.000Z</time>
      </trkpt>
      <trkpt lat="45.09559" lon="5.54165">
        <ele>1304</ele>
        <time>2020-07-19T10:46:16.000Z</time>
      </trkpt>
      <trkpt lat="45.09554" lon="5.54165">
        <ele>1304.8</ele>
        <time>2020-07-19T10:46:19.000Z</time>
      </trkpt>
      <trkpt lat="45.09546" lon="5.54162">
        <ele>1306.2</ele>
        <time>2020-07-19T10:46:25.000Z</time>
      </trkpt>
      <trkpt lat="45.09541" lon="5.54158">
        <ele>1307.4</ele>
        <time>2020-07-19T10:46:30.000Z</time>
      </trkpt>
      <trkpt lat="45.09536" lon="5.54155">
        <ele>1308</ele>
        <time>2020-07-19T10:46:34.000Z</time>
      </trkpt>
      <trkpt lat="45.09528" lon="5.54151">
        <ele>1307.8</ele>
        <time>2020-07-19T10:46:41.000Z</time>
      </trkpt>
      <trkpt lat="45.0952" lon="5.54149">
        <ele>1308.2</ele>
        <time>2020-07-19T10:46:46.000Z</time>
      </trkpt>
      <trkpt lat="45.09516" lon="5.54148">
        <ele>1308.6</ele>
        <time>2020-07-19T10:46:49.000Z</time>
      </trkpt>
      <trkpt lat="45.09511" lon="5.54145">
        <ele>1309</ele>
        <time>2020-07-19T10:46:53.000Z</time>
      </trkpt>
      <trkpt lat="45.09505" lon="5.54142">
        <ele>1309.4</ele>
        <time>2020-07-19T10:46:58.000Z</time>
      </trkpt>
      <trkpt lat="45.09497" lon="5.54137">
        <ele>1310.8</ele>
        <time>2020-07-19T10:47:04.000Z</time>
      </trkpt>
      <trkpt lat="45.09492" lon="5.54132">
        <ele>1312</ele>
        <time>2020-07-19T10:47:08.000Z</time>
      </trkpt>
      <trkpt lat="45.09486" lon="5.54125">
        <ele>1313.8</ele>
        <time>2020-07-19T10:47:14.000Z</time>
      </trkpt>
      <trkpt lat="45.09483" lon="5.54122">
        <ele>1314.8</ele>
        <time>2020-07-19T10:47:17.000Z</time>
      </trkpt>
      <trkpt lat="45.0948" lon="5.54116">
        <ele>1315.8</ele>
        <time>2020-07-19T10:47:21.000Z</time>
      </trkpt>
      <trkpt lat="45.09477" lon="5.54112">
        <ele>1316.6</ele>
        <time>2020-07-19T10:47:24.000Z</time>
      </trkpt>
      <trkpt lat="45.09472" lon="5.54107">
        <ele>1317.4</ele>
        <time>2020-07-19T10:47:28.000Z</time>
      </trkpt>
      <trkpt lat="45.09467" lon="5.54101">
        <ele>1318.4</ele>
        <time>2020-07-19T10:47:32.000Z</time>
      </trkpt>
      <trkpt lat="45.09464" lon="5.54099">
        <ele>1319</ele>
        <time>2020-07-19T10:47:34.000Z</time>
      </trkpt>
      <trkpt lat="45.09456" lon="5.54096">
        <ele>1320.6</ele>
        <time>2020-07-19T10:47:39.000Z</time>
      </trkpt>
      <trkpt lat="45.09449" lon="5.54092">
        <ele>1321.6</ele>
        <time>2020-07-19T10:47:43.000Z</time>
      </trkpt>
      <trkpt lat="45.09442" lon="5.54089">
        <ele>1323</ele>
        <time>2020-07-19T10:47:48.000Z</time>
      </trkpt>
      <trkpt lat="45.09434" lon="5.54088">
        <ele>1323.8</ele>
        <time>2020-07-19T10:47:53.000Z</time>
      </trkpt>
      <trkpt lat="45.09429" lon="5.54089">
        <ele>1324.4</ele>
        <time>2020-07-19T10:47:56.000Z</time>
      </trkpt>
      <trkpt lat="45.09422" lon="5.5409">
        <ele>1325.2</ele>
        <time>2020-07-19T10:48:00.000Z</time>
      </trkpt>
      <trkpt lat="45.09414" lon="5.54092">
        <ele>1326.2</ele>
        <time>2020-07-19T10:48:05.000Z</time>
      </trkpt>
      <trkpt lat="45.09407" lon="5.54094">
        <ele>1327.2</ele>
        <time>2020-07-19T10:48:10.000Z</time>
      </trkpt>
      <trkpt lat="45.09397" lon="5.54094">
        <ele>1328.4</ele>
        <time>2020-07-19T10:48:16.000Z</time>
      </trkpt>
      <trkpt lat="45.0939" lon="5.54094">
        <ele>1329</ele>
        <time>2020-07-19T10:48:20.000Z</time>
      </trkpt>
      <trkpt lat="45.09381" lon="5.54094">
        <ele>1329.8</ele>
        <time>2020-07-19T10:48:24.000Z</time>
      </trkpt>
      <trkpt lat="45.0937" lon="5.54093">
        <ele>1330.6</ele>
        <time>2020-07-19T10:48:29.000Z</time>
      </trkpt>
      <trkpt lat="45.09362" lon="5.54091">
        <ele>1331.2</ele>
        <time>2020-07-19T10:48:33.000Z</time>
      </trkpt>
      <trkpt lat="45.09359" lon="5.54093">
        <ele>1331.4</ele>
        <time>2020-07-19T10:48:35.000Z</time>
      </trkpt>
      <trkpt lat="45.09359" lon="5.541">
        <ele>1332.2</ele>
        <time>2020-07-19T10:48:40.000Z</time>
      </trkpt>
      <trkpt lat="45.09369" lon="5.54111">
        <ele>1324.6</ele>
        <time>2020-07-19T10:54:42.000Z</time>
      </trkpt>
      <trkpt lat="45.09374" lon="5.54115">
        <ele>1324.4</ele>
        <time>2020-07-19T10:54:44.000Z</time>
      </trkpt>
      <trkpt lat="45.09379" lon="5.54122">
        <ele>1324.2</ele>
        <time>2020-07-19T10:54:46.000Z</time>
      </trkpt>
      <trkpt lat="45.09388" lon="5.54136">
        <ele>1323.8</ele>
        <time>2020-07-19T10:54:49.000Z</time>
      </trkpt>
      <trkpt lat="45.09391" lon="5.54141">
        <ele>1323.8</ele>
        <time>2020-07-19T10:54:50.000Z</time>
      </trkpt>
      <trkpt lat="45.09398" lon="5.54151">
        <ele>1323.4</ele>
        <time>2020-07-19T10:54:52.000Z</time>
      </trkpt>
      <trkpt lat="45.09401" lon="5.54155">
        <ele>1323.2</ele>
        <time>2020-07-19T10:54:53.000Z</time>
      </trkpt>
      <trkpt lat="45.09407" lon="5.5416">
        <ele>1322.8</ele>
        <time>2020-07-19T10:54:55.000Z</time>
      </trkpt>
      <trkpt lat="45.09419" lon="5.54168">
        <ele>1322.4</ele>
        <time>2020-07-19T10:54:58.000Z</time>
      </trkpt>
      <trkpt lat="45.09426" lon="5.54176">
        <ele>1322</ele>
        <time>2020-07-19T10:55:00.000Z</time>
      </trkpt>
      <trkpt lat="45.09433" lon="5.54183">
        <ele>1321.4</ele>
        <time>2020-07-19T10:55:02.000Z</time>
      </trkpt>
      <trkpt lat="45.09438" lon="5.5419">
        <ele>1320.8</ele>
        <time>2020-07-19T10:55:04.000Z</time>
      </trkpt>
      <trkpt lat="45.09442" lon="5.54192">
        <ele>1320.4</ele>
        <time>2020-07-19T10:55:05.000Z</time>
      </trkpt>
      <trkpt lat="45.09451" lon="5.54197">
        <ele>1320</ele>
        <time>2020-07-19T10:55:07.000Z</time>
      </trkpt>
      <trkpt lat="45.09459" lon="5.54201">
        <ele>1319.4</ele>
        <time>2020-07-19T10:55:09.000Z</time>
      </trkpt>
      <trkpt lat="45.09464" lon="5.54202">
        <ele>1319</ele>
        <time>2020-07-19T10:55:10.000Z</time>
      </trkpt>
      <trkpt lat="45.0948" lon="5.54213">
        <ele>1317.8</ele>
        <time>2020-07-19T10:55:14.000Z</time>
      </trkpt>
      <trkpt lat="45.09488" lon="5.54217">
        <ele>1317</ele>
        <time>2020-07-19T10:55:16.000Z</time>
      </trkpt>
      <trkpt lat="45.09491" lon="5.54219">
        <ele>1316.8</ele>
        <time>2020-07-19T10:55:17.000Z</time>
      </trkpt>
      <trkpt lat="45.09494" lon="5.54233">
        <ele>1315.2</ele>
        <time>2020-07-19T10:55:21.000Z</time>
      </trkpt>
      <trkpt lat="45.09498" lon="5.54241">
        <ele>1314.4</ele>
        <time>2020-07-19T10:55:23.000Z</time>
      </trkpt>
      <trkpt lat="45.09506" lon="5.54254">
        <ele>1312.8</ele>
        <time>2020-07-19T10:55:26.000Z</time>
      </trkpt>
      <trkpt lat="45.09506" lon="5.54266">
        <ele>1311.2</ele>
        <time>2020-07-19T10:55:29.000Z</time>
      </trkpt>
      <trkpt lat="45.09507" lon="5.54273">
        <ele>1310</ele>
        <time>2020-07-19T10:55:31.000Z</time>
      </trkpt>
      <trkpt lat="45.09511" lon="5.54278">
        <ele>1308.8</ele>
        <time>2020-07-19T10:55:33.000Z</time>
      </trkpt>
      <trkpt lat="45.09518" lon="5.54283">
        <ele>1307.6</ele>
        <time>2020-07-19T10:55:35.000Z</time>
      </trkpt>
      <trkpt lat="45.09526" lon="5.54287">
        <ele>1306.4</ele>
        <time>2020-07-19T10:55:37.000Z</time>
      </trkpt>
      <trkpt lat="45.09534" lon="5.5429">
        <ele>1305.2</ele>
        <time>2020-07-19T10:55:39.000Z</time>
      </trkpt>
      <trkpt lat="45.09538" lon="5.54293">
        <ele>1304.6</ele>
        <time>2020-07-19T10:55:40.000Z</time>
      </trkpt>
      <trkpt lat="45.09543" lon="5.54299">
        <ele>1303.2</ele>
        <time>2020-07-19T10:55:42.000Z</time>
      </trkpt>
      <trkpt lat="45.09552" lon="5.54305">
        <ele>1300.8</ele>
        <time>2020-07-19T10:55:45.000Z</time>
      </trkpt>
      <trkpt lat="45.09559" lon="5.54315">
        <ele>1298.8</ele>
        <time>2020-07-19T10:55:48.000Z</time>
      </trkpt>
      <trkpt lat="45.09568" lon="5.54322">
        <ele>1296</ele>
        <time>2020-07-19T10:55:52.000Z</time>
      </trkpt>
      <trkpt lat="45.09578" lon="5.54331">
        <ele>1294</ele>
        <time>2020-07-19T10:55:55.000Z</time>
      </trkpt>
      <trkpt lat="45.09584" lon="5.54337">
        <ele>1292.4</ele>
        <time>2020-07-19T10:55:57.000Z</time>
      </trkpt>
      <trkpt lat="45.09593" lon="5.54341">
        <ele>1291</ele>
        <time>2020-07-19T10:55:59.000Z</time>
      </trkpt>
      <trkpt lat="45.09599" lon="5.54344">
        <ele>1290.4</ele>
        <time>2020-07-19T10:56:00.000Z</time>
      </trkpt>
      <trkpt lat="45.09611" lon="5.54357">
        <ele>1288.4</ele>
        <time>2020-07-19T10:56:03.000Z</time>
      </trkpt>
      <trkpt lat="45.0962" lon="5.54363">
        <ele>1287</ele>
        <time>2020-07-19T10:56:05.000Z</time>
      </trkpt>
      <trkpt lat="45.09625" lon="5.5437">
        <ele>1285.4</ele>
        <time>2020-07-19T10:56:07.000Z</time>
      </trkpt>
      <trkpt lat="45.09625" lon="5.54378">
        <ele>1284</ele>
        <time>2020-07-19T10:56:09.000Z</time>
      </trkpt>
      <trkpt lat="45.09627" lon="5.54386">
        <ele>1282.4</ele>
        <time>2020-07-19T10:56:11.000Z</time>
      </trkpt>
      <trkpt lat="45.09633" lon="5.54395">
        <ele>1280.6</ele>
        <time>2020-07-19T10:56:13.000Z</time>
      </trkpt>
      <trkpt lat="45.09641" lon="5.544">
        <ele>1277.2</ele>
        <time>2020-07-19T10:56:17.000Z</time>
      </trkpt>
      <trkpt lat="45.09644" lon="5.54406">
        <ele>1269.4</ele>
        <time>2020-07-19T10:56:30.000Z</time>
      </trkpt>
      <trkpt lat="45.09643" lon="5.54408">
        <ele>1268</ele>
        <time>2020-07-19T10:56:32.000Z</time>
      </trkpt>
      <trkpt lat="45.09642" lon="5.54412">
        <ele>1265</ele>
        <time>2020-07-19T10:56:35.000Z</time>
      </trkpt>
      <trkpt lat="45.09644" lon="5.54417">
        <ele>1259.6</ele>
        <time>2020-07-19T10:56:40.000Z</time>
      </trkpt>
      <trkpt lat="45.09644" lon="5.54428">
        <ele>1234.4</ele>
        <time>2020-07-19T10:57:06.000Z</time>
      </trkpt>
      <trkpt lat="45.09645" lon="5.54442">
        <ele>1231.8</ele>
        <time>2020-07-19T10:57:10.000Z</time>
      </trkpt>
      <trkpt lat="45.09645" lon="5.54451">
        <ele>1231</ele>
        <time>2020-07-19T10:57:12.000Z</time>
      </trkpt>
      <trkpt lat="45.09644" lon="5.5446">
        <ele>1230</ele>
        <time>2020-07-19T10:57:14.000Z</time>
      </trkpt>
      <trkpt lat="45.09645" lon="5.54469">
        <ele>1229.2</ele>
        <time>2020-07-19T10:57:16.000Z</time>
      </trkpt>
      <trkpt lat="45.09648" lon="5.5448">
        <ele>1228.2</ele>
        <time>2020-07-19T10:57:18.000Z</time>
      </trkpt>
      <trkpt lat="45.09654" lon="5.54492">
        <ele>1227.2</ele>
        <time>2020-07-19T10:57:20.000Z</time>
      </trkpt>
      <trkpt lat="45.09656" lon="5.54501">
        <ele>1226.4</ele>
        <time>2020-07-19T10:57:22.000Z</time>
      </trkpt>
      <trkpt lat="45.09653" lon="5.54508">
        <ele>1225.8</ele>
        <time>2020-07-19T10:57:24.000Z</time>
      </trkpt>
      <trkpt lat="45.09652" lon="5.54515">
        <ele>1225.4</ele>
        <time>2020-07-19T10:57:26.000Z</time>
      </trkpt>
      <trkpt lat="45.09657" lon="5.54521">
        <ele>1224.8</ele>
        <time>2020-07-19T10:57:28.000Z</time>
      </trkpt>
      <trkpt lat="45.09658" lon="5.54531">
        <ele>1224.2</ele>
        <time>2020-07-19T10:57:30.000Z</time>
      </trkpt>
      <trkpt lat="45.09656" lon="5.5455">
        <ele>1223.2</ele>
        <time>2020-07-19T10:57:33.000Z</time>
      </trkpt>
      <trkpt lat="45.09657" lon="5.54559">
        <ele>1222.6</ele>
        <time>2020-07-19T10:57:35.000Z</time>
      </trkpt>
      <trkpt lat="45.09658" lon="5.54564">
        <ele>1222.2</ele>
        <time>2020-07-19T10:57:36.000Z</time>
      </trkpt>
      <trkpt lat="45.09663" lon="5.54575">
        <ele>1221.6</ele>
        <time>2020-07-19T10:57:38.000Z</time>
      </trkpt>
      <trkpt lat="45.09664" lon="5.54585">
        <ele>1220.8</ele>
        <time>2020-07-19T10:57:40.000Z</time>
      </trkpt>
      <trkpt lat="45.09661" lon="5.54594">
        <ele>1220</ele>
        <time>2020-07-19T10:57:42.000Z</time>
      </trkpt>
      <trkpt lat="45.0966" lon="5.54603">
        <ele>1219.4</ele>
        <time>2020-07-19T10:57:44.000Z</time>
      </trkpt>
      <trkpt lat="45.09663" lon="5.54609">
        <ele>1218.8</ele>
        <time>2020-07-19T10:57:46.000Z</time>
      </trkpt>
      <trkpt lat="45.09668" lon="5.54611">
        <ele>1217.8</ele>
        <time>2020-07-19T10:57:50.000Z</time>
      </trkpt>
      <trkpt lat="45.09675" lon="5.5461">
        <ele>1217.2</ele>
        <time>2020-07-19T10:57:55.000Z</time>
      </trkpt>
      <trkpt lat="45.09681" lon="5.54608">
        <ele>1216.6</ele>
        <time>2020-07-19T10:58:01.000Z</time>
      </trkpt>
      <trkpt lat="45.09687" lon="5.54612">
        <ele>1215.4</ele>
        <time>2020-07-19T10:58:12.000Z</time>
      </trkpt>
      <trkpt lat="45.09691" lon="5.54618">
        <ele>1215</ele>
        <time>2020-07-19T10:58:13.000Z</time>
      </trkpt>
      <trkpt lat="45.09694" lon="5.54627">
        <ele>1214.6</ele>
        <time>2020-07-19T10:58:15.000Z</time>
      </trkpt>
      <trkpt lat="45.09703" lon="5.54637">
        <ele>1214</ele>
        <time>2020-07-19T10:58:18.000Z</time>
      </trkpt>
      <trkpt lat="45.09706" lon="5.54643">
        <ele>1213.6</ele>
        <time>2020-07-19T10:58:20.000Z</time>
      </trkpt>
      <trkpt lat="45.0971" lon="5.54649">
        <ele>1213.2</ele>
        <time>2020-07-19T10:58:22.000Z</time>
      </trkpt>
      <trkpt lat="45.09734" lon="5.54661">
        <ele>1212.2</ele>
        <time>2020-07-19T10:58:25.000Z</time>
      </trkpt>
      <trkpt lat="45.09739" lon="5.54667">
        <ele>1212</ele>
        <time>2020-07-19T10:58:26.000Z</time>
      </trkpt>
      <trkpt lat="45.09743" lon="5.5467">
        <ele>1211.8</ele>
        <time>2020-07-19T10:58:27.000Z</time>
      </trkpt>
      <trkpt lat="45.09748" lon="5.54677">
        <ele>1211.2</ele>
        <time>2020-07-19T10:58:29.000Z</time>
      </trkpt>
      <trkpt lat="45.09749" lon="5.54683">
        <ele>1210.8</ele>
        <time>2020-07-19T10:58:30.000Z</time>
      </trkpt>
      <trkpt lat="45.09749" lon="5.54692">
        <ele>1210.4</ele>
        <time>2020-07-19T10:58:31.000Z</time>
      </trkpt>
      <trkpt lat="45.09758" lon="5.54695">
        <ele>1209</ele>
        <time>2020-07-19T10:58:35.000Z</time>
      </trkpt>
      <trkpt lat="45.09764" lon="5.54697">
        <ele>1208.4</ele>
        <time>2020-07-19T10:58:37.000Z</time>
      </trkpt>
      <trkpt lat="45.09768" lon="5.54705">
        <ele>1207.6</ele>
        <time>2020-07-19T10:58:39.000Z</time>
      </trkpt>
      <trkpt lat="45.09773" lon="5.54717">
        <ele>1206.4</ele>
        <time>2020-07-19T10:58:42.000Z</time>
      </trkpt>
      <trkpt lat="45.09777" lon="5.54722">
        <ele>1205.6</ele>
        <time>2020-07-19T10:58:44.000Z</time>
      </trkpt>
      <trkpt lat="45.09782" lon="5.54731">
        <ele>1203.6</ele>
        <time>2020-07-19T10:58:48.000Z</time>
      </trkpt>
      <trkpt lat="45.09789" lon="5.54735">
        <ele>1202.4</ele>
        <time>2020-07-19T10:58:51.000Z</time>
      </trkpt>
      <trkpt lat="45.09792" lon="5.54741">
        <ele>1201.4</ele>
        <time>2020-07-19T10:58:53.000Z</time>
      </trkpt>
      <trkpt lat="45.09795" lon="5.54755">
        <ele>1199.4</ele>
        <time>2020-07-19T10:58:57.000Z</time>
      </trkpt>
      <trkpt lat="45.09798" lon="5.54765">
        <ele>1198</ele>
        <time>2020-07-19T10:59:00.000Z</time>
      </trkpt>
      <trkpt lat="45.09796" lon="5.54776">
        <ele>1196.2</ele>
        <time>2020-07-19T10:59:03.000Z</time>
      </trkpt>
      <trkpt lat="45.09789" lon="5.54783">
        <ele>1195</ele>
        <time>2020-07-19T10:59:05.000Z</time>
      </trkpt>
      <trkpt lat="45.09779" lon="5.54793">
        <ele>1193</ele>
        <time>2020-07-19T10:59:08.000Z</time>
      </trkpt>
      <trkpt lat="45.09767" lon="5.54804">
        <ele>1190.6</ele>
        <time>2020-07-19T10:59:12.000Z</time>
      </trkpt>
      <trkpt lat="45.09761" lon="5.54809">
        <ele>1188.6</ele>
        <time>2020-07-19T10:59:15.000Z</time>
      </trkpt>
      <trkpt lat="45.09753" lon="5.54814">
        <ele>1185.6</ele>
        <time>2020-07-19T10:59:19.000Z</time>
      </trkpt>
      <trkpt lat="45.09748" lon="5.5482">
        <ele>1184</ele>
        <time>2020-07-19T10:59:21.000Z</time>
      </trkpt>
      <trkpt lat="45.09741" lon="5.54825">
        <ele>1182.6</ele>
        <time>2020-07-19T10:59:23.000Z</time>
      </trkpt>
      <trkpt lat="45.09729" lon="5.54836">
        <ele>1180.2</ele>
        <time>2020-07-19T10:59:26.000Z</time>
      </trkpt>
      <trkpt lat="45.09722" lon="5.54841">
        <ele>1178.8</ele>
        <time>2020-07-19T10:59:28.000Z</time>
      </trkpt>
      <trkpt lat="45.09715" lon="5.54847">
        <ele>1177.2</ele>
        <time>2020-07-19T10:59:30.000Z</time>
      </trkpt>
      <trkpt lat="45.0971" lon="5.54853">
        <ele>1175.8</ele>
        <time>2020-07-19T10:59:32.000Z</time>
      </trkpt>
      <trkpt lat="45.09708" lon="5.54864">
        <ele>1173</ele>
        <time>2020-07-19T10:59:36.000Z</time>
      </trkpt>
      <trkpt lat="45.0971" lon="5.5487">
        <ele>1170.6</ele>
        <time>2020-07-19T10:59:40.000Z</time>
      </trkpt>
      <trkpt lat="45.09714" lon="5.54872">
        <ele>1168.8</ele>
        <time>2020-07-19T10:59:43.000Z</time>
      </trkpt>
      <trkpt lat="45.09721" lon="5.54873">
        <ele>1167.2</ele>
        <time>2020-07-19T10:59:46.000Z</time>
      </trkpt>
      <trkpt lat="45.09728" lon="5.54878">
        <ele>1165.4</ele>
        <time>2020-07-19T10:59:49.000Z</time>
      </trkpt>
      <trkpt lat="45.09729" lon="5.54889">
        <ele>1163.2</ele>
        <time>2020-07-19T10:59:52.000Z</time>
      </trkpt>
      <trkpt lat="45.09729" lon="5.54902">
        <ele>1161.2</ele>
        <time>2020-07-19T10:59:55.000Z</time>
      </trkpt>
      <trkpt lat="45.09728" lon="5.54906">
        <ele>1160.4</ele>
        <time>2020-07-19T10:59:56.000Z</time>
      </trkpt>
      <trkpt lat="45.09724" lon="5.54919">
        <ele>1157.8</ele>
        <time>2020-07-19T11:00:00.000Z</time>
      </trkpt>
      <trkpt lat="45.09721" lon="5.5493">
        <ele>1156</ele>
        <time>2020-07-19T11:00:03.000Z</time>
      </trkpt>
      <trkpt lat="45.09721" lon="5.54941">
        <ele>1153.6</ele>
        <time>2020-07-19T11:00:07.000Z</time>
      </trkpt>
      <trkpt lat="45.09726" lon="5.54947">
        <ele>1151.8</ele>
        <time>2020-07-19T11:00:10.000Z</time>
      </trkpt>
      <trkpt lat="45.09726" lon="5.54956">
        <ele>1150.4</ele>
        <time>2020-07-19T11:00:12.000Z</time>
      </trkpt>
      <trkpt lat="45.0973" lon="5.54962">
        <ele>1148.4</ele>
        <time>2020-07-19T11:00:15.000Z</time>
      </trkpt>
      <trkpt lat="45.09736" lon="5.5496">
        <ele>1147.2</ele>
        <time>2020-07-19T11:00:17.000Z</time>
      </trkpt>
      <trkpt lat="45.09744" lon="5.54957">
        <ele>1145.8</ele>
        <time>2020-07-19T11:00:19.000Z</time>
      </trkpt>
      <trkpt lat="45.09748" lon="5.54956">
        <ele>1145.2</ele>
        <time>2020-07-19T11:00:20.000Z</time>
      </trkpt>
      <trkpt lat="45.09755" lon="5.54959">
        <ele>1144</ele>
        <time>2020-07-19T11:00:22.000Z</time>
      </trkpt>
      <trkpt lat="45.09763" lon="5.54966">
        <ele>1142</ele>
        <time>2020-07-19T11:00:25.000Z</time>
      </trkpt>
      <trkpt lat="45.09768" lon="5.54973">
        <ele>1140.4</ele>
        <time>2020-07-19T11:00:28.000Z</time>
      </trkpt>
      <trkpt lat="45.09766" lon="5.54978">
        <ele>1137.8</ele>
        <time>2020-07-19T11:00:32.000Z</time>
      </trkpt>
      <trkpt lat="45.09762" lon="5.54989">
        <ele>1135.2</ele>
        <time>2020-07-19T11:00:36.000Z</time>
      </trkpt>
      <trkpt lat="45.09763" lon="5.54999">
        <ele>1132.8</ele>
        <time>2020-07-19T11:00:39.000Z</time>
      </trkpt>
      <trkpt lat="45.09771" lon="5.55007">
        <ele>1129.8</ele>
        <time>2020-07-19T11:00:43.000Z</time>
      </trkpt>
      <trkpt lat="45.09776" lon="5.55011">
        <ele>1127.6</ele>
        <time>2020-07-19T11:00:46.000Z</time>
      </trkpt>
      <trkpt lat="45.09776" lon="5.55017">
        <ele>1125</ele>
        <time>2020-07-19T11:00:50.000Z</time>
      </trkpt>
      <trkpt lat="45.09773" lon="5.55032">
        <ele>1122.2</ele>
        <time>2020-07-19T11:00:54.000Z</time>
      </trkpt>
      <trkpt lat="45.09769" lon="5.55043">
        <ele>1120.8</ele>
        <time>2020-07-19T11:00:56.000Z</time>
      </trkpt>
      <trkpt lat="45.09767" lon="5.5505">
        <ele>1120.2</ele>
        <time>2020-07-19T11:00:57.000Z</time>
      </trkpt>
      <trkpt lat="45.09766" lon="5.55058">
        <ele>1119.6</ele>
        <time>2020-07-19T11:00:58.000Z</time>
      </trkpt>
      <trkpt lat="45.09767" lon="5.55071">
        <ele>1118.4</ele>
        <time>2020-07-19T11:01:00.000Z</time>
      </trkpt>
      <trkpt lat="45.09766" lon="5.55081">
        <ele>1117</ele>
        <time>2020-07-19T11:01:02.000Z</time>
      </trkpt>
      <trkpt lat="45.09764" lon="5.55102">
        <ele>1114.4</ele>
        <time>2020-07-19T11:01:06.000Z</time>
      </trkpt>
      <trkpt lat="45.09766" lon="5.5511">
        <ele>1112.6</ele>
        <time>2020-07-19T11:01:09.000Z</time>
      </trkpt>
      <trkpt lat="45.09769" lon="5.55114">
        <ele>1111.4</ele>
        <time>2020-07-19T11:01:11.000Z</time>
      </trkpt>
      <trkpt lat="45.0977" lon="5.55123">
        <ele>1110.2</ele>
        <time>2020-07-19T11:01:13.000Z</time>
      </trkpt>
      <trkpt lat="45.09769" lon="5.55131">
        <ele>1109.2</ele>
        <time>2020-07-19T11:01:15.000Z</time>
      </trkpt>
      <trkpt lat="45.09765" lon="5.55138">
        <ele>1108</ele>
        <time>2020-07-19T11:01:17.000Z</time>
      </trkpt>
      <trkpt lat="45.09763" lon="5.55143">
        <ele>1107.4</ele>
        <time>2020-07-19T11:01:18.000Z</time>
      </trkpt>
      <trkpt lat="45.09763" lon="5.55151">
        <ele>1106.2</ele>
        <time>2020-07-19T11:01:20.000Z</time>
      </trkpt>
      <trkpt lat="45.09766" lon="5.55155">
        <ele>1104.8</ele>
        <time>2020-07-19T11:01:22.000Z</time>
      </trkpt>
      <trkpt lat="45.09771" lon="5.5516">
        <ele>1102.4</ele>
        <time>2020-07-19T11:01:26.000Z</time>
      </trkpt>
      <trkpt lat="45.09769" lon="5.55172">
        <ele>1100.6</ele>
        <time>2020-07-19T11:01:29.000Z</time>
      </trkpt>
      <trkpt lat="45.09769" lon="5.55182">
        <ele>1099</ele>
        <time>2020-07-19T11:01:31.000Z</time>
      </trkpt>
      <trkpt lat="45.09772" lon="5.55189">
        <ele>1097.6</ele>
        <time>2020-07-19T11:01:33.000Z</time>
      </trkpt>
      <trkpt lat="45.09781" lon="5.55193">
        <ele>1093.6</ele>
        <time>2020-07-19T11:01:38.000Z</time>
      </trkpt>
      <trkpt lat="45.09783" lon="5.55199">
        <ele>1092</ele>
        <time>2020-07-19T11:01:40.000Z</time>
      </trkpt>
      <trkpt lat="45.09786" lon="5.55207">
        <ele>1090.6</ele>
        <time>2020-07-19T11:01:42.000Z</time>
      </trkpt>
      <trkpt lat="45.09794" lon="5.55216">
        <ele>1087.4</ele>
        <time>2020-07-19T11:01:46.000Z</time>
      </trkpt>
      <trkpt lat="45.098" lon="5.55227">
        <ele>1083.2</ele>
        <time>2020-07-19T11:01:52.000Z</time>
      </trkpt>
      <trkpt lat="45.098" lon="5.55234">
        <ele>1080.4</ele>
        <time>2020-07-19T11:01:56.000Z</time>
      </trkpt>
      <trkpt lat="45.09799" lon="5.55238">
        <ele>1079.2</ele>
        <time>2020-07-19T11:01:58.000Z</time>
      </trkpt>
      <trkpt lat="45.09795" lon="5.55246">
        <ele>1077.2</ele>
        <time>2020-07-19T11:02:02.000Z</time>
      </trkpt>
      <trkpt lat="45.09793" lon="5.55256">
        <ele>1075.4</ele>
        <time>2020-07-19T11:02:05.000Z</time>
      </trkpt>
      <trkpt lat="45.09797" lon="5.55265">
        <ele>1073.6</ele>
        <time>2020-07-19T11:02:08.000Z</time>
      </trkpt>
      <trkpt lat="45.09794" lon="5.55275">
        <ele>1071.4</ele>
        <time>2020-07-19T11:02:12.000Z</time>
      </trkpt>
      <trkpt lat="45.09788" lon="5.55289">
        <ele>1069.2</ele>
        <time>2020-07-19T11:02:16.000Z</time>
      </trkpt>
      <trkpt lat="45.09784" lon="5.55307">
        <ele>1067.2</ele>
        <time>2020-07-19T11:02:19.000Z</time>
      </trkpt>
      <trkpt lat="45.09783" lon="5.55313">
        <ele>1066.4</ele>
        <time>2020-07-19T11:02:20.000Z</time>
      </trkpt>
      <trkpt lat="45.09782" lon="5.55323">
        <ele>1065</ele>
        <time>2020-07-19T11:02:22.000Z</time>
      </trkpt>
      <trkpt lat="45.09782" lon="5.55333">
        <ele>1063.4</ele>
        <time>2020-07-19T11:02:24.000Z</time>
      </trkpt>
      <trkpt lat="45.09782" lon="5.55343">
        <ele>1061.6</ele>
        <time>2020-07-19T11:02:26.000Z</time>
      </trkpt>
      <trkpt lat="45.09782" lon="5.55354">
        <ele>1059.6</ele>
        <time>2020-07-19T11:02:28.000Z</time>
      </trkpt>
      <trkpt lat="45.09784" lon="5.55377">
        <ele>1056.2</ele>
        <time>2020-07-19T11:02:31.000Z</time>
      </trkpt>
      <trkpt lat="45.09784" lon="5.55384">
        <ele>1055</ele>
        <time>2020-07-19T11:02:32.000Z</time>
      </trkpt>
      <trkpt lat="45.09786" lon="5.55391">
        <ele>1054</ele>
        <time>2020-07-19T11:02:33.000Z</time>
      </trkpt>
      <trkpt lat="45.09791" lon="5.55404">
        <ele>1051.8</ele>
        <time>2020-07-19T11:02:35.000Z</time>
      </trkpt>
      <trkpt lat="45.09794" lon="5.55411">
        <ele>1050.8</ele>
        <time>2020-07-19T11:02:36.000Z</time>
      </trkpt>
      <trkpt lat="45.09807" lon="5.55433">
        <ele>1046.4</ele>
        <time>2020-07-19T11:02:40.000Z</time>
      </trkpt>
      <trkpt lat="45.0981" lon="5.55439">
        <ele>1045.2</ele>
        <time>2020-07-19T11:02:41.000Z</time>
      </trkpt>
      <trkpt lat="45.09818" lon="5.55445">
        <ele>1043</ele>
        <time>2020-07-19T11:02:43.000Z</time>
      </trkpt>
      <trkpt lat="45.09825" lon="5.55448">
        <ele>1041.4</ele>
        <time>2020-07-19T11:02:45.000Z</time>
      </trkpt>
      <trkpt lat="45.09832" lon="5.55448">
        <ele>1038</ele>
        <time>2020-07-19T11:02:50.000Z</time>
      </trkpt>
      <trkpt lat="45.09837" lon="5.55449">
        <ele>1034.6</ele>
        <time>2020-07-19T11:02:57.000Z</time>
      </trkpt>
      <trkpt lat="45.09842" lon="5.55451">
        <ele>1033.6</ele>
        <time>2020-07-19T11:02:59.000Z</time>
      </trkpt>
      <trkpt lat="45.09848" lon="5.55456">
        <ele>1032.8</ele>
        <time>2020-07-19T11:03:01.000Z</time>
      </trkpt>
      <trkpt lat="45.09852" lon="5.55464">
        <ele>1031.8</ele>
        <time>2020-07-19T11:03:03.000Z</time>
      </trkpt>
      <trkpt lat="45.09854" lon="5.55474">
        <ele>1030.6</ele>
        <time>2020-07-19T11:03:05.000Z</time>
      </trkpt>
      <trkpt lat="45.09858" lon="5.55482">
        <ele>1029.6</ele>
        <time>2020-07-19T11:03:07.000Z</time>
      </trkpt>
      <trkpt lat="45.09861" lon="5.55491">
        <ele>1028.6</ele>
        <time>2020-07-19T11:03:09.000Z</time>
      </trkpt>
      <trkpt lat="45.09864" lon="5.55499">
        <ele>1027.4</ele>
        <time>2020-07-19T11:03:11.000Z</time>
      </trkpt>
      <trkpt lat="45.09866" lon="5.55509">
        <ele>1026.4</ele>
        <time>2020-07-19T11:03:13.000Z</time>
      </trkpt>
      <trkpt lat="45.09868" lon="5.55514">
        <ele>1026</ele>
        <time>2020-07-19T11:03:14.000Z</time>
      </trkpt>
      <trkpt lat="45.09869" lon="5.55524">
        <ele>1025</ele>
        <time>2020-07-19T11:03:16.000Z</time>
      </trkpt>
      <trkpt lat="45.09869" lon="5.55542">
        <ele>1023.4</ele>
        <time>2020-07-19T11:03:19.000Z</time>
      </trkpt>
      <trkpt lat="45.09868" lon="5.55554">
        <ele>1022.2</ele>
        <time>2020-07-19T11:03:21.000Z</time>
      </trkpt>
      <trkpt lat="45.09869" lon="5.5556">
        <ele>1021.8</ele>
        <time>2020-07-19T11:03:22.000Z</time>
      </trkpt>
      <trkpt lat="45.09868" lon="5.55578">
        <ele>1020.4</ele>
        <time>2020-07-19T11:03:25.000Z</time>
      </trkpt>
      <trkpt lat="45.09868" lon="5.55591">
        <ele>1019.4</ele>
        <time>2020-07-19T11:03:27.000Z</time>
      </trkpt>
      <trkpt lat="45.09868" lon="5.55598">
        <ele>1018.8</ele>
        <time>2020-07-19T11:03:28.000Z</time>
      </trkpt>
      <trkpt lat="45.09868" lon="5.55613">
        <ele>1017.4</ele>
        <time>2020-07-19T11:03:30.000Z</time>
      </trkpt>
      <trkpt lat="45.09867" lon="5.5563">
        <ele>1016</ele>
        <time>2020-07-19T11:03:32.000Z</time>
      </trkpt>
      <trkpt lat="45.09865" lon="5.55638">
        <ele>1015.4</ele>
        <time>2020-07-19T11:03:33.000Z</time>
      </trkpt>
      <trkpt lat="45.09861" lon="5.55644">
        <ele>1014.6</ele>
        <time>2020-07-19T11:03:34.000Z</time>
      </trkpt>
      <trkpt lat="45.09857" lon="5.55648">
        <ele>1013.8</ele>
        <time>2020-07-19T11:03:35.000Z</time>
      </trkpt>
      <trkpt lat="45.09851" lon="5.55651">
        <ele>1013.2</ele>
        <time>2020-07-19T11:03:36.000Z</time>
      </trkpt>
      <trkpt lat="45.0983" lon="5.55656">
        <ele>1011.2</ele>
        <time>2020-07-19T11:03:39.000Z</time>
      </trkpt>
      <trkpt lat="45.09805" lon="5.55659">
        <ele>1009.4</ele>
        <time>2020-07-19T11:03:42.000Z</time>
      </trkpt>
      <trkpt lat="45.09797" lon="5.55661">
        <ele>1008.8</ele>
        <time>2020-07-19T11:03:43.000Z</time>
      </trkpt>
      <trkpt lat="45.0977" lon="5.55667">
        <ele>1007.4</ele>
        <time>2020-07-19T11:03:46.000Z</time>
      </trkpt>
      <trkpt lat="45.0975" lon="5.55669">
        <ele>1006.6</ele>
        <time>2020-07-19T11:03:48.000Z</time>
      </trkpt>
      <trkpt lat="45.09721" lon="5.55675">
        <ele>1005.4</ele>
        <time>2020-07-19T11:03:51.000Z</time>
      </trkpt>
      <trkpt lat="45.09712" lon="5.55679">
        <ele>1005</ele>
        <time>2020-07-19T11:03:52.000Z</time>
      </trkpt>
      <trkpt lat="45.09677" lon="5.55695">
        <ele>1002.4</ele>
        <time>2020-07-19T11:03:56.000Z</time>
      </trkpt>
      <trkpt lat="45.09661" lon="5.557">
        <ele>1000.6</ele>
        <time>2020-07-19T11:03:58.000Z</time>
      </trkpt>
      <trkpt lat="45.09654" lon="5.55701">
        <ele>999.8</ele>
        <time>2020-07-19T11:03:59.000Z</time>
      </trkpt>
      <trkpt lat="45.09638" lon="5.55701">
        <ele>997.2</ele>
        <time>2020-07-19T11:04:02.000Z</time>
      </trkpt>
      <trkpt lat="45.09632" lon="5.55702">
        <ele>995.4</ele>
        <time>2020-07-19T11:04:04.000Z</time>
      </trkpt>
      <trkpt lat="45.09626" lon="5.5571">
        <ele>990.8</ele>
        <time>2020-07-19T11:04:09.000Z</time>
      </trkpt>
      <trkpt lat="45.09648" lon="5.55748">
        <ele>981.9</ele>
      </trkpt>
      <trkpt lat="45.09642" lon="5.55898">
        <ele>980.9</ele>
      </trkpt>
      <trkpt lat="45.09624" lon="5.559">
        <ele>980.9</ele>
      </trkpt>
      <trkpt lat="45.09578" lon="5.55951">
        <ele>983.3</ele>
      </trkpt>
      <trkpt lat="45.09533" lon="5.55959">
        <ele>986.2</ele>
      </trkpt>
      <trkpt lat="45.09491" lon="5.56085">
        <ele>992.2</ele>
      </trkpt>
      <trkpt lat="45.09418" lon="5.5615">
        <ele>994.7</ele>
      </trkpt>
      <trkpt lat="45.09231" lon="5.56543">
        <ele>1011.1</ele>
      </trkpt>
      <trkpt lat="45.08988" lon="5.56838">
        <ele>1025.6</ele>
      </trkpt>
      <trkpt lat="45.08775" lon="5.56818">
        <ele>1029.6</ele>
      </trkpt>
      <trkpt lat="45.08713" lon="5.56956">
        <ele>1030.6</ele>
      </trkpt>
      <trkpt lat="45.08705" lon="5.56913">
        <ele>1026.9</ele>
      </trkpt>
      <trkpt lat="45.0867" lon="5.56981">
        <ele>1028.5</ele>
      </trkpt>
      <trkpt lat="45.08603" lon="5.57024">
        <ele>1025.3</ele>
      </trkpt>
      <trkpt lat="45.0853" lon="5.57014">
        <ele>1024</ele>
      </trkpt>
      <trkpt lat="45.0847" lon="5.56938">
        <ele>1028.6</ele>
      </trkpt>
      <trkpt lat="45.08442" lon="5.56841">
        <ele>1031.7</ele>
      </trkpt>
      <trkpt lat="45.08425" lon="5.568">
        <ele>1032.9</ele>
      </trkpt>
      <trkpt lat="45.0834" lon="5.56816">
        <ele>1027.8</ele>
      </trkpt>
      <trkpt lat="45.08298" lon="5.56718">
        <ele>1025.1</ele>
      </trkpt>
      <trkpt lat="45.08247" lon="5.56637">
        <ele>1023.8</ele>
      </trkpt>
      <trkpt lat="45.08237" lon="5.56575">
        <ele>1024.7</ele>
      </trkpt>
      <trkpt lat="45.08194" lon="5.56527">
        <ele>1021.9</ele>
      </trkpt>
      <trkpt lat="45.08203" lon="5.56395">
        <ele>1016.4</ele>
      </trkpt>
      <trkpt lat="45.08182" lon="5.56219">
        <ele>1020.2</ele>
      </trkpt>
      <trkpt lat="45.08031" lon="5.56093">
        <ele>1026.2</ele>
      </trkpt>
      <trkpt lat="45.07955" lon="5.55965">
        <ele>1023.5</ele>
      </trkpt>
      <trkpt lat="45.07752" lon="5.56527">
        <ele>1033.9</ele>
      </trkpt>
      <trkpt lat="45.07715" lon="5.5651">
        <ele>1027.3</ele>
      </trkpt>
      <trkpt lat="45.07694" lon="5.56591">
        <ele>1030.9</ele>
      </trkpt>
      <trkpt lat="45.07558" lon="5.56645">
        <ele>1019.6</ele>
      </trkpt>
      <trkpt lat="45.07504" lon="5.56609">
        <ele>1011.2</ele>
      </trkpt>
      <trkpt lat="45.07458" lon="5.56533">
        <ele>1015.8</ele>
      </trkpt>
      <trkpt lat="45.07439" lon="5.56474">
        <ele>1021.7</ele>
      </trkpt>
      <trkpt lat="45.07351" lon="5.56429">
        <ele>1029.8</ele>
      </trkpt>
      <trkpt lat="45.0729" lon="5.56426">
        <ele>1033.3</ele>
      </trkpt>
      <trkpt lat="45.07283" lon="5.56409">
        <ele>1034.5</ele>
      </trkpt>
      <trkpt lat="45.07361" lon="5.5637">
        <ele>1034.1</ele>
      </trkpt>
      <trkpt lat="45.07395" lon="5.56354">
        <ele>1032.7</ele>
      </trkpt>
      <trkpt lat="45.07403" lon="5.56165">
        <ele>1033.8</ele>
      </trkpt>
      <trkpt lat="45.07378" lon="5.56044">
        <ele>1033.3</ele>
      </trkpt>
      <trkpt lat="45.07419" lon="5.5604">
        <ele>1033.3</ele>
      </trkpt>
    </trkseg>
  </trk>
</gpx>